<?xml version="1.0" encoding="UTF-8" standalone="no" ?>
<gpx xmlns="http://www.topografix.com/GPX/1/1" xmlns:xsi="http://www.w3.org/2001/XMLSchema-instance" xsi:schemaLocation="http://www.topografix.com/GPX/1/1 http://www.topografix.com/GPX/1/1/gpx.xsd" version="1.1" creator="VisuGPX - https://www.visugpx.com">
  <metadata>
    <name>Lac Bramant</name>
    <desc><![CDATA[Trace AlpineQuest 17/07/2022 09:15:34]]></desc>
  </metadata>
  <trk>
    <name><![CDATA[Lac Bramant_1]]></name>
    <trkseg>
      <trkpt lat="45.22083" lon="6.21795">
        <ele>1634.546</ele>
        <time>2022-07-17T07:15:34Z</time>
      </trkpt>
      <trkpt lat="45.22083" lon="6.21798">
        <ele>1636.635</ele>
        <time>2022-07-17T07:15:39Z</time>
      </trkpt>
      <trkpt lat="45.22081" lon="6.21801">
        <ele>1637.156</ele>
        <time>2022-07-17T07:15:44Z</time>
      </trkpt>
      <trkpt lat="45.22082" lon="6.21798">
        <ele>1638.87</ele>
        <time>2022-07-17T07:15:49Z</time>
      </trkpt>
      <trkpt lat="45.22082" lon="6.21798">
        <ele>1640.379</ele>
        <time>2022-07-17T07:15:54Z</time>
      </trkpt>
      <trkpt lat="45.2208" lon="6.21793">
        <ele>1642.737</ele>
        <time>2022-07-17T07:15:59Z</time>
      </trkpt>
      <trkpt lat="45.22074" lon="6.21787">
        <ele>1644.906</ele>
        <time>2022-07-17T07:16:04Z</time>
      </trkpt>
      <trkpt lat="45.22066" lon="6.21776">
        <ele>1644.855</ele>
        <time>2022-07-17T07:16:09Z</time>
      </trkpt>
      <trkpt lat="45.22056" lon="6.21763">
        <ele>1644.361</ele>
        <time>2022-07-17T07:16:14Z</time>
      </trkpt>
      <trkpt lat="45.22042" lon="6.2176">
        <ele>1643.516</ele>
        <time>2022-07-17T07:16:19Z</time>
      </trkpt>
      <trkpt lat="45.22033" lon="6.2175">
        <ele>1644.857</ele>
        <time>2022-07-17T07:16:24Z</time>
      </trkpt>
      <trkpt lat="45.22025" lon="6.21742">
        <ele>1645.844</ele>
        <time>2022-07-17T07:16:29Z</time>
      </trkpt>
      <trkpt lat="45.22017" lon="6.21737">
        <ele>1646.299</ele>
        <time>2022-07-17T07:16:34Z</time>
      </trkpt>
      <trkpt lat="45.22008" lon="6.21732">
        <ele>1647.327</ele>
        <time>2022-07-17T07:16:39Z</time>
      </trkpt>
      <trkpt lat="45.21998" lon="6.21732">
        <ele>1648.078</ele>
        <time>2022-07-17T07:16:44Z</time>
      </trkpt>
      <trkpt lat="45.21989" lon="6.21729">
        <ele>1648.704</ele>
        <time>2022-07-17T07:16:49Z</time>
      </trkpt>
      <trkpt lat="45.2198" lon="6.21721">
        <ele>1649.726</ele>
        <time>2022-07-17T07:16:54Z</time>
      </trkpt>
      <trkpt lat="45.21975" lon="6.21713">
        <ele>1652.561</ele>
        <time>2022-07-17T07:16:59Z</time>
      </trkpt>
      <trkpt lat="45.2198" lon="6.21705">
        <ele>1653.488</ele>
        <time>2022-07-17T07:17:04Z</time>
      </trkpt>
      <trkpt lat="45.21989" lon="6.21699">
        <ele>1655.842</ele>
        <time>2022-07-17T07:17:09Z</time>
      </trkpt>
      <trkpt lat="45.22002" lon="6.21711">
        <ele>1658.255</ele>
        <time>2022-07-17T07:17:14Z</time>
      </trkpt>
      <trkpt lat="45.22012" lon="6.21712">
        <ele>1654.15</ele>
        <time>2022-07-17T07:17:19Z</time>
      </trkpt>
      <trkpt lat="45.22019" lon="6.21711">
        <ele>1652.759</ele>
        <time>2022-07-17T07:17:24Z</time>
      </trkpt>
      <trkpt lat="45.22027" lon="6.21712">
        <ele>1652.536</ele>
        <time>2022-07-17T07:17:29Z</time>
      </trkpt>
      <trkpt lat="45.22036" lon="6.21714">
        <ele>1654.242</ele>
        <time>2022-07-17T07:17:34Z</time>
      </trkpt>
      <trkpt lat="45.22045" lon="6.21715">
        <ele>1654.997</ele>
        <time>2022-07-17T07:17:39Z</time>
      </trkpt>
      <trkpt lat="45.22054" lon="6.21721">
        <ele>1654.237</ele>
        <time>2022-07-17T07:17:44Z</time>
      </trkpt>
      <trkpt lat="45.22062" lon="6.21727">
        <ele>1657.056</ele>
        <time>2022-07-17T07:17:49Z</time>
      </trkpt>
      <trkpt lat="45.22069" lon="6.21731">
        <ele>1659.164</ele>
        <time>2022-07-17T07:17:54Z</time>
      </trkpt>
      <trkpt lat="45.22078" lon="6.21737">
        <ele>1657.66</ele>
        <time>2022-07-17T07:17:59Z</time>
      </trkpt>
      <trkpt lat="45.22083" lon="6.2173">
        <ele>1659.046</ele>
        <time>2022-07-17T07:18:04Z</time>
      </trkpt>
      <trkpt lat="45.22084" lon="6.21719">
        <ele>1656.986</ele>
        <time>2022-07-17T07:18:09Z</time>
      </trkpt>
      <trkpt lat="45.22082" lon="6.21709">
        <ele>1651.245</ele>
        <time>2022-07-17T07:18:14Z</time>
      </trkpt>
      <trkpt lat="45.22079" lon="6.21708">
        <ele>1652.058</ele>
        <time>2022-07-17T07:18:19Z</time>
      </trkpt>
      <trkpt lat="45.22075" lon="6.21712">
        <ele>1654.024</ele>
        <time>2022-07-17T07:18:24Z</time>
      </trkpt>
      <trkpt lat="45.22074" lon="6.21703">
        <ele>1659.576</ele>
        <time>2022-07-17T07:18:29Z</time>
      </trkpt>
      <trkpt lat="45.22076" lon="6.217">
        <ele>1653.915</ele>
        <time>2022-07-17T07:18:34Z</time>
      </trkpt>
      <trkpt lat="45.22076" lon="6.217">
        <ele>1653.915</ele>
        <time>2022-07-17T07:18:39Z</time>
      </trkpt>
      <trkpt lat="45.22076" lon="6.21701">
        <ele>1653.892</ele>
        <time>2022-07-17T07:18:44Z</time>
      </trkpt>
      <trkpt lat="45.22076" lon="6.21701">
        <ele>1653.875</ele>
        <time>2022-07-17T07:18:49Z</time>
      </trkpt>
      <trkpt lat="45.22076" lon="6.21701">
        <ele>1653.864</ele>
        <time>2022-07-17T07:18:54Z</time>
      </trkpt>
      <trkpt lat="45.22076" lon="6.21701">
        <ele>1653.847</ele>
        <time>2022-07-17T07:18:59Z</time>
      </trkpt>
      <trkpt lat="45.22076" lon="6.21701">
        <ele>1653.835</ele>
        <time>2022-07-17T07:19:04Z</time>
      </trkpt>
      <trkpt lat="45.22076" lon="6.21703">
        <ele>1654.179</ele>
        <time>2022-07-17T07:19:09Z</time>
      </trkpt>
      <trkpt lat="45.22082" lon="6.21701">
        <ele>1655.04</ele>
        <time>2022-07-17T07:19:14Z</time>
      </trkpt>
      <trkpt lat="45.22081" lon="6.21712">
        <ele>1653.348</ele>
        <time>2022-07-17T07:19:19Z</time>
      </trkpt>
      <trkpt lat="45.22072" lon="6.21712">
        <ele>1654.524</ele>
        <time>2022-07-17T07:19:24Z</time>
      </trkpt>
      <trkpt lat="45.22077" lon="6.21721">
        <ele>1659.84</ele>
        <time>2022-07-17T07:19:29Z</time>
      </trkpt>
      <trkpt lat="45.22077" lon="6.21721">
        <ele>1660.097</ele>
        <time>2022-07-17T07:19:34Z</time>
      </trkpt>
      <trkpt lat="45.22077" lon="6.21721">
        <ele>1660.105</ele>
        <time>2022-07-17T07:19:39Z</time>
      </trkpt>
      <trkpt lat="45.22077" lon="6.21721">
        <ele>1661.314</ele>
        <time>2022-07-17T07:19:44Z</time>
      </trkpt>
      <trkpt lat="45.22077" lon="6.21721">
        <ele>1661.295</ele>
        <time>2022-07-17T07:19:49Z</time>
      </trkpt>
      <trkpt lat="45.22077" lon="6.21722">
        <ele>1661.302</ele>
        <time>2022-07-17T07:19:54Z</time>
      </trkpt>
      <trkpt lat="45.22077" lon="6.21722">
        <ele>1661.31</ele>
        <time>2022-07-17T07:19:59Z</time>
      </trkpt>
      <trkpt lat="45.22077" lon="6.21722">
        <ele>1661.307</ele>
        <time>2022-07-17T07:20:04Z</time>
      </trkpt>
      <trkpt lat="45.22077" lon="6.21722">
        <ele>1661.297</ele>
        <time>2022-07-17T07:20:09Z</time>
      </trkpt>
      <trkpt lat="45.22077" lon="6.21722">
        <ele>1661.301</ele>
        <time>2022-07-17T07:20:14Z</time>
      </trkpt>
      <trkpt lat="45.22079" lon="6.2172">
        <ele>1660.229</ele>
        <time>2022-07-17T07:20:19Z</time>
      </trkpt>
      <trkpt lat="45.22079" lon="6.21729">
        <ele>1661.668</ele>
        <time>2022-07-17T07:20:24Z</time>
      </trkpt>
      <trkpt lat="45.22082" lon="6.21735">
        <ele>1662.235</ele>
        <time>2022-07-17T07:20:29Z</time>
      </trkpt>
      <trkpt lat="45.22089" lon="6.21734">
        <ele>1661.056</ele>
        <time>2022-07-17T07:20:34Z</time>
      </trkpt>
      <trkpt lat="45.22091" lon="6.21734">
        <ele>1660.346</ele>
        <time>2022-07-17T07:20:39Z</time>
      </trkpt>
      <trkpt lat="45.22094" lon="6.21741">
        <ele>1657.827</ele>
        <time>2022-07-17T07:20:44Z</time>
      </trkpt>
      <trkpt lat="45.22093" lon="6.2174">
        <ele>1656.267</ele>
        <time>2022-07-17T07:20:49Z</time>
      </trkpt>
      <trkpt lat="45.22093" lon="6.2174">
        <ele>1656.419</ele>
        <time>2022-07-17T07:20:54Z</time>
      </trkpt>
      <trkpt lat="45.22093" lon="6.2174">
        <ele>1656.517</ele>
        <time>2022-07-17T07:20:59Z</time>
      </trkpt>
      <trkpt lat="45.22093" lon="6.2174">
        <ele>1656.624</ele>
        <time>2022-07-17T07:21:04Z</time>
      </trkpt>
      <trkpt lat="45.22092" lon="6.2174">
        <ele>1657.433</ele>
        <time>2022-07-17T07:21:09Z</time>
      </trkpt>
      <trkpt lat="45.22091" lon="6.21739">
        <ele>1657.491</ele>
        <time>2022-07-17T07:21:14Z</time>
      </trkpt>
      <trkpt lat="45.22091" lon="6.21739">
        <ele>1657.569</ele>
        <time>2022-07-17T07:21:19Z</time>
      </trkpt>
      <trkpt lat="45.22091" lon="6.21739">
        <ele>1657.608</ele>
        <time>2022-07-17T07:21:24Z</time>
      </trkpt>
      <trkpt lat="45.22091" lon="6.21739">
        <ele>1657.662</ele>
        <time>2022-07-17T07:21:29Z</time>
      </trkpt>
      <trkpt lat="45.22091" lon="6.21739">
        <ele>1657.736</ele>
        <time>2022-07-17T07:21:34Z</time>
      </trkpt>
      <trkpt lat="45.22091" lon="6.21739">
        <ele>1657.797</ele>
        <time>2022-07-17T07:21:39Z</time>
      </trkpt>
      <trkpt lat="45.22091" lon="6.21739">
        <ele>1657.86</ele>
        <time>2022-07-17T07:21:44Z</time>
      </trkpt>
      <trkpt lat="45.22091" lon="6.21739">
        <ele>1657.976</ele>
        <time>2022-07-17T07:21:49Z</time>
      </trkpt>
      <trkpt lat="45.22091" lon="6.21739">
        <ele>1658.057</ele>
        <time>2022-07-17T07:21:54Z</time>
      </trkpt>
      <trkpt lat="45.22091" lon="6.21739">
        <ele>1658.124</ele>
        <time>2022-07-17T07:21:59Z</time>
      </trkpt>
      <trkpt lat="45.2209" lon="6.21737">
        <ele>1658.938</ele>
        <time>2022-07-17T07:22:04Z</time>
      </trkpt>
      <trkpt lat="45.22089" lon="6.21737">
        <ele>1659.122</ele>
        <time>2022-07-17T07:22:09Z</time>
      </trkpt>
      <trkpt lat="45.22088" lon="6.21736">
        <ele>1658.598</ele>
        <time>2022-07-17T07:22:14Z</time>
      </trkpt>
      <trkpt lat="45.22088" lon="6.21736">
        <ele>1658.601</ele>
        <time>2022-07-17T07:22:19Z</time>
      </trkpt>
      <trkpt lat="45.22088" lon="6.21736">
        <ele>1658.607</ele>
        <time>2022-07-17T07:22:24Z</time>
      </trkpt>
      <trkpt lat="45.22088" lon="6.21736">
        <ele>1658.613</ele>
        <time>2022-07-17T07:22:29Z</time>
      </trkpt>
      <trkpt lat="45.22088" lon="6.21736">
        <ele>1658.62</ele>
        <time>2022-07-17T07:22:34Z</time>
      </trkpt>
      <trkpt lat="45.22088" lon="6.21736">
        <ele>1658.624</ele>
        <time>2022-07-17T07:22:39Z</time>
      </trkpt>
      <trkpt lat="45.22088" lon="6.21736">
        <ele>1658.631</ele>
        <time>2022-07-17T07:22:44Z</time>
      </trkpt>
      <trkpt lat="45.22088" lon="6.21736">
        <ele>1658.642</ele>
        <time>2022-07-17T07:22:49Z</time>
      </trkpt>
      <trkpt lat="45.22088" lon="6.21736">
        <ele>1658.647</ele>
        <time>2022-07-17T07:22:54Z</time>
      </trkpt>
      <trkpt lat="45.22088" lon="6.21736">
        <ele>1658.668</ele>
        <time>2022-07-17T07:22:59Z</time>
      </trkpt>
      <trkpt lat="45.22088" lon="6.21735">
        <ele>1659.055</ele>
        <time>2022-07-17T07:23:04Z</time>
      </trkpt>
      <trkpt lat="45.22087" lon="6.21736">
        <ele>1659.328</ele>
        <time>2022-07-17T07:23:09Z</time>
      </trkpt>
      <trkpt lat="45.22087" lon="6.21735">
        <ele>1659.586</ele>
        <time>2022-07-17T07:23:14Z</time>
      </trkpt>
      <trkpt lat="45.22087" lon="6.21735">
        <ele>1659.659</ele>
        <time>2022-07-17T07:23:19Z</time>
      </trkpt>
      <trkpt lat="45.22087" lon="6.21735">
        <ele>1660.165</ele>
        <time>2022-07-17T07:23:24Z</time>
      </trkpt>
      <trkpt lat="45.22087" lon="6.21735">
        <ele>1660.19</ele>
        <time>2022-07-17T07:23:29Z</time>
      </trkpt>
      <trkpt lat="45.22087" lon="6.21735">
        <ele>1660.202</ele>
        <time>2022-07-17T07:23:34Z</time>
      </trkpt>
      <trkpt lat="45.22087" lon="6.21735">
        <ele>1660.602</ele>
        <time>2022-07-17T07:23:39Z</time>
      </trkpt>
      <trkpt lat="45.22087" lon="6.21735">
        <ele>1660.628</ele>
        <time>2022-07-17T07:23:44Z</time>
      </trkpt>
      <trkpt lat="45.22087" lon="6.21735">
        <ele>1660.774</ele>
        <time>2022-07-17T07:23:49Z</time>
      </trkpt>
      <trkpt lat="45.22087" lon="6.21735">
        <ele>1661.37</ele>
        <time>2022-07-17T07:23:54Z</time>
      </trkpt>
      <trkpt lat="45.22087" lon="6.21735">
        <ele>1661.452</ele>
        <time>2022-07-17T07:23:59Z</time>
      </trkpt>
      <trkpt lat="45.22087" lon="6.21735">
        <ele>1661.477</ele>
        <time>2022-07-17T07:24:04Z</time>
      </trkpt>
      <trkpt lat="45.22087" lon="6.21735">
        <ele>1661.489</ele>
        <time>2022-07-17T07:24:09Z</time>
      </trkpt>
      <trkpt lat="45.22087" lon="6.21734">
        <ele>1660.968</ele>
        <time>2022-07-17T07:24:14Z</time>
      </trkpt>
      <trkpt lat="45.22086" lon="6.21734">
        <ele>1660.945</ele>
        <time>2022-07-17T07:24:19Z</time>
      </trkpt>
      <trkpt lat="45.22086" lon="6.21735">
        <ele>1661.002</ele>
        <time>2022-07-17T07:24:24Z</time>
      </trkpt>
      <trkpt lat="45.22086" lon="6.21735">
        <ele>1661.001</ele>
        <time>2022-07-17T07:24:29Z</time>
      </trkpt>
      <trkpt lat="45.22086" lon="6.21735">
        <ele>1661.006</ele>
        <time>2022-07-17T07:24:34Z</time>
      </trkpt>
      <trkpt lat="45.22086" lon="6.21735">
        <ele>1661.013</ele>
        <time>2022-07-17T07:24:39Z</time>
      </trkpt>
      <trkpt lat="45.22086" lon="6.21735">
        <ele>1661.016</ele>
        <time>2022-07-17T07:24:44Z</time>
      </trkpt>
      <trkpt lat="45.22086" lon="6.21735">
        <ele>1661.026</ele>
        <time>2022-07-17T07:24:49Z</time>
      </trkpt>
      <trkpt lat="45.22086" lon="6.21735">
        <ele>1661.035</ele>
        <time>2022-07-17T07:24:54Z</time>
      </trkpt>
      <trkpt lat="45.22086" lon="6.21735">
        <ele>1661.039</ele>
        <time>2022-07-17T07:24:59Z</time>
      </trkpt>
      <trkpt lat="45.22086" lon="6.21735">
        <ele>1661.042</ele>
        <time>2022-07-17T07:25:04Z</time>
      </trkpt>
      <trkpt lat="45.22086" lon="6.21735">
        <ele>1661.045</ele>
        <time>2022-07-17T07:25:09Z</time>
      </trkpt>
      <trkpt lat="45.22086" lon="6.21735">
        <ele>1661.051</ele>
        <time>2022-07-17T07:25:14Z</time>
      </trkpt>
      <trkpt lat="45.22086" lon="6.21735">
        <ele>1661.06</ele>
        <time>2022-07-17T07:25:19Z</time>
      </trkpt>
      <trkpt lat="45.22086" lon="6.21735">
        <ele>1661.068</ele>
        <time>2022-07-17T07:25:24Z</time>
      </trkpt>
      <trkpt lat="45.22086" lon="6.21735">
        <ele>1661.073</ele>
        <time>2022-07-17T07:25:29Z</time>
      </trkpt>
      <trkpt lat="45.22086" lon="6.21735">
        <ele>1661.078</ele>
        <time>2022-07-17T07:25:34Z</time>
      </trkpt>
      <trkpt lat="45.22086" lon="6.21735">
        <ele>1661.083</ele>
        <time>2022-07-17T07:25:39Z</time>
      </trkpt>
      <trkpt lat="45.22086" lon="6.21735">
        <ele>1661.091</ele>
        <time>2022-07-17T07:25:44Z</time>
      </trkpt>
      <trkpt lat="45.22086" lon="6.21735">
        <ele>1661.101</ele>
        <time>2022-07-17T07:25:49Z</time>
      </trkpt>
      <trkpt lat="45.22086" lon="6.21735">
        <ele>1661.106</ele>
        <time>2022-07-17T07:25:54Z</time>
      </trkpt>
      <trkpt lat="45.22086" lon="6.21735">
        <ele>1661.112</ele>
        <time>2022-07-17T07:25:59Z</time>
      </trkpt>
      <trkpt lat="45.22086" lon="6.21735">
        <ele>1661.115</ele>
        <time>2022-07-17T07:26:04Z</time>
      </trkpt>
      <trkpt lat="45.22086" lon="6.21735">
        <ele>1661.124</ele>
        <time>2022-07-17T07:26:09Z</time>
      </trkpt>
      <trkpt lat="45.22086" lon="6.21735">
        <ele>1661.13</ele>
        <time>2022-07-17T07:26:14Z</time>
      </trkpt>
      <trkpt lat="45.22086" lon="6.21735">
        <ele>1661.133</ele>
        <time>2022-07-17T07:26:19Z</time>
      </trkpt>
      <trkpt lat="45.22086" lon="6.21735">
        <ele>1661.137</ele>
        <time>2022-07-17T07:26:24Z</time>
      </trkpt>
      <trkpt lat="45.22086" lon="6.21735">
        <ele>1661.141</ele>
        <time>2022-07-17T07:26:29Z</time>
      </trkpt>
      <trkpt lat="45.22086" lon="6.21735">
        <ele>1661.145</ele>
        <time>2022-07-17T07:26:34Z</time>
      </trkpt>
      <trkpt lat="45.22086" lon="6.21735">
        <ele>1661.149</ele>
        <time>2022-07-17T07:26:39Z</time>
      </trkpt>
      <trkpt lat="45.22086" lon="6.21735">
        <ele>1661.15</ele>
        <time>2022-07-17T07:26:44Z</time>
      </trkpt>
      <trkpt lat="45.22086" lon="6.21735">
        <ele>1661.153</ele>
        <time>2022-07-17T07:26:49Z</time>
      </trkpt>
      <trkpt lat="45.22086" lon="6.21735">
        <ele>1661.157</ele>
        <time>2022-07-17T07:26:54Z</time>
      </trkpt>
      <trkpt lat="45.22086" lon="6.21735">
        <ele>1661.161</ele>
        <time>2022-07-17T07:26:59Z</time>
      </trkpt>
      <trkpt lat="45.22086" lon="6.21735">
        <ele>1661.162</ele>
        <time>2022-07-17T07:27:04Z</time>
      </trkpt>
      <trkpt lat="45.22086" lon="6.21735">
        <ele>1661.165</ele>
        <time>2022-07-17T07:27:09Z</time>
      </trkpt>
      <trkpt lat="45.22086" lon="6.21735">
        <ele>1661.168</ele>
        <time>2022-07-17T07:27:14Z</time>
      </trkpt>
      <trkpt lat="45.22086" lon="6.21735">
        <ele>1661.17</ele>
        <time>2022-07-17T07:27:19Z</time>
      </trkpt>
      <trkpt lat="45.22086" lon="6.21735">
        <ele>1661.17</ele>
        <time>2022-07-17T07:27:24Z</time>
      </trkpt>
      <trkpt lat="45.22086" lon="6.21735">
        <ele>1661.172</ele>
        <time>2022-07-17T07:27:29Z</time>
      </trkpt>
      <trkpt lat="45.22086" lon="6.21735">
        <ele>1661.175</ele>
        <time>2022-07-17T07:27:34Z</time>
      </trkpt>
      <trkpt lat="45.22086" lon="6.21735">
        <ele>1661.177</ele>
        <time>2022-07-17T07:27:39Z</time>
      </trkpt>
      <trkpt lat="45.22086" lon="6.21735">
        <ele>1661.178</ele>
        <time>2022-07-17T07:27:44Z</time>
      </trkpt>
      <trkpt lat="45.22086" lon="6.21735">
        <ele>1661.18</ele>
        <time>2022-07-17T07:27:49Z</time>
      </trkpt>
      <trkpt lat="45.22089" lon="6.21733">
        <ele>1662.537</ele>
        <time>2022-07-17T07:27:54Z</time>
      </trkpt>
      <trkpt lat="45.22095" lon="6.21728">
        <ele>1663.409</ele>
        <time>2022-07-17T07:27:59Z</time>
      </trkpt>
      <trkpt lat="45.22102" lon="6.21724">
        <ele>1664.248</ele>
        <time>2022-07-17T07:28:04Z</time>
      </trkpt>
      <trkpt lat="45.22108" lon="6.21717">
        <ele>1665.013</ele>
        <time>2022-07-17T07:28:09Z</time>
      </trkpt>
      <trkpt lat="45.22113" lon="6.21709">
        <ele>1665.725</ele>
        <time>2022-07-17T07:28:14Z</time>
      </trkpt>
      <trkpt lat="45.22117" lon="6.217">
        <ele>1666.624</ele>
        <time>2022-07-17T07:28:19Z</time>
      </trkpt>
      <trkpt lat="45.22121" lon="6.21693">
        <ele>1668.192</ele>
        <time>2022-07-17T07:28:24Z</time>
      </trkpt>
      <trkpt lat="45.22127" lon="6.21686">
        <ele>1670.414</ele>
        <time>2022-07-17T07:28:29Z</time>
      </trkpt>
      <trkpt lat="45.22131" lon="6.21678">
        <ele>1672.499</ele>
        <time>2022-07-17T07:28:34Z</time>
      </trkpt>
      <trkpt lat="45.22137" lon="6.21673">
        <ele>1673.05</ele>
        <time>2022-07-17T07:28:39Z</time>
      </trkpt>
      <trkpt lat="45.22143" lon="6.21668">
        <ele>1675.866</ele>
        <time>2022-07-17T07:28:44Z</time>
      </trkpt>
      <trkpt lat="45.2215" lon="6.21664">
        <ele>1676.503</ele>
        <time>2022-07-17T07:28:49Z</time>
      </trkpt>
      <trkpt lat="45.22157" lon="6.21662">
        <ele>1677.81</ele>
        <time>2022-07-17T07:28:54Z</time>
      </trkpt>
      <trkpt lat="45.22164" lon="6.21658">
        <ele>1679.089</ele>
        <time>2022-07-17T07:28:59Z</time>
      </trkpt>
      <trkpt lat="45.22171" lon="6.21654">
        <ele>1679.618</ele>
        <time>2022-07-17T07:29:04Z</time>
      </trkpt>
      <trkpt lat="45.22178" lon="6.21649">
        <ele>1680.918</ele>
        <time>2022-07-17T07:29:09Z</time>
      </trkpt>
      <trkpt lat="45.22185" lon="6.21646">
        <ele>1681.393</ele>
        <time>2022-07-17T07:29:14Z</time>
      </trkpt>
      <trkpt lat="45.22192" lon="6.21643">
        <ele>1682.902</ele>
        <time>2022-07-17T07:29:19Z</time>
      </trkpt>
      <trkpt lat="45.22198" lon="6.21639">
        <ele>1684.132</ele>
        <time>2022-07-17T07:29:24Z</time>
      </trkpt>
      <trkpt lat="45.22204" lon="6.21634">
        <ele>1685.299</ele>
        <time>2022-07-17T07:29:29Z</time>
      </trkpt>
      <trkpt lat="45.2221" lon="6.21629">
        <ele>1686.268</ele>
        <time>2022-07-17T07:29:34Z</time>
      </trkpt>
      <trkpt lat="45.22217" lon="6.21625">
        <ele>1686.78</ele>
        <time>2022-07-17T07:29:39Z</time>
      </trkpt>
      <trkpt lat="45.22222" lon="6.2162">
        <ele>1686.721</ele>
        <time>2022-07-17T07:29:44Z</time>
      </trkpt>
      <trkpt lat="45.22229" lon="6.21615">
        <ele>1687.141</ele>
        <time>2022-07-17T07:29:49Z</time>
      </trkpt>
      <trkpt lat="45.22236" lon="6.21611">
        <ele>1687.187</ele>
        <time>2022-07-17T07:29:54Z</time>
      </trkpt>
      <trkpt lat="45.22242" lon="6.21607">
        <ele>1687.88</ele>
        <time>2022-07-17T07:29:59Z</time>
      </trkpt>
      <trkpt lat="45.22248" lon="6.21602">
        <ele>1688.288</ele>
        <time>2022-07-17T07:30:04Z</time>
      </trkpt>
      <trkpt lat="45.22253" lon="6.21597">
        <ele>1688.948</ele>
        <time>2022-07-17T07:30:09Z</time>
      </trkpt>
      <trkpt lat="45.22259" lon="6.21593">
        <ele>1689.692</ele>
        <time>2022-07-17T07:30:14Z</time>
      </trkpt>
      <trkpt lat="45.22266" lon="6.2159">
        <ele>1690.512</ele>
        <time>2022-07-17T07:30:19Z</time>
      </trkpt>
      <trkpt lat="45.22273" lon="6.21586">
        <ele>1691.678</ele>
        <time>2022-07-17T07:30:24Z</time>
      </trkpt>
      <trkpt lat="45.2228" lon="6.21585">
        <ele>1692.483</ele>
        <time>2022-07-17T07:30:29Z</time>
      </trkpt>
      <trkpt lat="45.22287" lon="6.21583">
        <ele>1693.687</ele>
        <time>2022-07-17T07:30:34Z</time>
      </trkpt>
      <trkpt lat="45.22295" lon="6.21584">
        <ele>1694.684</ele>
        <time>2022-07-17T07:30:39Z</time>
      </trkpt>
      <trkpt lat="45.22303" lon="6.21587">
        <ele>1695.271</ele>
        <time>2022-07-17T07:30:44Z</time>
      </trkpt>
      <trkpt lat="45.2231" lon="6.21591">
        <ele>1696.055</ele>
        <time>2022-07-17T07:30:49Z</time>
      </trkpt>
      <trkpt lat="45.22316" lon="6.21598">
        <ele>1696.864</ele>
        <time>2022-07-17T07:30:54Z</time>
      </trkpt>
      <trkpt lat="45.22324" lon="6.21602">
        <ele>1697.571</ele>
        <time>2022-07-17T07:30:59Z</time>
      </trkpt>
      <trkpt lat="45.22331" lon="6.21604">
        <ele>1698.63</ele>
        <time>2022-07-17T07:31:04Z</time>
      </trkpt>
      <trkpt lat="45.2234" lon="6.21604">
        <ele>1698.996</ele>
        <time>2022-07-17T07:31:09Z</time>
      </trkpt>
      <trkpt lat="45.2235" lon="6.21605">
        <ele>1697.842</ele>
        <time>2022-07-17T07:31:14Z</time>
      </trkpt>
      <trkpt lat="45.22359" lon="6.21609">
        <ele>1697.467</ele>
        <time>2022-07-17T07:31:19Z</time>
      </trkpt>
      <trkpt lat="45.22367" lon="6.21613">
        <ele>1696.54</ele>
        <time>2022-07-17T07:31:24Z</time>
      </trkpt>
      <trkpt lat="45.22374" lon="6.21616">
        <ele>1698.235</ele>
        <time>2022-07-17T07:31:29Z</time>
      </trkpt>
      <trkpt lat="45.22381" lon="6.2162">
        <ele>1701.121</ele>
        <time>2022-07-17T07:31:34Z</time>
      </trkpt>
      <trkpt lat="45.2239" lon="6.21625">
        <ele>1701.401</ele>
        <time>2022-07-17T07:31:39Z</time>
      </trkpt>
      <trkpt lat="45.22399" lon="6.2163">
        <ele>1702.164</ele>
        <time>2022-07-17T07:31:44Z</time>
      </trkpt>
      <trkpt lat="45.22409" lon="6.21635">
        <ele>1702.031</ele>
        <time>2022-07-17T07:31:49Z</time>
      </trkpt>
      <trkpt lat="45.22418" lon="6.21641">
        <ele>1702.329</ele>
        <time>2022-07-17T07:31:54Z</time>
      </trkpt>
      <trkpt lat="45.22426" lon="6.21647">
        <ele>1702.823</ele>
        <time>2022-07-17T07:31:59Z</time>
      </trkpt>
      <trkpt lat="45.22432" lon="6.21652">
        <ele>1703.996</ele>
        <time>2022-07-17T07:32:04Z</time>
      </trkpt>
      <trkpt lat="45.22439" lon="6.21656">
        <ele>1704.976</ele>
        <time>2022-07-17T07:32:09Z</time>
      </trkpt>
      <trkpt lat="45.22445" lon="6.21659">
        <ele>1707.547</ele>
        <time>2022-07-17T07:32:14Z</time>
      </trkpt>
      <trkpt lat="45.22452" lon="6.21662">
        <ele>1707.855</ele>
        <time>2022-07-17T07:32:19Z</time>
      </trkpt>
      <trkpt lat="45.22458" lon="6.21667">
        <ele>1708.085</ele>
        <time>2022-07-17T07:32:24Z</time>
      </trkpt>
      <trkpt lat="45.22463" lon="6.21672">
        <ele>1709.838</ele>
        <time>2022-07-17T07:32:29Z</time>
      </trkpt>
      <trkpt lat="45.22469" lon="6.21677">
        <ele>1711.2</ele>
        <time>2022-07-17T07:32:34Z</time>
      </trkpt>
      <trkpt lat="45.22476" lon="6.21681">
        <ele>1712.842</ele>
        <time>2022-07-17T07:32:39Z</time>
      </trkpt>
      <trkpt lat="45.22483" lon="6.21684">
        <ele>1713.903</ele>
        <time>2022-07-17T07:32:44Z</time>
      </trkpt>
      <trkpt lat="45.2249" lon="6.21691">
        <ele>1714.875</ele>
        <time>2022-07-17T07:32:49Z</time>
      </trkpt>
      <trkpt lat="45.22497" lon="6.21699">
        <ele>1715.592</ele>
        <time>2022-07-17T07:32:54Z</time>
      </trkpt>
      <trkpt lat="45.22503" lon="6.21708">
        <ele>1714.967</ele>
        <time>2022-07-17T07:32:59Z</time>
      </trkpt>
      <trkpt lat="45.22509" lon="6.21718">
        <ele>1716.544</ele>
        <time>2022-07-17T07:33:04Z</time>
      </trkpt>
      <trkpt lat="45.22516" lon="6.21726">
        <ele>1717.5</ele>
        <time>2022-07-17T07:33:09Z</time>
      </trkpt>
      <trkpt lat="45.22524" lon="6.21725">
        <ele>1717.919</ele>
        <time>2022-07-17T07:33:14Z</time>
      </trkpt>
      <trkpt lat="45.22528" lon="6.21714">
        <ele>1718.335</ele>
        <time>2022-07-17T07:33:19Z</time>
      </trkpt>
      <trkpt lat="45.22524" lon="6.21701">
        <ele>1718.471</ele>
        <time>2022-07-17T07:33:24Z</time>
      </trkpt>
      <trkpt lat="45.22518" lon="6.21691">
        <ele>1717.825</ele>
        <time>2022-07-17T07:33:29Z</time>
      </trkpt>
      <trkpt lat="45.22511" lon="6.21681">
        <ele>1717.766</ele>
        <time>2022-07-17T07:33:34Z</time>
      </trkpt>
      <trkpt lat="45.22505" lon="6.21671">
        <ele>1717.516</ele>
        <time>2022-07-17T07:33:39Z</time>
      </trkpt>
      <trkpt lat="45.22499" lon="6.21662">
        <ele>1717.329</ele>
        <time>2022-07-17T07:33:44Z</time>
      </trkpt>
      <trkpt lat="45.22494" lon="6.21653">
        <ele>1717.71</ele>
        <time>2022-07-17T07:33:49Z</time>
      </trkpt>
      <trkpt lat="45.22488" lon="6.21644">
        <ele>1718.56</ele>
        <time>2022-07-17T07:33:54Z</time>
      </trkpt>
      <trkpt lat="45.22482" lon="6.21635">
        <ele>1719.146</ele>
        <time>2022-07-17T07:33:59Z</time>
      </trkpt>
      <trkpt lat="45.22476" lon="6.21625">
        <ele>1719.993</ele>
        <time>2022-07-17T07:34:04Z</time>
      </trkpt>
      <trkpt lat="45.2247" lon="6.21616">
        <ele>1720.277</ele>
        <time>2022-07-17T07:34:09Z</time>
      </trkpt>
      <trkpt lat="45.22463" lon="6.21606">
        <ele>1720.465</ele>
        <time>2022-07-17T07:34:14Z</time>
      </trkpt>
      <trkpt lat="45.22457" lon="6.21595">
        <ele>1720.709</ele>
        <time>2022-07-17T07:34:19Z</time>
      </trkpt>
      <trkpt lat="45.22449" lon="6.21584">
        <ele>1721.456</ele>
        <time>2022-07-17T07:34:24Z</time>
      </trkpt>
      <trkpt lat="45.22443" lon="6.21573">
        <ele>1723.022</ele>
        <time>2022-07-17T07:34:29Z</time>
      </trkpt>
      <trkpt lat="45.22436" lon="6.21563">
        <ele>1723.679</ele>
        <time>2022-07-17T07:34:34Z</time>
      </trkpt>
      <trkpt lat="45.2243" lon="6.21554">
        <ele>1724.933</ele>
        <time>2022-07-17T07:34:39Z</time>
      </trkpt>
      <trkpt lat="45.22423" lon="6.21545">
        <ele>1725.913</ele>
        <time>2022-07-17T07:34:44Z</time>
      </trkpt>
      <trkpt lat="45.22417" lon="6.21535">
        <ele>1726.347</ele>
        <time>2022-07-17T07:34:49Z</time>
      </trkpt>
      <trkpt lat="45.22413" lon="6.21524">
        <ele>1727.658</ele>
        <time>2022-07-17T07:34:54Z</time>
      </trkpt>
      <trkpt lat="45.22411" lon="6.21512">
        <ele>1729.123</ele>
        <time>2022-07-17T07:34:59Z</time>
      </trkpt>
      <trkpt lat="45.2241" lon="6.21498">
        <ele>1730.295</ele>
        <time>2022-07-17T07:35:04Z</time>
      </trkpt>
      <trkpt lat="45.22408" lon="6.21485">
        <ele>1731.583</ele>
        <time>2022-07-17T07:35:09Z</time>
      </trkpt>
      <trkpt lat="45.22407" lon="6.21472">
        <ele>1732.52</ele>
        <time>2022-07-17T07:35:14Z</time>
      </trkpt>
      <trkpt lat="45.22404" lon="6.21458">
        <ele>1733.229</ele>
        <time>2022-07-17T07:35:19Z</time>
      </trkpt>
      <trkpt lat="45.224" lon="6.21446">
        <ele>1734.449</ele>
        <time>2022-07-17T07:35:24Z</time>
      </trkpt>
      <trkpt lat="45.22395" lon="6.21434">
        <ele>1735.701</ele>
        <time>2022-07-17T07:35:29Z</time>
      </trkpt>
      <trkpt lat="45.2239" lon="6.21423">
        <ele>1736.573</ele>
        <time>2022-07-17T07:35:34Z</time>
      </trkpt>
      <trkpt lat="45.22384" lon="6.21413">
        <ele>1737.499</ele>
        <time>2022-07-17T07:35:39Z</time>
      </trkpt>
      <trkpt lat="45.22378" lon="6.21403">
        <ele>1737.911</ele>
        <time>2022-07-17T07:35:44Z</time>
      </trkpt>
      <trkpt lat="45.22371" lon="6.21394">
        <ele>1738.703</ele>
        <time>2022-07-17T07:35:49Z</time>
      </trkpt>
      <trkpt lat="45.22365" lon="6.21384">
        <ele>1739.369</ele>
        <time>2022-07-17T07:35:54Z</time>
      </trkpt>
      <trkpt lat="45.22359" lon="6.21375">
        <ele>1739.844</ele>
        <time>2022-07-17T07:35:59Z</time>
      </trkpt>
      <trkpt lat="45.22352" lon="6.21366">
        <ele>1740.407</ele>
        <time>2022-07-17T07:36:04Z</time>
      </trkpt>
      <trkpt lat="45.22345" lon="6.21356">
        <ele>1741.503</ele>
        <time>2022-07-17T07:36:09Z</time>
      </trkpt>
      <trkpt lat="45.22338" lon="6.21347">
        <ele>1742.168</ele>
        <time>2022-07-17T07:36:14Z</time>
      </trkpt>
      <trkpt lat="45.2233" lon="6.21339">
        <ele>1743.245</ele>
        <time>2022-07-17T07:36:19Z</time>
      </trkpt>
      <trkpt lat="45.22322" lon="6.21331">
        <ele>1743.322</ele>
        <time>2022-07-17T07:36:24Z</time>
      </trkpt>
      <trkpt lat="45.22314" lon="6.21323">
        <ele>1744.018</ele>
        <time>2022-07-17T07:36:29Z</time>
      </trkpt>
      <trkpt lat="45.22307" lon="6.21316">
        <ele>1744.852</ele>
        <time>2022-07-17T07:36:34Z</time>
      </trkpt>
      <trkpt lat="45.22299" lon="6.21309">
        <ele>1745.323</ele>
        <time>2022-07-17T07:36:39Z</time>
      </trkpt>
      <trkpt lat="45.22293" lon="6.21302">
        <ele>1746.3</ele>
        <time>2022-07-17T07:36:43Z</time>
      </trkpt>
      <trkpt lat="45.22284" lon="6.21293">
        <ele>1747.017</ele>
        <time>2022-07-17T07:36:49Z</time>
      </trkpt>
      <trkpt lat="45.22276" lon="6.21286">
        <ele>1748.315</ele>
        <time>2022-07-17T07:36:54Z</time>
      </trkpt>
      <trkpt lat="45.22269" lon="6.21279">
        <ele>1749.751</ele>
        <time>2022-07-17T07:36:59Z</time>
      </trkpt>
      <trkpt lat="45.22261" lon="6.21273">
        <ele>1750.35</ele>
        <time>2022-07-17T07:37:04Z</time>
      </trkpt>
      <trkpt lat="45.22254" lon="6.21268">
        <ele>1751.284</ele>
        <time>2022-07-17T07:37:09Z</time>
      </trkpt>
      <trkpt lat="45.22247" lon="6.21263">
        <ele>1752.304</ele>
        <time>2022-07-17T07:37:14Z</time>
      </trkpt>
      <trkpt lat="45.22239" lon="6.21258">
        <ele>1752.577</ele>
        <time>2022-07-17T07:37:19Z</time>
      </trkpt>
      <trkpt lat="45.22231" lon="6.21253">
        <ele>1754.042</ele>
        <time>2022-07-17T07:37:24Z</time>
      </trkpt>
      <trkpt lat="45.22221" lon="6.21249">
        <ele>1754.636</ele>
        <time>2022-07-17T07:37:29Z</time>
      </trkpt>
      <trkpt lat="45.2221" lon="6.21244">
        <ele>1756.582</ele>
        <time>2022-07-17T07:37:34Z</time>
      </trkpt>
      <trkpt lat="45.22201" lon="6.21242">
        <ele>1757.905</ele>
        <time>2022-07-17T07:37:39Z</time>
      </trkpt>
      <trkpt lat="45.22194" lon="6.21241">
        <ele>1760.018</ele>
        <time>2022-07-17T07:37:44Z</time>
      </trkpt>
      <trkpt lat="45.22187" lon="6.2124">
        <ele>1760.776</ele>
        <time>2022-07-17T07:37:49Z</time>
      </trkpt>
      <trkpt lat="45.22179" lon="6.21238">
        <ele>1760.536</ele>
        <time>2022-07-17T07:37:54Z</time>
      </trkpt>
      <trkpt lat="45.2217" lon="6.21237">
        <ele>1760.925</ele>
        <time>2022-07-17T07:37:59Z</time>
      </trkpt>
      <trkpt lat="45.22161" lon="6.21237">
        <ele>1761.738</ele>
        <time>2022-07-17T07:38:04Z</time>
      </trkpt>
      <trkpt lat="45.22152" lon="6.21238">
        <ele>1762.701</ele>
        <time>2022-07-17T07:38:09Z</time>
      </trkpt>
      <trkpt lat="45.22143" lon="6.21242">
        <ele>1763.699</ele>
        <time>2022-07-17T07:38:14Z</time>
      </trkpt>
      <trkpt lat="45.22135" lon="6.21247">
        <ele>1764.638</ele>
        <time>2022-07-17T07:38:19Z</time>
      </trkpt>
      <trkpt lat="45.22128" lon="6.2124">
        <ele>1765.601</ele>
        <time>2022-07-17T07:38:24Z</time>
      </trkpt>
      <trkpt lat="45.22132" lon="6.21229">
        <ele>1767.152</ele>
        <time>2022-07-17T07:38:29Z</time>
      </trkpt>
      <trkpt lat="45.22141" lon="6.21223">
        <ele>1767.695</ele>
        <time>2022-07-17T07:38:34Z</time>
      </trkpt>
      <trkpt lat="45.22148" lon="6.21216">
        <ele>1768.865</ele>
        <time>2022-07-17T07:38:39Z</time>
      </trkpt>
      <trkpt lat="45.22155" lon="6.2121">
        <ele>1769.882</ele>
        <time>2022-07-17T07:38:44Z</time>
      </trkpt>
      <trkpt lat="45.22162" lon="6.21205">
        <ele>1770.996</ele>
        <time>2022-07-17T07:38:49Z</time>
      </trkpt>
      <trkpt lat="45.22169" lon="6.212">
        <ele>1772.417</ele>
        <time>2022-07-17T07:38:54Z</time>
      </trkpt>
      <trkpt lat="45.22177" lon="6.21195">
        <ele>1772.905</ele>
        <time>2022-07-17T07:38:59Z</time>
      </trkpt>
      <trkpt lat="45.22185" lon="6.21188">
        <ele>1773.455</ele>
        <time>2022-07-17T07:39:04Z</time>
      </trkpt>
      <trkpt lat="45.22192" lon="6.21182">
        <ele>1774.384</ele>
        <time>2022-07-17T07:39:09Z</time>
      </trkpt>
      <trkpt lat="45.22201" lon="6.21178">
        <ele>1775.583</ele>
        <time>2022-07-17T07:39:14Z</time>
      </trkpt>
      <trkpt lat="45.2221" lon="6.21176">
        <ele>1775.924</ele>
        <time>2022-07-17T07:39:19Z</time>
      </trkpt>
      <trkpt lat="45.22219" lon="6.21174">
        <ele>1776.637</ele>
        <time>2022-07-17T07:39:24Z</time>
      </trkpt>
      <trkpt lat="45.22228" lon="6.21172">
        <ele>1777.358</ele>
        <time>2022-07-17T07:39:29Z</time>
      </trkpt>
      <trkpt lat="45.22237" lon="6.21171">
        <ele>1777.835</ele>
        <time>2022-07-17T07:39:34Z</time>
      </trkpt>
      <trkpt lat="45.22246" lon="6.2117">
        <ele>1777.914</ele>
        <time>2022-07-17T07:39:39Z</time>
      </trkpt>
      <trkpt lat="45.22255" lon="6.21167">
        <ele>1779.091</ele>
        <time>2022-07-17T07:39:44Z</time>
      </trkpt>
      <trkpt lat="45.22264" lon="6.21165">
        <ele>1779.626</ele>
        <time>2022-07-17T07:39:49Z</time>
      </trkpt>
      <trkpt lat="45.22273" lon="6.21164">
        <ele>1780.455</ele>
        <time>2022-07-17T07:39:54Z</time>
      </trkpt>
      <trkpt lat="45.22282" lon="6.21164">
        <ele>1780.857</ele>
        <time>2022-07-17T07:39:59Z</time>
      </trkpt>
      <trkpt lat="45.22291" lon="6.21164">
        <ele>1781.437</ele>
        <time>2022-07-17T07:40:04Z</time>
      </trkpt>
      <trkpt lat="45.223" lon="6.21166">
        <ele>1781.796</ele>
        <time>2022-07-17T07:40:09Z</time>
      </trkpt>
      <trkpt lat="45.22309" lon="6.21169">
        <ele>1782.409</ele>
        <time>2022-07-17T07:40:14Z</time>
      </trkpt>
      <trkpt lat="45.22318" lon="6.21171">
        <ele>1782.565</ele>
        <time>2022-07-17T07:40:19Z</time>
      </trkpt>
      <trkpt lat="45.22327" lon="6.21174">
        <ele>1782.687</ele>
        <time>2022-07-17T07:40:24Z</time>
      </trkpt>
      <trkpt lat="45.22335" lon="6.21176">
        <ele>1783.63</ele>
        <time>2022-07-17T07:40:29Z</time>
      </trkpt>
      <trkpt lat="45.22343" lon="6.21178">
        <ele>1784.041</ele>
        <time>2022-07-17T07:40:34Z</time>
      </trkpt>
      <trkpt lat="45.22351" lon="6.21182">
        <ele>1784.392</ele>
        <time>2022-07-17T07:40:39Z</time>
      </trkpt>
      <trkpt lat="45.22358" lon="6.21186">
        <ele>1785.063</ele>
        <time>2022-07-17T07:40:44Z</time>
      </trkpt>
      <trkpt lat="45.22365" lon="6.21192">
        <ele>1785.427</ele>
        <time>2022-07-17T07:40:49Z</time>
      </trkpt>
      <trkpt lat="45.22372" lon="6.21198">
        <ele>1786.496</ele>
        <time>2022-07-17T07:40:54Z</time>
      </trkpt>
      <trkpt lat="45.2238" lon="6.21204">
        <ele>1787.678</ele>
        <time>2022-07-17T07:40:59Z</time>
      </trkpt>
      <trkpt lat="45.22388" lon="6.21212">
        <ele>1788.153</ele>
        <time>2022-07-17T07:41:04Z</time>
      </trkpt>
      <trkpt lat="45.22394" lon="6.21219">
        <ele>1788.337</ele>
        <time>2022-07-17T07:41:09Z</time>
      </trkpt>
      <trkpt lat="45.22401" lon="6.21226">
        <ele>1789.436</ele>
        <time>2022-07-17T07:41:14Z</time>
      </trkpt>
      <trkpt lat="45.22407" lon="6.21235">
        <ele>1789.852</ele>
        <time>2022-07-17T07:41:19Z</time>
      </trkpt>
      <trkpt lat="45.22413" lon="6.21245">
        <ele>1791.87</ele>
        <time>2022-07-17T07:41:24Z</time>
      </trkpt>
      <trkpt lat="45.22418" lon="6.21255">
        <ele>1793.184</ele>
        <time>2022-07-17T07:41:29Z</time>
      </trkpt>
      <trkpt lat="45.22424" lon="6.21264">
        <ele>1795.008</ele>
        <time>2022-07-17T07:41:34Z</time>
      </trkpt>
      <trkpt lat="45.2243" lon="6.21274">
        <ele>1795.644</ele>
        <time>2022-07-17T07:41:39Z</time>
      </trkpt>
      <trkpt lat="45.22436" lon="6.21284">
        <ele>1796.723</ele>
        <time>2022-07-17T07:41:44Z</time>
      </trkpt>
      <trkpt lat="45.22442" lon="6.21293">
        <ele>1797.871</ele>
        <time>2022-07-17T07:41:49Z</time>
      </trkpt>
      <trkpt lat="45.22449" lon="6.21302">
        <ele>1799.006</ele>
        <time>2022-07-17T07:41:54Z</time>
      </trkpt>
      <trkpt lat="45.22457" lon="6.2131">
        <ele>1799.436</ele>
        <time>2022-07-17T07:41:59Z</time>
      </trkpt>
      <trkpt lat="45.22467" lon="6.21317">
        <ele>1799.557</ele>
        <time>2022-07-17T07:42:04Z</time>
      </trkpt>
      <trkpt lat="45.22474" lon="6.21322">
        <ele>1800.826</ele>
        <time>2022-07-17T07:42:09Z</time>
      </trkpt>
      <trkpt lat="45.22482" lon="6.21328">
        <ele>1801.495</ele>
        <time>2022-07-17T07:42:14Z</time>
      </trkpt>
      <trkpt lat="45.22489" lon="6.21335">
        <ele>1802.555</ele>
        <time>2022-07-17T07:42:19Z</time>
      </trkpt>
      <trkpt lat="45.22496" lon="6.21342">
        <ele>1803.879</ele>
        <time>2022-07-17T07:42:24Z</time>
      </trkpt>
      <trkpt lat="45.22503" lon="6.21349">
        <ele>1804.081</ele>
        <time>2022-07-17T07:42:29Z</time>
      </trkpt>
      <trkpt lat="45.22509" lon="6.21356">
        <ele>1805.409</ele>
        <time>2022-07-17T07:42:34Z</time>
      </trkpt>
      <trkpt lat="45.22516" lon="6.21362">
        <ele>1805.616</ele>
        <time>2022-07-17T07:42:39Z</time>
      </trkpt>
      <trkpt lat="45.22523" lon="6.21368">
        <ele>1806.3</ele>
        <time>2022-07-17T07:42:44Z</time>
      </trkpt>
      <trkpt lat="45.22531" lon="6.21374">
        <ele>1807.9</ele>
        <time>2022-07-17T07:42:49Z</time>
      </trkpt>
      <trkpt lat="45.22539" lon="6.21378">
        <ele>1808.674</ele>
        <time>2022-07-17T07:42:54Z</time>
      </trkpt>
      <trkpt lat="45.22547" lon="6.21381">
        <ele>1808.966</ele>
        <time>2022-07-17T07:42:59Z</time>
      </trkpt>
      <trkpt lat="45.22556" lon="6.21385">
        <ele>1809.034</ele>
        <time>2022-07-17T07:43:04Z</time>
      </trkpt>
      <trkpt lat="45.22564" lon="6.21389">
        <ele>1809.644</ele>
        <time>2022-07-17T07:43:09Z</time>
      </trkpt>
      <trkpt lat="45.22572" lon="6.21393">
        <ele>1810.66</ele>
        <time>2022-07-17T07:43:14Z</time>
      </trkpt>
      <trkpt lat="45.22579" lon="6.21399">
        <ele>1811.054</ele>
        <time>2022-07-17T07:43:19Z</time>
      </trkpt>
      <trkpt lat="45.22587" lon="6.21404">
        <ele>1811.454</ele>
        <time>2022-07-17T07:43:24Z</time>
      </trkpt>
      <trkpt lat="45.22595" lon="6.2141">
        <ele>1812.256</ele>
        <time>2022-07-17T07:43:29Z</time>
      </trkpt>
      <trkpt lat="45.22602" lon="6.21417">
        <ele>1812.682</ele>
        <time>2022-07-17T07:43:34Z</time>
      </trkpt>
      <trkpt lat="45.2261" lon="6.21422">
        <ele>1813.385</ele>
        <time>2022-07-17T07:43:39Z</time>
      </trkpt>
      <trkpt lat="45.22618" lon="6.21426">
        <ele>1814.258</ele>
        <time>2022-07-17T07:43:44Z</time>
      </trkpt>
      <trkpt lat="45.22625" lon="6.21432">
        <ele>1814.127</ele>
        <time>2022-07-17T07:43:49Z</time>
      </trkpt>
      <trkpt lat="45.22633" lon="6.21437">
        <ele>1815.073</ele>
        <time>2022-07-17T07:43:54Z</time>
      </trkpt>
      <trkpt lat="45.22641" lon="6.21443">
        <ele>1816.653</ele>
        <time>2022-07-17T07:43:59Z</time>
      </trkpt>
      <trkpt lat="45.22648" lon="6.21451">
        <ele>1818.052</ele>
        <time>2022-07-17T07:44:04Z</time>
      </trkpt>
      <trkpt lat="45.22655" lon="6.21458">
        <ele>1818.912</ele>
        <time>2022-07-17T07:44:09Z</time>
      </trkpt>
      <trkpt lat="45.22661" lon="6.21465">
        <ele>1819.84</ele>
        <time>2022-07-17T07:44:14Z</time>
      </trkpt>
      <trkpt lat="45.22668" lon="6.21473">
        <ele>1821.07</ele>
        <time>2022-07-17T07:44:19Z</time>
      </trkpt>
      <trkpt lat="45.22675" lon="6.21481">
        <ele>1821.612</ele>
        <time>2022-07-17T07:44:24Z</time>
      </trkpt>
      <trkpt lat="45.22682" lon="6.21488">
        <ele>1822.312</ele>
        <time>2022-07-17T07:44:29Z</time>
      </trkpt>
      <trkpt lat="45.22689" lon="6.21495">
        <ele>1823.166</ele>
        <time>2022-07-17T07:44:34Z</time>
      </trkpt>
      <trkpt lat="45.22696" lon="6.21503">
        <ele>1823.905</ele>
        <time>2022-07-17T07:44:39Z</time>
      </trkpt>
      <trkpt lat="45.22703" lon="6.2151">
        <ele>1824.939</ele>
        <time>2022-07-17T07:44:44Z</time>
      </trkpt>
      <trkpt lat="45.22711" lon="6.21519">
        <ele>1824.892</ele>
        <time>2022-07-17T07:44:49Z</time>
      </trkpt>
      <trkpt lat="45.22718" lon="6.21528">
        <ele>1825.899</ele>
        <time>2022-07-17T07:44:54Z</time>
      </trkpt>
      <trkpt lat="45.22725" lon="6.21537">
        <ele>1827.207</ele>
        <time>2022-07-17T07:44:59Z</time>
      </trkpt>
      <trkpt lat="45.22731" lon="6.21546">
        <ele>1828.66</ele>
        <time>2022-07-17T07:45:04Z</time>
      </trkpt>
      <trkpt lat="45.22737" lon="6.21555">
        <ele>1829.04</ele>
        <time>2022-07-17T07:45:09Z</time>
      </trkpt>
      <trkpt lat="45.22743" lon="6.21564">
        <ele>1829.989</ele>
        <time>2022-07-17T07:45:14Z</time>
      </trkpt>
      <trkpt lat="45.22749" lon="6.21574">
        <ele>1830.103</ele>
        <time>2022-07-17T07:45:19Z</time>
      </trkpt>
      <trkpt lat="45.22755" lon="6.21583">
        <ele>1830.263</ele>
        <time>2022-07-17T07:45:24Z</time>
      </trkpt>
      <trkpt lat="45.2276" lon="6.21593">
        <ele>1830.176</ele>
        <time>2022-07-17T07:45:29Z</time>
      </trkpt>
      <trkpt lat="45.22764" lon="6.21605">
        <ele>1829.926</ele>
        <time>2022-07-17T07:45:34Z</time>
      </trkpt>
      <trkpt lat="45.22767" lon="6.21616">
        <ele>1831.312</ele>
        <time>2022-07-17T07:45:39Z</time>
      </trkpt>
      <trkpt lat="45.2277" lon="6.21628">
        <ele>1832.058</ele>
        <time>2022-07-17T07:45:44Z</time>
      </trkpt>
      <trkpt lat="45.22773" lon="6.2164">
        <ele>1832.854</ele>
        <time>2022-07-17T07:45:49Z</time>
      </trkpt>
      <trkpt lat="45.22777" lon="6.21653">
        <ele>1834.275</ele>
        <time>2022-07-17T07:45:54Z</time>
      </trkpt>
      <trkpt lat="45.22781" lon="6.21665">
        <ele>1835.195</ele>
        <time>2022-07-17T07:45:59Z</time>
      </trkpt>
      <trkpt lat="45.22785" lon="6.21678">
        <ele>1835.509</ele>
        <time>2022-07-17T07:46:04Z</time>
      </trkpt>
      <trkpt lat="45.22791" lon="6.21687">
        <ele>1836.028</ele>
        <time>2022-07-17T07:46:09Z</time>
      </trkpt>
      <trkpt lat="45.228" lon="6.21683">
        <ele>1837.129</ele>
        <time>2022-07-17T07:46:14Z</time>
      </trkpt>
      <trkpt lat="45.22801" lon="6.21668">
        <ele>1838.234</ele>
        <time>2022-07-17T07:46:19Z</time>
      </trkpt>
      <trkpt lat="45.22798" lon="6.21655">
        <ele>1838.612</ele>
        <time>2022-07-17T07:46:24Z</time>
      </trkpt>
      <trkpt lat="45.22793" lon="6.21643">
        <ele>1839.015</ele>
        <time>2022-07-17T07:46:29Z</time>
      </trkpt>
      <trkpt lat="45.22788" lon="6.2163">
        <ele>1839.537</ele>
        <time>2022-07-17T07:46:34Z</time>
      </trkpt>
      <trkpt lat="45.22786" lon="6.21619">
        <ele>1840.601</ele>
        <time>2022-07-17T07:46:39Z</time>
      </trkpt>
      <trkpt lat="45.22781" lon="6.21607">
        <ele>1840.426</ele>
        <time>2022-07-17T07:46:44Z</time>
      </trkpt>
      <trkpt lat="45.22778" lon="6.21595">
        <ele>1841.177</ele>
        <time>2022-07-17T07:46:49Z</time>
      </trkpt>
      <trkpt lat="45.22774" lon="6.21582">
        <ele>1842.019</ele>
        <time>2022-07-17T07:46:54Z</time>
      </trkpt>
      <trkpt lat="45.2277" lon="6.2157">
        <ele>1842.671</ele>
        <time>2022-07-17T07:46:59Z</time>
      </trkpt>
      <trkpt lat="45.22766" lon="6.21559">
        <ele>1843.372</ele>
        <time>2022-07-17T07:47:04Z</time>
      </trkpt>
      <trkpt lat="45.22762" lon="6.21547">
        <ele>1844.325</ele>
        <time>2022-07-17T07:47:09Z</time>
      </trkpt>
      <trkpt lat="45.22758" lon="6.21536">
        <ele>1844.775</ele>
        <time>2022-07-17T07:47:14Z</time>
      </trkpt>
      <trkpt lat="45.22753" lon="6.21525">
        <ele>1845.812</ele>
        <time>2022-07-17T07:47:19Z</time>
      </trkpt>
      <trkpt lat="45.22747" lon="6.21513">
        <ele>1846.659</ele>
        <time>2022-07-17T07:47:24Z</time>
      </trkpt>
      <trkpt lat="45.22741" lon="6.21502">
        <ele>1847.657</ele>
        <time>2022-07-17T07:47:29Z</time>
      </trkpt>
      <trkpt lat="45.22735" lon="6.2149">
        <ele>1848.675</ele>
        <time>2022-07-17T07:47:34Z</time>
      </trkpt>
      <trkpt lat="45.2273" lon="6.21478">
        <ele>1849.324</ele>
        <time>2022-07-17T07:47:39Z</time>
      </trkpt>
      <trkpt lat="45.22725" lon="6.21467">
        <ele>1850.251</ele>
        <time>2022-07-17T07:47:44Z</time>
      </trkpt>
      <trkpt lat="45.22719" lon="6.21455">
        <ele>1850.752</ele>
        <time>2022-07-17T07:47:49Z</time>
      </trkpt>
      <trkpt lat="45.22715" lon="6.21445">
        <ele>1851.796</ele>
        <time>2022-07-17T07:47:54Z</time>
      </trkpt>
      <trkpt lat="45.22709" lon="6.21434">
        <ele>1852.583</ele>
        <time>2022-07-17T07:47:59Z</time>
      </trkpt>
      <trkpt lat="45.22704" lon="6.21423">
        <ele>1853.591</ele>
        <time>2022-07-17T07:48:04Z</time>
      </trkpt>
      <trkpt lat="45.22698" lon="6.21413">
        <ele>1854.41</ele>
        <time>2022-07-17T07:48:09Z</time>
      </trkpt>
      <trkpt lat="45.22693" lon="6.21402">
        <ele>1855.804</ele>
        <time>2022-07-17T07:48:14Z</time>
      </trkpt>
      <trkpt lat="45.22687" lon="6.21391">
        <ele>1857.247</ele>
        <time>2022-07-17T07:48:19Z</time>
      </trkpt>
      <trkpt lat="45.22681" lon="6.21381">
        <ele>1858.368</ele>
        <time>2022-07-17T07:48:24Z</time>
      </trkpt>
      <trkpt lat="45.22676" lon="6.21372">
        <ele>1859.168</ele>
        <time>2022-07-17T07:48:29Z</time>
      </trkpt>
      <trkpt lat="45.2267" lon="6.21362">
        <ele>1859.592</ele>
        <time>2022-07-17T07:48:34Z</time>
      </trkpt>
      <trkpt lat="45.22664" lon="6.21352">
        <ele>1860.332</ele>
        <time>2022-07-17T07:48:39Z</time>
      </trkpt>
      <trkpt lat="45.22658" lon="6.21344">
        <ele>1860.37</ele>
        <time>2022-07-17T07:48:44Z</time>
      </trkpt>
      <trkpt lat="45.22651" lon="6.21337">
        <ele>1861.458</ele>
        <time>2022-07-17T07:48:49Z</time>
      </trkpt>
      <trkpt lat="45.22645" lon="6.2133">
        <ele>1862.197</ele>
        <time>2022-07-17T07:48:54Z</time>
      </trkpt>
      <trkpt lat="45.22639" lon="6.21322">
        <ele>1862.588</ele>
        <time>2022-07-17T07:48:59Z</time>
      </trkpt>
      <trkpt lat="45.22632" lon="6.21313">
        <ele>1859.093</ele>
        <time>2022-07-17T07:49:04Z</time>
      </trkpt>
      <trkpt lat="45.22624" lon="6.21299">
        <ele>1856.469</ele>
        <time>2022-07-17T07:49:09Z</time>
      </trkpt>
      <trkpt lat="45.22616" lon="6.21289">
        <ele>1855.55</ele>
        <time>2022-07-17T07:49:14Z</time>
      </trkpt>
      <trkpt lat="45.22606" lon="6.21277">
        <ele>1854.128</ele>
        <time>2022-07-17T07:49:19Z</time>
      </trkpt>
      <trkpt lat="45.22603" lon="6.21259">
        <ele>1855.899</ele>
        <time>2022-07-17T07:49:24Z</time>
      </trkpt>
      <trkpt lat="45.2261" lon="6.21258">
        <ele>1858.113</ele>
        <time>2022-07-17T07:49:29Z</time>
      </trkpt>
      <trkpt lat="45.22613" lon="6.21263">
        <ele>1861.257</ele>
        <time>2022-07-17T07:49:34Z</time>
      </trkpt>
      <trkpt lat="45.22617" lon="6.21266">
        <ele>1864.945</ele>
        <time>2022-07-17T07:49:39Z</time>
      </trkpt>
      <trkpt lat="45.22622" lon="6.21271">
        <ele>1866.957</ele>
        <time>2022-07-17T07:49:44Z</time>
      </trkpt>
      <trkpt lat="45.22628" lon="6.21278">
        <ele>1868.445</ele>
        <time>2022-07-17T07:49:49Z</time>
      </trkpt>
      <trkpt lat="45.22635" lon="6.21285">
        <ele>1870.557</ele>
        <time>2022-07-17T07:49:54Z</time>
      </trkpt>
      <trkpt lat="45.22643" lon="6.2129">
        <ele>1872.48</ele>
        <time>2022-07-17T07:49:59Z</time>
      </trkpt>
      <trkpt lat="45.22651" lon="6.21296">
        <ele>1874.011</ele>
        <time>2022-07-17T07:50:04Z</time>
      </trkpt>
      <trkpt lat="45.2266" lon="6.21301">
        <ele>1875.314</ele>
        <time>2022-07-17T07:50:09Z</time>
      </trkpt>
      <trkpt lat="45.22669" lon="6.21305">
        <ele>1877.291</ele>
        <time>2022-07-17T07:50:14Z</time>
      </trkpt>
      <trkpt lat="45.22677" lon="6.21309">
        <ele>1878.415</ele>
        <time>2022-07-17T07:50:19Z</time>
      </trkpt>
      <trkpt lat="45.22685" lon="6.21314">
        <ele>1879.455</ele>
        <time>2022-07-17T07:50:24Z</time>
      </trkpt>
      <trkpt lat="45.22693" lon="6.21317">
        <ele>1882.395</ele>
        <time>2022-07-17T07:50:29Z</time>
      </trkpt>
      <trkpt lat="45.22702" lon="6.21325">
        <ele>1881.969</ele>
        <time>2022-07-17T07:50:34Z</time>
      </trkpt>
      <trkpt lat="45.22711" lon="6.21333">
        <ele>1882.286</ele>
        <time>2022-07-17T07:50:39Z</time>
      </trkpt>
      <trkpt lat="45.22719" lon="6.2134">
        <ele>1883.415</ele>
        <time>2022-07-17T07:50:44Z</time>
      </trkpt>
      <trkpt lat="45.22726" lon="6.21349">
        <ele>1884.353</ele>
        <time>2022-07-17T07:50:49Z</time>
      </trkpt>
      <trkpt lat="45.22732" lon="6.21359">
        <ele>1884.111</ele>
        <time>2022-07-17T07:50:54Z</time>
      </trkpt>
      <trkpt lat="45.22737" lon="6.2137">
        <ele>1884.819</ele>
        <time>2022-07-17T07:50:59Z</time>
      </trkpt>
      <trkpt lat="45.22742" lon="6.21381">
        <ele>1885.736</ele>
        <time>2022-07-17T07:51:04Z</time>
      </trkpt>
      <trkpt lat="45.22746" lon="6.21391">
        <ele>1886.885</ele>
        <time>2022-07-17T07:51:09Z</time>
      </trkpt>
      <trkpt lat="45.2275" lon="6.21403">
        <ele>1887.989</ele>
        <time>2022-07-17T07:51:14Z</time>
      </trkpt>
      <trkpt lat="45.22754" lon="6.21415">
        <ele>1888.353</ele>
        <time>2022-07-17T07:51:19Z</time>
      </trkpt>
      <trkpt lat="45.22757" lon="6.21427">
        <ele>1888.373</ele>
        <time>2022-07-17T07:51:24Z</time>
      </trkpt>
      <trkpt lat="45.22761" lon="6.21441">
        <ele>1889.731</ele>
        <time>2022-07-17T07:51:29Z</time>
      </trkpt>
      <trkpt lat="45.22765" lon="6.21452">
        <ele>1890.97</ele>
        <time>2022-07-17T07:51:34Z</time>
      </trkpt>
      <trkpt lat="45.22771" lon="6.21462">
        <ele>1892.346</ele>
        <time>2022-07-17T07:51:39Z</time>
      </trkpt>
      <trkpt lat="45.22775" lon="6.21472">
        <ele>1893.643</ele>
        <time>2022-07-17T07:51:44Z</time>
      </trkpt>
      <trkpt lat="45.22781" lon="6.2148">
        <ele>1894.348</ele>
        <time>2022-07-17T07:51:49Z</time>
      </trkpt>
      <trkpt lat="45.22789" lon="6.21487">
        <ele>1895.977</ele>
        <time>2022-07-17T07:51:54Z</time>
      </trkpt>
      <trkpt lat="45.22796" lon="6.21494">
        <ele>1897.5</ele>
        <time>2022-07-17T07:51:59Z</time>
      </trkpt>
      <trkpt lat="45.22804" lon="6.215">
        <ele>1897.237</ele>
        <time>2022-07-17T07:52:04Z</time>
      </trkpt>
      <trkpt lat="45.22812" lon="6.21504">
        <ele>1896.813</ele>
        <time>2022-07-17T07:52:09Z</time>
      </trkpt>
      <trkpt lat="45.22821" lon="6.21509">
        <ele>1897.699</ele>
        <time>2022-07-17T07:52:14Z</time>
      </trkpt>
      <trkpt lat="45.22829" lon="6.21513">
        <ele>1899.639</ele>
        <time>2022-07-17T07:52:19Z</time>
      </trkpt>
      <trkpt lat="45.22838" lon="6.21519">
        <ele>1900.826</ele>
        <time>2022-07-17T07:52:24Z</time>
      </trkpt>
      <trkpt lat="45.22846" lon="6.21525">
        <ele>1901.884</ele>
        <time>2022-07-17T07:52:29Z</time>
      </trkpt>
      <trkpt lat="45.22854" lon="6.2153">
        <ele>1902.512</ele>
        <time>2022-07-17T07:52:34Z</time>
      </trkpt>
      <trkpt lat="45.22862" lon="6.21536">
        <ele>1901.562</ele>
        <time>2022-07-17T07:52:39Z</time>
      </trkpt>
      <trkpt lat="45.22872" lon="6.21541">
        <ele>1900.677</ele>
        <time>2022-07-17T07:52:44Z</time>
      </trkpt>
      <trkpt lat="45.2288" lon="6.21547">
        <ele>1901.45</ele>
        <time>2022-07-17T07:52:49Z</time>
      </trkpt>
      <trkpt lat="45.22888" lon="6.21555">
        <ele>1902.464</ele>
        <time>2022-07-17T07:52:54Z</time>
      </trkpt>
      <trkpt lat="45.22895" lon="6.21562">
        <ele>1902.868</ele>
        <time>2022-07-17T07:52:59Z</time>
      </trkpt>
      <trkpt lat="45.22902" lon="6.21571">
        <ele>1904.35</ele>
        <time>2022-07-17T07:53:04Z</time>
      </trkpt>
      <trkpt lat="45.2291" lon="6.2158">
        <ele>1906.136</ele>
        <time>2022-07-17T07:53:09Z</time>
      </trkpt>
      <trkpt lat="45.22919" lon="6.21588">
        <ele>1907.448</ele>
        <time>2022-07-17T07:53:14Z</time>
      </trkpt>
      <trkpt lat="45.22929" lon="6.21592">
        <ele>1908.315</ele>
        <time>2022-07-17T07:53:19Z</time>
      </trkpt>
      <trkpt lat="45.2294" lon="6.21598">
        <ele>1910.303</ele>
        <time>2022-07-17T07:53:24Z</time>
      </trkpt>
      <trkpt lat="45.2295" lon="6.21601">
        <ele>1912.367</ele>
        <time>2022-07-17T07:53:29Z</time>
      </trkpt>
      <trkpt lat="45.2296" lon="6.21604">
        <ele>1913.283</ele>
        <time>2022-07-17T07:53:34Z</time>
      </trkpt>
      <trkpt lat="45.2297" lon="6.21604">
        <ele>1913.392</ele>
        <time>2022-07-17T07:53:39Z</time>
      </trkpt>
      <trkpt lat="45.22981" lon="6.21604">
        <ele>1914.477</ele>
        <time>2022-07-17T07:53:44Z</time>
      </trkpt>
      <trkpt lat="45.22991" lon="6.21605">
        <ele>1915.7</ele>
        <time>2022-07-17T07:53:49Z</time>
      </trkpt>
      <trkpt lat="45.23001" lon="6.21606">
        <ele>1917.27</ele>
        <time>2022-07-17T07:53:54Z</time>
      </trkpt>
      <trkpt lat="45.2301" lon="6.21607">
        <ele>1918.127</ele>
        <time>2022-07-17T07:53:59Z</time>
      </trkpt>
      <trkpt lat="45.2302" lon="6.21609">
        <ele>1919.074</ele>
        <time>2022-07-17T07:54:04Z</time>
      </trkpt>
      <trkpt lat="45.2303" lon="6.2161">
        <ele>1920.352</ele>
        <time>2022-07-17T07:54:09Z</time>
      </trkpt>
      <trkpt lat="45.23041" lon="6.21611">
        <ele>1921.273</ele>
        <time>2022-07-17T07:54:14Z</time>
      </trkpt>
      <trkpt lat="45.23051" lon="6.2161">
        <ele>1922.847</ele>
        <time>2022-07-17T07:54:19Z</time>
      </trkpt>
      <trkpt lat="45.23061" lon="6.21616">
        <ele>1922.622</ele>
        <time>2022-07-17T07:54:24Z</time>
      </trkpt>
      <trkpt lat="45.2307" lon="6.21624">
        <ele>1923.185</ele>
        <time>2022-07-17T07:54:29Z</time>
      </trkpt>
      <trkpt lat="45.23078" lon="6.21635">
        <ele>1923.479</ele>
        <time>2022-07-17T07:54:34Z</time>
      </trkpt>
      <trkpt lat="45.23085" lon="6.21647">
        <ele>1925.159</ele>
        <time>2022-07-17T07:54:39Z</time>
      </trkpt>
      <trkpt lat="45.23091" lon="6.21658">
        <ele>1926.297</ele>
        <time>2022-07-17T07:54:44Z</time>
      </trkpt>
      <trkpt lat="45.23096" lon="6.21671">
        <ele>1926.637</ele>
        <time>2022-07-17T07:54:49Z</time>
      </trkpt>
      <trkpt lat="45.23106" lon="6.21679">
        <ele>1926.885</ele>
        <time>2022-07-17T07:54:54Z</time>
      </trkpt>
      <trkpt lat="45.23114" lon="6.21669">
        <ele>1927.709</ele>
        <time>2022-07-17T07:54:59Z</time>
      </trkpt>
      <trkpt lat="45.2311" lon="6.21654">
        <ele>1928.303</ele>
        <time>2022-07-17T07:55:04Z</time>
      </trkpt>
      <trkpt lat="45.23103" lon="6.21639">
        <ele>1928.694</ele>
        <time>2022-07-17T07:55:09Z</time>
      </trkpt>
      <trkpt lat="45.23096" lon="6.21626">
        <ele>1929.573</ele>
        <time>2022-07-17T07:55:14Z</time>
      </trkpt>
      <trkpt lat="45.23089" lon="6.21616">
        <ele>1931.499</ele>
        <time>2022-07-17T07:55:19Z</time>
      </trkpt>
      <trkpt lat="45.23083" lon="6.21602">
        <ele>1931.127</ele>
        <time>2022-07-17T07:55:24Z</time>
      </trkpt>
      <trkpt lat="45.23076" lon="6.21589">
        <ele>1931.136</ele>
        <time>2022-07-17T07:55:29Z</time>
      </trkpt>
      <trkpt lat="45.2307" lon="6.21578">
        <ele>1931.848</ele>
        <time>2022-07-17T07:55:34Z</time>
      </trkpt>
      <trkpt lat="45.23063" lon="6.21564">
        <ele>1932.67</ele>
        <time>2022-07-17T07:55:39Z</time>
      </trkpt>
      <trkpt lat="45.23055" lon="6.21552">
        <ele>1933.844</ele>
        <time>2022-07-17T07:55:44Z</time>
      </trkpt>
      <trkpt lat="45.23046" lon="6.21543">
        <ele>1934.916</ele>
        <time>2022-07-17T07:55:49Z</time>
      </trkpt>
      <trkpt lat="45.23036" lon="6.21534">
        <ele>1935.822</ele>
        <time>2022-07-17T07:55:54Z</time>
      </trkpt>
      <trkpt lat="45.23026" lon="6.21528">
        <ele>1936.537</ele>
        <time>2022-07-17T07:55:59Z</time>
      </trkpt>
      <trkpt lat="45.23016" lon="6.21522">
        <ele>1938.104</ele>
        <time>2022-07-17T07:56:04Z</time>
      </trkpt>
      <trkpt lat="45.23006" lon="6.21517">
        <ele>1938.671</ele>
        <time>2022-07-17T07:56:09Z</time>
      </trkpt>
      <trkpt lat="45.22996" lon="6.21515">
        <ele>1939.925</ele>
        <time>2022-07-17T07:56:14Z</time>
      </trkpt>
      <trkpt lat="45.22986" lon="6.21512">
        <ele>1940.598</ele>
        <time>2022-07-17T07:56:19Z</time>
      </trkpt>
      <trkpt lat="45.22975" lon="6.21508">
        <ele>1942.344</ele>
        <time>2022-07-17T07:56:24Z</time>
      </trkpt>
      <trkpt lat="45.22965" lon="6.21506">
        <ele>1943.103</ele>
        <time>2022-07-17T07:56:29Z</time>
      </trkpt>
      <trkpt lat="45.22954" lon="6.21503">
        <ele>1944.02</ele>
        <time>2022-07-17T07:56:34Z</time>
      </trkpt>
      <trkpt lat="45.22944" lon="6.21498">
        <ele>1944.752</ele>
        <time>2022-07-17T07:56:39Z</time>
      </trkpt>
      <trkpt lat="45.22935" lon="6.21492">
        <ele>1945.427</ele>
        <time>2022-07-17T07:56:44Z</time>
      </trkpt>
      <trkpt lat="45.22927" lon="6.21483">
        <ele>1946.667</ele>
        <time>2022-07-17T07:56:49Z</time>
      </trkpt>
      <trkpt lat="45.22922" lon="6.21469">
        <ele>1948.077</ele>
        <time>2022-07-17T07:56:54Z</time>
      </trkpt>
      <trkpt lat="45.2292" lon="6.21454">
        <ele>1949.731</ele>
        <time>2022-07-17T07:56:59Z</time>
      </trkpt>
      <trkpt lat="45.2292" lon="6.21438">
        <ele>1950.688</ele>
        <time>2022-07-17T07:57:04Z</time>
      </trkpt>
      <trkpt lat="45.22918" lon="6.21423">
        <ele>1952.539</ele>
        <time>2022-07-17T07:57:09Z</time>
      </trkpt>
      <trkpt lat="45.22914" lon="6.21408">
        <ele>1952.408</ele>
        <time>2022-07-17T07:57:14Z</time>
      </trkpt>
      <trkpt lat="45.22909" lon="6.21394">
        <ele>1952.446</ele>
        <time>2022-07-17T07:57:19Z</time>
      </trkpt>
      <trkpt lat="45.229" lon="6.21384">
        <ele>1953.171</ele>
        <time>2022-07-17T07:57:24Z</time>
      </trkpt>
      <trkpt lat="45.2289" lon="6.21376">
        <ele>1954.386</ele>
        <time>2022-07-17T07:57:29Z</time>
      </trkpt>
      <trkpt lat="45.22881" lon="6.2137">
        <ele>1955.513</ele>
        <time>2022-07-17T07:57:34Z</time>
      </trkpt>
      <trkpt lat="45.22872" lon="6.21364">
        <ele>1956.592</ele>
        <time>2022-07-17T07:57:39Z</time>
      </trkpt>
      <trkpt lat="45.22863" lon="6.21356">
        <ele>1957.472</ele>
        <time>2022-07-17T07:57:44Z</time>
      </trkpt>
      <trkpt lat="45.22858" lon="6.21344">
        <ele>1959.263</ele>
        <time>2022-07-17T07:57:49Z</time>
      </trkpt>
      <trkpt lat="45.22859" lon="6.21329">
        <ele>1960.454</ele>
        <time>2022-07-17T07:57:54Z</time>
      </trkpt>
      <trkpt lat="45.22863" lon="6.21316">
        <ele>1961.675</ele>
        <time>2022-07-17T07:57:59Z</time>
      </trkpt>
      <trkpt lat="45.22869" lon="6.21303">
        <ele>1962.958</ele>
        <time>2022-07-17T07:58:04Z</time>
      </trkpt>
      <trkpt lat="45.22875" lon="6.21291">
        <ele>1964.599</ele>
        <time>2022-07-17T07:58:09Z</time>
      </trkpt>
      <trkpt lat="45.2288" lon="6.21282">
        <ele>1965.66</ele>
        <time>2022-07-17T07:58:14Z</time>
      </trkpt>
      <trkpt lat="45.22885" lon="6.21272">
        <ele>1966.935</ele>
        <time>2022-07-17T07:58:19Z</time>
      </trkpt>
      <trkpt lat="45.22889" lon="6.21261">
        <ele>1968.131</ele>
        <time>2022-07-17T07:58:24Z</time>
      </trkpt>
      <trkpt lat="45.22893" lon="6.21249">
        <ele>1968.853</ele>
        <time>2022-07-17T07:58:29Z</time>
      </trkpt>
      <trkpt lat="45.22895" lon="6.21236">
        <ele>1969.328</ele>
        <time>2022-07-17T07:58:34Z</time>
      </trkpt>
      <trkpt lat="45.22897" lon="6.21222">
        <ele>1970.557</ele>
        <time>2022-07-17T07:58:39Z</time>
      </trkpt>
      <trkpt lat="45.22897" lon="6.21208">
        <ele>1971.173</ele>
        <time>2022-07-17T07:58:44Z</time>
      </trkpt>
      <trkpt lat="45.22898" lon="6.21194">
        <ele>1972.311</ele>
        <time>2022-07-17T07:58:49Z</time>
      </trkpt>
      <trkpt lat="45.22898" lon="6.21181">
        <ele>1972.488</ele>
        <time>2022-07-17T07:58:54Z</time>
      </trkpt>
      <trkpt lat="45.22898" lon="6.21166">
        <ele>1973.234</ele>
        <time>2022-07-17T07:58:59Z</time>
      </trkpt>
      <trkpt lat="45.22897" lon="6.21152">
        <ele>1973.354</ele>
        <time>2022-07-17T07:59:04Z</time>
      </trkpt>
      <trkpt lat="45.22894" lon="6.21137">
        <ele>1973.304</ele>
        <time>2022-07-17T07:59:09Z</time>
      </trkpt>
      <trkpt lat="45.22891" lon="6.21123">
        <ele>1973.932</ele>
        <time>2022-07-17T07:59:14Z</time>
      </trkpt>
      <trkpt lat="45.2289" lon="6.21109">
        <ele>1975.249</ele>
        <time>2022-07-17T07:59:19Z</time>
      </trkpt>
      <trkpt lat="45.2289" lon="6.21095">
        <ele>1978.189</ele>
        <time>2022-07-17T07:59:24Z</time>
      </trkpt>
      <trkpt lat="45.22893" lon="6.21082">
        <ele>1978.864</ele>
        <time>2022-07-17T07:59:29Z</time>
      </trkpt>
      <trkpt lat="45.22895" lon="6.21068">
        <ele>1980.383</ele>
        <time>2022-07-17T07:59:34Z</time>
      </trkpt>
      <trkpt lat="45.22897" lon="6.21053">
        <ele>1981.954</ele>
        <time>2022-07-17T07:59:39Z</time>
      </trkpt>
      <trkpt lat="45.22899" lon="6.21039">
        <ele>1983.423</ele>
        <time>2022-07-17T07:59:44Z</time>
      </trkpt>
      <trkpt lat="45.229" lon="6.21024">
        <ele>1984.93</ele>
        <time>2022-07-17T07:59:49Z</time>
      </trkpt>
      <trkpt lat="45.22901" lon="6.21009">
        <ele>1986.765</ele>
        <time>2022-07-17T07:59:54Z</time>
      </trkpt>
      <trkpt lat="45.22902" lon="6.20993">
        <ele>1987.377</ele>
        <time>2022-07-17T07:59:59Z</time>
      </trkpt>
      <trkpt lat="45.22902" lon="6.20978">
        <ele>1988.56</ele>
        <time>2022-07-17T08:00:04Z</time>
      </trkpt>
      <trkpt lat="45.22902" lon="6.20963">
        <ele>1989.347</ele>
        <time>2022-07-17T08:00:09Z</time>
      </trkpt>
      <trkpt lat="45.22902" lon="6.20948">
        <ele>1989.988</ele>
        <time>2022-07-17T08:00:14Z</time>
      </trkpt>
      <trkpt lat="45.22902" lon="6.20934">
        <ele>1990.998</ele>
        <time>2022-07-17T08:00:19Z</time>
      </trkpt>
      <trkpt lat="45.22902" lon="6.20918">
        <ele>1991.967</ele>
        <time>2022-07-17T08:00:24Z</time>
      </trkpt>
      <trkpt lat="45.229" lon="6.20902">
        <ele>1993.28</ele>
        <time>2022-07-17T08:00:29Z</time>
      </trkpt>
      <trkpt lat="45.22898" lon="6.20888">
        <ele>1994.246</ele>
        <time>2022-07-17T08:00:34Z</time>
      </trkpt>
      <trkpt lat="45.22904" lon="6.20877">
        <ele>1994.909</ele>
        <time>2022-07-17T08:00:39Z</time>
      </trkpt>
      <trkpt lat="45.22914" lon="6.20881">
        <ele>1996.074</ele>
        <time>2022-07-17T08:00:44Z</time>
      </trkpt>
      <trkpt lat="45.22924" lon="6.20887">
        <ele>1997.953</ele>
        <time>2022-07-17T08:00:49Z</time>
      </trkpt>
      <trkpt lat="45.22934" lon="6.20894">
        <ele>1998.765</ele>
        <time>2022-07-17T08:00:54Z</time>
      </trkpt>
      <trkpt lat="45.22944" lon="6.20899">
        <ele>1999.561</ele>
        <time>2022-07-17T08:00:59Z</time>
      </trkpt>
      <trkpt lat="45.22954" lon="6.20906">
        <ele>1999.135</ele>
        <time>2022-07-17T08:01:04Z</time>
      </trkpt>
      <trkpt lat="45.22964" lon="6.20913">
        <ele>1999.321</ele>
        <time>2022-07-17T08:01:09Z</time>
      </trkpt>
      <trkpt lat="45.22974" lon="6.20918">
        <ele>1999.5</ele>
        <time>2022-07-17T08:01:14Z</time>
      </trkpt>
      <trkpt lat="45.22983" lon="6.20924">
        <ele>2000.748</ele>
        <time>2022-07-17T08:01:19Z</time>
      </trkpt>
      <trkpt lat="45.22992" lon="6.2093">
        <ele>2001.617</ele>
        <time>2022-07-17T08:01:24Z</time>
      </trkpt>
      <trkpt lat="45.23001" lon="6.20936">
        <ele>2001.534</ele>
        <time>2022-07-17T08:01:29Z</time>
      </trkpt>
      <trkpt lat="45.2301" lon="6.20942">
        <ele>2002.597</ele>
        <time>2022-07-17T08:01:34Z</time>
      </trkpt>
      <trkpt lat="45.2302" lon="6.20947">
        <ele>2003.747</ele>
        <time>2022-07-17T08:01:39Z</time>
      </trkpt>
      <trkpt lat="45.2303" lon="6.20953">
        <ele>2004.394</ele>
        <time>2022-07-17T08:01:44Z</time>
      </trkpt>
      <trkpt lat="45.2304" lon="6.2096">
        <ele>2005.273</ele>
        <time>2022-07-17T08:01:49Z</time>
      </trkpt>
      <trkpt lat="45.23048" lon="6.20971">
        <ele>2006.588</ele>
        <time>2022-07-17T08:01:54Z</time>
      </trkpt>
      <trkpt lat="45.23052" lon="6.20985">
        <ele>2007.516</ele>
        <time>2022-07-17T08:01:59Z</time>
      </trkpt>
      <trkpt lat="45.23056" lon="6.20999">
        <ele>2008.42</ele>
        <time>2022-07-17T08:02:04Z</time>
      </trkpt>
      <trkpt lat="45.23058" lon="6.21014">
        <ele>2008.636</ele>
        <time>2022-07-17T08:02:09Z</time>
      </trkpt>
      <trkpt lat="45.23059" lon="6.21028">
        <ele>2008.934</ele>
        <time>2022-07-17T08:02:14Z</time>
      </trkpt>
      <trkpt lat="45.23057" lon="6.21043">
        <ele>2010.118</ele>
        <time>2022-07-17T08:02:19Z</time>
      </trkpt>
      <trkpt lat="45.23057" lon="6.21057">
        <ele>2010.591</ele>
        <time>2022-07-17T08:02:24Z</time>
      </trkpt>
      <trkpt lat="45.23064" lon="6.21069">
        <ele>2011.057</ele>
        <time>2022-07-17T08:02:29Z</time>
      </trkpt>
      <trkpt lat="45.23072" lon="6.2106">
        <ele>2015.753</ele>
        <time>2022-07-17T08:02:34Z</time>
      </trkpt>
      <trkpt lat="45.23073" lon="6.21044">
        <ele>2016.488</ele>
        <time>2022-07-17T08:02:39Z</time>
      </trkpt>
      <trkpt lat="45.23072" lon="6.21029">
        <ele>2017.389</ele>
        <time>2022-07-17T08:02:44Z</time>
      </trkpt>
      <trkpt lat="45.2307" lon="6.21014">
        <ele>2018.763</ele>
        <time>2022-07-17T08:02:49Z</time>
      </trkpt>
      <trkpt lat="45.23071" lon="6.21">
        <ele>2018.669</ele>
        <time>2022-07-17T08:02:54Z</time>
      </trkpt>
      <trkpt lat="45.2307" lon="6.20984">
        <ele>2018.618</ele>
        <time>2022-07-17T08:02:59Z</time>
      </trkpt>
      <trkpt lat="45.2307" lon="6.20969">
        <ele>2019.927</ele>
        <time>2022-07-17T08:03:04Z</time>
      </trkpt>
      <trkpt lat="45.23068" lon="6.20953">
        <ele>2020.921</ele>
        <time>2022-07-17T08:03:09Z</time>
      </trkpt>
      <trkpt lat="45.23067" lon="6.20936">
        <ele>2022.4</ele>
        <time>2022-07-17T08:03:14Z</time>
      </trkpt>
      <trkpt lat="45.23064" lon="6.20921">
        <ele>2023.385</ele>
        <time>2022-07-17T08:03:19Z</time>
      </trkpt>
      <trkpt lat="45.23059" lon="6.20907">
        <ele>2024.31</ele>
        <time>2022-07-17T08:03:24Z</time>
      </trkpt>
      <trkpt lat="45.23053" lon="6.20893">
        <ele>2024.616</ele>
        <time>2022-07-17T08:03:29Z</time>
      </trkpt>
      <trkpt lat="45.23047" lon="6.20879">
        <ele>2026.561</ele>
        <time>2022-07-17T08:03:34Z</time>
      </trkpt>
      <trkpt lat="45.2304" lon="6.20865">
        <ele>2027.534</ele>
        <time>2022-07-17T08:03:39Z</time>
      </trkpt>
      <trkpt lat="45.23033" lon="6.20852">
        <ele>2027.966</ele>
        <time>2022-07-17T08:03:44Z</time>
      </trkpt>
      <trkpt lat="45.23026" lon="6.2084">
        <ele>2029.013</ele>
        <time>2022-07-17T08:03:49Z</time>
      </trkpt>
      <trkpt lat="45.23019" lon="6.20827">
        <ele>2030.743</ele>
        <time>2022-07-17T08:03:54Z</time>
      </trkpt>
      <trkpt lat="45.23012" lon="6.20813">
        <ele>2031.585</ele>
        <time>2022-07-17T08:03:59Z</time>
      </trkpt>
      <trkpt lat="45.23004" lon="6.20799">
        <ele>2033.554</ele>
        <time>2022-07-17T08:04:04Z</time>
      </trkpt>
      <trkpt lat="45.22997" lon="6.20785">
        <ele>2034.31</ele>
        <time>2022-07-17T08:04:09Z</time>
      </trkpt>
      <trkpt lat="45.22991" lon="6.2077">
        <ele>2034.75</ele>
        <time>2022-07-17T08:04:14Z</time>
      </trkpt>
      <trkpt lat="45.22985" lon="6.20758">
        <ele>2035.605</ele>
        <time>2022-07-17T08:04:19Z</time>
      </trkpt>
      <trkpt lat="45.22979" lon="6.20745">
        <ele>2036.705</ele>
        <time>2022-07-17T08:04:24Z</time>
      </trkpt>
      <trkpt lat="45.22972" lon="6.20733">
        <ele>2037.726</ele>
        <time>2022-07-17T08:04:29Z</time>
      </trkpt>
      <trkpt lat="45.22965" lon="6.20721">
        <ele>2038.208</ele>
        <time>2022-07-17T08:04:34Z</time>
      </trkpt>
      <trkpt lat="45.22959" lon="6.20708">
        <ele>2039.225</ele>
        <time>2022-07-17T08:04:39Z</time>
      </trkpt>
      <trkpt lat="45.22952" lon="6.20695">
        <ele>2040.166</ele>
        <time>2022-07-17T08:04:44Z</time>
      </trkpt>
      <trkpt lat="45.22946" lon="6.20681">
        <ele>2041.743</ele>
        <time>2022-07-17T08:04:49Z</time>
      </trkpt>
      <trkpt lat="45.2294" lon="6.20668">
        <ele>2043.071</ele>
        <time>2022-07-17T08:04:54Z</time>
      </trkpt>
      <trkpt lat="45.22934" lon="6.20654">
        <ele>2044.077</ele>
        <time>2022-07-17T08:04:59Z</time>
      </trkpt>
      <trkpt lat="45.22929" lon="6.20641">
        <ele>2044.745</ele>
        <time>2022-07-17T08:05:04Z</time>
      </trkpt>
      <trkpt lat="45.22924" lon="6.20627">
        <ele>2044.704</ele>
        <time>2022-07-17T08:05:09Z</time>
      </trkpt>
      <trkpt lat="45.22919" lon="6.20614">
        <ele>2045.334</ele>
        <time>2022-07-17T08:05:14Z</time>
      </trkpt>
      <trkpt lat="45.22914" lon="6.20601">
        <ele>2045.537</ele>
        <time>2022-07-17T08:05:19Z</time>
      </trkpt>
      <trkpt lat="45.22907" lon="6.20589">
        <ele>2047.241</ele>
        <time>2022-07-17T08:05:24Z</time>
      </trkpt>
      <trkpt lat="45.22901" lon="6.20576">
        <ele>2048.456</ele>
        <time>2022-07-17T08:05:29Z</time>
      </trkpt>
      <trkpt lat="45.22896" lon="6.20564">
        <ele>2048.371</ele>
        <time>2022-07-17T08:05:34Z</time>
      </trkpt>
      <trkpt lat="45.2289" lon="6.20551">
        <ele>2048.456</ele>
        <time>2022-07-17T08:05:39Z</time>
      </trkpt>
      <trkpt lat="45.22882" lon="6.20539">
        <ele>2049.532</ele>
        <time>2022-07-17T08:05:44Z</time>
      </trkpt>
      <trkpt lat="45.22876" lon="6.20527">
        <ele>2051.104</ele>
        <time>2022-07-17T08:05:49Z</time>
      </trkpt>
      <trkpt lat="45.22869" lon="6.20515">
        <ele>2051.787</ele>
        <time>2022-07-17T08:05:54Z</time>
      </trkpt>
      <trkpt lat="45.22862" lon="6.20502">
        <ele>2051.63</ele>
        <time>2022-07-17T08:05:59Z</time>
      </trkpt>
      <trkpt lat="45.22855" lon="6.2049">
        <ele>2053.155</ele>
        <time>2022-07-17T08:06:04Z</time>
      </trkpt>
      <trkpt lat="45.22848" lon="6.20478">
        <ele>2055.171</ele>
        <time>2022-07-17T08:06:09Z</time>
      </trkpt>
      <trkpt lat="45.2284" lon="6.20466">
        <ele>2056.673</ele>
        <time>2022-07-17T08:06:14Z</time>
      </trkpt>
      <trkpt lat="45.2283" lon="6.20459">
        <ele>2057.144</ele>
        <time>2022-07-17T08:06:19Z</time>
      </trkpt>
      <trkpt lat="45.22819" lon="6.20457">
        <ele>2057.938</ele>
        <time>2022-07-17T08:06:24Z</time>
      </trkpt>
      <trkpt lat="45.22808" lon="6.20457">
        <ele>2059.351</ele>
        <time>2022-07-17T08:06:29Z</time>
      </trkpt>
      <trkpt lat="45.22798" lon="6.20456">
        <ele>2060.804</ele>
        <time>2022-07-17T08:06:34Z</time>
      </trkpt>
      <trkpt lat="45.22789" lon="6.20455">
        <ele>2062.097</ele>
        <time>2022-07-17T08:06:39Z</time>
      </trkpt>
      <trkpt lat="45.22779" lon="6.20451">
        <ele>2063.028</ele>
        <time>2022-07-17T08:06:44Z</time>
      </trkpt>
      <trkpt lat="45.2277" lon="6.20444">
        <ele>2063.342</ele>
        <time>2022-07-17T08:06:49Z</time>
      </trkpt>
      <trkpt lat="45.22762" lon="6.20436">
        <ele>2064.095</ele>
        <time>2022-07-17T08:06:54Z</time>
      </trkpt>
      <trkpt lat="45.22757" lon="6.20424">
        <ele>2064.827</ele>
        <time>2022-07-17T08:06:59Z</time>
      </trkpt>
      <trkpt lat="45.22754" lon="6.20411">
        <ele>2065.102</ele>
        <time>2022-07-17T08:07:04Z</time>
      </trkpt>
      <trkpt lat="45.22753" lon="6.20396">
        <ele>2065.065</ele>
        <time>2022-07-17T08:07:09Z</time>
      </trkpt>
      <trkpt lat="45.22751" lon="6.20382">
        <ele>2066.798</ele>
        <time>2022-07-17T08:07:14Z</time>
      </trkpt>
      <trkpt lat="45.2275" lon="6.20368">
        <ele>2067.899</ele>
        <time>2022-07-17T08:07:19Z</time>
      </trkpt>
      <trkpt lat="45.22749" lon="6.20356">
        <ele>2068.879</ele>
        <time>2022-07-17T08:07:24Z</time>
      </trkpt>
      <trkpt lat="45.22749" lon="6.20346">
        <ele>2068.879</ele>
        <time>2022-07-17T08:07:29Z</time>
      </trkpt>
      <trkpt lat="45.22749" lon="6.20337">
        <ele>2069.361</ele>
        <time>2022-07-17T08:07:34Z</time>
      </trkpt>
      <trkpt lat="45.22749" lon="6.20327">
        <ele>2068.682</ele>
        <time>2022-07-17T08:07:39Z</time>
      </trkpt>
      <trkpt lat="45.22749" lon="6.2032">
        <ele>2068.155</ele>
        <time>2022-07-17T08:07:44Z</time>
      </trkpt>
      <trkpt lat="45.22751" lon="6.20328">
        <ele>2068.388</ele>
        <time>2022-07-17T08:07:49Z</time>
      </trkpt>
      <trkpt lat="45.22752" lon="6.2033">
        <ele>2068.734</ele>
        <time>2022-07-17T08:07:54Z</time>
      </trkpt>
      <trkpt lat="45.22752" lon="6.2033">
        <ele>2068.731</ele>
        <time>2022-07-17T08:07:59Z</time>
      </trkpt>
      <trkpt lat="45.22752" lon="6.2033">
        <ele>2068.739</ele>
        <time>2022-07-17T08:08:04Z</time>
      </trkpt>
      <trkpt lat="45.22752" lon="6.2033">
        <ele>2068.986</ele>
        <time>2022-07-17T08:08:09Z</time>
      </trkpt>
      <trkpt lat="45.22753" lon="6.2033">
        <ele>2069.074</ele>
        <time>2022-07-17T08:08:14Z</time>
      </trkpt>
      <trkpt lat="45.22753" lon="6.2033">
        <ele>2069.075</ele>
        <time>2022-07-17T08:08:19Z</time>
      </trkpt>
      <trkpt lat="45.22753" lon="6.2033">
        <ele>2069.071</ele>
        <time>2022-07-17T08:08:24Z</time>
      </trkpt>
      <trkpt lat="45.22753" lon="6.2033">
        <ele>2069.071</ele>
        <time>2022-07-17T08:08:29Z</time>
      </trkpt>
      <trkpt lat="45.22753" lon="6.2033">
        <ele>2069.061</ele>
        <time>2022-07-17T08:08:34Z</time>
      </trkpt>
      <trkpt lat="45.22753" lon="6.2033">
        <ele>2068.794</ele>
        <time>2022-07-17T08:08:39Z</time>
      </trkpt>
      <trkpt lat="45.22753" lon="6.20329">
        <ele>2068.786</ele>
        <time>2022-07-17T08:08:44Z</time>
      </trkpt>
      <trkpt lat="45.22753" lon="6.20329">
        <ele>2068.781</ele>
        <time>2022-07-17T08:08:49Z</time>
      </trkpt>
      <trkpt lat="45.22753" lon="6.20329">
        <ele>2068.945</ele>
        <time>2022-07-17T08:08:54Z</time>
      </trkpt>
      <trkpt lat="45.22753" lon="6.20329">
        <ele>2068.929</ele>
        <time>2022-07-17T08:08:59Z</time>
      </trkpt>
      <trkpt lat="45.22753" lon="6.20329">
        <ele>2068.907</ele>
        <time>2022-07-17T08:09:04Z</time>
      </trkpt>
      <trkpt lat="45.22752" lon="6.20329">
        <ele>2068.914</ele>
        <time>2022-07-17T08:09:09Z</time>
      </trkpt>
      <trkpt lat="45.22752" lon="6.20329">
        <ele>2068.909</ele>
        <time>2022-07-17T08:09:14Z</time>
      </trkpt>
      <trkpt lat="45.22752" lon="6.20329">
        <ele>2068.912</ele>
        <time>2022-07-17T08:09:19Z</time>
      </trkpt>
      <trkpt lat="45.22752" lon="6.20329">
        <ele>2068.907</ele>
        <time>2022-07-17T08:09:24Z</time>
      </trkpt>
      <trkpt lat="45.22752" lon="6.20329">
        <ele>2068.887</ele>
        <time>2022-07-17T08:09:29Z</time>
      </trkpt>
      <trkpt lat="45.22752" lon="6.20329">
        <ele>2068.851</ele>
        <time>2022-07-17T08:09:34Z</time>
      </trkpt>
      <trkpt lat="45.22752" lon="6.20329">
        <ele>2068.83</ele>
        <time>2022-07-17T08:09:39Z</time>
      </trkpt>
      <trkpt lat="45.22752" lon="6.20329">
        <ele>2068.811</ele>
        <time>2022-07-17T08:09:44Z</time>
      </trkpt>
      <trkpt lat="45.22752" lon="6.20329">
        <ele>2068.787</ele>
        <time>2022-07-17T08:09:49Z</time>
      </trkpt>
      <trkpt lat="45.22752" lon="6.20329">
        <ele>2068.763</ele>
        <time>2022-07-17T08:09:54Z</time>
      </trkpt>
      <trkpt lat="45.22752" lon="6.20329">
        <ele>2068.736</ele>
        <time>2022-07-17T08:09:59Z</time>
      </trkpt>
      <trkpt lat="45.22752" lon="6.20329">
        <ele>2068.715</ele>
        <time>2022-07-17T08:10:04Z</time>
      </trkpt>
      <trkpt lat="45.22752" lon="6.20329">
        <ele>2068.697</ele>
        <time>2022-07-17T08:10:09Z</time>
      </trkpt>
      <trkpt lat="45.22752" lon="6.20329">
        <ele>2068.669</ele>
        <time>2022-07-17T08:10:14Z</time>
      </trkpt>
      <trkpt lat="45.22752" lon="6.20329">
        <ele>2068.428</ele>
        <time>2022-07-17T08:10:19Z</time>
      </trkpt>
      <trkpt lat="45.22752" lon="6.20329">
        <ele>2068.412</ele>
        <time>2022-07-17T08:10:24Z</time>
      </trkpt>
      <trkpt lat="45.22752" lon="6.20329">
        <ele>2068.391</ele>
        <time>2022-07-17T08:10:29Z</time>
      </trkpt>
      <trkpt lat="45.22752" lon="6.20329">
        <ele>2068.378</ele>
        <time>2022-07-17T08:10:34Z</time>
      </trkpt>
      <trkpt lat="45.22752" lon="6.20329">
        <ele>2068.382</ele>
        <time>2022-07-17T08:10:39Z</time>
      </trkpt>
      <trkpt lat="45.22752" lon="6.20329">
        <ele>2068.377</ele>
        <time>2022-07-17T08:10:44Z</time>
      </trkpt>
      <trkpt lat="45.22752" lon="6.20329">
        <ele>2068.379</ele>
        <time>2022-07-17T08:10:49Z</time>
      </trkpt>
      <trkpt lat="45.22752" lon="6.20329">
        <ele>2068.382</ele>
        <time>2022-07-17T08:10:54Z</time>
      </trkpt>
      <trkpt lat="45.22752" lon="6.20329">
        <ele>2068.375</ele>
        <time>2022-07-17T08:10:59Z</time>
      </trkpt>
      <trkpt lat="45.22752" lon="6.20329">
        <ele>2068.363</ele>
        <time>2022-07-17T08:11:04Z</time>
      </trkpt>
      <trkpt lat="45.22752" lon="6.20329">
        <ele>2068.367</ele>
        <time>2022-07-17T08:11:09Z</time>
      </trkpt>
      <trkpt lat="45.22752" lon="6.20329">
        <ele>2068.363</ele>
        <time>2022-07-17T08:11:14Z</time>
      </trkpt>
      <trkpt lat="45.22752" lon="6.20329">
        <ele>2068.362</ele>
        <time>2022-07-17T08:11:19Z</time>
      </trkpt>
      <trkpt lat="45.22752" lon="6.20329">
        <ele>2068.373</ele>
        <time>2022-07-17T08:11:24Z</time>
      </trkpt>
      <trkpt lat="45.22752" lon="6.20329">
        <ele>2068.37</ele>
        <time>2022-07-17T08:11:29Z</time>
      </trkpt>
      <trkpt lat="45.22752" lon="6.20329">
        <ele>2068.37</ele>
        <time>2022-07-17T08:11:34Z</time>
      </trkpt>
      <trkpt lat="45.22752" lon="6.20329">
        <ele>2068.368</ele>
        <time>2022-07-17T08:11:39Z</time>
      </trkpt>
      <trkpt lat="45.22752" lon="6.20329">
        <ele>2068.363</ele>
        <time>2022-07-17T08:11:44Z</time>
      </trkpt>
      <trkpt lat="45.22752" lon="6.20329">
        <ele>2068.352</ele>
        <time>2022-07-17T08:11:49Z</time>
      </trkpt>
      <trkpt lat="45.22752" lon="6.20329">
        <ele>2068.356</ele>
        <time>2022-07-17T08:11:54Z</time>
      </trkpt>
      <trkpt lat="45.22752" lon="6.20329">
        <ele>2068.354</ele>
        <time>2022-07-17T08:11:59Z</time>
      </trkpt>
      <trkpt lat="45.22752" lon="6.20329">
        <ele>2068.358</ele>
        <time>2022-07-17T08:12:04Z</time>
      </trkpt>
      <trkpt lat="45.22752" lon="6.20329">
        <ele>2068.353</ele>
        <time>2022-07-17T08:12:09Z</time>
      </trkpt>
      <trkpt lat="45.22752" lon="6.20329">
        <ele>2068.346</ele>
        <time>2022-07-17T08:12:14Z</time>
      </trkpt>
      <trkpt lat="45.22752" lon="6.20329">
        <ele>2068.337</ele>
        <time>2022-07-17T08:12:19Z</time>
      </trkpt>
      <trkpt lat="45.22752" lon="6.20329">
        <ele>2068.332</ele>
        <time>2022-07-17T08:12:24Z</time>
      </trkpt>
      <trkpt lat="45.22752" lon="6.20329">
        <ele>2068.33</ele>
        <time>2022-07-17T08:12:29Z</time>
      </trkpt>
      <trkpt lat="45.22752" lon="6.20329">
        <ele>2068.324</ele>
        <time>2022-07-17T08:12:34Z</time>
      </trkpt>
      <trkpt lat="45.22752" lon="6.20329">
        <ele>2068.326</ele>
        <time>2022-07-17T08:12:39Z</time>
      </trkpt>
      <trkpt lat="45.22752" lon="6.20329">
        <ele>2068.323</ele>
        <time>2022-07-17T08:12:44Z</time>
      </trkpt>
      <trkpt lat="45.22752" lon="6.20329">
        <ele>2068.319</ele>
        <time>2022-07-17T08:12:49Z</time>
      </trkpt>
      <trkpt lat="45.22752" lon="6.20329">
        <ele>2068.322</ele>
        <time>2022-07-17T08:12:54Z</time>
      </trkpt>
      <trkpt lat="45.22752" lon="6.20329">
        <ele>2068.32</ele>
        <time>2022-07-17T08:12:59Z</time>
      </trkpt>
      <trkpt lat="45.22752" lon="6.20329">
        <ele>2068.305</ele>
        <time>2022-07-17T08:13:04Z</time>
      </trkpt>
      <trkpt lat="45.22752" lon="6.20329">
        <ele>2068.295</ele>
        <time>2022-07-17T08:13:09Z</time>
      </trkpt>
      <trkpt lat="45.22752" lon="6.20329">
        <ele>2068.291</ele>
        <time>2022-07-17T08:13:14Z</time>
      </trkpt>
      <trkpt lat="45.22752" lon="6.20329">
        <ele>2068.276</ele>
        <time>2022-07-17T08:13:19Z</time>
      </trkpt>
      <trkpt lat="45.22752" lon="6.20329">
        <ele>2068.265</ele>
        <time>2022-07-17T08:13:24Z</time>
      </trkpt>
      <trkpt lat="45.22752" lon="6.20329">
        <ele>2068.259</ele>
        <time>2022-07-17T08:13:29Z</time>
      </trkpt>
      <trkpt lat="45.22752" lon="6.20329">
        <ele>2068.26</ele>
        <time>2022-07-17T08:13:34Z</time>
      </trkpt>
      <trkpt lat="45.22752" lon="6.20329">
        <ele>2068.261</ele>
        <time>2022-07-17T08:13:39Z</time>
      </trkpt>
      <trkpt lat="45.22752" lon="6.20329">
        <ele>2068.259</ele>
        <time>2022-07-17T08:13:44Z</time>
      </trkpt>
      <trkpt lat="45.22752" lon="6.20329">
        <ele>2068.257</ele>
        <time>2022-07-17T08:13:49Z</time>
      </trkpt>
      <trkpt lat="45.22752" lon="6.20329">
        <ele>2068.259</ele>
        <time>2022-07-17T08:13:54Z</time>
      </trkpt>
      <trkpt lat="45.22752" lon="6.20329">
        <ele>2068.261</ele>
        <time>2022-07-17T08:13:59Z</time>
      </trkpt>
      <trkpt lat="45.22752" lon="6.20329">
        <ele>2068.259</ele>
        <time>2022-07-17T08:14:04Z</time>
      </trkpt>
      <trkpt lat="45.22752" lon="6.20329">
        <ele>2068.259</ele>
        <time>2022-07-17T08:14:09Z</time>
      </trkpt>
      <trkpt lat="45.22752" lon="6.20329">
        <ele>2068.257</ele>
        <time>2022-07-17T08:14:14Z</time>
      </trkpt>
      <trkpt lat="45.22752" lon="6.20329">
        <ele>2068.256</ele>
        <time>2022-07-17T08:14:19Z</time>
      </trkpt>
      <trkpt lat="45.22752" lon="6.20329">
        <ele>2068.255</ele>
        <time>2022-07-17T08:14:24Z</time>
      </trkpt>
      <trkpt lat="45.22752" lon="6.20329">
        <ele>2068.254</ele>
        <time>2022-07-17T08:14:29Z</time>
      </trkpt>
      <trkpt lat="45.22752" lon="6.20329">
        <ele>2068.252</ele>
        <time>2022-07-17T08:14:34Z</time>
      </trkpt>
      <trkpt lat="45.22752" lon="6.20329">
        <ele>2068.247</ele>
        <time>2022-07-17T08:14:39Z</time>
      </trkpt>
      <trkpt lat="45.22752" lon="6.20329">
        <ele>2068.244</ele>
        <time>2022-07-17T08:14:44Z</time>
      </trkpt>
      <trkpt lat="45.22752" lon="6.20329">
        <ele>2068.241</ele>
        <time>2022-07-17T08:14:49Z</time>
      </trkpt>
      <trkpt lat="45.22752" lon="6.20329">
        <ele>2068.241</ele>
        <time>2022-07-17T08:14:54Z</time>
      </trkpt>
      <trkpt lat="45.22752" lon="6.20329">
        <ele>2067.897</ele>
        <time>2022-07-17T08:14:59Z</time>
      </trkpt>
      <trkpt lat="45.22752" lon="6.20329">
        <ele>2067.904</ele>
        <time>2022-07-17T08:15:04Z</time>
      </trkpt>
      <trkpt lat="45.22752" lon="6.20329">
        <ele>2067.628</ele>
        <time>2022-07-17T08:15:09Z</time>
      </trkpt>
      <trkpt lat="45.22752" lon="6.20329">
        <ele>2067.617</ele>
        <time>2022-07-17T08:15:14Z</time>
      </trkpt>
      <trkpt lat="45.22752" lon="6.20329">
        <ele>2067.599</ele>
        <time>2022-07-17T08:15:19Z</time>
      </trkpt>
      <trkpt lat="45.22752" lon="6.20329">
        <ele>2067.679</ele>
        <time>2022-07-17T08:15:24Z</time>
      </trkpt>
      <trkpt lat="45.22752" lon="6.20328">
        <ele>2067.761</ele>
        <time>2022-07-17T08:15:29Z</time>
      </trkpt>
      <trkpt lat="45.22752" lon="6.20328">
        <ele>2067.762</ele>
        <time>2022-07-17T08:15:34Z</time>
      </trkpt>
      <trkpt lat="45.22752" lon="6.20328">
        <ele>2067.763</ele>
        <time>2022-07-17T08:15:39Z</time>
      </trkpt>
      <trkpt lat="45.22752" lon="6.20328">
        <ele>2067.763</ele>
        <time>2022-07-17T08:15:44Z</time>
      </trkpt>
      <trkpt lat="45.22752" lon="6.20328">
        <ele>2067.765</ele>
        <time>2022-07-17T08:15:49Z</time>
      </trkpt>
      <trkpt lat="45.22752" lon="6.20328">
        <ele>2067.765</ele>
        <time>2022-07-17T08:15:54Z</time>
      </trkpt>
      <trkpt lat="45.22752" lon="6.20328">
        <ele>2067.767</ele>
        <time>2022-07-17T08:15:59Z</time>
      </trkpt>
      <trkpt lat="45.22752" lon="6.20328">
        <ele>2067.766</ele>
        <time>2022-07-17T08:16:04Z</time>
      </trkpt>
      <trkpt lat="45.22752" lon="6.20328">
        <ele>2067.766</ele>
        <time>2022-07-17T08:16:09Z</time>
      </trkpt>
      <trkpt lat="45.22751" lon="6.20331">
        <ele>2068.6</ele>
        <time>2022-07-17T08:16:14Z</time>
      </trkpt>
      <trkpt lat="45.22751" lon="6.2033">
        <ele>2068.297</ele>
        <time>2022-07-17T08:16:19Z</time>
      </trkpt>
      <trkpt lat="45.22749" lon="6.20327">
        <ele>2068.266</ele>
        <time>2022-07-17T08:16:24Z</time>
      </trkpt>
      <trkpt lat="45.22746" lon="6.20325">
        <ele>2068.455</ele>
        <time>2022-07-17T08:16:29Z</time>
      </trkpt>
      <trkpt lat="45.22747" lon="6.20327">
        <ele>2066.741</ele>
        <time>2022-07-17T08:16:34Z</time>
      </trkpt>
      <trkpt lat="45.22747" lon="6.20328">
        <ele>2066.591</ele>
        <time>2022-07-17T08:16:39Z</time>
      </trkpt>
      <trkpt lat="45.22748" lon="6.2033">
        <ele>2067.234</ele>
        <time>2022-07-17T08:16:44Z</time>
      </trkpt>
      <trkpt lat="45.22748" lon="6.2033">
        <ele>2067.198</ele>
        <time>2022-07-17T08:16:49Z</time>
      </trkpt>
      <trkpt lat="45.22748" lon="6.2033">
        <ele>2067.196</ele>
        <time>2022-07-17T08:16:54Z</time>
      </trkpt>
      <trkpt lat="45.22748" lon="6.2033">
        <ele>2067.193</ele>
        <time>2022-07-17T08:16:59Z</time>
      </trkpt>
      <trkpt lat="45.22748" lon="6.2033">
        <ele>2067.196</ele>
        <time>2022-07-17T08:17:04Z</time>
      </trkpt>
      <trkpt lat="45.22748" lon="6.2033">
        <ele>2067.193</ele>
        <time>2022-07-17T08:17:09Z</time>
      </trkpt>
      <trkpt lat="45.22748" lon="6.2033">
        <ele>2067.185</ele>
        <time>2022-07-17T08:17:14Z</time>
      </trkpt>
      <trkpt lat="45.22748" lon="6.2033">
        <ele>2067.181</ele>
        <time>2022-07-17T08:17:19Z</time>
      </trkpt>
      <trkpt lat="45.22748" lon="6.2033">
        <ele>2067.182</ele>
        <time>2022-07-17T08:17:24Z</time>
      </trkpt>
      <trkpt lat="45.22748" lon="6.2033">
        <ele>2067.184</ele>
        <time>2022-07-17T08:17:29Z</time>
      </trkpt>
      <trkpt lat="45.22748" lon="6.20329">
        <ele>2067.187</ele>
        <time>2022-07-17T08:17:34Z</time>
      </trkpt>
      <trkpt lat="45.22748" lon="6.20329">
        <ele>2067.182</ele>
        <time>2022-07-17T08:17:39Z</time>
      </trkpt>
      <trkpt lat="45.22748" lon="6.20329">
        <ele>2067.173</ele>
        <time>2022-07-17T08:17:44Z</time>
      </trkpt>
      <trkpt lat="45.22748" lon="6.20329">
        <ele>2067.167</ele>
        <time>2022-07-17T08:17:49Z</time>
      </trkpt>
      <trkpt lat="45.22748" lon="6.20329">
        <ele>2067.163</ele>
        <time>2022-07-17T08:17:54Z</time>
      </trkpt>
      <trkpt lat="45.22748" lon="6.2033">
        <ele>2066.896</ele>
        <time>2022-07-17T08:17:59Z</time>
      </trkpt>
      <trkpt lat="45.22747" lon="6.2033">
        <ele>2066.072</ele>
        <time>2022-07-17T08:18:04Z</time>
      </trkpt>
      <trkpt lat="45.22747" lon="6.2033">
        <ele>2066.053</ele>
        <time>2022-07-17T08:18:09Z</time>
      </trkpt>
      <trkpt lat="45.22746" lon="6.2033">
        <ele>2066.577</ele>
        <time>2022-07-17T08:18:14Z</time>
      </trkpt>
      <trkpt lat="45.22746" lon="6.20331">
        <ele>2065.474</ele>
        <time>2022-07-17T08:18:19Z</time>
      </trkpt>
      <trkpt lat="45.22749" lon="6.20334">
        <ele>2064.708</ele>
        <time>2022-07-17T08:18:24Z</time>
      </trkpt>
      <trkpt lat="45.2275" lon="6.20333">
        <ele>2064.399</ele>
        <time>2022-07-17T08:18:29Z</time>
      </trkpt>
      <trkpt lat="45.22746" lon="6.20332">
        <ele>2065.353</ele>
        <time>2022-07-17T08:18:34Z</time>
      </trkpt>
      <trkpt lat="45.22746" lon="6.20331">
        <ele>2064.365</ele>
        <time>2022-07-17T08:18:39Z</time>
      </trkpt>
      <trkpt lat="45.22746" lon="6.20328">
        <ele>2064.265</ele>
        <time>2022-07-17T08:18:44Z</time>
      </trkpt>
      <trkpt lat="45.22746" lon="6.20328">
        <ele>2064.266</ele>
        <time>2022-07-17T08:18:49Z</time>
      </trkpt>
      <trkpt lat="45.22746" lon="6.20328">
        <ele>2064.261</ele>
        <time>2022-07-17T08:18:54Z</time>
      </trkpt>
      <trkpt lat="45.22746" lon="6.20326">
        <ele>2064.825</ele>
        <time>2022-07-17T08:18:59Z</time>
      </trkpt>
      <trkpt lat="45.22746" lon="6.20322">
        <ele>2065.03</ele>
        <time>2022-07-17T08:19:04Z</time>
      </trkpt>
      <trkpt lat="45.22746" lon="6.20322">
        <ele>2065.04</ele>
        <time>2022-07-17T08:19:09Z</time>
      </trkpt>
      <trkpt lat="45.22746" lon="6.20322">
        <ele>2065.037</ele>
        <time>2022-07-17T08:19:14Z</time>
      </trkpt>
      <trkpt lat="45.22746" lon="6.20322">
        <ele>2065.044</ele>
        <time>2022-07-17T08:19:19Z</time>
      </trkpt>
      <trkpt lat="45.22746" lon="6.20322">
        <ele>2065.04</ele>
        <time>2022-07-17T08:19:24Z</time>
      </trkpt>
      <trkpt lat="45.22746" lon="6.20322">
        <ele>2065.032</ele>
        <time>2022-07-17T08:19:29Z</time>
      </trkpt>
      <trkpt lat="45.22746" lon="6.20322">
        <ele>2065.032</ele>
        <time>2022-07-17T08:19:34Z</time>
      </trkpt>
      <trkpt lat="45.22746" lon="6.20322">
        <ele>2065.032</ele>
        <time>2022-07-17T08:19:39Z</time>
      </trkpt>
      <trkpt lat="45.22746" lon="6.20322">
        <ele>2065.034</ele>
        <time>2022-07-17T08:19:44Z</time>
      </trkpt>
      <trkpt lat="45.22746" lon="6.20322">
        <ele>2065.038</ele>
        <time>2022-07-17T08:19:49Z</time>
      </trkpt>
      <trkpt lat="45.22746" lon="6.20322">
        <ele>2065.041</ele>
        <time>2022-07-17T08:19:54Z</time>
      </trkpt>
      <trkpt lat="45.22745" lon="6.20322">
        <ele>2065.045</ele>
        <time>2022-07-17T08:19:59Z</time>
      </trkpt>
      <trkpt lat="45.22745" lon="6.20322">
        <ele>2065.053</ele>
        <time>2022-07-17T08:20:04Z</time>
      </trkpt>
      <trkpt lat="45.22745" lon="6.20322">
        <ele>2065.049</ele>
        <time>2022-07-17T08:20:09Z</time>
      </trkpt>
      <trkpt lat="45.22745" lon="6.20322">
        <ele>2065.048</ele>
        <time>2022-07-17T08:20:14Z</time>
      </trkpt>
      <trkpt lat="45.22745" lon="6.20322">
        <ele>2065.053</ele>
        <time>2022-07-17T08:20:19Z</time>
      </trkpt>
      <trkpt lat="45.22745" lon="6.20322">
        <ele>2065.061</ele>
        <time>2022-07-17T08:20:24Z</time>
      </trkpt>
      <trkpt lat="45.22745" lon="6.20322">
        <ele>2065.064</ele>
        <time>2022-07-17T08:20:29Z</time>
      </trkpt>
      <trkpt lat="45.22745" lon="6.20322">
        <ele>2065.066</ele>
        <time>2022-07-17T08:20:34Z</time>
      </trkpt>
      <trkpt lat="45.22745" lon="6.20322">
        <ele>2065.064</ele>
        <time>2022-07-17T08:20:39Z</time>
      </trkpt>
      <trkpt lat="45.22745" lon="6.20322">
        <ele>2065.189</ele>
        <time>2022-07-17T08:20:44Z</time>
      </trkpt>
      <trkpt lat="45.22745" lon="6.20322">
        <ele>2065.195</ele>
        <time>2022-07-17T08:20:49Z</time>
      </trkpt>
      <trkpt lat="45.22745" lon="6.20322">
        <ele>2065.201</ele>
        <time>2022-07-17T08:20:54Z</time>
      </trkpt>
      <trkpt lat="45.22745" lon="6.20323">
        <ele>2065.143</ele>
        <time>2022-07-17T08:20:59Z</time>
      </trkpt>
      <trkpt lat="45.22745" lon="6.20322">
        <ele>2065.148</ele>
        <time>2022-07-17T08:21:04Z</time>
      </trkpt>
      <trkpt lat="45.22745" lon="6.20322">
        <ele>2065.145</ele>
        <time>2022-07-17T08:21:09Z</time>
      </trkpt>
      <trkpt lat="45.22745" lon="6.20322">
        <ele>2065.142</ele>
        <time>2022-07-17T08:21:14Z</time>
      </trkpt>
      <trkpt lat="45.22743" lon="6.20319">
        <ele>2065.218</ele>
        <time>2022-07-17T08:21:19Z</time>
      </trkpt>
      <trkpt lat="45.22744" lon="6.20303">
        <ele>2064.105</ele>
        <time>2022-07-17T08:21:24Z</time>
      </trkpt>
      <trkpt lat="45.22753" lon="6.20285">
        <ele>2064.976</ele>
        <time>2022-07-17T08:21:29Z</time>
      </trkpt>
      <trkpt lat="45.22762" lon="6.20266">
        <ele>2062.807</ele>
        <time>2022-07-17T08:21:34Z</time>
      </trkpt>
      <trkpt lat="45.22757" lon="6.20252">
        <ele>2061.629</ele>
        <time>2022-07-17T08:21:39Z</time>
      </trkpt>
      <trkpt lat="45.22749" lon="6.2024">
        <ele>2062.277</ele>
        <time>2022-07-17T08:21:44Z</time>
      </trkpt>
      <trkpt lat="45.2274" lon="6.20233">
        <ele>2063.248</ele>
        <time>2022-07-17T08:21:49Z</time>
      </trkpt>
      <trkpt lat="45.22733" lon="6.20228">
        <ele>2064.303</ele>
        <time>2022-07-17T08:21:54Z</time>
      </trkpt>
      <trkpt lat="45.22727" lon="6.20222">
        <ele>2065.33</ele>
        <time>2022-07-17T08:21:59Z</time>
      </trkpt>
      <trkpt lat="45.22722" lon="6.20217">
        <ele>2065.964</ele>
        <time>2022-07-17T08:22:04Z</time>
      </trkpt>
      <trkpt lat="45.22717" lon="6.2021">
        <ele>2065.957</ele>
        <time>2022-07-17T08:22:09Z</time>
      </trkpt>
      <trkpt lat="45.22713" lon="6.20201">
        <ele>2066.543</ele>
        <time>2022-07-17T08:22:14Z</time>
      </trkpt>
      <trkpt lat="45.2271" lon="6.20191">
        <ele>2067.195</ele>
        <time>2022-07-17T08:22:19Z</time>
      </trkpt>
      <trkpt lat="45.22706" lon="6.20182">
        <ele>2068.123</ele>
        <time>2022-07-17T08:22:24Z</time>
      </trkpt>
      <trkpt lat="45.22702" lon="6.20175">
        <ele>2068.842</ele>
        <time>2022-07-17T08:22:29Z</time>
      </trkpt>
      <trkpt lat="45.22698" lon="6.20166">
        <ele>2069.487</ele>
        <time>2022-07-17T08:22:34Z</time>
      </trkpt>
      <trkpt lat="45.22692" lon="6.20158">
        <ele>2069.396</ele>
        <time>2022-07-17T08:22:39Z</time>
      </trkpt>
      <trkpt lat="45.22683" lon="6.20146">
        <ele>2067.315</ele>
        <time>2022-07-17T08:22:44Z</time>
      </trkpt>
      <trkpt lat="45.22684" lon="6.20128">
        <ele>2058.118</ele>
        <time>2022-07-17T08:22:49Z</time>
      </trkpt>
      <trkpt lat="45.22686" lon="6.20111">
        <ele>2056.249</ele>
        <time>2022-07-17T08:22:54Z</time>
      </trkpt>
      <trkpt lat="45.22688" lon="6.20102">
        <ele>2056.884</ele>
        <time>2022-07-17T08:22:59Z</time>
      </trkpt>
      <trkpt lat="45.22694" lon="6.20094">
        <ele>2054.352</ele>
        <time>2022-07-17T08:23:04Z</time>
      </trkpt>
      <trkpt lat="45.22697" lon="6.20079">
        <ele>2057.659</ele>
        <time>2022-07-17T08:23:09Z</time>
      </trkpt>
      <trkpt lat="45.22699" lon="6.20065">
        <ele>2060.747</ele>
        <time>2022-07-17T08:23:14Z</time>
      </trkpt>
      <trkpt lat="45.22699" lon="6.20053">
        <ele>2063.65</ele>
        <time>2022-07-17T08:23:19Z</time>
      </trkpt>
      <trkpt lat="45.22698" lon="6.20041">
        <ele>2065.695</ele>
        <time>2022-07-17T08:23:24Z</time>
      </trkpt>
      <trkpt lat="45.22697" lon="6.20028">
        <ele>2068.897</ele>
        <time>2022-07-17T08:23:29Z</time>
      </trkpt>
      <trkpt lat="45.22696" lon="6.20017">
        <ele>2070.683</ele>
        <time>2022-07-17T08:23:34Z</time>
      </trkpt>
      <trkpt lat="45.22695" lon="6.20008">
        <ele>2072.002</ele>
        <time>2022-07-17T08:23:39Z</time>
      </trkpt>
      <trkpt lat="45.22695" lon="6.19999">
        <ele>2073.406</ele>
        <time>2022-07-17T08:23:44Z</time>
      </trkpt>
      <trkpt lat="45.22697" lon="6.19991">
        <ele>2074.598</ele>
        <time>2022-07-17T08:23:49Z</time>
      </trkpt>
      <trkpt lat="45.22699" lon="6.19984">
        <ele>2075.745</ele>
        <time>2022-07-17T08:23:54Z</time>
      </trkpt>
      <trkpt lat="45.22701" lon="6.19975">
        <ele>2076.658</ele>
        <time>2022-07-17T08:23:59Z</time>
      </trkpt>
      <trkpt lat="45.22701" lon="6.19966">
        <ele>2077.53</ele>
        <time>2022-07-17T08:24:04Z</time>
      </trkpt>
      <trkpt lat="45.227" lon="6.19957">
        <ele>2078.756</ele>
        <time>2022-07-17T08:24:09Z</time>
      </trkpt>
      <trkpt lat="45.227" lon="6.19945">
        <ele>2079.81</ele>
        <time>2022-07-17T08:24:14Z</time>
      </trkpt>
      <trkpt lat="45.22704" lon="6.19934">
        <ele>2075.92</ele>
        <time>2022-07-17T08:24:19Z</time>
      </trkpt>
      <trkpt lat="45.22709" lon="6.19921">
        <ele>2074.26</ele>
        <time>2022-07-17T08:24:24Z</time>
      </trkpt>
      <trkpt lat="45.22712" lon="6.19911">
        <ele>2072.863</ele>
        <time>2022-07-17T08:24:29Z</time>
      </trkpt>
      <trkpt lat="45.22717" lon="6.19902">
        <ele>2067.148</ele>
        <time>2022-07-17T08:24:34Z</time>
      </trkpt>
      <trkpt lat="45.22724" lon="6.19889">
        <ele>2060.598</ele>
        <time>2022-07-17T08:24:39Z</time>
      </trkpt>
      <trkpt lat="45.22731" lon="6.19875">
        <ele>2056.146</ele>
        <time>2022-07-17T08:24:44Z</time>
      </trkpt>
      <trkpt lat="45.22738" lon="6.19862">
        <ele>2048.014</ele>
        <time>2022-07-17T08:24:49Z</time>
      </trkpt>
      <trkpt lat="45.22744" lon="6.19848">
        <ele>2038.586</ele>
        <time>2022-07-17T08:24:54Z</time>
      </trkpt>
      <trkpt lat="45.22753" lon="6.19837">
        <ele>2029.836</ele>
        <time>2022-07-17T08:24:59Z</time>
      </trkpt>
      <trkpt lat="45.22761" lon="6.19825">
        <ele>2024.697</ele>
        <time>2022-07-17T08:25:04Z</time>
      </trkpt>
      <trkpt lat="45.22768" lon="6.1981">
        <ele>2024.15</ele>
        <time>2022-07-17T08:25:09Z</time>
      </trkpt>
      <trkpt lat="45.22773" lon="6.19794">
        <ele>2022.846</ele>
        <time>2022-07-17T08:25:14Z</time>
      </trkpt>
      <trkpt lat="45.22778" lon="6.19783">
        <ele>2021.793</ele>
        <time>2022-07-17T08:25:19Z</time>
      </trkpt>
      <trkpt lat="45.2278" lon="6.1977">
        <ele>2018.283</ele>
        <time>2022-07-17T08:25:24Z</time>
      </trkpt>
      <trkpt lat="45.22781" lon="6.19756">
        <ele>2013.027</ele>
        <time>2022-07-17T08:25:29Z</time>
      </trkpt>
      <trkpt lat="45.22783" lon="6.19736">
        <ele>2010.318</ele>
        <time>2022-07-17T08:25:34Z</time>
      </trkpt>
      <trkpt lat="45.22785" lon="6.19722">
        <ele>2002.126</ele>
        <time>2022-07-17T08:25:39Z</time>
      </trkpt>
      <trkpt lat="45.22784" lon="6.19708">
        <ele>1993.803</ele>
        <time>2022-07-17T08:25:44Z</time>
      </trkpt>
      <trkpt lat="45.22777" lon="6.19677">
        <ele>1993.45</ele>
        <time>2022-07-17T08:25:49Z</time>
      </trkpt>
      <trkpt lat="45.2279" lon="6.19509">
        <ele>2075.4</ele>
        <time>2022-07-17T08:25:54Z</time>
      </trkpt>
      <trkpt lat="45.22774" lon="6.19484">
        <ele>2074.359</ele>
        <time>2022-07-17T08:25:59Z</time>
      </trkpt>
      <trkpt lat="45.22756" lon="6.1946">
        <ele>2072.821</ele>
        <time>2022-07-17T08:26:04Z</time>
      </trkpt>
      <trkpt lat="45.22737" lon="6.19441">
        <ele>2073.453</ele>
        <time>2022-07-17T08:26:09Z</time>
      </trkpt>
      <trkpt lat="45.22716" lon="6.19419">
        <ele>2072.843</ele>
        <time>2022-07-17T08:26:14Z</time>
      </trkpt>
      <trkpt lat="45.22697" lon="6.19392">
        <ele>2071.562</ele>
        <time>2022-07-17T08:26:19Z</time>
      </trkpt>
      <trkpt lat="45.22685" lon="6.19365">
        <ele>2072.188</ele>
        <time>2022-07-17T08:26:24Z</time>
      </trkpt>
      <trkpt lat="45.22684" lon="6.19342">
        <ele>2072.264</ele>
        <time>2022-07-17T08:26:29Z</time>
      </trkpt>
      <trkpt lat="45.2269" lon="6.19323">
        <ele>2072.072</ele>
        <time>2022-07-17T08:26:34Z</time>
      </trkpt>
      <trkpt lat="45.227" lon="6.19319">
        <ele>2072.538</ele>
        <time>2022-07-17T08:26:39Z</time>
      </trkpt>
      <trkpt lat="45.22708" lon="6.19315">
        <ele>2073.452</ele>
        <time>2022-07-17T08:26:44Z</time>
      </trkpt>
      <trkpt lat="45.22714" lon="6.19307">
        <ele>2073.943</ele>
        <time>2022-07-17T08:26:49Z</time>
      </trkpt>
      <trkpt lat="45.2272" lon="6.19297">
        <ele>2076.066</ele>
        <time>2022-07-17T08:26:54Z</time>
      </trkpt>
      <trkpt lat="45.22725" lon="6.19289">
        <ele>2077.453</ele>
        <time>2022-07-17T08:26:59Z</time>
      </trkpt>
      <trkpt lat="45.2273" lon="6.19282">
        <ele>2078.769</ele>
        <time>2022-07-17T08:27:04Z</time>
      </trkpt>
      <trkpt lat="45.22735" lon="6.19275">
        <ele>2079.544</ele>
        <time>2022-07-17T08:27:09Z</time>
      </trkpt>
      <trkpt lat="45.22739" lon="6.19269">
        <ele>2080.492</ele>
        <time>2022-07-17T08:27:14Z</time>
      </trkpt>
      <trkpt lat="45.22743" lon="6.19262">
        <ele>2081.473</ele>
        <time>2022-07-17T08:27:19Z</time>
      </trkpt>
      <trkpt lat="45.22748" lon="6.19256">
        <ele>2082.165</ele>
        <time>2022-07-17T08:27:24Z</time>
      </trkpt>
      <trkpt lat="45.22752" lon="6.19249">
        <ele>2082.789</ele>
        <time>2022-07-17T08:27:29Z</time>
      </trkpt>
      <trkpt lat="45.22753" lon="6.1924">
        <ele>2084.123</ele>
        <time>2022-07-17T08:27:34Z</time>
      </trkpt>
      <trkpt lat="45.22751" lon="6.19233">
        <ele>2085.03</ele>
        <time>2022-07-17T08:27:39Z</time>
      </trkpt>
      <trkpt lat="45.22749" lon="6.19225">
        <ele>2085.541</ele>
        <time>2022-07-17T08:27:44Z</time>
      </trkpt>
      <trkpt lat="45.22746" lon="6.19218">
        <ele>2086.356</ele>
        <time>2022-07-17T08:27:49Z</time>
      </trkpt>
      <trkpt lat="45.22743" lon="6.19211">
        <ele>2087.592</ele>
        <time>2022-07-17T08:27:54Z</time>
      </trkpt>
      <trkpt lat="45.2274" lon="6.19206">
        <ele>2088.462</ele>
        <time>2022-07-17T08:27:59Z</time>
      </trkpt>
      <trkpt lat="45.22736" lon="6.19199">
        <ele>2089.617</ele>
        <time>2022-07-17T08:28:04Z</time>
      </trkpt>
      <trkpt lat="45.22732" lon="6.19193">
        <ele>2091.055</ele>
        <time>2022-07-17T08:28:09Z</time>
      </trkpt>
      <trkpt lat="45.22727" lon="6.19187">
        <ele>2092.245</ele>
        <time>2022-07-17T08:28:14Z</time>
      </trkpt>
      <trkpt lat="45.22723" lon="6.1918">
        <ele>2093.234</ele>
        <time>2022-07-17T08:28:19Z</time>
      </trkpt>
      <trkpt lat="45.22718" lon="6.19174">
        <ele>2093.46</ele>
        <time>2022-07-17T08:28:24Z</time>
      </trkpt>
      <trkpt lat="45.22713" lon="6.19168">
        <ele>2094.744</ele>
        <time>2022-07-17T08:28:29Z</time>
      </trkpt>
      <trkpt lat="45.22709" lon="6.19162">
        <ele>2095.682</ele>
        <time>2022-07-17T08:28:34Z</time>
      </trkpt>
      <trkpt lat="45.22703" lon="6.19154">
        <ele>2096.566</ele>
        <time>2022-07-17T08:28:39Z</time>
      </trkpt>
      <trkpt lat="45.22698" lon="6.19148">
        <ele>2097.627</ele>
        <time>2022-07-17T08:28:44Z</time>
      </trkpt>
      <trkpt lat="45.22694" lon="6.19141">
        <ele>2098.621</ele>
        <time>2022-07-17T08:28:49Z</time>
      </trkpt>
      <trkpt lat="45.22691" lon="6.19132">
        <ele>2099.17</ele>
        <time>2022-07-17T08:28:54Z</time>
      </trkpt>
      <trkpt lat="45.2269" lon="6.19124">
        <ele>2099.534</ele>
        <time>2022-07-17T08:28:59Z</time>
      </trkpt>
      <trkpt lat="45.22689" lon="6.19114">
        <ele>2099.947</ele>
        <time>2022-07-17T08:29:04Z</time>
      </trkpt>
      <trkpt lat="45.22688" lon="6.19103">
        <ele>2100.181</ele>
        <time>2022-07-17T08:29:09Z</time>
      </trkpt>
      <trkpt lat="45.22687" lon="6.19093">
        <ele>2101.297</ele>
        <time>2022-07-17T08:29:14Z</time>
      </trkpt>
      <trkpt lat="45.22684" lon="6.19083">
        <ele>2103.4</ele>
        <time>2022-07-17T08:29:19Z</time>
      </trkpt>
      <trkpt lat="45.22679" lon="6.19074">
        <ele>2104.969</ele>
        <time>2022-07-17T08:29:24Z</time>
      </trkpt>
      <trkpt lat="45.22673" lon="6.19067">
        <ele>2105.703</ele>
        <time>2022-07-17T08:29:29Z</time>
      </trkpt>
      <trkpt lat="45.22668" lon="6.19062">
        <ele>2105.891</ele>
        <time>2022-07-17T08:29:34Z</time>
      </trkpt>
      <trkpt lat="45.22664" lon="6.19056">
        <ele>2106.369</ele>
        <time>2022-07-17T08:29:39Z</time>
      </trkpt>
      <trkpt lat="45.2266" lon="6.19048">
        <ele>2107.668</ele>
        <time>2022-07-17T08:29:44Z</time>
      </trkpt>
      <trkpt lat="45.22656" lon="6.19041">
        <ele>2109.634</ele>
        <time>2022-07-17T08:29:49Z</time>
      </trkpt>
      <trkpt lat="45.22652" lon="6.19035">
        <ele>2111.075</ele>
        <time>2022-07-17T08:29:54Z</time>
      </trkpt>
      <trkpt lat="45.22647" lon="6.19036">
        <ele>2111.257</ele>
        <time>2022-07-17T08:29:59Z</time>
      </trkpt>
      <trkpt lat="45.22644" lon="6.19044">
        <ele>2113.153</ele>
        <time>2022-07-17T08:30:04Z</time>
      </trkpt>
      <trkpt lat="45.22644" lon="6.19053">
        <ele>2113.602</ele>
        <time>2022-07-17T08:30:09Z</time>
      </trkpt>
      <trkpt lat="45.22645" lon="6.19063">
        <ele>2114.173</ele>
        <time>2022-07-17T08:30:14Z</time>
      </trkpt>
      <trkpt lat="45.22646" lon="6.19073">
        <ele>2114.615</ele>
        <time>2022-07-17T08:30:19Z</time>
      </trkpt>
      <trkpt lat="45.22645" lon="6.19082">
        <ele>2115.114</ele>
        <time>2022-07-17T08:30:24Z</time>
      </trkpt>
      <trkpt lat="45.22643" lon="6.1909">
        <ele>2115.425</ele>
        <time>2022-07-17T08:30:29Z</time>
      </trkpt>
      <trkpt lat="45.22641" lon="6.191">
        <ele>2115.833</ele>
        <time>2022-07-17T08:30:34Z</time>
      </trkpt>
      <trkpt lat="45.2264" lon="6.19106">
        <ele>2116.624</ele>
        <time>2022-07-17T08:30:39Z</time>
      </trkpt>
      <trkpt lat="45.22639" lon="6.19113">
        <ele>2118.332</ele>
        <time>2022-07-17T08:30:44Z</time>
      </trkpt>
      <trkpt lat="45.22637" lon="6.19119">
        <ele>2119.575</ele>
        <time>2022-07-17T08:30:49Z</time>
      </trkpt>
      <trkpt lat="45.22636" lon="6.19126">
        <ele>2120.264</ele>
        <time>2022-07-17T08:30:54Z</time>
      </trkpt>
      <trkpt lat="45.22635" lon="6.19133">
        <ele>2121.185</ele>
        <time>2022-07-17T08:30:59Z</time>
      </trkpt>
      <trkpt lat="45.22634" lon="6.1914">
        <ele>2122.021</ele>
        <time>2022-07-17T08:31:04Z</time>
      </trkpt>
      <trkpt lat="45.22634" lon="6.19147">
        <ele>2123.227</ele>
        <time>2022-07-17T08:31:09Z</time>
      </trkpt>
      <trkpt lat="45.22632" lon="6.19154">
        <ele>2124.844</ele>
        <time>2022-07-17T08:31:14Z</time>
      </trkpt>
      <trkpt lat="45.2263" lon="6.1916">
        <ele>2125.964</ele>
        <time>2022-07-17T08:31:19Z</time>
      </trkpt>
      <trkpt lat="45.22625" lon="6.19165">
        <ele>2127.838</ele>
        <time>2022-07-17T08:31:24Z</time>
      </trkpt>
      <trkpt lat="45.22619" lon="6.19167">
        <ele>2128.39</ele>
        <time>2022-07-17T08:31:29Z</time>
      </trkpt>
      <trkpt lat="45.22614" lon="6.19168">
        <ele>2129.122</ele>
        <time>2022-07-17T08:31:34Z</time>
      </trkpt>
      <trkpt lat="45.22608" lon="6.19169">
        <ele>2130.061</ele>
        <time>2022-07-17T08:31:39Z</time>
      </trkpt>
      <trkpt lat="45.22603" lon="6.19171">
        <ele>2131.224</ele>
        <time>2022-07-17T08:31:44Z</time>
      </trkpt>
      <trkpt lat="45.22598" lon="6.19171">
        <ele>2131.567</ele>
        <time>2022-07-17T08:31:49Z</time>
      </trkpt>
      <trkpt lat="45.22592" lon="6.19173">
        <ele>2132.574</ele>
        <time>2022-07-17T08:31:54Z</time>
      </trkpt>
      <trkpt lat="45.22587" lon="6.19174">
        <ele>2133.816</ele>
        <time>2022-07-17T08:31:59Z</time>
      </trkpt>
      <trkpt lat="45.22582" lon="6.19175">
        <ele>2134.137</ele>
        <time>2022-07-17T08:32:04Z</time>
      </trkpt>
      <trkpt lat="45.22576" lon="6.19175">
        <ele>2135.324</ele>
        <time>2022-07-17T08:32:09Z</time>
      </trkpt>
      <trkpt lat="45.22571" lon="6.19177">
        <ele>2136.065</ele>
        <time>2022-07-17T08:32:14Z</time>
      </trkpt>
      <trkpt lat="45.22565" lon="6.19178">
        <ele>2136.586</ele>
        <time>2022-07-17T08:32:19Z</time>
      </trkpt>
      <trkpt lat="45.2256" lon="6.19178">
        <ele>2138.452</ele>
        <time>2022-07-17T08:32:24Z</time>
      </trkpt>
      <trkpt lat="45.22555" lon="6.19177">
        <ele>2139.401</ele>
        <time>2022-07-17T08:32:29Z</time>
      </trkpt>
      <trkpt lat="45.22551" lon="6.1917">
        <ele>2140.323</ele>
        <time>2022-07-17T08:32:34Z</time>
      </trkpt>
      <trkpt lat="45.22555" lon="6.19164">
        <ele>2141.109</ele>
        <time>2022-07-17T08:32:39Z</time>
      </trkpt>
      <trkpt lat="45.22561" lon="6.19161">
        <ele>2142.71</ele>
        <time>2022-07-17T08:32:44Z</time>
      </trkpt>
      <trkpt lat="45.22566" lon="6.19158">
        <ele>2143.76</ele>
        <time>2022-07-17T08:32:49Z</time>
      </trkpt>
      <trkpt lat="45.22571" lon="6.19152">
        <ele>2143.943</ele>
        <time>2022-07-17T08:32:54Z</time>
      </trkpt>
      <trkpt lat="45.22574" lon="6.19146">
        <ele>2144.278</ele>
        <time>2022-07-17T08:32:59Z</time>
      </trkpt>
      <trkpt lat="45.22577" lon="6.1914">
        <ele>2144.943</ele>
        <time>2022-07-17T08:33:04Z</time>
      </trkpt>
      <trkpt lat="45.22578" lon="6.19133">
        <ele>2145.825</ele>
        <time>2022-07-17T08:33:09Z</time>
      </trkpt>
      <trkpt lat="45.22577" lon="6.19125">
        <ele>2147.061</ele>
        <time>2022-07-17T08:33:14Z</time>
      </trkpt>
      <trkpt lat="45.22574" lon="6.19119">
        <ele>2147.671</ele>
        <time>2022-07-17T08:33:19Z</time>
      </trkpt>
      <trkpt lat="45.22571" lon="6.19114">
        <ele>2149.024</ele>
        <time>2022-07-17T08:33:24Z</time>
      </trkpt>
      <trkpt lat="45.22567" lon="6.1911">
        <ele>2150.415</ele>
        <time>2022-07-17T08:33:29Z</time>
      </trkpt>
      <trkpt lat="45.22563" lon="6.19106">
        <ele>2151.725</ele>
        <time>2022-07-17T08:33:34Z</time>
      </trkpt>
      <trkpt lat="45.22557" lon="6.19102">
        <ele>2152.538</ele>
        <time>2022-07-17T08:33:39Z</time>
      </trkpt>
      <trkpt lat="45.22552" lon="6.19101">
        <ele>2152.938</ele>
        <time>2022-07-17T08:33:44Z</time>
      </trkpt>
      <trkpt lat="45.22548" lon="6.19105">
        <ele>2153.353</ele>
        <time>2022-07-17T08:33:49Z</time>
      </trkpt>
      <trkpt lat="45.22544" lon="6.19109">
        <ele>2154.514</ele>
        <time>2022-07-17T08:33:54Z</time>
      </trkpt>
      <trkpt lat="45.22541" lon="6.19114">
        <ele>2155.324</ele>
        <time>2022-07-17T08:33:59Z</time>
      </trkpt>
      <trkpt lat="45.22537" lon="6.19119">
        <ele>2156.014</ele>
        <time>2022-07-17T08:34:04Z</time>
      </trkpt>
      <trkpt lat="45.22533" lon="6.19124">
        <ele>2156.857</ele>
        <time>2022-07-17T08:34:09Z</time>
      </trkpt>
      <trkpt lat="45.22528" lon="6.19123">
        <ele>2157.405</ele>
        <time>2022-07-17T08:34:14Z</time>
      </trkpt>
      <trkpt lat="45.22525" lon="6.19119">
        <ele>2158.268</ele>
        <time>2022-07-17T08:34:19Z</time>
      </trkpt>
      <trkpt lat="45.22523" lon="6.19112">
        <ele>2158.555</ele>
        <time>2022-07-17T08:34:24Z</time>
      </trkpt>
      <trkpt lat="45.22522" lon="6.19105">
        <ele>2159.03</ele>
        <time>2022-07-17T08:34:29Z</time>
      </trkpt>
      <trkpt lat="45.22521" lon="6.19098">
        <ele>2160.247</ele>
        <time>2022-07-17T08:34:34Z</time>
      </trkpt>
      <trkpt lat="45.22517" lon="6.19094">
        <ele>2161.516</ele>
        <time>2022-07-17T08:34:39Z</time>
      </trkpt>
      <trkpt lat="45.22512" lon="6.19097">
        <ele>2162.072</ele>
        <time>2022-07-17T08:34:44Z</time>
      </trkpt>
      <trkpt lat="45.22509" lon="6.191">
        <ele>2163.509</ele>
        <time>2022-07-17T08:34:49Z</time>
      </trkpt>
      <trkpt lat="45.22505" lon="6.19104">
        <ele>2164.707</ele>
        <time>2022-07-17T08:34:54Z</time>
      </trkpt>
      <trkpt lat="45.225" lon="6.19103">
        <ele>2165.904</ele>
        <time>2022-07-17T08:34:59Z</time>
      </trkpt>
      <trkpt lat="45.22498" lon="6.19097">
        <ele>2166.834</ele>
        <time>2022-07-17T08:35:04Z</time>
      </trkpt>
      <trkpt lat="45.22496" lon="6.1909">
        <ele>2167.272</ele>
        <time>2022-07-17T08:35:09Z</time>
      </trkpt>
      <trkpt lat="45.22494" lon="6.19085">
        <ele>2167.963</ele>
        <time>2022-07-17T08:35:13Z</time>
      </trkpt>
      <trkpt lat="45.22493" lon="6.19077">
        <ele>2168.413</ele>
        <time>2022-07-17T08:35:19Z</time>
      </trkpt>
      <trkpt lat="45.22489" lon="6.19073">
        <ele>2170.291</ele>
        <time>2022-07-17T08:35:24Z</time>
      </trkpt>
      <trkpt lat="45.22487" lon="6.19067">
        <ele>2170.839</ele>
        <time>2022-07-17T08:35:29Z</time>
      </trkpt>
      <trkpt lat="45.22483" lon="6.19062">
        <ele>2172.32</ele>
        <time>2022-07-17T08:35:34Z</time>
      </trkpt>
      <trkpt lat="45.22477" lon="6.19059">
        <ele>2171.925</ele>
        <time>2022-07-17T08:35:39Z</time>
      </trkpt>
      <trkpt lat="45.22471" lon="6.1906">
        <ele>2172.347</ele>
        <time>2022-07-17T08:35:44Z</time>
      </trkpt>
      <trkpt lat="45.22468" lon="6.19066">
        <ele>2174.235</ele>
        <time>2022-07-17T08:35:49Z</time>
      </trkpt>
      <trkpt lat="45.22466" lon="6.19074">
        <ele>2175.904</ele>
        <time>2022-07-17T08:35:54Z</time>
      </trkpt>
      <trkpt lat="45.22467" lon="6.19081">
        <ele>2176.755</ele>
        <time>2022-07-17T08:35:59Z</time>
      </trkpt>
      <trkpt lat="45.22465" lon="6.19088">
        <ele>2178.264</ele>
        <time>2022-07-17T08:36:04Z</time>
      </trkpt>
      <trkpt lat="45.22461" lon="6.19094">
        <ele>2178.739</ele>
        <time>2022-07-17T08:36:09Z</time>
      </trkpt>
      <trkpt lat="45.22457" lon="6.19094">
        <ele>2179.107</ele>
        <time>2022-07-17T08:36:14Z</time>
      </trkpt>
      <trkpt lat="45.22453" lon="6.19089">
        <ele>2179.781</ele>
        <time>2022-07-17T08:36:19Z</time>
      </trkpt>
      <trkpt lat="45.22449" lon="6.19084">
        <ele>2180.822</ele>
        <time>2022-07-17T08:36:24Z</time>
      </trkpt>
      <trkpt lat="45.22449" lon="6.19077">
        <ele>2180.734</ele>
        <time>2022-07-17T08:36:29Z</time>
      </trkpt>
      <trkpt lat="45.22447" lon="6.1907">
        <ele>2180.973</ele>
        <time>2022-07-17T08:36:34Z</time>
      </trkpt>
      <trkpt lat="45.22445" lon="6.19065">
        <ele>2181.814</ele>
        <time>2022-07-17T08:36:39Z</time>
      </trkpt>
      <trkpt lat="45.2244" lon="6.19062">
        <ele>2182.748</ele>
        <time>2022-07-17T08:36:44Z</time>
      </trkpt>
      <trkpt lat="45.22436" lon="6.19064">
        <ele>2184.297</ele>
        <time>2022-07-17T08:36:49Z</time>
      </trkpt>
      <trkpt lat="45.22434" lon="6.1907">
        <ele>2187.755</ele>
        <time>2022-07-17T08:36:54Z</time>
      </trkpt>
      <trkpt lat="45.22431" lon="6.19077">
        <ele>2189.673</ele>
        <time>2022-07-17T08:36:59Z</time>
      </trkpt>
      <trkpt lat="45.2243" lon="6.19085">
        <ele>2191.059</ele>
        <time>2022-07-17T08:37:04Z</time>
      </trkpt>
      <trkpt lat="45.22428" lon="6.19091">
        <ele>2192.046</ele>
        <time>2022-07-17T08:37:09Z</time>
      </trkpt>
      <trkpt lat="45.22423" lon="6.19091">
        <ele>2192.604</ele>
        <time>2022-07-17T08:37:14Z</time>
      </trkpt>
      <trkpt lat="45.22419" lon="6.1909">
        <ele>2193.482</ele>
        <time>2022-07-17T08:37:19Z</time>
      </trkpt>
      <trkpt lat="45.22416" lon="6.19084">
        <ele>2193.049</ele>
        <time>2022-07-17T08:37:24Z</time>
      </trkpt>
      <trkpt lat="45.22415" lon="6.19079">
        <ele>2193.752</ele>
        <time>2022-07-17T08:37:29Z</time>
      </trkpt>
      <trkpt lat="45.22413" lon="6.19073">
        <ele>2194.259</ele>
        <time>2022-07-17T08:37:34Z</time>
      </trkpt>
      <trkpt lat="45.22411" lon="6.19066">
        <ele>2195.569</ele>
        <time>2022-07-17T08:37:39Z</time>
      </trkpt>
      <trkpt lat="45.22411" lon="6.19059">
        <ele>2196.179</ele>
        <time>2022-07-17T08:37:44Z</time>
      </trkpt>
      <trkpt lat="45.2241" lon="6.19051">
        <ele>2196.67</ele>
        <time>2022-07-17T08:37:49Z</time>
      </trkpt>
      <trkpt lat="45.22408" lon="6.19044">
        <ele>2197.359</ele>
        <time>2022-07-17T08:37:54Z</time>
      </trkpt>
      <trkpt lat="45.22408" lon="6.19037">
        <ele>2197.693</ele>
        <time>2022-07-17T08:37:59Z</time>
      </trkpt>
      <trkpt lat="45.22409" lon="6.1903">
        <ele>2197.935</ele>
        <time>2022-07-17T08:38:04Z</time>
      </trkpt>
      <trkpt lat="45.22412" lon="6.19024">
        <ele>2199.243</ele>
        <time>2022-07-17T08:38:09Z</time>
      </trkpt>
      <trkpt lat="45.22414" lon="6.19018">
        <ele>2200.192</ele>
        <time>2022-07-17T08:38:14Z</time>
      </trkpt>
      <trkpt lat="45.22416" lon="6.19011">
        <ele>2201.496</ele>
        <time>2022-07-17T08:38:19Z</time>
      </trkpt>
      <trkpt lat="45.22419" lon="6.19005">
        <ele>2202.557</ele>
        <time>2022-07-17T08:38:24Z</time>
      </trkpt>
      <trkpt lat="45.2242" lon="6.18999">
        <ele>2203.048</ele>
        <time>2022-07-17T08:38:29Z</time>
      </trkpt>
      <trkpt lat="45.22419" lon="6.18993">
        <ele>2203.382</ele>
        <time>2022-07-17T08:38:34Z</time>
      </trkpt>
      <trkpt lat="45.22417" lon="6.18988">
        <ele>2204.42</ele>
        <time>2022-07-17T08:38:39Z</time>
      </trkpt>
      <trkpt lat="45.22414" lon="6.18983">
        <ele>2206.051</ele>
        <time>2022-07-17T08:38:44Z</time>
      </trkpt>
      <trkpt lat="45.2241" lon="6.18978">
        <ele>2206.985</ele>
        <time>2022-07-17T08:38:49Z</time>
      </trkpt>
      <trkpt lat="45.22407" lon="6.18973">
        <ele>2208.122</ele>
        <time>2022-07-17T08:38:54Z</time>
      </trkpt>
      <trkpt lat="45.22403" lon="6.18968">
        <ele>2209.202</ele>
        <time>2022-07-17T08:38:59Z</time>
      </trkpt>
      <trkpt lat="45.22398" lon="6.18963">
        <ele>2210.658</ele>
        <time>2022-07-17T08:39:04Z</time>
      </trkpt>
      <trkpt lat="45.22394" lon="6.1896">
        <ele>2211.826</ele>
        <time>2022-07-17T08:39:09Z</time>
      </trkpt>
      <trkpt lat="45.22389" lon="6.18957">
        <ele>2213.134</ele>
        <time>2022-07-17T08:39:14Z</time>
      </trkpt>
      <trkpt lat="45.22385" lon="6.18954">
        <ele>2213.913</ele>
        <time>2022-07-17T08:39:19Z</time>
      </trkpt>
      <trkpt lat="45.2238" lon="6.18951">
        <ele>2214.633</ele>
        <time>2022-07-17T08:39:24Z</time>
      </trkpt>
      <trkpt lat="45.22376" lon="6.18947">
        <ele>2214.817</ele>
        <time>2022-07-17T08:39:29Z</time>
      </trkpt>
      <trkpt lat="45.22371" lon="6.18945">
        <ele>2214.328</ele>
        <time>2022-07-17T08:39:34Z</time>
      </trkpt>
      <trkpt lat="45.22367" lon="6.18942">
        <ele>2214.572</ele>
        <time>2022-07-17T08:39:39Z</time>
      </trkpt>
      <trkpt lat="45.22362" lon="6.18937">
        <ele>2215.076</ele>
        <time>2022-07-17T08:39:44Z</time>
      </trkpt>
      <trkpt lat="45.2236" lon="6.18932">
        <ele>2216.204</ele>
        <time>2022-07-17T08:39:49Z</time>
      </trkpt>
      <trkpt lat="45.22356" lon="6.18927">
        <ele>2218.722</ele>
        <time>2022-07-17T08:39:54Z</time>
      </trkpt>
      <trkpt lat="45.22352" lon="6.18924">
        <ele>2220.007</ele>
        <time>2022-07-17T08:39:59Z</time>
      </trkpt>
      <trkpt lat="45.22347" lon="6.18927">
        <ele>2220.825</ele>
        <time>2022-07-17T08:40:04Z</time>
      </trkpt>
      <trkpt lat="45.22346" lon="6.18935">
        <ele>2222.492</ele>
        <time>2022-07-17T08:40:09Z</time>
      </trkpt>
      <trkpt lat="45.22349" lon="6.18943">
        <ele>2222.897</ele>
        <time>2022-07-17T08:40:14Z</time>
      </trkpt>
      <trkpt lat="45.22352" lon="6.1895">
        <ele>2223.478</ele>
        <time>2022-07-17T08:40:19Z</time>
      </trkpt>
      <trkpt lat="45.22355" lon="6.18959">
        <ele>2224.409</ele>
        <time>2022-07-17T08:40:24Z</time>
      </trkpt>
      <trkpt lat="45.22356" lon="6.18966">
        <ele>2225.048</ele>
        <time>2022-07-17T08:40:29Z</time>
      </trkpt>
      <trkpt lat="45.22354" lon="6.18973">
        <ele>2225.72</ele>
        <time>2022-07-17T08:40:34Z</time>
      </trkpt>
      <trkpt lat="45.2235" lon="6.18976">
        <ele>2227.291</ele>
        <time>2022-07-17T08:40:39Z</time>
      </trkpt>
      <trkpt lat="45.22346" lon="6.1897">
        <ele>2227.848</ele>
        <time>2022-07-17T08:40:44Z</time>
      </trkpt>
      <trkpt lat="45.22345" lon="6.18961">
        <ele>2228.065</ele>
        <time>2022-07-17T08:40:49Z</time>
      </trkpt>
      <trkpt lat="45.22342" lon="6.18953">
        <ele>2229.018</ele>
        <time>2022-07-17T08:40:54Z</time>
      </trkpt>
      <trkpt lat="45.22338" lon="6.18948">
        <ele>2230.227</ele>
        <time>2022-07-17T08:40:59Z</time>
      </trkpt>
      <trkpt lat="45.22333" lon="6.18944">
        <ele>2230.885</ele>
        <time>2022-07-17T08:41:04Z</time>
      </trkpt>
      <trkpt lat="45.22328" lon="6.1894">
        <ele>2231.637</ele>
        <time>2022-07-17T08:41:09Z</time>
      </trkpt>
      <trkpt lat="45.22323" lon="6.18936">
        <ele>2232.582</ele>
        <time>2022-07-17T08:41:14Z</time>
      </trkpt>
      <trkpt lat="45.22319" lon="6.18933">
        <ele>2232.824</ele>
        <time>2022-07-17T08:41:19Z</time>
      </trkpt>
      <trkpt lat="45.22314" lon="6.1893">
        <ele>2233.635</ele>
        <time>2022-07-17T08:41:24Z</time>
      </trkpt>
      <trkpt lat="45.2231" lon="6.18927">
        <ele>2234.873</ele>
        <time>2022-07-17T08:41:29Z</time>
      </trkpt>
      <trkpt lat="45.22305" lon="6.18925">
        <ele>2236.334</ele>
        <time>2022-07-17T08:41:34Z</time>
      </trkpt>
      <trkpt lat="45.223" lon="6.18921">
        <ele>2237.465</ele>
        <time>2022-07-17T08:41:39Z</time>
      </trkpt>
      <trkpt lat="45.22295" lon="6.1892">
        <ele>2238.855</ele>
        <time>2022-07-17T08:41:44Z</time>
      </trkpt>
      <trkpt lat="45.22291" lon="6.18917">
        <ele>2240.306</ele>
        <time>2022-07-17T08:41:49Z</time>
      </trkpt>
      <trkpt lat="45.22286" lon="6.18912">
        <ele>2240.762</ele>
        <time>2022-07-17T08:41:54Z</time>
      </trkpt>
      <trkpt lat="45.22282" lon="6.18908">
        <ele>2241.958</ele>
        <time>2022-07-17T08:41:59Z</time>
      </trkpt>
      <trkpt lat="45.22277" lon="6.18905">
        <ele>2243.805</ele>
        <time>2022-07-17T08:42:04Z</time>
      </trkpt>
      <trkpt lat="45.22272" lon="6.18907">
        <ele>2244.262</ele>
        <time>2022-07-17T08:42:09Z</time>
      </trkpt>
      <trkpt lat="45.22272" lon="6.18916">
        <ele>2245.067</ele>
        <time>2022-07-17T08:42:14Z</time>
      </trkpt>
      <trkpt lat="45.22275" lon="6.18925">
        <ele>2245.853</ele>
        <time>2022-07-17T08:42:19Z</time>
      </trkpt>
      <trkpt lat="45.22279" lon="6.18932">
        <ele>2244.993</ele>
        <time>2022-07-17T08:42:24Z</time>
      </trkpt>
      <trkpt lat="45.22281" lon="6.18939">
        <ele>2244.963</ele>
        <time>2022-07-17T08:42:29Z</time>
      </trkpt>
      <trkpt lat="45.22285" lon="6.18945">
        <ele>2244.651</ele>
        <time>2022-07-17T08:42:34Z</time>
      </trkpt>
      <trkpt lat="45.22287" lon="6.1895">
        <ele>2244.61</ele>
        <time>2022-07-17T08:42:39Z</time>
      </trkpt>
      <trkpt lat="45.22288" lon="6.18957">
        <ele>2245.069</ele>
        <time>2022-07-17T08:42:44Z</time>
      </trkpt>
      <trkpt lat="45.22285" lon="6.18961">
        <ele>2246.328</ele>
        <time>2022-07-17T08:42:49Z</time>
      </trkpt>
      <trkpt lat="45.22281" lon="6.18962">
        <ele>2247.944</ele>
        <time>2022-07-17T08:42:54Z</time>
      </trkpt>
      <trkpt lat="45.22278" lon="6.18957">
        <ele>2248.478</ele>
        <time>2022-07-17T08:42:59Z</time>
      </trkpt>
      <trkpt lat="45.22274" lon="6.18953">
        <ele>2249.6</ele>
        <time>2022-07-17T08:43:04Z</time>
      </trkpt>
      <trkpt lat="45.2227" lon="6.18948">
        <ele>2250.312</ele>
        <time>2022-07-17T08:43:09Z</time>
      </trkpt>
      <trkpt lat="45.22267" lon="6.18943">
        <ele>2251.998</ele>
        <time>2022-07-17T08:43:14Z</time>
      </trkpt>
      <trkpt lat="45.22263" lon="6.1894">
        <ele>2252.673</ele>
        <time>2022-07-17T08:43:19Z</time>
      </trkpt>
      <trkpt lat="45.22258" lon="6.18935">
        <ele>2254.01</ele>
        <time>2022-07-17T08:43:24Z</time>
      </trkpt>
      <trkpt lat="45.22252" lon="6.18933">
        <ele>2255.149</ele>
        <time>2022-07-17T08:43:29Z</time>
      </trkpt>
      <trkpt lat="45.22247" lon="6.1893">
        <ele>2256.75</ele>
        <time>2022-07-17T08:43:34Z</time>
      </trkpt>
      <trkpt lat="45.22242" lon="6.1893">
        <ele>2258.035</ele>
        <time>2022-07-17T08:43:39Z</time>
      </trkpt>
      <trkpt lat="45.22238" lon="6.18929">
        <ele>2258.809</ele>
        <time>2022-07-17T08:43:44Z</time>
      </trkpt>
      <trkpt lat="45.22237" lon="6.18926">
        <ele>2258.749</ele>
        <time>2022-07-17T08:43:49Z</time>
      </trkpt>
      <trkpt lat="45.22237" lon="6.18926">
        <ele>2258.812</ele>
        <time>2022-07-17T08:43:54Z</time>
      </trkpt>
      <trkpt lat="45.22237" lon="6.18926">
        <ele>2258.953</ele>
        <time>2022-07-17T08:43:59Z</time>
      </trkpt>
      <trkpt lat="45.22236" lon="6.18926">
        <ele>2258.938</ele>
        <time>2022-07-17T08:44:04Z</time>
      </trkpt>
      <trkpt lat="45.22236" lon="6.18926">
        <ele>2258.945</ele>
        <time>2022-07-17T08:44:09Z</time>
      </trkpt>
      <trkpt lat="45.22236" lon="6.18926">
        <ele>2258.948</ele>
        <time>2022-07-17T08:44:14Z</time>
      </trkpt>
      <trkpt lat="45.22236" lon="6.18926">
        <ele>2258.928</ele>
        <time>2022-07-17T08:44:19Z</time>
      </trkpt>
      <trkpt lat="45.22236" lon="6.18926">
        <ele>2258.934</ele>
        <time>2022-07-17T08:44:24Z</time>
      </trkpt>
      <trkpt lat="45.22236" lon="6.18926">
        <ele>2259.035</ele>
        <time>2022-07-17T08:44:29Z</time>
      </trkpt>
      <trkpt lat="45.22236" lon="6.18926">
        <ele>2259.01</ele>
        <time>2022-07-17T08:44:34Z</time>
      </trkpt>
      <trkpt lat="45.22236" lon="6.18926">
        <ele>2258.998</ele>
        <time>2022-07-17T08:44:39Z</time>
      </trkpt>
      <trkpt lat="45.22237" lon="6.18926">
        <ele>2259.816</ele>
        <time>2022-07-17T08:44:44Z</time>
      </trkpt>
      <trkpt lat="45.22237" lon="6.18926">
        <ele>2259.804</ele>
        <time>2022-07-17T08:44:49Z</time>
      </trkpt>
      <trkpt lat="45.22237" lon="6.18927">
        <ele>2259.833</ele>
        <time>2022-07-17T08:44:54Z</time>
      </trkpt>
      <trkpt lat="45.22237" lon="6.18928">
        <ele>2259.739</ele>
        <time>2022-07-17T08:44:59Z</time>
      </trkpt>
      <trkpt lat="45.22237" lon="6.18928">
        <ele>2259.739</ele>
        <time>2022-07-17T08:45:04Z</time>
      </trkpt>
      <trkpt lat="45.22237" lon="6.18928">
        <ele>2259.745</ele>
        <time>2022-07-17T08:45:09Z</time>
      </trkpt>
      <trkpt lat="45.22237" lon="6.18928">
        <ele>2259.745</ele>
        <time>2022-07-17T08:45:14Z</time>
      </trkpt>
      <trkpt lat="45.22237" lon="6.18928">
        <ele>2259.745</ele>
        <time>2022-07-17T08:45:19Z</time>
      </trkpt>
      <trkpt lat="45.22237" lon="6.18928">
        <ele>2259.729</ele>
        <time>2022-07-17T08:45:24Z</time>
      </trkpt>
      <trkpt lat="45.22237" lon="6.18928">
        <ele>2259.591</ele>
        <time>2022-07-17T08:45:29Z</time>
      </trkpt>
      <trkpt lat="45.22237" lon="6.18927">
        <ele>2259.626</ele>
        <time>2022-07-17T08:45:34Z</time>
      </trkpt>
      <trkpt lat="45.22237" lon="6.18927">
        <ele>2259.624</ele>
        <time>2022-07-17T08:45:39Z</time>
      </trkpt>
      <trkpt lat="45.22237" lon="6.18927">
        <ele>2259.56</ele>
        <time>2022-07-17T08:45:44Z</time>
      </trkpt>
      <trkpt lat="45.22237" lon="6.18928">
        <ele>2259.572</ele>
        <time>2022-07-17T08:45:49Z</time>
      </trkpt>
      <trkpt lat="45.22237" lon="6.18928">
        <ele>2259.573</ele>
        <time>2022-07-17T08:45:54Z</time>
      </trkpt>
      <trkpt lat="45.22237" lon="6.18928">
        <ele>2259.574</ele>
        <time>2022-07-17T08:45:59Z</time>
      </trkpt>
      <trkpt lat="45.22237" lon="6.18928">
        <ele>2260.086</ele>
        <time>2022-07-17T08:46:04Z</time>
      </trkpt>
      <trkpt lat="45.22237" lon="6.18928">
        <ele>2260.131</ele>
        <time>2022-07-17T08:46:09Z</time>
      </trkpt>
      <trkpt lat="45.22237" lon="6.18928">
        <ele>2260.115</ele>
        <time>2022-07-17T08:46:14Z</time>
      </trkpt>
      <trkpt lat="45.22237" lon="6.18928">
        <ele>2260.111</ele>
        <time>2022-07-17T08:46:19Z</time>
      </trkpt>
      <trkpt lat="45.22237" lon="6.18928">
        <ele>2260.108</ele>
        <time>2022-07-17T08:46:24Z</time>
      </trkpt>
      <trkpt lat="45.22237" lon="6.18929">
        <ele>2259.694</ele>
        <time>2022-07-17T08:46:29Z</time>
      </trkpt>
      <trkpt lat="45.22237" lon="6.18929">
        <ele>2259.684</ele>
        <time>2022-07-17T08:46:34Z</time>
      </trkpt>
      <trkpt lat="45.22237" lon="6.18929">
        <ele>2259.678</ele>
        <time>2022-07-17T08:46:39Z</time>
      </trkpt>
      <trkpt lat="45.22237" lon="6.18929">
        <ele>2259.661</ele>
        <time>2022-07-17T08:46:44Z</time>
      </trkpt>
      <trkpt lat="45.22237" lon="6.18929">
        <ele>2259.656</ele>
        <time>2022-07-17T08:46:49Z</time>
      </trkpt>
      <trkpt lat="45.22237" lon="6.18928">
        <ele>2259.018</ele>
        <time>2022-07-17T08:46:54Z</time>
      </trkpt>
      <trkpt lat="45.22236" lon="6.18924">
        <ele>2258.456</ele>
        <time>2022-07-17T08:46:59Z</time>
      </trkpt>
      <trkpt lat="45.22236" lon="6.18925">
        <ele>2258.3</ele>
        <time>2022-07-17T08:47:04Z</time>
      </trkpt>
      <trkpt lat="45.22236" lon="6.18925">
        <ele>2258.292</ele>
        <time>2022-07-17T08:47:09Z</time>
      </trkpt>
      <trkpt lat="45.22236" lon="6.18925">
        <ele>2258.296</ele>
        <time>2022-07-17T08:47:14Z</time>
      </trkpt>
      <trkpt lat="45.22236" lon="6.18925">
        <ele>2258.289</ele>
        <time>2022-07-17T08:47:19Z</time>
      </trkpt>
      <trkpt lat="45.22236" lon="6.18925">
        <ele>2258.289</ele>
        <time>2022-07-17T08:47:24Z</time>
      </trkpt>
      <trkpt lat="45.22236" lon="6.18925">
        <ele>2258.285</ele>
        <time>2022-07-17T08:47:29Z</time>
      </trkpt>
      <trkpt lat="45.22236" lon="6.18925">
        <ele>2258.277</ele>
        <time>2022-07-17T08:47:34Z</time>
      </trkpt>
      <trkpt lat="45.22236" lon="6.18925">
        <ele>2258.276</ele>
        <time>2022-07-17T08:47:39Z</time>
      </trkpt>
      <trkpt lat="45.22236" lon="6.18925">
        <ele>2258.27</ele>
        <time>2022-07-17T08:47:44Z</time>
      </trkpt>
      <trkpt lat="45.22236" lon="6.18925">
        <ele>2258.268</ele>
        <time>2022-07-17T08:47:49Z</time>
      </trkpt>
      <trkpt lat="45.22236" lon="6.18926">
        <ele>2258.135</ele>
        <time>2022-07-17T08:47:54Z</time>
      </trkpt>
      <trkpt lat="45.22236" lon="6.18926">
        <ele>2258.094</ele>
        <time>2022-07-17T08:47:59Z</time>
      </trkpt>
      <trkpt lat="45.22236" lon="6.18926">
        <ele>2258.099</ele>
        <time>2022-07-17T08:48:04Z</time>
      </trkpt>
      <trkpt lat="45.22236" lon="6.18927">
        <ele>2257.969</ele>
        <time>2022-07-17T08:48:09Z</time>
      </trkpt>
      <trkpt lat="45.22237" lon="6.18927">
        <ele>2257.887</ele>
        <time>2022-07-17T08:48:14Z</time>
      </trkpt>
      <trkpt lat="45.22237" lon="6.18928">
        <ele>2257.989</ele>
        <time>2022-07-17T08:48:19Z</time>
      </trkpt>
      <trkpt lat="45.22237" lon="6.18929">
        <ele>2258.14</ele>
        <time>2022-07-17T08:48:24Z</time>
      </trkpt>
      <trkpt lat="45.22237" lon="6.18929">
        <ele>2258.532</ele>
        <time>2022-07-17T08:48:29Z</time>
      </trkpt>
      <trkpt lat="45.22237" lon="6.18928">
        <ele>2258.27</ele>
        <time>2022-07-17T08:48:34Z</time>
      </trkpt>
      <trkpt lat="45.22238" lon="6.18927">
        <ele>2257.674</ele>
        <time>2022-07-17T08:48:39Z</time>
      </trkpt>
      <trkpt lat="45.22238" lon="6.18927">
        <ele>2257.666</ele>
        <time>2022-07-17T08:48:44Z</time>
      </trkpt>
      <trkpt lat="45.22238" lon="6.18927">
        <ele>2257.674</ele>
        <time>2022-07-17T08:48:49Z</time>
      </trkpt>
      <trkpt lat="45.22238" lon="6.18927">
        <ele>2257.668</ele>
        <time>2022-07-17T08:48:54Z</time>
      </trkpt>
      <trkpt lat="45.22238" lon="6.18927">
        <ele>2257.662</ele>
        <time>2022-07-17T08:48:59Z</time>
      </trkpt>
      <trkpt lat="45.22238" lon="6.18927">
        <ele>2257.664</ele>
        <time>2022-07-17T08:49:04Z</time>
      </trkpt>
      <trkpt lat="45.22238" lon="6.18927">
        <ele>2257.666</ele>
        <time>2022-07-17T08:49:09Z</time>
      </trkpt>
      <trkpt lat="45.22238" lon="6.18927">
        <ele>2257.665</ele>
        <time>2022-07-17T08:49:14Z</time>
      </trkpt>
      <trkpt lat="45.22238" lon="6.18927">
        <ele>2257.666</ele>
        <time>2022-07-17T08:49:19Z</time>
      </trkpt>
      <trkpt lat="45.22238" lon="6.18927">
        <ele>2257.668</ele>
        <time>2022-07-17T08:49:24Z</time>
      </trkpt>
      <trkpt lat="45.22238" lon="6.18927">
        <ele>2257.66</ele>
        <time>2022-07-17T08:49:29Z</time>
      </trkpt>
      <trkpt lat="45.22238" lon="6.18927">
        <ele>2257.657</ele>
        <time>2022-07-17T08:49:34Z</time>
      </trkpt>
      <trkpt lat="45.22238" lon="6.18927">
        <ele>2257.657</ele>
        <time>2022-07-17T08:49:39Z</time>
      </trkpt>
      <trkpt lat="45.22238" lon="6.18927">
        <ele>2257.658</ele>
        <time>2022-07-17T08:49:44Z</time>
      </trkpt>
      <trkpt lat="45.22238" lon="6.18927">
        <ele>2257.656</ele>
        <time>2022-07-17T08:49:49Z</time>
      </trkpt>
      <trkpt lat="45.22237" lon="6.18927">
        <ele>2257.651</ele>
        <time>2022-07-17T08:49:54Z</time>
      </trkpt>
      <trkpt lat="45.22237" lon="6.18927">
        <ele>2257.65</ele>
        <time>2022-07-17T08:49:59Z</time>
      </trkpt>
      <trkpt lat="45.22237" lon="6.18927">
        <ele>2257.647</ele>
        <time>2022-07-17T08:50:04Z</time>
      </trkpt>
      <trkpt lat="45.22237" lon="6.18927">
        <ele>2257.647</ele>
        <time>2022-07-17T08:50:09Z</time>
      </trkpt>
      <trkpt lat="45.22237" lon="6.18927">
        <ele>2257.645</ele>
        <time>2022-07-17T08:50:14Z</time>
      </trkpt>
      <trkpt lat="45.22237" lon="6.18927">
        <ele>2257.646</ele>
        <time>2022-07-17T08:50:19Z</time>
      </trkpt>
      <trkpt lat="45.22237" lon="6.18927">
        <ele>2257.648</ele>
        <time>2022-07-17T08:50:24Z</time>
      </trkpt>
      <trkpt lat="45.22238" lon="6.18928">
        <ele>2257.518</ele>
        <time>2022-07-17T08:50:29Z</time>
      </trkpt>
      <trkpt lat="45.22238" lon="6.18928">
        <ele>2257.517</ele>
        <time>2022-07-17T08:50:34Z</time>
      </trkpt>
      <trkpt lat="45.22238" lon="6.18928">
        <ele>2257.513</ele>
        <time>2022-07-17T08:50:39Z</time>
      </trkpt>
      <trkpt lat="45.22238" lon="6.18928">
        <ele>2257.512</ele>
        <time>2022-07-17T08:50:44Z</time>
      </trkpt>
      <trkpt lat="45.22238" lon="6.18928">
        <ele>2257.514</ele>
        <time>2022-07-17T08:50:49Z</time>
      </trkpt>
      <trkpt lat="45.22238" lon="6.18928">
        <ele>2257.507</ele>
        <time>2022-07-17T08:50:54Z</time>
      </trkpt>
      <trkpt lat="45.22238" lon="6.18928">
        <ele>2257.525</ele>
        <time>2022-07-17T08:50:59Z</time>
      </trkpt>
      <trkpt lat="45.22238" lon="6.18928">
        <ele>2257.53</ele>
        <time>2022-07-17T08:51:04Z</time>
      </trkpt>
      <trkpt lat="45.22238" lon="6.18928">
        <ele>2257.523</ele>
        <time>2022-07-17T08:51:09Z</time>
      </trkpt>
      <trkpt lat="45.22237" lon="6.18929">
        <ele>2257.199</ele>
        <time>2022-07-17T08:51:14Z</time>
      </trkpt>
      <trkpt lat="45.22237" lon="6.18929">
        <ele>2257.33</ele>
        <time>2022-07-17T08:51:19Z</time>
      </trkpt>
      <trkpt lat="45.22237" lon="6.18929">
        <ele>2257.33</ele>
        <time>2022-07-17T08:51:24Z</time>
      </trkpt>
      <trkpt lat="45.22237" lon="6.18929">
        <ele>2257.338</ele>
        <time>2022-07-17T08:51:29Z</time>
      </trkpt>
      <trkpt lat="45.22237" lon="6.18929">
        <ele>2257.347</ele>
        <time>2022-07-17T08:51:34Z</time>
      </trkpt>
      <trkpt lat="45.22237" lon="6.18929">
        <ele>2257.374</ele>
        <time>2022-07-17T08:51:39Z</time>
      </trkpt>
      <trkpt lat="45.22237" lon="6.18929">
        <ele>2257.386</ele>
        <time>2022-07-17T08:51:44Z</time>
      </trkpt>
      <trkpt lat="45.22237" lon="6.18929">
        <ele>2257.392</ele>
        <time>2022-07-17T08:51:49Z</time>
      </trkpt>
      <trkpt lat="45.22237" lon="6.18929">
        <ele>2257.39</ele>
        <time>2022-07-17T08:51:54Z</time>
      </trkpt>
      <trkpt lat="45.22237" lon="6.18929">
        <ele>2257.419</ele>
        <time>2022-07-17T08:51:59Z</time>
      </trkpt>
      <trkpt lat="45.22237" lon="6.18929">
        <ele>2257.418</ele>
        <time>2022-07-17T08:52:04Z</time>
      </trkpt>
      <trkpt lat="45.22237" lon="6.18929">
        <ele>2257.414</ele>
        <time>2022-07-17T08:52:09Z</time>
      </trkpt>
      <trkpt lat="45.22237" lon="6.18929">
        <ele>2257.42</ele>
        <time>2022-07-17T08:52:14Z</time>
      </trkpt>
      <trkpt lat="45.22237" lon="6.18929">
        <ele>2257.435</ele>
        <time>2022-07-17T08:52:19Z</time>
      </trkpt>
      <trkpt lat="45.22237" lon="6.18929">
        <ele>2257.442</ele>
        <time>2022-07-17T08:52:24Z</time>
      </trkpt>
      <trkpt lat="45.22237" lon="6.18929">
        <ele>2257.445</ele>
        <time>2022-07-17T08:52:29Z</time>
      </trkpt>
      <trkpt lat="45.22237" lon="6.18929">
        <ele>2257.459</ele>
        <time>2022-07-17T08:52:34Z</time>
      </trkpt>
      <trkpt lat="45.22237" lon="6.18929">
        <ele>2257.466</ele>
        <time>2022-07-17T08:52:39Z</time>
      </trkpt>
      <trkpt lat="45.22237" lon="6.18929">
        <ele>2257.476</ele>
        <time>2022-07-17T08:52:44Z</time>
      </trkpt>
      <trkpt lat="45.22237" lon="6.18929">
        <ele>2257.479</ele>
        <time>2022-07-17T08:52:49Z</time>
      </trkpt>
      <trkpt lat="45.22237" lon="6.18929">
        <ele>2257.486</ele>
        <time>2022-07-17T08:52:54Z</time>
      </trkpt>
      <trkpt lat="45.22237" lon="6.18928">
        <ele>2257.516</ele>
        <time>2022-07-17T08:52:59Z</time>
      </trkpt>
      <trkpt lat="45.22239" lon="6.18923">
        <ele>2255.119</ele>
        <time>2022-07-17T08:53:04Z</time>
      </trkpt>
      <trkpt lat="45.2224" lon="6.18921">
        <ele>2254.205</ele>
        <time>2022-07-17T08:53:09Z</time>
      </trkpt>
      <trkpt lat="45.22241" lon="6.18921">
        <ele>2254.214</ele>
        <time>2022-07-17T08:53:14Z</time>
      </trkpt>
      <trkpt lat="45.22238" lon="6.18922">
        <ele>2254.377</ele>
        <time>2022-07-17T08:53:19Z</time>
      </trkpt>
      <trkpt lat="45.22232" lon="6.18925">
        <ele>2255.6</ele>
        <time>2022-07-17T08:53:24Z</time>
      </trkpt>
      <trkpt lat="45.22225" lon="6.1893">
        <ele>2255.867</ele>
        <time>2022-07-17T08:53:29Z</time>
      </trkpt>
      <trkpt lat="45.2222" lon="6.18937">
        <ele>2256.874</ele>
        <time>2022-07-17T08:53:34Z</time>
      </trkpt>
      <trkpt lat="45.22216" lon="6.18948">
        <ele>2257.441</ele>
        <time>2022-07-17T08:53:39Z</time>
      </trkpt>
      <trkpt lat="45.22209" lon="6.18947">
        <ele>2257.934</ele>
        <time>2022-07-17T08:53:44Z</time>
      </trkpt>
      <trkpt lat="45.22202" lon="6.18945">
        <ele>2258.55</ele>
        <time>2022-07-17T08:53:49Z</time>
      </trkpt>
      <trkpt lat="45.22198" lon="6.18947">
        <ele>2259.546</ele>
        <time>2022-07-17T08:53:54Z</time>
      </trkpt>
      <trkpt lat="45.22195" lon="6.18947">
        <ele>2261.033</ele>
        <time>2022-07-17T08:53:59Z</time>
      </trkpt>
      <trkpt lat="45.22187" lon="6.18945">
        <ele>2261.284</ele>
        <time>2022-07-17T08:54:04Z</time>
      </trkpt>
      <trkpt lat="45.22181" lon="6.18944">
        <ele>2263.836</ele>
        <time>2022-07-17T08:54:09Z</time>
      </trkpt>
      <trkpt lat="45.22174" lon="6.18942">
        <ele>2268.067</ele>
        <time>2022-07-17T08:54:14Z</time>
      </trkpt>
      <trkpt lat="45.22166" lon="6.18937">
        <ele>2267.552</ele>
        <time>2022-07-17T08:54:19Z</time>
      </trkpt>
      <trkpt lat="45.22159" lon="6.18932">
        <ele>2272.256</ele>
        <time>2022-07-17T08:54:24Z</time>
      </trkpt>
      <trkpt lat="45.2215" lon="6.18925">
        <ele>2272.508</ele>
        <time>2022-07-17T08:54:29Z</time>
      </trkpt>
      <trkpt lat="45.22142" lon="6.18921">
        <ele>2273.862</ele>
        <time>2022-07-17T08:54:34Z</time>
      </trkpt>
      <trkpt lat="45.22136" lon="6.18915">
        <ele>2271.875</ele>
        <time>2022-07-17T08:54:39Z</time>
      </trkpt>
      <trkpt lat="45.22129" lon="6.18917">
        <ele>2269.61</ele>
        <time>2022-07-17T08:54:44Z</time>
      </trkpt>
      <trkpt lat="45.22123" lon="6.18915">
        <ele>2269.052</ele>
        <time>2022-07-17T08:54:49Z</time>
      </trkpt>
      <trkpt lat="45.22116" lon="6.1891">
        <ele>2269.452</ele>
        <time>2022-07-17T08:54:54Z</time>
      </trkpt>
      <trkpt lat="45.22108" lon="6.18905">
        <ele>2267.69</ele>
        <time>2022-07-17T08:54:59Z</time>
      </trkpt>
      <trkpt lat="45.22102" lon="6.18899">
        <ele>2268.525</ele>
        <time>2022-07-17T08:55:04Z</time>
      </trkpt>
      <trkpt lat="45.22101" lon="6.18888">
        <ele>2266.589</ele>
        <time>2022-07-17T08:55:09Z</time>
      </trkpt>
      <trkpt lat="45.22103" lon="6.18877">
        <ele>2266.855</ele>
        <time>2022-07-17T08:55:14Z</time>
      </trkpt>
      <trkpt lat="45.22107" lon="6.18869">
        <ele>2266.826</ele>
        <time>2022-07-17T08:55:19Z</time>
      </trkpt>
      <trkpt lat="45.22112" lon="6.18862">
        <ele>2267.555</ele>
        <time>2022-07-17T08:55:24Z</time>
      </trkpt>
      <trkpt lat="45.22119" lon="6.18858">
        <ele>2267.978</ele>
        <time>2022-07-17T08:55:29Z</time>
      </trkpt>
      <trkpt lat="45.22126" lon="6.18857">
        <ele>2269.327</ele>
        <time>2022-07-17T08:55:34Z</time>
      </trkpt>
      <trkpt lat="45.22132" lon="6.18859">
        <ele>2270.651</ele>
        <time>2022-07-17T08:55:39Z</time>
      </trkpt>
      <trkpt lat="45.22137" lon="6.18856">
        <ele>2271.565</ele>
        <time>2022-07-17T08:55:44Z</time>
      </trkpt>
      <trkpt lat="45.22139" lon="6.18849">
        <ele>2272.987</ele>
        <time>2022-07-17T08:55:49Z</time>
      </trkpt>
      <trkpt lat="45.22136" lon="6.18842">
        <ele>2273.816</ele>
        <time>2022-07-17T08:55:54Z</time>
      </trkpt>
      <trkpt lat="45.22132" lon="6.18838">
        <ele>2274.099</ele>
        <time>2022-07-17T08:55:59Z</time>
      </trkpt>
      <trkpt lat="45.22128" lon="6.18833">
        <ele>2274.932</ele>
        <time>2022-07-17T08:56:04Z</time>
      </trkpt>
      <trkpt lat="45.22123" lon="6.18829">
        <ele>2275.466</ele>
        <time>2022-07-17T08:56:09Z</time>
      </trkpt>
      <trkpt lat="45.22119" lon="6.18825">
        <ele>2276.052</ele>
        <time>2022-07-17T08:56:14Z</time>
      </trkpt>
      <trkpt lat="45.22114" lon="6.18821">
        <ele>2277.111</ele>
        <time>2022-07-17T08:56:19Z</time>
      </trkpt>
      <trkpt lat="45.2211" lon="6.18816">
        <ele>2277.49</ele>
        <time>2022-07-17T08:56:24Z</time>
      </trkpt>
      <trkpt lat="45.22105" lon="6.18812">
        <ele>2277.419</ele>
        <time>2022-07-17T08:56:29Z</time>
      </trkpt>
      <trkpt lat="45.22101" lon="6.18808">
        <ele>2278.45</ele>
        <time>2022-07-17T08:56:34Z</time>
      </trkpt>
      <trkpt lat="45.22097" lon="6.18805">
        <ele>2279.65</ele>
        <time>2022-07-17T08:56:39Z</time>
      </trkpt>
      <trkpt lat="45.22092" lon="6.18801">
        <ele>2281.177</ele>
        <time>2022-07-17T08:56:44Z</time>
      </trkpt>
      <trkpt lat="45.22089" lon="6.18797">
        <ele>2282.102</ele>
        <time>2022-07-17T08:56:49Z</time>
      </trkpt>
      <trkpt lat="45.22084" lon="6.18793">
        <ele>2283.477</ele>
        <time>2022-07-17T08:56:54Z</time>
      </trkpt>
      <trkpt lat="45.22079" lon="6.18789">
        <ele>2284.163</ele>
        <time>2022-07-17T08:56:59Z</time>
      </trkpt>
      <trkpt lat="45.22075" lon="6.18786">
        <ele>2285.504</ele>
        <time>2022-07-17T08:57:04Z</time>
      </trkpt>
      <trkpt lat="45.22071" lon="6.18783">
        <ele>2285.998</ele>
        <time>2022-07-17T08:57:09Z</time>
      </trkpt>
      <trkpt lat="45.22066" lon="6.18779">
        <ele>2286.612</ele>
        <time>2022-07-17T08:57:14Z</time>
      </trkpt>
      <trkpt lat="45.22062" lon="6.18776">
        <ele>2287.982</ele>
        <time>2022-07-17T08:57:19Z</time>
      </trkpt>
      <trkpt lat="45.22058" lon="6.18772">
        <ele>2289.06</ele>
        <time>2022-07-17T08:57:24Z</time>
      </trkpt>
      <trkpt lat="45.22053" lon="6.18768">
        <ele>2288.895</ele>
        <time>2022-07-17T08:57:29Z</time>
      </trkpt>
      <trkpt lat="45.22049" lon="6.18763">
        <ele>2289.186</ele>
        <time>2022-07-17T08:57:34Z</time>
      </trkpt>
      <trkpt lat="45.22044" lon="6.1876">
        <ele>2290.321</ele>
        <time>2022-07-17T08:57:39Z</time>
      </trkpt>
      <trkpt lat="45.2204" lon="6.18753">
        <ele>2290.106</ele>
        <time>2022-07-17T08:57:44Z</time>
      </trkpt>
      <trkpt lat="45.22036" lon="6.18748">
        <ele>2290.435</ele>
        <time>2022-07-17T08:57:49Z</time>
      </trkpt>
      <trkpt lat="45.22032" lon="6.18743">
        <ele>2290.728</ele>
        <time>2022-07-17T08:57:54Z</time>
      </trkpt>
      <trkpt lat="45.22029" lon="6.18737">
        <ele>2291.924</ele>
        <time>2022-07-17T08:57:59Z</time>
      </trkpt>
      <trkpt lat="45.22026" lon="6.1873">
        <ele>2292.247</ele>
        <time>2022-07-17T08:58:04Z</time>
      </trkpt>
      <trkpt lat="45.22023" lon="6.18723">
        <ele>2293.111</ele>
        <time>2022-07-17T08:58:09Z</time>
      </trkpt>
      <trkpt lat="45.22022" lon="6.18716">
        <ele>2294.382</ele>
        <time>2022-07-17T08:58:14Z</time>
      </trkpt>
      <trkpt lat="45.2202" lon="6.18709">
        <ele>2294.649</ele>
        <time>2022-07-17T08:58:19Z</time>
      </trkpt>
      <trkpt lat="45.22017" lon="6.18701">
        <ele>2295.846</ele>
        <time>2022-07-17T08:58:24Z</time>
      </trkpt>
      <trkpt lat="45.22013" lon="6.18695">
        <ele>2297.304</ele>
        <time>2022-07-17T08:58:29Z</time>
      </trkpt>
      <trkpt lat="45.22009" lon="6.1869">
        <ele>2298.561</ele>
        <time>2022-07-17T08:58:34Z</time>
      </trkpt>
      <trkpt lat="45.22005" lon="6.18685">
        <ele>2299.934</ele>
        <time>2022-07-17T08:58:39Z</time>
      </trkpt>
      <trkpt lat="45.22001" lon="6.1868">
        <ele>2301.203</ele>
        <time>2022-07-17T08:58:44Z</time>
      </trkpt>
      <trkpt lat="45.21997" lon="6.18676">
        <ele>2302.542</ele>
        <time>2022-07-17T08:58:49Z</time>
      </trkpt>
      <trkpt lat="45.21994" lon="6.18671">
        <ele>2302.981</ele>
        <time>2022-07-17T08:58:54Z</time>
      </trkpt>
      <trkpt lat="45.21991" lon="6.18667">
        <ele>2304.028</ele>
        <time>2022-07-17T08:58:59Z</time>
      </trkpt>
      <trkpt lat="45.21987" lon="6.18662">
        <ele>2305.609</ele>
        <time>2022-07-17T08:59:04Z</time>
      </trkpt>
      <trkpt lat="45.21983" lon="6.18658">
        <ele>2306.583</ele>
        <time>2022-07-17T08:59:09Z</time>
      </trkpt>
      <trkpt lat="45.2198" lon="6.18653">
        <ele>2307.469</ele>
        <time>2022-07-17T08:59:14Z</time>
      </trkpt>
      <trkpt lat="45.21976" lon="6.18648">
        <ele>2308.264</ele>
        <time>2022-07-17T08:59:19Z</time>
      </trkpt>
      <trkpt lat="45.21972" lon="6.18643">
        <ele>2309.551</ele>
        <time>2022-07-17T08:59:24Z</time>
      </trkpt>
      <trkpt lat="45.21968" lon="6.18639">
        <ele>2309.991</ele>
        <time>2022-07-17T08:59:29Z</time>
      </trkpt>
      <trkpt lat="45.21963" lon="6.18634">
        <ele>2310.706</ele>
        <time>2022-07-17T08:59:34Z</time>
      </trkpt>
      <trkpt lat="45.21959" lon="6.1863">
        <ele>2311.84</ele>
        <time>2022-07-17T08:59:39Z</time>
      </trkpt>
      <trkpt lat="45.21954" lon="6.18625">
        <ele>2312.701</ele>
        <time>2022-07-17T08:59:44Z</time>
      </trkpt>
      <trkpt lat="45.21949" lon="6.1862">
        <ele>2313.388</ele>
        <time>2022-07-17T08:59:49Z</time>
      </trkpt>
      <trkpt lat="45.21944" lon="6.18617">
        <ele>2314.681</ele>
        <time>2022-07-17T08:59:54Z</time>
      </trkpt>
      <trkpt lat="45.2194" lon="6.18613">
        <ele>2315.674</ele>
        <time>2022-07-17T08:59:59Z</time>
      </trkpt>
      <trkpt lat="45.21936" lon="6.18609">
        <ele>2316.98</ele>
        <time>2022-07-17T09:00:04Z</time>
      </trkpt>
      <trkpt lat="45.21931" lon="6.18607">
        <ele>2317.885</ele>
        <time>2022-07-17T09:00:09Z</time>
      </trkpt>
      <trkpt lat="45.21927" lon="6.18603">
        <ele>2319.021</ele>
        <time>2022-07-17T09:00:14Z</time>
      </trkpt>
      <trkpt lat="45.21922" lon="6.186">
        <ele>2320.188</ele>
        <time>2022-07-17T09:00:19Z</time>
      </trkpt>
      <trkpt lat="45.21918" lon="6.18597">
        <ele>2320.256</ele>
        <time>2022-07-17T09:00:24Z</time>
      </trkpt>
      <trkpt lat="45.21913" lon="6.18595">
        <ele>2321.201</ele>
        <time>2022-07-17T09:00:29Z</time>
      </trkpt>
      <trkpt lat="45.21908" lon="6.18595">
        <ele>2321.869</ele>
        <time>2022-07-17T09:00:34Z</time>
      </trkpt>
      <trkpt lat="45.21903" lon="6.18595">
        <ele>2322.916</ele>
        <time>2022-07-17T09:00:39Z</time>
      </trkpt>
      <trkpt lat="45.21897" lon="6.18595">
        <ele>2323.838</ele>
        <time>2022-07-17T09:00:44Z</time>
      </trkpt>
      <trkpt lat="45.21891" lon="6.18595">
        <ele>2324.493</ele>
        <time>2022-07-17T09:00:49Z</time>
      </trkpt>
      <trkpt lat="45.21886" lon="6.18593">
        <ele>2325.934</ele>
        <time>2022-07-17T09:00:54Z</time>
      </trkpt>
      <trkpt lat="45.21881" lon="6.1859">
        <ele>2326.633</ele>
        <time>2022-07-17T09:00:59Z</time>
      </trkpt>
      <trkpt lat="45.21876" lon="6.18587">
        <ele>2327.252</ele>
        <time>2022-07-17T09:01:04Z</time>
      </trkpt>
      <trkpt lat="45.21871" lon="6.18584">
        <ele>2328.522</ele>
        <time>2022-07-17T09:01:09Z</time>
      </trkpt>
      <trkpt lat="45.21865" lon="6.18582">
        <ele>2329.771</ele>
        <time>2022-07-17T09:01:14Z</time>
      </trkpt>
      <trkpt lat="45.2186" lon="6.18581">
        <ele>2330.609</ele>
        <time>2022-07-17T09:01:19Z</time>
      </trkpt>
      <trkpt lat="45.21855" lon="6.18578">
        <ele>2331.045</ele>
        <time>2022-07-17T09:01:24Z</time>
      </trkpt>
      <trkpt lat="45.2185" lon="6.18576">
        <ele>2331.895</ele>
        <time>2022-07-17T09:01:29Z</time>
      </trkpt>
      <trkpt lat="45.21844" lon="6.18574">
        <ele>2332.321</ele>
        <time>2022-07-17T09:01:34Z</time>
      </trkpt>
      <trkpt lat="45.21839" lon="6.18572">
        <ele>2333.077</ele>
        <time>2022-07-17T09:01:39Z</time>
      </trkpt>
      <trkpt lat="45.21833" lon="6.1857">
        <ele>2333.834</ele>
        <time>2022-07-17T09:01:44Z</time>
      </trkpt>
      <trkpt lat="45.21828" lon="6.18569">
        <ele>2334.818</ele>
        <time>2022-07-17T09:01:49Z</time>
      </trkpt>
      <trkpt lat="45.21823" lon="6.18567">
        <ele>2336.186</ele>
        <time>2022-07-17T09:01:54Z</time>
      </trkpt>
      <trkpt lat="45.21818" lon="6.18567">
        <ele>2336.81</ele>
        <time>2022-07-17T09:01:59Z</time>
      </trkpt>
      <trkpt lat="45.21812" lon="6.18567">
        <ele>2338.193</ele>
        <time>2022-07-17T09:02:04Z</time>
      </trkpt>
      <trkpt lat="45.21807" lon="6.18566">
        <ele>2339.455</ele>
        <time>2022-07-17T09:02:09Z</time>
      </trkpt>
      <trkpt lat="45.21802" lon="6.18565">
        <ele>2339.92</ele>
        <time>2022-07-17T09:02:14Z</time>
      </trkpt>
      <trkpt lat="45.21797" lon="6.18561">
        <ele>2340.667</ele>
        <time>2022-07-17T09:02:19Z</time>
      </trkpt>
      <trkpt lat="45.21793" lon="6.18558">
        <ele>2341.661</ele>
        <time>2022-07-17T09:02:24Z</time>
      </trkpt>
      <trkpt lat="45.21788" lon="6.18555">
        <ele>2342.484</ele>
        <time>2022-07-17T09:02:29Z</time>
      </trkpt>
      <trkpt lat="45.21783" lon="6.18551">
        <ele>2343.012</ele>
        <time>2022-07-17T09:02:34Z</time>
      </trkpt>
      <trkpt lat="45.21779" lon="6.18548">
        <ele>2343.252</ele>
        <time>2022-07-17T09:02:39Z</time>
      </trkpt>
      <trkpt lat="45.21774" lon="6.18546">
        <ele>2343.745</ele>
        <time>2022-07-17T09:02:44Z</time>
      </trkpt>
      <trkpt lat="45.21769" lon="6.18543">
        <ele>2344.912</ele>
        <time>2022-07-17T09:02:49Z</time>
      </trkpt>
      <trkpt lat="45.21764" lon="6.1854">
        <ele>2345.16</ele>
        <time>2022-07-17T09:02:54Z</time>
      </trkpt>
      <trkpt lat="45.21759" lon="6.18537">
        <ele>2346.073</ele>
        <time>2022-07-17T09:02:59Z</time>
      </trkpt>
      <trkpt lat="45.21755" lon="6.18533">
        <ele>2346.901</ele>
        <time>2022-07-17T09:03:04Z</time>
      </trkpt>
      <trkpt lat="45.2175" lon="6.18529">
        <ele>2348.422</ele>
        <time>2022-07-17T09:03:09Z</time>
      </trkpt>
      <trkpt lat="45.21745" lon="6.18525">
        <ele>2348.978</ele>
        <time>2022-07-17T09:03:14Z</time>
      </trkpt>
      <trkpt lat="45.2174" lon="6.1852">
        <ele>2349.876</ele>
        <time>2022-07-17T09:03:19Z</time>
      </trkpt>
      <trkpt lat="45.21735" lon="6.18517">
        <ele>2350.666</ele>
        <time>2022-07-17T09:03:24Z</time>
      </trkpt>
      <trkpt lat="45.2173" lon="6.18511">
        <ele>2352.413</ele>
        <time>2022-07-17T09:03:29Z</time>
      </trkpt>
      <trkpt lat="45.21725" lon="6.18507">
        <ele>2353.673</ele>
        <time>2022-07-17T09:03:34Z</time>
      </trkpt>
      <trkpt lat="45.2172" lon="6.18505">
        <ele>2354.432</ele>
        <time>2022-07-17T09:03:39Z</time>
      </trkpt>
      <trkpt lat="45.21716" lon="6.18501">
        <ele>2355.512</ele>
        <time>2022-07-17T09:03:44Z</time>
      </trkpt>
      <trkpt lat="45.21712" lon="6.18497">
        <ele>2356.032</ele>
        <time>2022-07-17T09:03:49Z</time>
      </trkpt>
      <trkpt lat="45.21709" lon="6.18493">
        <ele>2357.565</ele>
        <time>2022-07-17T09:03:54Z</time>
      </trkpt>
      <trkpt lat="45.21706" lon="6.18488">
        <ele>2358.032</ele>
        <time>2022-07-17T09:03:59Z</time>
      </trkpt>
      <trkpt lat="45.21703" lon="6.18481">
        <ele>2359.217</ele>
        <time>2022-07-17T09:04:04Z</time>
      </trkpt>
      <trkpt lat="45.217" lon="6.18475">
        <ele>2360.425</ele>
        <time>2022-07-17T09:04:09Z</time>
      </trkpt>
      <trkpt lat="45.21698" lon="6.18468">
        <ele>2361.728</ele>
        <time>2022-07-17T09:04:14Z</time>
      </trkpt>
      <trkpt lat="45.21695" lon="6.18463">
        <ele>2362.598</ele>
        <time>2022-07-17T09:04:19Z</time>
      </trkpt>
      <trkpt lat="45.21691" lon="6.18458">
        <ele>2363.944</ele>
        <time>2022-07-17T09:04:24Z</time>
      </trkpt>
      <trkpt lat="45.21686" lon="6.18455">
        <ele>2364.128</ele>
        <time>2022-07-17T09:04:29Z</time>
      </trkpt>
      <trkpt lat="45.2168" lon="6.18451">
        <ele>2364.671</ele>
        <time>2022-07-17T09:04:34Z</time>
      </trkpt>
      <trkpt lat="45.21675" lon="6.18447">
        <ele>2365.431</ele>
        <time>2022-07-17T09:04:39Z</time>
      </trkpt>
      <trkpt lat="45.21669" lon="6.18445">
        <ele>2365.364</ele>
        <time>2022-07-17T09:04:44Z</time>
      </trkpt>
      <trkpt lat="45.21664" lon="6.18444">
        <ele>2366.254</ele>
        <time>2022-07-17T09:04:49Z</time>
      </trkpt>
      <trkpt lat="45.21658" lon="6.18444">
        <ele>2366.478</ele>
        <time>2022-07-17T09:04:54Z</time>
      </trkpt>
      <trkpt lat="45.21651" lon="6.18443">
        <ele>2367.01</ele>
        <time>2022-07-17T09:04:59Z</time>
      </trkpt>
      <trkpt lat="45.21646" lon="6.18443">
        <ele>2368.079</ele>
        <time>2022-07-17T09:05:04Z</time>
      </trkpt>
      <trkpt lat="45.2164" lon="6.18442">
        <ele>2369.091</ele>
        <time>2022-07-17T09:05:09Z</time>
      </trkpt>
      <trkpt lat="45.21635" lon="6.18442">
        <ele>2369.796</ele>
        <time>2022-07-17T09:05:14Z</time>
      </trkpt>
      <trkpt lat="45.21629" lon="6.18441">
        <ele>2370.97</ele>
        <time>2022-07-17T09:05:19Z</time>
      </trkpt>
      <trkpt lat="45.21623" lon="6.18442">
        <ele>2370.995</ele>
        <time>2022-07-17T09:05:24Z</time>
      </trkpt>
      <trkpt lat="45.21617" lon="6.1844">
        <ele>2371.235</ele>
        <time>2022-07-17T09:05:29Z</time>
      </trkpt>
      <trkpt lat="45.21611" lon="6.18438">
        <ele>2371.425</ele>
        <time>2022-07-17T09:05:34Z</time>
      </trkpt>
      <trkpt lat="45.21606" lon="6.18434">
        <ele>2371.743</ele>
        <time>2022-07-17T09:05:39Z</time>
      </trkpt>
      <trkpt lat="45.216" lon="6.1843">
        <ele>2372.408</ele>
        <time>2022-07-17T09:05:44Z</time>
      </trkpt>
      <trkpt lat="45.21594" lon="6.18426">
        <ele>2373.589</ele>
        <time>2022-07-17T09:05:49Z</time>
      </trkpt>
      <trkpt lat="45.21588" lon="6.18423">
        <ele>2374.062</ele>
        <time>2022-07-17T09:05:54Z</time>
      </trkpt>
      <trkpt lat="45.21582" lon="6.18419">
        <ele>2373.985</ele>
        <time>2022-07-17T09:05:59Z</time>
      </trkpt>
      <trkpt lat="45.21575" lon="6.18416">
        <ele>2374.152</ele>
        <time>2022-07-17T09:06:04Z</time>
      </trkpt>
      <trkpt lat="45.2157" lon="6.18414">
        <ele>2374.726</ele>
        <time>2022-07-17T09:06:09Z</time>
      </trkpt>
      <trkpt lat="45.21565" lon="6.18412">
        <ele>2375.125</ele>
        <time>2022-07-17T09:06:14Z</time>
      </trkpt>
      <trkpt lat="45.21559" lon="6.1841">
        <ele>2375.791</ele>
        <time>2022-07-17T09:06:19Z</time>
      </trkpt>
      <trkpt lat="45.21554" lon="6.18407">
        <ele>2376.764</ele>
        <time>2022-07-17T09:06:24Z</time>
      </trkpt>
      <trkpt lat="45.21548" lon="6.18405">
        <ele>2377.716</ele>
        <time>2022-07-17T09:06:29Z</time>
      </trkpt>
      <trkpt lat="45.21543" lon="6.18404">
        <ele>2378.891</ele>
        <time>2022-07-17T09:06:34Z</time>
      </trkpt>
      <trkpt lat="45.21538" lon="6.18402">
        <ele>2379.676</ele>
        <time>2022-07-17T09:06:39Z</time>
      </trkpt>
      <trkpt lat="45.21533" lon="6.18398">
        <ele>2381.345</ele>
        <time>2022-07-17T09:06:44Z</time>
      </trkpt>
      <trkpt lat="45.21529" lon="6.18393">
        <ele>2382.074</ele>
        <time>2022-07-17T09:06:49Z</time>
      </trkpt>
      <trkpt lat="45.21524" lon="6.18389">
        <ele>2383.049</ele>
        <time>2022-07-17T09:06:54Z</time>
      </trkpt>
      <trkpt lat="45.2152" lon="6.18385">
        <ele>2384.74</ele>
        <time>2022-07-17T09:06:59Z</time>
      </trkpt>
      <trkpt lat="45.21516" lon="6.1838">
        <ele>2385.971</ele>
        <time>2022-07-17T09:07:04Z</time>
      </trkpt>
      <trkpt lat="45.21513" lon="6.18376">
        <ele>2387.279</ele>
        <time>2022-07-17T09:07:09Z</time>
      </trkpt>
      <trkpt lat="45.2151" lon="6.18371">
        <ele>2387.988</ele>
        <time>2022-07-17T09:07:14Z</time>
      </trkpt>
      <trkpt lat="45.21507" lon="6.18364">
        <ele>2388.613</ele>
        <time>2022-07-17T09:07:19Z</time>
      </trkpt>
      <trkpt lat="45.21503" lon="6.18359">
        <ele>2389.362</ele>
        <time>2022-07-17T09:07:24Z</time>
      </trkpt>
      <trkpt lat="45.21499" lon="6.18354">
        <ele>2390.331</ele>
        <time>2022-07-17T09:07:29Z</time>
      </trkpt>
      <trkpt lat="45.21494" lon="6.18352">
        <ele>2392.126</ele>
        <time>2022-07-17T09:07:34Z</time>
      </trkpt>
      <trkpt lat="45.21489" lon="6.18353">
        <ele>2393.365</ele>
        <time>2022-07-17T09:07:39Z</time>
      </trkpt>
      <trkpt lat="45.21483" lon="6.18356">
        <ele>2394.045</ele>
        <time>2022-07-17T09:07:44Z</time>
      </trkpt>
      <trkpt lat="45.21478" lon="6.18357">
        <ele>2394.821</ele>
        <time>2022-07-17T09:07:49Z</time>
      </trkpt>
      <trkpt lat="45.2147" lon="6.18362">
        <ele>2394.434</ele>
        <time>2022-07-17T09:07:54Z</time>
      </trkpt>
      <trkpt lat="45.21464" lon="6.18362">
        <ele>2395.696</ele>
        <time>2022-07-17T09:07:59Z</time>
      </trkpt>
      <trkpt lat="45.21458" lon="6.18363">
        <ele>2395.999</ele>
        <time>2022-07-17T09:08:04Z</time>
      </trkpt>
      <trkpt lat="45.2145" lon="6.18363">
        <ele>2394.697</ele>
        <time>2022-07-17T09:08:09Z</time>
      </trkpt>
      <trkpt lat="45.21444" lon="6.18362">
        <ele>2395.718</ele>
        <time>2022-07-17T09:08:14Z</time>
      </trkpt>
      <trkpt lat="45.2144" lon="6.1836">
        <ele>2397.304</ele>
        <time>2022-07-17T09:08:19Z</time>
      </trkpt>
      <trkpt lat="45.21436" lon="6.18357">
        <ele>2398.301</ele>
        <time>2022-07-17T09:08:24Z</time>
      </trkpt>
      <trkpt lat="45.21432" lon="6.18355">
        <ele>2399.939</ele>
        <time>2022-07-17T09:08:29Z</time>
      </trkpt>
      <trkpt lat="45.21428" lon="6.18353">
        <ele>2400.757</ele>
        <time>2022-07-17T09:08:34Z</time>
      </trkpt>
      <trkpt lat="45.21424" lon="6.18349">
        <ele>2402.367</ele>
        <time>2022-07-17T09:08:39Z</time>
      </trkpt>
      <trkpt lat="45.21419" lon="6.18347">
        <ele>2403.721</ele>
        <time>2022-07-17T09:08:44Z</time>
      </trkpt>
      <trkpt lat="45.21414" lon="6.18347">
        <ele>2404.894</ele>
        <time>2022-07-17T09:08:49Z</time>
      </trkpt>
      <trkpt lat="45.21409" lon="6.18347">
        <ele>2406.297</ele>
        <time>2022-07-17T09:08:54Z</time>
      </trkpt>
      <trkpt lat="45.21404" lon="6.18346">
        <ele>2407.966</ele>
        <time>2022-07-17T09:08:59Z</time>
      </trkpt>
      <trkpt lat="45.21399" lon="6.18345">
        <ele>2408.734</ele>
        <time>2022-07-17T09:09:04Z</time>
      </trkpt>
      <trkpt lat="45.21396" lon="6.18339">
        <ele>2409.281</ele>
        <time>2022-07-17T09:09:09Z</time>
      </trkpt>
      <trkpt lat="45.21398" lon="6.18331">
        <ele>2409.109</ele>
        <time>2022-07-17T09:09:14Z</time>
      </trkpt>
      <trkpt lat="45.21404" lon="6.18328">
        <ele>2409.691</ele>
        <time>2022-07-17T09:09:19Z</time>
      </trkpt>
      <trkpt lat="45.21409" lon="6.18325">
        <ele>2410.248</ele>
        <time>2022-07-17T09:09:24Z</time>
      </trkpt>
      <trkpt lat="45.21415" lon="6.18322">
        <ele>2411.895</ele>
        <time>2022-07-17T09:09:29Z</time>
      </trkpt>
      <trkpt lat="45.21419" lon="6.18318">
        <ele>2413.035</ele>
        <time>2022-07-17T09:09:34Z</time>
      </trkpt>
      <trkpt lat="45.21424" lon="6.18317">
        <ele>2414.416</ele>
        <time>2022-07-17T09:09:39Z</time>
      </trkpt>
      <trkpt lat="45.21427" lon="6.18312">
        <ele>2414.459</ele>
        <time>2022-07-17T09:09:44Z</time>
      </trkpt>
      <trkpt lat="45.21425" lon="6.18307">
        <ele>2415.475</ele>
        <time>2022-07-17T09:09:49Z</time>
      </trkpt>
      <trkpt lat="45.21419" lon="6.18305">
        <ele>2417.158</ele>
        <time>2022-07-17T09:09:54Z</time>
      </trkpt>
      <trkpt lat="45.21413" lon="6.18306">
        <ele>2418.801</ele>
        <time>2022-07-17T09:09:59Z</time>
      </trkpt>
      <trkpt lat="45.21407" lon="6.18307">
        <ele>2419.336</ele>
        <time>2022-07-17T09:10:04Z</time>
      </trkpt>
      <trkpt lat="45.21402" lon="6.18305">
        <ele>2420.78</ele>
        <time>2022-07-17T09:10:09Z</time>
      </trkpt>
      <trkpt lat="45.21397" lon="6.18303">
        <ele>2421.765</ele>
        <time>2022-07-17T09:10:14Z</time>
      </trkpt>
      <trkpt lat="45.21393" lon="6.183">
        <ele>2422.293</ele>
        <time>2022-07-17T09:10:19Z</time>
      </trkpt>
      <trkpt lat="45.21388" lon="6.18296">
        <ele>2423.185</ele>
        <time>2022-07-17T09:10:24Z</time>
      </trkpt>
      <trkpt lat="45.21382" lon="6.18295">
        <ele>2424.383</ele>
        <time>2022-07-17T09:10:29Z</time>
      </trkpt>
      <trkpt lat="45.21376" lon="6.18295">
        <ele>2425.791</ele>
        <time>2022-07-17T09:10:34Z</time>
      </trkpt>
      <trkpt lat="45.21371" lon="6.18295">
        <ele>2427.133</ele>
        <time>2022-07-17T09:10:39Z</time>
      </trkpt>
      <trkpt lat="45.21365" lon="6.18296">
        <ele>2427.597</ele>
        <time>2022-07-17T09:10:44Z</time>
      </trkpt>
      <trkpt lat="45.2136" lon="6.18297">
        <ele>2428.705</ele>
        <time>2022-07-17T09:10:49Z</time>
      </trkpt>
      <trkpt lat="45.21355" lon="6.18297">
        <ele>2430.106</ele>
        <time>2022-07-17T09:10:54Z</time>
      </trkpt>
      <trkpt lat="45.2135" lon="6.18299">
        <ele>2431.579</ele>
        <time>2022-07-17T09:10:59Z</time>
      </trkpt>
      <trkpt lat="45.21344" lon="6.183">
        <ele>2432.684</ele>
        <time>2022-07-17T09:11:04Z</time>
      </trkpt>
      <trkpt lat="45.21339" lon="6.18301">
        <ele>2433.953</ele>
        <time>2022-07-17T09:11:09Z</time>
      </trkpt>
      <trkpt lat="45.21333" lon="6.18301">
        <ele>2434.893</ele>
        <time>2022-07-17T09:11:14Z</time>
      </trkpt>
      <trkpt lat="45.21328" lon="6.18299">
        <ele>2436.186</ele>
        <time>2022-07-17T09:11:19Z</time>
      </trkpt>
      <trkpt lat="45.21322" lon="6.18295">
        <ele>2438.084</ele>
        <time>2022-07-17T09:11:24Z</time>
      </trkpt>
      <trkpt lat="45.21322" lon="6.18288">
        <ele>2437.994</ele>
        <time>2022-07-17T09:11:29Z</time>
      </trkpt>
      <trkpt lat="45.21327" lon="6.18282">
        <ele>2436.907</ele>
        <time>2022-07-17T09:11:34Z</time>
      </trkpt>
      <trkpt lat="45.21333" lon="6.18279">
        <ele>2436.507</ele>
        <time>2022-07-17T09:11:39Z</time>
      </trkpt>
      <trkpt lat="45.21339" lon="6.18276">
        <ele>2437.938</ele>
        <time>2022-07-17T09:11:44Z</time>
      </trkpt>
      <trkpt lat="45.21344" lon="6.18272">
        <ele>2438.007</ele>
        <time>2022-07-17T09:11:49Z</time>
      </trkpt>
      <trkpt lat="45.21349" lon="6.18269">
        <ele>2437.476</ele>
        <time>2022-07-17T09:11:54Z</time>
      </trkpt>
      <trkpt lat="45.21353" lon="6.18263">
        <ele>2437.991</ele>
        <time>2022-07-17T09:11:59Z</time>
      </trkpt>
      <trkpt lat="45.21354" lon="6.18256">
        <ele>2438.773</ele>
        <time>2022-07-17T09:12:04Z</time>
      </trkpt>
      <trkpt lat="45.21351" lon="6.18248">
        <ele>2440.063</ele>
        <time>2022-07-17T09:12:09Z</time>
      </trkpt>
      <trkpt lat="45.21349" lon="6.18243">
        <ele>2441.397</ele>
        <time>2022-07-17T09:12:14Z</time>
      </trkpt>
      <trkpt lat="45.21345" lon="6.18237">
        <ele>2442.481</ele>
        <time>2022-07-17T09:12:19Z</time>
      </trkpt>
      <trkpt lat="45.21341" lon="6.18231">
        <ele>2443.364</ele>
        <time>2022-07-17T09:12:24Z</time>
      </trkpt>
      <trkpt lat="45.21338" lon="6.18226">
        <ele>2444.795</ele>
        <time>2022-07-17T09:12:29Z</time>
      </trkpt>
      <trkpt lat="45.21335" lon="6.18219">
        <ele>2446.26</ele>
        <time>2022-07-17T09:12:34Z</time>
      </trkpt>
      <trkpt lat="45.21332" lon="6.18212">
        <ele>2446.845</ele>
        <time>2022-07-17T09:12:39Z</time>
      </trkpt>
      <trkpt lat="45.2133" lon="6.18205">
        <ele>2447.769</ele>
        <time>2022-07-17T09:12:44Z</time>
      </trkpt>
      <trkpt lat="45.21329" lon="6.18198">
        <ele>2448.456</ele>
        <time>2022-07-17T09:12:49Z</time>
      </trkpt>
      <trkpt lat="45.21329" lon="6.1819">
        <ele>2449.023</ele>
        <time>2022-07-17T09:12:54Z</time>
      </trkpt>
      <trkpt lat="45.21328" lon="6.18184">
        <ele>2450.599</ele>
        <time>2022-07-17T09:12:59Z</time>
      </trkpt>
      <trkpt lat="45.21325" lon="6.18178">
        <ele>2453.034</ele>
        <time>2022-07-17T09:13:04Z</time>
      </trkpt>
      <trkpt lat="45.21321" lon="6.18175">
        <ele>2455.658</ele>
        <time>2022-07-17T09:13:09Z</time>
      </trkpt>
      <trkpt lat="45.21317" lon="6.18173">
        <ele>2456.467</ele>
        <time>2022-07-17T09:13:14Z</time>
      </trkpt>
      <trkpt lat="45.21311" lon="6.18171">
        <ele>2457.619</ele>
        <time>2022-07-17T09:13:19Z</time>
      </trkpt>
      <trkpt lat="45.21306" lon="6.18171">
        <ele>2458.156</ele>
        <time>2022-07-17T09:13:24Z</time>
      </trkpt>
      <trkpt lat="45.21301" lon="6.18176">
        <ele>2459.371</ele>
        <time>2022-07-17T09:13:29Z</time>
      </trkpt>
      <trkpt lat="45.21298" lon="6.18183">
        <ele>2461.042</ele>
        <time>2022-07-17T09:13:34Z</time>
      </trkpt>
      <trkpt lat="45.21296" lon="6.18189">
        <ele>2462.06</ele>
        <time>2022-07-17T09:13:39Z</time>
      </trkpt>
      <trkpt lat="45.21295" lon="6.18197">
        <ele>2463.73</ele>
        <time>2022-07-17T09:13:44Z</time>
      </trkpt>
      <trkpt lat="45.21293" lon="6.18203">
        <ele>2465.297</ele>
        <time>2022-07-17T09:13:49Z</time>
      </trkpt>
      <trkpt lat="45.21289" lon="6.1821">
        <ele>2465.896</ele>
        <time>2022-07-17T09:13:54Z</time>
      </trkpt>
      <trkpt lat="45.21285" lon="6.18214">
        <ele>2467.263</ele>
        <time>2022-07-17T09:13:59Z</time>
      </trkpt>
      <trkpt lat="45.21281" lon="6.18212">
        <ele>2467.84</ele>
        <time>2022-07-17T09:14:04Z</time>
      </trkpt>
      <trkpt lat="45.21277" lon="6.18208">
        <ele>2468.629</ele>
        <time>2022-07-17T09:14:09Z</time>
      </trkpt>
      <trkpt lat="45.21274" lon="6.18202">
        <ele>2469.823</ele>
        <time>2022-07-17T09:14:14Z</time>
      </trkpt>
      <trkpt lat="45.21271" lon="6.18198">
        <ele>2470.371</ele>
        <time>2022-07-17T09:14:19Z</time>
      </trkpt>
      <trkpt lat="45.21267" lon="6.1819">
        <ele>2470.422</ele>
        <time>2022-07-17T09:14:24Z</time>
      </trkpt>
      <trkpt lat="45.21262" lon="6.18186">
        <ele>2471.898</ele>
        <time>2022-07-17T09:14:29Z</time>
      </trkpt>
      <trkpt lat="45.21257" lon="6.18184">
        <ele>2472.681</ele>
        <time>2022-07-17T09:14:34Z</time>
      </trkpt>
      <trkpt lat="45.21252" lon="6.18186">
        <ele>2474.408</ele>
        <time>2022-07-17T09:14:39Z</time>
      </trkpt>
      <trkpt lat="45.21248" lon="6.18188">
        <ele>2476.055</ele>
        <time>2022-07-17T09:14:44Z</time>
      </trkpt>
      <trkpt lat="45.21244" lon="6.18193">
        <ele>2476.403</ele>
        <time>2022-07-17T09:14:49Z</time>
      </trkpt>
      <trkpt lat="45.21239" lon="6.18195">
        <ele>2477.326</ele>
        <time>2022-07-17T09:14:54Z</time>
      </trkpt>
      <trkpt lat="45.21235" lon="6.18193">
        <ele>2478.221</ele>
        <time>2022-07-17T09:14:59Z</time>
      </trkpt>
      <trkpt lat="45.21234" lon="6.18185">
        <ele>2477.95</ele>
        <time>2022-07-17T09:15:04Z</time>
      </trkpt>
      <trkpt lat="45.21233" lon="6.18178">
        <ele>2478.04</ele>
        <time>2022-07-17T09:15:09Z</time>
      </trkpt>
      <trkpt lat="45.21233" lon="6.1817">
        <ele>2477.991</ele>
        <time>2022-07-17T09:15:14Z</time>
      </trkpt>
      <trkpt lat="45.21232" lon="6.18163">
        <ele>2477.942</ele>
        <time>2022-07-17T09:15:19Z</time>
      </trkpt>
      <trkpt lat="45.21232" lon="6.18156">
        <ele>2479.037</ele>
        <time>2022-07-17T09:15:24Z</time>
      </trkpt>
      <trkpt lat="45.21232" lon="6.18149">
        <ele>2479.645</ele>
        <time>2022-07-17T09:15:29Z</time>
      </trkpt>
      <trkpt lat="45.21232" lon="6.18141">
        <ele>2481.461</ele>
        <time>2022-07-17T09:15:34Z</time>
      </trkpt>
      <trkpt lat="45.21231" lon="6.18133">
        <ele>2482.226</ele>
        <time>2022-07-17T09:15:39Z</time>
      </trkpt>
      <trkpt lat="45.2123" lon="6.18126">
        <ele>2483.72</ele>
        <time>2022-07-17T09:15:44Z</time>
      </trkpt>
      <trkpt lat="45.2123" lon="6.18119">
        <ele>2484.197</ele>
        <time>2022-07-17T09:15:49Z</time>
      </trkpt>
      <trkpt lat="45.21226" lon="6.18113">
        <ele>2485.698</ele>
        <time>2022-07-17T09:15:54Z</time>
      </trkpt>
      <trkpt lat="45.21221" lon="6.18116">
        <ele>2487.906</ele>
        <time>2022-07-17T09:15:59Z</time>
      </trkpt>
      <trkpt lat="45.21216" lon="6.18121">
        <ele>2489.475</ele>
        <time>2022-07-17T09:16:04Z</time>
      </trkpt>
      <trkpt lat="45.21214" lon="6.18129">
        <ele>2490.916</ele>
        <time>2022-07-17T09:16:09Z</time>
      </trkpt>
      <trkpt lat="45.2121" lon="6.18135">
        <ele>2492.468</ele>
        <time>2022-07-17T09:16:14Z</time>
      </trkpt>
      <trkpt lat="45.21207" lon="6.18141">
        <ele>2493.026</ele>
        <time>2022-07-17T09:16:19Z</time>
      </trkpt>
      <trkpt lat="45.21204" lon="6.18147">
        <ele>2494.261</ele>
        <time>2022-07-17T09:16:24Z</time>
      </trkpt>
      <trkpt lat="45.21199" lon="6.18151">
        <ele>2495.062</ele>
        <time>2022-07-17T09:16:29Z</time>
      </trkpt>
      <trkpt lat="45.21195" lon="6.18151">
        <ele>2495.957</ele>
        <time>2022-07-17T09:16:34Z</time>
      </trkpt>
      <trkpt lat="45.21192" lon="6.18144">
        <ele>2496.963</ele>
        <time>2022-07-17T09:16:39Z</time>
      </trkpt>
      <trkpt lat="45.21192" lon="6.18136">
        <ele>2497.945</ele>
        <time>2022-07-17T09:16:44Z</time>
      </trkpt>
      <trkpt lat="45.21192" lon="6.18128">
        <ele>2497.917</ele>
        <time>2022-07-17T09:16:49Z</time>
      </trkpt>
      <trkpt lat="45.21192" lon="6.18121">
        <ele>2498.289</ele>
        <time>2022-07-17T09:16:54Z</time>
      </trkpt>
      <trkpt lat="45.2119" lon="6.18115">
        <ele>2499.811</ele>
        <time>2022-07-17T09:16:59Z</time>
      </trkpt>
      <trkpt lat="45.21188" lon="6.18108">
        <ele>2501.287</ele>
        <time>2022-07-17T09:17:04Z</time>
      </trkpt>
      <trkpt lat="45.21187" lon="6.18099">
        <ele>2500.958</ele>
        <time>2022-07-17T09:17:09Z</time>
      </trkpt>
      <trkpt lat="45.21186" lon="6.18092">
        <ele>2501.576</ele>
        <time>2022-07-17T09:17:14Z</time>
      </trkpt>
      <trkpt lat="45.21186" lon="6.18085">
        <ele>2502.961</ele>
        <time>2022-07-17T09:17:19Z</time>
      </trkpt>
      <trkpt lat="45.21187" lon="6.18077">
        <ele>2503.511</ele>
        <time>2022-07-17T09:17:24Z</time>
      </trkpt>
      <trkpt lat="45.21185" lon="6.18068">
        <ele>2504.402</ele>
        <time>2022-07-17T09:17:29Z</time>
      </trkpt>
      <trkpt lat="45.21183" lon="6.18061">
        <ele>2505.368</ele>
        <time>2022-07-17T09:17:34Z</time>
      </trkpt>
      <trkpt lat="45.21181" lon="6.18054">
        <ele>2505.892</ele>
        <time>2022-07-17T09:17:39Z</time>
      </trkpt>
      <trkpt lat="45.21181" lon="6.18046">
        <ele>2506.878</ele>
        <time>2022-07-17T09:17:44Z</time>
      </trkpt>
      <trkpt lat="45.21182" lon="6.18038">
        <ele>2507.789</ele>
        <time>2022-07-17T09:17:49Z</time>
      </trkpt>
      <trkpt lat="45.21184" lon="6.1803">
        <ele>2509.257</ele>
        <time>2022-07-17T09:17:54Z</time>
      </trkpt>
      <trkpt lat="45.21186" lon="6.18023">
        <ele>2510.476</ele>
        <time>2022-07-17T09:17:59Z</time>
      </trkpt>
      <trkpt lat="45.21189" lon="6.18017">
        <ele>2511.283</ele>
        <time>2022-07-17T09:18:04Z</time>
      </trkpt>
      <trkpt lat="45.21193" lon="6.18011">
        <ele>2512.603</ele>
        <time>2022-07-17T09:18:09Z</time>
      </trkpt>
      <trkpt lat="45.21197" lon="6.18005">
        <ele>2513.119</ele>
        <time>2022-07-17T09:18:14Z</time>
      </trkpt>
      <trkpt lat="45.21201" lon="6.17999">
        <ele>2514.299</ele>
        <time>2022-07-17T09:18:19Z</time>
      </trkpt>
      <trkpt lat="45.21205" lon="6.17995">
        <ele>2516.318</ele>
        <time>2022-07-17T09:18:24Z</time>
      </trkpt>
      <trkpt lat="45.21208" lon="6.17988">
        <ele>2516.231</ele>
        <time>2022-07-17T09:18:29Z</time>
      </trkpt>
      <trkpt lat="45.21211" lon="6.17981">
        <ele>2517.341</ele>
        <time>2022-07-17T09:18:34Z</time>
      </trkpt>
      <trkpt lat="45.21213" lon="6.17973">
        <ele>2517.392</ele>
        <time>2022-07-17T09:18:39Z</time>
      </trkpt>
      <trkpt lat="45.21214" lon="6.17965">
        <ele>2517.946</ele>
        <time>2022-07-17T09:18:44Z</time>
      </trkpt>
      <trkpt lat="45.21213" lon="6.17958">
        <ele>2519.363</ele>
        <time>2022-07-17T09:18:49Z</time>
      </trkpt>
      <trkpt lat="45.21212" lon="6.17951">
        <ele>2519.73</ele>
        <time>2022-07-17T09:18:54Z</time>
      </trkpt>
      <trkpt lat="45.21211" lon="6.17945">
        <ele>2520.247</ele>
        <time>2022-07-17T09:18:59Z</time>
      </trkpt>
      <trkpt lat="45.21208" lon="6.1794">
        <ele>2522.629</ele>
        <time>2022-07-17T09:19:04Z</time>
      </trkpt>
      <trkpt lat="45.21204" lon="6.17934">
        <ele>2524.328</ele>
        <time>2022-07-17T09:19:09Z</time>
      </trkpt>
      <trkpt lat="45.21198" lon="6.1793">
        <ele>2524.981</ele>
        <time>2022-07-17T09:19:14Z</time>
      </trkpt>
      <trkpt lat="45.21192" lon="6.17928">
        <ele>2525.67</ele>
        <time>2022-07-17T09:19:19Z</time>
      </trkpt>
      <trkpt lat="45.21186" lon="6.1793">
        <ele>2526.11</ele>
        <time>2022-07-17T09:19:24Z</time>
      </trkpt>
      <trkpt lat="45.2118" lon="6.1793">
        <ele>2526.702</ele>
        <time>2022-07-17T09:19:29Z</time>
      </trkpt>
      <trkpt lat="45.21173" lon="6.1793">
        <ele>2527.871</ele>
        <time>2022-07-17T09:19:34Z</time>
      </trkpt>
      <trkpt lat="45.21166" lon="6.17931">
        <ele>2528.176</ele>
        <time>2022-07-17T09:19:39Z</time>
      </trkpt>
      <trkpt lat="45.2116" lon="6.17934">
        <ele>2528.801</ele>
        <time>2022-07-17T09:19:44Z</time>
      </trkpt>
      <trkpt lat="45.21154" lon="6.17933">
        <ele>2529.287</ele>
        <time>2022-07-17T09:19:49Z</time>
      </trkpt>
      <trkpt lat="45.21148" lon="6.17932">
        <ele>2528.663</ele>
        <time>2022-07-17T09:19:54Z</time>
      </trkpt>
      <trkpt lat="45.21146" lon="6.17931">
        <ele>2527.171</ele>
        <time>2022-07-17T09:19:59Z</time>
      </trkpt>
      <trkpt lat="45.21147" lon="6.17932">
        <ele>2526.819</ele>
        <time>2022-07-17T09:20:04Z</time>
      </trkpt>
      <trkpt lat="45.21148" lon="6.17931">
        <ele>2527.143</ele>
        <time>2022-07-17T09:20:09Z</time>
      </trkpt>
      <trkpt lat="45.21149" lon="6.17928">
        <ele>2527.373</ele>
        <time>2022-07-17T09:20:14Z</time>
      </trkpt>
      <trkpt lat="45.2115" lon="6.17928">
        <ele>2527.834</ele>
        <time>2022-07-17T09:20:19Z</time>
      </trkpt>
      <trkpt lat="45.21151" lon="6.17928">
        <ele>2529.396</ele>
        <time>2022-07-17T09:20:24Z</time>
      </trkpt>
      <trkpt lat="45.21151" lon="6.17928">
        <ele>2529.828</ele>
        <time>2022-07-17T09:20:29Z</time>
      </trkpt>
      <trkpt lat="45.21149" lon="6.17929">
        <ele>2530.018</ele>
        <time>2022-07-17T09:20:34Z</time>
      </trkpt>
      <trkpt lat="45.21145" lon="6.17933">
        <ele>2530.739</ele>
        <time>2022-07-17T09:20:39Z</time>
      </trkpt>
      <trkpt lat="45.21145" lon="6.17933">
        <ele>2530.301</ele>
        <time>2022-07-17T09:20:44Z</time>
      </trkpt>
      <trkpt lat="45.21147" lon="6.17933">
        <ele>2529.974</ele>
        <time>2022-07-17T09:20:49Z</time>
      </trkpt>
      <trkpt lat="45.21149" lon="6.17933">
        <ele>2529.822</ele>
        <time>2022-07-17T09:20:54Z</time>
      </trkpt>
      <trkpt lat="45.21149" lon="6.17933">
        <ele>2529.845</ele>
        <time>2022-07-17T09:20:59Z</time>
      </trkpt>
      <trkpt lat="45.21148" lon="6.17932">
        <ele>2530.342</ele>
        <time>2022-07-17T09:21:04Z</time>
      </trkpt>
      <trkpt lat="45.21148" lon="6.17932">
        <ele>2530.636</ele>
        <time>2022-07-17T09:21:09Z</time>
      </trkpt>
      <trkpt lat="45.21148" lon="6.17932">
        <ele>2530.638</ele>
        <time>2022-07-17T09:21:14Z</time>
      </trkpt>
      <trkpt lat="45.21148" lon="6.17932">
        <ele>2530.845</ele>
        <time>2022-07-17T09:21:19Z</time>
      </trkpt>
      <trkpt lat="45.21148" lon="6.17932">
        <ele>2530.858</ele>
        <time>2022-07-17T09:21:24Z</time>
      </trkpt>
      <trkpt lat="45.21149" lon="6.17932">
        <ele>2530.79</ele>
        <time>2022-07-17T09:21:29Z</time>
      </trkpt>
      <trkpt lat="45.21148" lon="6.17931">
        <ele>2530.883</ele>
        <time>2022-07-17T09:21:34Z</time>
      </trkpt>
      <trkpt lat="45.21148" lon="6.17932">
        <ele>2530.973</ele>
        <time>2022-07-17T09:21:39Z</time>
      </trkpt>
      <trkpt lat="45.21148" lon="6.17932">
        <ele>2530.99</ele>
        <time>2022-07-17T09:21:44Z</time>
      </trkpt>
      <trkpt lat="45.21148" lon="6.17932">
        <ele>2530.997</ele>
        <time>2022-07-17T09:21:49Z</time>
      </trkpt>
      <trkpt lat="45.21147" lon="6.17933">
        <ele>2530.28</ele>
        <time>2022-07-17T09:21:54Z</time>
      </trkpt>
      <trkpt lat="45.21147" lon="6.17932">
        <ele>2530.044</ele>
        <time>2022-07-17T09:21:59Z</time>
      </trkpt>
      <trkpt lat="45.21147" lon="6.17934">
        <ele>2530.08</ele>
        <time>2022-07-17T09:22:04Z</time>
      </trkpt>
      <trkpt lat="45.21146" lon="6.17934">
        <ele>2529.705</ele>
        <time>2022-07-17T09:22:09Z</time>
      </trkpt>
      <trkpt lat="45.21147" lon="6.17935">
        <ele>2529.794</ele>
        <time>2022-07-17T09:22:14Z</time>
      </trkpt>
      <trkpt lat="45.21146" lon="6.17935">
        <ele>2529.762</ele>
        <time>2022-07-17T09:22:19Z</time>
      </trkpt>
      <trkpt lat="45.21146" lon="6.17935">
        <ele>2529.768</ele>
        <time>2022-07-17T09:22:24Z</time>
      </trkpt>
      <trkpt lat="45.21147" lon="6.17934">
        <ele>2529.953</ele>
        <time>2022-07-17T09:22:29Z</time>
      </trkpt>
      <trkpt lat="45.21147" lon="6.17934">
        <ele>2530.122</ele>
        <time>2022-07-17T09:22:34Z</time>
      </trkpt>
      <trkpt lat="45.21146" lon="6.17934">
        <ele>2530.14</ele>
        <time>2022-07-17T09:22:39Z</time>
      </trkpt>
      <trkpt lat="45.21146" lon="6.17934">
        <ele>2530.151</ele>
        <time>2022-07-17T09:22:44Z</time>
      </trkpt>
      <trkpt lat="45.21147" lon="6.17934">
        <ele>2530.103</ele>
        <time>2022-07-17T09:22:49Z</time>
      </trkpt>
      <trkpt lat="45.21147" lon="6.17934">
        <ele>2529.855</ele>
        <time>2022-07-17T09:22:54Z</time>
      </trkpt>
      <trkpt lat="45.21147" lon="6.17934">
        <ele>2529.829</ele>
        <time>2022-07-17T09:22:59Z</time>
      </trkpt>
      <trkpt lat="45.21147" lon="6.17935">
        <ele>2529.931</ele>
        <time>2022-07-17T09:23:04Z</time>
      </trkpt>
      <trkpt lat="45.21147" lon="6.17934">
        <ele>2530.505</ele>
        <time>2022-07-17T09:23:09Z</time>
      </trkpt>
      <trkpt lat="45.21147" lon="6.17934">
        <ele>2530.263</ele>
        <time>2022-07-17T09:23:14Z</time>
      </trkpt>
      <trkpt lat="45.21147" lon="6.17935">
        <ele>2530.188</ele>
        <time>2022-07-17T09:23:19Z</time>
      </trkpt>
      <trkpt lat="45.21147" lon="6.17935">
        <ele>2530.042</ele>
        <time>2022-07-17T09:23:24Z</time>
      </trkpt>
      <trkpt lat="45.21147" lon="6.17934">
        <ele>2529.799</ele>
        <time>2022-07-17T09:23:29Z</time>
      </trkpt>
      <trkpt lat="45.21147" lon="6.17934">
        <ele>2529.803</ele>
        <time>2022-07-17T09:23:34Z</time>
      </trkpt>
      <trkpt lat="45.21147" lon="6.17934">
        <ele>2529.806</ele>
        <time>2022-07-17T09:23:39Z</time>
      </trkpt>
      <trkpt lat="45.21147" lon="6.17934">
        <ele>2529.412</ele>
        <time>2022-07-17T09:23:44Z</time>
      </trkpt>
      <trkpt lat="45.21147" lon="6.17934">
        <ele>2529.427</ele>
        <time>2022-07-17T09:23:49Z</time>
      </trkpt>
      <trkpt lat="45.21147" lon="6.17934">
        <ele>2529.592</ele>
        <time>2022-07-17T09:23:54Z</time>
      </trkpt>
      <trkpt lat="45.21146" lon="6.17934">
        <ele>2529.167</ele>
        <time>2022-07-17T09:23:59Z</time>
      </trkpt>
      <trkpt lat="45.21143" lon="6.17936">
        <ele>2529.211</ele>
        <time>2022-07-17T09:24:04Z</time>
      </trkpt>
      <trkpt lat="45.21143" lon="6.17936">
        <ele>2529.21</ele>
        <time>2022-07-17T09:24:09Z</time>
      </trkpt>
      <trkpt lat="45.21143" lon="6.17936">
        <ele>2529.214</ele>
        <time>2022-07-17T09:24:14Z</time>
      </trkpt>
      <trkpt lat="45.21143" lon="6.17936">
        <ele>2529.52</ele>
        <time>2022-07-17T09:24:19Z</time>
      </trkpt>
      <trkpt lat="45.21144" lon="6.17936">
        <ele>2529.505</ele>
        <time>2022-07-17T09:24:24Z</time>
      </trkpt>
      <trkpt lat="45.21145" lon="6.17936">
        <ele>2529.758</ele>
        <time>2022-07-17T09:24:29Z</time>
      </trkpt>
      <trkpt lat="45.21147" lon="6.17935">
        <ele>2530.023</ele>
        <time>2022-07-17T09:24:34Z</time>
      </trkpt>
      <trkpt lat="45.21147" lon="6.17935">
        <ele>2530.016</ele>
        <time>2022-07-17T09:24:39Z</time>
      </trkpt>
      <trkpt lat="45.21147" lon="6.17935">
        <ele>2530.065</ele>
        <time>2022-07-17T09:24:44Z</time>
      </trkpt>
      <trkpt lat="45.21147" lon="6.17935">
        <ele>2530.064</ele>
        <time>2022-07-17T09:24:49Z</time>
      </trkpt>
      <trkpt lat="45.21147" lon="6.17935">
        <ele>2529.913</ele>
        <time>2022-07-17T09:24:54Z</time>
      </trkpt>
      <trkpt lat="45.21145" lon="6.17933">
        <ele>2529.393</ele>
        <time>2022-07-17T09:24:59Z</time>
      </trkpt>
      <trkpt lat="45.21145" lon="6.17934">
        <ele>2529.315</ele>
        <time>2022-07-17T09:25:04Z</time>
      </trkpt>
      <trkpt lat="45.21145" lon="6.17933">
        <ele>2528.798</ele>
        <time>2022-07-17T09:25:09Z</time>
      </trkpt>
      <trkpt lat="45.21145" lon="6.17933">
        <ele>2528.78</ele>
        <time>2022-07-17T09:25:14Z</time>
      </trkpt>
      <trkpt lat="45.21145" lon="6.17933">
        <ele>2528.762</ele>
        <time>2022-07-17T09:25:19Z</time>
      </trkpt>
      <trkpt lat="45.21145" lon="6.17933">
        <ele>2528.747</ele>
        <time>2022-07-17T09:25:24Z</time>
      </trkpt>
      <trkpt lat="45.21145" lon="6.17933">
        <ele>2528.736</ele>
        <time>2022-07-17T09:25:29Z</time>
      </trkpt>
      <trkpt lat="45.21145" lon="6.17933">
        <ele>2528.726</ele>
        <time>2022-07-17T09:25:34Z</time>
      </trkpt>
      <trkpt lat="45.21145" lon="6.17933">
        <ele>2528.715</ele>
        <time>2022-07-17T09:25:39Z</time>
      </trkpt>
      <trkpt lat="45.21145" lon="6.17933">
        <ele>2528.707</ele>
        <time>2022-07-17T09:25:44Z</time>
      </trkpt>
      <trkpt lat="45.21145" lon="6.17933">
        <ele>2528.699</ele>
        <time>2022-07-17T09:25:49Z</time>
      </trkpt>
      <trkpt lat="45.21145" lon="6.17933">
        <ele>2528.694</ele>
        <time>2022-07-17T09:25:54Z</time>
      </trkpt>
      <trkpt lat="45.21145" lon="6.17933">
        <ele>2528.693</ele>
        <time>2022-07-17T09:25:59Z</time>
      </trkpt>
      <trkpt lat="45.21143" lon="6.17933">
        <ele>2528.705</ele>
        <time>2022-07-17T09:26:04Z</time>
      </trkpt>
      <trkpt lat="45.21143" lon="6.17934">
        <ele>2529.004</ele>
        <time>2022-07-17T09:26:09Z</time>
      </trkpt>
      <trkpt lat="45.21143" lon="6.17934">
        <ele>2529.031</ele>
        <time>2022-07-17T09:26:14Z</time>
      </trkpt>
      <trkpt lat="45.21143" lon="6.17934">
        <ele>2529.392</ele>
        <time>2022-07-17T09:26:19Z</time>
      </trkpt>
      <trkpt lat="45.21143" lon="6.17934">
        <ele>2529.21</ele>
        <time>2022-07-17T09:26:24Z</time>
      </trkpt>
      <trkpt lat="45.21143" lon="6.17934">
        <ele>2529.202</ele>
        <time>2022-07-17T09:26:29Z</time>
      </trkpt>
      <trkpt lat="45.21143" lon="6.17934">
        <ele>2529.206</ele>
        <time>2022-07-17T09:26:34Z</time>
      </trkpt>
      <trkpt lat="45.21143" lon="6.17934">
        <ele>2528.992</ele>
        <time>2022-07-17T09:26:39Z</time>
      </trkpt>
      <trkpt lat="45.21143" lon="6.17934">
        <ele>2529.595</ele>
        <time>2022-07-17T09:26:44Z</time>
      </trkpt>
      <trkpt lat="45.21143" lon="6.17934">
        <ele>2529.623</ele>
        <time>2022-07-17T09:26:49Z</time>
      </trkpt>
      <trkpt lat="45.21143" lon="6.17934">
        <ele>2529.636</ele>
        <time>2022-07-17T09:26:54Z</time>
      </trkpt>
      <trkpt lat="45.21143" lon="6.17934">
        <ele>2529.647</ele>
        <time>2022-07-17T09:26:59Z</time>
      </trkpt>
      <trkpt lat="45.21143" lon="6.17935">
        <ele>2530.265</ele>
        <time>2022-07-17T09:27:04Z</time>
      </trkpt>
      <trkpt lat="45.21143" lon="6.17935">
        <ele>2530.271</ele>
        <time>2022-07-17T09:27:09Z</time>
      </trkpt>
      <trkpt lat="45.21143" lon="6.17935">
        <ele>2530.271</ele>
        <time>2022-07-17T09:27:14Z</time>
      </trkpt>
      <trkpt lat="45.21143" lon="6.17935">
        <ele>2529.832</ele>
        <time>2022-07-17T09:27:19Z</time>
      </trkpt>
      <trkpt lat="45.21143" lon="6.17935">
        <ele>2530.022</ele>
        <time>2022-07-17T09:27:24Z</time>
      </trkpt>
      <trkpt lat="45.21143" lon="6.17935">
        <ele>2530.033</ele>
        <time>2022-07-17T09:27:29Z</time>
      </trkpt>
      <trkpt lat="45.21143" lon="6.17935">
        <ele>2530.037</ele>
        <time>2022-07-17T09:27:34Z</time>
      </trkpt>
      <trkpt lat="45.21143" lon="6.17935">
        <ele>2530.048</ele>
        <time>2022-07-17T09:27:39Z</time>
      </trkpt>
      <trkpt lat="45.21143" lon="6.17935">
        <ele>2530.053</ele>
        <time>2022-07-17T09:27:44Z</time>
      </trkpt>
      <trkpt lat="45.21144" lon="6.17935">
        <ele>2530.06</ele>
        <time>2022-07-17T09:27:49Z</time>
      </trkpt>
      <trkpt lat="45.21144" lon="6.17935">
        <ele>2530.066</ele>
        <time>2022-07-17T09:27:54Z</time>
      </trkpt>
      <trkpt lat="45.21144" lon="6.17935">
        <ele>2530.071</ele>
        <time>2022-07-17T09:27:59Z</time>
      </trkpt>
      <trkpt lat="45.21144" lon="6.17935">
        <ele>2530.079</ele>
        <time>2022-07-17T09:28:04Z</time>
      </trkpt>
      <trkpt lat="45.21144" lon="6.17935">
        <ele>2530.085</ele>
        <time>2022-07-17T09:28:09Z</time>
      </trkpt>
      <trkpt lat="45.21144" lon="6.17935">
        <ele>2530.094</ele>
        <time>2022-07-17T09:28:14Z</time>
      </trkpt>
      <trkpt lat="45.21144" lon="6.17935">
        <ele>2530.101</ele>
        <time>2022-07-17T09:28:19Z</time>
      </trkpt>
      <trkpt lat="45.21144" lon="6.17934">
        <ele>2530.21</ele>
        <time>2022-07-17T09:28:24Z</time>
      </trkpt>
      <trkpt lat="45.21144" lon="6.17933">
        <ele>2530.219</ele>
        <time>2022-07-17T09:28:29Z</time>
      </trkpt>
      <trkpt lat="45.21144" lon="6.17933">
        <ele>2530.235</ele>
        <time>2022-07-17T09:28:34Z</time>
      </trkpt>
      <trkpt lat="45.21144" lon="6.17933">
        <ele>2530.241</ele>
        <time>2022-07-17T09:28:39Z</time>
      </trkpt>
      <trkpt lat="45.21143" lon="6.17933">
        <ele>2529.59</ele>
        <time>2022-07-17T09:28:44Z</time>
      </trkpt>
      <trkpt lat="45.21143" lon="6.17933">
        <ele>2529.596</ele>
        <time>2022-07-17T09:28:49Z</time>
      </trkpt>
      <trkpt lat="45.21143" lon="6.17932">
        <ele>2529.704</ele>
        <time>2022-07-17T09:28:54Z</time>
      </trkpt>
      <trkpt lat="45.21143" lon="6.17931">
        <ele>2529.861</ele>
        <time>2022-07-17T09:28:59Z</time>
      </trkpt>
      <trkpt lat="45.21143" lon="6.17931">
        <ele>2529.868</ele>
        <time>2022-07-17T09:29:04Z</time>
      </trkpt>
      <trkpt lat="45.21143" lon="6.17931">
        <ele>2529.876</ele>
        <time>2022-07-17T09:29:09Z</time>
      </trkpt>
      <trkpt lat="45.21143" lon="6.17931">
        <ele>2529.886</ele>
        <time>2022-07-17T09:29:14Z</time>
      </trkpt>
      <trkpt lat="45.21143" lon="6.17931">
        <ele>2529.896</ele>
        <time>2022-07-17T09:29:19Z</time>
      </trkpt>
      <trkpt lat="45.21143" lon="6.17931">
        <ele>2529.905</ele>
        <time>2022-07-17T09:29:24Z</time>
      </trkpt>
      <trkpt lat="45.21144" lon="6.17931">
        <ele>2530.602</ele>
        <time>2022-07-17T09:29:29Z</time>
      </trkpt>
      <trkpt lat="45.21143" lon="6.17931">
        <ele>2530.605</ele>
        <time>2022-07-17T09:29:34Z</time>
      </trkpt>
      <trkpt lat="45.21144" lon="6.17931">
        <ele>2530.686</ele>
        <time>2022-07-17T09:29:39Z</time>
      </trkpt>
      <trkpt lat="45.21143" lon="6.17931">
        <ele>2530.204</ele>
        <time>2022-07-17T09:29:44Z</time>
      </trkpt>
      <trkpt lat="45.21143" lon="6.17931">
        <ele>2529.929</ele>
        <time>2022-07-17T09:29:49Z</time>
      </trkpt>
      <trkpt lat="45.21143" lon="6.17931">
        <ele>2529.94</ele>
        <time>2022-07-17T09:29:54Z</time>
      </trkpt>
      <trkpt lat="45.21143" lon="6.17931">
        <ele>2529.942</ele>
        <time>2022-07-17T09:29:59Z</time>
      </trkpt>
      <trkpt lat="45.21143" lon="6.17931">
        <ele>2529.946</ele>
        <time>2022-07-17T09:30:04Z</time>
      </trkpt>
      <trkpt lat="45.21143" lon="6.17931">
        <ele>2529.498</ele>
        <time>2022-07-17T09:30:09Z</time>
      </trkpt>
      <trkpt lat="45.21143" lon="6.17931">
        <ele>2529.499</ele>
        <time>2022-07-17T09:30:14Z</time>
      </trkpt>
      <trkpt lat="45.21143" lon="6.17931">
        <ele>2529.5</ele>
        <time>2022-07-17T09:30:19Z</time>
      </trkpt>
      <trkpt lat="45.21143" lon="6.17931">
        <ele>2529.496</ele>
        <time>2022-07-17T09:30:24Z</time>
      </trkpt>
      <trkpt lat="45.21144" lon="6.17932">
        <ele>2529.386</ele>
        <time>2022-07-17T09:30:29Z</time>
      </trkpt>
      <trkpt lat="45.21144" lon="6.17932">
        <ele>2529.381</ele>
        <time>2022-07-17T09:30:34Z</time>
      </trkpt>
      <trkpt lat="45.21144" lon="6.17932">
        <ele>2529.371</ele>
        <time>2022-07-17T09:30:39Z</time>
      </trkpt>
      <trkpt lat="45.21144" lon="6.17932">
        <ele>2529.68</ele>
        <time>2022-07-17T09:30:44Z</time>
      </trkpt>
      <trkpt lat="45.21144" lon="6.17932">
        <ele>2529.68</ele>
        <time>2022-07-17T09:30:49Z</time>
      </trkpt>
      <trkpt lat="45.21144" lon="6.17932">
        <ele>2529.684</ele>
        <time>2022-07-17T09:30:54Z</time>
      </trkpt>
      <trkpt lat="45.21145" lon="6.17933">
        <ele>2529.717</ele>
        <time>2022-07-17T09:30:59Z</time>
      </trkpt>
      <trkpt lat="45.21145" lon="6.17933">
        <ele>2529.706</ele>
        <time>2022-07-17T09:31:04Z</time>
      </trkpt>
      <trkpt lat="45.21144" lon="6.17933">
        <ele>2529.726</ele>
        <time>2022-07-17T09:31:09Z</time>
      </trkpt>
      <trkpt lat="45.21144" lon="6.17933">
        <ele>2529.716</ele>
        <time>2022-07-17T09:31:14Z</time>
      </trkpt>
      <trkpt lat="45.21144" lon="6.17933">
        <ele>2529.719</ele>
        <time>2022-07-17T09:31:19Z</time>
      </trkpt>
      <trkpt lat="45.21144" lon="6.17933">
        <ele>2529.719</ele>
        <time>2022-07-17T09:31:24Z</time>
      </trkpt>
      <trkpt lat="45.21144" lon="6.17933">
        <ele>2529.716</ele>
        <time>2022-07-17T09:31:29Z</time>
      </trkpt>
      <trkpt lat="45.21144" lon="6.17933">
        <ele>2529.711</ele>
        <time>2022-07-17T09:31:34Z</time>
      </trkpt>
      <trkpt lat="45.21146" lon="6.17932">
        <ele>2529.695</ele>
        <time>2022-07-17T09:31:39Z</time>
      </trkpt>
      <trkpt lat="45.21146" lon="6.17932">
        <ele>2529.697</ele>
        <time>2022-07-17T09:31:44Z</time>
      </trkpt>
      <trkpt lat="45.21146" lon="6.17931">
        <ele>2528.903</ele>
        <time>2022-07-17T09:31:49Z</time>
      </trkpt>
      <trkpt lat="45.21146" lon="6.17931">
        <ele>2528.95</ele>
        <time>2022-07-17T09:31:54Z</time>
      </trkpt>
      <trkpt lat="45.21146" lon="6.17931">
        <ele>2528.958</ele>
        <time>2022-07-17T09:31:59Z</time>
      </trkpt>
      <trkpt lat="45.21146" lon="6.17931">
        <ele>2528.956</ele>
        <time>2022-07-17T09:32:04Z</time>
      </trkpt>
      <trkpt lat="45.21146" lon="6.17931">
        <ele>2528.958</ele>
        <time>2022-07-17T09:32:09Z</time>
      </trkpt>
      <trkpt lat="45.21146" lon="6.17931">
        <ele>2528.959</ele>
        <time>2022-07-17T09:32:14Z</time>
      </trkpt>
      <trkpt lat="45.21146" lon="6.17931">
        <ele>2528.95</ele>
        <time>2022-07-17T09:32:19Z</time>
      </trkpt>
      <trkpt lat="45.21146" lon="6.17932">
        <ele>2528.766</ele>
        <time>2022-07-17T09:32:24Z</time>
      </trkpt>
      <trkpt lat="45.21146" lon="6.17932">
        <ele>2528.769</ele>
        <time>2022-07-17T09:32:29Z</time>
      </trkpt>
      <trkpt lat="45.21146" lon="6.17932">
        <ele>2528.759</ele>
        <time>2022-07-17T09:32:34Z</time>
      </trkpt>
      <trkpt lat="45.21146" lon="6.17932">
        <ele>2528.756</ele>
        <time>2022-07-17T09:32:39Z</time>
      </trkpt>
      <trkpt lat="45.21146" lon="6.17932">
        <ele>2528.727</ele>
        <time>2022-07-17T09:32:44Z</time>
      </trkpt>
      <trkpt lat="45.21146" lon="6.17932">
        <ele>2528.74</ele>
        <time>2022-07-17T09:32:49Z</time>
      </trkpt>
      <trkpt lat="45.21146" lon="6.17932">
        <ele>2528.75</ele>
        <time>2022-07-17T09:32:54Z</time>
      </trkpt>
      <trkpt lat="45.21146" lon="6.17932">
        <ele>2529.036</ele>
        <time>2022-07-17T09:32:59Z</time>
      </trkpt>
      <trkpt lat="45.21146" lon="6.17932">
        <ele>2529.049</ele>
        <time>2022-07-17T09:33:04Z</time>
      </trkpt>
      <trkpt lat="45.21146" lon="6.17932">
        <ele>2529.061</ele>
        <time>2022-07-17T09:33:09Z</time>
      </trkpt>
      <trkpt lat="45.21146" lon="6.17932">
        <ele>2529.143</ele>
        <time>2022-07-17T09:33:14Z</time>
      </trkpt>
      <trkpt lat="45.21146" lon="6.17932">
        <ele>2529.138</ele>
        <time>2022-07-17T09:33:19Z</time>
      </trkpt>
      <trkpt lat="45.21146" lon="6.17932">
        <ele>2529.135</ele>
        <time>2022-07-17T09:33:24Z</time>
      </trkpt>
      <trkpt lat="45.21145" lon="6.17932">
        <ele>2528.985</ele>
        <time>2022-07-17T09:33:29Z</time>
      </trkpt>
      <trkpt lat="45.21145" lon="6.17932">
        <ele>2528.983</ele>
        <time>2022-07-17T09:33:34Z</time>
      </trkpt>
      <trkpt lat="45.21145" lon="6.17932">
        <ele>2528.984</ele>
        <time>2022-07-17T09:33:39Z</time>
      </trkpt>
      <trkpt lat="45.21145" lon="6.17932">
        <ele>2528.983</ele>
        <time>2022-07-17T09:33:44Z</time>
      </trkpt>
      <trkpt lat="45.21145" lon="6.17933">
        <ele>2528.985</ele>
        <time>2022-07-17T09:33:49Z</time>
      </trkpt>
      <trkpt lat="45.21145" lon="6.17933">
        <ele>2528.99</ele>
        <time>2022-07-17T09:33:54Z</time>
      </trkpt>
      <trkpt lat="45.21145" lon="6.17933">
        <ele>2528.99</ele>
        <time>2022-07-17T09:33:59Z</time>
      </trkpt>
      <trkpt lat="45.21145" lon="6.17933">
        <ele>2528.999</ele>
        <time>2022-07-17T09:34:04Z</time>
      </trkpt>
      <trkpt lat="45.21145" lon="6.17933">
        <ele>2529.087</ele>
        <time>2022-07-17T09:34:09Z</time>
      </trkpt>
      <trkpt lat="45.21145" lon="6.17933">
        <ele>2529.119</ele>
        <time>2022-07-17T09:34:14Z</time>
      </trkpt>
      <trkpt lat="45.21145" lon="6.17933">
        <ele>2529.187</ele>
        <time>2022-07-17T09:34:19Z</time>
      </trkpt>
      <trkpt lat="45.21145" lon="6.17933">
        <ele>2529.299</ele>
        <time>2022-07-17T09:34:24Z</time>
      </trkpt>
      <trkpt lat="45.21145" lon="6.17931">
        <ele>2529.398</ele>
        <time>2022-07-17T09:34:29Z</time>
      </trkpt>
      <trkpt lat="45.21145" lon="6.17931">
        <ele>2529.414</ele>
        <time>2022-07-17T09:34:34Z</time>
      </trkpt>
      <trkpt lat="45.21145" lon="6.17931">
        <ele>2529.441</ele>
        <time>2022-07-17T09:34:39Z</time>
      </trkpt>
      <trkpt lat="45.21145" lon="6.17931">
        <ele>2529.462</ele>
        <time>2022-07-17T09:34:44Z</time>
      </trkpt>
      <trkpt lat="45.21145" lon="6.17931">
        <ele>2529.493</ele>
        <time>2022-07-17T09:34:49Z</time>
      </trkpt>
      <trkpt lat="45.21145" lon="6.17932">
        <ele>2529.922</ele>
        <time>2022-07-17T09:34:54Z</time>
      </trkpt>
      <trkpt lat="45.21145" lon="6.17932">
        <ele>2529.952</ele>
        <time>2022-07-17T09:34:59Z</time>
      </trkpt>
      <trkpt lat="45.21145" lon="6.17932">
        <ele>2529.973</ele>
        <time>2022-07-17T09:35:04Z</time>
      </trkpt>
      <trkpt lat="45.21145" lon="6.17932">
        <ele>2529.992</ele>
        <time>2022-07-17T09:35:09Z</time>
      </trkpt>
      <trkpt lat="45.21145" lon="6.17932">
        <ele>2530.009</ele>
        <time>2022-07-17T09:35:14Z</time>
      </trkpt>
      <trkpt lat="45.21145" lon="6.17932">
        <ele>2530.029</ele>
        <time>2022-07-17T09:35:19Z</time>
      </trkpt>
      <trkpt lat="45.21145" lon="6.17932">
        <ele>2530.052</ele>
        <time>2022-07-17T09:35:24Z</time>
      </trkpt>
      <trkpt lat="45.21144" lon="6.17932">
        <ele>2529.775</ele>
        <time>2022-07-17T09:35:29Z</time>
      </trkpt>
      <trkpt lat="45.21144" lon="6.17932">
        <ele>2529.775</ele>
        <time>2022-07-17T09:35:34Z</time>
      </trkpt>
      <trkpt lat="45.21144" lon="6.17932">
        <ele>2529.782</ele>
        <time>2022-07-17T09:35:39Z</time>
      </trkpt>
      <trkpt lat="45.21144" lon="6.17932">
        <ele>2529.79</ele>
        <time>2022-07-17T09:35:44Z</time>
      </trkpt>
      <trkpt lat="45.21144" lon="6.17932">
        <ele>2529.996</ele>
        <time>2022-07-17T09:35:49Z</time>
      </trkpt>
      <trkpt lat="45.21144" lon="6.17932">
        <ele>2529.994</ele>
        <time>2022-07-17T09:35:54Z</time>
      </trkpt>
      <trkpt lat="45.21144" lon="6.17932">
        <ele>2529.994</ele>
        <time>2022-07-17T09:35:59Z</time>
      </trkpt>
      <trkpt lat="45.21144" lon="6.17932">
        <ele>2529.999</ele>
        <time>2022-07-17T09:36:04Z</time>
      </trkpt>
      <trkpt lat="45.21144" lon="6.17932">
        <ele>2530.005</ele>
        <time>2022-07-17T09:36:09Z</time>
      </trkpt>
      <trkpt lat="45.21144" lon="6.17932">
        <ele>2529.818</ele>
        <time>2022-07-17T09:36:14Z</time>
      </trkpt>
      <trkpt lat="45.21144" lon="6.17932">
        <ele>2529.813</ele>
        <time>2022-07-17T09:36:19Z</time>
      </trkpt>
      <trkpt lat="45.21145" lon="6.17932">
        <ele>2530.12</ele>
        <time>2022-07-17T09:36:24Z</time>
      </trkpt>
      <trkpt lat="45.21145" lon="6.17932">
        <ele>2530.1</ele>
        <time>2022-07-17T09:36:29Z</time>
      </trkpt>
      <trkpt lat="45.21145" lon="6.17932">
        <ele>2530.094</ele>
        <time>2022-07-17T09:36:34Z</time>
      </trkpt>
      <trkpt lat="45.21145" lon="6.17932">
        <ele>2530.091</ele>
        <time>2022-07-17T09:36:39Z</time>
      </trkpt>
      <trkpt lat="45.21146" lon="6.1793">
        <ele>2530.126</ele>
        <time>2022-07-17T09:36:44Z</time>
      </trkpt>
      <trkpt lat="45.21146" lon="6.1793">
        <ele>2530.132</ele>
        <time>2022-07-17T09:36:49Z</time>
      </trkpt>
      <trkpt lat="45.21146" lon="6.1793">
        <ele>2530.175</ele>
        <time>2022-07-17T09:36:54Z</time>
      </trkpt>
      <trkpt lat="45.21146" lon="6.1793">
        <ele>2530.182</ele>
        <time>2022-07-17T09:36:59Z</time>
      </trkpt>
      <trkpt lat="45.21146" lon="6.1793">
        <ele>2530.184</ele>
        <time>2022-07-17T09:37:04Z</time>
      </trkpt>
      <trkpt lat="45.21147" lon="6.17933">
        <ele>2529.734</ele>
        <time>2022-07-17T09:37:09Z</time>
      </trkpt>
      <trkpt lat="45.21147" lon="6.17935">
        <ele>2529.167</ele>
        <time>2022-07-17T09:37:14Z</time>
      </trkpt>
      <trkpt lat="45.21147" lon="6.17935">
        <ele>2529.168</ele>
        <time>2022-07-17T09:37:19Z</time>
      </trkpt>
      <trkpt lat="45.21149" lon="6.17933">
        <ele>2529.296</ele>
        <time>2022-07-17T09:37:24Z</time>
      </trkpt>
      <trkpt lat="45.2115" lon="6.1793">
        <ele>2529.455</ele>
        <time>2022-07-17T09:37:29Z</time>
      </trkpt>
      <trkpt lat="45.21149" lon="6.17929">
        <ele>2529.536</ele>
        <time>2022-07-17T09:37:34Z</time>
      </trkpt>
      <trkpt lat="45.21149" lon="6.17929">
        <ele>2529.535</ele>
        <time>2022-07-17T09:37:39Z</time>
      </trkpt>
      <trkpt lat="45.21149" lon="6.17929">
        <ele>2529.533</ele>
        <time>2022-07-17T09:37:44Z</time>
      </trkpt>
      <trkpt lat="45.21149" lon="6.17929">
        <ele>2529.697</ele>
        <time>2022-07-17T09:37:49Z</time>
      </trkpt>
      <trkpt lat="45.21149" lon="6.17929">
        <ele>2529.696</ele>
        <time>2022-07-17T09:37:54Z</time>
      </trkpt>
      <trkpt lat="45.21149" lon="6.17929">
        <ele>2529.685</ele>
        <time>2022-07-17T09:37:59Z</time>
      </trkpt>
      <trkpt lat="45.21149" lon="6.17929">
        <ele>2529.684</ele>
        <time>2022-07-17T09:38:04Z</time>
      </trkpt>
      <trkpt lat="45.21149" lon="6.17929">
        <ele>2529.679</ele>
        <time>2022-07-17T09:38:09Z</time>
      </trkpt>
      <trkpt lat="45.21149" lon="6.17929">
        <ele>2529.678</ele>
        <time>2022-07-17T09:38:14Z</time>
      </trkpt>
      <trkpt lat="45.21149" lon="6.17929">
        <ele>2529.672</ele>
        <time>2022-07-17T09:38:19Z</time>
      </trkpt>
      <trkpt lat="45.21145" lon="6.17924">
        <ele>2529.897</ele>
        <time>2022-07-17T09:38:24Z</time>
      </trkpt>
      <trkpt lat="45.21137" lon="6.17918">
        <ele>2530.665</ele>
        <time>2022-07-17T09:38:29Z</time>
      </trkpt>
      <trkpt lat="45.21128" lon="6.17912">
        <ele>2530.321</ele>
        <time>2022-07-17T09:38:34Z</time>
      </trkpt>
      <trkpt lat="45.21117" lon="6.17906">
        <ele>2530.199</ele>
        <time>2022-07-17T09:38:39Z</time>
      </trkpt>
      <trkpt lat="45.21106" lon="6.17902">
        <ele>2530.295</ele>
        <time>2022-07-17T09:38:44Z</time>
      </trkpt>
      <trkpt lat="45.21095" lon="6.17897">
        <ele>2530.4</ele>
        <time>2022-07-17T09:38:49Z</time>
      </trkpt>
      <trkpt lat="45.21083" lon="6.17892">
        <ele>2530.551</ele>
        <time>2022-07-17T09:38:54Z</time>
      </trkpt>
      <trkpt lat="45.21072" lon="6.17886">
        <ele>2530.379</ele>
        <time>2022-07-17T09:38:59Z</time>
      </trkpt>
      <trkpt lat="45.21061" lon="6.17879">
        <ele>2530.281</ele>
        <time>2022-07-17T09:39:04Z</time>
      </trkpt>
      <trkpt lat="45.21049" lon="6.17873">
        <ele>2530.058</ele>
        <time>2022-07-17T09:39:09Z</time>
      </trkpt>
      <trkpt lat="45.21032" lon="6.17867">
        <ele>2529.737</ele>
        <time>2022-07-17T09:39:14Z</time>
      </trkpt>
      <trkpt lat="45.21012" lon="6.1786">
        <ele>2529.239</ele>
        <time>2022-07-17T09:39:19Z</time>
      </trkpt>
      <trkpt lat="45.20987" lon="6.17864">
        <ele>2527.673</ele>
        <time>2022-07-17T09:39:24Z</time>
      </trkpt>
      <trkpt lat="45.2096" lon="6.17861">
        <ele>2526.7</ele>
        <time>2022-07-17T09:39:29Z</time>
      </trkpt>
      <trkpt lat="45.2093" lon="6.17859">
        <ele>2525.298</ele>
        <time>2022-07-17T09:39:34Z</time>
      </trkpt>
      <trkpt lat="45.20901" lon="6.17864">
        <ele>2523.8</ele>
        <time>2022-07-17T09:39:39Z</time>
      </trkpt>
      <trkpt lat="45.20868" lon="6.17865">
        <ele>2520.861</ele>
        <time>2022-07-17T09:39:44Z</time>
      </trkpt>
      <trkpt lat="45.20831" lon="6.17862">
        <ele>2518.206</ele>
        <time>2022-07-17T09:39:49Z</time>
      </trkpt>
      <trkpt lat="45.20796" lon="6.17876">
        <ele>2515.453</ele>
        <time>2022-07-17T09:39:54Z</time>
      </trkpt>
      <trkpt lat="45.20752" lon="6.17881">
        <ele>2512.741</ele>
        <time>2022-07-17T09:39:59Z</time>
      </trkpt>
      <trkpt lat="45.20709" lon="6.1787">
        <ele>2509.431</ele>
        <time>2022-07-17T09:40:04Z</time>
      </trkpt>
      <trkpt lat="45.20679" lon="6.17871">
        <ele>2509.483</ele>
        <time>2022-07-17T09:40:09Z</time>
      </trkpt>
      <trkpt lat="45.20676" lon="6.17871">
        <ele>2510.225</ele>
        <time>2022-07-17T09:40:14Z</time>
      </trkpt>
      <trkpt lat="45.20674" lon="6.17872">
        <ele>2510.869</ele>
        <time>2022-07-17T09:40:19Z</time>
      </trkpt>
      <trkpt lat="45.20676" lon="6.1787">
        <ele>2510.586</ele>
        <time>2022-07-17T09:40:24Z</time>
      </trkpt>
      <trkpt lat="45.20677" lon="6.17871">
        <ele>2510.45</ele>
        <time>2022-07-17T09:40:29Z</time>
      </trkpt>
      <trkpt lat="45.20678" lon="6.1787">
        <ele>2510.564</ele>
        <time>2022-07-17T09:40:34Z</time>
      </trkpt>
      <trkpt lat="45.2068" lon="6.1787">
        <ele>2509.986</ele>
        <time>2022-07-17T09:40:39Z</time>
      </trkpt>
      <trkpt lat="45.20675" lon="6.17865">
        <ele>2507.872</ele>
        <time>2022-07-17T09:40:44Z</time>
      </trkpt>
      <trkpt lat="45.2066" lon="6.17852">
        <ele>2504.793</ele>
        <time>2022-07-17T09:40:49Z</time>
      </trkpt>
      <trkpt lat="45.20636" lon="6.1784">
        <ele>2502.47</ele>
        <time>2022-07-17T09:40:54Z</time>
      </trkpt>
      <trkpt lat="45.20618" lon="6.17833">
        <ele>2500.623</ele>
        <time>2022-07-17T09:40:59Z</time>
      </trkpt>
      <trkpt lat="45.206" lon="6.17826">
        <ele>2499.264</ele>
        <time>2022-07-17T09:41:04Z</time>
      </trkpt>
      <trkpt lat="45.2057" lon="6.17814">
        <ele>2496.231</ele>
        <time>2022-07-17T09:41:09Z</time>
      </trkpt>
      <trkpt lat="45.20535" lon="6.178">
        <ele>2492.165</ele>
        <time>2022-07-17T09:41:14Z</time>
      </trkpt>
      <trkpt lat="45.20501" lon="6.17792">
        <ele>2488.392</ele>
        <time>2022-07-17T09:41:19Z</time>
      </trkpt>
      <trkpt lat="45.20467" lon="6.17806">
        <ele>2483.965</ele>
        <time>2022-07-17T09:41:24Z</time>
      </trkpt>
      <trkpt lat="45.2045" lon="6.17794">
        <ele>2481.915</ele>
        <time>2022-07-17T09:41:29Z</time>
      </trkpt>
      <trkpt lat="45.20439" lon="6.17776">
        <ele>2480.335</ele>
        <time>2022-07-17T09:41:34Z</time>
      </trkpt>
      <trkpt lat="45.20433" lon="6.17768">
        <ele>2479.256</ele>
        <time>2022-07-17T09:41:39Z</time>
      </trkpt>
      <trkpt lat="45.20426" lon="6.17764">
        <ele>2478.081</ele>
        <time>2022-07-17T09:41:44Z</time>
      </trkpt>
      <trkpt lat="45.20413" lon="6.17766">
        <ele>2476.494</ele>
        <time>2022-07-17T09:41:49Z</time>
      </trkpt>
      <trkpt lat="45.20402" lon="6.17773">
        <ele>2474.691</ele>
        <time>2022-07-17T09:41:54Z</time>
      </trkpt>
      <trkpt lat="45.20395" lon="6.17778">
        <ele>2474.752</ele>
        <time>2022-07-17T09:41:59Z</time>
      </trkpt>
      <trkpt lat="45.20388" lon="6.17783">
        <ele>2475.337</ele>
        <time>2022-07-17T09:42:04Z</time>
      </trkpt>
      <trkpt lat="45.20387" lon="6.17794">
        <ele>2476.814</ele>
        <time>2022-07-17T09:42:09Z</time>
      </trkpt>
      <trkpt lat="45.20383" lon="6.17799">
        <ele>2477.746</ele>
        <time>2022-07-17T09:42:14Z</time>
      </trkpt>
      <trkpt lat="45.20383" lon="6.178">
        <ele>2477.473</ele>
        <time>2022-07-17T09:42:19Z</time>
      </trkpt>
      <trkpt lat="45.20383" lon="6.178">
        <ele>2476.923</ele>
        <time>2022-07-17T09:42:24Z</time>
      </trkpt>
      <trkpt lat="45.20383" lon="6.178">
        <ele>2477.98</ele>
        <time>2022-07-17T09:42:29Z</time>
      </trkpt>
      <trkpt lat="45.20383" lon="6.17799">
        <ele>2479.179</ele>
        <time>2022-07-17T09:42:34Z</time>
      </trkpt>
      <trkpt lat="45.20383" lon="6.178">
        <ele>2479.554</ele>
        <time>2022-07-17T09:42:39Z</time>
      </trkpt>
      <trkpt lat="45.20382" lon="6.17802">
        <ele>2479.615</ele>
        <time>2022-07-17T09:42:44Z</time>
      </trkpt>
      <trkpt lat="45.20381" lon="6.17801">
        <ele>2479.295</ele>
        <time>2022-07-17T09:42:49Z</time>
      </trkpt>
      <trkpt lat="45.20381" lon="6.178">
        <ele>2479.772</ele>
        <time>2022-07-17T09:42:54Z</time>
      </trkpt>
      <trkpt lat="45.20381" lon="6.178">
        <ele>2480.04</ele>
        <time>2022-07-17T09:42:59Z</time>
      </trkpt>
      <trkpt lat="45.20381" lon="6.178">
        <ele>2480.273</ele>
        <time>2022-07-17T09:43:04Z</time>
      </trkpt>
      <trkpt lat="45.20381" lon="6.178">
        <ele>2480.325</ele>
        <time>2022-07-17T09:43:09Z</time>
      </trkpt>
      <trkpt lat="45.20381" lon="6.178">
        <ele>2480.325</ele>
        <time>2022-07-17T09:43:14Z</time>
      </trkpt>
      <trkpt lat="45.20381" lon="6.178">
        <ele>2480.335</ele>
        <time>2022-07-17T09:43:19Z</time>
      </trkpt>
      <trkpt lat="45.20381" lon="6.178">
        <ele>2480.139</ele>
        <time>2022-07-17T09:43:24Z</time>
      </trkpt>
      <trkpt lat="45.20381" lon="6.178">
        <ele>2480.282</ele>
        <time>2022-07-17T09:43:29Z</time>
      </trkpt>
      <trkpt lat="45.20381" lon="6.178">
        <ele>2481.089</ele>
        <time>2022-07-17T09:43:34Z</time>
      </trkpt>
      <trkpt lat="45.20381" lon="6.178">
        <ele>2481.17</ele>
        <time>2022-07-17T09:43:39Z</time>
      </trkpt>
      <trkpt lat="45.20381" lon="6.178">
        <ele>2481.186</ele>
        <time>2022-07-17T09:43:44Z</time>
      </trkpt>
      <trkpt lat="45.20381" lon="6.178">
        <ele>2479.83</ele>
        <time>2022-07-17T09:43:49Z</time>
      </trkpt>
      <trkpt lat="45.20383" lon="6.178">
        <ele>2479.05</ele>
        <time>2022-07-17T09:43:54Z</time>
      </trkpt>
      <trkpt lat="45.20375" lon="6.178">
        <ele>2478.708</ele>
        <time>2022-07-17T09:43:59Z</time>
      </trkpt>
      <trkpt lat="45.20364" lon="6.17804">
        <ele>2478.275</ele>
        <time>2022-07-17T09:44:04Z</time>
      </trkpt>
      <trkpt lat="45.20354" lon="6.17806">
        <ele>2478.588</ele>
        <time>2022-07-17T09:44:09Z</time>
      </trkpt>
      <trkpt lat="45.20343" lon="6.17804">
        <ele>2478.248</ele>
        <time>2022-07-17T09:44:14Z</time>
      </trkpt>
      <trkpt lat="45.20333" lon="6.17799">
        <ele>2477.844</ele>
        <time>2022-07-17T09:44:19Z</time>
      </trkpt>
      <trkpt lat="45.20318" lon="6.17797">
        <ele>2476.888</ele>
        <time>2022-07-17T09:44:24Z</time>
      </trkpt>
      <trkpt lat="45.20304" lon="6.17792">
        <ele>2476.109</ele>
        <time>2022-07-17T09:44:29Z</time>
      </trkpt>
      <trkpt lat="45.2029" lon="6.17791">
        <ele>2474.803</ele>
        <time>2022-07-17T09:44:34Z</time>
      </trkpt>
      <trkpt lat="45.20276" lon="6.17791">
        <ele>2473.579</ele>
        <time>2022-07-17T09:44:39Z</time>
      </trkpt>
      <trkpt lat="45.20261" lon="6.17793">
        <ele>2472.943</ele>
        <time>2022-07-17T09:44:44Z</time>
      </trkpt>
      <trkpt lat="45.20244" lon="6.17799">
        <ele>2472.344</ele>
        <time>2022-07-17T09:44:49Z</time>
      </trkpt>
      <trkpt lat="45.20234" lon="6.17802">
        <ele>2471.992</ele>
        <time>2022-07-17T09:44:54Z</time>
      </trkpt>
      <trkpt lat="45.20226" lon="6.17805">
        <ele>2470.051</ele>
        <time>2022-07-17T09:44:59Z</time>
      </trkpt>
      <trkpt lat="45.20223" lon="6.17808">
        <ele>2468.909</ele>
        <time>2022-07-17T09:45:04Z</time>
      </trkpt>
      <trkpt lat="45.20217" lon="6.17811">
        <ele>2467.732</ele>
        <time>2022-07-17T09:45:09Z</time>
      </trkpt>
      <trkpt lat="45.20215" lon="6.17813">
        <ele>2466.528</ele>
        <time>2022-07-17T09:45:14Z</time>
      </trkpt>
      <trkpt lat="45.20214" lon="6.17813">
        <ele>2466.901</ele>
        <time>2022-07-17T09:45:19Z</time>
      </trkpt>
      <trkpt lat="45.20215" lon="6.17813">
        <ele>2467.319</ele>
        <time>2022-07-17T09:45:24Z</time>
      </trkpt>
      <trkpt lat="45.20211" lon="6.17814">
        <ele>2465.688</ele>
        <time>2022-07-17T09:45:29Z</time>
      </trkpt>
      <trkpt lat="45.20207" lon="6.17816">
        <ele>2465.309</ele>
        <time>2022-07-17T09:45:34Z</time>
      </trkpt>
      <trkpt lat="45.20202" lon="6.17818">
        <ele>2463.268</ele>
        <time>2022-07-17T09:45:39Z</time>
      </trkpt>
      <trkpt lat="45.20192" lon="6.17818">
        <ele>2460.67</ele>
        <time>2022-07-17T09:45:44Z</time>
      </trkpt>
      <trkpt lat="45.20181" lon="6.17821">
        <ele>2457.557</ele>
        <time>2022-07-17T09:45:49Z</time>
      </trkpt>
      <trkpt lat="45.20171" lon="6.1782">
        <ele>2457.723</ele>
        <time>2022-07-17T09:45:54Z</time>
      </trkpt>
      <trkpt lat="45.20171" lon="6.1782">
        <ele>2457.348</ele>
        <time>2022-07-17T09:45:59Z</time>
      </trkpt>
      <trkpt lat="45.20171" lon="6.17821">
        <ele>2456.965</ele>
        <time>2022-07-17T09:46:04Z</time>
      </trkpt>
      <trkpt lat="45.2017" lon="6.17821">
        <ele>2457.562</ele>
        <time>2022-07-17T09:46:09Z</time>
      </trkpt>
      <trkpt lat="45.2017" lon="6.17821">
        <ele>2457.558</ele>
        <time>2022-07-17T09:46:14Z</time>
      </trkpt>
      <trkpt lat="45.2017" lon="6.17821">
        <ele>2457.234</ele>
        <time>2022-07-17T09:46:19Z</time>
      </trkpt>
      <trkpt lat="45.20162" lon="6.17823">
        <ele>2455.656</ele>
        <time>2022-07-17T09:46:24Z</time>
      </trkpt>
      <trkpt lat="45.20159" lon="6.17825">
        <ele>2455.606</ele>
        <time>2022-07-17T09:46:29Z</time>
      </trkpt>
      <trkpt lat="45.20155" lon="6.17826">
        <ele>2455.89</ele>
        <time>2022-07-17T09:46:34Z</time>
      </trkpt>
      <trkpt lat="45.20151" lon="6.17827">
        <ele>2455.167</ele>
        <time>2022-07-17T09:46:39Z</time>
      </trkpt>
      <trkpt lat="45.20147" lon="6.1783">
        <ele>2454.566</ele>
        <time>2022-07-17T09:46:44Z</time>
      </trkpt>
      <trkpt lat="45.20144" lon="6.17835">
        <ele>2455.677</ele>
        <time>2022-07-17T09:46:49Z</time>
      </trkpt>
      <trkpt lat="45.2014" lon="6.17837">
        <ele>2456.236</ele>
        <time>2022-07-17T09:46:54Z</time>
      </trkpt>
      <trkpt lat="45.20135" lon="6.17838">
        <ele>2456.792</ele>
        <time>2022-07-17T09:46:59Z</time>
      </trkpt>
      <trkpt lat="45.20133" lon="6.17839">
        <ele>2456.957</ele>
        <time>2022-07-17T09:47:04Z</time>
      </trkpt>
      <trkpt lat="45.20129" lon="6.1784">
        <ele>2458.384</ele>
        <time>2022-07-17T09:47:09Z</time>
      </trkpt>
      <trkpt lat="45.20124" lon="6.17841">
        <ele>2458.162</ele>
        <time>2022-07-17T09:47:14Z</time>
      </trkpt>
      <trkpt lat="45.20122" lon="6.17841">
        <ele>2458.592</ele>
        <time>2022-07-17T09:47:19Z</time>
      </trkpt>
      <trkpt lat="45.20122" lon="6.1784">
        <ele>2458.556</ele>
        <time>2022-07-17T09:47:24Z</time>
      </trkpt>
      <trkpt lat="45.20116" lon="6.17839">
        <ele>2459.417</ele>
        <time>2022-07-17T09:47:29Z</time>
      </trkpt>
      <trkpt lat="45.20109" lon="6.1784">
        <ele>2460.829</ele>
        <time>2022-07-17T09:47:34Z</time>
      </trkpt>
      <trkpt lat="45.20102" lon="6.17841">
        <ele>2462.248</ele>
        <time>2022-07-17T09:47:39Z</time>
      </trkpt>
      <trkpt lat="45.20094" lon="6.17842">
        <ele>2462.561</ele>
        <time>2022-07-17T09:47:44Z</time>
      </trkpt>
      <trkpt lat="45.20084" lon="6.17841">
        <ele>2463.701</ele>
        <time>2022-07-17T09:47:49Z</time>
      </trkpt>
      <trkpt lat="45.20076" lon="6.17841">
        <ele>2464.453</ele>
        <time>2022-07-17T09:47:54Z</time>
      </trkpt>
      <trkpt lat="45.20065" lon="6.17838">
        <ele>2464.154</ele>
        <time>2022-07-17T09:47:59Z</time>
      </trkpt>
      <trkpt lat="45.20057" lon="6.17839">
        <ele>2464.208</ele>
        <time>2022-07-17T09:48:04Z</time>
      </trkpt>
      <trkpt lat="45.2005" lon="6.17838">
        <ele>2464.065</ele>
        <time>2022-07-17T09:48:09Z</time>
      </trkpt>
      <trkpt lat="45.2004" lon="6.17837">
        <ele>2464.982</ele>
        <time>2022-07-17T09:48:14Z</time>
      </trkpt>
      <trkpt lat="45.2003" lon="6.17836">
        <ele>2465.376</ele>
        <time>2022-07-17T09:48:19Z</time>
      </trkpt>
      <trkpt lat="45.2002" lon="6.17835">
        <ele>2466.602</ele>
        <time>2022-07-17T09:48:24Z</time>
      </trkpt>
      <trkpt lat="45.20011" lon="6.17831">
        <ele>2458.414</ele>
        <time>2022-07-17T09:48:29Z</time>
      </trkpt>
      <trkpt lat="45.19998" lon="6.17827">
        <ele>2457.599</ele>
        <time>2022-07-17T09:48:34Z</time>
      </trkpt>
      <trkpt lat="45.19987" lon="6.17823">
        <ele>2458.679</ele>
        <time>2022-07-17T09:48:39Z</time>
      </trkpt>
      <trkpt lat="45.19976" lon="6.1782">
        <ele>2462.32</ele>
        <time>2022-07-17T09:48:44Z</time>
      </trkpt>
      <trkpt lat="45.19966" lon="6.17817">
        <ele>2464.523</ele>
        <time>2022-07-17T09:48:49Z</time>
      </trkpt>
      <trkpt lat="45.19955" lon="6.17813">
        <ele>2466.123</ele>
        <time>2022-07-17T09:48:54Z</time>
      </trkpt>
      <trkpt lat="45.19945" lon="6.1781">
        <ele>2466.702</ele>
        <time>2022-07-17T09:48:59Z</time>
      </trkpt>
      <trkpt lat="45.19937" lon="6.17808">
        <ele>2467.101</ele>
        <time>2022-07-17T09:49:04Z</time>
      </trkpt>
      <trkpt lat="45.19928" lon="6.17804">
        <ele>2467.852</ele>
        <time>2022-07-17T09:49:09Z</time>
      </trkpt>
      <trkpt lat="45.1992" lon="6.17802">
        <ele>2470.429</ele>
        <time>2022-07-17T09:49:14Z</time>
      </trkpt>
      <trkpt lat="45.19912" lon="6.17799">
        <ele>2471.502</ele>
        <time>2022-07-17T09:49:19Z</time>
      </trkpt>
      <trkpt lat="45.19904" lon="6.17795">
        <ele>2472.638</ele>
        <time>2022-07-17T09:49:24Z</time>
      </trkpt>
      <trkpt lat="45.19896" lon="6.17793">
        <ele>2473.593</ele>
        <time>2022-07-17T09:49:29Z</time>
      </trkpt>
      <trkpt lat="45.19887" lon="6.17793">
        <ele>2473.89</ele>
        <time>2022-07-17T09:49:34Z</time>
      </trkpt>
      <trkpt lat="45.19881" lon="6.17786">
        <ele>2476.479</ele>
        <time>2022-07-17T09:49:39Z</time>
      </trkpt>
      <trkpt lat="45.19874" lon="6.1778">
        <ele>2475.958</ele>
        <time>2022-07-17T09:49:44Z</time>
      </trkpt>
      <trkpt lat="45.19863" lon="6.17766">
        <ele>2473.512</ele>
        <time>2022-07-17T09:49:49Z</time>
      </trkpt>
      <trkpt lat="45.19851" lon="6.17751">
        <ele>2472.568</ele>
        <time>2022-07-17T09:49:54Z</time>
      </trkpt>
      <trkpt lat="45.19838" lon="6.17731">
        <ele>2469.513</ele>
        <time>2022-07-17T09:49:59Z</time>
      </trkpt>
      <trkpt lat="45.19826" lon="6.17717">
        <ele>2469.131</ele>
        <time>2022-07-17T09:50:04Z</time>
      </trkpt>
      <trkpt lat="45.19811" lon="6.17696">
        <ele>2469.975</ele>
        <time>2022-07-17T09:50:09Z</time>
      </trkpt>
      <trkpt lat="45.19805" lon="6.17689">
        <ele>2470.477</ele>
        <time>2022-07-17T09:50:14Z</time>
      </trkpt>
      <trkpt lat="45.198" lon="6.17679">
        <ele>2472.451</ele>
        <time>2022-07-17T09:50:19Z</time>
      </trkpt>
      <trkpt lat="45.19791" lon="6.17665">
        <ele>2465.111</ele>
        <time>2022-07-17T09:50:24Z</time>
      </trkpt>
      <trkpt lat="45.19776" lon="6.17653">
        <ele>2469.931</ele>
        <time>2022-07-17T09:50:29Z</time>
      </trkpt>
      <trkpt lat="45.19768" lon="6.17637">
        <ele>2468.235</ele>
        <time>2022-07-17T09:50:34Z</time>
      </trkpt>
      <trkpt lat="45.19753" lon="6.17619">
        <ele>2468.004</ele>
        <time>2022-07-17T09:50:39Z</time>
      </trkpt>
      <trkpt lat="45.19741" lon="6.17604">
        <ele>2469.338</ele>
        <time>2022-07-17T09:50:44Z</time>
      </trkpt>
      <trkpt lat="45.19731" lon="6.17591">
        <ele>2469.049</ele>
        <time>2022-07-17T09:50:49Z</time>
      </trkpt>
      <trkpt lat="45.1972" lon="6.17579">
        <ele>2469.016</ele>
        <time>2022-07-17T09:50:54Z</time>
      </trkpt>
      <trkpt lat="45.1971" lon="6.17571">
        <ele>2469.436</ele>
        <time>2022-07-17T09:50:59Z</time>
      </trkpt>
      <trkpt lat="45.19701" lon="6.17565">
        <ele>2470.753</ele>
        <time>2022-07-17T09:51:04Z</time>
      </trkpt>
      <trkpt lat="45.19694" lon="6.17561">
        <ele>2471.608</ele>
        <time>2022-07-17T09:51:09Z</time>
      </trkpt>
      <trkpt lat="45.19685" lon="6.17555">
        <ele>2472.847</ele>
        <time>2022-07-17T09:51:14Z</time>
      </trkpt>
      <trkpt lat="45.19677" lon="6.17548">
        <ele>2472.869</ele>
        <time>2022-07-17T09:51:19Z</time>
      </trkpt>
      <trkpt lat="45.19669" lon="6.17543">
        <ele>2475.311</ele>
        <time>2022-07-17T09:51:24Z</time>
      </trkpt>
      <trkpt lat="45.19668" lon="6.17542">
        <ele>2475.639</ele>
        <time>2022-07-17T09:51:29Z</time>
      </trkpt>
      <trkpt lat="45.19668" lon="6.17542">
        <ele>2475.913</ele>
        <time>2022-07-17T09:51:34Z</time>
      </trkpt>
      <trkpt lat="45.19668" lon="6.17541">
        <ele>2475.913</ele>
        <time>2022-07-17T09:51:39Z</time>
      </trkpt>
      <trkpt lat="45.19667" lon="6.1754">
        <ele>2475.875</ele>
        <time>2022-07-17T09:51:44Z</time>
      </trkpt>
      <trkpt lat="45.19662" lon="6.17534">
        <ele>2476.726</ele>
        <time>2022-07-17T09:51:49Z</time>
      </trkpt>
      <trkpt lat="45.19658" lon="6.17533">
        <ele>2477.344</ele>
        <time>2022-07-17T09:51:54Z</time>
      </trkpt>
      <trkpt lat="45.19654" lon="6.17532">
        <ele>2478.863</ele>
        <time>2022-07-17T09:51:59Z</time>
      </trkpt>
      <trkpt lat="45.19652" lon="6.17528">
        <ele>2479.508</ele>
        <time>2022-07-17T09:52:04Z</time>
      </trkpt>
      <trkpt lat="45.19648" lon="6.17527">
        <ele>2479.803</ele>
        <time>2022-07-17T09:52:09Z</time>
      </trkpt>
      <trkpt lat="45.19642" lon="6.17522">
        <ele>2480.253</ele>
        <time>2022-07-17T09:52:14Z</time>
      </trkpt>
      <trkpt lat="45.19635" lon="6.1752">
        <ele>2482.125</ele>
        <time>2022-07-17T09:52:19Z</time>
      </trkpt>
      <trkpt lat="45.19628" lon="6.17517">
        <ele>2479.328</ele>
        <time>2022-07-17T09:52:24Z</time>
      </trkpt>
      <trkpt lat="45.19618" lon="6.17514">
        <ele>2479.199</ele>
        <time>2022-07-17T09:52:29Z</time>
      </trkpt>
      <trkpt lat="45.19611" lon="6.17515">
        <ele>2480.052</ele>
        <time>2022-07-17T09:52:34Z</time>
      </trkpt>
      <trkpt lat="45.19602" lon="6.17514">
        <ele>2480.906</ele>
        <time>2022-07-17T09:52:39Z</time>
      </trkpt>
      <trkpt lat="45.19595" lon="6.17514">
        <ele>2481.849</ele>
        <time>2022-07-17T09:52:44Z</time>
      </trkpt>
      <trkpt lat="45.19588" lon="6.17517">
        <ele>2481.274</ele>
        <time>2022-07-17T09:52:49Z</time>
      </trkpt>
      <trkpt lat="45.1958" lon="6.17521">
        <ele>2479.502</ele>
        <time>2022-07-17T09:52:54Z</time>
      </trkpt>
      <trkpt lat="45.19562" lon="6.17531">
        <ele>2479.868</ele>
        <time>2022-07-17T09:52:59Z</time>
      </trkpt>
      <trkpt lat="45.19553" lon="6.17535">
        <ele>2479.658</ele>
        <time>2022-07-17T09:53:04Z</time>
      </trkpt>
      <trkpt lat="45.19548" lon="6.17544">
        <ele>2480.178</ele>
        <time>2022-07-17T09:53:09Z</time>
      </trkpt>
      <trkpt lat="45.19547" lon="6.17546">
        <ele>2481.362</ele>
        <time>2022-07-17T09:53:14Z</time>
      </trkpt>
      <trkpt lat="45.19546" lon="6.17549">
        <ele>2482.001</ele>
        <time>2022-07-17T09:53:19Z</time>
      </trkpt>
      <trkpt lat="45.19546" lon="6.17549">
        <ele>2483.8</ele>
        <time>2022-07-17T09:53:24Z</time>
      </trkpt>
      <trkpt lat="45.19546" lon="6.17549">
        <ele>2484.113</ele>
        <time>2022-07-17T09:53:29Z</time>
      </trkpt>
      <trkpt lat="45.19546" lon="6.17549">
        <ele>2484.548</ele>
        <time>2022-07-17T09:53:34Z</time>
      </trkpt>
      <trkpt lat="45.19546" lon="6.17549">
        <ele>2484.642</ele>
        <time>2022-07-17T09:53:39Z</time>
      </trkpt>
      <trkpt lat="45.19546" lon="6.17549">
        <ele>2484.637</ele>
        <time>2022-07-17T09:53:44Z</time>
      </trkpt>
      <trkpt lat="45.19546" lon="6.17549">
        <ele>2484.644</ele>
        <time>2022-07-17T09:53:49Z</time>
      </trkpt>
      <trkpt lat="45.19546" lon="6.17548">
        <ele>2483.08</ele>
        <time>2022-07-17T09:53:54Z</time>
      </trkpt>
      <trkpt lat="45.19548" lon="6.17546">
        <ele>2482.933</ele>
        <time>2022-07-17T09:53:59Z</time>
      </trkpt>
      <trkpt lat="45.19546" lon="6.17546">
        <ele>2482.651</ele>
        <time>2022-07-17T09:54:04Z</time>
      </trkpt>
      <trkpt lat="45.1954" lon="6.17554">
        <ele>2481.936</ele>
        <time>2022-07-17T09:54:09Z</time>
      </trkpt>
      <trkpt lat="45.19532" lon="6.17578">
        <ele>2480.711</ele>
        <time>2022-07-17T09:54:14Z</time>
      </trkpt>
      <trkpt lat="45.19525" lon="6.17603">
        <ele>2481.821</ele>
        <time>2022-07-17T09:54:19Z</time>
      </trkpt>
      <trkpt lat="45.19515" lon="6.17628">
        <ele>2479.457</ele>
        <time>2022-07-17T09:54:24Z</time>
      </trkpt>
      <trkpt lat="45.19508" lon="6.17649">
        <ele>2479.645</ele>
        <time>2022-07-17T09:54:29Z</time>
      </trkpt>
      <trkpt lat="45.19499" lon="6.17673">
        <ele>2479.793</ele>
        <time>2022-07-17T09:54:34Z</time>
      </trkpt>
      <trkpt lat="45.19492" lon="6.1769">
        <ele>2478.972</ele>
        <time>2022-07-17T09:54:39Z</time>
      </trkpt>
      <trkpt lat="45.19483" lon="6.17706">
        <ele>2478.362</ele>
        <time>2022-07-17T09:54:44Z</time>
      </trkpt>
      <trkpt lat="45.19475" lon="6.17719">
        <ele>2477.628</ele>
        <time>2022-07-17T09:54:49Z</time>
      </trkpt>
      <trkpt lat="45.19468" lon="6.1772">
        <ele>2477.838</ele>
        <time>2022-07-17T09:54:54Z</time>
      </trkpt>
      <trkpt lat="45.19465" lon="6.17718">
        <ele>2479.202</ele>
        <time>2022-07-17T09:54:59Z</time>
      </trkpt>
      <trkpt lat="45.19465" lon="6.17719">
        <ele>2479.855</ele>
        <time>2022-07-17T09:55:04Z</time>
      </trkpt>
      <trkpt lat="45.19465" lon="6.17719">
        <ele>2479.848</ele>
        <time>2022-07-17T09:55:09Z</time>
      </trkpt>
      <trkpt lat="45.19465" lon="6.17719">
        <ele>2479.783</ele>
        <time>2022-07-17T09:55:14Z</time>
      </trkpt>
      <trkpt lat="45.19465" lon="6.17719">
        <ele>2479.783</ele>
        <time>2022-07-17T09:55:19Z</time>
      </trkpt>
      <trkpt lat="45.19465" lon="6.17719">
        <ele>2479.785</ele>
        <time>2022-07-17T09:55:24Z</time>
      </trkpt>
      <trkpt lat="45.19465" lon="6.17719">
        <ele>2479.784</ele>
        <time>2022-07-17T09:55:29Z</time>
      </trkpt>
      <trkpt lat="45.19465" lon="6.17719">
        <ele>2479.79</ele>
        <time>2022-07-17T09:55:34Z</time>
      </trkpt>
      <trkpt lat="45.19465" lon="6.17719">
        <ele>2479.783</ele>
        <time>2022-07-17T09:55:39Z</time>
      </trkpt>
      <trkpt lat="45.19465" lon="6.17719">
        <ele>2479.781</ele>
        <time>2022-07-17T09:55:44Z</time>
      </trkpt>
      <trkpt lat="45.19465" lon="6.17719">
        <ele>2479.788</ele>
        <time>2022-07-17T09:55:49Z</time>
      </trkpt>
      <trkpt lat="45.19465" lon="6.17719">
        <ele>2479.795</ele>
        <time>2022-07-17T09:55:54Z</time>
      </trkpt>
      <trkpt lat="45.19465" lon="6.17719">
        <ele>2479.796</ele>
        <time>2022-07-17T09:55:59Z</time>
      </trkpt>
      <trkpt lat="45.19465" lon="6.17719">
        <ele>2479.796</ele>
        <time>2022-07-17T09:56:04Z</time>
      </trkpt>
      <trkpt lat="45.19465" lon="6.17719">
        <ele>2479.795</ele>
        <time>2022-07-17T09:56:09Z</time>
      </trkpt>
      <trkpt lat="45.19465" lon="6.17717">
        <ele>2480.886</ele>
        <time>2022-07-17T09:56:14Z</time>
      </trkpt>
      <trkpt lat="45.19465" lon="6.17718">
        <ele>2481.115</ele>
        <time>2022-07-17T09:56:19Z</time>
      </trkpt>
      <trkpt lat="45.19465" lon="6.17718">
        <ele>2481.313</ele>
        <time>2022-07-17T09:56:24Z</time>
      </trkpt>
      <trkpt lat="45.19465" lon="6.17718">
        <ele>2481.327</ele>
        <time>2022-07-17T09:56:29Z</time>
      </trkpt>
      <trkpt lat="45.19465" lon="6.17718">
        <ele>2481.328</ele>
        <time>2022-07-17T09:56:34Z</time>
      </trkpt>
      <trkpt lat="45.19465" lon="6.17718">
        <ele>2481.329</ele>
        <time>2022-07-17T09:56:39Z</time>
      </trkpt>
      <trkpt lat="45.19465" lon="6.17718">
        <ele>2481.334</ele>
        <time>2022-07-17T09:56:44Z</time>
      </trkpt>
      <trkpt lat="45.19465" lon="6.17717">
        <ele>2481.655</ele>
        <time>2022-07-17T09:56:49Z</time>
      </trkpt>
      <trkpt lat="45.19465" lon="6.17717">
        <ele>2480.429</ele>
        <time>2022-07-17T09:56:54Z</time>
      </trkpt>
      <trkpt lat="45.19464" lon="6.17717">
        <ele>2480.003</ele>
        <time>2022-07-17T09:56:59Z</time>
      </trkpt>
      <trkpt lat="45.19464" lon="6.17717">
        <ele>2480.553</ele>
        <time>2022-07-17T09:57:04Z</time>
      </trkpt>
      <trkpt lat="45.19464" lon="6.17717">
        <ele>2480.596</ele>
        <time>2022-07-17T09:57:09Z</time>
      </trkpt>
      <trkpt lat="45.19464" lon="6.17717">
        <ele>2480.591</ele>
        <time>2022-07-17T09:57:14Z</time>
      </trkpt>
      <trkpt lat="45.19464" lon="6.17717">
        <ele>2480.589</ele>
        <time>2022-07-17T09:57:19Z</time>
      </trkpt>
      <trkpt lat="45.19464" lon="6.17717">
        <ele>2480.586</ele>
        <time>2022-07-17T09:57:24Z</time>
      </trkpt>
      <trkpt lat="45.19464" lon="6.17717">
        <ele>2480.583</ele>
        <time>2022-07-17T09:57:29Z</time>
      </trkpt>
      <trkpt lat="45.19464" lon="6.17717">
        <ele>2480.58</ele>
        <time>2022-07-17T09:57:34Z</time>
      </trkpt>
      <trkpt lat="45.19464" lon="6.17717">
        <ele>2480.58</ele>
        <time>2022-07-17T09:57:39Z</time>
      </trkpt>
      <trkpt lat="45.19464" lon="6.17717">
        <ele>2480.581</ele>
        <time>2022-07-17T09:57:44Z</time>
      </trkpt>
      <trkpt lat="45.19464" lon="6.17717">
        <ele>2480.579</ele>
        <time>2022-07-17T09:57:49Z</time>
      </trkpt>
      <trkpt lat="45.19464" lon="6.17717">
        <ele>2480.577</ele>
        <time>2022-07-17T09:57:54Z</time>
      </trkpt>
      <trkpt lat="45.19464" lon="6.17717">
        <ele>2480.575</ele>
        <time>2022-07-17T09:57:59Z</time>
      </trkpt>
      <trkpt lat="45.19464" lon="6.17717">
        <ele>2480.571</ele>
        <time>2022-07-17T09:58:04Z</time>
      </trkpt>
      <trkpt lat="45.19464" lon="6.17717">
        <ele>2480.566</ele>
        <time>2022-07-17T09:58:09Z</time>
      </trkpt>
      <trkpt lat="45.19464" lon="6.17717">
        <ele>2480.563</ele>
        <time>2022-07-17T09:58:14Z</time>
      </trkpt>
      <trkpt lat="45.19464" lon="6.17717">
        <ele>2480.557</ele>
        <time>2022-07-17T09:58:19Z</time>
      </trkpt>
      <trkpt lat="45.19464" lon="6.17717">
        <ele>2480.558</ele>
        <time>2022-07-17T09:58:24Z</time>
      </trkpt>
      <trkpt lat="45.19464" lon="6.17717">
        <ele>2480.559</ele>
        <time>2022-07-17T09:58:29Z</time>
      </trkpt>
      <trkpt lat="45.19464" lon="6.17717">
        <ele>2480.56</ele>
        <time>2022-07-17T09:58:34Z</time>
      </trkpt>
      <trkpt lat="45.19464" lon="6.17717">
        <ele>2480.557</ele>
        <time>2022-07-17T09:58:39Z</time>
      </trkpt>
      <trkpt lat="45.19464" lon="6.17717">
        <ele>2480.558</ele>
        <time>2022-07-17T09:58:44Z</time>
      </trkpt>
      <trkpt lat="45.19464" lon="6.17717">
        <ele>2480.558</ele>
        <time>2022-07-17T09:58:49Z</time>
      </trkpt>
      <trkpt lat="45.19464" lon="6.17717">
        <ele>2480.555</ele>
        <time>2022-07-17T09:58:54Z</time>
      </trkpt>
      <trkpt lat="45.19464" lon="6.17717">
        <ele>2480.558</ele>
        <time>2022-07-17T09:58:59Z</time>
      </trkpt>
      <trkpt lat="45.19464" lon="6.17717">
        <ele>2480.557</ele>
        <time>2022-07-17T09:59:04Z</time>
      </trkpt>
      <trkpt lat="45.19464" lon="6.17717">
        <ele>2480.559</ele>
        <time>2022-07-17T09:59:09Z</time>
      </trkpt>
      <trkpt lat="45.19464" lon="6.17717">
        <ele>2480.563</ele>
        <time>2022-07-17T09:59:14Z</time>
      </trkpt>
      <trkpt lat="45.19464" lon="6.17717">
        <ele>2480.561</ele>
        <time>2022-07-17T09:59:19Z</time>
      </trkpt>
      <trkpt lat="45.19464" lon="6.17717">
        <ele>2480.563</ele>
        <time>2022-07-17T09:59:24Z</time>
      </trkpt>
      <trkpt lat="45.19464" lon="6.17717">
        <ele>2480.561</ele>
        <time>2022-07-17T09:59:29Z</time>
      </trkpt>
      <trkpt lat="45.19464" lon="6.17717">
        <ele>2480.56</ele>
        <time>2022-07-17T09:59:34Z</time>
      </trkpt>
      <trkpt lat="45.19464" lon="6.17717">
        <ele>2480.563</ele>
        <time>2022-07-17T09:59:39Z</time>
      </trkpt>
      <trkpt lat="45.19464" lon="6.17717">
        <ele>2480.562</ele>
        <time>2022-07-17T09:59:44Z</time>
      </trkpt>
      <trkpt lat="45.19464" lon="6.17717">
        <ele>2480.557</ele>
        <time>2022-07-17T09:59:49Z</time>
      </trkpt>
      <trkpt lat="45.19464" lon="6.17717">
        <ele>2480.559</ele>
        <time>2022-07-17T09:59:54Z</time>
      </trkpt>
      <trkpt lat="45.19464" lon="6.17717">
        <ele>2480.557</ele>
        <time>2022-07-17T09:59:59Z</time>
      </trkpt>
      <trkpt lat="45.19464" lon="6.17717">
        <ele>2480.558</ele>
        <time>2022-07-17T10:00:04Z</time>
      </trkpt>
      <trkpt lat="45.19464" lon="6.17717">
        <ele>2480.555</ele>
        <time>2022-07-17T10:00:09Z</time>
      </trkpt>
      <trkpt lat="45.19464" lon="6.17717">
        <ele>2480.552</ele>
        <time>2022-07-17T10:00:14Z</time>
      </trkpt>
      <trkpt lat="45.19464" lon="6.17717">
        <ele>2480.551</ele>
        <time>2022-07-17T10:00:19Z</time>
      </trkpt>
      <trkpt lat="45.19464" lon="6.17717">
        <ele>2480.551</ele>
        <time>2022-07-17T10:00:24Z</time>
      </trkpt>
      <trkpt lat="45.19464" lon="6.17717">
        <ele>2480.548</ele>
        <time>2022-07-17T10:00:29Z</time>
      </trkpt>
      <trkpt lat="45.19464" lon="6.17717">
        <ele>2480.548</ele>
        <time>2022-07-17T10:00:34Z</time>
      </trkpt>
      <trkpt lat="45.19464" lon="6.17717">
        <ele>2480.544</ele>
        <time>2022-07-17T10:00:39Z</time>
      </trkpt>
      <trkpt lat="45.19463" lon="6.17717">
        <ele>2480.374</ele>
        <time>2022-07-17T10:00:44Z</time>
      </trkpt>
      <trkpt lat="45.19463" lon="6.17717">
        <ele>2480.561</ele>
        <time>2022-07-17T10:00:49Z</time>
      </trkpt>
      <trkpt lat="45.19463" lon="6.17717">
        <ele>2480.431</ele>
        <time>2022-07-17T10:00:54Z</time>
      </trkpt>
      <trkpt lat="45.19463" lon="6.17717">
        <ele>2480.43</ele>
        <time>2022-07-17T10:00:59Z</time>
      </trkpt>
      <trkpt lat="45.19463" lon="6.17717">
        <ele>2480.428</ele>
        <time>2022-07-17T10:01:04Z</time>
      </trkpt>
      <trkpt lat="45.19463" lon="6.17717">
        <ele>2480.428</ele>
        <time>2022-07-17T10:01:09Z</time>
      </trkpt>
      <trkpt lat="45.19463" lon="6.17717">
        <ele>2480.43</ele>
        <time>2022-07-17T10:01:14Z</time>
      </trkpt>
      <trkpt lat="45.19463" lon="6.17717">
        <ele>2480.432</ele>
        <time>2022-07-17T10:01:19Z</time>
      </trkpt>
      <trkpt lat="45.19463" lon="6.17717">
        <ele>2480.429</ele>
        <time>2022-07-17T10:01:24Z</time>
      </trkpt>
      <trkpt lat="45.19463" lon="6.17717">
        <ele>2480.425</ele>
        <time>2022-07-17T10:01:29Z</time>
      </trkpt>
      <trkpt lat="45.19463" lon="6.17717">
        <ele>2480.425</ele>
        <time>2022-07-17T10:01:34Z</time>
      </trkpt>
      <trkpt lat="45.19463" lon="6.17717">
        <ele>2480.427</ele>
        <time>2022-07-17T10:01:39Z</time>
      </trkpt>
      <trkpt lat="45.19463" lon="6.17717">
        <ele>2480.428</ele>
        <time>2022-07-17T10:01:44Z</time>
      </trkpt>
      <trkpt lat="45.19463" lon="6.17717">
        <ele>2480.43</ele>
        <time>2022-07-17T10:01:49Z</time>
      </trkpt>
      <trkpt lat="45.19463" lon="6.17717">
        <ele>2480.427</ele>
        <time>2022-07-17T10:01:54Z</time>
      </trkpt>
      <trkpt lat="45.19463" lon="6.17717">
        <ele>2480.425</ele>
        <time>2022-07-17T10:01:59Z</time>
      </trkpt>
      <trkpt lat="45.19463" lon="6.17717">
        <ele>2480.422</ele>
        <time>2022-07-17T10:02:04Z</time>
      </trkpt>
      <trkpt lat="45.19463" lon="6.17717">
        <ele>2480.418</ele>
        <time>2022-07-17T10:02:09Z</time>
      </trkpt>
      <trkpt lat="45.19463" lon="6.17717">
        <ele>2480.415</ele>
        <time>2022-07-17T10:02:14Z</time>
      </trkpt>
      <trkpt lat="45.19463" lon="6.17717">
        <ele>2480.416</ele>
        <time>2022-07-17T10:02:19Z</time>
      </trkpt>
      <trkpt lat="45.19463" lon="6.17717">
        <ele>2480.414</ele>
        <time>2022-07-17T10:02:24Z</time>
      </trkpt>
      <trkpt lat="45.19463" lon="6.17717">
        <ele>2480.411</ele>
        <time>2022-07-17T10:02:29Z</time>
      </trkpt>
      <trkpt lat="45.19463" lon="6.17717">
        <ele>2480.412</ele>
        <time>2022-07-17T10:02:34Z</time>
      </trkpt>
      <trkpt lat="45.19463" lon="6.17717">
        <ele>2480.409</ele>
        <time>2022-07-17T10:02:39Z</time>
      </trkpt>
      <trkpt lat="45.19463" lon="6.17717">
        <ele>2480.408</ele>
        <time>2022-07-17T10:02:44Z</time>
      </trkpt>
      <trkpt lat="45.19463" lon="6.17717">
        <ele>2480.411</ele>
        <time>2022-07-17T10:02:49Z</time>
      </trkpt>
      <trkpt lat="45.19463" lon="6.17717">
        <ele>2480.409</ele>
        <time>2022-07-17T10:02:54Z</time>
      </trkpt>
      <trkpt lat="45.19463" lon="6.17717">
        <ele>2480.406</ele>
        <time>2022-07-17T10:02:59Z</time>
      </trkpt>
      <trkpt lat="45.19463" lon="6.17717">
        <ele>2480.405</ele>
        <time>2022-07-17T10:03:04Z</time>
      </trkpt>
      <trkpt lat="45.19463" lon="6.17717">
        <ele>2480.406</ele>
        <time>2022-07-17T10:03:09Z</time>
      </trkpt>
      <trkpt lat="45.19463" lon="6.17717">
        <ele>2480.401</ele>
        <time>2022-07-17T10:03:14Z</time>
      </trkpt>
      <trkpt lat="45.19462" lon="6.17714">
        <ele>2480.299</ele>
        <time>2022-07-17T10:03:19Z</time>
      </trkpt>
      <trkpt lat="45.19458" lon="6.17708">
        <ele>2480.585</ele>
        <time>2022-07-17T10:03:24Z</time>
      </trkpt>
      <trkpt lat="45.19455" lon="6.17708">
        <ele>2481.093</ele>
        <time>2022-07-17T10:03:29Z</time>
      </trkpt>
      <trkpt lat="45.19448" lon="6.17704">
        <ele>2481.691</ele>
        <time>2022-07-17T10:03:34Z</time>
      </trkpt>
      <trkpt lat="45.19444" lon="6.17694">
        <ele>2482.261</ele>
        <time>2022-07-17T10:03:39Z</time>
      </trkpt>
      <trkpt lat="45.19436" lon="6.17685">
        <ele>2482.23</ele>
        <time>2022-07-17T10:03:44Z</time>
      </trkpt>
      <trkpt lat="45.19429" lon="6.17679">
        <ele>2483.167</ele>
        <time>2022-07-17T10:03:49Z</time>
      </trkpt>
      <trkpt lat="45.19423" lon="6.17671">
        <ele>2483.746</ele>
        <time>2022-07-17T10:03:54Z</time>
      </trkpt>
      <trkpt lat="45.19417" lon="6.17664">
        <ele>2485.294</ele>
        <time>2022-07-17T10:03:59Z</time>
      </trkpt>
      <trkpt lat="45.19409" lon="6.17658">
        <ele>2486.185</ele>
        <time>2022-07-17T10:04:04Z</time>
      </trkpt>
      <trkpt lat="45.19408" lon="6.17657">
        <ele>2487.18</ele>
        <time>2022-07-17T10:04:09Z</time>
      </trkpt>
      <trkpt lat="45.19406" lon="6.17656">
        <ele>2487.454</ele>
        <time>2022-07-17T10:04:14Z</time>
      </trkpt>
      <trkpt lat="45.19401" lon="6.17651">
        <ele>2486.456</ele>
        <time>2022-07-17T10:04:19Z</time>
      </trkpt>
      <trkpt lat="45.19396" lon="6.17646">
        <ele>2487.163</ele>
        <time>2022-07-17T10:04:24Z</time>
      </trkpt>
      <trkpt lat="45.19391" lon="6.17642">
        <ele>2485.886</ele>
        <time>2022-07-17T10:04:29Z</time>
      </trkpt>
      <trkpt lat="45.19387" lon="6.17638">
        <ele>2486.612</ele>
        <time>2022-07-17T10:04:34Z</time>
      </trkpt>
      <trkpt lat="45.19379" lon="6.17634">
        <ele>2486.717</ele>
        <time>2022-07-17T10:04:39Z</time>
      </trkpt>
      <trkpt lat="45.19373" lon="6.17627">
        <ele>2488.356</ele>
        <time>2022-07-17T10:04:44Z</time>
      </trkpt>
      <trkpt lat="45.19366" lon="6.17622">
        <ele>2489.066</ele>
        <time>2022-07-17T10:04:49Z</time>
      </trkpt>
      <trkpt lat="45.19358" lon="6.17618">
        <ele>2490.236</ele>
        <time>2022-07-17T10:04:54Z</time>
      </trkpt>
      <trkpt lat="45.19351" lon="6.17615">
        <ele>2490.119</ele>
        <time>2022-07-17T10:04:59Z</time>
      </trkpt>
      <trkpt lat="45.19345" lon="6.17613">
        <ele>2489.636</ele>
        <time>2022-07-17T10:05:04Z</time>
      </trkpt>
      <trkpt lat="45.19338" lon="6.17613">
        <ele>2490.394</ele>
        <time>2022-07-17T10:05:09Z</time>
      </trkpt>
      <trkpt lat="45.19332" lon="6.17615">
        <ele>2491.449</ele>
        <time>2022-07-17T10:05:14Z</time>
      </trkpt>
      <trkpt lat="45.19326" lon="6.17618">
        <ele>2492.273</ele>
        <time>2022-07-17T10:05:19Z</time>
      </trkpt>
      <trkpt lat="45.19317" lon="6.17622">
        <ele>2491.4</ele>
        <time>2022-07-17T10:05:24Z</time>
      </trkpt>
      <trkpt lat="45.19308" lon="6.17622">
        <ele>2490.995</ele>
        <time>2022-07-17T10:05:29Z</time>
      </trkpt>
      <trkpt lat="45.193" lon="6.17622">
        <ele>2492.771</ele>
        <time>2022-07-17T10:05:34Z</time>
      </trkpt>
      <trkpt lat="45.19293" lon="6.17626">
        <ele>2493.632</ele>
        <time>2022-07-17T10:05:39Z</time>
      </trkpt>
      <trkpt lat="45.19285" lon="6.17629">
        <ele>2493.029</ele>
        <time>2022-07-17T10:05:44Z</time>
      </trkpt>
      <trkpt lat="45.19278" lon="6.17629">
        <ele>2493.213</ele>
        <time>2022-07-17T10:05:49Z</time>
      </trkpt>
      <trkpt lat="45.19273" lon="6.17634">
        <ele>2492.694</ele>
        <time>2022-07-17T10:05:54Z</time>
      </trkpt>
      <trkpt lat="45.19268" lon="6.17638">
        <ele>2494.224</ele>
        <time>2022-07-17T10:05:59Z</time>
      </trkpt>
      <trkpt lat="45.1926" lon="6.17638">
        <ele>2495.43</ele>
        <time>2022-07-17T10:06:04Z</time>
      </trkpt>
      <trkpt lat="45.19255" lon="6.17641">
        <ele>2496.609</ele>
        <time>2022-07-17T10:06:09Z</time>
      </trkpt>
      <trkpt lat="45.19258" lon="6.1764">
        <ele>2496.589</ele>
        <time>2022-07-17T10:06:14Z</time>
      </trkpt>
      <trkpt lat="45.19254" lon="6.17642">
        <ele>2496.939</ele>
        <time>2022-07-17T10:06:19Z</time>
      </trkpt>
      <trkpt lat="45.19249" lon="6.17643">
        <ele>2496.978</ele>
        <time>2022-07-17T10:06:24Z</time>
      </trkpt>
      <trkpt lat="45.19242" lon="6.17645">
        <ele>2495.89</ele>
        <time>2022-07-17T10:06:29Z</time>
      </trkpt>
      <trkpt lat="45.19234" lon="6.17649">
        <ele>2496.883</ele>
        <time>2022-07-17T10:06:34Z</time>
      </trkpt>
      <trkpt lat="45.19225" lon="6.17651">
        <ele>2497.501</ele>
        <time>2022-07-17T10:06:39Z</time>
      </trkpt>
      <trkpt lat="45.19218" lon="6.17652">
        <ele>2499.184</ele>
        <time>2022-07-17T10:06:44Z</time>
      </trkpt>
      <trkpt lat="45.19212" lon="6.17655">
        <ele>2500.829</ele>
        <time>2022-07-17T10:06:49Z</time>
      </trkpt>
      <trkpt lat="45.1921" lon="6.17655">
        <ele>2501.187</ele>
        <time>2022-07-17T10:06:54Z</time>
      </trkpt>
      <trkpt lat="45.19207" lon="6.17655">
        <ele>2501.291</ele>
        <time>2022-07-17T10:06:59Z</time>
      </trkpt>
      <trkpt lat="45.19202" lon="6.17657">
        <ele>2502.035</ele>
        <time>2022-07-17T10:07:04Z</time>
      </trkpt>
      <trkpt lat="45.19198" lon="6.17657">
        <ele>2503.459</ele>
        <time>2022-07-17T10:07:09Z</time>
      </trkpt>
      <trkpt lat="45.19193" lon="6.17656">
        <ele>2505.192</ele>
        <time>2022-07-17T10:07:14Z</time>
      </trkpt>
      <trkpt lat="45.1919" lon="6.17653">
        <ele>2505.765</ele>
        <time>2022-07-17T10:07:19Z</time>
      </trkpt>
      <trkpt lat="45.19188" lon="6.17652">
        <ele>2505.684</ele>
        <time>2022-07-17T10:07:24Z</time>
      </trkpt>
      <trkpt lat="45.19184" lon="6.17649">
        <ele>2506.392</ele>
        <time>2022-07-17T10:07:29Z</time>
      </trkpt>
      <trkpt lat="45.19175" lon="6.17644">
        <ele>2507.015</ele>
        <time>2022-07-17T10:07:34Z</time>
      </trkpt>
      <trkpt lat="45.19165" lon="6.17642">
        <ele>2505.001</ele>
        <time>2022-07-17T10:07:39Z</time>
      </trkpt>
      <trkpt lat="45.19156" lon="6.17637">
        <ele>2504.448</ele>
        <time>2022-07-17T10:07:44Z</time>
      </trkpt>
      <trkpt lat="45.19147" lon="6.17633">
        <ele>2502.056</ele>
        <time>2022-07-17T10:07:49Z</time>
      </trkpt>
      <trkpt lat="45.19137" lon="6.17631">
        <ele>2502.508</ele>
        <time>2022-07-17T10:07:54Z</time>
      </trkpt>
      <trkpt lat="45.19129" lon="6.17631">
        <ele>2502.436</ele>
        <time>2022-07-17T10:07:59Z</time>
      </trkpt>
      <trkpt lat="45.19121" lon="6.17628">
        <ele>2502.456</ele>
        <time>2022-07-17T10:08:04Z</time>
      </trkpt>
      <trkpt lat="45.19112" lon="6.17627">
        <ele>2502.443</ele>
        <time>2022-07-17T10:08:09Z</time>
      </trkpt>
      <trkpt lat="45.19102" lon="6.17617">
        <ele>2503.277</ele>
        <time>2022-07-17T10:08:14Z</time>
      </trkpt>
      <trkpt lat="45.19098" lon="6.17611">
        <ele>2506.734</ele>
        <time>2022-07-17T10:08:19Z</time>
      </trkpt>
      <trkpt lat="45.19092" lon="6.17605">
        <ele>2518.468</ele>
        <time>2022-07-17T10:08:24Z</time>
      </trkpt>
      <trkpt lat="45.19088" lon="6.17605">
        <ele>2522.532</ele>
        <time>2022-07-17T10:08:29Z</time>
      </trkpt>
      <trkpt lat="45.19086" lon="6.17605">
        <ele>2515.694</ele>
        <time>2022-07-17T10:08:34Z</time>
      </trkpt>
      <trkpt lat="45.1908" lon="6.176">
        <ele>2513.456</ele>
        <time>2022-07-17T10:08:39Z</time>
      </trkpt>
      <trkpt lat="45.19073" lon="6.17597">
        <ele>2509.56</ele>
        <time>2022-07-17T10:08:44Z</time>
      </trkpt>
      <trkpt lat="45.19065" lon="6.17592">
        <ele>2509.265</ele>
        <time>2022-07-17T10:08:49Z</time>
      </trkpt>
      <trkpt lat="45.1906" lon="6.17582">
        <ele>2505.881</ele>
        <time>2022-07-17T10:08:54Z</time>
      </trkpt>
      <trkpt lat="45.19053" lon="6.17576">
        <ele>2506.485</ele>
        <time>2022-07-17T10:08:59Z</time>
      </trkpt>
      <trkpt lat="45.19052" lon="6.17575">
        <ele>2506.251</ele>
        <time>2022-07-17T10:09:04Z</time>
      </trkpt>
      <trkpt lat="45.19043" lon="6.17568">
        <ele>2505.989</ele>
        <time>2022-07-17T10:09:09Z</time>
      </trkpt>
      <trkpt lat="45.19035" lon="6.1756">
        <ele>2504.083</ele>
        <time>2022-07-17T10:09:14Z</time>
      </trkpt>
      <trkpt lat="45.19027" lon="6.17555">
        <ele>2506.406</ele>
        <time>2022-07-17T10:09:19Z</time>
      </trkpt>
      <trkpt lat="45.19021" lon="6.17549">
        <ele>2507.654</ele>
        <time>2022-07-17T10:09:24Z</time>
      </trkpt>
      <trkpt lat="45.19013" lon="6.17547">
        <ele>2506.802</ele>
        <time>2022-07-17T10:09:29Z</time>
      </trkpt>
      <trkpt lat="45.19009" lon="6.17547">
        <ele>2505.685</ele>
        <time>2022-07-17T10:09:34Z</time>
      </trkpt>
      <trkpt lat="45.19007" lon="6.17545">
        <ele>2506.204</ele>
        <time>2022-07-17T10:09:39Z</time>
      </trkpt>
      <trkpt lat="45.19005" lon="6.17543">
        <ele>2506.222</ele>
        <time>2022-07-17T10:09:44Z</time>
      </trkpt>
      <trkpt lat="45.19004" lon="6.17542">
        <ele>2505.908</ele>
        <time>2022-07-17T10:09:49Z</time>
      </trkpt>
      <trkpt lat="45.19002" lon="6.17538">
        <ele>2505.69</ele>
        <time>2022-07-17T10:09:54Z</time>
      </trkpt>
      <trkpt lat="45.18996" lon="6.1753">
        <ele>2507.015</ele>
        <time>2022-07-17T10:09:59Z</time>
      </trkpt>
      <trkpt lat="45.18992" lon="6.17521">
        <ele>2508.13</ele>
        <time>2022-07-17T10:10:04Z</time>
      </trkpt>
      <trkpt lat="45.18986" lon="6.17515">
        <ele>2509.636</ele>
        <time>2022-07-17T10:10:09Z</time>
      </trkpt>
      <trkpt lat="45.1898" lon="6.17512">
        <ele>2509.475</ele>
        <time>2022-07-17T10:10:14Z</time>
      </trkpt>
      <trkpt lat="45.18975" lon="6.1751">
        <ele>2509.837</ele>
        <time>2022-07-17T10:10:19Z</time>
      </trkpt>
      <trkpt lat="45.18969" lon="6.17506">
        <ele>2510.588</ele>
        <time>2022-07-17T10:10:24Z</time>
      </trkpt>
      <trkpt lat="45.18962" lon="6.17501">
        <ele>2512.705</ele>
        <time>2022-07-17T10:10:29Z</time>
      </trkpt>
      <trkpt lat="45.18953" lon="6.17494">
        <ele>2513.017</ele>
        <time>2022-07-17T10:10:34Z</time>
      </trkpt>
      <trkpt lat="45.18946" lon="6.17489">
        <ele>2513.042</ele>
        <time>2022-07-17T10:10:39Z</time>
      </trkpt>
      <trkpt lat="45.18942" lon="6.17485">
        <ele>2513.166</ele>
        <time>2022-07-17T10:10:44Z</time>
      </trkpt>
      <trkpt lat="45.18934" lon="6.17479">
        <ele>2514.718</ele>
        <time>2022-07-17T10:10:49Z</time>
      </trkpt>
      <trkpt lat="45.18932" lon="6.17474">
        <ele>2517.916</ele>
        <time>2022-07-17T10:10:54Z</time>
      </trkpt>
      <trkpt lat="45.18933" lon="6.17475">
        <ele>2517.844</ele>
        <time>2022-07-17T10:10:59Z</time>
      </trkpt>
      <trkpt lat="45.18933" lon="6.17475">
        <ele>2517.858</ele>
        <time>2022-07-17T10:11:04Z</time>
      </trkpt>
      <trkpt lat="45.18934" lon="6.17476">
        <ele>2516.589</ele>
        <time>2022-07-17T10:11:09Z</time>
      </trkpt>
      <trkpt lat="45.18934" lon="6.17476">
        <ele>2516.18</ele>
        <time>2022-07-17T10:11:14Z</time>
      </trkpt>
      <trkpt lat="45.18931" lon="6.17474">
        <ele>2515.815</ele>
        <time>2022-07-17T10:11:19Z</time>
      </trkpt>
      <trkpt lat="45.18924" lon="6.17473">
        <ele>2516.273</ele>
        <time>2022-07-17T10:11:24Z</time>
      </trkpt>
      <trkpt lat="45.18919" lon="6.17471">
        <ele>2516.98</ele>
        <time>2022-07-17T10:11:29Z</time>
      </trkpt>
      <trkpt lat="45.18917" lon="6.17467">
        <ele>2519.575</ele>
        <time>2022-07-17T10:11:34Z</time>
      </trkpt>
      <trkpt lat="45.18916" lon="6.17464">
        <ele>2520.708</ele>
        <time>2022-07-17T10:11:39Z</time>
      </trkpt>
      <trkpt lat="45.18915" lon="6.17462">
        <ele>2521.222</ele>
        <time>2022-07-17T10:11:44Z</time>
      </trkpt>
      <trkpt lat="45.18914" lon="6.17457">
        <ele>2521.299</ele>
        <time>2022-07-17T10:11:49Z</time>
      </trkpt>
      <trkpt lat="45.18914" lon="6.17453">
        <ele>2521.566</ele>
        <time>2022-07-17T10:11:54Z</time>
      </trkpt>
      <trkpt lat="45.18914" lon="6.17453">
        <ele>2521.549</ele>
        <time>2022-07-17T10:11:59Z</time>
      </trkpt>
      <trkpt lat="45.18914" lon="6.17453">
        <ele>2521.554</ele>
        <time>2022-07-17T10:12:04Z</time>
      </trkpt>
      <trkpt lat="45.18914" lon="6.17453">
        <ele>2521.561</ele>
        <time>2022-07-17T10:12:09Z</time>
      </trkpt>
      <trkpt lat="45.18914" lon="6.17453">
        <ele>2521.569</ele>
        <time>2022-07-17T10:12:14Z</time>
      </trkpt>
      <trkpt lat="45.18914" lon="6.17453">
        <ele>2521.577</ele>
        <time>2022-07-17T10:12:19Z</time>
      </trkpt>
      <trkpt lat="45.18914" lon="6.1745">
        <ele>2521.298</ele>
        <time>2022-07-17T10:12:24Z</time>
      </trkpt>
      <trkpt lat="45.18913" lon="6.17448">
        <ele>2520.354</ele>
        <time>2022-07-17T10:12:29Z</time>
      </trkpt>
      <trkpt lat="45.18913" lon="6.17448">
        <ele>2520.115</ele>
        <time>2022-07-17T10:12:34Z</time>
      </trkpt>
      <trkpt lat="45.18913" lon="6.17448">
        <ele>2519.999</ele>
        <time>2022-07-17T10:12:39Z</time>
      </trkpt>
      <trkpt lat="45.18912" lon="6.17448">
        <ele>2520.214</ele>
        <time>2022-07-17T10:12:44Z</time>
      </trkpt>
      <trkpt lat="45.18912" lon="6.17448">
        <ele>2520.021</ele>
        <time>2022-07-17T10:12:49Z</time>
      </trkpt>
      <trkpt lat="45.18905" lon="6.17444">
        <ele>2518.801</ele>
        <time>2022-07-17T10:12:54Z</time>
      </trkpt>
      <trkpt lat="45.18888" lon="6.17429">
        <ele>2513.219</ele>
        <time>2022-07-17T10:12:59Z</time>
      </trkpt>
      <trkpt lat="45.18879" lon="6.17419">
        <ele>2514.667</ele>
        <time>2022-07-17T10:13:04Z</time>
      </trkpt>
      <trkpt lat="45.18876" lon="6.17409">
        <ele>2515.788</ele>
        <time>2022-07-17T10:13:09Z</time>
      </trkpt>
      <trkpt lat="45.18876" lon="6.17393">
        <ele>2515.394</ele>
        <time>2022-07-17T10:13:14Z</time>
      </trkpt>
      <trkpt lat="45.18873" lon="6.17372">
        <ele>2515.992</ele>
        <time>2022-07-17T10:13:19Z</time>
      </trkpt>
      <trkpt lat="45.18866" lon="6.17355">
        <ele>2515.814</ele>
        <time>2022-07-17T10:13:24Z</time>
      </trkpt>
      <trkpt lat="45.18856" lon="6.17344">
        <ele>2516.542</ele>
        <time>2022-07-17T10:13:29Z</time>
      </trkpt>
      <trkpt lat="45.18847" lon="6.17336">
        <ele>2516.868</ele>
        <time>2022-07-17T10:13:34Z</time>
      </trkpt>
      <trkpt lat="45.18835" lon="6.17316">
        <ele>2515.35</ele>
        <time>2022-07-17T10:13:39Z</time>
      </trkpt>
      <trkpt lat="45.18823" lon="6.17299">
        <ele>2515.276</ele>
        <time>2022-07-17T10:13:44Z</time>
      </trkpt>
      <trkpt lat="45.18812" lon="6.17294">
        <ele>2515.453</ele>
        <time>2022-07-17T10:13:49Z</time>
      </trkpt>
      <trkpt lat="45.188" lon="6.1729">
        <ele>2515.555</ele>
        <time>2022-07-17T10:13:54Z</time>
      </trkpt>
      <trkpt lat="45.18791" lon="6.17285">
        <ele>2516.697</ele>
        <time>2022-07-17T10:13:59Z</time>
      </trkpt>
      <trkpt lat="45.18782" lon="6.17281">
        <ele>2516.561</ele>
        <time>2022-07-17T10:14:04Z</time>
      </trkpt>
      <trkpt lat="45.18774" lon="6.17291">
        <ele>2516.418</ele>
        <time>2022-07-17T10:14:09Z</time>
      </trkpt>
      <trkpt lat="45.18766" lon="6.17293">
        <ele>2517.068</ele>
        <time>2022-07-17T10:14:14Z</time>
      </trkpt>
      <trkpt lat="45.18755" lon="6.17291">
        <ele>2515.569</ele>
        <time>2022-07-17T10:14:19Z</time>
      </trkpt>
      <trkpt lat="45.1874" lon="6.17288">
        <ele>2512.782</ele>
        <time>2022-07-17T10:14:24Z</time>
      </trkpt>
      <trkpt lat="45.18725" lon="6.17295">
        <ele>2511.785</ele>
        <time>2022-07-17T10:14:29Z</time>
      </trkpt>
      <trkpt lat="45.18715" lon="6.17302">
        <ele>2513.251</ele>
        <time>2022-07-17T10:14:34Z</time>
      </trkpt>
      <trkpt lat="45.18706" lon="6.17311">
        <ele>2514.368</ele>
        <time>2022-07-17T10:14:39Z</time>
      </trkpt>
      <trkpt lat="45.18693" lon="6.17318">
        <ele>2514.069</ele>
        <time>2022-07-17T10:14:44Z</time>
      </trkpt>
      <trkpt lat="45.1868" lon="6.17319">
        <ele>2514.722</ele>
        <time>2022-07-17T10:14:49Z</time>
      </trkpt>
      <trkpt lat="45.18665" lon="6.17322">
        <ele>2514.35</ele>
        <time>2022-07-17T10:14:54Z</time>
      </trkpt>
      <trkpt lat="45.18652" lon="6.17326">
        <ele>2513.42</ele>
        <time>2022-07-17T10:14:59Z</time>
      </trkpt>
      <trkpt lat="45.1864" lon="6.17326">
        <ele>2511.117</ele>
        <time>2022-07-17T10:15:04Z</time>
      </trkpt>
      <trkpt lat="45.18632" lon="6.17328">
        <ele>2513.1</ele>
        <time>2022-07-17T10:15:09Z</time>
      </trkpt>
      <trkpt lat="45.18623" lon="6.17327">
        <ele>2513.29</ele>
        <time>2022-07-17T10:15:14Z</time>
      </trkpt>
      <trkpt lat="45.1861" lon="6.17328">
        <ele>2513.527</ele>
        <time>2022-07-17T10:15:19Z</time>
      </trkpt>
      <trkpt lat="45.18598" lon="6.17327">
        <ele>2514.168</ele>
        <time>2022-07-17T10:15:24Z</time>
      </trkpt>
      <trkpt lat="45.18586" lon="6.17334">
        <ele>2514.294</ele>
        <time>2022-07-17T10:15:29Z</time>
      </trkpt>
      <trkpt lat="45.18573" lon="6.17346">
        <ele>2513.651</ele>
        <time>2022-07-17T10:15:34Z</time>
      </trkpt>
      <trkpt lat="45.18557" lon="6.17362">
        <ele>2513.204</ele>
        <time>2022-07-17T10:15:39Z</time>
      </trkpt>
      <trkpt lat="45.18545" lon="6.17363">
        <ele>2514.04</ele>
        <time>2022-07-17T10:15:44Z</time>
      </trkpt>
      <trkpt lat="45.18533" lon="6.17361">
        <ele>2515.137</ele>
        <time>2022-07-17T10:15:49Z</time>
      </trkpt>
      <trkpt lat="45.18522" lon="6.17359">
        <ele>2515.927</ele>
        <time>2022-07-17T10:15:54Z</time>
      </trkpt>
      <trkpt lat="45.18511" lon="6.17358">
        <ele>2517.85</ele>
        <time>2022-07-17T10:15:59Z</time>
      </trkpt>
      <trkpt lat="45.18498" lon="6.17358">
        <ele>2517.313</ele>
        <time>2022-07-17T10:16:04Z</time>
      </trkpt>
      <trkpt lat="45.1849" lon="6.17357">
        <ele>2515.358</ele>
        <time>2022-07-17T10:16:09Z</time>
      </trkpt>
      <trkpt lat="45.18482" lon="6.17355">
        <ele>2516.536</ele>
        <time>2022-07-17T10:16:14Z</time>
      </trkpt>
      <trkpt lat="45.18478" lon="6.17352">
        <ele>2520.331</ele>
        <time>2022-07-17T10:16:19Z</time>
      </trkpt>
      <trkpt lat="45.18474" lon="6.17351">
        <ele>2521.646</ele>
        <time>2022-07-17T10:16:24Z</time>
      </trkpt>
      <trkpt lat="45.1847" lon="6.17351">
        <ele>2523.867</ele>
        <time>2022-07-17T10:16:29Z</time>
      </trkpt>
      <trkpt lat="45.18467" lon="6.1735">
        <ele>2521.559</ele>
        <time>2022-07-17T10:16:34Z</time>
      </trkpt>
      <trkpt lat="45.18462" lon="6.1735">
        <ele>2519.813</ele>
        <time>2022-07-17T10:16:39Z</time>
      </trkpt>
      <trkpt lat="45.18455" lon="6.17349">
        <ele>2518.474</ele>
        <time>2022-07-17T10:16:44Z</time>
      </trkpt>
      <trkpt lat="45.18448" lon="6.17349">
        <ele>2519.637</ele>
        <time>2022-07-17T10:16:49Z</time>
      </trkpt>
      <trkpt lat="45.18439" lon="6.17347">
        <ele>2520.548</ele>
        <time>2022-07-17T10:16:54Z</time>
      </trkpt>
      <trkpt lat="45.18431" lon="6.17345">
        <ele>2523.082</ele>
        <time>2022-07-17T10:16:59Z</time>
      </trkpt>
      <trkpt lat="45.18422" lon="6.17337">
        <ele>2523.682</ele>
        <time>2022-07-17T10:17:04Z</time>
      </trkpt>
      <trkpt lat="45.18412" lon="6.17332">
        <ele>2522.743</ele>
        <time>2022-07-17T10:17:09Z</time>
      </trkpt>
      <trkpt lat="45.18403" lon="6.17329">
        <ele>2523.853</ele>
        <time>2022-07-17T10:17:14Z</time>
      </trkpt>
      <trkpt lat="45.18395" lon="6.17325">
        <ele>2525.467</ele>
        <time>2022-07-17T10:17:19Z</time>
      </trkpt>
      <trkpt lat="45.18387" lon="6.1732">
        <ele>2524.572</ele>
        <time>2022-07-17T10:17:24Z</time>
      </trkpt>
      <trkpt lat="45.1838" lon="6.17315">
        <ele>2523.762</ele>
        <time>2022-07-17T10:17:29Z</time>
      </trkpt>
      <trkpt lat="45.18372" lon="6.17309">
        <ele>2524.529</ele>
        <time>2022-07-17T10:17:34Z</time>
      </trkpt>
      <trkpt lat="45.18364" lon="6.17305">
        <ele>2524.109</ele>
        <time>2022-07-17T10:17:39Z</time>
      </trkpt>
      <trkpt lat="45.18354" lon="6.17296">
        <ele>2521.623</ele>
        <time>2022-07-17T10:17:44Z</time>
      </trkpt>
      <trkpt lat="45.18347" lon="6.17287">
        <ele>2515.299</ele>
        <time>2022-07-17T10:17:49Z</time>
      </trkpt>
      <trkpt lat="45.18341" lon="6.17281">
        <ele>2513.522</ele>
        <time>2022-07-17T10:17:54Z</time>
      </trkpt>
      <trkpt lat="45.18334" lon="6.17287">
        <ele>2514.43</ele>
        <time>2022-07-17T10:17:59Z</time>
      </trkpt>
      <trkpt lat="45.18332" lon="6.17287">
        <ele>2520.057</ele>
        <time>2022-07-17T10:18:04Z</time>
      </trkpt>
      <trkpt lat="45.18332" lon="6.17287">
        <ele>2523.017</ele>
        <time>2022-07-17T10:18:09Z</time>
      </trkpt>
      <trkpt lat="45.18332" lon="6.17286">
        <ele>2525.165</ele>
        <time>2022-07-17T10:18:14Z</time>
      </trkpt>
      <trkpt lat="45.18331" lon="6.17285">
        <ele>2525.77</ele>
        <time>2022-07-17T10:18:19Z</time>
      </trkpt>
      <trkpt lat="45.18325" lon="6.1728">
        <ele>2526.44</ele>
        <time>2022-07-17T10:18:24Z</time>
      </trkpt>
      <trkpt lat="45.18319" lon="6.17275">
        <ele>2527.383</ele>
        <time>2022-07-17T10:18:29Z</time>
      </trkpt>
      <trkpt lat="45.18314" lon="6.17267">
        <ele>2527.733</ele>
        <time>2022-07-17T10:18:34Z</time>
      </trkpt>
      <trkpt lat="45.18307" lon="6.17262">
        <ele>2526.858</ele>
        <time>2022-07-17T10:18:39Z</time>
      </trkpt>
      <trkpt lat="45.18302" lon="6.17257">
        <ele>2528.092</ele>
        <time>2022-07-17T10:18:44Z</time>
      </trkpt>
      <trkpt lat="45.18298" lon="6.17251">
        <ele>2530.345</ele>
        <time>2022-07-17T10:18:49Z</time>
      </trkpt>
      <trkpt lat="45.18295" lon="6.17252">
        <ele>2533.199</ele>
        <time>2022-07-17T10:18:54Z</time>
      </trkpt>
      <trkpt lat="45.18293" lon="6.17252">
        <ele>2533.4</ele>
        <time>2022-07-17T10:18:59Z</time>
      </trkpt>
      <trkpt lat="45.18291" lon="6.17251">
        <ele>2533.85</ele>
        <time>2022-07-17T10:19:04Z</time>
      </trkpt>
      <trkpt lat="45.18288" lon="6.17249">
        <ele>2533.45</ele>
        <time>2022-07-17T10:19:09Z</time>
      </trkpt>
      <trkpt lat="45.18286" lon="6.17247">
        <ele>2534.451</ele>
        <time>2022-07-17T10:19:14Z</time>
      </trkpt>
      <trkpt lat="45.18283" lon="6.17246">
        <ele>2534.872</ele>
        <time>2022-07-17T10:19:19Z</time>
      </trkpt>
      <trkpt lat="45.1828" lon="6.17246">
        <ele>2535.535</ele>
        <time>2022-07-17T10:19:24Z</time>
      </trkpt>
      <trkpt lat="45.18277" lon="6.17247">
        <ele>2536.085</ele>
        <time>2022-07-17T10:19:29Z</time>
      </trkpt>
      <trkpt lat="45.18275" lon="6.17246">
        <ele>2537.204</ele>
        <time>2022-07-17T10:19:34Z</time>
      </trkpt>
      <trkpt lat="45.18274" lon="6.17243">
        <ele>2536.022</ele>
        <time>2022-07-17T10:19:39Z</time>
      </trkpt>
      <trkpt lat="45.18274" lon="6.17244">
        <ele>2535.988</ele>
        <time>2022-07-17T10:19:44Z</time>
      </trkpt>
      <trkpt lat="45.18273" lon="6.17239">
        <ele>2536.084</ele>
        <time>2022-07-17T10:19:49Z</time>
      </trkpt>
      <trkpt lat="45.18272" lon="6.17236">
        <ele>2536.678</ele>
        <time>2022-07-17T10:19:54Z</time>
      </trkpt>
      <trkpt lat="45.1827" lon="6.17234">
        <ele>2535.422</ele>
        <time>2022-07-17T10:19:59Z</time>
      </trkpt>
      <trkpt lat="45.18263" lon="6.17235">
        <ele>2532.163</ele>
        <time>2022-07-17T10:20:04Z</time>
      </trkpt>
      <trkpt lat="45.18261" lon="6.17233">
        <ele>2533.345</ele>
        <time>2022-07-17T10:20:09Z</time>
      </trkpt>
      <trkpt lat="45.18256" lon="6.17229">
        <ele>2534.642</ele>
        <time>2022-07-17T10:20:14Z</time>
      </trkpt>
      <trkpt lat="45.18252" lon="6.17228">
        <ele>2535.685</ele>
        <time>2022-07-17T10:20:19Z</time>
      </trkpt>
      <trkpt lat="45.18247" lon="6.17226">
        <ele>2536.688</ele>
        <time>2022-07-17T10:20:24Z</time>
      </trkpt>
      <trkpt lat="45.18243" lon="6.17224">
        <ele>2537.599</ele>
        <time>2022-07-17T10:20:29Z</time>
      </trkpt>
      <trkpt lat="45.18239" lon="6.17223">
        <ele>2538.39</ele>
        <time>2022-07-17T10:20:34Z</time>
      </trkpt>
      <trkpt lat="45.18236" lon="6.17221">
        <ele>2538.843</ele>
        <time>2022-07-17T10:20:39Z</time>
      </trkpt>
      <trkpt lat="45.18233" lon="6.17219">
        <ele>2540.04</ele>
        <time>2022-07-17T10:20:44Z</time>
      </trkpt>
      <trkpt lat="45.1823" lon="6.17215">
        <ele>2540.082</ele>
        <time>2022-07-17T10:20:49Z</time>
      </trkpt>
      <trkpt lat="45.18227" lon="6.17214">
        <ele>2539.436</ele>
        <time>2022-07-17T10:20:54Z</time>
      </trkpt>
      <trkpt lat="45.18225" lon="6.17213">
        <ele>2540.563</ele>
        <time>2022-07-17T10:20:59Z</time>
      </trkpt>
      <trkpt lat="45.18221" lon="6.17212">
        <ele>2541.632</ele>
        <time>2022-07-17T10:21:04Z</time>
      </trkpt>
      <trkpt lat="45.18218" lon="6.17211">
        <ele>2542.527</ele>
        <time>2022-07-17T10:21:09Z</time>
      </trkpt>
      <trkpt lat="45.18214" lon="6.1721">
        <ele>2543.513</ele>
        <time>2022-07-17T10:21:14Z</time>
      </trkpt>
      <trkpt lat="45.18211" lon="6.17206">
        <ele>2543.337</ele>
        <time>2022-07-17T10:21:19Z</time>
      </trkpt>
      <trkpt lat="45.1821" lon="6.17204">
        <ele>2542.855</ele>
        <time>2022-07-17T10:21:24Z</time>
      </trkpt>
      <trkpt lat="45.18207" lon="6.172">
        <ele>2542.726</ele>
        <time>2022-07-17T10:21:29Z</time>
      </trkpt>
      <trkpt lat="45.18203" lon="6.17199">
        <ele>2542.644</ele>
        <time>2022-07-17T10:21:34Z</time>
      </trkpt>
      <trkpt lat="45.182" lon="6.172">
        <ele>2543.549</ele>
        <time>2022-07-17T10:21:39Z</time>
      </trkpt>
      <trkpt lat="45.18198" lon="6.17199">
        <ele>2544.674</ele>
        <time>2022-07-17T10:21:44Z</time>
      </trkpt>
      <trkpt lat="45.18195" lon="6.17199">
        <ele>2545.485</ele>
        <time>2022-07-17T10:21:49Z</time>
      </trkpt>
      <trkpt lat="45.18192" lon="6.17197">
        <ele>2546.694</ele>
        <time>2022-07-17T10:21:54Z</time>
      </trkpt>
      <trkpt lat="45.18188" lon="6.17197">
        <ele>2547.133</ele>
        <time>2022-07-17T10:21:59Z</time>
      </trkpt>
      <trkpt lat="45.18185" lon="6.17195">
        <ele>2547.995</ele>
        <time>2022-07-17T10:22:04Z</time>
      </trkpt>
      <trkpt lat="45.18182" lon="6.17194">
        <ele>2549.56</ele>
        <time>2022-07-17T10:22:09Z</time>
      </trkpt>
      <trkpt lat="45.18179" lon="6.17192">
        <ele>2550.159</ele>
        <time>2022-07-17T10:22:14Z</time>
      </trkpt>
      <trkpt lat="45.18175" lon="6.1719">
        <ele>2550.521</ele>
        <time>2022-07-17T10:22:19Z</time>
      </trkpt>
      <trkpt lat="45.1817" lon="6.17187">
        <ele>2550.568</ele>
        <time>2022-07-17T10:22:24Z</time>
      </trkpt>
      <trkpt lat="45.18166" lon="6.17187">
        <ele>2551.908</ele>
        <time>2022-07-17T10:22:29Z</time>
      </trkpt>
      <trkpt lat="45.18162" lon="6.17186">
        <ele>2552.945</ele>
        <time>2022-07-17T10:22:34Z</time>
      </trkpt>
      <trkpt lat="45.18158" lon="6.17183">
        <ele>2553.337</ele>
        <time>2022-07-17T10:22:39Z</time>
      </trkpt>
      <trkpt lat="45.18155" lon="6.1718">
        <ele>2553.571</ele>
        <time>2022-07-17T10:22:44Z</time>
      </trkpt>
      <trkpt lat="45.18152" lon="6.1718">
        <ele>2553.802</ele>
        <time>2022-07-17T10:22:49Z</time>
      </trkpt>
      <trkpt lat="45.1815" lon="6.17176">
        <ele>2553.402</ele>
        <time>2022-07-17T10:22:54Z</time>
      </trkpt>
      <trkpt lat="45.18147" lon="6.17173">
        <ele>2553.565</ele>
        <time>2022-07-17T10:22:59Z</time>
      </trkpt>
      <trkpt lat="45.18145" lon="6.17171">
        <ele>2553.723</ele>
        <time>2022-07-17T10:23:04Z</time>
      </trkpt>
      <trkpt lat="45.18142" lon="6.17171">
        <ele>2553.801</ele>
        <time>2022-07-17T10:23:09Z</time>
      </trkpt>
      <trkpt lat="45.18139" lon="6.1717">
        <ele>2553.901</ele>
        <time>2022-07-17T10:23:14Z</time>
      </trkpt>
      <trkpt lat="45.18136" lon="6.17169">
        <ele>2554.654</ele>
        <time>2022-07-17T10:23:19Z</time>
      </trkpt>
      <trkpt lat="45.18133" lon="6.17167">
        <ele>2555.138</ele>
        <time>2022-07-17T10:23:24Z</time>
      </trkpt>
      <trkpt lat="45.18129" lon="6.17167">
        <ele>2556.987</ele>
        <time>2022-07-17T10:23:29Z</time>
      </trkpt>
      <trkpt lat="45.18126" lon="6.17166">
        <ele>2557.858</ele>
        <time>2022-07-17T10:23:34Z</time>
      </trkpt>
      <trkpt lat="45.18123" lon="6.17163">
        <ele>2557.736</ele>
        <time>2022-07-17T10:23:39Z</time>
      </trkpt>
      <trkpt lat="45.1812" lon="6.17159">
        <ele>2557.864</ele>
        <time>2022-07-17T10:23:44Z</time>
      </trkpt>
      <trkpt lat="45.18116" lon="6.17157">
        <ele>2558.838</ele>
        <time>2022-07-17T10:23:49Z</time>
      </trkpt>
      <trkpt lat="45.1811" lon="6.17152">
        <ele>2565.708</ele>
        <time>2022-07-17T10:23:54Z</time>
      </trkpt>
      <trkpt lat="45.18105" lon="6.17153">
        <ele>2565.754</ele>
        <time>2022-07-17T10:23:59Z</time>
      </trkpt>
      <trkpt lat="45.18105" lon="6.17154">
        <ele>2565.086</ele>
        <time>2022-07-17T10:24:04Z</time>
      </trkpt>
      <trkpt lat="45.18103" lon="6.17151">
        <ele>2565.197</ele>
        <time>2022-07-17T10:24:09Z</time>
      </trkpt>
      <trkpt lat="45.18101" lon="6.17147">
        <ele>2564.878</ele>
        <time>2022-07-17T10:24:14Z</time>
      </trkpt>
      <trkpt lat="45.18099" lon="6.17143">
        <ele>2564.424</ele>
        <time>2022-07-17T10:24:19Z</time>
      </trkpt>
      <trkpt lat="45.18098" lon="6.17139">
        <ele>2565.125</ele>
        <time>2022-07-17T10:24:24Z</time>
      </trkpt>
      <trkpt lat="45.18095" lon="6.17137">
        <ele>2565.8</ele>
        <time>2022-07-17T10:24:29Z</time>
      </trkpt>
      <trkpt lat="45.18092" lon="6.1714">
        <ele>2566.298</ele>
        <time>2022-07-17T10:24:34Z</time>
      </trkpt>
      <trkpt lat="45.18089" lon="6.1714">
        <ele>2568.229</ele>
        <time>2022-07-17T10:24:39Z</time>
      </trkpt>
      <trkpt lat="45.18087" lon="6.17138">
        <ele>2568.968</ele>
        <time>2022-07-17T10:24:44Z</time>
      </trkpt>
      <trkpt lat="45.18083" lon="6.17135">
        <ele>2569.245</ele>
        <time>2022-07-17T10:24:49Z</time>
      </trkpt>
      <trkpt lat="45.1808" lon="6.1713">
        <ele>2569.415</ele>
        <time>2022-07-17T10:24:54Z</time>
      </trkpt>
      <trkpt lat="45.18076" lon="6.17124">
        <ele>2569.127</ele>
        <time>2022-07-17T10:24:59Z</time>
      </trkpt>
      <trkpt lat="45.18073" lon="6.17123">
        <ele>2570.202</ele>
        <time>2022-07-17T10:25:04Z</time>
      </trkpt>
      <trkpt lat="45.1807" lon="6.17121">
        <ele>2571.387</ele>
        <time>2022-07-17T10:25:09Z</time>
      </trkpt>
      <trkpt lat="45.18069" lon="6.17119">
        <ele>2571.266</ele>
        <time>2022-07-17T10:25:14Z</time>
      </trkpt>
      <trkpt lat="45.18066" lon="6.17117">
        <ele>2573.004</ele>
        <time>2022-07-17T10:25:19Z</time>
      </trkpt>
      <trkpt lat="45.18064" lon="6.17115">
        <ele>2573.642</ele>
        <time>2022-07-17T10:25:24Z</time>
      </trkpt>
      <trkpt lat="45.18062" lon="6.17114">
        <ele>2574.138</ele>
        <time>2022-07-17T10:25:29Z</time>
      </trkpt>
      <trkpt lat="45.1806" lon="6.17113">
        <ele>2575.228</ele>
        <time>2022-07-17T10:25:34Z</time>
      </trkpt>
      <trkpt lat="45.18059" lon="6.17113">
        <ele>2576.024</ele>
        <time>2022-07-17T10:25:39Z</time>
      </trkpt>
      <trkpt lat="45.18056" lon="6.17109">
        <ele>2577.393</ele>
        <time>2022-07-17T10:25:44Z</time>
      </trkpt>
      <trkpt lat="45.18053" lon="6.17108">
        <ele>2579.362</ele>
        <time>2022-07-17T10:25:49Z</time>
      </trkpt>
      <trkpt lat="45.18051" lon="6.17107">
        <ele>2579.673</ele>
        <time>2022-07-17T10:25:54Z</time>
      </trkpt>
      <trkpt lat="45.1805" lon="6.17108">
        <ele>2580.389</ele>
        <time>2022-07-17T10:25:59Z</time>
      </trkpt>
      <trkpt lat="45.18049" lon="6.17109">
        <ele>2580.187</ele>
        <time>2022-07-17T10:26:04Z</time>
      </trkpt>
      <trkpt lat="45.18046" lon="6.1711">
        <ele>2580.434</ele>
        <time>2022-07-17T10:26:09Z</time>
      </trkpt>
      <trkpt lat="45.18044" lon="6.17112">
        <ele>2580.686</ele>
        <time>2022-07-17T10:26:14Z</time>
      </trkpt>
      <trkpt lat="45.18042" lon="6.17114">
        <ele>2580.904</ele>
        <time>2022-07-17T10:26:19Z</time>
      </trkpt>
      <trkpt lat="45.1804" lon="6.17115">
        <ele>2581.451</ele>
        <time>2022-07-17T10:26:24Z</time>
      </trkpt>
      <trkpt lat="45.18039" lon="6.17115">
        <ele>2582.323</ele>
        <time>2022-07-17T10:26:29Z</time>
      </trkpt>
      <trkpt lat="45.18034" lon="6.17114">
        <ele>2582.699</ele>
        <time>2022-07-17T10:26:34Z</time>
      </trkpt>
      <trkpt lat="45.1803" lon="6.17115">
        <ele>2582.473</ele>
        <time>2022-07-17T10:26:39Z</time>
      </trkpt>
      <trkpt lat="45.18025" lon="6.17111">
        <ele>2583.705</ele>
        <time>2022-07-17T10:26:44Z</time>
      </trkpt>
      <trkpt lat="45.1802" lon="6.17099">
        <ele>2585.225</ele>
        <time>2022-07-17T10:26:49Z</time>
      </trkpt>
      <trkpt lat="45.18018" lon="6.17093">
        <ele>2585.879</ele>
        <time>2022-07-17T10:26:54Z</time>
      </trkpt>
      <trkpt lat="45.18016" lon="6.17096">
        <ele>2586.527</ele>
        <time>2022-07-17T10:26:59Z</time>
      </trkpt>
      <trkpt lat="45.18012" lon="6.17096">
        <ele>2587.316</ele>
        <time>2022-07-17T10:27:04Z</time>
      </trkpt>
      <trkpt lat="45.18009" lon="6.17094">
        <ele>2586.863</ele>
        <time>2022-07-17T10:27:09Z</time>
      </trkpt>
      <trkpt lat="45.18006" lon="6.17094">
        <ele>2588.018</ele>
        <time>2022-07-17T10:27:14Z</time>
      </trkpt>
      <trkpt lat="45.18004" lon="6.17093">
        <ele>2589.005</ele>
        <time>2022-07-17T10:27:19Z</time>
      </trkpt>
      <trkpt lat="45.18001" lon="6.17089">
        <ele>2589.1</ele>
        <time>2022-07-17T10:27:24Z</time>
      </trkpt>
      <trkpt lat="45.18" lon="6.17086">
        <ele>2588.983</ele>
        <time>2022-07-17T10:27:29Z</time>
      </trkpt>
      <trkpt lat="45.17997" lon="6.17083">
        <ele>2588.879</ele>
        <time>2022-07-17T10:27:34Z</time>
      </trkpt>
      <trkpt lat="45.17995" lon="6.17079">
        <ele>2589.669</ele>
        <time>2022-07-17T10:27:39Z</time>
      </trkpt>
      <trkpt lat="45.17993" lon="6.17075">
        <ele>2589.815</ele>
        <time>2022-07-17T10:27:44Z</time>
      </trkpt>
      <trkpt lat="45.1799" lon="6.17073">
        <ele>2590.461</ele>
        <time>2022-07-17T10:27:49Z</time>
      </trkpt>
      <trkpt lat="45.17987" lon="6.1707">
        <ele>2590.855</ele>
        <time>2022-07-17T10:27:54Z</time>
      </trkpt>
      <trkpt lat="45.17984" lon="6.1707">
        <ele>2592.335</ele>
        <time>2022-07-17T10:27:59Z</time>
      </trkpt>
      <trkpt lat="45.17982" lon="6.1707">
        <ele>2592.188</ele>
        <time>2022-07-17T10:28:04Z</time>
      </trkpt>
      <trkpt lat="45.17979" lon="6.17071">
        <ele>2593.18</ele>
        <time>2022-07-17T10:28:09Z</time>
      </trkpt>
      <trkpt lat="45.17976" lon="6.17071">
        <ele>2592.871</ele>
        <time>2022-07-17T10:28:14Z</time>
      </trkpt>
      <trkpt lat="45.17972" lon="6.1707">
        <ele>2594.558</ele>
        <time>2022-07-17T10:28:19Z</time>
      </trkpt>
      <trkpt lat="45.17969" lon="6.17069">
        <ele>2595.809</ele>
        <time>2022-07-17T10:28:24Z</time>
      </trkpt>
      <trkpt lat="45.17966" lon="6.17066">
        <ele>2597.619</ele>
        <time>2022-07-17T10:28:29Z</time>
      </trkpt>
      <trkpt lat="45.17965" lon="6.1706">
        <ele>2594.627</ele>
        <time>2022-07-17T10:28:34Z</time>
      </trkpt>
      <trkpt lat="45.17963" lon="6.17054">
        <ele>2594.351</ele>
        <time>2022-07-17T10:28:39Z</time>
      </trkpt>
      <trkpt lat="45.17959" lon="6.17046">
        <ele>2594.374</ele>
        <time>2022-07-17T10:28:44Z</time>
      </trkpt>
      <trkpt lat="45.17954" lon="6.17041">
        <ele>2597.445</ele>
        <time>2022-07-17T10:28:49Z</time>
      </trkpt>
      <trkpt lat="45.17949" lon="6.17035">
        <ele>2597.914</ele>
        <time>2022-07-17T10:28:54Z</time>
      </trkpt>
      <trkpt lat="45.17944" lon="6.17028">
        <ele>2599.507</ele>
        <time>2022-07-17T10:28:59Z</time>
      </trkpt>
      <trkpt lat="45.17941" lon="6.17019">
        <ele>2599.421</ele>
        <time>2022-07-17T10:29:04Z</time>
      </trkpt>
      <trkpt lat="45.17937" lon="6.17011">
        <ele>2600.701</ele>
        <time>2022-07-17T10:29:09Z</time>
      </trkpt>
      <trkpt lat="45.17931" lon="6.17002">
        <ele>2602.376</ele>
        <time>2022-07-17T10:29:14Z</time>
      </trkpt>
      <trkpt lat="45.17927" lon="6.16994">
        <ele>2602.348</ele>
        <time>2022-07-17T10:29:19Z</time>
      </trkpt>
      <trkpt lat="45.17921" lon="6.16987">
        <ele>2604.484</ele>
        <time>2022-07-17T10:29:24Z</time>
      </trkpt>
      <trkpt lat="45.17917" lon="6.1698">
        <ele>2604.648</ele>
        <time>2022-07-17T10:29:29Z</time>
      </trkpt>
      <trkpt lat="45.17912" lon="6.16973">
        <ele>2604.305</ele>
        <time>2022-07-17T10:29:34Z</time>
      </trkpt>
      <trkpt lat="45.17906" lon="6.16972">
        <ele>2604.298</ele>
        <time>2022-07-17T10:29:39Z</time>
      </trkpt>
      <trkpt lat="45.17902" lon="6.16971">
        <ele>2607.609</ele>
        <time>2022-07-17T10:29:44Z</time>
      </trkpt>
      <trkpt lat="45.17899" lon="6.16971">
        <ele>2609.878</ele>
        <time>2022-07-17T10:29:49Z</time>
      </trkpt>
      <trkpt lat="45.17897" lon="6.16971">
        <ele>2610.378</ele>
        <time>2022-07-17T10:29:54Z</time>
      </trkpt>
      <trkpt lat="45.17894" lon="6.16967">
        <ele>2610.683</ele>
        <time>2022-07-17T10:29:59Z</time>
      </trkpt>
      <trkpt lat="45.17892" lon="6.16964">
        <ele>2610.504</ele>
        <time>2022-07-17T10:30:04Z</time>
      </trkpt>
      <trkpt lat="45.17889" lon="6.16961">
        <ele>2610.384</ele>
        <time>2022-07-17T10:30:09Z</time>
      </trkpt>
      <trkpt lat="45.17887" lon="6.1696">
        <ele>2610.585</ele>
        <time>2022-07-17T10:30:14Z</time>
      </trkpt>
      <trkpt lat="45.17884" lon="6.16958">
        <ele>2611.219</ele>
        <time>2022-07-17T10:30:19Z</time>
      </trkpt>
      <trkpt lat="45.17884" lon="6.16958">
        <ele>2611.488</ele>
        <time>2022-07-17T10:30:24Z</time>
      </trkpt>
      <trkpt lat="45.17883" lon="6.16956">
        <ele>2611.466</ele>
        <time>2022-07-17T10:30:29Z</time>
      </trkpt>
      <trkpt lat="45.17877" lon="6.16954">
        <ele>2612.115</ele>
        <time>2022-07-17T10:30:34Z</time>
      </trkpt>
      <trkpt lat="45.17874" lon="6.16948">
        <ele>2611.213</ele>
        <time>2022-07-17T10:30:39Z</time>
      </trkpt>
      <trkpt lat="45.17869" lon="6.1694">
        <ele>2611.436</ele>
        <time>2022-07-17T10:30:44Z</time>
      </trkpt>
      <trkpt lat="45.17864" lon="6.16938">
        <ele>2612.162</ele>
        <time>2022-07-17T10:30:49Z</time>
      </trkpt>
      <trkpt lat="45.1786" lon="6.16938">
        <ele>2613.402</ele>
        <time>2022-07-17T10:30:54Z</time>
      </trkpt>
      <trkpt lat="45.17858" lon="6.16937">
        <ele>2613.415</ele>
        <time>2022-07-17T10:30:59Z</time>
      </trkpt>
      <trkpt lat="45.17854" lon="6.16935">
        <ele>2614.152</ele>
        <time>2022-07-17T10:31:04Z</time>
      </trkpt>
      <trkpt lat="45.17851" lon="6.16933">
        <ele>2615.046</ele>
        <time>2022-07-17T10:31:09Z</time>
      </trkpt>
      <trkpt lat="45.17848" lon="6.16931">
        <ele>2616.421</ele>
        <time>2022-07-17T10:31:14Z</time>
      </trkpt>
      <trkpt lat="45.17845" lon="6.1693">
        <ele>2616.948</ele>
        <time>2022-07-17T10:31:19Z</time>
      </trkpt>
      <trkpt lat="45.17842" lon="6.1693">
        <ele>2617.796</ele>
        <time>2022-07-17T10:31:24Z</time>
      </trkpt>
      <trkpt lat="45.17839" lon="6.1693">
        <ele>2618.819</ele>
        <time>2022-07-17T10:31:29Z</time>
      </trkpt>
      <trkpt lat="45.17836" lon="6.16932">
        <ele>2619.543</ele>
        <time>2022-07-17T10:31:34Z</time>
      </trkpt>
      <trkpt lat="45.17833" lon="6.16932">
        <ele>2619.971</ele>
        <time>2022-07-17T10:31:39Z</time>
      </trkpt>
      <trkpt lat="45.17831" lon="6.16932">
        <ele>2620.542</ele>
        <time>2022-07-17T10:31:44Z</time>
      </trkpt>
      <trkpt lat="45.17827" lon="6.16931">
        <ele>2621.003</ele>
        <time>2022-07-17T10:31:49Z</time>
      </trkpt>
      <trkpt lat="45.17824" lon="6.16931">
        <ele>2621.544</ele>
        <time>2022-07-17T10:31:54Z</time>
      </trkpt>
      <trkpt lat="45.17817" lon="6.16932">
        <ele>2622.545</ele>
        <time>2022-07-17T10:31:59Z</time>
      </trkpt>
      <trkpt lat="45.17813" lon="6.16929">
        <ele>2622.434</ele>
        <time>2022-07-17T10:32:04Z</time>
      </trkpt>
      <trkpt lat="45.17808" lon="6.16928">
        <ele>2623.146</ele>
        <time>2022-07-17T10:32:09Z</time>
      </trkpt>
      <trkpt lat="45.17804" lon="6.16927">
        <ele>2624.012</ele>
        <time>2022-07-17T10:32:14Z</time>
      </trkpt>
      <trkpt lat="45.17799" lon="6.16925">
        <ele>2624.639</ele>
        <time>2022-07-17T10:32:19Z</time>
      </trkpt>
      <trkpt lat="45.17795" lon="6.16923">
        <ele>2625.872</ele>
        <time>2022-07-17T10:32:24Z</time>
      </trkpt>
      <trkpt lat="45.17791" lon="6.1692">
        <ele>2624.804</ele>
        <time>2022-07-17T10:32:29Z</time>
      </trkpt>
      <trkpt lat="45.17787" lon="6.16918">
        <ele>2625.531</ele>
        <time>2022-07-17T10:32:34Z</time>
      </trkpt>
      <trkpt lat="45.17785" lon="6.16917">
        <ele>2626.509</ele>
        <time>2022-07-17T10:32:39Z</time>
      </trkpt>
      <trkpt lat="45.17782" lon="6.16917">
        <ele>2626.816</ele>
        <time>2022-07-17T10:32:44Z</time>
      </trkpt>
      <trkpt lat="45.17779" lon="6.16918">
        <ele>2626.156</ele>
        <time>2022-07-17T10:32:49Z</time>
      </trkpt>
      <trkpt lat="45.17776" lon="6.16919">
        <ele>2626.932</ele>
        <time>2022-07-17T10:32:54Z</time>
      </trkpt>
      <trkpt lat="45.17773" lon="6.16921">
        <ele>2628.49</ele>
        <time>2022-07-17T10:32:59Z</time>
      </trkpt>
      <trkpt lat="45.17769" lon="6.16922">
        <ele>2629.475</ele>
        <time>2022-07-17T10:33:04Z</time>
      </trkpt>
      <trkpt lat="45.17766" lon="6.16922">
        <ele>2629.394</ele>
        <time>2022-07-17T10:33:09Z</time>
      </trkpt>
      <trkpt lat="45.17763" lon="6.16921">
        <ele>2629.455</ele>
        <time>2022-07-17T10:33:14Z</time>
      </trkpt>
      <trkpt lat="45.1776" lon="6.1692">
        <ele>2629.939</ele>
        <time>2022-07-17T10:33:19Z</time>
      </trkpt>
      <trkpt lat="45.17757" lon="6.16919">
        <ele>2630.479</ele>
        <time>2022-07-17T10:33:24Z</time>
      </trkpt>
      <trkpt lat="45.17753" lon="6.16919">
        <ele>2631.111</ele>
        <time>2022-07-17T10:33:29Z</time>
      </trkpt>
      <trkpt lat="45.17751" lon="6.16918">
        <ele>2631.7</ele>
        <time>2022-07-17T10:33:34Z</time>
      </trkpt>
      <trkpt lat="45.17748" lon="6.16916">
        <ele>2632.623</ele>
        <time>2022-07-17T10:33:39Z</time>
      </trkpt>
      <trkpt lat="45.17744" lon="6.16917">
        <ele>2634.059</ele>
        <time>2022-07-17T10:33:44Z</time>
      </trkpt>
      <trkpt lat="45.17741" lon="6.16918">
        <ele>2635.675</ele>
        <time>2022-07-17T10:33:49Z</time>
      </trkpt>
      <trkpt lat="45.17737" lon="6.1692">
        <ele>2636.623</ele>
        <time>2022-07-17T10:33:54Z</time>
      </trkpt>
      <trkpt lat="45.17735" lon="6.16921">
        <ele>2637.198</ele>
        <time>2022-07-17T10:33:59Z</time>
      </trkpt>
      <trkpt lat="45.1773" lon="6.16922">
        <ele>2636.993</ele>
        <time>2022-07-17T10:34:04Z</time>
      </trkpt>
      <trkpt lat="45.17726" lon="6.16922">
        <ele>2637.098</ele>
        <time>2022-07-17T10:34:09Z</time>
      </trkpt>
      <trkpt lat="45.17723" lon="6.16924">
        <ele>2637.012</ele>
        <time>2022-07-17T10:34:14Z</time>
      </trkpt>
      <trkpt lat="45.17718" lon="6.16922">
        <ele>2638.217</ele>
        <time>2022-07-17T10:34:19Z</time>
      </trkpt>
      <trkpt lat="45.17713" lon="6.16923">
        <ele>2639.925</ele>
        <time>2022-07-17T10:34:24Z</time>
      </trkpt>
      <trkpt lat="45.17707" lon="6.16925">
        <ele>2641.802</ele>
        <time>2022-07-17T10:34:29Z</time>
      </trkpt>
      <trkpt lat="45.17701" lon="6.16922">
        <ele>2643.408</ele>
        <time>2022-07-17T10:34:34Z</time>
      </trkpt>
      <trkpt lat="45.17694" lon="6.16921">
        <ele>2642.824</ele>
        <time>2022-07-17T10:34:39Z</time>
      </trkpt>
      <trkpt lat="45.17687" lon="6.16919">
        <ele>2642.819</ele>
        <time>2022-07-17T10:34:44Z</time>
      </trkpt>
      <trkpt lat="45.17678" lon="6.16915">
        <ele>2641.21</ele>
        <time>2022-07-17T10:34:49Z</time>
      </trkpt>
      <trkpt lat="45.17658" lon="6.1691">
        <ele>2638.675</ele>
        <time>2022-07-17T10:34:54Z</time>
      </trkpt>
      <trkpt lat="45.17653" lon="6.16906">
        <ele>2640.518</ele>
        <time>2022-07-17T10:34:59Z</time>
      </trkpt>
      <trkpt lat="45.17648" lon="6.16908">
        <ele>2641.647</ele>
        <time>2022-07-17T10:35:04Z</time>
      </trkpt>
      <trkpt lat="45.17642" lon="6.16906">
        <ele>2643.779</ele>
        <time>2022-07-17T10:35:09Z</time>
      </trkpt>
      <trkpt lat="45.17636" lon="6.16903">
        <ele>2645.149</ele>
        <time>2022-07-17T10:35:14Z</time>
      </trkpt>
      <trkpt lat="45.17631" lon="6.16901">
        <ele>2646.511</ele>
        <time>2022-07-17T10:35:19Z</time>
      </trkpt>
      <trkpt lat="45.17629" lon="6.16901">
        <ele>2646.493</ele>
        <time>2022-07-17T10:35:24Z</time>
      </trkpt>
      <trkpt lat="45.17627" lon="6.169">
        <ele>2647.765</ele>
        <time>2022-07-17T10:35:29Z</time>
      </trkpt>
      <trkpt lat="45.17625" lon="6.16898">
        <ele>2648.373</ele>
        <time>2022-07-17T10:35:34Z</time>
      </trkpt>
      <trkpt lat="45.17619" lon="6.16896">
        <ele>2648.657</ele>
        <time>2022-07-17T10:35:39Z</time>
      </trkpt>
      <trkpt lat="45.17613" lon="6.16895">
        <ele>2649.726</ele>
        <time>2022-07-17T10:35:44Z</time>
      </trkpt>
      <trkpt lat="45.17609" lon="6.1689">
        <ele>2650.966</ele>
        <time>2022-07-17T10:35:49Z</time>
      </trkpt>
      <trkpt lat="45.17604" lon="6.16888">
        <ele>2652.963</ele>
        <time>2022-07-17T10:35:54Z</time>
      </trkpt>
      <trkpt lat="45.17602" lon="6.16888">
        <ele>2653.248</ele>
        <time>2022-07-17T10:35:59Z</time>
      </trkpt>
      <trkpt lat="45.17599" lon="6.16885">
        <ele>2654.662</ele>
        <time>2022-07-17T10:36:04Z</time>
      </trkpt>
      <trkpt lat="45.17596" lon="6.16883">
        <ele>2654.353</ele>
        <time>2022-07-17T10:36:09Z</time>
      </trkpt>
      <trkpt lat="45.17593" lon="6.16882">
        <ele>2655.474</ele>
        <time>2022-07-17T10:36:14Z</time>
      </trkpt>
      <trkpt lat="45.1759" lon="6.16881">
        <ele>2656.449</ele>
        <time>2022-07-17T10:36:19Z</time>
      </trkpt>
      <trkpt lat="45.17588" lon="6.1688">
        <ele>2656.572</ele>
        <time>2022-07-17T10:36:24Z</time>
      </trkpt>
      <trkpt lat="45.17586" lon="6.16878">
        <ele>2656.855</ele>
        <time>2022-07-17T10:36:29Z</time>
      </trkpt>
      <trkpt lat="45.17584" lon="6.16877">
        <ele>2657.616</ele>
        <time>2022-07-17T10:36:34Z</time>
      </trkpt>
      <trkpt lat="45.17581" lon="6.16875">
        <ele>2658.932</ele>
        <time>2022-07-17T10:36:39Z</time>
      </trkpt>
      <trkpt lat="45.17579" lon="6.16876">
        <ele>2659.763</ele>
        <time>2022-07-17T10:36:44Z</time>
      </trkpt>
      <trkpt lat="45.17577" lon="6.16875">
        <ele>2660.298</ele>
        <time>2022-07-17T10:36:49Z</time>
      </trkpt>
      <trkpt lat="45.17575" lon="6.16874">
        <ele>2660.388</ele>
        <time>2022-07-17T10:36:54Z</time>
      </trkpt>
      <trkpt lat="45.17573" lon="6.16874">
        <ele>2661.64</ele>
        <time>2022-07-17T10:36:59Z</time>
      </trkpt>
      <trkpt lat="45.1757" lon="6.16875">
        <ele>2661.842</ele>
        <time>2022-07-17T10:37:04Z</time>
      </trkpt>
      <trkpt lat="45.17567" lon="6.16873">
        <ele>2661.944</ele>
        <time>2022-07-17T10:37:09Z</time>
      </trkpt>
      <trkpt lat="45.17564" lon="6.1687">
        <ele>2662.797</ele>
        <time>2022-07-17T10:37:14Z</time>
      </trkpt>
      <trkpt lat="45.1756" lon="6.16867">
        <ele>2663.541</ele>
        <time>2022-07-17T10:37:19Z</time>
      </trkpt>
      <trkpt lat="45.17553" lon="6.16865">
        <ele>2665.899</ele>
        <time>2022-07-17T10:37:24Z</time>
      </trkpt>
      <trkpt lat="45.17549" lon="6.16868">
        <ele>2667.231</ele>
        <time>2022-07-17T10:37:29Z</time>
      </trkpt>
      <trkpt lat="45.17547" lon="6.16863">
        <ele>2668.444</ele>
        <time>2022-07-17T10:37:34Z</time>
      </trkpt>
      <trkpt lat="45.17546" lon="6.16858">
        <ele>2668.417</ele>
        <time>2022-07-17T10:37:39Z</time>
      </trkpt>
      <trkpt lat="45.17544" lon="6.16856">
        <ele>2667.693</ele>
        <time>2022-07-17T10:37:44Z</time>
      </trkpt>
      <trkpt lat="45.17542" lon="6.16855">
        <ele>2668.204</ele>
        <time>2022-07-17T10:37:49Z</time>
      </trkpt>
      <trkpt lat="45.17539" lon="6.16853">
        <ele>2668.462</ele>
        <time>2022-07-17T10:37:54Z</time>
      </trkpt>
      <trkpt lat="45.17537" lon="6.16853">
        <ele>2668.665</ele>
        <time>2022-07-17T10:37:59Z</time>
      </trkpt>
      <trkpt lat="45.17536" lon="6.16852">
        <ele>2669.462</ele>
        <time>2022-07-17T10:38:04Z</time>
      </trkpt>
      <trkpt lat="45.17533" lon="6.16849">
        <ele>2669.07</ele>
        <time>2022-07-17T10:38:09Z</time>
      </trkpt>
      <trkpt lat="45.17529" lon="6.16846">
        <ele>2669.735</ele>
        <time>2022-07-17T10:38:14Z</time>
      </trkpt>
      <trkpt lat="45.17524" lon="6.16843">
        <ele>2671.11</ele>
        <time>2022-07-17T10:38:19Z</time>
      </trkpt>
      <trkpt lat="45.1752" lon="6.1684">
        <ele>2671.699</ele>
        <time>2022-07-17T10:38:24Z</time>
      </trkpt>
      <trkpt lat="45.17516" lon="6.16833">
        <ele>2672.442</ele>
        <time>2022-07-17T10:38:29Z</time>
      </trkpt>
      <trkpt lat="45.17511" lon="6.16829">
        <ele>2673.329</ele>
        <time>2022-07-17T10:38:34Z</time>
      </trkpt>
      <trkpt lat="45.17507" lon="6.1682">
        <ele>2674.262</ele>
        <time>2022-07-17T10:38:39Z</time>
      </trkpt>
      <trkpt lat="45.17504" lon="6.16816">
        <ele>2675.299</ele>
        <time>2022-07-17T10:38:44Z</time>
      </trkpt>
      <trkpt lat="45.17499" lon="6.1681">
        <ele>2675.952</ele>
        <time>2022-07-17T10:38:49Z</time>
      </trkpt>
      <trkpt lat="45.17494" lon="6.16806">
        <ele>2677.24</ele>
        <time>2022-07-17T10:38:54Z</time>
      </trkpt>
      <trkpt lat="45.17489" lon="6.16801">
        <ele>2677.866</ele>
        <time>2022-07-17T10:38:59Z</time>
      </trkpt>
      <trkpt lat="45.17483" lon="6.16797">
        <ele>2678.121</ele>
        <time>2022-07-17T10:39:04Z</time>
      </trkpt>
      <trkpt lat="45.17477" lon="6.16796">
        <ele>2679.1</ele>
        <time>2022-07-17T10:39:09Z</time>
      </trkpt>
      <trkpt lat="45.17473" lon="6.16793">
        <ele>2680.63</ele>
        <time>2022-07-17T10:39:14Z</time>
      </trkpt>
      <trkpt lat="45.17467" lon="6.1679">
        <ele>2682.335</ele>
        <time>2022-07-17T10:39:19Z</time>
      </trkpt>
      <trkpt lat="45.17461" lon="6.16786">
        <ele>2683.058</ele>
        <time>2022-07-17T10:39:24Z</time>
      </trkpt>
      <trkpt lat="45.17456" lon="6.16782">
        <ele>2684.91</ele>
        <time>2022-07-17T10:39:29Z</time>
      </trkpt>
      <trkpt lat="45.1745" lon="6.16777">
        <ele>2685.623</ele>
        <time>2022-07-17T10:39:34Z</time>
      </trkpt>
      <trkpt lat="45.17445" lon="6.16771">
        <ele>2685.912</ele>
        <time>2022-07-17T10:39:39Z</time>
      </trkpt>
      <trkpt lat="45.17444" lon="6.1677">
        <ele>2686.569</ele>
        <time>2022-07-17T10:39:44Z</time>
      </trkpt>
      <trkpt lat="45.17442" lon="6.1677">
        <ele>2686.988</ele>
        <time>2022-07-17T10:39:49Z</time>
      </trkpt>
      <trkpt lat="45.1744" lon="6.16768">
        <ele>2686.963</ele>
        <time>2022-07-17T10:39:54Z</time>
      </trkpt>
      <trkpt lat="45.17437" lon="6.16765">
        <ele>2687.79</ele>
        <time>2022-07-17T10:39:59Z</time>
      </trkpt>
      <trkpt lat="45.17435" lon="6.16763">
        <ele>2688.04</ele>
        <time>2022-07-17T10:40:04Z</time>
      </trkpt>
      <trkpt lat="45.17432" lon="6.16762">
        <ele>2688.733</ele>
        <time>2022-07-17T10:40:09Z</time>
      </trkpt>
      <trkpt lat="45.17429" lon="6.16762">
        <ele>2689.773</ele>
        <time>2022-07-17T10:40:14Z</time>
      </trkpt>
      <trkpt lat="45.17426" lon="6.16761">
        <ele>2690.167</ele>
        <time>2022-07-17T10:40:19Z</time>
      </trkpt>
      <trkpt lat="45.17424" lon="6.1676">
        <ele>2690.093</ele>
        <time>2022-07-17T10:40:24Z</time>
      </trkpt>
      <trkpt lat="45.1742" lon="6.16759">
        <ele>2690.927</ele>
        <time>2022-07-17T10:40:29Z</time>
      </trkpt>
      <trkpt lat="45.17417" lon="6.16757">
        <ele>2691.162</ele>
        <time>2022-07-17T10:40:34Z</time>
      </trkpt>
      <trkpt lat="45.17414" lon="6.16755">
        <ele>2691.857</ele>
        <time>2022-07-17T10:40:39Z</time>
      </trkpt>
      <trkpt lat="45.17411" lon="6.16752">
        <ele>2692.502</ele>
        <time>2022-07-17T10:40:44Z</time>
      </trkpt>
      <trkpt lat="45.17406" lon="6.16748">
        <ele>2692.506</ele>
        <time>2022-07-17T10:40:49Z</time>
      </trkpt>
      <trkpt lat="45.17401" lon="6.16745">
        <ele>2692.346</ele>
        <time>2022-07-17T10:40:54Z</time>
      </trkpt>
      <trkpt lat="45.17395" lon="6.16741">
        <ele>2692.92</ele>
        <time>2022-07-17T10:40:59Z</time>
      </trkpt>
      <trkpt lat="45.17389" lon="6.16738">
        <ele>2694.672</ele>
        <time>2022-07-17T10:41:04Z</time>
      </trkpt>
      <trkpt lat="45.17383" lon="6.16736">
        <ele>2695.267</ele>
        <time>2022-07-17T10:41:09Z</time>
      </trkpt>
      <trkpt lat="45.17374" lon="6.16731">
        <ele>2696.114</ele>
        <time>2022-07-17T10:41:14Z</time>
      </trkpt>
      <trkpt lat="45.17368" lon="6.16728">
        <ele>2694.897</ele>
        <time>2022-07-17T10:41:19Z</time>
      </trkpt>
      <trkpt lat="45.1736" lon="6.16722">
        <ele>2693.451</ele>
        <time>2022-07-17T10:41:24Z</time>
      </trkpt>
      <trkpt lat="45.17353" lon="6.16714">
        <ele>2695.831</ele>
        <time>2022-07-17T10:41:29Z</time>
      </trkpt>
      <trkpt lat="45.17348" lon="6.16706">
        <ele>2694.066</ele>
        <time>2022-07-17T10:41:34Z</time>
      </trkpt>
      <trkpt lat="45.17345" lon="6.16701">
        <ele>2694.929</ele>
        <time>2022-07-17T10:41:39Z</time>
      </trkpt>
      <trkpt lat="45.17343" lon="6.16697">
        <ele>2694.837</ele>
        <time>2022-07-17T10:41:44Z</time>
      </trkpt>
      <trkpt lat="45.17336" lon="6.16697">
        <ele>2695.109</ele>
        <time>2022-07-17T10:41:49Z</time>
      </trkpt>
      <trkpt lat="45.17328" lon="6.16693">
        <ele>2694.042</ele>
        <time>2022-07-17T10:41:54Z</time>
      </trkpt>
      <trkpt lat="45.17326" lon="6.16692">
        <ele>2694.329</ele>
        <time>2022-07-17T10:41:59Z</time>
      </trkpt>
      <trkpt lat="45.17325" lon="6.16692">
        <ele>2695.075</ele>
        <time>2022-07-17T10:42:04Z</time>
      </trkpt>
      <trkpt lat="45.17325" lon="6.16691">
        <ele>2694.565</ele>
        <time>2022-07-17T10:42:09Z</time>
      </trkpt>
      <trkpt lat="45.17325" lon="6.16692">
        <ele>2693.661</ele>
        <time>2022-07-17T10:42:14Z</time>
      </trkpt>
      <trkpt lat="45.17325" lon="6.16692">
        <ele>2693.663</ele>
        <time>2022-07-17T10:42:19Z</time>
      </trkpt>
      <trkpt lat="45.17325" lon="6.16692">
        <ele>2693.661</ele>
        <time>2022-07-17T10:42:24Z</time>
      </trkpt>
      <trkpt lat="45.17325" lon="6.16692">
        <ele>2693.654</ele>
        <time>2022-07-17T10:42:29Z</time>
      </trkpt>
      <trkpt lat="45.17325" lon="6.16692">
        <ele>2693.649</ele>
        <time>2022-07-17T10:42:34Z</time>
      </trkpt>
      <trkpt lat="45.17325" lon="6.16692">
        <ele>2694.067</ele>
        <time>2022-07-17T10:42:39Z</time>
      </trkpt>
      <trkpt lat="45.17326" lon="6.16692">
        <ele>2693.925</ele>
        <time>2022-07-17T10:42:44Z</time>
      </trkpt>
      <trkpt lat="45.17326" lon="6.16692">
        <ele>2693.899</ele>
        <time>2022-07-17T10:42:49Z</time>
      </trkpt>
      <trkpt lat="45.17326" lon="6.16692">
        <ele>2693.897</ele>
        <time>2022-07-17T10:42:54Z</time>
      </trkpt>
      <trkpt lat="45.17326" lon="6.16692">
        <ele>2694.481</ele>
        <time>2022-07-17T10:42:59Z</time>
      </trkpt>
      <trkpt lat="45.17326" lon="6.16692">
        <ele>2694.484</ele>
        <time>2022-07-17T10:43:04Z</time>
      </trkpt>
      <trkpt lat="45.17326" lon="6.16692">
        <ele>2694.488</ele>
        <time>2022-07-17T10:43:09Z</time>
      </trkpt>
      <trkpt lat="45.17326" lon="6.16692">
        <ele>2694.492</ele>
        <time>2022-07-17T10:43:14Z</time>
      </trkpt>
      <trkpt lat="45.17326" lon="6.16692">
        <ele>2694.495</ele>
        <time>2022-07-17T10:43:19Z</time>
      </trkpt>
      <trkpt lat="45.17327" lon="6.16692">
        <ele>2694.495</ele>
        <time>2022-07-17T10:43:24Z</time>
      </trkpt>
      <trkpt lat="45.17327" lon="6.16693">
        <ele>2694.504</ele>
        <time>2022-07-17T10:43:29Z</time>
      </trkpt>
      <trkpt lat="45.17327" lon="6.16693">
        <ele>2694.515</ele>
        <time>2022-07-17T10:43:34Z</time>
      </trkpt>
      <trkpt lat="45.17327" lon="6.16693">
        <ele>2694.518</ele>
        <time>2022-07-17T10:43:39Z</time>
      </trkpt>
      <trkpt lat="45.17327" lon="6.16693">
        <ele>2694.578</ele>
        <time>2022-07-17T10:43:44Z</time>
      </trkpt>
      <trkpt lat="45.17327" lon="6.16692">
        <ele>2694.655</ele>
        <time>2022-07-17T10:43:49Z</time>
      </trkpt>
      <trkpt lat="45.17327" lon="6.16693">
        <ele>2694.739</ele>
        <time>2022-07-17T10:43:54Z</time>
      </trkpt>
      <trkpt lat="45.17328" lon="6.16693">
        <ele>2695.033</ele>
        <time>2022-07-17T10:43:59Z</time>
      </trkpt>
      <trkpt lat="45.17328" lon="6.16693">
        <ele>2695.18</ele>
        <time>2022-07-17T10:44:04Z</time>
      </trkpt>
      <trkpt lat="45.17328" lon="6.16693">
        <ele>2695.174</ele>
        <time>2022-07-17T10:44:09Z</time>
      </trkpt>
      <trkpt lat="45.17328" lon="6.16693">
        <ele>2695.166</ele>
        <time>2022-07-17T10:44:14Z</time>
      </trkpt>
      <trkpt lat="45.17328" lon="6.16693">
        <ele>2695.173</ele>
        <time>2022-07-17T10:44:19Z</time>
      </trkpt>
      <trkpt lat="45.17328" lon="6.16693">
        <ele>2695.175</ele>
        <time>2022-07-17T10:44:24Z</time>
      </trkpt>
      <trkpt lat="45.17328" lon="6.16693">
        <ele>2695.087</ele>
        <time>2022-07-17T10:44:29Z</time>
      </trkpt>
      <trkpt lat="45.17328" lon="6.16693">
        <ele>2695.085</ele>
        <time>2022-07-17T10:44:34Z</time>
      </trkpt>
      <trkpt lat="45.17328" lon="6.16693">
        <ele>2695.082</ele>
        <time>2022-07-17T10:44:39Z</time>
      </trkpt>
      <trkpt lat="45.17328" lon="6.16693">
        <ele>2695.085</ele>
        <time>2022-07-17T10:44:44Z</time>
      </trkpt>
      <trkpt lat="45.17328" lon="6.16693">
        <ele>2695.085</ele>
        <time>2022-07-17T10:44:49Z</time>
      </trkpt>
      <trkpt lat="45.17328" lon="6.16693">
        <ele>2695.087</ele>
        <time>2022-07-17T10:44:54Z</time>
      </trkpt>
      <trkpt lat="45.17328" lon="6.16693">
        <ele>2695.381</ele>
        <time>2022-07-17T10:44:59Z</time>
      </trkpt>
      <trkpt lat="45.17328" lon="6.16693">
        <ele>2695.409</ele>
        <time>2022-07-17T10:45:04Z</time>
      </trkpt>
      <trkpt lat="45.17328" lon="6.16693">
        <ele>2695.418</ele>
        <time>2022-07-17T10:45:09Z</time>
      </trkpt>
      <trkpt lat="45.17328" lon="6.16693">
        <ele>2694.863</ele>
        <time>2022-07-17T10:45:14Z</time>
      </trkpt>
      <trkpt lat="45.17327" lon="6.16693">
        <ele>2695.319</ele>
        <time>2022-07-17T10:45:19Z</time>
      </trkpt>
      <trkpt lat="45.17327" lon="6.16693">
        <ele>2695.323</ele>
        <time>2022-07-17T10:45:24Z</time>
      </trkpt>
      <trkpt lat="45.17327" lon="6.16693">
        <ele>2695.32</ele>
        <time>2022-07-17T10:45:29Z</time>
      </trkpt>
      <trkpt lat="45.17327" lon="6.16693">
        <ele>2695.316</ele>
        <time>2022-07-17T10:45:34Z</time>
      </trkpt>
      <trkpt lat="45.17327" lon="6.16693">
        <ele>2695.313</ele>
        <time>2022-07-17T10:45:39Z</time>
      </trkpt>
      <trkpt lat="45.17327" lon="6.16693">
        <ele>2695.386</ele>
        <time>2022-07-17T10:45:44Z</time>
      </trkpt>
      <trkpt lat="45.17328" lon="6.16693">
        <ele>2695.891</ele>
        <time>2022-07-17T10:45:49Z</time>
      </trkpt>
      <trkpt lat="45.17327" lon="6.16693">
        <ele>2695.792</ele>
        <time>2022-07-17T10:45:54Z</time>
      </trkpt>
      <trkpt lat="45.17327" lon="6.16693">
        <ele>2695.79</ele>
        <time>2022-07-17T10:45:59Z</time>
      </trkpt>
      <trkpt lat="45.17327" lon="6.16693">
        <ele>2695.909</ele>
        <time>2022-07-17T10:46:04Z</time>
      </trkpt>
      <trkpt lat="45.17327" lon="6.16693">
        <ele>2695.925</ele>
        <time>2022-07-17T10:46:09Z</time>
      </trkpt>
      <trkpt lat="45.17328" lon="6.16693">
        <ele>2695.93</ele>
        <time>2022-07-17T10:46:14Z</time>
      </trkpt>
      <trkpt lat="45.17327" lon="6.16693">
        <ele>2695.657</ele>
        <time>2022-07-17T10:46:19Z</time>
      </trkpt>
      <trkpt lat="45.17327" lon="6.16693">
        <ele>2695.655</ele>
        <time>2022-07-17T10:46:24Z</time>
      </trkpt>
      <trkpt lat="45.17327" lon="6.16693">
        <ele>2695.652</ele>
        <time>2022-07-17T10:46:29Z</time>
      </trkpt>
      <trkpt lat="45.17327" lon="6.16693">
        <ele>2695.734</ele>
        <time>2022-07-17T10:46:34Z</time>
      </trkpt>
      <trkpt lat="45.17327" lon="6.16692">
        <ele>2695.306</ele>
        <time>2022-07-17T10:46:39Z</time>
      </trkpt>
      <trkpt lat="45.17326" lon="6.16692">
        <ele>2695.308</ele>
        <time>2022-07-17T10:46:44Z</time>
      </trkpt>
      <trkpt lat="45.17326" lon="6.16692">
        <ele>2695.298</ele>
        <time>2022-07-17T10:46:49Z</time>
      </trkpt>
      <trkpt lat="45.17326" lon="6.16692">
        <ele>2695.135</ele>
        <time>2022-07-17T10:46:54Z</time>
      </trkpt>
      <trkpt lat="45.17326" lon="6.16692">
        <ele>2695.131</ele>
        <time>2022-07-17T10:46:59Z</time>
      </trkpt>
      <trkpt lat="45.17326" lon="6.16692">
        <ele>2695.127</ele>
        <time>2022-07-17T10:47:04Z</time>
      </trkpt>
      <trkpt lat="45.17326" lon="6.16692">
        <ele>2695.106</ele>
        <time>2022-07-17T10:47:09Z</time>
      </trkpt>
      <trkpt lat="45.17326" lon="6.16692">
        <ele>2695.098</ele>
        <time>2022-07-17T10:47:14Z</time>
      </trkpt>
      <trkpt lat="45.17326" lon="6.16692">
        <ele>2695.097</ele>
        <time>2022-07-17T10:47:19Z</time>
      </trkpt>
      <trkpt lat="45.17326" lon="6.16692">
        <ele>2695.093</ele>
        <time>2022-07-17T10:47:24Z</time>
      </trkpt>
      <trkpt lat="45.17326" lon="6.16692">
        <ele>2695.085</ele>
        <time>2022-07-17T10:47:29Z</time>
      </trkpt>
      <trkpt lat="45.17326" lon="6.16692">
        <ele>2695.011</ele>
        <time>2022-07-17T10:47:34Z</time>
      </trkpt>
      <trkpt lat="45.17327" lon="6.16693">
        <ele>2694.32</ele>
        <time>2022-07-17T10:47:39Z</time>
      </trkpt>
      <trkpt lat="45.17328" lon="6.16695">
        <ele>2694.59</ele>
        <time>2022-07-17T10:47:44Z</time>
      </trkpt>
      <trkpt lat="45.17328" lon="6.16702">
        <ele>2693.706</ele>
        <time>2022-07-17T10:47:49Z</time>
      </trkpt>
      <trkpt lat="45.17322" lon="6.1672">
        <ele>2693.551</ele>
        <time>2022-07-17T10:47:54Z</time>
      </trkpt>
      <trkpt lat="45.17316" lon="6.16724">
        <ele>2694.436</ele>
        <time>2022-07-17T10:47:59Z</time>
      </trkpt>
      <trkpt lat="45.17311" lon="6.16726">
        <ele>2694.663</ele>
        <time>2022-07-17T10:48:04Z</time>
      </trkpt>
      <trkpt lat="45.17307" lon="6.16727">
        <ele>2694.345</ele>
        <time>2022-07-17T10:48:09Z</time>
      </trkpt>
      <trkpt lat="45.17304" lon="6.16732">
        <ele>2694.098</ele>
        <time>2022-07-17T10:48:14Z</time>
      </trkpt>
      <trkpt lat="45.17301" lon="6.16737">
        <ele>2693.422</ele>
        <time>2022-07-17T10:48:19Z</time>
      </trkpt>
      <trkpt lat="45.17303" lon="6.16742">
        <ele>2693.217</ele>
        <time>2022-07-17T10:48:24Z</time>
      </trkpt>
      <trkpt lat="45.17308" lon="6.1674">
        <ele>2693.032</ele>
        <time>2022-07-17T10:48:29Z</time>
      </trkpt>
      <trkpt lat="45.1731" lon="6.1674">
        <ele>2693.498</ele>
        <time>2022-07-17T10:48:34Z</time>
      </trkpt>
      <trkpt lat="45.17311" lon="6.16739">
        <ele>2693.768</ele>
        <time>2022-07-17T10:48:39Z</time>
      </trkpt>
      <trkpt lat="45.17315" lon="6.16738">
        <ele>2693.773</ele>
        <time>2022-07-17T10:48:44Z</time>
      </trkpt>
      <trkpt lat="45.17318" lon="6.16738">
        <ele>2694.265</ele>
        <time>2022-07-17T10:48:49Z</time>
      </trkpt>
      <trkpt lat="45.17321" lon="6.1674">
        <ele>2694.882</ele>
        <time>2022-07-17T10:48:54Z</time>
      </trkpt>
      <trkpt lat="45.17323" lon="6.16741">
        <ele>2695.613</ele>
        <time>2022-07-17T10:48:59Z</time>
      </trkpt>
      <trkpt lat="45.17326" lon="6.16743">
        <ele>2695.93</ele>
        <time>2022-07-17T10:49:04Z</time>
      </trkpt>
      <trkpt lat="45.17329" lon="6.16745">
        <ele>2696.645</ele>
        <time>2022-07-17T10:49:09Z</time>
      </trkpt>
      <trkpt lat="45.17331" lon="6.16746">
        <ele>2697.289</ele>
        <time>2022-07-17T10:49:14Z</time>
      </trkpt>
      <trkpt lat="45.17336" lon="6.16748">
        <ele>2698.146</ele>
        <time>2022-07-17T10:49:19Z</time>
      </trkpt>
      <trkpt lat="45.1734" lon="6.16751">
        <ele>2697.478</ele>
        <time>2022-07-17T10:49:24Z</time>
      </trkpt>
      <trkpt lat="45.17344" lon="6.16754">
        <ele>2697.16</ele>
        <time>2022-07-17T10:49:29Z</time>
      </trkpt>
      <trkpt lat="45.1735" lon="6.16757">
        <ele>2695.12</ele>
        <time>2022-07-17T10:49:34Z</time>
      </trkpt>
      <trkpt lat="45.17356" lon="6.16761">
        <ele>2696.753</ele>
        <time>2022-07-17T10:49:39Z</time>
      </trkpt>
      <trkpt lat="45.17362" lon="6.16764">
        <ele>2697.201</ele>
        <time>2022-07-17T10:49:44Z</time>
      </trkpt>
      <trkpt lat="45.17369" lon="6.16766">
        <ele>2698.123</ele>
        <time>2022-07-17T10:49:49Z</time>
      </trkpt>
      <trkpt lat="45.17373" lon="6.16769">
        <ele>2699.647</ele>
        <time>2022-07-17T10:49:54Z</time>
      </trkpt>
      <trkpt lat="45.17373" lon="6.16772">
        <ele>2700.189</ele>
        <time>2022-07-17T10:49:59Z</time>
      </trkpt>
      <trkpt lat="45.17378" lon="6.16774">
        <ele>2698.469</ele>
        <time>2022-07-17T10:50:04Z</time>
      </trkpt>
      <trkpt lat="45.17385" lon="6.16776">
        <ele>2696.978</ele>
        <time>2022-07-17T10:50:09Z</time>
      </trkpt>
      <trkpt lat="45.1739" lon="6.16781">
        <ele>2696.931</ele>
        <time>2022-07-17T10:50:14Z</time>
      </trkpt>
      <trkpt lat="45.17393" lon="6.16788">
        <ele>2696.739</ele>
        <time>2022-07-17T10:50:19Z</time>
      </trkpt>
      <trkpt lat="45.17397" lon="6.16795">
        <ele>2697.941</ele>
        <time>2022-07-17T10:50:24Z</time>
      </trkpt>
      <trkpt lat="45.17401" lon="6.16801">
        <ele>2697.94</ele>
        <time>2022-07-17T10:50:29Z</time>
      </trkpt>
      <trkpt lat="45.17406" lon="6.16804">
        <ele>2699.012</ele>
        <time>2022-07-17T10:50:34Z</time>
      </trkpt>
      <trkpt lat="45.17411" lon="6.16806">
        <ele>2699.091</ele>
        <time>2022-07-17T10:50:39Z</time>
      </trkpt>
      <trkpt lat="45.17417" lon="6.16807">
        <ele>2698.703</ele>
        <time>2022-07-17T10:50:44Z</time>
      </trkpt>
      <trkpt lat="45.1742" lon="6.16807">
        <ele>2698.467</ele>
        <time>2022-07-17T10:50:49Z</time>
      </trkpt>
      <trkpt lat="45.1742" lon="6.16807">
        <ele>2699.452</ele>
        <time>2022-07-17T10:50:54Z</time>
      </trkpt>
      <trkpt lat="45.17419" lon="6.16807">
        <ele>2699.503</ele>
        <time>2022-07-17T10:50:59Z</time>
      </trkpt>
      <trkpt lat="45.17419" lon="6.16807">
        <ele>2699.435</ele>
        <time>2022-07-17T10:51:04Z</time>
      </trkpt>
      <trkpt lat="45.17419" lon="6.16808">
        <ele>2699.291</ele>
        <time>2022-07-17T10:51:09Z</time>
      </trkpt>
      <trkpt lat="45.17419" lon="6.16808">
        <ele>2700.301</ele>
        <time>2022-07-17T10:51:14Z</time>
      </trkpt>
      <trkpt lat="45.17419" lon="6.16809">
        <ele>2700.055</ele>
        <time>2022-07-17T10:51:19Z</time>
      </trkpt>
      <trkpt lat="45.17419" lon="6.16809">
        <ele>2700.039</ele>
        <time>2022-07-17T10:51:24Z</time>
      </trkpt>
      <trkpt lat="45.17419" lon="6.16809">
        <ele>2700.029</ele>
        <time>2022-07-17T10:51:29Z</time>
      </trkpt>
      <trkpt lat="45.17418" lon="6.16808">
        <ele>2699.816</ele>
        <time>2022-07-17T10:51:34Z</time>
      </trkpt>
      <trkpt lat="45.17418" lon="6.16809">
        <ele>2700.725</ele>
        <time>2022-07-17T10:51:39Z</time>
      </trkpt>
      <trkpt lat="45.17418" lon="6.16809">
        <ele>2700.71</ele>
        <time>2022-07-17T10:51:44Z</time>
      </trkpt>
      <trkpt lat="45.17418" lon="6.16808">
        <ele>2700.873</ele>
        <time>2022-07-17T10:51:49Z</time>
      </trkpt>
      <trkpt lat="45.17418" lon="6.16808">
        <ele>2700.894</ele>
        <time>2022-07-17T10:51:54Z</time>
      </trkpt>
      <trkpt lat="45.17418" lon="6.16807">
        <ele>2700.994</ele>
        <time>2022-07-17T10:51:59Z</time>
      </trkpt>
      <trkpt lat="45.17418" lon="6.16808">
        <ele>2701.12</ele>
        <time>2022-07-17T10:52:04Z</time>
      </trkpt>
      <trkpt lat="45.17418" lon="6.16808">
        <ele>2701.115</ele>
        <time>2022-07-17T10:52:09Z</time>
      </trkpt>
      <trkpt lat="45.17418" lon="6.16808">
        <ele>2701.473</ele>
        <time>2022-07-17T10:52:14Z</time>
      </trkpt>
      <trkpt lat="45.17418" lon="6.1681">
        <ele>2701.597</ele>
        <time>2022-07-17T10:52:19Z</time>
      </trkpt>
      <trkpt lat="45.17416" lon="6.16808">
        <ele>2701.632</ele>
        <time>2022-07-17T10:52:24Z</time>
      </trkpt>
      <trkpt lat="45.17413" lon="6.16807">
        <ele>2702.29</ele>
        <time>2022-07-17T10:52:29Z</time>
      </trkpt>
      <trkpt lat="45.17409" lon="6.16805">
        <ele>2702.707</ele>
        <time>2022-07-17T10:52:34Z</time>
      </trkpt>
      <trkpt lat="45.17404" lon="6.16804">
        <ele>2703.197</ele>
        <time>2022-07-17T10:52:39Z</time>
      </trkpt>
      <trkpt lat="45.17399" lon="6.16804">
        <ele>2702.943</ele>
        <time>2022-07-17T10:52:44Z</time>
      </trkpt>
      <trkpt lat="45.17395" lon="6.16799">
        <ele>2702.671</ele>
        <time>2022-07-17T10:52:49Z</time>
      </trkpt>
      <trkpt lat="45.1739" lon="6.16793">
        <ele>2702.079</ele>
        <time>2022-07-17T10:52:54Z</time>
      </trkpt>
      <trkpt lat="45.17382" lon="6.16786">
        <ele>2702.86</ele>
        <time>2022-07-17T10:52:59Z</time>
      </trkpt>
      <trkpt lat="45.17376" lon="6.16774">
        <ele>2703.769</ele>
        <time>2022-07-17T10:53:04Z</time>
      </trkpt>
      <trkpt lat="45.17371" lon="6.16768">
        <ele>2702.826</ele>
        <time>2022-07-17T10:53:09Z</time>
      </trkpt>
      <trkpt lat="45.17369" lon="6.16767">
        <ele>2702.72</ele>
        <time>2022-07-17T10:53:14Z</time>
      </trkpt>
      <trkpt lat="45.17368" lon="6.16767">
        <ele>2702.674</ele>
        <time>2022-07-17T10:53:19Z</time>
      </trkpt>
      <trkpt lat="45.17368" lon="6.16767">
        <ele>2702.813</ele>
        <time>2022-07-17T10:53:24Z</time>
      </trkpt>
      <trkpt lat="45.17368" lon="6.16767">
        <ele>2702.576</ele>
        <time>2022-07-17T10:53:29Z</time>
      </trkpt>
      <trkpt lat="45.17368" lon="6.16767">
        <ele>2702.58</ele>
        <time>2022-07-17T10:53:34Z</time>
      </trkpt>
      <trkpt lat="45.17368" lon="6.16767">
        <ele>2702.581</ele>
        <time>2022-07-17T10:53:39Z</time>
      </trkpt>
      <trkpt lat="45.17368" lon="6.16767">
        <ele>2702.573</ele>
        <time>2022-07-17T10:53:44Z</time>
      </trkpt>
      <trkpt lat="45.17368" lon="6.16767">
        <ele>2702.559</ele>
        <time>2022-07-17T10:53:49Z</time>
      </trkpt>
      <trkpt lat="45.17368" lon="6.16767">
        <ele>2702.55</ele>
        <time>2022-07-17T10:53:54Z</time>
      </trkpt>
      <trkpt lat="45.17367" lon="6.16767">
        <ele>2702.724</ele>
        <time>2022-07-17T10:53:59Z</time>
      </trkpt>
      <trkpt lat="45.17362" lon="6.16766">
        <ele>2703.165</ele>
        <time>2022-07-17T10:54:04Z</time>
      </trkpt>
      <trkpt lat="45.17357" lon="6.16765">
        <ele>2702.535</ele>
        <time>2022-07-17T10:54:09Z</time>
      </trkpt>
      <trkpt lat="45.1735" lon="6.16762">
        <ele>2704.147</ele>
        <time>2022-07-17T10:54:14Z</time>
      </trkpt>
      <trkpt lat="45.17346" lon="6.16754">
        <ele>2700.76</ele>
        <time>2022-07-17T10:54:19Z</time>
      </trkpt>
      <trkpt lat="45.17346" lon="6.16753">
        <ele>2700.755</ele>
        <time>2022-07-17T10:54:24Z</time>
      </trkpt>
      <trkpt lat="45.17349" lon="6.1676">
        <ele>2701.215</ele>
        <time>2022-07-17T10:54:29Z</time>
      </trkpt>
      <trkpt lat="45.17358" lon="6.16759">
        <ele>2698.688</ele>
        <time>2022-07-17T10:54:34Z</time>
      </trkpt>
      <trkpt lat="45.17366" lon="6.16763">
        <ele>2700.853</ele>
        <time>2022-07-17T10:54:39Z</time>
      </trkpt>
      <trkpt lat="45.17367" lon="6.16764">
        <ele>2701.132</ele>
        <time>2022-07-17T10:54:44Z</time>
      </trkpt>
      <trkpt lat="45.17366" lon="6.16763">
        <ele>2700.638</ele>
        <time>2022-07-17T10:54:49Z</time>
      </trkpt>
      <trkpt lat="45.17365" lon="6.16758">
        <ele>2700.588</ele>
        <time>2022-07-17T10:54:54Z</time>
      </trkpt>
      <trkpt lat="45.17361" lon="6.16757">
        <ele>2700.005</ele>
        <time>2022-07-17T10:54:59Z</time>
      </trkpt>
      <trkpt lat="45.17361" lon="6.16757">
        <ele>2700.1</ele>
        <time>2022-07-17T10:55:04Z</time>
      </trkpt>
      <trkpt lat="45.17359" lon="6.16761">
        <ele>2702.887</ele>
        <time>2022-07-17T10:55:09Z</time>
      </trkpt>
      <trkpt lat="45.17359" lon="6.16764">
        <ele>2703.081</ele>
        <time>2022-07-17T10:55:14Z</time>
      </trkpt>
      <trkpt lat="45.17359" lon="6.16766">
        <ele>2703.909</ele>
        <time>2022-07-17T10:55:19Z</time>
      </trkpt>
      <trkpt lat="45.17357" lon="6.16767">
        <ele>2703.844</ele>
        <time>2022-07-17T10:55:24Z</time>
      </trkpt>
      <trkpt lat="45.17358" lon="6.16769">
        <ele>2703.644</ele>
        <time>2022-07-17T10:55:29Z</time>
      </trkpt>
      <trkpt lat="45.17358" lon="6.16769">
        <ele>2703.64</ele>
        <time>2022-07-17T10:55:34Z</time>
      </trkpt>
      <trkpt lat="45.17358" lon="6.16769">
        <ele>2703.63</ele>
        <time>2022-07-17T10:55:39Z</time>
      </trkpt>
      <trkpt lat="45.17358" lon="6.16769">
        <ele>2703.609</ele>
        <time>2022-07-17T10:55:44Z</time>
      </trkpt>
      <trkpt lat="45.1736" lon="6.16772">
        <ele>2703.654</ele>
        <time>2022-07-17T10:55:49Z</time>
      </trkpt>
      <trkpt lat="45.17364" lon="6.16775">
        <ele>2703.055</ele>
        <time>2022-07-17T10:55:54Z</time>
      </trkpt>
      <trkpt lat="45.17365" lon="6.16773">
        <ele>2703.058</ele>
        <time>2022-07-17T10:55:59Z</time>
      </trkpt>
      <trkpt lat="45.1736" lon="6.16764">
        <ele>2703.092</ele>
        <time>2022-07-17T10:56:04Z</time>
      </trkpt>
      <trkpt lat="45.17357" lon="6.16761">
        <ele>2701.918</ele>
        <time>2022-07-17T10:56:09Z</time>
      </trkpt>
      <trkpt lat="45.17355" lon="6.16768">
        <ele>2701.505</ele>
        <time>2022-07-17T10:56:14Z</time>
      </trkpt>
      <trkpt lat="45.17365" lon="6.16773">
        <ele>2701.709</ele>
        <time>2022-07-17T10:56:19Z</time>
      </trkpt>
      <trkpt lat="45.17369" lon="6.16774">
        <ele>2702.582</ele>
        <time>2022-07-17T10:56:24Z</time>
      </trkpt>
      <trkpt lat="45.17368" lon="6.16774">
        <ele>2702.599</ele>
        <time>2022-07-17T10:56:29Z</time>
      </trkpt>
      <trkpt lat="45.17368" lon="6.16774">
        <ele>2702.593</ele>
        <time>2022-07-17T10:56:34Z</time>
      </trkpt>
      <trkpt lat="45.17368" lon="6.16774">
        <ele>2702.584</ele>
        <time>2022-07-17T10:56:39Z</time>
      </trkpt>
      <trkpt lat="45.17368" lon="6.16774">
        <ele>2702.569</ele>
        <time>2022-07-17T10:56:44Z</time>
      </trkpt>
      <trkpt lat="45.17368" lon="6.16774">
        <ele>2702.585</ele>
        <time>2022-07-17T10:56:49Z</time>
      </trkpt>
      <trkpt lat="45.17368" lon="6.16774">
        <ele>2702.603</ele>
        <time>2022-07-17T10:56:54Z</time>
      </trkpt>
      <trkpt lat="45.17365" lon="6.16774">
        <ele>2702.731</ele>
        <time>2022-07-17T10:56:59Z</time>
      </trkpt>
      <trkpt lat="45.17362" lon="6.16765">
        <ele>2702.526</ele>
        <time>2022-07-17T10:57:04Z</time>
      </trkpt>
      <trkpt lat="45.17365" lon="6.16762">
        <ele>2702.175</ele>
        <time>2022-07-17T10:57:09Z</time>
      </trkpt>
      <trkpt lat="45.17371" lon="6.16768">
        <ele>2702.865</ele>
        <time>2022-07-17T10:57:14Z</time>
      </trkpt>
      <trkpt lat="45.17372" lon="6.1677">
        <ele>2702.879</ele>
        <time>2022-07-17T10:57:19Z</time>
      </trkpt>
      <trkpt lat="45.17374" lon="6.1677">
        <ele>2702.963</ele>
        <time>2022-07-17T10:57:24Z</time>
      </trkpt>
      <trkpt lat="45.17374" lon="6.16769">
        <ele>2702.809</ele>
        <time>2022-07-17T10:57:29Z</time>
      </trkpt>
      <trkpt lat="45.17373" lon="6.1677">
        <ele>2702.71</ele>
        <time>2022-07-17T10:57:34Z</time>
      </trkpt>
      <trkpt lat="45.17373" lon="6.1677">
        <ele>2702.7</ele>
        <time>2022-07-17T10:57:39Z</time>
      </trkpt>
      <trkpt lat="45.17373" lon="6.1677">
        <ele>2702.692</ele>
        <time>2022-07-17T10:57:44Z</time>
      </trkpt>
      <trkpt lat="45.17373" lon="6.1677">
        <ele>2702.684</ele>
        <time>2022-07-17T10:57:49Z</time>
      </trkpt>
      <trkpt lat="45.17368" lon="6.16767">
        <ele>2702.921</ele>
        <time>2022-07-17T10:57:54Z</time>
      </trkpt>
      <trkpt lat="45.17362" lon="6.16768">
        <ele>2703.041</ele>
        <time>2022-07-17T10:57:59Z</time>
      </trkpt>
      <trkpt lat="45.17363" lon="6.1677">
        <ele>2703.776</ele>
        <time>2022-07-17T10:58:04Z</time>
      </trkpt>
      <trkpt lat="45.17368" lon="6.16768">
        <ele>2705.001</ele>
        <time>2022-07-17T10:58:09Z</time>
      </trkpt>
      <trkpt lat="45.17374" lon="6.16769">
        <ele>2704.466</ele>
        <time>2022-07-17T10:58:14Z</time>
      </trkpt>
      <trkpt lat="45.17375" lon="6.16765">
        <ele>2703.948</ele>
        <time>2022-07-17T10:58:19Z</time>
      </trkpt>
      <trkpt lat="45.17375" lon="6.16765">
        <ele>2703.946</ele>
        <time>2022-07-17T10:58:24Z</time>
      </trkpt>
      <trkpt lat="45.17373" lon="6.16766">
        <ele>2703.863</ele>
        <time>2022-07-17T10:58:29Z</time>
      </trkpt>
      <trkpt lat="45.17373" lon="6.16766">
        <ele>2703.858</ele>
        <time>2022-07-17T10:58:34Z</time>
      </trkpt>
      <trkpt lat="45.17373" lon="6.16766">
        <ele>2703.85</ele>
        <time>2022-07-17T10:58:39Z</time>
      </trkpt>
      <trkpt lat="45.17373" lon="6.16766">
        <ele>2703.85</ele>
        <time>2022-07-17T10:58:44Z</time>
      </trkpt>
      <trkpt lat="45.17372" lon="6.16766">
        <ele>2703.744</ele>
        <time>2022-07-17T10:58:49Z</time>
      </trkpt>
      <trkpt lat="45.17372" lon="6.16766">
        <ele>2703.74</ele>
        <time>2022-07-17T10:58:54Z</time>
      </trkpt>
      <trkpt lat="45.17372" lon="6.16767">
        <ele>2703.826</ele>
        <time>2022-07-17T10:58:59Z</time>
      </trkpt>
      <trkpt lat="45.17372" lon="6.16767">
        <ele>2703.835</ele>
        <time>2022-07-17T10:59:04Z</time>
      </trkpt>
      <trkpt lat="45.17372" lon="6.16768">
        <ele>2703.799</ele>
        <time>2022-07-17T10:59:09Z</time>
      </trkpt>
      <trkpt lat="45.17365" lon="6.16766">
        <ele>2703.967</ele>
        <time>2022-07-17T10:59:14Z</time>
      </trkpt>
      <trkpt lat="45.17361" lon="6.16768">
        <ele>2703.376</ele>
        <time>2022-07-17T10:59:19Z</time>
      </trkpt>
      <trkpt lat="45.17361" lon="6.16768">
        <ele>2703.359</ele>
        <time>2022-07-17T10:59:24Z</time>
      </trkpt>
      <trkpt lat="45.17363" lon="6.16768">
        <ele>2703.595</ele>
        <time>2022-07-17T10:59:29Z</time>
      </trkpt>
      <trkpt lat="45.17366" lon="6.16772">
        <ele>2705.129</ele>
        <time>2022-07-17T10:59:34Z</time>
      </trkpt>
      <trkpt lat="45.1737" lon="6.16772">
        <ele>2705.269</ele>
        <time>2022-07-17T10:59:39Z</time>
      </trkpt>
      <trkpt lat="45.17372" lon="6.16775">
        <ele>2706.074</ele>
        <time>2022-07-17T10:59:44Z</time>
      </trkpt>
      <trkpt lat="45.17376" lon="6.16769">
        <ele>2703.931</ele>
        <time>2022-07-17T10:59:49Z</time>
      </trkpt>
      <trkpt lat="45.17376" lon="6.16768">
        <ele>2703.92</ele>
        <time>2022-07-17T10:59:54Z</time>
      </trkpt>
      <trkpt lat="45.17376" lon="6.16768">
        <ele>2703.659</ele>
        <time>2022-07-17T10:59:59Z</time>
      </trkpt>
      <trkpt lat="45.1737" lon="6.16766">
        <ele>2703.617</ele>
        <time>2022-07-17T11:00:04Z</time>
      </trkpt>
      <trkpt lat="45.17361" lon="6.16766">
        <ele>2703.171</ele>
        <time>2022-07-17T11:00:09Z</time>
      </trkpt>
      <trkpt lat="45.17362" lon="6.16774">
        <ele>2704.738</ele>
        <time>2022-07-17T11:00:14Z</time>
      </trkpt>
      <trkpt lat="45.17366" lon="6.16773">
        <ele>2704.2</ele>
        <time>2022-07-17T11:00:19Z</time>
      </trkpt>
      <trkpt lat="45.17367" lon="6.16772">
        <ele>2704.631</ele>
        <time>2022-07-17T11:00:24Z</time>
      </trkpt>
      <trkpt lat="45.17368" lon="6.16773">
        <ele>2703.979</ele>
        <time>2022-07-17T11:00:29Z</time>
      </trkpt>
      <trkpt lat="45.17368" lon="6.16772">
        <ele>2703.918</ele>
        <time>2022-07-17T11:00:34Z</time>
      </trkpt>
      <trkpt lat="45.17368" lon="6.16772">
        <ele>2703.852</ele>
        <time>2022-07-17T11:00:39Z</time>
      </trkpt>
      <trkpt lat="45.17368" lon="6.16772">
        <ele>2703.849</ele>
        <time>2022-07-17T11:00:44Z</time>
      </trkpt>
      <trkpt lat="45.17368" lon="6.16774">
        <ele>2703.7</ele>
        <time>2022-07-17T11:00:49Z</time>
      </trkpt>
      <trkpt lat="45.1737" lon="6.16769">
        <ele>2703.372</ele>
        <time>2022-07-17T11:00:54Z</time>
      </trkpt>
      <trkpt lat="45.1737" lon="6.1677">
        <ele>2703.126</ele>
        <time>2022-07-17T11:00:59Z</time>
      </trkpt>
      <trkpt lat="45.1737" lon="6.1677">
        <ele>2703.363</ele>
        <time>2022-07-17T11:01:04Z</time>
      </trkpt>
      <trkpt lat="45.1737" lon="6.1677">
        <ele>2703.366</ele>
        <time>2022-07-17T11:01:09Z</time>
      </trkpt>
      <trkpt lat="45.1737" lon="6.1677">
        <ele>2703.371</ele>
        <time>2022-07-17T11:01:14Z</time>
      </trkpt>
      <trkpt lat="45.1737" lon="6.16769">
        <ele>2703.377</ele>
        <time>2022-07-17T11:01:19Z</time>
      </trkpt>
      <trkpt lat="45.1737" lon="6.16769">
        <ele>2703.382</ele>
        <time>2022-07-17T11:01:24Z</time>
      </trkpt>
      <trkpt lat="45.1737" lon="6.16769">
        <ele>2703.383</ele>
        <time>2022-07-17T11:01:29Z</time>
      </trkpt>
      <trkpt lat="45.1737" lon="6.16769">
        <ele>2703.38</ele>
        <time>2022-07-17T11:01:34Z</time>
      </trkpt>
      <trkpt lat="45.1737" lon="6.1677">
        <ele>2703.274</ele>
        <time>2022-07-17T11:01:39Z</time>
      </trkpt>
      <trkpt lat="45.17369" lon="6.16771">
        <ele>2703.39</ele>
        <time>2022-07-17T11:01:44Z</time>
      </trkpt>
      <trkpt lat="45.1737" lon="6.16771">
        <ele>2703.411</ele>
        <time>2022-07-17T11:01:49Z</time>
      </trkpt>
      <trkpt lat="45.1737" lon="6.16771">
        <ele>2703.402</ele>
        <time>2022-07-17T11:01:54Z</time>
      </trkpt>
      <trkpt lat="45.1737" lon="6.16771">
        <ele>2703.247</ele>
        <time>2022-07-17T11:01:59Z</time>
      </trkpt>
      <trkpt lat="45.1737" lon="6.16771">
        <ele>2703.233</ele>
        <time>2022-07-17T11:02:04Z</time>
      </trkpt>
      <trkpt lat="45.1737" lon="6.16771">
        <ele>2703.243</ele>
        <time>2022-07-17T11:02:09Z</time>
      </trkpt>
      <trkpt lat="45.1737" lon="6.16771">
        <ele>2703.235</ele>
        <time>2022-07-17T11:02:14Z</time>
      </trkpt>
      <trkpt lat="45.17372" lon="6.16774">
        <ele>2703.055</ele>
        <time>2022-07-17T11:02:19Z</time>
      </trkpt>
      <trkpt lat="45.17371" lon="6.16774">
        <ele>2702.881</ele>
        <time>2022-07-17T11:02:24Z</time>
      </trkpt>
      <trkpt lat="45.17372" lon="6.16774">
        <ele>2702.585</ele>
        <time>2022-07-17T11:02:29Z</time>
      </trkpt>
      <trkpt lat="45.17373" lon="6.16773">
        <ele>2701.956</ele>
        <time>2022-07-17T11:02:34Z</time>
      </trkpt>
      <trkpt lat="45.17371" lon="6.16777">
        <ele>2701.62</ele>
        <time>2022-07-17T11:02:39Z</time>
      </trkpt>
      <trkpt lat="45.17371" lon="6.16779">
        <ele>2701.326</ele>
        <time>2022-07-17T11:02:44Z</time>
      </trkpt>
      <trkpt lat="45.17371" lon="6.16779">
        <ele>2701.474</ele>
        <time>2022-07-17T11:02:49Z</time>
      </trkpt>
      <trkpt lat="45.17371" lon="6.16779">
        <ele>2701.463</ele>
        <time>2022-07-17T11:02:54Z</time>
      </trkpt>
      <trkpt lat="45.17371" lon="6.16779">
        <ele>2701.459</ele>
        <time>2022-07-17T11:02:59Z</time>
      </trkpt>
      <trkpt lat="45.17371" lon="6.16779">
        <ele>2701.459</ele>
        <time>2022-07-17T11:03:04Z</time>
      </trkpt>
      <trkpt lat="45.17371" lon="6.16779">
        <ele>2701.54</ele>
        <time>2022-07-17T11:03:09Z</time>
      </trkpt>
      <trkpt lat="45.17371" lon="6.1678">
        <ele>2702.15</ele>
        <time>2022-07-17T11:03:14Z</time>
      </trkpt>
      <trkpt lat="45.17371" lon="6.16778">
        <ele>2702.108</ele>
        <time>2022-07-17T11:03:19Z</time>
      </trkpt>
      <trkpt lat="45.1737" lon="6.16778">
        <ele>2702.736</ele>
        <time>2022-07-17T11:03:24Z</time>
      </trkpt>
      <trkpt lat="45.17371" lon="6.16778">
        <ele>2702.809</ele>
        <time>2022-07-17T11:03:29Z</time>
      </trkpt>
      <trkpt lat="45.17371" lon="6.16778">
        <ele>2702.797</ele>
        <time>2022-07-17T11:03:34Z</time>
      </trkpt>
      <trkpt lat="45.17371" lon="6.16778">
        <ele>2702.784</ele>
        <time>2022-07-17T11:03:39Z</time>
      </trkpt>
      <trkpt lat="45.17371" lon="6.16778">
        <ele>2702.774</ele>
        <time>2022-07-17T11:03:44Z</time>
      </trkpt>
      <trkpt lat="45.17371" lon="6.16778">
        <ele>2702.765</ele>
        <time>2022-07-17T11:03:49Z</time>
      </trkpt>
      <trkpt lat="45.17371" lon="6.16778">
        <ele>2702.757</ele>
        <time>2022-07-17T11:03:54Z</time>
      </trkpt>
      <trkpt lat="45.17371" lon="6.16778">
        <ele>2702.752</ele>
        <time>2022-07-17T11:03:59Z</time>
      </trkpt>
      <trkpt lat="45.17371" lon="6.16778">
        <ele>2702.746</ele>
        <time>2022-07-17T11:04:04Z</time>
      </trkpt>
      <trkpt lat="45.17371" lon="6.16778">
        <ele>2702.735</ele>
        <time>2022-07-17T11:04:09Z</time>
      </trkpt>
      <trkpt lat="45.17371" lon="6.16777">
        <ele>2702.574</ele>
        <time>2022-07-17T11:04:14Z</time>
      </trkpt>
      <trkpt lat="45.17371" lon="6.16777">
        <ele>2702.555</ele>
        <time>2022-07-17T11:04:19Z</time>
      </trkpt>
      <trkpt lat="45.17371" lon="6.16777">
        <ele>2702.54</ele>
        <time>2022-07-17T11:04:24Z</time>
      </trkpt>
      <trkpt lat="45.17371" lon="6.16777">
        <ele>2702.526</ele>
        <time>2022-07-17T11:04:29Z</time>
      </trkpt>
      <trkpt lat="45.17371" lon="6.16777">
        <ele>2702.515</ele>
        <time>2022-07-17T11:04:34Z</time>
      </trkpt>
      <trkpt lat="45.17371" lon="6.16777">
        <ele>2702.501</ele>
        <time>2022-07-17T11:04:39Z</time>
      </trkpt>
      <trkpt lat="45.17371" lon="6.16777">
        <ele>2702.49</ele>
        <time>2022-07-17T11:04:44Z</time>
      </trkpt>
      <trkpt lat="45.17371" lon="6.16777">
        <ele>2702.478</ele>
        <time>2022-07-17T11:04:49Z</time>
      </trkpt>
      <trkpt lat="45.17371" lon="6.16777">
        <ele>2702.465</ele>
        <time>2022-07-17T11:04:54Z</time>
      </trkpt>
      <trkpt lat="45.17371" lon="6.16777">
        <ele>2702.445</ele>
        <time>2022-07-17T11:04:59Z</time>
      </trkpt>
      <trkpt lat="45.17371" lon="6.16777">
        <ele>2702.433</ele>
        <time>2022-07-17T11:05:04Z</time>
      </trkpt>
      <trkpt lat="45.17371" lon="6.16777">
        <ele>2702.418</ele>
        <time>2022-07-17T11:05:09Z</time>
      </trkpt>
      <trkpt lat="45.17371" lon="6.16777">
        <ele>2702.396</ele>
        <time>2022-07-17T11:05:14Z</time>
      </trkpt>
      <trkpt lat="45.17371" lon="6.16777">
        <ele>2702.388</ele>
        <time>2022-07-17T11:05:19Z</time>
      </trkpt>
      <trkpt lat="45.17371" lon="6.16777">
        <ele>2702.379</ele>
        <time>2022-07-17T11:05:24Z</time>
      </trkpt>
      <trkpt lat="45.17371" lon="6.16777">
        <ele>2702.367</ele>
        <time>2022-07-17T11:05:29Z</time>
      </trkpt>
      <trkpt lat="45.17371" lon="6.16777">
        <ele>2702.347</ele>
        <time>2022-07-17T11:05:34Z</time>
      </trkpt>
      <trkpt lat="45.17371" lon="6.16777">
        <ele>2702.333</ele>
        <time>2022-07-17T11:05:39Z</time>
      </trkpt>
      <trkpt lat="45.17371" lon="6.16777">
        <ele>2702.317</ele>
        <time>2022-07-17T11:05:44Z</time>
      </trkpt>
      <trkpt lat="45.17371" lon="6.16777">
        <ele>2702.301</ele>
        <time>2022-07-17T11:05:49Z</time>
      </trkpt>
      <trkpt lat="45.17371" lon="6.16777">
        <ele>2702.286</ele>
        <time>2022-07-17T11:05:54Z</time>
      </trkpt>
      <trkpt lat="45.17371" lon="6.16777">
        <ele>2702.269</ele>
        <time>2022-07-17T11:05:59Z</time>
      </trkpt>
      <trkpt lat="45.17371" lon="6.16777">
        <ele>2702.256</ele>
        <time>2022-07-17T11:06:04Z</time>
      </trkpt>
      <trkpt lat="45.17371" lon="6.16777">
        <ele>2702.241</ele>
        <time>2022-07-17T11:06:09Z</time>
      </trkpt>
      <trkpt lat="45.17371" lon="6.16777">
        <ele>2702.223</ele>
        <time>2022-07-17T11:06:14Z</time>
      </trkpt>
      <trkpt lat="45.17371" lon="6.16777">
        <ele>2702.214</ele>
        <time>2022-07-17T11:06:19Z</time>
      </trkpt>
      <trkpt lat="45.17371" lon="6.16777">
        <ele>2702.205</ele>
        <time>2022-07-17T11:06:24Z</time>
      </trkpt>
      <trkpt lat="45.17371" lon="6.16777">
        <ele>2702.192</ele>
        <time>2022-07-17T11:06:29Z</time>
      </trkpt>
      <trkpt lat="45.17371" lon="6.16777">
        <ele>2702.182</ele>
        <time>2022-07-17T11:06:34Z</time>
      </trkpt>
      <trkpt lat="45.17371" lon="6.16777">
        <ele>2702.177</ele>
        <time>2022-07-17T11:06:39Z</time>
      </trkpt>
      <trkpt lat="45.17371" lon="6.16777">
        <ele>2702.164</ele>
        <time>2022-07-17T11:06:44Z</time>
      </trkpt>
      <trkpt lat="45.17371" lon="6.16777">
        <ele>2702.153</ele>
        <time>2022-07-17T11:06:49Z</time>
      </trkpt>
      <trkpt lat="45.17371" lon="6.16777">
        <ele>2702.144</ele>
        <time>2022-07-17T11:06:54Z</time>
      </trkpt>
      <trkpt lat="45.17371" lon="6.16777">
        <ele>2702.135</ele>
        <time>2022-07-17T11:06:59Z</time>
      </trkpt>
      <trkpt lat="45.17371" lon="6.16777">
        <ele>2702.129</ele>
        <time>2022-07-17T11:07:04Z</time>
      </trkpt>
      <trkpt lat="45.17371" lon="6.16777">
        <ele>2702.123</ele>
        <time>2022-07-17T11:07:09Z</time>
      </trkpt>
      <trkpt lat="45.17371" lon="6.16777">
        <ele>2702.118</ele>
        <time>2022-07-17T11:07:14Z</time>
      </trkpt>
      <trkpt lat="45.17371" lon="6.16777">
        <ele>2702.112</ele>
        <time>2022-07-17T11:07:19Z</time>
      </trkpt>
      <trkpt lat="45.17371" lon="6.16777">
        <ele>2702.107</ele>
        <time>2022-07-17T11:07:24Z</time>
      </trkpt>
      <trkpt lat="45.17371" lon="6.16777">
        <ele>2702.104</ele>
        <time>2022-07-17T11:07:29Z</time>
      </trkpt>
      <trkpt lat="45.17371" lon="6.16777">
        <ele>2702.099</ele>
        <time>2022-07-17T11:07:34Z</time>
      </trkpt>
      <trkpt lat="45.17371" lon="6.16777">
        <ele>2702.098</ele>
        <time>2022-07-17T11:07:39Z</time>
      </trkpt>
      <trkpt lat="45.17371" lon="6.16777">
        <ele>2702.092</ele>
        <time>2022-07-17T11:07:44Z</time>
      </trkpt>
      <trkpt lat="45.17371" lon="6.16777">
        <ele>2702.088</ele>
        <time>2022-07-17T11:07:49Z</time>
      </trkpt>
      <trkpt lat="45.17371" lon="6.16777">
        <ele>2702.083</ele>
        <time>2022-07-17T11:07:54Z</time>
      </trkpt>
      <trkpt lat="45.17371" lon="6.16777">
        <ele>2702.08</ele>
        <time>2022-07-17T11:07:59Z</time>
      </trkpt>
      <trkpt lat="45.17371" lon="6.16777">
        <ele>2702.082</ele>
        <time>2022-07-17T11:08:04Z</time>
      </trkpt>
      <trkpt lat="45.17371" lon="6.16777">
        <ele>2702.085</ele>
        <time>2022-07-17T11:08:09Z</time>
      </trkpt>
      <trkpt lat="45.17371" lon="6.16777">
        <ele>2702.084</ele>
        <time>2022-07-17T11:08:14Z</time>
      </trkpt>
      <trkpt lat="45.17371" lon="6.16777">
        <ele>2702.08</ele>
        <time>2022-07-17T11:08:19Z</time>
      </trkpt>
      <trkpt lat="45.17371" lon="6.16777">
        <ele>2702.08</ele>
        <time>2022-07-17T11:08:24Z</time>
      </trkpt>
      <trkpt lat="45.17371" lon="6.16777">
        <ele>2702.079</ele>
        <time>2022-07-17T11:08:29Z</time>
      </trkpt>
      <trkpt lat="45.17371" lon="6.16777">
        <ele>2702.072</ele>
        <time>2022-07-17T11:08:34Z</time>
      </trkpt>
      <trkpt lat="45.17371" lon="6.16777">
        <ele>2702.068</ele>
        <time>2022-07-17T11:08:39Z</time>
      </trkpt>
      <trkpt lat="45.17371" lon="6.16777">
        <ele>2702.061</ele>
        <time>2022-07-17T11:08:44Z</time>
      </trkpt>
      <trkpt lat="45.17371" lon="6.16777">
        <ele>2702.064</ele>
        <time>2022-07-17T11:08:49Z</time>
      </trkpt>
      <trkpt lat="45.17371" lon="6.16777">
        <ele>2702.057</ele>
        <time>2022-07-17T11:08:54Z</time>
      </trkpt>
      <trkpt lat="45.17371" lon="6.16777">
        <ele>2702.055</ele>
        <time>2022-07-17T11:08:59Z</time>
      </trkpt>
      <trkpt lat="45.17371" lon="6.16777">
        <ele>2702.051</ele>
        <time>2022-07-17T11:09:04Z</time>
      </trkpt>
      <trkpt lat="45.17371" lon="6.16777">
        <ele>2702.047</ele>
        <time>2022-07-17T11:09:09Z</time>
      </trkpt>
      <trkpt lat="45.17371" lon="6.16777">
        <ele>2702.043</ele>
        <time>2022-07-17T11:09:14Z</time>
      </trkpt>
      <trkpt lat="45.17371" lon="6.16777">
        <ele>2702.041</ele>
        <time>2022-07-17T11:09:19Z</time>
      </trkpt>
      <trkpt lat="45.17371" lon="6.16777">
        <ele>2702.035</ele>
        <time>2022-07-17T11:09:24Z</time>
      </trkpt>
      <trkpt lat="45.17371" lon="6.16777">
        <ele>2702.034</ele>
        <time>2022-07-17T11:09:29Z</time>
      </trkpt>
      <trkpt lat="45.17371" lon="6.16777">
        <ele>2702.033</ele>
        <time>2022-07-17T11:09:34Z</time>
      </trkpt>
      <trkpt lat="45.17371" lon="6.16777">
        <ele>2702.032</ele>
        <time>2022-07-17T11:09:39Z</time>
      </trkpt>
      <trkpt lat="45.17371" lon="6.16777">
        <ele>2702.026</ele>
        <time>2022-07-17T11:09:44Z</time>
      </trkpt>
      <trkpt lat="45.17371" lon="6.16777">
        <ele>2702.027</ele>
        <time>2022-07-17T11:09:49Z</time>
      </trkpt>
      <trkpt lat="45.17371" lon="6.16777">
        <ele>2702.024</ele>
        <time>2022-07-17T11:09:54Z</time>
      </trkpt>
      <trkpt lat="45.17371" lon="6.16777">
        <ele>2702.022</ele>
        <time>2022-07-17T11:09:59Z</time>
      </trkpt>
      <trkpt lat="45.17371" lon="6.16777">
        <ele>2702.022</ele>
        <time>2022-07-17T11:10:04Z</time>
      </trkpt>
      <trkpt lat="45.17371" lon="6.16777">
        <ele>2702.021</ele>
        <time>2022-07-17T11:10:09Z</time>
      </trkpt>
      <trkpt lat="45.17371" lon="6.16777">
        <ele>2702.018</ele>
        <time>2022-07-17T11:10:14Z</time>
      </trkpt>
      <trkpt lat="45.17371" lon="6.16777">
        <ele>2702.016</ele>
        <time>2022-07-17T11:10:19Z</time>
      </trkpt>
      <trkpt lat="45.17371" lon="6.16777">
        <ele>2702.016</ele>
        <time>2022-07-17T11:10:24Z</time>
      </trkpt>
      <trkpt lat="45.17371" lon="6.16777">
        <ele>2702.015</ele>
        <time>2022-07-17T11:10:29Z</time>
      </trkpt>
      <trkpt lat="45.17371" lon="6.16777">
        <ele>2702.014</ele>
        <time>2022-07-17T11:10:34Z</time>
      </trkpt>
      <trkpt lat="45.17371" lon="6.16777">
        <ele>2702.008</ele>
        <time>2022-07-17T11:10:39Z</time>
      </trkpt>
      <trkpt lat="45.17371" lon="6.16777">
        <ele>2702</ele>
        <time>2022-07-17T11:10:44Z</time>
      </trkpt>
      <trkpt lat="45.17371" lon="6.16777">
        <ele>2701.997</ele>
        <time>2022-07-17T11:10:49Z</time>
      </trkpt>
      <trkpt lat="45.17371" lon="6.16777">
        <ele>2701.991</ele>
        <time>2022-07-17T11:10:54Z</time>
      </trkpt>
      <trkpt lat="45.17371" lon="6.16777">
        <ele>2701.985</ele>
        <time>2022-07-17T11:10:59Z</time>
      </trkpt>
      <trkpt lat="45.17371" lon="6.16777">
        <ele>2701.982</ele>
        <time>2022-07-17T11:11:04Z</time>
      </trkpt>
      <trkpt lat="45.17371" lon="6.16777">
        <ele>2701.976</ele>
        <time>2022-07-17T11:11:09Z</time>
      </trkpt>
      <trkpt lat="45.17371" lon="6.16777">
        <ele>2701.971</ele>
        <time>2022-07-17T11:11:14Z</time>
      </trkpt>
      <trkpt lat="45.17371" lon="6.16777">
        <ele>2701.969</ele>
        <time>2022-07-17T11:11:19Z</time>
      </trkpt>
      <trkpt lat="45.17371" lon="6.16777">
        <ele>2701.964</ele>
        <time>2022-07-17T11:11:24Z</time>
      </trkpt>
      <trkpt lat="45.17371" lon="6.16777">
        <ele>2701.962</ele>
        <time>2022-07-17T11:11:29Z</time>
      </trkpt>
      <trkpt lat="45.17371" lon="6.16777">
        <ele>2701.958</ele>
        <time>2022-07-17T11:11:34Z</time>
      </trkpt>
      <trkpt lat="45.17371" lon="6.16777">
        <ele>2701.957</ele>
        <time>2022-07-17T11:11:39Z</time>
      </trkpt>
      <trkpt lat="45.17371" lon="6.16777">
        <ele>2701.954</ele>
        <time>2022-07-17T11:11:44Z</time>
      </trkpt>
      <trkpt lat="45.17371" lon="6.16777">
        <ele>2701.953</ele>
        <time>2022-07-17T11:11:49Z</time>
      </trkpt>
      <trkpt lat="45.17371" lon="6.16777">
        <ele>2701.954</ele>
        <time>2022-07-17T11:11:54Z</time>
      </trkpt>
      <trkpt lat="45.17371" lon="6.16777">
        <ele>2701.952</ele>
        <time>2022-07-17T11:11:59Z</time>
      </trkpt>
      <trkpt lat="45.17371" lon="6.16777">
        <ele>2702.749</ele>
        <time>2022-07-17T11:12:04Z</time>
      </trkpt>
      <trkpt lat="45.17371" lon="6.16773">
        <ele>2702.882</ele>
        <time>2022-07-17T11:12:09Z</time>
      </trkpt>
      <trkpt lat="45.17373" lon="6.16768">
        <ele>2702.456</ele>
        <time>2022-07-17T11:12:14Z</time>
      </trkpt>
      <trkpt lat="45.17373" lon="6.16767">
        <ele>2702.399</ele>
        <time>2022-07-17T11:12:19Z</time>
      </trkpt>
      <trkpt lat="45.17373" lon="6.16767">
        <ele>2702.401</ele>
        <time>2022-07-17T11:12:24Z</time>
      </trkpt>
      <trkpt lat="45.17373" lon="6.16767">
        <ele>2702.398</ele>
        <time>2022-07-17T11:12:29Z</time>
      </trkpt>
      <trkpt lat="45.17373" lon="6.16767">
        <ele>2702.387</ele>
        <time>2022-07-17T11:12:34Z</time>
      </trkpt>
      <trkpt lat="45.17373" lon="6.16767">
        <ele>2702.377</ele>
        <time>2022-07-17T11:12:39Z</time>
      </trkpt>
      <trkpt lat="45.17373" lon="6.16767">
        <ele>2702.362</ele>
        <time>2022-07-17T11:12:44Z</time>
      </trkpt>
      <trkpt lat="45.17372" lon="6.16768">
        <ele>2702.313</ele>
        <time>2022-07-17T11:12:49Z</time>
      </trkpt>
      <trkpt lat="45.17372" lon="6.16768">
        <ele>2702.311</ele>
        <time>2022-07-17T11:12:54Z</time>
      </trkpt>
      <trkpt lat="45.17373" lon="6.16769">
        <ele>2702.753</ele>
        <time>2022-07-17T11:12:59Z</time>
      </trkpt>
      <trkpt lat="45.17373" lon="6.16775">
        <ele>2702.258</ele>
        <time>2022-07-17T11:13:04Z</time>
      </trkpt>
      <trkpt lat="45.1737" lon="6.16775">
        <ele>2701.147</ele>
        <time>2022-07-17T11:13:09Z</time>
      </trkpt>
      <trkpt lat="45.1737" lon="6.16775">
        <ele>2701.164</ele>
        <time>2022-07-17T11:13:14Z</time>
      </trkpt>
      <trkpt lat="45.1737" lon="6.16775">
        <ele>2701.162</ele>
        <time>2022-07-17T11:13:19Z</time>
      </trkpt>
      <trkpt lat="45.1737" lon="6.16775">
        <ele>2701.153</ele>
        <time>2022-07-17T11:13:24Z</time>
      </trkpt>
      <trkpt lat="45.1737" lon="6.16775">
        <ele>2701.146</ele>
        <time>2022-07-17T11:13:29Z</time>
      </trkpt>
      <trkpt lat="45.1737" lon="6.16775">
        <ele>2701.146</ele>
        <time>2022-07-17T11:13:34Z</time>
      </trkpt>
      <trkpt lat="45.1737" lon="6.16775">
        <ele>2701.142</ele>
        <time>2022-07-17T11:13:39Z</time>
      </trkpt>
      <trkpt lat="45.1737" lon="6.16775">
        <ele>2701.136</ele>
        <time>2022-07-17T11:13:44Z</time>
      </trkpt>
      <trkpt lat="45.1737" lon="6.16775">
        <ele>2701.134</ele>
        <time>2022-07-17T11:13:49Z</time>
      </trkpt>
      <trkpt lat="45.1737" lon="6.16775">
        <ele>2701.138</ele>
        <time>2022-07-17T11:13:54Z</time>
      </trkpt>
      <trkpt lat="45.1737" lon="6.16775">
        <ele>2701.131</ele>
        <time>2022-07-17T11:13:59Z</time>
      </trkpt>
      <trkpt lat="45.1737" lon="6.16775">
        <ele>2701.127</ele>
        <time>2022-07-17T11:14:04Z</time>
      </trkpt>
      <trkpt lat="45.1737" lon="6.16775">
        <ele>2701.12</ele>
        <time>2022-07-17T11:14:09Z</time>
      </trkpt>
      <trkpt lat="45.1737" lon="6.16775">
        <ele>2701.116</ele>
        <time>2022-07-17T11:14:14Z</time>
      </trkpt>
      <trkpt lat="45.1737" lon="6.16775">
        <ele>2701.111</ele>
        <time>2022-07-17T11:14:19Z</time>
      </trkpt>
      <trkpt lat="45.1737" lon="6.16775">
        <ele>2701.107</ele>
        <time>2022-07-17T11:14:24Z</time>
      </trkpt>
      <trkpt lat="45.1737" lon="6.16775">
        <ele>2701.103</ele>
        <time>2022-07-17T11:14:29Z</time>
      </trkpt>
      <trkpt lat="45.1737" lon="6.16775">
        <ele>2701.095</ele>
        <time>2022-07-17T11:14:34Z</time>
      </trkpt>
      <trkpt lat="45.1737" lon="6.16775">
        <ele>2701.094</ele>
        <time>2022-07-17T11:14:39Z</time>
      </trkpt>
      <trkpt lat="45.1737" lon="6.16775">
        <ele>2701.089</ele>
        <time>2022-07-17T11:14:44Z</time>
      </trkpt>
      <trkpt lat="45.1737" lon="6.16775">
        <ele>2701.089</ele>
        <time>2022-07-17T11:14:49Z</time>
      </trkpt>
      <trkpt lat="45.1737" lon="6.16775">
        <ele>2701.083</ele>
        <time>2022-07-17T11:14:54Z</time>
      </trkpt>
      <trkpt lat="45.1737" lon="6.16775">
        <ele>2701.082</ele>
        <time>2022-07-17T11:14:59Z</time>
      </trkpt>
      <trkpt lat="45.1737" lon="6.16775">
        <ele>2701.08</ele>
        <time>2022-07-17T11:15:04Z</time>
      </trkpt>
      <trkpt lat="45.1737" lon="6.16775">
        <ele>2701.078</ele>
        <time>2022-07-17T11:15:09Z</time>
      </trkpt>
      <trkpt lat="45.1737" lon="6.16775">
        <ele>2701.075</ele>
        <time>2022-07-17T11:15:14Z</time>
      </trkpt>
      <trkpt lat="45.1737" lon="6.16775">
        <ele>2701.071</ele>
        <time>2022-07-17T11:15:19Z</time>
      </trkpt>
      <trkpt lat="45.1737" lon="6.16775">
        <ele>2701.068</ele>
        <time>2022-07-17T11:15:24Z</time>
      </trkpt>
      <trkpt lat="45.1737" lon="6.16775">
        <ele>2701.068</ele>
        <time>2022-07-17T11:15:29Z</time>
      </trkpt>
      <trkpt lat="45.1737" lon="6.16775">
        <ele>2701.07</ele>
        <time>2022-07-17T11:15:34Z</time>
      </trkpt>
      <trkpt lat="45.1737" lon="6.16775">
        <ele>2701.074</ele>
        <time>2022-07-17T11:15:39Z</time>
      </trkpt>
      <trkpt lat="45.1737" lon="6.16775">
        <ele>2701.073</ele>
        <time>2022-07-17T11:15:44Z</time>
      </trkpt>
      <trkpt lat="45.1737" lon="6.16775">
        <ele>2701.079</ele>
        <time>2022-07-17T11:15:49Z</time>
      </trkpt>
      <trkpt lat="45.1737" lon="6.16775">
        <ele>2701.077</ele>
        <time>2022-07-17T11:15:54Z</time>
      </trkpt>
      <trkpt lat="45.1737" lon="6.16775">
        <ele>2701.081</ele>
        <time>2022-07-17T11:15:59Z</time>
      </trkpt>
      <trkpt lat="45.1737" lon="6.16775">
        <ele>2701.08</ele>
        <time>2022-07-17T11:16:04Z</time>
      </trkpt>
      <trkpt lat="45.1737" lon="6.16775">
        <ele>2701.079</ele>
        <time>2022-07-17T11:16:09Z</time>
      </trkpt>
      <trkpt lat="45.1737" lon="6.16775">
        <ele>2701.081</ele>
        <time>2022-07-17T11:16:14Z</time>
      </trkpt>
      <trkpt lat="45.1737" lon="6.16775">
        <ele>2701.084</ele>
        <time>2022-07-17T11:16:19Z</time>
      </trkpt>
      <trkpt lat="45.1737" lon="6.16775">
        <ele>2701.08</ele>
        <time>2022-07-17T11:16:24Z</time>
      </trkpt>
      <trkpt lat="45.1737" lon="6.16775">
        <ele>2701.079</ele>
        <time>2022-07-17T11:16:29Z</time>
      </trkpt>
      <trkpt lat="45.1737" lon="6.16775">
        <ele>2701.083</ele>
        <time>2022-07-17T11:16:34Z</time>
      </trkpt>
      <trkpt lat="45.1737" lon="6.16775">
        <ele>2701.083</ele>
        <time>2022-07-17T11:16:39Z</time>
      </trkpt>
      <trkpt lat="45.1737" lon="6.16775">
        <ele>2701.084</ele>
        <time>2022-07-17T11:16:44Z</time>
      </trkpt>
      <trkpt lat="45.1737" lon="6.16775">
        <ele>2701.082</ele>
        <time>2022-07-17T11:16:49Z</time>
      </trkpt>
      <trkpt lat="45.1737" lon="6.16775">
        <ele>2701.087</ele>
        <time>2022-07-17T11:16:54Z</time>
      </trkpt>
      <trkpt lat="45.1737" lon="6.16775">
        <ele>2701.084</ele>
        <time>2022-07-17T11:16:59Z</time>
      </trkpt>
      <trkpt lat="45.1737" lon="6.16775">
        <ele>2701.08</ele>
        <time>2022-07-17T11:17:04Z</time>
      </trkpt>
      <trkpt lat="45.1737" lon="6.16775">
        <ele>2701.077</ele>
        <time>2022-07-17T11:17:09Z</time>
      </trkpt>
      <trkpt lat="45.1737" lon="6.16775">
        <ele>2701.072</ele>
        <time>2022-07-17T11:17:14Z</time>
      </trkpt>
      <trkpt lat="45.1737" lon="6.16775">
        <ele>2701.072</ele>
        <time>2022-07-17T11:17:19Z</time>
      </trkpt>
      <trkpt lat="45.1737" lon="6.16775">
        <ele>2701.073</ele>
        <time>2022-07-17T11:17:24Z</time>
      </trkpt>
      <trkpt lat="45.1737" lon="6.16775">
        <ele>2701.073</ele>
        <time>2022-07-17T11:17:29Z</time>
      </trkpt>
      <trkpt lat="45.1737" lon="6.16775">
        <ele>2701.069</ele>
        <time>2022-07-17T11:17:34Z</time>
      </trkpt>
      <trkpt lat="45.1737" lon="6.16775">
        <ele>2701.073</ele>
        <time>2022-07-17T11:17:39Z</time>
      </trkpt>
      <trkpt lat="45.1737" lon="6.16775">
        <ele>2701.073</ele>
        <time>2022-07-17T11:17:44Z</time>
      </trkpt>
      <trkpt lat="45.1737" lon="6.16775">
        <ele>2701.074</ele>
        <time>2022-07-17T11:17:49Z</time>
      </trkpt>
      <trkpt lat="45.1737" lon="6.16775">
        <ele>2701.08</ele>
        <time>2022-07-17T11:17:54Z</time>
      </trkpt>
      <trkpt lat="45.1737" lon="6.16775">
        <ele>2701.079</ele>
        <time>2022-07-17T11:17:59Z</time>
      </trkpt>
      <trkpt lat="45.1737" lon="6.16775">
        <ele>2701.08</ele>
        <time>2022-07-17T11:18:04Z</time>
      </trkpt>
      <trkpt lat="45.1737" lon="6.16775">
        <ele>2701.078</ele>
        <time>2022-07-17T11:18:09Z</time>
      </trkpt>
      <trkpt lat="45.1737" lon="6.16775">
        <ele>2701.074</ele>
        <time>2022-07-17T11:18:14Z</time>
      </trkpt>
      <trkpt lat="45.1737" lon="6.16775">
        <ele>2701.076</ele>
        <time>2022-07-17T11:18:19Z</time>
      </trkpt>
      <trkpt lat="45.1737" lon="6.16775">
        <ele>2701.076</ele>
        <time>2022-07-17T11:18:24Z</time>
      </trkpt>
      <trkpt lat="45.1737" lon="6.16775">
        <ele>2701.076</ele>
        <time>2022-07-17T11:18:29Z</time>
      </trkpt>
      <trkpt lat="45.1737" lon="6.16776">
        <ele>2701.073</ele>
        <time>2022-07-17T11:18:34Z</time>
      </trkpt>
      <trkpt lat="45.1737" lon="6.16776">
        <ele>2701.07</ele>
        <time>2022-07-17T11:18:39Z</time>
      </trkpt>
      <trkpt lat="45.1737" lon="6.16776">
        <ele>2701.072</ele>
        <time>2022-07-17T11:18:44Z</time>
      </trkpt>
      <trkpt lat="45.1737" lon="6.16776">
        <ele>2701.07</ele>
        <time>2022-07-17T11:18:49Z</time>
      </trkpt>
      <trkpt lat="45.1737" lon="6.16776">
        <ele>2701.074</ele>
        <time>2022-07-17T11:18:54Z</time>
      </trkpt>
      <trkpt lat="45.1737" lon="6.16776">
        <ele>2701.075</ele>
        <time>2022-07-17T11:18:59Z</time>
      </trkpt>
      <trkpt lat="45.1737" lon="6.16776">
        <ele>2701.073</ele>
        <time>2022-07-17T11:19:04Z</time>
      </trkpt>
      <trkpt lat="45.1737" lon="6.16776">
        <ele>2701.069</ele>
        <time>2022-07-17T11:19:09Z</time>
      </trkpt>
      <trkpt lat="45.1737" lon="6.16776">
        <ele>2701.066</ele>
        <time>2022-07-17T11:19:14Z</time>
      </trkpt>
      <trkpt lat="45.1737" lon="6.16776">
        <ele>2701.068</ele>
        <time>2022-07-17T11:19:19Z</time>
      </trkpt>
      <trkpt lat="45.1737" lon="6.16776">
        <ele>2701.061</ele>
        <time>2022-07-17T11:19:24Z</time>
      </trkpt>
      <trkpt lat="45.1737" lon="6.16776">
        <ele>2701.057</ele>
        <time>2022-07-17T11:19:29Z</time>
      </trkpt>
      <trkpt lat="45.1737" lon="6.16776">
        <ele>2701.056</ele>
        <time>2022-07-17T11:19:34Z</time>
      </trkpt>
      <trkpt lat="45.1737" lon="6.16776">
        <ele>2701.053</ele>
        <time>2022-07-17T11:19:39Z</time>
      </trkpt>
      <trkpt lat="45.1737" lon="6.16776">
        <ele>2701.054</ele>
        <time>2022-07-17T11:19:44Z</time>
      </trkpt>
      <trkpt lat="45.1737" lon="6.16776">
        <ele>2701.056</ele>
        <time>2022-07-17T11:19:49Z</time>
      </trkpt>
      <trkpt lat="45.1737" lon="6.16776">
        <ele>2701.055</ele>
        <time>2022-07-17T11:19:54Z</time>
      </trkpt>
      <trkpt lat="45.1737" lon="6.16776">
        <ele>2701.053</ele>
        <time>2022-07-17T11:19:59Z</time>
      </trkpt>
      <trkpt lat="45.1737" lon="6.16776">
        <ele>2701.049</ele>
        <time>2022-07-17T11:20:04Z</time>
      </trkpt>
      <trkpt lat="45.1737" lon="6.16776">
        <ele>2701.053</ele>
        <time>2022-07-17T11:20:09Z</time>
      </trkpt>
      <trkpt lat="45.1737" lon="6.16776">
        <ele>2701.05</ele>
        <time>2022-07-17T11:20:14Z</time>
      </trkpt>
      <trkpt lat="45.1737" lon="6.16776">
        <ele>2701.046</ele>
        <time>2022-07-17T11:20:19Z</time>
      </trkpt>
      <trkpt lat="45.1737" lon="6.16776">
        <ele>2701.046</ele>
        <time>2022-07-17T11:20:24Z</time>
      </trkpt>
      <trkpt lat="45.1737" lon="6.16776">
        <ele>2701.046</ele>
        <time>2022-07-17T11:20:29Z</time>
      </trkpt>
      <trkpt lat="45.1737" lon="6.16776">
        <ele>2701.04</ele>
        <time>2022-07-17T11:20:34Z</time>
      </trkpt>
      <trkpt lat="45.1737" lon="6.16776">
        <ele>2701.035</ele>
        <time>2022-07-17T11:20:39Z</time>
      </trkpt>
      <trkpt lat="45.1737" lon="6.16776">
        <ele>2701.029</ele>
        <time>2022-07-17T11:20:44Z</time>
      </trkpt>
      <trkpt lat="45.1737" lon="6.16776">
        <ele>2701.025</ele>
        <time>2022-07-17T11:20:49Z</time>
      </trkpt>
      <trkpt lat="45.1737" lon="6.16776">
        <ele>2701.028</ele>
        <time>2022-07-17T11:20:54Z</time>
      </trkpt>
      <trkpt lat="45.1737" lon="6.16776">
        <ele>2701.028</ele>
        <time>2022-07-17T11:20:59Z</time>
      </trkpt>
      <trkpt lat="45.1737" lon="6.16776">
        <ele>2701.026</ele>
        <time>2022-07-17T11:21:04Z</time>
      </trkpt>
      <trkpt lat="45.1737" lon="6.16776">
        <ele>2701.022</ele>
        <time>2022-07-17T11:21:09Z</time>
      </trkpt>
      <trkpt lat="45.1737" lon="6.16776">
        <ele>2701.019</ele>
        <time>2022-07-17T11:21:14Z</time>
      </trkpt>
      <trkpt lat="45.1737" lon="6.16776">
        <ele>2701.018</ele>
        <time>2022-07-17T11:21:19Z</time>
      </trkpt>
      <trkpt lat="45.1737" lon="6.16776">
        <ele>2701.017</ele>
        <time>2022-07-17T11:21:24Z</time>
      </trkpt>
      <trkpt lat="45.1737" lon="6.16776">
        <ele>2701.023</ele>
        <time>2022-07-17T11:21:29Z</time>
      </trkpt>
      <trkpt lat="45.1737" lon="6.16776">
        <ele>2701.022</ele>
        <time>2022-07-17T11:21:34Z</time>
      </trkpt>
      <trkpt lat="45.1737" lon="6.16776">
        <ele>2701.02</ele>
        <time>2022-07-17T11:21:39Z</time>
      </trkpt>
      <trkpt lat="45.1737" lon="6.16776">
        <ele>2701.023</ele>
        <time>2022-07-17T11:21:44Z</time>
      </trkpt>
      <trkpt lat="45.1737" lon="6.16776">
        <ele>2701.023</ele>
        <time>2022-07-17T11:21:49Z</time>
      </trkpt>
      <trkpt lat="45.1737" lon="6.16776">
        <ele>2701.026</ele>
        <time>2022-07-17T11:21:54Z</time>
      </trkpt>
      <trkpt lat="45.1737" lon="6.16776">
        <ele>2701.026</ele>
        <time>2022-07-17T11:21:59Z</time>
      </trkpt>
      <trkpt lat="45.1737" lon="6.16776">
        <ele>2701.026</ele>
        <time>2022-07-17T11:22:04Z</time>
      </trkpt>
      <trkpt lat="45.1737" lon="6.16776">
        <ele>2701.03</ele>
        <time>2022-07-17T11:22:09Z</time>
      </trkpt>
      <trkpt lat="45.1737" lon="6.16776">
        <ele>2701.031</ele>
        <time>2022-07-17T11:22:14Z</time>
      </trkpt>
      <trkpt lat="45.1737" lon="6.16776">
        <ele>2701.033</ele>
        <time>2022-07-17T11:22:19Z</time>
      </trkpt>
      <trkpt lat="45.1737" lon="6.16776">
        <ele>2701.035</ele>
        <time>2022-07-17T11:22:24Z</time>
      </trkpt>
      <trkpt lat="45.1737" lon="6.16776">
        <ele>2701.035</ele>
        <time>2022-07-17T11:22:29Z</time>
      </trkpt>
      <trkpt lat="45.1737" lon="6.16776">
        <ele>2701.037</ele>
        <time>2022-07-17T11:22:34Z</time>
      </trkpt>
      <trkpt lat="45.1737" lon="6.16776">
        <ele>2701.04</ele>
        <time>2022-07-17T11:22:39Z</time>
      </trkpt>
      <trkpt lat="45.1737" lon="6.16776">
        <ele>2701.037</ele>
        <time>2022-07-17T11:22:44Z</time>
      </trkpt>
      <trkpt lat="45.1737" lon="6.16776">
        <ele>2701.034</ele>
        <time>2022-07-17T11:22:49Z</time>
      </trkpt>
      <trkpt lat="45.1737" lon="6.16776">
        <ele>2701.035</ele>
        <time>2022-07-17T11:22:54Z</time>
      </trkpt>
      <trkpt lat="45.1737" lon="6.16776">
        <ele>2701.034</ele>
        <time>2022-07-17T11:22:59Z</time>
      </trkpt>
      <trkpt lat="45.1737" lon="6.16776">
        <ele>2701.035</ele>
        <time>2022-07-17T11:23:04Z</time>
      </trkpt>
      <trkpt lat="45.1737" lon="6.16776">
        <ele>2701.032</ele>
        <time>2022-07-17T11:23:09Z</time>
      </trkpt>
      <trkpt lat="45.1737" lon="6.16776">
        <ele>2701.035</ele>
        <time>2022-07-17T11:23:14Z</time>
      </trkpt>
      <trkpt lat="45.1737" lon="6.16776">
        <ele>2701.034</ele>
        <time>2022-07-17T11:23:19Z</time>
      </trkpt>
      <trkpt lat="45.1737" lon="6.16776">
        <ele>2701.036</ele>
        <time>2022-07-17T11:23:24Z</time>
      </trkpt>
      <trkpt lat="45.1737" lon="6.16776">
        <ele>2701.04</ele>
        <time>2022-07-17T11:23:29Z</time>
      </trkpt>
      <trkpt lat="45.1737" lon="6.16776">
        <ele>2701.045</ele>
        <time>2022-07-17T11:23:34Z</time>
      </trkpt>
      <trkpt lat="45.1737" lon="6.16776">
        <ele>2701.047</ele>
        <time>2022-07-17T11:23:39Z</time>
      </trkpt>
      <trkpt lat="45.1737" lon="6.16776">
        <ele>2701.049</ele>
        <time>2022-07-17T11:23:44Z</time>
      </trkpt>
      <trkpt lat="45.1737" lon="6.16776">
        <ele>2701.052</ele>
        <time>2022-07-17T11:23:49Z</time>
      </trkpt>
      <trkpt lat="45.1737" lon="6.16776">
        <ele>2701.054</ele>
        <time>2022-07-17T11:23:54Z</time>
      </trkpt>
      <trkpt lat="45.1737" lon="6.16776">
        <ele>2701.053</ele>
        <time>2022-07-17T11:23:59Z</time>
      </trkpt>
      <trkpt lat="45.1737" lon="6.16776">
        <ele>2701.058</ele>
        <time>2022-07-17T11:24:04Z</time>
      </trkpt>
      <trkpt lat="45.1737" lon="6.16776">
        <ele>2701.059</ele>
        <time>2022-07-17T11:24:09Z</time>
      </trkpt>
      <trkpt lat="45.1737" lon="6.16776">
        <ele>2701.06</ele>
        <time>2022-07-17T11:24:14Z</time>
      </trkpt>
      <trkpt lat="45.1737" lon="6.16776">
        <ele>2701.061</ele>
        <time>2022-07-17T11:24:19Z</time>
      </trkpt>
      <trkpt lat="45.1737" lon="6.16776">
        <ele>2701.064</ele>
        <time>2022-07-17T11:24:24Z</time>
      </trkpt>
      <trkpt lat="45.1737" lon="6.16776">
        <ele>2701.069</ele>
        <time>2022-07-17T11:24:29Z</time>
      </trkpt>
      <trkpt lat="45.1737" lon="6.16776">
        <ele>2701.071</ele>
        <time>2022-07-17T11:24:34Z</time>
      </trkpt>
      <trkpt lat="45.1737" lon="6.16776">
        <ele>2701.072</ele>
        <time>2022-07-17T11:24:39Z</time>
      </trkpt>
      <trkpt lat="45.1737" lon="6.16776">
        <ele>2701.072</ele>
        <time>2022-07-17T11:24:44Z</time>
      </trkpt>
      <trkpt lat="45.1737" lon="6.16776">
        <ele>2701.072</ele>
        <time>2022-07-17T11:24:49Z</time>
      </trkpt>
      <trkpt lat="45.1737" lon="6.16776">
        <ele>2701.076</ele>
        <time>2022-07-17T11:24:54Z</time>
      </trkpt>
      <trkpt lat="45.1737" lon="6.16776">
        <ele>2701.075</ele>
        <time>2022-07-17T11:24:59Z</time>
      </trkpt>
      <trkpt lat="45.1737" lon="6.16776">
        <ele>2701.076</ele>
        <time>2022-07-17T11:25:04Z</time>
      </trkpt>
      <trkpt lat="45.1737" lon="6.16776">
        <ele>2701.078</ele>
        <time>2022-07-17T11:25:09Z</time>
      </trkpt>
      <trkpt lat="45.1737" lon="6.16776">
        <ele>2701.082</ele>
        <time>2022-07-17T11:25:14Z</time>
      </trkpt>
      <trkpt lat="45.1737" lon="6.16776">
        <ele>2701.086</ele>
        <time>2022-07-17T11:25:19Z</time>
      </trkpt>
      <trkpt lat="45.1737" lon="6.16776">
        <ele>2701.089</ele>
        <time>2022-07-17T11:25:24Z</time>
      </trkpt>
      <trkpt lat="45.1737" lon="6.16776">
        <ele>2701.09</ele>
        <time>2022-07-17T11:25:29Z</time>
      </trkpt>
      <trkpt lat="45.1737" lon="6.16776">
        <ele>2701.094</ele>
        <time>2022-07-17T11:25:34Z</time>
      </trkpt>
      <trkpt lat="45.1737" lon="6.16776">
        <ele>2701.099</ele>
        <time>2022-07-17T11:25:39Z</time>
      </trkpt>
      <trkpt lat="45.1737" lon="6.16776">
        <ele>2701.099</ele>
        <time>2022-07-17T11:25:44Z</time>
      </trkpt>
      <trkpt lat="45.1737" lon="6.16776">
        <ele>2701.1</ele>
        <time>2022-07-17T11:25:49Z</time>
      </trkpt>
      <trkpt lat="45.1737" lon="6.16776">
        <ele>2701.102</ele>
        <time>2022-07-17T11:25:54Z</time>
      </trkpt>
      <trkpt lat="45.1737" lon="6.16776">
        <ele>2701.106</ele>
        <time>2022-07-17T11:25:59Z</time>
      </trkpt>
      <trkpt lat="45.1737" lon="6.16776">
        <ele>2701.107</ele>
        <time>2022-07-17T11:26:04Z</time>
      </trkpt>
      <trkpt lat="45.1737" lon="6.16776">
        <ele>2701.107</ele>
        <time>2022-07-17T11:26:09Z</time>
      </trkpt>
      <trkpt lat="45.1737" lon="6.16776">
        <ele>2701.109</ele>
        <time>2022-07-17T11:26:14Z</time>
      </trkpt>
      <trkpt lat="45.1737" lon="6.16776">
        <ele>2701.111</ele>
        <time>2022-07-17T11:26:19Z</time>
      </trkpt>
      <trkpt lat="45.1737" lon="6.16776">
        <ele>2701.114</ele>
        <time>2022-07-17T11:26:24Z</time>
      </trkpt>
      <trkpt lat="45.1737" lon="6.16776">
        <ele>2701.116</ele>
        <time>2022-07-17T11:26:29Z</time>
      </trkpt>
      <trkpt lat="45.1737" lon="6.16776">
        <ele>2701.118</ele>
        <time>2022-07-17T11:26:34Z</time>
      </trkpt>
      <trkpt lat="45.1737" lon="6.16776">
        <ele>2701.122</ele>
        <time>2022-07-17T11:26:39Z</time>
      </trkpt>
      <trkpt lat="45.1737" lon="6.16776">
        <ele>2701.121</ele>
        <time>2022-07-17T11:26:44Z</time>
      </trkpt>
      <trkpt lat="45.1737" lon="6.16776">
        <ele>2701.124</ele>
        <time>2022-07-17T11:26:49Z</time>
      </trkpt>
      <trkpt lat="45.1737" lon="6.16776">
        <ele>2701.127</ele>
        <time>2022-07-17T11:26:54Z</time>
      </trkpt>
      <trkpt lat="45.1737" lon="6.16776">
        <ele>2701.131</ele>
        <time>2022-07-17T11:26:59Z</time>
      </trkpt>
      <trkpt lat="45.1737" lon="6.16776">
        <ele>2701.133</ele>
        <time>2022-07-17T11:27:04Z</time>
      </trkpt>
      <trkpt lat="45.1737" lon="6.16776">
        <ele>2701.135</ele>
        <time>2022-07-17T11:27:09Z</time>
      </trkpt>
      <trkpt lat="45.1737" lon="6.16776">
        <ele>2701.139</ele>
        <time>2022-07-17T11:27:14Z</time>
      </trkpt>
      <trkpt lat="45.1737" lon="6.16776">
        <ele>2701.145</ele>
        <time>2022-07-17T11:27:19Z</time>
      </trkpt>
      <trkpt lat="45.1737" lon="6.16776">
        <ele>2701.147</ele>
        <time>2022-07-17T11:27:24Z</time>
      </trkpt>
      <trkpt lat="45.1737" lon="6.16776">
        <ele>2701.151</ele>
        <time>2022-07-17T11:27:29Z</time>
      </trkpt>
      <trkpt lat="45.1737" lon="6.16776">
        <ele>2701.152</ele>
        <time>2022-07-17T11:27:34Z</time>
      </trkpt>
      <trkpt lat="45.1737" lon="6.16776">
        <ele>2701.155</ele>
        <time>2022-07-17T11:27:39Z</time>
      </trkpt>
      <trkpt lat="45.1737" lon="6.16776">
        <ele>2701.159</ele>
        <time>2022-07-17T11:27:44Z</time>
      </trkpt>
      <trkpt lat="45.1737" lon="6.16776">
        <ele>2701.161</ele>
        <time>2022-07-17T11:27:49Z</time>
      </trkpt>
      <trkpt lat="45.1737" lon="6.16776">
        <ele>2701.164</ele>
        <time>2022-07-17T11:27:54Z</time>
      </trkpt>
      <trkpt lat="45.1737" lon="6.16776">
        <ele>2701.164</ele>
        <time>2022-07-17T11:27:59Z</time>
      </trkpt>
      <trkpt lat="45.1737" lon="6.16776">
        <ele>2701.167</ele>
        <time>2022-07-17T11:28:04Z</time>
      </trkpt>
      <trkpt lat="45.1737" lon="6.16776">
        <ele>2701.169</ele>
        <time>2022-07-17T11:28:09Z</time>
      </trkpt>
      <trkpt lat="45.1737" lon="6.16776">
        <ele>2701.172</ele>
        <time>2022-07-17T11:28:14Z</time>
      </trkpt>
      <trkpt lat="45.1737" lon="6.16776">
        <ele>2701.176</ele>
        <time>2022-07-17T11:28:19Z</time>
      </trkpt>
      <trkpt lat="45.1737" lon="6.16776">
        <ele>2701.178</ele>
        <time>2022-07-17T11:28:24Z</time>
      </trkpt>
      <trkpt lat="45.1737" lon="6.16776">
        <ele>2701.181</ele>
        <time>2022-07-17T11:28:29Z</time>
      </trkpt>
      <trkpt lat="45.1737" lon="6.16776">
        <ele>2701.182</ele>
        <time>2022-07-17T11:28:34Z</time>
      </trkpt>
      <trkpt lat="45.1737" lon="6.16776">
        <ele>2701.184</ele>
        <time>2022-07-17T11:28:39Z</time>
      </trkpt>
      <trkpt lat="45.1737" lon="6.16776">
        <ele>2701.185</ele>
        <time>2022-07-17T11:28:44Z</time>
      </trkpt>
      <trkpt lat="45.1737" lon="6.16776">
        <ele>2701.188</ele>
        <time>2022-07-17T11:28:49Z</time>
      </trkpt>
      <trkpt lat="45.1737" lon="6.16776">
        <ele>2701.192</ele>
        <time>2022-07-17T11:28:54Z</time>
      </trkpt>
      <trkpt lat="45.1737" lon="6.16776">
        <ele>2701.191</ele>
        <time>2022-07-17T11:28:59Z</time>
      </trkpt>
      <trkpt lat="45.1737" lon="6.16776">
        <ele>2701.193</ele>
        <time>2022-07-17T11:29:04Z</time>
      </trkpt>
      <trkpt lat="45.1737" lon="6.16776">
        <ele>2701.195</ele>
        <time>2022-07-17T11:29:09Z</time>
      </trkpt>
      <trkpt lat="45.1737" lon="6.16776">
        <ele>2701.199</ele>
        <time>2022-07-17T11:29:14Z</time>
      </trkpt>
      <trkpt lat="45.1737" lon="6.16776">
        <ele>2701.203</ele>
        <time>2022-07-17T11:29:19Z</time>
      </trkpt>
      <trkpt lat="45.1737" lon="6.16776">
        <ele>2701.209</ele>
        <time>2022-07-17T11:29:24Z</time>
      </trkpt>
      <trkpt lat="45.1737" lon="6.16776">
        <ele>2701.212</ele>
        <time>2022-07-17T11:29:29Z</time>
      </trkpt>
      <trkpt lat="45.1737" lon="6.16776">
        <ele>2701.214</ele>
        <time>2022-07-17T11:29:34Z</time>
      </trkpt>
      <trkpt lat="45.1737" lon="6.16776">
        <ele>2701.215</ele>
        <time>2022-07-17T11:29:39Z</time>
      </trkpt>
      <trkpt lat="45.1737" lon="6.16776">
        <ele>2701.217</ele>
        <time>2022-07-17T11:29:44Z</time>
      </trkpt>
      <trkpt lat="45.1737" lon="6.16776">
        <ele>2701.219</ele>
        <time>2022-07-17T11:29:49Z</time>
      </trkpt>
      <trkpt lat="45.1737" lon="6.16776">
        <ele>2701.22</ele>
        <time>2022-07-17T11:29:54Z</time>
      </trkpt>
      <trkpt lat="45.1737" lon="6.16776">
        <ele>2701.223</ele>
        <time>2022-07-17T11:29:59Z</time>
      </trkpt>
      <trkpt lat="45.1737" lon="6.16776">
        <ele>2701.224</ele>
        <time>2022-07-17T11:30:04Z</time>
      </trkpt>
      <trkpt lat="45.1737" lon="6.16776">
        <ele>2701.226</ele>
        <time>2022-07-17T11:30:09Z</time>
      </trkpt>
      <trkpt lat="45.1737" lon="6.16776">
        <ele>2701.226</ele>
        <time>2022-07-17T11:30:14Z</time>
      </trkpt>
      <trkpt lat="45.1737" lon="6.16776">
        <ele>2701.229</ele>
        <time>2022-07-17T11:30:19Z</time>
      </trkpt>
      <trkpt lat="45.1737" lon="6.16776">
        <ele>2701.231</ele>
        <time>2022-07-17T11:30:24Z</time>
      </trkpt>
      <trkpt lat="45.1737" lon="6.16776">
        <ele>2701.233</ele>
        <time>2022-07-17T11:30:29Z</time>
      </trkpt>
      <trkpt lat="45.1737" lon="6.16776">
        <ele>2701.237</ele>
        <time>2022-07-17T11:30:34Z</time>
      </trkpt>
      <trkpt lat="45.1737" lon="6.16776">
        <ele>2701.24</ele>
        <time>2022-07-17T11:30:39Z</time>
      </trkpt>
      <trkpt lat="45.1737" lon="6.16776">
        <ele>2701.241</ele>
        <time>2022-07-17T11:30:44Z</time>
      </trkpt>
      <trkpt lat="45.1737" lon="6.16776">
        <ele>2701.243</ele>
        <time>2022-07-17T11:30:49Z</time>
      </trkpt>
      <trkpt lat="45.1737" lon="6.16776">
        <ele>2701.244</ele>
        <time>2022-07-17T11:30:54Z</time>
      </trkpt>
      <trkpt lat="45.1737" lon="6.16776">
        <ele>2701.246</ele>
        <time>2022-07-17T11:30:59Z</time>
      </trkpt>
      <trkpt lat="45.1737" lon="6.16776">
        <ele>2701.25</ele>
        <time>2022-07-17T11:31:04Z</time>
      </trkpt>
      <trkpt lat="45.1737" lon="6.16776">
        <ele>2701.252</ele>
        <time>2022-07-17T11:31:09Z</time>
      </trkpt>
      <trkpt lat="45.1737" lon="6.16776">
        <ele>2701.254</ele>
        <time>2022-07-17T11:31:14Z</time>
      </trkpt>
      <trkpt lat="45.1737" lon="6.16776">
        <ele>2701.255</ele>
        <time>2022-07-17T11:31:19Z</time>
      </trkpt>
      <trkpt lat="45.1737" lon="6.16776">
        <ele>2701.259</ele>
        <time>2022-07-17T11:31:24Z</time>
      </trkpt>
      <trkpt lat="45.1737" lon="6.16776">
        <ele>2701.26</ele>
        <time>2022-07-17T11:31:29Z</time>
      </trkpt>
      <trkpt lat="45.1737" lon="6.16776">
        <ele>2701.263</ele>
        <time>2022-07-17T11:31:34Z</time>
      </trkpt>
      <trkpt lat="45.1737" lon="6.16776">
        <ele>2701.266</ele>
        <time>2022-07-17T11:31:39Z</time>
      </trkpt>
      <trkpt lat="45.1737" lon="6.16776">
        <ele>2701.269</ele>
        <time>2022-07-17T11:31:44Z</time>
      </trkpt>
      <trkpt lat="45.1737" lon="6.16776">
        <ele>2701.273</ele>
        <time>2022-07-17T11:31:49Z</time>
      </trkpt>
      <trkpt lat="45.1737" lon="6.16776">
        <ele>2701.276</ele>
        <time>2022-07-17T11:31:54Z</time>
      </trkpt>
      <trkpt lat="45.1737" lon="6.16776">
        <ele>2701.277</ele>
        <time>2022-07-17T11:31:59Z</time>
      </trkpt>
      <trkpt lat="45.1737" lon="6.16776">
        <ele>2701.283</ele>
        <time>2022-07-17T11:32:04Z</time>
      </trkpt>
      <trkpt lat="45.1737" lon="6.16776">
        <ele>2701.285</ele>
        <time>2022-07-17T11:32:09Z</time>
      </trkpt>
      <trkpt lat="45.1737" lon="6.16776">
        <ele>2701.286</ele>
        <time>2022-07-17T11:32:14Z</time>
      </trkpt>
      <trkpt lat="45.1737" lon="6.16776">
        <ele>2701.286</ele>
        <time>2022-07-17T11:32:19Z</time>
      </trkpt>
      <trkpt lat="45.1737" lon="6.16776">
        <ele>2701.289</ele>
        <time>2022-07-17T11:32:24Z</time>
      </trkpt>
      <trkpt lat="45.1737" lon="6.16776">
        <ele>2701.288</ele>
        <time>2022-07-17T11:32:29Z</time>
      </trkpt>
      <trkpt lat="45.1737" lon="6.16776">
        <ele>2701.29</ele>
        <time>2022-07-17T11:32:34Z</time>
      </trkpt>
      <trkpt lat="45.1737" lon="6.16776">
        <ele>2701.292</ele>
        <time>2022-07-17T11:32:39Z</time>
      </trkpt>
      <trkpt lat="45.1737" lon="6.16776">
        <ele>2701.293</ele>
        <time>2022-07-17T11:32:44Z</time>
      </trkpt>
      <trkpt lat="45.1737" lon="6.16776">
        <ele>2701.293</ele>
        <time>2022-07-17T11:32:49Z</time>
      </trkpt>
      <trkpt lat="45.1737" lon="6.16776">
        <ele>2701.294</ele>
        <time>2022-07-17T11:32:54Z</time>
      </trkpt>
      <trkpt lat="45.1737" lon="6.16776">
        <ele>2701.296</ele>
        <time>2022-07-17T11:32:59Z</time>
      </trkpt>
      <trkpt lat="45.1737" lon="6.16776">
        <ele>2701.296</ele>
        <time>2022-07-17T11:33:04Z</time>
      </trkpt>
      <trkpt lat="45.1737" lon="6.16776">
        <ele>2701.297</ele>
        <time>2022-07-17T11:33:09Z</time>
      </trkpt>
      <trkpt lat="45.1737" lon="6.16776">
        <ele>2701.298</ele>
        <time>2022-07-17T11:33:14Z</time>
      </trkpt>
      <trkpt lat="45.1737" lon="6.16776">
        <ele>2701.299</ele>
        <time>2022-07-17T11:33:19Z</time>
      </trkpt>
      <trkpt lat="45.1737" lon="6.16776">
        <ele>2701.301</ele>
        <time>2022-07-17T11:33:24Z</time>
      </trkpt>
      <trkpt lat="45.1737" lon="6.16776">
        <ele>2701.302</ele>
        <time>2022-07-17T11:33:29Z</time>
      </trkpt>
      <trkpt lat="45.1737" lon="6.16776">
        <ele>2701.302</ele>
        <time>2022-07-17T11:33:34Z</time>
      </trkpt>
      <trkpt lat="45.1737" lon="6.16776">
        <ele>2701.305</ele>
        <time>2022-07-17T11:33:39Z</time>
      </trkpt>
      <trkpt lat="45.1737" lon="6.16776">
        <ele>2701.307</ele>
        <time>2022-07-17T11:33:44Z</time>
      </trkpt>
      <trkpt lat="45.1737" lon="6.16776">
        <ele>2701.31</ele>
        <time>2022-07-17T11:33:49Z</time>
      </trkpt>
      <trkpt lat="45.1737" lon="6.16776">
        <ele>2701.312</ele>
        <time>2022-07-17T11:33:54Z</time>
      </trkpt>
      <trkpt lat="45.1737" lon="6.16776">
        <ele>2701.312</ele>
        <time>2022-07-17T11:33:59Z</time>
      </trkpt>
      <trkpt lat="45.1737" lon="6.16776">
        <ele>2701.311</ele>
        <time>2022-07-17T11:34:04Z</time>
      </trkpt>
      <trkpt lat="45.1737" lon="6.16776">
        <ele>2701.312</ele>
        <time>2022-07-17T11:34:09Z</time>
      </trkpt>
      <trkpt lat="45.1737" lon="6.16776">
        <ele>2701.314</ele>
        <time>2022-07-17T11:34:14Z</time>
      </trkpt>
      <trkpt lat="45.1737" lon="6.16776">
        <ele>2701.314</ele>
        <time>2022-07-17T11:34:19Z</time>
      </trkpt>
      <trkpt lat="45.1737" lon="6.16776">
        <ele>2701.316</ele>
        <time>2022-07-17T11:34:24Z</time>
      </trkpt>
      <trkpt lat="45.1737" lon="6.16776">
        <ele>2701.317</ele>
        <time>2022-07-17T11:34:29Z</time>
      </trkpt>
      <trkpt lat="45.1737" lon="6.16776">
        <ele>2701.317</ele>
        <time>2022-07-17T11:34:34Z</time>
      </trkpt>
      <trkpt lat="45.1737" lon="6.16776">
        <ele>2701.317</ele>
        <time>2022-07-17T11:34:39Z</time>
      </trkpt>
      <trkpt lat="45.1737" lon="6.16776">
        <ele>2701.318</ele>
        <time>2022-07-17T11:34:44Z</time>
      </trkpt>
      <trkpt lat="45.1737" lon="6.16776">
        <ele>2701.32</ele>
        <time>2022-07-17T11:34:49Z</time>
      </trkpt>
      <trkpt lat="45.1737" lon="6.16776">
        <ele>2701.32</ele>
        <time>2022-07-17T11:34:54Z</time>
      </trkpt>
      <trkpt lat="45.1737" lon="6.16776">
        <ele>2701.32</ele>
        <time>2022-07-17T11:34:59Z</time>
      </trkpt>
      <trkpt lat="45.1737" lon="6.16776">
        <ele>2701.318</ele>
        <time>2022-07-17T11:35:04Z</time>
      </trkpt>
      <trkpt lat="45.1737" lon="6.16776">
        <ele>2701.317</ele>
        <time>2022-07-17T11:35:09Z</time>
      </trkpt>
      <trkpt lat="45.1737" lon="6.16776">
        <ele>2701.317</ele>
        <time>2022-07-17T11:35:14Z</time>
      </trkpt>
      <trkpt lat="45.1737" lon="6.16776">
        <ele>2701.318</ele>
        <time>2022-07-17T11:35:19Z</time>
      </trkpt>
      <trkpt lat="45.1737" lon="6.16776">
        <ele>2701.319</ele>
        <time>2022-07-17T11:35:24Z</time>
      </trkpt>
      <trkpt lat="45.1737" lon="6.16776">
        <ele>2701.318</ele>
        <time>2022-07-17T11:35:29Z</time>
      </trkpt>
      <trkpt lat="45.1737" lon="6.16776">
        <ele>2701.319</ele>
        <time>2022-07-17T11:35:34Z</time>
      </trkpt>
      <trkpt lat="45.1737" lon="6.16776">
        <ele>2701.32</ele>
        <time>2022-07-17T11:35:39Z</time>
      </trkpt>
      <trkpt lat="45.1737" lon="6.16776">
        <ele>2701.322</ele>
        <time>2022-07-17T11:35:44Z</time>
      </trkpt>
      <trkpt lat="45.1737" lon="6.16776">
        <ele>2701.323</ele>
        <time>2022-07-17T11:35:49Z</time>
      </trkpt>
      <trkpt lat="45.1737" lon="6.16776">
        <ele>2701.325</ele>
        <time>2022-07-17T11:35:54Z</time>
      </trkpt>
      <trkpt lat="45.1737" lon="6.16776">
        <ele>2701.323</ele>
        <time>2022-07-17T11:35:59Z</time>
      </trkpt>
      <trkpt lat="45.1737" lon="6.16776">
        <ele>2701.322</ele>
        <time>2022-07-17T11:36:04Z</time>
      </trkpt>
      <trkpt lat="45.1737" lon="6.16776">
        <ele>2701.323</ele>
        <time>2022-07-17T11:36:09Z</time>
      </trkpt>
      <trkpt lat="45.1737" lon="6.16776">
        <ele>2701.324</ele>
        <time>2022-07-17T11:36:14Z</time>
      </trkpt>
      <trkpt lat="45.1737" lon="6.16776">
        <ele>2701.322</ele>
        <time>2022-07-17T11:36:19Z</time>
      </trkpt>
      <trkpt lat="45.1737" lon="6.16776">
        <ele>2701.324</ele>
        <time>2022-07-17T11:36:24Z</time>
      </trkpt>
      <trkpt lat="45.1737" lon="6.16776">
        <ele>2701.323</ele>
        <time>2022-07-17T11:36:29Z</time>
      </trkpt>
      <trkpt lat="45.1737" lon="6.16776">
        <ele>2701.322</ele>
        <time>2022-07-17T11:36:34Z</time>
      </trkpt>
      <trkpt lat="45.1737" lon="6.16776">
        <ele>2701.322</ele>
        <time>2022-07-17T11:36:39Z</time>
      </trkpt>
      <trkpt lat="45.1737" lon="6.16776">
        <ele>2701.325</ele>
        <time>2022-07-17T11:36:44Z</time>
      </trkpt>
      <trkpt lat="45.1737" lon="6.16776">
        <ele>2701.324</ele>
        <time>2022-07-17T11:36:49Z</time>
      </trkpt>
      <trkpt lat="45.1737" lon="6.16776">
        <ele>2701.324</ele>
        <time>2022-07-17T11:36:54Z</time>
      </trkpt>
      <trkpt lat="45.1737" lon="6.16776">
        <ele>2701.324</ele>
        <time>2022-07-17T11:36:59Z</time>
      </trkpt>
      <trkpt lat="45.1737" lon="6.16776">
        <ele>2701.325</ele>
        <time>2022-07-17T11:37:04Z</time>
      </trkpt>
      <trkpt lat="45.1737" lon="6.16776">
        <ele>2701.325</ele>
        <time>2022-07-17T11:37:09Z</time>
      </trkpt>
      <trkpt lat="45.1737" lon="6.16776">
        <ele>2701.327</ele>
        <time>2022-07-17T11:37:14Z</time>
      </trkpt>
      <trkpt lat="45.1737" lon="6.16776">
        <ele>2701.328</ele>
        <time>2022-07-17T11:37:19Z</time>
      </trkpt>
      <trkpt lat="45.1737" lon="6.16776">
        <ele>2701.328</ele>
        <time>2022-07-17T11:37:24Z</time>
      </trkpt>
      <trkpt lat="45.1737" lon="6.16776">
        <ele>2701.328</ele>
        <time>2022-07-17T11:37:29Z</time>
      </trkpt>
      <trkpt lat="45.1737" lon="6.16776">
        <ele>2701.328</ele>
        <time>2022-07-17T11:37:34Z</time>
      </trkpt>
      <trkpt lat="45.1737" lon="6.16776">
        <ele>2701.328</ele>
        <time>2022-07-17T11:37:39Z</time>
      </trkpt>
      <trkpt lat="45.1737" lon="6.16776">
        <ele>2701.325</ele>
        <time>2022-07-17T11:37:44Z</time>
      </trkpt>
      <trkpt lat="45.1737" lon="6.16776">
        <ele>2701.326</ele>
        <time>2022-07-17T11:37:49Z</time>
      </trkpt>
      <trkpt lat="45.1737" lon="6.16776">
        <ele>2701.324</ele>
        <time>2022-07-17T11:37:54Z</time>
      </trkpt>
      <trkpt lat="45.1737" lon="6.16776">
        <ele>2701.326</ele>
        <time>2022-07-17T11:37:59Z</time>
      </trkpt>
      <trkpt lat="45.1737" lon="6.16776">
        <ele>2701.325</ele>
        <time>2022-07-17T11:38:04Z</time>
      </trkpt>
      <trkpt lat="45.1737" lon="6.16776">
        <ele>2701.324</ele>
        <time>2022-07-17T11:38:09Z</time>
      </trkpt>
      <trkpt lat="45.1737" lon="6.16776">
        <ele>2701.323</ele>
        <time>2022-07-17T11:38:14Z</time>
      </trkpt>
      <trkpt lat="45.1737" lon="6.16776">
        <ele>2701.324</ele>
        <time>2022-07-17T11:38:19Z</time>
      </trkpt>
      <trkpt lat="45.1737" lon="6.16776">
        <ele>2701.326</ele>
        <time>2022-07-17T11:38:24Z</time>
      </trkpt>
      <trkpt lat="45.1737" lon="6.16776">
        <ele>2701.326</ele>
        <time>2022-07-17T11:38:29Z</time>
      </trkpt>
      <trkpt lat="45.1737" lon="6.16776">
        <ele>2701.325</ele>
        <time>2022-07-17T11:38:34Z</time>
      </trkpt>
      <trkpt lat="45.1737" lon="6.16776">
        <ele>2701.324</ele>
        <time>2022-07-17T11:38:39Z</time>
      </trkpt>
      <trkpt lat="45.1737" lon="6.16776">
        <ele>2701.326</ele>
        <time>2022-07-17T11:38:44Z</time>
      </trkpt>
      <trkpt lat="45.1737" lon="6.16776">
        <ele>2701.325</ele>
        <time>2022-07-17T11:38:49Z</time>
      </trkpt>
      <trkpt lat="45.1737" lon="6.16776">
        <ele>2701.324</ele>
        <time>2022-07-17T11:38:54Z</time>
      </trkpt>
      <trkpt lat="45.1737" lon="6.16776">
        <ele>2701.324</ele>
        <time>2022-07-17T11:38:59Z</time>
      </trkpt>
      <trkpt lat="45.1737" lon="6.16776">
        <ele>2701.323</ele>
        <time>2022-07-17T11:39:04Z</time>
      </trkpt>
      <trkpt lat="45.1737" lon="6.16776">
        <ele>2701.324</ele>
        <time>2022-07-17T11:39:09Z</time>
      </trkpt>
      <trkpt lat="45.1737" lon="6.16776">
        <ele>2701.325</ele>
        <time>2022-07-17T11:39:14Z</time>
      </trkpt>
      <trkpt lat="45.1737" lon="6.16776">
        <ele>2701.326</ele>
        <time>2022-07-17T11:39:19Z</time>
      </trkpt>
      <trkpt lat="45.1737" lon="6.16776">
        <ele>2701.327</ele>
        <time>2022-07-17T11:39:24Z</time>
      </trkpt>
      <trkpt lat="45.1737" lon="6.16776">
        <ele>2701.326</ele>
        <time>2022-07-17T11:39:29Z</time>
      </trkpt>
      <trkpt lat="45.1737" lon="6.16776">
        <ele>2701.327</ele>
        <time>2022-07-17T11:39:34Z</time>
      </trkpt>
      <trkpt lat="45.1737" lon="6.16776">
        <ele>2701.326</ele>
        <time>2022-07-17T11:39:39Z</time>
      </trkpt>
      <trkpt lat="45.1737" lon="6.16776">
        <ele>2701.326</ele>
        <time>2022-07-17T11:39:44Z</time>
      </trkpt>
      <trkpt lat="45.1737" lon="6.16776">
        <ele>2701.327</ele>
        <time>2022-07-17T11:39:49Z</time>
      </trkpt>
      <trkpt lat="45.1737" lon="6.16776">
        <ele>2701.328</ele>
        <time>2022-07-17T11:39:54Z</time>
      </trkpt>
      <trkpt lat="45.1737" lon="6.16776">
        <ele>2701.326</ele>
        <time>2022-07-17T11:39:59Z</time>
      </trkpt>
      <trkpt lat="45.1737" lon="6.16776">
        <ele>2701.328</ele>
        <time>2022-07-17T11:40:04Z</time>
      </trkpt>
      <trkpt lat="45.1737" lon="6.16776">
        <ele>2701.328</ele>
        <time>2022-07-17T11:40:09Z</time>
      </trkpt>
      <trkpt lat="45.1737" lon="6.16776">
        <ele>2701.325</ele>
        <time>2022-07-17T11:40:14Z</time>
      </trkpt>
      <trkpt lat="45.1737" lon="6.16776">
        <ele>2701.324</ele>
        <time>2022-07-17T11:40:19Z</time>
      </trkpt>
      <trkpt lat="45.1737" lon="6.16776">
        <ele>2701.323</ele>
        <time>2022-07-17T11:40:24Z</time>
      </trkpt>
      <trkpt lat="45.1737" lon="6.16776">
        <ele>2701.323</ele>
        <time>2022-07-17T11:40:29Z</time>
      </trkpt>
      <trkpt lat="45.1737" lon="6.16776">
        <ele>2701.323</ele>
        <time>2022-07-17T11:40:34Z</time>
      </trkpt>
      <trkpt lat="45.1737" lon="6.16776">
        <ele>2701.325</ele>
        <time>2022-07-17T11:40:39Z</time>
      </trkpt>
      <trkpt lat="45.1737" lon="6.16776">
        <ele>2701.321</ele>
        <time>2022-07-17T11:40:44Z</time>
      </trkpt>
      <trkpt lat="45.1737" lon="6.16776">
        <ele>2701.323</ele>
        <time>2022-07-17T11:40:49Z</time>
      </trkpt>
      <trkpt lat="45.1737" lon="6.16776">
        <ele>2701.32</ele>
        <time>2022-07-17T11:40:54Z</time>
      </trkpt>
      <trkpt lat="45.1737" lon="6.16776">
        <ele>2701.32</ele>
        <time>2022-07-17T11:40:59Z</time>
      </trkpt>
      <trkpt lat="45.1737" lon="6.16776">
        <ele>2701.321</ele>
        <time>2022-07-17T11:41:04Z</time>
      </trkpt>
      <trkpt lat="45.1737" lon="6.16776">
        <ele>2701.322</ele>
        <time>2022-07-17T11:41:09Z</time>
      </trkpt>
      <trkpt lat="45.1737" lon="6.16776">
        <ele>2701.323</ele>
        <time>2022-07-17T11:41:14Z</time>
      </trkpt>
      <trkpt lat="45.1737" lon="6.16776">
        <ele>2701.323</ele>
        <time>2022-07-17T11:41:19Z</time>
      </trkpt>
      <trkpt lat="45.1737" lon="6.16776">
        <ele>2701.323</ele>
        <time>2022-07-17T11:41:24Z</time>
      </trkpt>
      <trkpt lat="45.1737" lon="6.16776">
        <ele>2701.32</ele>
        <time>2022-07-17T11:41:29Z</time>
      </trkpt>
      <trkpt lat="45.1737" lon="6.16776">
        <ele>2701.32</ele>
        <time>2022-07-17T11:41:34Z</time>
      </trkpt>
      <trkpt lat="45.1737" lon="6.16776">
        <ele>2701.32</ele>
        <time>2022-07-17T11:41:39Z</time>
      </trkpt>
      <trkpt lat="45.1737" lon="6.16776">
        <ele>2701.32</ele>
        <time>2022-07-17T11:41:44Z</time>
      </trkpt>
      <trkpt lat="45.1737" lon="6.16776">
        <ele>2701.319</ele>
        <time>2022-07-17T11:41:49Z</time>
      </trkpt>
      <trkpt lat="45.1737" lon="6.16776">
        <ele>2701.319</ele>
        <time>2022-07-17T11:41:54Z</time>
      </trkpt>
      <trkpt lat="45.1737" lon="6.16776">
        <ele>2701.318</ele>
        <time>2022-07-17T11:41:59Z</time>
      </trkpt>
      <trkpt lat="45.1737" lon="6.16776">
        <ele>2701.319</ele>
        <time>2022-07-17T11:42:04Z</time>
      </trkpt>
      <trkpt lat="45.1737" lon="6.16776">
        <ele>2701.318</ele>
        <time>2022-07-17T11:42:09Z</time>
      </trkpt>
      <trkpt lat="45.1737" lon="6.16776">
        <ele>2701.318</ele>
        <time>2022-07-17T11:42:14Z</time>
      </trkpt>
      <trkpt lat="45.1737" lon="6.16776">
        <ele>2701.317</ele>
        <time>2022-07-17T11:42:19Z</time>
      </trkpt>
      <trkpt lat="45.1737" lon="6.16776">
        <ele>2701.314</ele>
        <time>2022-07-17T11:42:24Z</time>
      </trkpt>
      <trkpt lat="45.1737" lon="6.16776">
        <ele>2701.314</ele>
        <time>2022-07-17T11:42:29Z</time>
      </trkpt>
      <trkpt lat="45.1737" lon="6.16776">
        <ele>2701.313</ele>
        <time>2022-07-17T11:42:34Z</time>
      </trkpt>
      <trkpt lat="45.1737" lon="6.16776">
        <ele>2701.311</ele>
        <time>2022-07-17T11:42:39Z</time>
      </trkpt>
      <trkpt lat="45.1737" lon="6.16776">
        <ele>2701.309</ele>
        <time>2022-07-17T11:42:44Z</time>
      </trkpt>
      <trkpt lat="45.1737" lon="6.16776">
        <ele>2701.309</ele>
        <time>2022-07-17T11:42:49Z</time>
      </trkpt>
      <trkpt lat="45.1737" lon="6.16776">
        <ele>2701.309</ele>
        <time>2022-07-17T11:42:54Z</time>
      </trkpt>
      <trkpt lat="45.1737" lon="6.16776">
        <ele>2701.308</ele>
        <time>2022-07-17T11:42:59Z</time>
      </trkpt>
      <trkpt lat="45.1737" lon="6.16776">
        <ele>2701.307</ele>
        <time>2022-07-17T11:43:04Z</time>
      </trkpt>
      <trkpt lat="45.1737" lon="6.16776">
        <ele>2701.306</ele>
        <time>2022-07-17T11:43:09Z</time>
      </trkpt>
      <trkpt lat="45.1737" lon="6.16776">
        <ele>2701.305</ele>
        <time>2022-07-17T11:43:14Z</time>
      </trkpt>
      <trkpt lat="45.1737" lon="6.16776">
        <ele>2701.304</ele>
        <time>2022-07-17T11:43:19Z</time>
      </trkpt>
      <trkpt lat="45.1737" lon="6.16776">
        <ele>2701.302</ele>
        <time>2022-07-17T11:43:24Z</time>
      </trkpt>
      <trkpt lat="45.1737" lon="6.16776">
        <ele>2701.3</ele>
        <time>2022-07-17T11:43:29Z</time>
      </trkpt>
      <trkpt lat="45.1737" lon="6.16776">
        <ele>2701.299</ele>
        <time>2022-07-17T11:43:34Z</time>
      </trkpt>
      <trkpt lat="45.1737" lon="6.16776">
        <ele>2701.297</ele>
        <time>2022-07-17T11:43:39Z</time>
      </trkpt>
      <trkpt lat="45.1737" lon="6.16776">
        <ele>2701.299</ele>
        <time>2022-07-17T11:43:44Z</time>
      </trkpt>
      <trkpt lat="45.1737" lon="6.16776">
        <ele>2701.301</ele>
        <time>2022-07-17T11:43:49Z</time>
      </trkpt>
      <trkpt lat="45.1737" lon="6.16776">
        <ele>2701.304</ele>
        <time>2022-07-17T11:43:54Z</time>
      </trkpt>
      <trkpt lat="45.1737" lon="6.16776">
        <ele>2701.303</ele>
        <time>2022-07-17T11:43:59Z</time>
      </trkpt>
      <trkpt lat="45.1737" lon="6.16776">
        <ele>2701.304</ele>
        <time>2022-07-17T11:44:04Z</time>
      </trkpt>
      <trkpt lat="45.1737" lon="6.16776">
        <ele>2701.304</ele>
        <time>2022-07-17T11:44:09Z</time>
      </trkpt>
      <trkpt lat="45.1737" lon="6.16776">
        <ele>2701.306</ele>
        <time>2022-07-17T11:44:14Z</time>
      </trkpt>
      <trkpt lat="45.1737" lon="6.16776">
        <ele>2701.306</ele>
        <time>2022-07-17T11:44:19Z</time>
      </trkpt>
      <trkpt lat="45.1737" lon="6.16776">
        <ele>2701.308</ele>
        <time>2022-07-17T11:44:24Z</time>
      </trkpt>
      <trkpt lat="45.1737" lon="6.16776">
        <ele>2701.309</ele>
        <time>2022-07-17T11:44:29Z</time>
      </trkpt>
      <trkpt lat="45.1737" lon="6.16776">
        <ele>2701.313</ele>
        <time>2022-07-17T11:44:34Z</time>
      </trkpt>
      <trkpt lat="45.1737" lon="6.16776">
        <ele>2701.311</ele>
        <time>2022-07-17T11:44:39Z</time>
      </trkpt>
      <trkpt lat="45.1737" lon="6.16776">
        <ele>2701.309</ele>
        <time>2022-07-17T11:44:44Z</time>
      </trkpt>
      <trkpt lat="45.1737" lon="6.16776">
        <ele>2701.307</ele>
        <time>2022-07-17T11:44:49Z</time>
      </trkpt>
      <trkpt lat="45.1737" lon="6.16776">
        <ele>2701.311</ele>
        <time>2022-07-17T11:44:54Z</time>
      </trkpt>
      <trkpt lat="45.1737" lon="6.16776">
        <ele>2701.312</ele>
        <time>2022-07-17T11:44:59Z</time>
      </trkpt>
      <trkpt lat="45.1737" lon="6.16776">
        <ele>2701.312</ele>
        <time>2022-07-17T11:45:04Z</time>
      </trkpt>
      <trkpt lat="45.1737" lon="6.16776">
        <ele>2701.31</ele>
        <time>2022-07-17T11:45:09Z</time>
      </trkpt>
      <trkpt lat="45.1737" lon="6.16776">
        <ele>2701.311</ele>
        <time>2022-07-17T11:45:14Z</time>
      </trkpt>
      <trkpt lat="45.1737" lon="6.16776">
        <ele>2701.311</ele>
        <time>2022-07-17T11:45:19Z</time>
      </trkpt>
      <trkpt lat="45.1737" lon="6.16776">
        <ele>2701.313</ele>
        <time>2022-07-17T11:45:24Z</time>
      </trkpt>
      <trkpt lat="45.1737" lon="6.16776">
        <ele>2701.315</ele>
        <time>2022-07-17T11:45:29Z</time>
      </trkpt>
      <trkpt lat="45.1737" lon="6.16776">
        <ele>2701.317</ele>
        <time>2022-07-17T11:45:34Z</time>
      </trkpt>
      <trkpt lat="45.1737" lon="6.16776">
        <ele>2701.316</ele>
        <time>2022-07-17T11:45:39Z</time>
      </trkpt>
      <trkpt lat="45.1737" lon="6.16776">
        <ele>2701.313</ele>
        <time>2022-07-17T11:45:44Z</time>
      </trkpt>
      <trkpt lat="45.1737" lon="6.16776">
        <ele>2701.313</ele>
        <time>2022-07-17T11:45:49Z</time>
      </trkpt>
      <trkpt lat="45.1737" lon="6.16776">
        <ele>2701.315</ele>
        <time>2022-07-17T11:45:54Z</time>
      </trkpt>
      <trkpt lat="45.1737" lon="6.16776">
        <ele>2701.316</ele>
        <time>2022-07-17T11:45:59Z</time>
      </trkpt>
      <trkpt lat="45.1737" lon="6.16776">
        <ele>2701.317</ele>
        <time>2022-07-17T11:46:04Z</time>
      </trkpt>
      <trkpt lat="45.1737" lon="6.16776">
        <ele>2701.318</ele>
        <time>2022-07-17T11:46:09Z</time>
      </trkpt>
      <trkpt lat="45.1737" lon="6.16776">
        <ele>2701.319</ele>
        <time>2022-07-17T11:46:14Z</time>
      </trkpt>
      <trkpt lat="45.1737" lon="6.16776">
        <ele>2701.32</ele>
        <time>2022-07-17T11:46:19Z</time>
      </trkpt>
      <trkpt lat="45.1737" lon="6.16776">
        <ele>2701.32</ele>
        <time>2022-07-17T11:46:24Z</time>
      </trkpt>
      <trkpt lat="45.1737" lon="6.16776">
        <ele>2701.319</ele>
        <time>2022-07-17T11:46:29Z</time>
      </trkpt>
      <trkpt lat="45.1737" lon="6.16776">
        <ele>2701.321</ele>
        <time>2022-07-17T11:46:34Z</time>
      </trkpt>
      <trkpt lat="45.1737" lon="6.16776">
        <ele>2701.321</ele>
        <time>2022-07-17T11:46:39Z</time>
      </trkpt>
      <trkpt lat="45.1737" lon="6.16776">
        <ele>2701.32</ele>
        <time>2022-07-17T11:46:44Z</time>
      </trkpt>
      <trkpt lat="45.1737" lon="6.16776">
        <ele>2701.318</ele>
        <time>2022-07-17T11:46:49Z</time>
      </trkpt>
      <trkpt lat="45.1737" lon="6.16776">
        <ele>2701.323</ele>
        <time>2022-07-17T11:46:54Z</time>
      </trkpt>
      <trkpt lat="45.1737" lon="6.16776">
        <ele>2701.326</ele>
        <time>2022-07-17T11:46:59Z</time>
      </trkpt>
      <trkpt lat="45.1737" lon="6.16776">
        <ele>2701.327</ele>
        <time>2022-07-17T11:47:04Z</time>
      </trkpt>
      <trkpt lat="45.1737" lon="6.16776">
        <ele>2701.329</ele>
        <time>2022-07-17T11:47:09Z</time>
      </trkpt>
      <trkpt lat="45.1737" lon="6.16776">
        <ele>2701.329</ele>
        <time>2022-07-17T11:47:14Z</time>
      </trkpt>
      <trkpt lat="45.1737" lon="6.16776">
        <ele>2701.326</ele>
        <time>2022-07-17T11:47:19Z</time>
      </trkpt>
      <trkpt lat="45.1737" lon="6.16776">
        <ele>2701.325</ele>
        <time>2022-07-17T11:47:24Z</time>
      </trkpt>
      <trkpt lat="45.1737" lon="6.16776">
        <ele>2701.327</ele>
        <time>2022-07-17T11:47:29Z</time>
      </trkpt>
      <trkpt lat="45.1737" lon="6.16776">
        <ele>2701.324</ele>
        <time>2022-07-17T11:47:34Z</time>
      </trkpt>
      <trkpt lat="45.1737" lon="6.16776">
        <ele>2701.322</ele>
        <time>2022-07-17T11:47:39Z</time>
      </trkpt>
      <trkpt lat="45.1737" lon="6.16776">
        <ele>2701.322</ele>
        <time>2022-07-17T11:47:44Z</time>
      </trkpt>
      <trkpt lat="45.1737" lon="6.16776">
        <ele>2701.324</ele>
        <time>2022-07-17T11:47:49Z</time>
      </trkpt>
      <trkpt lat="45.1737" lon="6.16776">
        <ele>2701.325</ele>
        <time>2022-07-17T11:47:54Z</time>
      </trkpt>
      <trkpt lat="45.1737" lon="6.16776">
        <ele>2701.326</ele>
        <time>2022-07-17T11:47:59Z</time>
      </trkpt>
      <trkpt lat="45.1737" lon="6.16776">
        <ele>2701.328</ele>
        <time>2022-07-17T11:48:04Z</time>
      </trkpt>
      <trkpt lat="45.1737" lon="6.16776">
        <ele>2701.329</ele>
        <time>2022-07-17T11:48:09Z</time>
      </trkpt>
      <trkpt lat="45.1737" lon="6.16776">
        <ele>2701.33</ele>
        <time>2022-07-17T11:48:14Z</time>
      </trkpt>
      <trkpt lat="45.1737" lon="6.16776">
        <ele>2701.331</ele>
        <time>2022-07-17T11:48:19Z</time>
      </trkpt>
      <trkpt lat="45.1737" lon="6.16776">
        <ele>2701.331</ele>
        <time>2022-07-17T11:48:24Z</time>
      </trkpt>
      <trkpt lat="45.1737" lon="6.16776">
        <ele>2701.33</ele>
        <time>2022-07-17T11:48:29Z</time>
      </trkpt>
      <trkpt lat="45.1737" lon="6.16776">
        <ele>2701.332</ele>
        <time>2022-07-17T11:48:34Z</time>
      </trkpt>
      <trkpt lat="45.1737" lon="6.16776">
        <ele>2701.333</ele>
        <time>2022-07-17T11:48:39Z</time>
      </trkpt>
      <trkpt lat="45.1737" lon="6.16776">
        <ele>2701.334</ele>
        <time>2022-07-17T11:48:44Z</time>
      </trkpt>
      <trkpt lat="45.1737" lon="6.16776">
        <ele>2701.334</ele>
        <time>2022-07-17T11:48:49Z</time>
      </trkpt>
      <trkpt lat="45.1737" lon="6.16776">
        <ele>2701.336</ele>
        <time>2022-07-17T11:48:54Z</time>
      </trkpt>
      <trkpt lat="45.1737" lon="6.16776">
        <ele>2701.338</ele>
        <time>2022-07-17T11:48:59Z</time>
      </trkpt>
      <trkpt lat="45.1737" lon="6.16776">
        <ele>2701.338</ele>
        <time>2022-07-17T11:49:04Z</time>
      </trkpt>
      <trkpt lat="45.1737" lon="6.16776">
        <ele>2701.34</ele>
        <time>2022-07-17T11:49:09Z</time>
      </trkpt>
      <trkpt lat="45.1737" lon="6.16776">
        <ele>2701.342</ele>
        <time>2022-07-17T11:49:14Z</time>
      </trkpt>
      <trkpt lat="45.1737" lon="6.16776">
        <ele>2701.343</ele>
        <time>2022-07-17T11:49:19Z</time>
      </trkpt>
      <trkpt lat="45.1737" lon="6.16776">
        <ele>2701.343</ele>
        <time>2022-07-17T11:49:24Z</time>
      </trkpt>
      <trkpt lat="45.1737" lon="6.16776">
        <ele>2701.666</ele>
        <time>2022-07-17T11:49:29Z</time>
      </trkpt>
      <trkpt lat="45.1737" lon="6.16776">
        <ele>2701.928</ele>
        <time>2022-07-17T11:49:34Z</time>
      </trkpt>
      <trkpt lat="45.1737" lon="6.16776">
        <ele>2701.939</ele>
        <time>2022-07-17T11:49:39Z</time>
      </trkpt>
      <trkpt lat="45.1737" lon="6.16776">
        <ele>2701.951</ele>
        <time>2022-07-17T11:49:44Z</time>
      </trkpt>
      <trkpt lat="45.1737" lon="6.16776">
        <ele>2701.937</ele>
        <time>2022-07-17T11:49:49Z</time>
      </trkpt>
      <trkpt lat="45.1737" lon="6.16775">
        <ele>2701.79</ele>
        <time>2022-07-17T11:49:54Z</time>
      </trkpt>
      <trkpt lat="45.1737" lon="6.16775">
        <ele>2701.788</ele>
        <time>2022-07-17T11:49:59Z</time>
      </trkpt>
      <trkpt lat="45.1737" lon="6.16775">
        <ele>2701.787</ele>
        <time>2022-07-17T11:50:04Z</time>
      </trkpt>
      <trkpt lat="45.1737" lon="6.16775">
        <ele>2701.784</ele>
        <time>2022-07-17T11:50:09Z</time>
      </trkpt>
      <trkpt lat="45.17369" lon="6.16776">
        <ele>2701.658</ele>
        <time>2022-07-17T11:50:14Z</time>
      </trkpt>
      <trkpt lat="45.17366" lon="6.16772">
        <ele>2701.999</ele>
        <time>2022-07-17T11:50:19Z</time>
      </trkpt>
      <trkpt lat="45.17366" lon="6.16771">
        <ele>2701.603</ele>
        <time>2022-07-17T11:50:24Z</time>
      </trkpt>
      <trkpt lat="45.17366" lon="6.16771">
        <ele>2701.608</ele>
        <time>2022-07-17T11:50:29Z</time>
      </trkpt>
      <trkpt lat="45.17366" lon="6.16771">
        <ele>2701.61</ele>
        <time>2022-07-17T11:50:34Z</time>
      </trkpt>
      <trkpt lat="45.17366" lon="6.16771">
        <ele>2701.614</ele>
        <time>2022-07-17T11:50:39Z</time>
      </trkpt>
      <trkpt lat="45.17366" lon="6.16771">
        <ele>2701.62</ele>
        <time>2022-07-17T11:50:44Z</time>
      </trkpt>
      <trkpt lat="45.17365" lon="6.1677">
        <ele>2702.165</ele>
        <time>2022-07-17T11:50:49Z</time>
      </trkpt>
      <trkpt lat="45.17365" lon="6.1677">
        <ele>2702.22</ele>
        <time>2022-07-17T11:50:54Z</time>
      </trkpt>
      <trkpt lat="45.17365" lon="6.1677">
        <ele>2702.222</ele>
        <time>2022-07-17T11:50:59Z</time>
      </trkpt>
      <trkpt lat="45.17365" lon="6.1677">
        <ele>2702.225</ele>
        <time>2022-07-17T11:51:04Z</time>
      </trkpt>
      <trkpt lat="45.17365" lon="6.1677">
        <ele>2702.229</ele>
        <time>2022-07-17T11:51:09Z</time>
      </trkpt>
      <trkpt lat="45.17365" lon="6.1677">
        <ele>2702.221</ele>
        <time>2022-07-17T11:51:14Z</time>
      </trkpt>
      <trkpt lat="45.17366" lon="6.1677">
        <ele>2701.825</ele>
        <time>2022-07-17T11:51:19Z</time>
      </trkpt>
      <trkpt lat="45.17366" lon="6.1677">
        <ele>2701.826</ele>
        <time>2022-07-17T11:51:24Z</time>
      </trkpt>
      <trkpt lat="45.17366" lon="6.1677">
        <ele>2701.817</ele>
        <time>2022-07-17T11:51:29Z</time>
      </trkpt>
      <trkpt lat="45.17366" lon="6.1677">
        <ele>2701.796</ele>
        <time>2022-07-17T11:51:34Z</time>
      </trkpt>
      <trkpt lat="45.17366" lon="6.1677">
        <ele>2701.789</ele>
        <time>2022-07-17T11:51:39Z</time>
      </trkpt>
      <trkpt lat="45.17366" lon="6.1677">
        <ele>2701.774</ele>
        <time>2022-07-17T11:51:44Z</time>
      </trkpt>
      <trkpt lat="45.17366" lon="6.1677">
        <ele>2701.77</ele>
        <time>2022-07-17T11:51:49Z</time>
      </trkpt>
      <trkpt lat="45.17366" lon="6.1677">
        <ele>2701.771</ele>
        <time>2022-07-17T11:51:54Z</time>
      </trkpt>
      <trkpt lat="45.17366" lon="6.1677">
        <ele>2701.772</ele>
        <time>2022-07-17T11:51:59Z</time>
      </trkpt>
      <trkpt lat="45.17366" lon="6.1677">
        <ele>2701.921</ele>
        <time>2022-07-17T11:52:04Z</time>
      </trkpt>
      <trkpt lat="45.17366" lon="6.1677">
        <ele>2701.842</ele>
        <time>2022-07-17T11:52:09Z</time>
      </trkpt>
      <trkpt lat="45.17366" lon="6.16771">
        <ele>2702.267</ele>
        <time>2022-07-17T11:52:14Z</time>
      </trkpt>
      <trkpt lat="45.17366" lon="6.16771">
        <ele>2702.442</ele>
        <time>2022-07-17T11:52:19Z</time>
      </trkpt>
      <trkpt lat="45.17366" lon="6.16771">
        <ele>2702.448</ele>
        <time>2022-07-17T11:52:24Z</time>
      </trkpt>
      <trkpt lat="45.17366" lon="6.1677">
        <ele>2702.535</ele>
        <time>2022-07-17T11:52:29Z</time>
      </trkpt>
      <trkpt lat="45.17366" lon="6.1677">
        <ele>2701.987</ele>
        <time>2022-07-17T11:52:34Z</time>
      </trkpt>
      <trkpt lat="45.17366" lon="6.1677">
        <ele>2701.991</ele>
        <time>2022-07-17T11:52:39Z</time>
      </trkpt>
      <trkpt lat="45.17366" lon="6.1677">
        <ele>2701.983</ele>
        <time>2022-07-17T11:52:44Z</time>
      </trkpt>
      <trkpt lat="45.17366" lon="6.1677">
        <ele>2701.987</ele>
        <time>2022-07-17T11:52:49Z</time>
      </trkpt>
      <trkpt lat="45.17366" lon="6.1677">
        <ele>2701.979</ele>
        <time>2022-07-17T11:52:54Z</time>
      </trkpt>
      <trkpt lat="45.17366" lon="6.16771">
        <ele>2701.987</ele>
        <time>2022-07-17T11:52:59Z</time>
      </trkpt>
      <trkpt lat="45.17367" lon="6.16771">
        <ele>2701.456</ele>
        <time>2022-07-17T11:53:04Z</time>
      </trkpt>
      <trkpt lat="45.17367" lon="6.16771">
        <ele>2703.222</ele>
        <time>2022-07-17T11:53:09Z</time>
      </trkpt>
      <trkpt lat="45.17367" lon="6.16772">
        <ele>2703.207</ele>
        <time>2022-07-17T11:53:14Z</time>
      </trkpt>
      <trkpt lat="45.17367" lon="6.16772">
        <ele>2703.4</ele>
        <time>2022-07-17T11:53:19Z</time>
      </trkpt>
      <trkpt lat="45.17367" lon="6.16772">
        <ele>2703.385</ele>
        <time>2022-07-17T11:53:24Z</time>
      </trkpt>
      <trkpt lat="45.17367" lon="6.16772">
        <ele>2703.109</ele>
        <time>2022-07-17T11:53:29Z</time>
      </trkpt>
      <trkpt lat="45.17366" lon="6.16772">
        <ele>2702.908</ele>
        <time>2022-07-17T11:53:34Z</time>
      </trkpt>
      <trkpt lat="45.17366" lon="6.16772">
        <ele>2702.664</ele>
        <time>2022-07-17T11:53:39Z</time>
      </trkpt>
      <trkpt lat="45.17366" lon="6.16771">
        <ele>2702.185</ele>
        <time>2022-07-17T11:53:44Z</time>
      </trkpt>
      <trkpt lat="45.17366" lon="6.1677">
        <ele>2702.092</ele>
        <time>2022-07-17T11:53:49Z</time>
      </trkpt>
      <trkpt lat="45.17366" lon="6.1677">
        <ele>2702.075</ele>
        <time>2022-07-17T11:53:54Z</time>
      </trkpt>
      <trkpt lat="45.17366" lon="6.16769">
        <ele>2702.668</ele>
        <time>2022-07-17T11:53:59Z</time>
      </trkpt>
      <trkpt lat="45.17365" lon="6.16768">
        <ele>2702.874</ele>
        <time>2022-07-17T11:54:04Z</time>
      </trkpt>
      <trkpt lat="45.17365" lon="6.16768">
        <ele>2702.874</ele>
        <time>2022-07-17T11:54:09Z</time>
      </trkpt>
      <trkpt lat="45.17365" lon="6.16768">
        <ele>2702.854</ele>
        <time>2022-07-17T11:54:14Z</time>
      </trkpt>
      <trkpt lat="45.17365" lon="6.16768">
        <ele>2702.869</ele>
        <time>2022-07-17T11:54:19Z</time>
      </trkpt>
      <trkpt lat="45.17365" lon="6.16768">
        <ele>2702.601</ele>
        <time>2022-07-17T11:54:24Z</time>
      </trkpt>
      <trkpt lat="45.17365" lon="6.16767">
        <ele>2702.632</ele>
        <time>2022-07-17T11:54:29Z</time>
      </trkpt>
      <trkpt lat="45.17374" lon="6.16763">
        <ele>2702.782</ele>
        <time>2022-07-17T11:54:34Z</time>
      </trkpt>
      <trkpt lat="45.17386" lon="6.16755">
        <ele>2697.912</ele>
        <time>2022-07-17T11:54:39Z</time>
      </trkpt>
      <trkpt lat="45.17406" lon="6.16756">
        <ele>2693.361</ele>
        <time>2022-07-17T11:54:44Z</time>
      </trkpt>
      <trkpt lat="45.17418" lon="6.16758">
        <ele>2690.224</ele>
        <time>2022-07-17T11:54:49Z</time>
      </trkpt>
      <trkpt lat="45.17432" lon="6.16762">
        <ele>2687.726</ele>
        <time>2022-07-17T11:54:54Z</time>
      </trkpt>
      <trkpt lat="45.17442" lon="6.16767">
        <ele>2686.22</ele>
        <time>2022-07-17T11:54:59Z</time>
      </trkpt>
      <trkpt lat="45.17449" lon="6.16773">
        <ele>2684.421</ele>
        <time>2022-07-17T11:55:04Z</time>
      </trkpt>
      <trkpt lat="45.17456" lon="6.16782">
        <ele>2682.615</ele>
        <time>2022-07-17T11:55:09Z</time>
      </trkpt>
      <trkpt lat="45.17468" lon="6.16791">
        <ele>2679.764</ele>
        <time>2022-07-17T11:55:14Z</time>
      </trkpt>
      <trkpt lat="45.17485" lon="6.168">
        <ele>2675.831</ele>
        <time>2022-07-17T11:55:19Z</time>
      </trkpt>
      <trkpt lat="45.17498" lon="6.16814">
        <ele>2674.186</ele>
        <time>2022-07-17T11:55:24Z</time>
      </trkpt>
      <trkpt lat="45.17511" lon="6.16828">
        <ele>2671.673</ele>
        <time>2022-07-17T11:55:29Z</time>
      </trkpt>
      <trkpt lat="45.17525" lon="6.1684">
        <ele>2668.802</ele>
        <time>2022-07-17T11:55:34Z</time>
      </trkpt>
      <trkpt lat="45.17538" lon="6.1685">
        <ele>2665.863</ele>
        <time>2022-07-17T11:55:39Z</time>
      </trkpt>
      <trkpt lat="45.17548" lon="6.16856">
        <ele>2663.282</ele>
        <time>2022-07-17T11:55:44Z</time>
      </trkpt>
      <trkpt lat="45.17555" lon="6.16863">
        <ele>2662.271</ele>
        <time>2022-07-17T11:55:49Z</time>
      </trkpt>
      <trkpt lat="45.17564" lon="6.16868">
        <ele>2660.049</ele>
        <time>2022-07-17T11:55:54Z</time>
      </trkpt>
      <trkpt lat="45.17578" lon="6.16873">
        <ele>2657.184</ele>
        <time>2022-07-17T11:55:59Z</time>
      </trkpt>
      <trkpt lat="45.17594" lon="6.16881">
        <ele>2653.03</ele>
        <time>2022-07-17T11:56:04Z</time>
      </trkpt>
      <trkpt lat="45.17609" lon="6.16888">
        <ele>2650.27</ele>
        <time>2022-07-17T11:56:09Z</time>
      </trkpt>
      <trkpt lat="45.17628" lon="6.16899">
        <ele>2646.652</ele>
        <time>2022-07-17T11:56:14Z</time>
      </trkpt>
      <trkpt lat="45.17646" lon="6.16908">
        <ele>2642.733</ele>
        <time>2022-07-17T11:56:19Z</time>
      </trkpt>
      <trkpt lat="45.17667" lon="6.16912">
        <ele>2640.276</ele>
        <time>2022-07-17T11:56:24Z</time>
      </trkpt>
      <trkpt lat="45.17692" lon="6.16919">
        <ele>2640.211</ele>
        <time>2022-07-17T11:56:29Z</time>
      </trkpt>
      <trkpt lat="45.17698" lon="6.16921">
        <ele>2638.875</ele>
        <time>2022-07-17T11:56:34Z</time>
      </trkpt>
      <trkpt lat="45.17698" lon="6.16921">
        <ele>2638.545</ele>
        <time>2022-07-17T11:56:39Z</time>
      </trkpt>
      <trkpt lat="45.17699" lon="6.16921">
        <ele>2638.498</ele>
        <time>2022-07-17T11:56:44Z</time>
      </trkpt>
      <trkpt lat="45.17699" lon="6.16921">
        <ele>2638.487</ele>
        <time>2022-07-17T11:56:49Z</time>
      </trkpt>
      <trkpt lat="45.17699" lon="6.16921">
        <ele>2638.485</ele>
        <time>2022-07-17T11:56:54Z</time>
      </trkpt>
      <trkpt lat="45.17699" lon="6.16921">
        <ele>2638.479</ele>
        <time>2022-07-17T11:56:59Z</time>
      </trkpt>
      <trkpt lat="45.17707" lon="6.16921">
        <ele>2636.285</ele>
        <time>2022-07-17T11:57:04Z</time>
      </trkpt>
      <trkpt lat="45.17726" lon="6.16923">
        <ele>2632.171</ele>
        <time>2022-07-17T11:57:09Z</time>
      </trkpt>
      <trkpt lat="45.17746" lon="6.16918">
        <ele>2628.978</ele>
        <time>2022-07-17T11:57:14Z</time>
      </trkpt>
      <trkpt lat="45.17759" lon="6.1692">
        <ele>2625.112</ele>
        <time>2022-07-17T11:57:19Z</time>
      </trkpt>
      <trkpt lat="45.17765" lon="6.16922">
        <ele>2625.01</ele>
        <time>2022-07-17T11:57:24Z</time>
      </trkpt>
      <trkpt lat="45.17775" lon="6.1692">
        <ele>2624.091</ele>
        <time>2022-07-17T11:57:29Z</time>
      </trkpt>
      <trkpt lat="45.17788" lon="6.16918">
        <ele>2622.424</ele>
        <time>2022-07-17T11:57:34Z</time>
      </trkpt>
      <trkpt lat="45.17803" lon="6.16924">
        <ele>2619.238</ele>
        <time>2022-07-17T11:57:39Z</time>
      </trkpt>
      <trkpt lat="45.17815" lon="6.16926">
        <ele>2618.124</ele>
        <time>2022-07-17T11:57:44Z</time>
      </trkpt>
      <trkpt lat="45.17832" lon="6.1693">
        <ele>2615.33</ele>
        <time>2022-07-17T11:57:49Z</time>
      </trkpt>
      <trkpt lat="45.17845" lon="6.16929">
        <ele>2613.202</ele>
        <time>2022-07-17T11:57:54Z</time>
      </trkpt>
      <trkpt lat="45.17855" lon="6.16933">
        <ele>2610.223</ele>
        <time>2022-07-17T11:57:59Z</time>
      </trkpt>
      <trkpt lat="45.17867" lon="6.16937">
        <ele>2608.231</ele>
        <time>2022-07-17T11:58:04Z</time>
      </trkpt>
      <trkpt lat="45.17879" lon="6.16953">
        <ele>2605.929</ele>
        <time>2022-07-17T11:58:09Z</time>
      </trkpt>
      <trkpt lat="45.17888" lon="6.16959">
        <ele>2604.314</ele>
        <time>2022-07-17T11:58:14Z</time>
      </trkpt>
      <trkpt lat="45.17889" lon="6.16962">
        <ele>2603.194</ele>
        <time>2022-07-17T11:58:19Z</time>
      </trkpt>
      <trkpt lat="45.17889" lon="6.16965">
        <ele>2603.366</ele>
        <time>2022-07-17T11:58:24Z</time>
      </trkpt>
      <trkpt lat="45.17887" lon="6.16971">
        <ele>2606.032</ele>
        <time>2022-07-17T11:58:29Z</time>
      </trkpt>
      <trkpt lat="45.17885" lon="6.16975">
        <ele>2607.632</ele>
        <time>2022-07-17T11:58:34Z</time>
      </trkpt>
      <trkpt lat="45.17885" lon="6.1698">
        <ele>2608.958</ele>
        <time>2022-07-17T11:58:39Z</time>
      </trkpt>
      <trkpt lat="45.17888" lon="6.16985">
        <ele>2609.516</ele>
        <time>2022-07-17T11:58:44Z</time>
      </trkpt>
      <trkpt lat="45.17891" lon="6.16988">
        <ele>2610.07</ele>
        <time>2022-07-17T11:58:49Z</time>
      </trkpt>
      <trkpt lat="45.17891" lon="6.16988">
        <ele>2610.024</ele>
        <time>2022-07-17T11:58:54Z</time>
      </trkpt>
      <trkpt lat="45.17891" lon="6.16988">
        <ele>2611.017</ele>
        <time>2022-07-17T11:58:59Z</time>
      </trkpt>
      <trkpt lat="45.1789" lon="6.16988">
        <ele>2610.707</ele>
        <time>2022-07-17T11:59:04Z</time>
      </trkpt>
      <trkpt lat="45.1789" lon="6.16988">
        <ele>2610.764</ele>
        <time>2022-07-17T11:59:09Z</time>
      </trkpt>
      <trkpt lat="45.1789" lon="6.16988">
        <ele>2610.789</ele>
        <time>2022-07-17T11:59:14Z</time>
      </trkpt>
      <trkpt lat="45.1789" lon="6.16988">
        <ele>2610.762</ele>
        <time>2022-07-17T11:59:19Z</time>
      </trkpt>
      <trkpt lat="45.1789" lon="6.16988">
        <ele>2610.77</ele>
        <time>2022-07-17T11:59:24Z</time>
      </trkpt>
      <trkpt lat="45.1789" lon="6.16988">
        <ele>2610.773</ele>
        <time>2022-07-17T11:59:29Z</time>
      </trkpt>
      <trkpt lat="45.1789" lon="6.16988">
        <ele>2610.791</ele>
        <time>2022-07-17T11:59:34Z</time>
      </trkpt>
      <trkpt lat="45.1789" lon="6.16988">
        <ele>2610.798</ele>
        <time>2022-07-17T11:59:39Z</time>
      </trkpt>
      <trkpt lat="45.1789" lon="6.16989">
        <ele>2610.807</ele>
        <time>2022-07-17T11:59:44Z</time>
      </trkpt>
      <trkpt lat="45.17889" lon="6.16988">
        <ele>2609.599</ele>
        <time>2022-07-17T11:59:49Z</time>
      </trkpt>
      <trkpt lat="45.17887" lon="6.1698">
        <ele>2608.983</ele>
        <time>2022-07-17T11:59:54Z</time>
      </trkpt>
      <trkpt lat="45.17885" lon="6.16971">
        <ele>2609.209</ele>
        <time>2022-07-17T11:59:59Z</time>
      </trkpt>
      <trkpt lat="45.17886" lon="6.16965">
        <ele>2607.209</ele>
        <time>2022-07-17T12:00:04Z</time>
      </trkpt>
      <trkpt lat="45.17887" lon="6.16961">
        <ele>2607.277</ele>
        <time>2022-07-17T12:00:09Z</time>
      </trkpt>
      <trkpt lat="45.17888" lon="6.1696">
        <ele>2605.849</ele>
        <time>2022-07-17T12:00:14Z</time>
      </trkpt>
      <trkpt lat="45.1789" lon="6.16961">
        <ele>2604.813</ele>
        <time>2022-07-17T12:00:19Z</time>
      </trkpt>
      <trkpt lat="45.17901" lon="6.16973">
        <ele>2601.155</ele>
        <time>2022-07-17T12:00:24Z</time>
      </trkpt>
      <trkpt lat="45.17913" lon="6.16981">
        <ele>2599.932</ele>
        <time>2022-07-17T12:00:29Z</time>
      </trkpt>
      <trkpt lat="45.17927" lon="6.16996">
        <ele>2597.978</ele>
        <time>2022-07-17T12:00:34Z</time>
      </trkpt>
      <trkpt lat="45.17939" lon="6.17013">
        <ele>2596.5</ele>
        <time>2022-07-17T12:00:39Z</time>
      </trkpt>
      <trkpt lat="45.17947" lon="6.17032">
        <ele>2595.085</ele>
        <time>2022-07-17T12:00:44Z</time>
      </trkpt>
      <trkpt lat="45.17963" lon="6.17056">
        <ele>2592.247</ele>
        <time>2022-07-17T12:00:49Z</time>
      </trkpt>
      <trkpt lat="45.17976" lon="6.17073">
        <ele>2589.643</ele>
        <time>2022-07-17T12:00:54Z</time>
      </trkpt>
      <trkpt lat="45.17991" lon="6.17072">
        <ele>2586.981</ele>
        <time>2022-07-17T12:00:59Z</time>
      </trkpt>
      <trkpt lat="45.18001" lon="6.17088">
        <ele>2584.559</ele>
        <time>2022-07-17T12:01:04Z</time>
      </trkpt>
      <trkpt lat="45.18007" lon="6.17095">
        <ele>2583.105</ele>
        <time>2022-07-17T12:01:09Z</time>
      </trkpt>
      <trkpt lat="45.18013" lon="6.17094">
        <ele>2581.605</ele>
        <time>2022-07-17T12:01:14Z</time>
      </trkpt>
      <trkpt lat="45.18022" lon="6.17098">
        <ele>2579.904</ele>
        <time>2022-07-17T12:01:19Z</time>
      </trkpt>
      <trkpt lat="45.18034" lon="6.17115">
        <ele>2577.195</ele>
        <time>2022-07-17T12:01:24Z</time>
      </trkpt>
      <trkpt lat="45.18049" lon="6.17109">
        <ele>2574.648</ele>
        <time>2022-07-17T12:01:29Z</time>
      </trkpt>
      <trkpt lat="45.18058" lon="6.17108">
        <ele>2572.702</ele>
        <time>2022-07-17T12:01:34Z</time>
      </trkpt>
      <trkpt lat="45.18071" lon="6.17118">
        <ele>2568.446</ele>
        <time>2022-07-17T12:01:39Z</time>
      </trkpt>
      <trkpt lat="45.18084" lon="6.17134">
        <ele>2565.265</ele>
        <time>2022-07-17T12:01:44Z</time>
      </trkpt>
      <trkpt lat="45.18097" lon="6.1714">
        <ele>2561.64</ele>
        <time>2022-07-17T12:01:49Z</time>
      </trkpt>
      <trkpt lat="45.18107" lon="6.17147">
        <ele>2559.129</ele>
        <time>2022-07-17T12:01:54Z</time>
      </trkpt>
      <trkpt lat="45.18117" lon="6.17158">
        <ele>2555.975</ele>
        <time>2022-07-17T12:01:59Z</time>
      </trkpt>
      <trkpt lat="45.1813" lon="6.17165">
        <ele>2553.882</ele>
        <time>2022-07-17T12:02:04Z</time>
      </trkpt>
      <trkpt lat="45.18138" lon="6.17168">
        <ele>2551.979</ele>
        <time>2022-07-17T12:02:09Z</time>
      </trkpt>
      <trkpt lat="45.18142" lon="6.17171">
        <ele>2550.709</ele>
        <time>2022-07-17T12:02:14Z</time>
      </trkpt>
      <trkpt lat="45.18148" lon="6.17172">
        <ele>2549.233</ele>
        <time>2022-07-17T12:02:19Z</time>
      </trkpt>
      <trkpt lat="45.18156" lon="6.17179">
        <ele>2547.44</ele>
        <time>2022-07-17T12:02:24Z</time>
      </trkpt>
      <trkpt lat="45.18169" lon="6.17186">
        <ele>2546.232</ele>
        <time>2022-07-17T12:02:29Z</time>
      </trkpt>
      <trkpt lat="45.18188" lon="6.17195">
        <ele>2543.728</ele>
        <time>2022-07-17T12:02:34Z</time>
      </trkpt>
      <trkpt lat="45.18203" lon="6.172">
        <ele>2540.953</ele>
        <time>2022-07-17T12:02:39Z</time>
      </trkpt>
      <trkpt lat="45.18219" lon="6.17212">
        <ele>2538.825</ele>
        <time>2022-07-17T12:02:44Z</time>
      </trkpt>
      <trkpt lat="45.18233" lon="6.17218">
        <ele>2536.229</ele>
        <time>2022-07-17T12:02:49Z</time>
      </trkpt>
      <trkpt lat="45.18245" lon="6.17224">
        <ele>2534.359</ele>
        <time>2022-07-17T12:02:54Z</time>
      </trkpt>
      <trkpt lat="45.1826" lon="6.17231">
        <ele>2532.65</ele>
        <time>2022-07-17T12:02:59Z</time>
      </trkpt>
      <trkpt lat="45.1827" lon="6.17242">
        <ele>2531.851</ele>
        <time>2022-07-17T12:03:04Z</time>
      </trkpt>
      <trkpt lat="45.18284" lon="6.17247">
        <ele>2528.966</ele>
        <time>2022-07-17T12:03:09Z</time>
      </trkpt>
      <trkpt lat="45.183" lon="6.17256">
        <ele>2526.387</ele>
        <time>2022-07-17T12:03:14Z</time>
      </trkpt>
      <trkpt lat="45.18314" lon="6.17267">
        <ele>2525.33</ele>
        <time>2022-07-17T12:03:19Z</time>
      </trkpt>
      <trkpt lat="45.18324" lon="6.17278">
        <ele>2523.989</ele>
        <time>2022-07-17T12:03:24Z</time>
      </trkpt>
      <trkpt lat="45.18338" lon="6.17288">
        <ele>2522.807</ele>
        <time>2022-07-17T12:03:29Z</time>
      </trkpt>
      <trkpt lat="45.18351" lon="6.17294">
        <ele>2520.676</ele>
        <time>2022-07-17T12:03:34Z</time>
      </trkpt>
      <trkpt lat="45.18365" lon="6.17305">
        <ele>2519.357</ele>
        <time>2022-07-17T12:03:39Z</time>
      </trkpt>
      <trkpt lat="45.1838" lon="6.17315">
        <ele>2518.538</ele>
        <time>2022-07-17T12:03:44Z</time>
      </trkpt>
      <trkpt lat="45.18392" lon="6.17323">
        <ele>2517.413</ele>
        <time>2022-07-17T12:03:49Z</time>
      </trkpt>
      <trkpt lat="45.18406" lon="6.1733">
        <ele>2516.085</ele>
        <time>2022-07-17T12:03:54Z</time>
      </trkpt>
      <trkpt lat="45.18426" lon="6.1734">
        <ele>2514.425</ele>
        <time>2022-07-17T12:03:59Z</time>
      </trkpt>
      <trkpt lat="45.18445" lon="6.17348">
        <ele>2513.851</ele>
        <time>2022-07-17T12:04:04Z</time>
      </trkpt>
      <trkpt lat="45.18462" lon="6.17351">
        <ele>2513.503</ele>
        <time>2022-07-17T12:04:09Z</time>
      </trkpt>
      <trkpt lat="45.18477" lon="6.17354">
        <ele>2512.795</ele>
        <time>2022-07-17T12:04:14Z</time>
      </trkpt>
      <trkpt lat="45.1848" lon="6.17355">
        <ele>2511.815</ele>
        <time>2022-07-17T12:04:19Z</time>
      </trkpt>
      <trkpt lat="45.18485" lon="6.17357">
        <ele>2511.37</ele>
        <time>2022-07-17T12:04:24Z</time>
      </trkpt>
      <trkpt lat="45.18492" lon="6.17359">
        <ele>2513.28</ele>
        <time>2022-07-17T12:04:29Z</time>
      </trkpt>
      <trkpt lat="45.18496" lon="6.17359">
        <ele>2514.009</ele>
        <time>2022-07-17T12:04:34Z</time>
      </trkpt>
      <trkpt lat="45.18508" lon="6.17359">
        <ele>2514.175</ele>
        <time>2022-07-17T12:04:39Z</time>
      </trkpt>
      <trkpt lat="45.18523" lon="6.1736">
        <ele>2514.209</ele>
        <time>2022-07-17T12:04:44Z</time>
      </trkpt>
      <trkpt lat="45.18542" lon="6.17364">
        <ele>2513.313</ele>
        <time>2022-07-17T12:04:49Z</time>
      </trkpt>
      <trkpt lat="45.18567" lon="6.17358">
        <ele>2512.788</ele>
        <time>2022-07-17T12:04:54Z</time>
      </trkpt>
      <trkpt lat="45.18579" lon="6.17342">
        <ele>2514.488</ele>
        <time>2022-07-17T12:04:59Z</time>
      </trkpt>
      <trkpt lat="45.18593" lon="6.1733">
        <ele>2515.15</ele>
        <time>2022-07-17T12:05:04Z</time>
      </trkpt>
      <trkpt lat="45.18608" lon="6.17327">
        <ele>2515.277</ele>
        <time>2022-07-17T12:05:09Z</time>
      </trkpt>
      <trkpt lat="45.18624" lon="6.17327">
        <ele>2514.646</ele>
        <time>2022-07-17T12:05:14Z</time>
      </trkpt>
      <trkpt lat="45.18635" lon="6.17328">
        <ele>2514.497</ele>
        <time>2022-07-17T12:05:19Z</time>
      </trkpt>
      <trkpt lat="45.18647" lon="6.17326">
        <ele>2513.456</ele>
        <time>2022-07-17T12:05:24Z</time>
      </trkpt>
      <trkpt lat="45.1866" lon="6.17321">
        <ele>2514.272</ele>
        <time>2022-07-17T12:05:29Z</time>
      </trkpt>
      <trkpt lat="45.18672" lon="6.17316">
        <ele>2515.546</ele>
        <time>2022-07-17T12:05:34Z</time>
      </trkpt>
      <trkpt lat="45.18687" lon="6.17316">
        <ele>2515.473</ele>
        <time>2022-07-17T12:05:39Z</time>
      </trkpt>
      <trkpt lat="45.18699" lon="6.1731">
        <ele>2516.846</ele>
        <time>2022-07-17T12:05:44Z</time>
      </trkpt>
      <trkpt lat="45.18708" lon="6.17301">
        <ele>2515.332</ele>
        <time>2022-07-17T12:05:49Z</time>
      </trkpt>
      <trkpt lat="45.18725" lon="6.17289">
        <ele>2510.077</ele>
        <time>2022-07-17T12:05:54Z</time>
      </trkpt>
      <trkpt lat="45.18744" lon="6.17293">
        <ele>2511.728</ele>
        <time>2022-07-17T12:05:59Z</time>
      </trkpt>
      <trkpt lat="45.18755" lon="6.17293">
        <ele>2513.511</ele>
        <time>2022-07-17T12:06:04Z</time>
      </trkpt>
      <trkpt lat="45.18765" lon="6.17295">
        <ele>2514.477</ele>
        <time>2022-07-17T12:06:09Z</time>
      </trkpt>
      <trkpt lat="45.18782" lon="6.17292">
        <ele>2514.118</ele>
        <time>2022-07-17T12:06:14Z</time>
      </trkpt>
      <trkpt lat="45.18799" lon="6.1729">
        <ele>2514.288</ele>
        <time>2022-07-17T12:06:19Z</time>
      </trkpt>
      <trkpt lat="45.18813" lon="6.17293">
        <ele>2513.795</ele>
        <time>2022-07-17T12:06:24Z</time>
      </trkpt>
      <trkpt lat="45.18828" lon="6.17304">
        <ele>2513.237</ele>
        <time>2022-07-17T12:06:29Z</time>
      </trkpt>
      <trkpt lat="45.18837" lon="6.17319">
        <ele>2513.16</ele>
        <time>2022-07-17T12:06:34Z</time>
      </trkpt>
      <trkpt lat="45.18845" lon="6.17334">
        <ele>2513.655</ele>
        <time>2022-07-17T12:06:39Z</time>
      </trkpt>
      <trkpt lat="45.18858" lon="6.17348">
        <ele>2513.717</ele>
        <time>2022-07-17T12:06:44Z</time>
      </trkpt>
      <trkpt lat="45.18871" lon="6.17367">
        <ele>2513.004</ele>
        <time>2022-07-17T12:06:49Z</time>
      </trkpt>
      <trkpt lat="45.18876" lon="6.17389">
        <ele>2513.179</ele>
        <time>2022-07-17T12:06:54Z</time>
      </trkpt>
      <trkpt lat="45.18875" lon="6.17408">
        <ele>2513.92</ele>
        <time>2022-07-17T12:06:59Z</time>
      </trkpt>
      <trkpt lat="45.18882" lon="6.17426">
        <ele>2511.842</ele>
        <time>2022-07-17T12:07:04Z</time>
      </trkpt>
      <trkpt lat="45.18892" lon="6.17431">
        <ele>2508.324</ele>
        <time>2022-07-17T12:07:09Z</time>
      </trkpt>
      <trkpt lat="45.18898" lon="6.17439">
        <ele>2508.585</ele>
        <time>2022-07-17T12:07:14Z</time>
      </trkpt>
      <trkpt lat="45.189" lon="6.1744">
        <ele>2509.568</ele>
        <time>2022-07-17T12:07:19Z</time>
      </trkpt>
      <trkpt lat="45.18901" lon="6.17443">
        <ele>2510.866</ele>
        <time>2022-07-17T12:07:24Z</time>
      </trkpt>
      <trkpt lat="45.18906" lon="6.17444">
        <ele>2513.055</ele>
        <time>2022-07-17T12:07:29Z</time>
      </trkpt>
      <trkpt lat="45.18911" lon="6.17446">
        <ele>2513.878</ele>
        <time>2022-07-17T12:07:34Z</time>
      </trkpt>
      <trkpt lat="45.18911" lon="6.17447">
        <ele>2514.11</ele>
        <time>2022-07-17T12:07:39Z</time>
      </trkpt>
      <trkpt lat="45.18911" lon="6.17447">
        <ele>2514.122</ele>
        <time>2022-07-17T12:07:44Z</time>
      </trkpt>
      <trkpt lat="45.18911" lon="6.17447">
        <ele>2514.126</ele>
        <time>2022-07-17T12:07:49Z</time>
      </trkpt>
      <trkpt lat="45.18911" lon="6.17447">
        <ele>2514.14</ele>
        <time>2022-07-17T12:07:54Z</time>
      </trkpt>
      <trkpt lat="45.18911" lon="6.17447">
        <ele>2514.141</ele>
        <time>2022-07-17T12:07:59Z</time>
      </trkpt>
      <trkpt lat="45.18911" lon="6.17447">
        <ele>2514.138</ele>
        <time>2022-07-17T12:08:04Z</time>
      </trkpt>
      <trkpt lat="45.18911" lon="6.17447">
        <ele>2514.129</ele>
        <time>2022-07-17T12:08:09Z</time>
      </trkpt>
      <trkpt lat="45.18911" lon="6.17447">
        <ele>2514.133</ele>
        <time>2022-07-17T12:08:14Z</time>
      </trkpt>
      <trkpt lat="45.18911" lon="6.17447">
        <ele>2514.148</ele>
        <time>2022-07-17T12:08:19Z</time>
      </trkpt>
      <trkpt lat="45.18911" lon="6.17447">
        <ele>2514.159</ele>
        <time>2022-07-17T12:08:24Z</time>
      </trkpt>
      <trkpt lat="45.18911" lon="6.17447">
        <ele>2514.15</ele>
        <time>2022-07-17T12:08:29Z</time>
      </trkpt>
      <trkpt lat="45.18911" lon="6.17447">
        <ele>2515.097</ele>
        <time>2022-07-17T12:08:34Z</time>
      </trkpt>
      <trkpt lat="45.18911" lon="6.17447">
        <ele>2515.564</ele>
        <time>2022-07-17T12:08:39Z</time>
      </trkpt>
      <trkpt lat="45.18911" lon="6.17446">
        <ele>2514.842</ele>
        <time>2022-07-17T12:08:44Z</time>
      </trkpt>
      <trkpt lat="45.18911" lon="6.17446">
        <ele>2515.156</ele>
        <time>2022-07-17T12:08:49Z</time>
      </trkpt>
      <trkpt lat="45.18911" lon="6.17446">
        <ele>2515.167</ele>
        <time>2022-07-17T12:08:54Z</time>
      </trkpt>
      <trkpt lat="45.18913" lon="6.17449">
        <ele>2515.345</ele>
        <time>2022-07-17T12:08:59Z</time>
      </trkpt>
      <trkpt lat="45.18916" lon="6.17453">
        <ele>2515.346</ele>
        <time>2022-07-17T12:09:04Z</time>
      </trkpt>
      <trkpt lat="45.1892" lon="6.17456">
        <ele>2516.213</ele>
        <time>2022-07-17T12:09:09Z</time>
      </trkpt>
      <trkpt lat="45.1892" lon="6.17459">
        <ele>2517.963</ele>
        <time>2022-07-17T12:09:14Z</time>
      </trkpt>
      <trkpt lat="45.1892" lon="6.1746">
        <ele>2517.635</ele>
        <time>2022-07-17T12:09:19Z</time>
      </trkpt>
      <trkpt lat="45.18918" lon="6.17466">
        <ele>2515.89</ele>
        <time>2022-07-17T12:09:24Z</time>
      </trkpt>
      <trkpt lat="45.18924" lon="6.17474">
        <ele>2512.525</ele>
        <time>2022-07-17T12:09:29Z</time>
      </trkpt>
      <trkpt lat="45.18939" lon="6.17481">
        <ele>2506.165</ele>
        <time>2022-07-17T12:09:34Z</time>
      </trkpt>
      <trkpt lat="45.18949" lon="6.1749">
        <ele>2504.571</ele>
        <time>2022-07-17T12:09:39Z</time>
      </trkpt>
      <trkpt lat="45.18963" lon="6.17499">
        <ele>2502.937</ele>
        <time>2022-07-17T12:09:44Z</time>
      </trkpt>
      <trkpt lat="45.1898" lon="6.17513">
        <ele>2501.305</ele>
        <time>2022-07-17T12:09:49Z</time>
      </trkpt>
      <trkpt lat="45.18992" lon="6.17522">
        <ele>2499.29</ele>
        <time>2022-07-17T12:09:54Z</time>
      </trkpt>
      <trkpt lat="45.19003" lon="6.1754">
        <ele>2498.424</ele>
        <time>2022-07-17T12:09:59Z</time>
      </trkpt>
      <trkpt lat="45.19004" lon="6.17541">
        <ele>2498.383</ele>
        <time>2022-07-17T12:10:04Z</time>
      </trkpt>
      <trkpt lat="45.19007" lon="6.17545">
        <ele>2499.459</ele>
        <time>2022-07-17T12:10:09Z</time>
      </trkpt>
      <trkpt lat="45.1901" lon="6.17548">
        <ele>2500.577</ele>
        <time>2022-07-17T12:10:14Z</time>
      </trkpt>
      <trkpt lat="45.19016" lon="6.17547">
        <ele>2501.674</ele>
        <time>2022-07-17T12:10:19Z</time>
      </trkpt>
      <trkpt lat="45.19018" lon="6.17547">
        <ele>2502.223</ele>
        <time>2022-07-17T12:10:24Z</time>
      </trkpt>
      <trkpt lat="45.19022" lon="6.1755">
        <ele>2502.315</ele>
        <time>2022-07-17T12:10:29Z</time>
      </trkpt>
      <trkpt lat="45.19026" lon="6.17554">
        <ele>2502.365</ele>
        <time>2022-07-17T12:10:34Z</time>
      </trkpt>
      <trkpt lat="45.19028" lon="6.17558">
        <ele>2503.991</ele>
        <time>2022-07-17T12:10:39Z</time>
      </trkpt>
      <trkpt lat="45.19028" lon="6.17557">
        <ele>2504.496</ele>
        <time>2022-07-17T12:10:44Z</time>
      </trkpt>
      <trkpt lat="45.19028" lon="6.17557">
        <ele>2504.596</ele>
        <time>2022-07-17T12:10:49Z</time>
      </trkpt>
      <trkpt lat="45.19028" lon="6.17557">
        <ele>2504.747</ele>
        <time>2022-07-17T12:10:54Z</time>
      </trkpt>
      <trkpt lat="45.19028" lon="6.17557">
        <ele>2504.734</ele>
        <time>2022-07-17T12:10:59Z</time>
      </trkpt>
      <trkpt lat="45.19028" lon="6.17557">
        <ele>2504.74</ele>
        <time>2022-07-17T12:11:04Z</time>
      </trkpt>
      <trkpt lat="45.19028" lon="6.17557">
        <ele>2504.734</ele>
        <time>2022-07-17T12:11:09Z</time>
      </trkpt>
      <trkpt lat="45.19028" lon="6.17557">
        <ele>2503.709</ele>
        <time>2022-07-17T12:11:14Z</time>
      </trkpt>
      <trkpt lat="45.19028" lon="6.17555">
        <ele>2502.376</ele>
        <time>2022-07-17T12:11:19Z</time>
      </trkpt>
      <trkpt lat="45.19028" lon="6.17554">
        <ele>2501.867</ele>
        <time>2022-07-17T12:11:24Z</time>
      </trkpt>
      <trkpt lat="45.19033" lon="6.17559">
        <ele>2501.615</ele>
        <time>2022-07-17T12:11:29Z</time>
      </trkpt>
      <trkpt lat="45.19047" lon="6.17572">
        <ele>2500.779</ele>
        <time>2022-07-17T12:11:34Z</time>
      </trkpt>
      <trkpt lat="45.19055" lon="6.17578">
        <ele>2500.799</ele>
        <time>2022-07-17T12:11:39Z</time>
      </trkpt>
      <trkpt lat="45.19062" lon="6.17586">
        <ele>2500.83</ele>
        <time>2022-07-17T12:11:44Z</time>
      </trkpt>
      <trkpt lat="45.19068" lon="6.17594">
        <ele>2501.423</ele>
        <time>2022-07-17T12:11:49Z</time>
      </trkpt>
      <trkpt lat="45.19081" lon="6.17602">
        <ele>2500.707</ele>
        <time>2022-07-17T12:11:54Z</time>
      </trkpt>
      <trkpt lat="45.1909" lon="6.17609">
        <ele>2500.762</ele>
        <time>2022-07-17T12:11:59Z</time>
      </trkpt>
      <trkpt lat="45.191" lon="6.17617">
        <ele>2500.565</ele>
        <time>2022-07-17T12:12:04Z</time>
      </trkpt>
      <trkpt lat="45.19102" lon="6.17618">
        <ele>2500.27</ele>
        <time>2022-07-17T12:12:09Z</time>
      </trkpt>
      <trkpt lat="45.19104" lon="6.17622">
        <ele>2499.822</ele>
        <time>2022-07-17T12:12:14Z</time>
      </trkpt>
      <trkpt lat="45.19109" lon="6.17625">
        <ele>2500.522</ele>
        <time>2022-07-17T12:12:19Z</time>
      </trkpt>
      <trkpt lat="45.19112" lon="6.17629">
        <ele>2501.959</ele>
        <time>2022-07-17T12:12:24Z</time>
      </trkpt>
      <trkpt lat="45.19115" lon="6.17631">
        <ele>2504.091</ele>
        <time>2022-07-17T12:12:29Z</time>
      </trkpt>
      <trkpt lat="45.19121" lon="6.1763">
        <ele>2503.521</ele>
        <time>2022-07-17T12:12:34Z</time>
      </trkpt>
      <trkpt lat="45.19133" lon="6.17633">
        <ele>2503.17</ele>
        <time>2022-07-17T12:12:39Z</time>
      </trkpt>
      <trkpt lat="45.19148" lon="6.17635">
        <ele>2502.295</ele>
        <time>2022-07-17T12:12:44Z</time>
      </trkpt>
      <trkpt lat="45.19161" lon="6.1764">
        <ele>2501.036</ele>
        <time>2022-07-17T12:12:49Z</time>
      </trkpt>
      <trkpt lat="45.1917" lon="6.17645">
        <ele>2501</ele>
        <time>2022-07-17T12:12:54Z</time>
      </trkpt>
      <trkpt lat="45.1918" lon="6.17646">
        <ele>2501.551</ele>
        <time>2022-07-17T12:12:59Z</time>
      </trkpt>
      <trkpt lat="45.19186" lon="6.17652">
        <ele>2502.482</ele>
        <time>2022-07-17T12:13:04Z</time>
      </trkpt>
      <trkpt lat="45.19196" lon="6.17659">
        <ele>2501.689</ele>
        <time>2022-07-17T12:13:09Z</time>
      </trkpt>
      <trkpt lat="45.19197" lon="6.1766">
        <ele>2501.457</ele>
        <time>2022-07-17T12:13:14Z</time>
      </trkpt>
      <trkpt lat="45.19198" lon="6.1766">
        <ele>2501.773</ele>
        <time>2022-07-17T12:13:19Z</time>
      </trkpt>
      <trkpt lat="45.19205" lon="6.17658">
        <ele>2499.945</ele>
        <time>2022-07-17T12:13:24Z</time>
      </trkpt>
      <trkpt lat="45.1922" lon="6.17653">
        <ele>2496.879</ele>
        <time>2022-07-17T12:13:29Z</time>
      </trkpt>
      <trkpt lat="45.19244" lon="6.17647">
        <ele>2495.601</ele>
        <time>2022-07-17T12:13:34Z</time>
      </trkpt>
      <trkpt lat="45.19264" lon="6.17638">
        <ele>2494.302</ele>
        <time>2022-07-17T12:13:39Z</time>
      </trkpt>
      <trkpt lat="45.19275" lon="6.17635">
        <ele>2493.16</ele>
        <time>2022-07-17T12:13:44Z</time>
      </trkpt>
      <trkpt lat="45.19278" lon="6.17635">
        <ele>2492.789</ele>
        <time>2022-07-17T12:13:49Z</time>
      </trkpt>
      <trkpt lat="45.1928" lon="6.17631">
        <ele>2491.701</ele>
        <time>2022-07-17T12:13:54Z</time>
      </trkpt>
      <trkpt lat="45.19292" lon="6.17628">
        <ele>2491.078</ele>
        <time>2022-07-17T12:13:59Z</time>
      </trkpt>
      <trkpt lat="45.19307" lon="6.17625">
        <ele>2490.896</ele>
        <time>2022-07-17T12:14:04Z</time>
      </trkpt>
      <trkpt lat="45.19321" lon="6.17622">
        <ele>2490.094</ele>
        <time>2022-07-17T12:14:09Z</time>
      </trkpt>
      <trkpt lat="45.19336" lon="6.17614">
        <ele>2489.631</ele>
        <time>2022-07-17T12:14:14Z</time>
      </trkpt>
      <trkpt lat="45.19357" lon="6.17617">
        <ele>2487.855</ele>
        <time>2022-07-17T12:14:19Z</time>
      </trkpt>
      <trkpt lat="45.19377" lon="6.17632">
        <ele>2485.526</ele>
        <time>2022-07-17T12:14:24Z</time>
      </trkpt>
      <trkpt lat="45.19394" lon="6.17644">
        <ele>2484.102</ele>
        <time>2022-07-17T12:14:29Z</time>
      </trkpt>
      <trkpt lat="45.1941" lon="6.17659">
        <ele>2481.796</ele>
        <time>2022-07-17T12:14:34Z</time>
      </trkpt>
      <trkpt lat="45.19427" lon="6.17674">
        <ele>2478.572</ele>
        <time>2022-07-17T12:14:39Z</time>
      </trkpt>
      <trkpt lat="45.19447" lon="6.17695">
        <ele>2477.249</ele>
        <time>2022-07-17T12:14:44Z</time>
      </trkpt>
      <trkpt lat="45.19461" lon="6.17715">
        <ele>2478.014</ele>
        <time>2022-07-17T12:14:49Z</time>
      </trkpt>
      <trkpt lat="45.19478" lon="6.17719">
        <ele>2475.425</ele>
        <time>2022-07-17T12:14:54Z</time>
      </trkpt>
      <trkpt lat="45.19487" lon="6.17699">
        <ele>2475.294</ele>
        <time>2022-07-17T12:14:59Z</time>
      </trkpt>
      <trkpt lat="45.19495" lon="6.17685">
        <ele>2476.051</ele>
        <time>2022-07-17T12:15:04Z</time>
      </trkpt>
      <trkpt lat="45.19501" lon="6.17668">
        <ele>2475.382</ele>
        <time>2022-07-17T12:15:09Z</time>
      </trkpt>
      <trkpt lat="45.19508" lon="6.17652">
        <ele>2476.127</ele>
        <time>2022-07-17T12:15:14Z</time>
      </trkpt>
      <trkpt lat="45.19513" lon="6.17633">
        <ele>2475.663</ele>
        <time>2022-07-17T12:15:19Z</time>
      </trkpt>
      <trkpt lat="45.1952" lon="6.17613">
        <ele>2476.32</ele>
        <time>2022-07-17T12:15:24Z</time>
      </trkpt>
      <trkpt lat="45.19527" lon="6.17598">
        <ele>2478.576</ele>
        <time>2022-07-17T12:15:29Z</time>
      </trkpt>
      <trkpt lat="45.19531" lon="6.17582">
        <ele>2478.732</ele>
        <time>2022-07-17T12:15:34Z</time>
      </trkpt>
      <trkpt lat="45.19536" lon="6.17569">
        <ele>2479.565</ele>
        <time>2022-07-17T12:15:39Z</time>
      </trkpt>
      <trkpt lat="45.1954" lon="6.17557">
        <ele>2479.75</ele>
        <time>2022-07-17T12:15:44Z</time>
      </trkpt>
      <trkpt lat="45.19545" lon="6.17547">
        <ele>2481.327</ele>
        <time>2022-07-17T12:15:49Z</time>
      </trkpt>
      <trkpt lat="45.19551" lon="6.17538">
        <ele>2481.039</ele>
        <time>2022-07-17T12:15:54Z</time>
      </trkpt>
      <trkpt lat="45.19558" lon="6.17533">
        <ele>2481.023</ele>
        <time>2022-07-17T12:15:59Z</time>
      </trkpt>
      <trkpt lat="45.19565" lon="6.17529">
        <ele>2480.523</ele>
        <time>2022-07-17T12:16:04Z</time>
      </trkpt>
      <trkpt lat="45.19571" lon="6.17525">
        <ele>2479.233</ele>
        <time>2022-07-17T12:16:09Z</time>
      </trkpt>
      <trkpt lat="45.1958" lon="6.17522">
        <ele>2478.124</ele>
        <time>2022-07-17T12:16:14Z</time>
      </trkpt>
      <trkpt lat="45.19588" lon="6.17521">
        <ele>2480.391</ele>
        <time>2022-07-17T12:16:19Z</time>
      </trkpt>
      <trkpt lat="45.19592" lon="6.17517">
        <ele>2479.78</ele>
        <time>2022-07-17T12:16:24Z</time>
      </trkpt>
      <trkpt lat="45.19592" lon="6.17517">
        <ele>2479.747</ele>
        <time>2022-07-17T12:16:29Z</time>
      </trkpt>
      <trkpt lat="45.19592" lon="6.17517">
        <ele>2479.708</ele>
        <time>2022-07-17T12:16:34Z</time>
      </trkpt>
      <trkpt lat="45.19592" lon="6.17517">
        <ele>2479.709</ele>
        <time>2022-07-17T12:16:39Z</time>
      </trkpt>
      <trkpt lat="45.19592" lon="6.17517">
        <ele>2479.699</ele>
        <time>2022-07-17T12:16:44Z</time>
      </trkpt>
      <trkpt lat="45.19592" lon="6.17517">
        <ele>2479.406</ele>
        <time>2022-07-17T12:16:49Z</time>
      </trkpt>
      <trkpt lat="45.19591" lon="6.17517">
        <ele>2479.415</ele>
        <time>2022-07-17T12:16:54Z</time>
      </trkpt>
      <trkpt lat="45.19591" lon="6.17517">
        <ele>2479.421</ele>
        <time>2022-07-17T12:16:59Z</time>
      </trkpt>
      <trkpt lat="45.19591" lon="6.17517">
        <ele>2479.418</ele>
        <time>2022-07-17T12:17:04Z</time>
      </trkpt>
      <trkpt lat="45.19591" lon="6.17517">
        <ele>2479.417</ele>
        <time>2022-07-17T12:17:09Z</time>
      </trkpt>
      <trkpt lat="45.19591" lon="6.17517">
        <ele>2479.425</ele>
        <time>2022-07-17T12:17:14Z</time>
      </trkpt>
      <trkpt lat="45.19591" lon="6.17517">
        <ele>2479.419</ele>
        <time>2022-07-17T12:17:19Z</time>
      </trkpt>
      <trkpt lat="45.19591" lon="6.17517">
        <ele>2479.626</ele>
        <time>2022-07-17T12:17:24Z</time>
      </trkpt>
      <trkpt lat="45.19591" lon="6.17517">
        <ele>2479.625</ele>
        <time>2022-07-17T12:17:29Z</time>
      </trkpt>
      <trkpt lat="45.19591" lon="6.17517">
        <ele>2479.629</ele>
        <time>2022-07-17T12:17:34Z</time>
      </trkpt>
      <trkpt lat="45.19592" lon="6.17517">
        <ele>2479.884</ele>
        <time>2022-07-17T12:17:39Z</time>
      </trkpt>
      <trkpt lat="45.196" lon="6.17516">
        <ele>2480.418</ele>
        <time>2022-07-17T12:17:44Z</time>
      </trkpt>
      <trkpt lat="45.19613" lon="6.17515">
        <ele>2477.445</ele>
        <time>2022-07-17T12:17:49Z</time>
      </trkpt>
      <trkpt lat="45.19623" lon="6.17519">
        <ele>2473.683</ele>
        <time>2022-07-17T12:17:54Z</time>
      </trkpt>
      <trkpt lat="45.19635" lon="6.17523">
        <ele>2471.645</ele>
        <time>2022-07-17T12:17:59Z</time>
      </trkpt>
      <trkpt lat="45.19654" lon="6.1753">
        <ele>2472.094</ele>
        <time>2022-07-17T12:18:04Z</time>
      </trkpt>
      <trkpt lat="45.19665" lon="6.17534">
        <ele>2471.065</ele>
        <time>2022-07-17T12:18:09Z</time>
      </trkpt>
      <trkpt lat="45.19677" lon="6.17548">
        <ele>2470.322</ele>
        <time>2022-07-17T12:18:14Z</time>
      </trkpt>
      <trkpt lat="45.19693" lon="6.17558">
        <ele>2469.62</ele>
        <time>2022-07-17T12:18:19Z</time>
      </trkpt>
      <trkpt lat="45.19712" lon="6.17569">
        <ele>2467.803</ele>
        <time>2022-07-17T12:18:24Z</time>
      </trkpt>
      <trkpt lat="45.19727" lon="6.17584">
        <ele>2467.719</ele>
        <time>2022-07-17T12:18:29Z</time>
      </trkpt>
      <trkpt lat="45.19737" lon="6.17594">
        <ele>2467.082</ele>
        <time>2022-07-17T12:18:34Z</time>
      </trkpt>
      <trkpt lat="45.19744" lon="6.17605">
        <ele>2466.943</ele>
        <time>2022-07-17T12:18:39Z</time>
      </trkpt>
      <trkpt lat="45.19748" lon="6.1761">
        <ele>2466.501</ele>
        <time>2022-07-17T12:18:44Z</time>
      </trkpt>
      <trkpt lat="45.19748" lon="6.1761">
        <ele>2466.843</ele>
        <time>2022-07-17T12:18:49Z</time>
      </trkpt>
      <trkpt lat="45.1975" lon="6.17614">
        <ele>2467.803</ele>
        <time>2022-07-17T12:18:54Z</time>
      </trkpt>
      <trkpt lat="45.19761" lon="6.17627">
        <ele>2466.994</ele>
        <time>2022-07-17T12:18:59Z</time>
      </trkpt>
      <trkpt lat="45.19771" lon="6.1764">
        <ele>2467.35</ele>
        <time>2022-07-17T12:19:04Z</time>
      </trkpt>
      <trkpt lat="45.19779" lon="6.1765">
        <ele>2468.24</ele>
        <time>2022-07-17T12:19:09Z</time>
      </trkpt>
      <trkpt lat="45.1979" lon="6.1766">
        <ele>2467.363</ele>
        <time>2022-07-17T12:19:14Z</time>
      </trkpt>
      <trkpt lat="45.19799" lon="6.17672">
        <ele>2468.357</ele>
        <time>2022-07-17T12:19:19Z</time>
      </trkpt>
      <trkpt lat="45.19799" lon="6.17674">
        <ele>2468.935</ele>
        <time>2022-07-17T12:19:24Z</time>
      </trkpt>
      <trkpt lat="45.19801" lon="6.17679">
        <ele>2469.492</ele>
        <time>2022-07-17T12:19:29Z</time>
      </trkpt>
      <trkpt lat="45.19804" lon="6.17683">
        <ele>2469.904</ele>
        <time>2022-07-17T12:19:34Z</time>
      </trkpt>
      <trkpt lat="45.19805" lon="6.17686">
        <ele>2470.996</ele>
        <time>2022-07-17T12:19:39Z</time>
      </trkpt>
      <trkpt lat="45.19806" lon="6.17689">
        <ele>2471.382</ele>
        <time>2022-07-17T12:19:44Z</time>
      </trkpt>
      <trkpt lat="45.19807" lon="6.1769">
        <ele>2472.416</ele>
        <time>2022-07-17T12:19:49Z</time>
      </trkpt>
      <trkpt lat="45.19807" lon="6.1769">
        <ele>2471.87</ele>
        <time>2022-07-17T12:19:54Z</time>
      </trkpt>
      <trkpt lat="45.19809" lon="6.17692">
        <ele>2472.754</ele>
        <time>2022-07-17T12:19:59Z</time>
      </trkpt>
      <trkpt lat="45.19811" lon="6.17695">
        <ele>2473.802</ele>
        <time>2022-07-17T12:20:04Z</time>
      </trkpt>
      <trkpt lat="45.19821" lon="6.17711">
        <ele>2472.933</ele>
        <time>2022-07-17T12:20:09Z</time>
      </trkpt>
      <trkpt lat="45.19828" lon="6.17719">
        <ele>2472.763</ele>
        <time>2022-07-17T12:20:14Z</time>
      </trkpt>
      <trkpt lat="45.19835" lon="6.17729">
        <ele>2471.985</ele>
        <time>2022-07-17T12:20:19Z</time>
      </trkpt>
      <trkpt lat="45.19846" lon="6.17743">
        <ele>2471.741</ele>
        <time>2022-07-17T12:20:24Z</time>
      </trkpt>
      <trkpt lat="45.19854" lon="6.17753">
        <ele>2472.139</ele>
        <time>2022-07-17T12:20:29Z</time>
      </trkpt>
      <trkpt lat="45.19865" lon="6.17763">
        <ele>2471.821</ele>
        <time>2022-07-17T12:20:34Z</time>
      </trkpt>
      <trkpt lat="45.19873" lon="6.17773">
        <ele>2473.061</ele>
        <time>2022-07-17T12:20:39Z</time>
      </trkpt>
      <trkpt lat="45.1988" lon="6.17779">
        <ele>2473.591</ele>
        <time>2022-07-17T12:20:44Z</time>
      </trkpt>
      <trkpt lat="45.1989" lon="6.17786">
        <ele>2473.258</ele>
        <time>2022-07-17T12:20:49Z</time>
      </trkpt>
      <trkpt lat="45.19906" lon="6.17796">
        <ele>2469.016</ele>
        <time>2022-07-17T12:20:54Z</time>
      </trkpt>
      <trkpt lat="45.19928" lon="6.17811">
        <ele>2468.416</ele>
        <time>2022-07-17T12:20:59Z</time>
      </trkpt>
      <trkpt lat="45.19938" lon="6.1782">
        <ele>2470.316</ele>
        <time>2022-07-17T12:21:04Z</time>
      </trkpt>
      <trkpt lat="45.19947" lon="6.17826">
        <ele>2472.906</ele>
        <time>2022-07-17T12:21:09Z</time>
      </trkpt>
      <trkpt lat="45.19955" lon="6.17833">
        <ele>2475.216</ele>
        <time>2022-07-17T12:21:14Z</time>
      </trkpt>
      <trkpt lat="45.19967" lon="6.1784">
        <ele>2476.111</ele>
        <time>2022-07-17T12:21:19Z</time>
      </trkpt>
      <trkpt lat="45.19974" lon="6.17844">
        <ele>2477.381</ele>
        <time>2022-07-17T12:21:24Z</time>
      </trkpt>
      <trkpt lat="45.1998" lon="6.17847">
        <ele>2478.093</ele>
        <time>2022-07-17T12:21:29Z</time>
      </trkpt>
      <trkpt lat="45.19986" lon="6.1785">
        <ele>2478.861</ele>
        <time>2022-07-17T12:21:34Z</time>
      </trkpt>
      <trkpt lat="45.19994" lon="6.17853">
        <ele>2480.326</ele>
        <time>2022-07-17T12:21:39Z</time>
      </trkpt>
      <trkpt lat="45.19999" lon="6.17856">
        <ele>2480.96</ele>
        <time>2022-07-17T12:21:44Z</time>
      </trkpt>
      <trkpt lat="45.20007" lon="6.17864">
        <ele>2481.743</ele>
        <time>2022-07-17T12:21:49Z</time>
      </trkpt>
      <trkpt lat="45.20009" lon="6.1787">
        <ele>2480.454</ele>
        <time>2022-07-17T12:21:54Z</time>
      </trkpt>
      <trkpt lat="45.20009" lon="6.1787">
        <ele>2480.443</ele>
        <time>2022-07-17T12:21:59Z</time>
      </trkpt>
      <trkpt lat="45.20009" lon="6.1787">
        <ele>2480.431</ele>
        <time>2022-07-17T12:22:04Z</time>
      </trkpt>
      <trkpt lat="45.20012" lon="6.1787">
        <ele>2480.671</ele>
        <time>2022-07-17T12:22:09Z</time>
      </trkpt>
      <trkpt lat="45.20018" lon="6.17873">
        <ele>2481.189</ele>
        <time>2022-07-17T12:22:14Z</time>
      </trkpt>
      <trkpt lat="45.20026" lon="6.17875">
        <ele>2481.815</ele>
        <time>2022-07-17T12:22:19Z</time>
      </trkpt>
      <trkpt lat="45.20031" lon="6.17877">
        <ele>2483.058</ele>
        <time>2022-07-17T12:22:24Z</time>
      </trkpt>
      <trkpt lat="45.2004" lon="6.17882">
        <ele>2484.751</ele>
        <time>2022-07-17T12:22:29Z</time>
      </trkpt>
      <trkpt lat="45.20048" lon="6.17885">
        <ele>2485.98</ele>
        <time>2022-07-17T12:22:34Z</time>
      </trkpt>
      <trkpt lat="45.20054" lon="6.17891">
        <ele>2486.382</ele>
        <time>2022-07-17T12:22:39Z</time>
      </trkpt>
      <trkpt lat="45.20058" lon="6.17895">
        <ele>2485.904</ele>
        <time>2022-07-17T12:22:44Z</time>
      </trkpt>
      <trkpt lat="45.20058" lon="6.17895">
        <ele>2486.021</ele>
        <time>2022-07-17T12:22:49Z</time>
      </trkpt>
      <trkpt lat="45.20059" lon="6.17899">
        <ele>2483.367</ele>
        <time>2022-07-17T12:22:54Z</time>
      </trkpt>
      <trkpt lat="45.20065" lon="6.17901">
        <ele>2479.964</ele>
        <time>2022-07-17T12:22:59Z</time>
      </trkpt>
      <trkpt lat="45.20074" lon="6.17905">
        <ele>2482.552</ele>
        <time>2022-07-17T12:23:04Z</time>
      </trkpt>
      <trkpt lat="45.20083" lon="6.17906">
        <ele>2484.912</ele>
        <time>2022-07-17T12:23:09Z</time>
      </trkpt>
      <trkpt lat="45.20091" lon="6.17908">
        <ele>2487.979</ele>
        <time>2022-07-17T12:23:14Z</time>
      </trkpt>
      <trkpt lat="45.201" lon="6.17914">
        <ele>2487.843</ele>
        <time>2022-07-17T12:23:19Z</time>
      </trkpt>
      <trkpt lat="45.20108" lon="6.17917">
        <ele>2488.955</ele>
        <time>2022-07-17T12:23:24Z</time>
      </trkpt>
      <trkpt lat="45.20115" lon="6.1792">
        <ele>2489.965</ele>
        <time>2022-07-17T12:23:29Z</time>
      </trkpt>
      <trkpt lat="45.20124" lon="6.17926">
        <ele>2490.967</ele>
        <time>2022-07-17T12:23:34Z</time>
      </trkpt>
      <trkpt lat="45.20133" lon="6.1793">
        <ele>2492.174</ele>
        <time>2022-07-17T12:23:39Z</time>
      </trkpt>
      <trkpt lat="45.20141" lon="6.17935">
        <ele>2494.313</ele>
        <time>2022-07-17T12:23:44Z</time>
      </trkpt>
      <trkpt lat="45.20148" lon="6.17938">
        <ele>2495.399</ele>
        <time>2022-07-17T12:23:49Z</time>
      </trkpt>
      <trkpt lat="45.20154" lon="6.17941">
        <ele>2495.668</ele>
        <time>2022-07-17T12:23:54Z</time>
      </trkpt>
      <trkpt lat="45.20157" lon="6.17945">
        <ele>2494.683</ele>
        <time>2022-07-17T12:23:59Z</time>
      </trkpt>
      <trkpt lat="45.20161" lon="6.17945">
        <ele>2496.329</ele>
        <time>2022-07-17T12:24:04Z</time>
      </trkpt>
      <trkpt lat="45.20163" lon="6.17942">
        <ele>2497.943</ele>
        <time>2022-07-17T12:24:09Z</time>
      </trkpt>
      <trkpt lat="45.20165" lon="6.17941">
        <ele>2498.476</ele>
        <time>2022-07-17T12:24:14Z</time>
      </trkpt>
      <trkpt lat="45.20171" lon="6.17941">
        <ele>2497.7</ele>
        <time>2022-07-17T12:24:19Z</time>
      </trkpt>
      <trkpt lat="45.20174" lon="6.1794">
        <ele>2497.517</ele>
        <time>2022-07-17T12:24:24Z</time>
      </trkpt>
      <trkpt lat="45.20178" lon="6.1794">
        <ele>2498.784</ele>
        <time>2022-07-17T12:24:29Z</time>
      </trkpt>
      <trkpt lat="45.20185" lon="6.17941">
        <ele>2499.461</ele>
        <time>2022-07-17T12:24:34Z</time>
      </trkpt>
      <trkpt lat="45.20191" lon="6.17943">
        <ele>2500.057</ele>
        <time>2022-07-17T12:24:39Z</time>
      </trkpt>
      <trkpt lat="45.20198" lon="6.17944">
        <ele>2501.859</ele>
        <time>2022-07-17T12:24:44Z</time>
      </trkpt>
      <trkpt lat="45.20203" lon="6.17943">
        <ele>2502.157</ele>
        <time>2022-07-17T12:24:49Z</time>
      </trkpt>
      <trkpt lat="45.20209" lon="6.17943">
        <ele>2501.842</ele>
        <time>2022-07-17T12:24:54Z</time>
      </trkpt>
      <trkpt lat="45.20214" lon="6.17945">
        <ele>2503.253</ele>
        <time>2022-07-17T12:24:59Z</time>
      </trkpt>
      <trkpt lat="45.20221" lon="6.17948">
        <ele>2504.275</ele>
        <time>2022-07-17T12:25:04Z</time>
      </trkpt>
      <trkpt lat="45.20226" lon="6.17959">
        <ele>2503.085</ele>
        <time>2022-07-17T12:25:09Z</time>
      </trkpt>
      <trkpt lat="45.20231" lon="6.17953">
        <ele>2505.152</ele>
        <time>2022-07-17T12:25:14Z</time>
      </trkpt>
      <trkpt lat="45.20237" lon="6.1795">
        <ele>2506.038</ele>
        <time>2022-07-17T12:25:19Z</time>
      </trkpt>
      <trkpt lat="45.20247" lon="6.17948">
        <ele>2504.691</ele>
        <time>2022-07-17T12:25:24Z</time>
      </trkpt>
      <trkpt lat="45.20258" lon="6.17948">
        <ele>2506.509</ele>
        <time>2022-07-17T12:25:29Z</time>
      </trkpt>
      <trkpt lat="45.20265" lon="6.17946">
        <ele>2508.849</ele>
        <time>2022-07-17T12:25:34Z</time>
      </trkpt>
      <trkpt lat="45.20268" lon="6.17947">
        <ele>2509.347</ele>
        <time>2022-07-17T12:25:39Z</time>
      </trkpt>
      <trkpt lat="45.20272" lon="6.17946">
        <ele>2510.576</ele>
        <time>2022-07-17T12:25:44Z</time>
      </trkpt>
      <trkpt lat="45.20274" lon="6.17947">
        <ele>2510.955</ele>
        <time>2022-07-17T12:25:49Z</time>
      </trkpt>
      <trkpt lat="45.20275" lon="6.17947">
        <ele>2510.855</ele>
        <time>2022-07-17T12:25:54Z</time>
      </trkpt>
      <trkpt lat="45.20282" lon="6.17947">
        <ele>2511.508</ele>
        <time>2022-07-17T12:25:59Z</time>
      </trkpt>
      <trkpt lat="45.20288" lon="6.17946">
        <ele>2512.725</ele>
        <time>2022-07-17T12:26:04Z</time>
      </trkpt>
      <trkpt lat="45.20295" lon="6.17946">
        <ele>2513.258</ele>
        <time>2022-07-17T12:26:09Z</time>
      </trkpt>
      <trkpt lat="45.20301" lon="6.17947">
        <ele>2513.474</ele>
        <time>2022-07-17T12:26:14Z</time>
      </trkpt>
      <trkpt lat="45.20308" lon="6.17948">
        <ele>2514.748</ele>
        <time>2022-07-17T12:26:19Z</time>
      </trkpt>
      <trkpt lat="45.20315" lon="6.17951">
        <ele>2516.325</ele>
        <time>2022-07-17T12:26:24Z</time>
      </trkpt>
      <trkpt lat="45.20322" lon="6.17952">
        <ele>2517.942</ele>
        <time>2022-07-17T12:26:29Z</time>
      </trkpt>
      <trkpt lat="45.20329" lon="6.17956">
        <ele>2519.128</ele>
        <time>2022-07-17T12:26:34Z</time>
      </trkpt>
      <trkpt lat="45.20337" lon="6.17958">
        <ele>2519.37</ele>
        <time>2022-07-17T12:26:39Z</time>
      </trkpt>
      <trkpt lat="45.20353" lon="6.17963">
        <ele>2517.952</ele>
        <time>2022-07-17T12:26:44Z</time>
      </trkpt>
      <trkpt lat="45.2036" lon="6.17972">
        <ele>2521.541</ele>
        <time>2022-07-17T12:26:49Z</time>
      </trkpt>
      <trkpt lat="45.20369" lon="6.17976">
        <ele>2522.075</ele>
        <time>2022-07-17T12:26:54Z</time>
      </trkpt>
      <trkpt lat="45.20377" lon="6.17981">
        <ele>2523.507</ele>
        <time>2022-07-17T12:26:59Z</time>
      </trkpt>
      <trkpt lat="45.20383" lon="6.17984">
        <ele>2524.157</ele>
        <time>2022-07-17T12:27:04Z</time>
      </trkpt>
      <trkpt lat="45.2039" lon="6.17991">
        <ele>2525.297</ele>
        <time>2022-07-17T12:27:09Z</time>
      </trkpt>
      <trkpt lat="45.20394" lon="6.17995">
        <ele>2526.187</ele>
        <time>2022-07-17T12:27:14Z</time>
      </trkpt>
      <trkpt lat="45.20395" lon="6.17998">
        <ele>2526.337</ele>
        <time>2022-07-17T12:27:19Z</time>
      </trkpt>
      <trkpt lat="45.20397" lon="6.17997">
        <ele>2527.478</ele>
        <time>2022-07-17T12:27:24Z</time>
      </trkpt>
      <trkpt lat="45.20399" lon="6.17999">
        <ele>2527.529</ele>
        <time>2022-07-17T12:27:29Z</time>
      </trkpt>
      <trkpt lat="45.20401" lon="6.18">
        <ele>2527.028</ele>
        <time>2022-07-17T12:27:34Z</time>
      </trkpt>
      <trkpt lat="45.20405" lon="6.18002">
        <ele>2528.224</ele>
        <time>2022-07-17T12:27:39Z</time>
      </trkpt>
      <trkpt lat="45.20411" lon="6.18002">
        <ele>2530.275</ele>
        <time>2022-07-17T12:27:44Z</time>
      </trkpt>
      <trkpt lat="45.20417" lon="6.18001">
        <ele>2530.741</ele>
        <time>2022-07-17T12:27:49Z</time>
      </trkpt>
      <trkpt lat="45.20423" lon="6.18002">
        <ele>2531.881</ele>
        <time>2022-07-17T12:27:54Z</time>
      </trkpt>
      <trkpt lat="45.20429" lon="6.18008">
        <ele>2531.559</ele>
        <time>2022-07-17T12:27:59Z</time>
      </trkpt>
      <trkpt lat="45.20435" lon="6.18011">
        <ele>2531.765</ele>
        <time>2022-07-17T12:28:04Z</time>
      </trkpt>
      <trkpt lat="45.20442" lon="6.18015">
        <ele>2532.375</ele>
        <time>2022-07-17T12:28:09Z</time>
      </trkpt>
      <trkpt lat="45.20451" lon="6.18018">
        <ele>2532.649</ele>
        <time>2022-07-17T12:28:14Z</time>
      </trkpt>
      <trkpt lat="45.20459" lon="6.18024">
        <ele>2534.166</ele>
        <time>2022-07-17T12:28:19Z</time>
      </trkpt>
      <trkpt lat="45.20464" lon="6.1803">
        <ele>2534.609</ele>
        <time>2022-07-17T12:28:24Z</time>
      </trkpt>
      <trkpt lat="45.20472" lon="6.18034">
        <ele>2535.965</ele>
        <time>2022-07-17T12:28:29Z</time>
      </trkpt>
      <trkpt lat="45.20476" lon="6.18039">
        <ele>2535.509</ele>
        <time>2022-07-17T12:28:34Z</time>
      </trkpt>
      <trkpt lat="45.20483" lon="6.18048">
        <ele>2535.466</ele>
        <time>2022-07-17T12:28:39Z</time>
      </trkpt>
      <trkpt lat="45.20487" lon="6.18054">
        <ele>2535.679</ele>
        <time>2022-07-17T12:28:44Z</time>
      </trkpt>
      <trkpt lat="45.20493" lon="6.18058">
        <ele>2534.905</ele>
        <time>2022-07-17T12:28:49Z</time>
      </trkpt>
      <trkpt lat="45.20497" lon="6.18069">
        <ele>2534.816</ele>
        <time>2022-07-17T12:28:54Z</time>
      </trkpt>
      <trkpt lat="45.20501" lon="6.18073">
        <ele>2534.41</ele>
        <time>2022-07-17T12:28:59Z</time>
      </trkpt>
      <trkpt lat="45.20503" lon="6.18074">
        <ele>2534.022</ele>
        <time>2022-07-17T12:29:04Z</time>
      </trkpt>
      <trkpt lat="45.20506" lon="6.18075">
        <ele>2534.535</ele>
        <time>2022-07-17T12:29:09Z</time>
      </trkpt>
      <trkpt lat="45.20504" lon="6.1808">
        <ele>2536.322</ele>
        <time>2022-07-17T12:29:14Z</time>
      </trkpt>
      <trkpt lat="45.20505" lon="6.1808">
        <ele>2536.324</ele>
        <time>2022-07-17T12:29:19Z</time>
      </trkpt>
      <trkpt lat="45.20505" lon="6.1808">
        <ele>2536.333</ele>
        <time>2022-07-17T12:29:24Z</time>
      </trkpt>
      <trkpt lat="45.20505" lon="6.1808">
        <ele>2536.357</ele>
        <time>2022-07-17T12:29:29Z</time>
      </trkpt>
      <trkpt lat="45.20505" lon="6.1808">
        <ele>2536.388</ele>
        <time>2022-07-17T12:29:34Z</time>
      </trkpt>
      <trkpt lat="45.20505" lon="6.1808">
        <ele>2536.404</ele>
        <time>2022-07-17T12:29:39Z</time>
      </trkpt>
      <trkpt lat="45.20505" lon="6.1808">
        <ele>2536.401</ele>
        <time>2022-07-17T12:29:44Z</time>
      </trkpt>
      <trkpt lat="45.20505" lon="6.1808">
        <ele>2536.404</ele>
        <time>2022-07-17T12:29:49Z</time>
      </trkpt>
      <trkpt lat="45.20505" lon="6.18075">
        <ele>2536.231</ele>
        <time>2022-07-17T12:29:54Z</time>
      </trkpt>
      <trkpt lat="45.20505" lon="6.18075">
        <ele>2536.85</ele>
        <time>2022-07-17T12:29:59Z</time>
      </trkpt>
      <trkpt lat="45.20505" lon="6.18075">
        <ele>2536.869</ele>
        <time>2022-07-17T12:30:04Z</time>
      </trkpt>
      <trkpt lat="45.20505" lon="6.18075">
        <ele>2536.875</ele>
        <time>2022-07-17T12:30:09Z</time>
      </trkpt>
      <trkpt lat="45.20505" lon="6.18075">
        <ele>2536.88</ele>
        <time>2022-07-17T12:30:14Z</time>
      </trkpt>
      <trkpt lat="45.20505" lon="6.18075">
        <ele>2536.866</ele>
        <time>2022-07-17T12:30:19Z</time>
      </trkpt>
      <trkpt lat="45.20505" lon="6.18075">
        <ele>2537.012</ele>
        <time>2022-07-17T12:30:24Z</time>
      </trkpt>
      <trkpt lat="45.20505" lon="6.18075">
        <ele>2537.011</ele>
        <time>2022-07-17T12:30:29Z</time>
      </trkpt>
      <trkpt lat="45.20505" lon="6.18075">
        <ele>2537</ele>
        <time>2022-07-17T12:30:34Z</time>
      </trkpt>
      <trkpt lat="45.20505" lon="6.18075">
        <ele>2536.981</ele>
        <time>2022-07-17T12:30:39Z</time>
      </trkpt>
      <trkpt lat="45.20505" lon="6.18075">
        <ele>2536.966</ele>
        <time>2022-07-17T12:30:44Z</time>
      </trkpt>
      <trkpt lat="45.20505" lon="6.18075">
        <ele>2536.965</ele>
        <time>2022-07-17T12:30:49Z</time>
      </trkpt>
      <trkpt lat="45.20505" lon="6.18075">
        <ele>2536.959</ele>
        <time>2022-07-17T12:30:54Z</time>
      </trkpt>
      <trkpt lat="45.20505" lon="6.18075">
        <ele>2536.949</ele>
        <time>2022-07-17T12:30:59Z</time>
      </trkpt>
      <trkpt lat="45.20505" lon="6.18075">
        <ele>2536.94</ele>
        <time>2022-07-17T12:31:04Z</time>
      </trkpt>
      <trkpt lat="45.20505" lon="6.18075">
        <ele>2536.928</ele>
        <time>2022-07-17T12:31:09Z</time>
      </trkpt>
      <trkpt lat="45.20505" lon="6.18075">
        <ele>2536.917</ele>
        <time>2022-07-17T12:31:14Z</time>
      </trkpt>
      <trkpt lat="45.20505" lon="6.18075">
        <ele>2536.917</ele>
        <time>2022-07-17T12:31:19Z</time>
      </trkpt>
      <trkpt lat="45.20505" lon="6.18075">
        <ele>2536.902</ele>
        <time>2022-07-17T12:31:24Z</time>
      </trkpt>
      <trkpt lat="45.20505" lon="6.18075">
        <ele>2536.889</ele>
        <time>2022-07-17T12:31:29Z</time>
      </trkpt>
      <trkpt lat="45.20505" lon="6.18075">
        <ele>2536.889</ele>
        <time>2022-07-17T12:31:34Z</time>
      </trkpt>
      <trkpt lat="45.20505" lon="6.18075">
        <ele>2536.888</ele>
        <time>2022-07-17T12:31:39Z</time>
      </trkpt>
      <trkpt lat="45.20505" lon="6.18075">
        <ele>2536.674</ele>
        <time>2022-07-17T12:31:44Z</time>
      </trkpt>
      <trkpt lat="45.20505" lon="6.18075">
        <ele>2536.836</ele>
        <time>2022-07-17T12:31:49Z</time>
      </trkpt>
      <trkpt lat="45.20505" lon="6.18075">
        <ele>2536.834</ele>
        <time>2022-07-17T12:31:54Z</time>
      </trkpt>
      <trkpt lat="45.20505" lon="6.18075">
        <ele>2536.827</ele>
        <time>2022-07-17T12:31:59Z</time>
      </trkpt>
      <trkpt lat="45.20505" lon="6.18075">
        <ele>2536.82</ele>
        <time>2022-07-17T12:32:04Z</time>
      </trkpt>
      <trkpt lat="45.20505" lon="6.18075">
        <ele>2536.811</ele>
        <time>2022-07-17T12:32:09Z</time>
      </trkpt>
      <trkpt lat="45.20505" lon="6.18075">
        <ele>2536.809</ele>
        <time>2022-07-17T12:32:14Z</time>
      </trkpt>
      <trkpt lat="45.20505" lon="6.18075">
        <ele>2536.801</ele>
        <time>2022-07-17T12:32:19Z</time>
      </trkpt>
      <trkpt lat="45.20505" lon="6.18075">
        <ele>2536.795</ele>
        <time>2022-07-17T12:32:24Z</time>
      </trkpt>
      <trkpt lat="45.20505" lon="6.18075">
        <ele>2536.787</ele>
        <time>2022-07-17T12:32:29Z</time>
      </trkpt>
      <trkpt lat="45.20505" lon="6.18075">
        <ele>2536.786</ele>
        <time>2022-07-17T12:32:34Z</time>
      </trkpt>
      <trkpt lat="45.20505" lon="6.18075">
        <ele>2536.785</ele>
        <time>2022-07-17T12:32:39Z</time>
      </trkpt>
      <trkpt lat="45.20505" lon="6.18075">
        <ele>2536.787</ele>
        <time>2022-07-17T12:32:44Z</time>
      </trkpt>
      <trkpt lat="45.20505" lon="6.18075">
        <ele>2536.783</ele>
        <time>2022-07-17T12:32:49Z</time>
      </trkpt>
      <trkpt lat="45.20505" lon="6.18075">
        <ele>2536.785</ele>
        <time>2022-07-17T12:32:54Z</time>
      </trkpt>
      <trkpt lat="45.20505" lon="6.18075">
        <ele>2536.783</ele>
        <time>2022-07-17T12:32:59Z</time>
      </trkpt>
      <trkpt lat="45.20505" lon="6.18075">
        <ele>2536.781</ele>
        <time>2022-07-17T12:33:04Z</time>
      </trkpt>
      <trkpt lat="45.20505" lon="6.18075">
        <ele>2536.775</ele>
        <time>2022-07-17T12:33:09Z</time>
      </trkpt>
      <trkpt lat="45.20505" lon="6.18075">
        <ele>2536.774</ele>
        <time>2022-07-17T12:33:14Z</time>
      </trkpt>
      <trkpt lat="45.20505" lon="6.18075">
        <ele>2536.77</ele>
        <time>2022-07-17T12:33:19Z</time>
      </trkpt>
      <trkpt lat="45.20505" lon="6.18075">
        <ele>2536.767</ele>
        <time>2022-07-17T12:33:24Z</time>
      </trkpt>
      <trkpt lat="45.20505" lon="6.18075">
        <ele>2536.766</ele>
        <time>2022-07-17T12:33:29Z</time>
      </trkpt>
      <trkpt lat="45.20505" lon="6.18075">
        <ele>2536.765</ele>
        <time>2022-07-17T12:33:34Z</time>
      </trkpt>
      <trkpt lat="45.20505" lon="6.18075">
        <ele>2536.76</ele>
        <time>2022-07-17T12:33:39Z</time>
      </trkpt>
      <trkpt lat="45.20505" lon="6.18075">
        <ele>2536.763</ele>
        <time>2022-07-17T12:33:44Z</time>
      </trkpt>
      <trkpt lat="45.20505" lon="6.18075">
        <ele>2536.754</ele>
        <time>2022-07-17T12:33:49Z</time>
      </trkpt>
      <trkpt lat="45.20505" lon="6.18075">
        <ele>2536.754</ele>
        <time>2022-07-17T12:33:54Z</time>
      </trkpt>
      <trkpt lat="45.20505" lon="6.18075">
        <ele>2536.757</ele>
        <time>2022-07-17T12:33:59Z</time>
      </trkpt>
      <trkpt lat="45.20505" lon="6.18075">
        <ele>2536.757</ele>
        <time>2022-07-17T12:34:04Z</time>
      </trkpt>
      <trkpt lat="45.20505" lon="6.18075">
        <ele>2536.759</ele>
        <time>2022-07-17T12:34:09Z</time>
      </trkpt>
      <trkpt lat="45.20505" lon="6.18075">
        <ele>2536.761</ele>
        <time>2022-07-17T12:34:14Z</time>
      </trkpt>
      <trkpt lat="45.20505" lon="6.18075">
        <ele>2536.763</ele>
        <time>2022-07-17T12:34:19Z</time>
      </trkpt>
      <trkpt lat="45.20505" lon="6.18075">
        <ele>2536.755</ele>
        <time>2022-07-17T12:34:24Z</time>
      </trkpt>
      <trkpt lat="45.20505" lon="6.18075">
        <ele>2536.759</ele>
        <time>2022-07-17T12:34:29Z</time>
      </trkpt>
      <trkpt lat="45.20505" lon="6.18075">
        <ele>2536.758</ele>
        <time>2022-07-17T12:34:34Z</time>
      </trkpt>
      <trkpt lat="45.20505" lon="6.18075">
        <ele>2536.753</ele>
        <time>2022-07-17T12:34:39Z</time>
      </trkpt>
      <trkpt lat="45.20505" lon="6.18075">
        <ele>2536.752</ele>
        <time>2022-07-17T12:34:44Z</time>
      </trkpt>
      <trkpt lat="45.20505" lon="6.18075">
        <ele>2536.746</ele>
        <time>2022-07-17T12:34:49Z</time>
      </trkpt>
      <trkpt lat="45.20505" lon="6.18075">
        <ele>2536.743</ele>
        <time>2022-07-17T12:34:54Z</time>
      </trkpt>
      <trkpt lat="45.20505" lon="6.18075">
        <ele>2536.744</ele>
        <time>2022-07-17T12:34:59Z</time>
      </trkpt>
      <trkpt lat="45.20505" lon="6.18075">
        <ele>2536.742</ele>
        <time>2022-07-17T12:35:04Z</time>
      </trkpt>
      <trkpt lat="45.20505" lon="6.18075">
        <ele>2536.739</ele>
        <time>2022-07-17T12:35:09Z</time>
      </trkpt>
      <trkpt lat="45.20505" lon="6.18075">
        <ele>2536.738</ele>
        <time>2022-07-17T12:35:14Z</time>
      </trkpt>
      <trkpt lat="45.20505" lon="6.18075">
        <ele>2536.734</ele>
        <time>2022-07-17T12:35:19Z</time>
      </trkpt>
      <trkpt lat="45.20505" lon="6.18075">
        <ele>2536.729</ele>
        <time>2022-07-17T12:35:24Z</time>
      </trkpt>
      <trkpt lat="45.20505" lon="6.18075">
        <ele>2536.732</ele>
        <time>2022-07-17T12:35:29Z</time>
      </trkpt>
      <trkpt lat="45.20505" lon="6.18075">
        <ele>2536.731</ele>
        <time>2022-07-17T12:35:34Z</time>
      </trkpt>
      <trkpt lat="45.20505" lon="6.18075">
        <ele>2536.729</ele>
        <time>2022-07-17T12:35:39Z</time>
      </trkpt>
      <trkpt lat="45.20505" lon="6.18075">
        <ele>2536.721</ele>
        <time>2022-07-17T12:35:44Z</time>
      </trkpt>
      <trkpt lat="45.20505" lon="6.18075">
        <ele>2536.72</ele>
        <time>2022-07-17T12:35:49Z</time>
      </trkpt>
      <trkpt lat="45.20505" lon="6.18075">
        <ele>2536.724</ele>
        <time>2022-07-17T12:35:54Z</time>
      </trkpt>
      <trkpt lat="45.20505" lon="6.18075">
        <ele>2536.721</ele>
        <time>2022-07-17T12:35:59Z</time>
      </trkpt>
      <trkpt lat="45.20505" lon="6.18075">
        <ele>2536.721</ele>
        <time>2022-07-17T12:36:04Z</time>
      </trkpt>
      <trkpt lat="45.20505" lon="6.18075">
        <ele>2536.719</ele>
        <time>2022-07-17T12:36:09Z</time>
      </trkpt>
      <trkpt lat="45.20505" lon="6.18075">
        <ele>2536.717</ele>
        <time>2022-07-17T12:36:14Z</time>
      </trkpt>
      <trkpt lat="45.20505" lon="6.18075">
        <ele>2536.713</ele>
        <time>2022-07-17T12:36:19Z</time>
      </trkpt>
      <trkpt lat="45.20505" lon="6.18075">
        <ele>2536.71</ele>
        <time>2022-07-17T12:36:24Z</time>
      </trkpt>
      <trkpt lat="45.20505" lon="6.18075">
        <ele>2536.715</ele>
        <time>2022-07-17T12:36:29Z</time>
      </trkpt>
      <trkpt lat="45.20505" lon="6.18075">
        <ele>2536.71</ele>
        <time>2022-07-17T12:36:34Z</time>
      </trkpt>
      <trkpt lat="45.20505" lon="6.18075">
        <ele>2536.713</ele>
        <time>2022-07-17T12:36:39Z</time>
      </trkpt>
      <trkpt lat="45.20505" lon="6.18074">
        <ele>2536.867</ele>
        <time>2022-07-17T12:36:44Z</time>
      </trkpt>
      <trkpt lat="45.20505" lon="6.18074">
        <ele>2537.513</ele>
        <time>2022-07-17T12:36:49Z</time>
      </trkpt>
      <trkpt lat="45.20505" lon="6.18075">
        <ele>2537.546</ele>
        <time>2022-07-17T12:36:54Z</time>
      </trkpt>
      <trkpt lat="45.20505" lon="6.18075">
        <ele>2537.563</ele>
        <time>2022-07-17T12:36:59Z</time>
      </trkpt>
      <trkpt lat="45.20505" lon="6.18075">
        <ele>2537.571</ele>
        <time>2022-07-17T12:37:04Z</time>
      </trkpt>
      <trkpt lat="45.20505" lon="6.18075">
        <ele>2537.066</ele>
        <time>2022-07-17T12:37:09Z</time>
      </trkpt>
      <trkpt lat="45.20505" lon="6.18074">
        <ele>2536.923</ele>
        <time>2022-07-17T12:37:14Z</time>
      </trkpt>
      <trkpt lat="45.20505" lon="6.18074">
        <ele>2536.923</ele>
        <time>2022-07-17T12:37:19Z</time>
      </trkpt>
      <trkpt lat="45.20505" lon="6.18074">
        <ele>2536.921</ele>
        <time>2022-07-17T12:37:24Z</time>
      </trkpt>
      <trkpt lat="45.20505" lon="6.18074">
        <ele>2536.923</ele>
        <time>2022-07-17T12:37:29Z</time>
      </trkpt>
      <trkpt lat="45.20505" lon="6.18074">
        <ele>2536.929</ele>
        <time>2022-07-17T12:37:34Z</time>
      </trkpt>
      <trkpt lat="45.20505" lon="6.18074">
        <ele>2536.935</ele>
        <time>2022-07-17T12:37:39Z</time>
      </trkpt>
      <trkpt lat="45.20505" lon="6.18073">
        <ele>2536.974</ele>
        <time>2022-07-17T12:37:44Z</time>
      </trkpt>
      <trkpt lat="45.20502" lon="6.18071">
        <ele>2535.269</ele>
        <time>2022-07-17T12:37:49Z</time>
      </trkpt>
      <trkpt lat="45.20501" lon="6.18071">
        <ele>2534.759</ele>
        <time>2022-07-17T12:37:54Z</time>
      </trkpt>
      <trkpt lat="45.20501" lon="6.18071">
        <ele>2534.899</ele>
        <time>2022-07-17T12:37:59Z</time>
      </trkpt>
      <trkpt lat="45.20501" lon="6.18071">
        <ele>2534.89</ele>
        <time>2022-07-17T12:38:04Z</time>
      </trkpt>
      <trkpt lat="45.20501" lon="6.18071">
        <ele>2534.88</ele>
        <time>2022-07-17T12:38:09Z</time>
      </trkpt>
      <trkpt lat="45.20501" lon="6.18071">
        <ele>2534.791</ele>
        <time>2022-07-17T12:38:14Z</time>
      </trkpt>
      <trkpt lat="45.20501" lon="6.18071">
        <ele>2534.776</ele>
        <time>2022-07-17T12:38:19Z</time>
      </trkpt>
      <trkpt lat="45.20501" lon="6.18071">
        <ele>2534.764</ele>
        <time>2022-07-17T12:38:24Z</time>
      </trkpt>
      <trkpt lat="45.20501" lon="6.18071">
        <ele>2534.754</ele>
        <time>2022-07-17T12:38:29Z</time>
      </trkpt>
      <trkpt lat="45.20501" lon="6.18074">
        <ele>2534.413</ele>
        <time>2022-07-17T12:38:34Z</time>
      </trkpt>
      <trkpt lat="45.20502" lon="6.18089">
        <ele>2533.38</ele>
        <time>2022-07-17T12:38:39Z</time>
      </trkpt>
      <trkpt lat="45.20499" lon="6.18104">
        <ele>2530.792</ele>
        <time>2022-07-17T12:38:44Z</time>
      </trkpt>
      <trkpt lat="45.205" lon="6.18123">
        <ele>2530.335</ele>
        <time>2022-07-17T12:38:49Z</time>
      </trkpt>
      <trkpt lat="45.20495" lon="6.18135">
        <ele>2530.061</ele>
        <time>2022-07-17T12:38:54Z</time>
      </trkpt>
      <trkpt lat="45.20491" lon="6.18146">
        <ele>2527.59</ele>
        <time>2022-07-17T12:38:59Z</time>
      </trkpt>
      <trkpt lat="45.20488" lon="6.18162">
        <ele>2525.24</ele>
        <time>2022-07-17T12:39:04Z</time>
      </trkpt>
      <trkpt lat="45.20487" lon="6.18175">
        <ele>2522.41</ele>
        <time>2022-07-17T12:39:09Z</time>
      </trkpt>
      <trkpt lat="45.20486" lon="6.18187">
        <ele>2520.284</ele>
        <time>2022-07-17T12:39:14Z</time>
      </trkpt>
      <trkpt lat="45.20485" lon="6.18195">
        <ele>2518.122</ele>
        <time>2022-07-17T12:39:19Z</time>
      </trkpt>
      <trkpt lat="45.20487" lon="6.18203">
        <ele>2517.211</ele>
        <time>2022-07-17T12:39:24Z</time>
      </trkpt>
      <trkpt lat="45.20487" lon="6.18202">
        <ele>2517.19</ele>
        <time>2022-07-17T12:39:29Z</time>
      </trkpt>
      <trkpt lat="45.20487" lon="6.18203">
        <ele>2517.059</ele>
        <time>2022-07-17T12:39:34Z</time>
      </trkpt>
      <trkpt lat="45.20487" lon="6.18203">
        <ele>2516.615</ele>
        <time>2022-07-17T12:39:39Z</time>
      </trkpt>
      <trkpt lat="45.20486" lon="6.18214">
        <ele>2514.166</ele>
        <time>2022-07-17T12:39:44Z</time>
      </trkpt>
      <trkpt lat="45.20484" lon="6.18229">
        <ele>2509.651</ele>
        <time>2022-07-17T12:39:49Z</time>
      </trkpt>
      <trkpt lat="45.20482" lon="6.18241">
        <ele>2501.956</ele>
        <time>2022-07-17T12:39:54Z</time>
      </trkpt>
      <trkpt lat="45.20485" lon="6.18259">
        <ele>2496.584</ele>
        <time>2022-07-17T12:39:59Z</time>
      </trkpt>
      <trkpt lat="45.20483" lon="6.18282">
        <ele>2494.841</ele>
        <time>2022-07-17T12:40:04Z</time>
      </trkpt>
      <trkpt lat="45.20485" lon="6.18292">
        <ele>2493.763</ele>
        <time>2022-07-17T12:40:09Z</time>
      </trkpt>
      <trkpt lat="45.20484" lon="6.18298">
        <ele>2490.355</ele>
        <time>2022-07-17T12:40:14Z</time>
      </trkpt>
      <trkpt lat="45.20484" lon="6.18301">
        <ele>2490.149</ele>
        <time>2022-07-17T12:40:19Z</time>
      </trkpt>
      <trkpt lat="45.20483" lon="6.18309">
        <ele>2487.755</ele>
        <time>2022-07-17T12:40:24Z</time>
      </trkpt>
      <trkpt lat="45.20479" lon="6.18324">
        <ele>2487.619</ele>
        <time>2022-07-17T12:40:29Z</time>
      </trkpt>
      <trkpt lat="45.20474" lon="6.18345">
        <ele>2483.711</ele>
        <time>2022-07-17T12:40:34Z</time>
      </trkpt>
      <trkpt lat="45.20469" lon="6.18357">
        <ele>2480.303</ele>
        <time>2022-07-17T12:40:39Z</time>
      </trkpt>
      <trkpt lat="45.20462" lon="6.18374">
        <ele>2478.113</ele>
        <time>2022-07-17T12:40:44Z</time>
      </trkpt>
      <trkpt lat="45.20456" lon="6.18389">
        <ele>2476.039</ele>
        <time>2022-07-17T12:40:49Z</time>
      </trkpt>
      <trkpt lat="45.20444" lon="6.18415">
        <ele>2472.164</ele>
        <time>2022-07-17T12:40:54Z</time>
      </trkpt>
      <trkpt lat="45.20428" lon="6.18432">
        <ele>2468.193</ele>
        <time>2022-07-17T12:40:59Z</time>
      </trkpt>
      <trkpt lat="45.20421" lon="6.18446">
        <ele>2465.791</ele>
        <time>2022-07-17T12:41:04Z</time>
      </trkpt>
      <trkpt lat="45.20417" lon="6.18462">
        <ele>2463.615</ele>
        <time>2022-07-17T12:41:09Z</time>
      </trkpt>
      <trkpt lat="45.20417" lon="6.18463">
        <ele>2463.125</ele>
        <time>2022-07-17T12:41:14Z</time>
      </trkpt>
      <trkpt lat="45.20417" lon="6.18463">
        <ele>2463.079</ele>
        <time>2022-07-17T12:41:19Z</time>
      </trkpt>
      <trkpt lat="45.20417" lon="6.18463">
        <ele>2463.155</ele>
        <time>2022-07-17T12:41:24Z</time>
      </trkpt>
      <trkpt lat="45.20416" lon="6.18465">
        <ele>2463.098</ele>
        <time>2022-07-17T12:41:29Z</time>
      </trkpt>
      <trkpt lat="45.20415" lon="6.18474">
        <ele>2461.657</ele>
        <time>2022-07-17T12:41:34Z</time>
      </trkpt>
      <trkpt lat="45.20413" lon="6.18478">
        <ele>2460.962</ele>
        <time>2022-07-17T12:41:39Z</time>
      </trkpt>
      <trkpt lat="45.20413" lon="6.1848">
        <ele>2460.63</ele>
        <time>2022-07-17T12:41:44Z</time>
      </trkpt>
      <trkpt lat="45.20413" lon="6.1848">
        <ele>2460.551</ele>
        <time>2022-07-17T12:41:49Z</time>
      </trkpt>
      <trkpt lat="45.20412" lon="6.18481">
        <ele>2460.197</ele>
        <time>2022-07-17T12:41:54Z</time>
      </trkpt>
      <trkpt lat="45.2041" lon="6.18486">
        <ele>2458.873</ele>
        <time>2022-07-17T12:41:59Z</time>
      </trkpt>
      <trkpt lat="45.20407" lon="6.18493">
        <ele>2456.635</ele>
        <time>2022-07-17T12:42:04Z</time>
      </trkpt>
      <trkpt lat="45.20406" lon="6.18498">
        <ele>2455.138</ele>
        <time>2022-07-17T12:42:09Z</time>
      </trkpt>
      <trkpt lat="45.20402" lon="6.18507">
        <ele>2452.163</ele>
        <time>2022-07-17T12:42:14Z</time>
      </trkpt>
      <trkpt lat="45.204" lon="6.18524">
        <ele>2447.25</ele>
        <time>2022-07-17T12:42:19Z</time>
      </trkpt>
      <trkpt lat="45.204" lon="6.18527">
        <ele>2447.285</ele>
        <time>2022-07-17T12:42:24Z</time>
      </trkpt>
      <trkpt lat="45.204" lon="6.18527">
        <ele>2446.501</ele>
        <time>2022-07-17T12:42:29Z</time>
      </trkpt>
      <trkpt lat="45.20401" lon="6.18541">
        <ele>2443.248</ele>
        <time>2022-07-17T12:42:34Z</time>
      </trkpt>
      <trkpt lat="45.20402" lon="6.18543">
        <ele>2442.599</ele>
        <time>2022-07-17T12:42:39Z</time>
      </trkpt>
      <trkpt lat="45.20402" lon="6.18543">
        <ele>2442.578</ele>
        <time>2022-07-17T12:42:44Z</time>
      </trkpt>
      <trkpt lat="45.20402" lon="6.18544">
        <ele>2442.361</ele>
        <time>2022-07-17T12:42:49Z</time>
      </trkpt>
      <trkpt lat="45.20403" lon="6.18547">
        <ele>2440.594</ele>
        <time>2022-07-17T12:42:54Z</time>
      </trkpt>
      <trkpt lat="45.20403" lon="6.18549">
        <ele>2440.998</ele>
        <time>2022-07-17T12:42:59Z</time>
      </trkpt>
      <trkpt lat="45.20403" lon="6.18551">
        <ele>2440.715</ele>
        <time>2022-07-17T12:43:04Z</time>
      </trkpt>
      <trkpt lat="45.20402" lon="6.18551">
        <ele>2440.506</ele>
        <time>2022-07-17T12:43:09Z</time>
      </trkpt>
      <trkpt lat="45.20402" lon="6.18557">
        <ele>2439.497</ele>
        <time>2022-07-17T12:43:14Z</time>
      </trkpt>
      <trkpt lat="45.20403" lon="6.18563">
        <ele>2437.863</ele>
        <time>2022-07-17T12:43:19Z</time>
      </trkpt>
      <trkpt lat="45.204" lon="6.18564">
        <ele>2437.759</ele>
        <time>2022-07-17T12:43:24Z</time>
      </trkpt>
      <trkpt lat="45.20399" lon="6.18562">
        <ele>2436.958</ele>
        <time>2022-07-17T12:43:29Z</time>
      </trkpt>
      <trkpt lat="45.20397" lon="6.18563">
        <ele>2436.537</ele>
        <time>2022-07-17T12:43:34Z</time>
      </trkpt>
      <trkpt lat="45.20393" lon="6.18563">
        <ele>2435.592</ele>
        <time>2022-07-17T12:43:39Z</time>
      </trkpt>
      <trkpt lat="45.20394" lon="6.18564">
        <ele>2436.663</ele>
        <time>2022-07-17T12:43:44Z</time>
      </trkpt>
      <trkpt lat="45.20389" lon="6.18562">
        <ele>2435.011</ele>
        <time>2022-07-17T12:43:49Z</time>
      </trkpt>
      <trkpt lat="45.20385" lon="6.18559">
        <ele>2433.192</ele>
        <time>2022-07-17T12:43:54Z</time>
      </trkpt>
      <trkpt lat="45.20384" lon="6.18569">
        <ele>2430.948</ele>
        <time>2022-07-17T12:43:59Z</time>
      </trkpt>
      <trkpt lat="45.20383" lon="6.18575">
        <ele>2429.459</ele>
        <time>2022-07-17T12:44:04Z</time>
      </trkpt>
      <trkpt lat="45.20383" lon="6.18576">
        <ele>2429.41</ele>
        <time>2022-07-17T12:44:09Z</time>
      </trkpt>
      <trkpt lat="45.20383" lon="6.18576">
        <ele>2429.082</ele>
        <time>2022-07-17T12:44:14Z</time>
      </trkpt>
      <trkpt lat="45.20383" lon="6.18576">
        <ele>2429.049</ele>
        <time>2022-07-17T12:44:19Z</time>
      </trkpt>
      <trkpt lat="45.20383" lon="6.18576">
        <ele>2429.04</ele>
        <time>2022-07-17T12:44:24Z</time>
      </trkpt>
      <trkpt lat="45.20383" lon="6.18576">
        <ele>2429.033</ele>
        <time>2022-07-17T12:44:29Z</time>
      </trkpt>
      <trkpt lat="45.20383" lon="6.18576">
        <ele>2429.019</ele>
        <time>2022-07-17T12:44:34Z</time>
      </trkpt>
      <trkpt lat="45.20383" lon="6.18576">
        <ele>2429.007</ele>
        <time>2022-07-17T12:44:39Z</time>
      </trkpt>
      <trkpt lat="45.20383" lon="6.18576">
        <ele>2429.01</ele>
        <time>2022-07-17T12:44:44Z</time>
      </trkpt>
      <trkpt lat="45.20385" lon="6.18579">
        <ele>2427.542</ele>
        <time>2022-07-17T12:44:49Z</time>
      </trkpt>
      <trkpt lat="45.20389" lon="6.18602">
        <ele>2422.165</ele>
        <time>2022-07-17T12:44:54Z</time>
      </trkpt>
      <trkpt lat="45.204" lon="6.1862">
        <ele>2419.98</ele>
        <time>2022-07-17T12:44:59Z</time>
      </trkpt>
      <trkpt lat="45.20402" lon="6.18633">
        <ele>2417.388</ele>
        <time>2022-07-17T12:45:04Z</time>
      </trkpt>
      <trkpt lat="45.20405" lon="6.18636">
        <ele>2417.684</ele>
        <time>2022-07-17T12:45:09Z</time>
      </trkpt>
      <trkpt lat="45.20405" lon="6.1864">
        <ele>2416.675</ele>
        <time>2022-07-17T12:45:14Z</time>
      </trkpt>
      <trkpt lat="45.20406" lon="6.18645">
        <ele>2415.237</ele>
        <time>2022-07-17T12:45:19Z</time>
      </trkpt>
      <trkpt lat="45.20405" lon="6.18644">
        <ele>2415.671</ele>
        <time>2022-07-17T12:45:24Z</time>
      </trkpt>
      <trkpt lat="45.20401" lon="6.18646">
        <ele>2415.448</ele>
        <time>2022-07-17T12:45:29Z</time>
      </trkpt>
      <trkpt lat="45.20404" lon="6.18652">
        <ele>2413.191</ele>
        <time>2022-07-17T12:45:34Z</time>
      </trkpt>
      <trkpt lat="45.20403" lon="6.18656">
        <ele>2411.911</ele>
        <time>2022-07-17T12:45:39Z</time>
      </trkpt>
      <trkpt lat="45.20407" lon="6.1866">
        <ele>2410.225</ele>
        <time>2022-07-17T12:45:44Z</time>
      </trkpt>
      <trkpt lat="45.20408" lon="6.1866">
        <ele>2409.324</ele>
        <time>2022-07-17T12:45:49Z</time>
      </trkpt>
      <trkpt lat="45.20408" lon="6.18664">
        <ele>2407.655</ele>
        <time>2022-07-17T12:45:54Z</time>
      </trkpt>
      <trkpt lat="45.20406" lon="6.18668">
        <ele>2405.878</ele>
        <time>2022-07-17T12:45:59Z</time>
      </trkpt>
      <trkpt lat="45.20408" lon="6.18669">
        <ele>2405.003</ele>
        <time>2022-07-17T12:46:04Z</time>
      </trkpt>
      <trkpt lat="45.20411" lon="6.18672">
        <ele>2403.722</ele>
        <time>2022-07-17T12:46:09Z</time>
      </trkpt>
      <trkpt lat="45.20412" lon="6.1868">
        <ele>2401.469</ele>
        <time>2022-07-17T12:46:14Z</time>
      </trkpt>
      <trkpt lat="45.20414" lon="6.18689">
        <ele>2397.704</ele>
        <time>2022-07-17T12:46:19Z</time>
      </trkpt>
      <trkpt lat="45.2041" lon="6.187">
        <ele>2396.613</ele>
        <time>2022-07-17T12:46:24Z</time>
      </trkpt>
      <trkpt lat="45.20417" lon="6.18709">
        <ele>2394.376</ele>
        <time>2022-07-17T12:46:29Z</time>
      </trkpt>
      <trkpt lat="45.20423" lon="6.18717">
        <ele>2391.293</ele>
        <time>2022-07-17T12:46:34Z</time>
      </trkpt>
      <trkpt lat="45.20428" lon="6.18721">
        <ele>2389.827</ele>
        <time>2022-07-17T12:46:39Z</time>
      </trkpt>
      <trkpt lat="45.20428" lon="6.1872">
        <ele>2389.251</ele>
        <time>2022-07-17T12:46:44Z</time>
      </trkpt>
      <trkpt lat="45.20428" lon="6.18723">
        <ele>2388.524</ele>
        <time>2022-07-17T12:46:49Z</time>
      </trkpt>
      <trkpt lat="45.20428" lon="6.18724">
        <ele>2388.175</ele>
        <time>2022-07-17T12:46:54Z</time>
      </trkpt>
      <trkpt lat="45.20428" lon="6.18727">
        <ele>2387.642</ele>
        <time>2022-07-17T12:46:59Z</time>
      </trkpt>
      <trkpt lat="45.20431" lon="6.18738">
        <ele>2384.446</ele>
        <time>2022-07-17T12:47:04Z</time>
      </trkpt>
      <trkpt lat="45.2043" lon="6.18749">
        <ele>2381.461</ele>
        <time>2022-07-17T12:47:09Z</time>
      </trkpt>
      <trkpt lat="45.20432" lon="6.18759">
        <ele>2377.804</ele>
        <time>2022-07-17T12:47:14Z</time>
      </trkpt>
      <trkpt lat="45.20428" lon="6.18769">
        <ele>2375.941</ele>
        <time>2022-07-17T12:47:19Z</time>
      </trkpt>
      <trkpt lat="45.20439" lon="6.18785">
        <ele>2371.644</ele>
        <time>2022-07-17T12:47:24Z</time>
      </trkpt>
      <trkpt lat="45.20449" lon="6.18799">
        <ele>2367.764</ele>
        <time>2022-07-17T12:47:29Z</time>
      </trkpt>
      <trkpt lat="45.20459" lon="6.18813">
        <ele>2364.916</ele>
        <time>2022-07-17T12:47:34Z</time>
      </trkpt>
      <trkpt lat="45.20467" lon="6.18826">
        <ele>2361.511</ele>
        <time>2022-07-17T12:47:39Z</time>
      </trkpt>
      <trkpt lat="45.20476" lon="6.18839">
        <ele>2358.502</ele>
        <time>2022-07-17T12:47:44Z</time>
      </trkpt>
      <trkpt lat="45.20478" lon="6.18857">
        <ele>2354.816</ele>
        <time>2022-07-17T12:47:49Z</time>
      </trkpt>
      <trkpt lat="45.2049" lon="6.18867">
        <ele>2351.685</ele>
        <time>2022-07-17T12:47:54Z</time>
      </trkpt>
      <trkpt lat="45.20491" lon="6.18869">
        <ele>2353.33</ele>
        <time>2022-07-17T12:47:59Z</time>
      </trkpt>
      <trkpt lat="45.20492" lon="6.18869">
        <ele>2354.014</ele>
        <time>2022-07-17T12:48:04Z</time>
      </trkpt>
      <trkpt lat="45.20492" lon="6.18869">
        <ele>2354.13</ele>
        <time>2022-07-17T12:48:09Z</time>
      </trkpt>
      <trkpt lat="45.20492" lon="6.18869">
        <ele>2354.152</ele>
        <time>2022-07-17T12:48:14Z</time>
      </trkpt>
      <trkpt lat="45.20492" lon="6.18869">
        <ele>2354.144</ele>
        <time>2022-07-17T12:48:19Z</time>
      </trkpt>
      <trkpt lat="45.20492" lon="6.18869">
        <ele>2354.134</ele>
        <time>2022-07-17T12:48:24Z</time>
      </trkpt>
      <trkpt lat="45.20492" lon="6.18869">
        <ele>2354.121</ele>
        <time>2022-07-17T12:48:29Z</time>
      </trkpt>
      <trkpt lat="45.20492" lon="6.18869">
        <ele>2354.106</ele>
        <time>2022-07-17T12:48:34Z</time>
      </trkpt>
      <trkpt lat="45.20492" lon="6.18869">
        <ele>2354.092</ele>
        <time>2022-07-17T12:48:39Z</time>
      </trkpt>
      <trkpt lat="45.20492" lon="6.18869">
        <ele>2354.085</ele>
        <time>2022-07-17T12:48:44Z</time>
      </trkpt>
      <trkpt lat="45.20492" lon="6.18869">
        <ele>2354.084</ele>
        <time>2022-07-17T12:48:49Z</time>
      </trkpt>
      <trkpt lat="45.20492" lon="6.18869">
        <ele>2354.086</ele>
        <time>2022-07-17T12:48:54Z</time>
      </trkpt>
      <trkpt lat="45.20492" lon="6.18869">
        <ele>2354.084</ele>
        <time>2022-07-17T12:48:59Z</time>
      </trkpt>
      <trkpt lat="45.20492" lon="6.18869">
        <ele>2354.089</ele>
        <time>2022-07-17T12:49:04Z</time>
      </trkpt>
      <trkpt lat="45.20492" lon="6.18869">
        <ele>2354.065</ele>
        <time>2022-07-17T12:49:09Z</time>
      </trkpt>
      <trkpt lat="45.20492" lon="6.18869">
        <ele>2354.068</ele>
        <time>2022-07-17T12:49:14Z</time>
      </trkpt>
      <trkpt lat="45.20491" lon="6.18868">
        <ele>2353.348</ele>
        <time>2022-07-17T12:49:19Z</time>
      </trkpt>
      <trkpt lat="45.20492" lon="6.18868">
        <ele>2353.316</ele>
        <time>2022-07-17T12:49:24Z</time>
      </trkpt>
      <trkpt lat="45.20492" lon="6.18868">
        <ele>2353.09</ele>
        <time>2022-07-17T12:49:29Z</time>
      </trkpt>
      <trkpt lat="45.20492" lon="6.18868">
        <ele>2353.089</ele>
        <time>2022-07-17T12:49:34Z</time>
      </trkpt>
      <trkpt lat="45.20492" lon="6.18868">
        <ele>2353.156</ele>
        <time>2022-07-17T12:49:39Z</time>
      </trkpt>
      <trkpt lat="45.20492" lon="6.18868">
        <ele>2353.16</ele>
        <time>2022-07-17T12:49:44Z</time>
      </trkpt>
      <trkpt lat="45.20492" lon="6.18867">
        <ele>2353.134</ele>
        <time>2022-07-17T12:49:49Z</time>
      </trkpt>
      <trkpt lat="45.20492" lon="6.18867">
        <ele>2353.133</ele>
        <time>2022-07-17T12:49:54Z</time>
      </trkpt>
      <trkpt lat="45.20492" lon="6.18867">
        <ele>2353.138</ele>
        <time>2022-07-17T12:49:59Z</time>
      </trkpt>
      <trkpt lat="45.20492" lon="6.18867">
        <ele>2353.142</ele>
        <time>2022-07-17T12:50:04Z</time>
      </trkpt>
      <trkpt lat="45.20492" lon="6.18868">
        <ele>2353.954</ele>
        <time>2022-07-17T12:50:09Z</time>
      </trkpt>
      <trkpt lat="45.20492" lon="6.18868">
        <ele>2354.06</ele>
        <time>2022-07-17T12:50:14Z</time>
      </trkpt>
      <trkpt lat="45.20492" lon="6.18868">
        <ele>2352.947</ele>
        <time>2022-07-17T12:50:19Z</time>
      </trkpt>
      <trkpt lat="45.20496" lon="6.18873">
        <ele>2352.837</ele>
        <time>2022-07-17T12:50:24Z</time>
      </trkpt>
      <trkpt lat="45.20496" lon="6.18873">
        <ele>2352.036</ele>
        <time>2022-07-17T12:50:29Z</time>
      </trkpt>
      <trkpt lat="45.20495" lon="6.18873">
        <ele>2352.342</ele>
        <time>2022-07-17T12:50:34Z</time>
      </trkpt>
      <trkpt lat="45.20494" lon="6.18873">
        <ele>2351.886</ele>
        <time>2022-07-17T12:50:39Z</time>
      </trkpt>
      <trkpt lat="45.20495" lon="6.18872">
        <ele>2351.685</ele>
        <time>2022-07-17T12:50:44Z</time>
      </trkpt>
      <trkpt lat="45.20493" lon="6.18872">
        <ele>2351.632</ele>
        <time>2022-07-17T12:50:49Z</time>
      </trkpt>
      <trkpt lat="45.20496" lon="6.18869">
        <ele>2349.832</ele>
        <time>2022-07-17T12:50:54Z</time>
      </trkpt>
      <trkpt lat="45.205" lon="6.1887">
        <ele>2348.951</ele>
        <time>2022-07-17T12:50:59Z</time>
      </trkpt>
      <trkpt lat="45.20502" lon="6.18885">
        <ele>2345.626</ele>
        <time>2022-07-17T12:51:04Z</time>
      </trkpt>
      <trkpt lat="45.20498" lon="6.18904">
        <ele>2342.248</ele>
        <time>2022-07-17T12:51:09Z</time>
      </trkpt>
      <trkpt lat="45.20503" lon="6.18918">
        <ele>2338.889</ele>
        <time>2022-07-17T12:51:14Z</time>
      </trkpt>
      <trkpt lat="45.20503" lon="6.18934">
        <ele>2337.177</ele>
        <time>2022-07-17T12:51:19Z</time>
      </trkpt>
      <trkpt lat="45.205" lon="6.18947">
        <ele>2334.122</ele>
        <time>2022-07-17T12:51:24Z</time>
      </trkpt>
      <trkpt lat="45.20488" lon="6.18956">
        <ele>2333.813</ele>
        <time>2022-07-17T12:51:29Z</time>
      </trkpt>
      <trkpt lat="45.20478" lon="6.18966">
        <ele>2334.335</ele>
        <time>2022-07-17T12:51:34Z</time>
      </trkpt>
      <trkpt lat="45.2047" lon="6.18975">
        <ele>2335.553</ele>
        <time>2022-07-17T12:51:39Z</time>
      </trkpt>
      <trkpt lat="45.20465" lon="6.18979">
        <ele>2335.574</ele>
        <time>2022-07-17T12:51:44Z</time>
      </trkpt>
      <trkpt lat="45.20465" lon="6.18979">
        <ele>2334.868</ele>
        <time>2022-07-17T12:51:49Z</time>
      </trkpt>
      <trkpt lat="45.20465" lon="6.18979">
        <ele>2334.916</ele>
        <time>2022-07-17T12:51:54Z</time>
      </trkpt>
      <trkpt lat="45.20466" lon="6.18979">
        <ele>2334.958</ele>
        <time>2022-07-17T12:51:59Z</time>
      </trkpt>
      <trkpt lat="45.20466" lon="6.18979">
        <ele>2334.955</ele>
        <time>2022-07-17T12:52:04Z</time>
      </trkpt>
      <trkpt lat="45.20466" lon="6.18979">
        <ele>2334.96</ele>
        <time>2022-07-17T12:52:09Z</time>
      </trkpt>
      <trkpt lat="45.20466" lon="6.18979">
        <ele>2334.956</ele>
        <time>2022-07-17T12:52:14Z</time>
      </trkpt>
      <trkpt lat="45.20466" lon="6.18979">
        <ele>2334.95</ele>
        <time>2022-07-17T12:52:19Z</time>
      </trkpt>
      <trkpt lat="45.20466" lon="6.18979">
        <ele>2334.947</ele>
        <time>2022-07-17T12:52:24Z</time>
      </trkpt>
      <trkpt lat="45.20466" lon="6.18979">
        <ele>2334.946</ele>
        <time>2022-07-17T12:52:29Z</time>
      </trkpt>
      <trkpt lat="45.20466" lon="6.18979">
        <ele>2334.943</ele>
        <time>2022-07-17T12:52:34Z</time>
      </trkpt>
      <trkpt lat="45.20466" lon="6.18979">
        <ele>2334.942</ele>
        <time>2022-07-17T12:52:39Z</time>
      </trkpt>
      <trkpt lat="45.20466" lon="6.18979">
        <ele>2334.952</ele>
        <time>2022-07-17T12:52:44Z</time>
      </trkpt>
      <trkpt lat="45.20466" lon="6.18979">
        <ele>2334.947</ele>
        <time>2022-07-17T12:52:49Z</time>
      </trkpt>
      <trkpt lat="45.20466" lon="6.18979">
        <ele>2334.943</ele>
        <time>2022-07-17T12:52:54Z</time>
      </trkpt>
      <trkpt lat="45.20466" lon="6.18979">
        <ele>2334.94</ele>
        <time>2022-07-17T12:52:59Z</time>
      </trkpt>
      <trkpt lat="45.20466" lon="6.18979">
        <ele>2334.933</ele>
        <time>2022-07-17T12:53:04Z</time>
      </trkpt>
      <trkpt lat="45.20466" lon="6.18979">
        <ele>2334.929</ele>
        <time>2022-07-17T12:53:09Z</time>
      </trkpt>
      <trkpt lat="45.20466" lon="6.18979">
        <ele>2334.923</ele>
        <time>2022-07-17T12:53:14Z</time>
      </trkpt>
      <trkpt lat="45.20466" lon="6.18979">
        <ele>2334.92</ele>
        <time>2022-07-17T12:53:19Z</time>
      </trkpt>
      <trkpt lat="45.20466" lon="6.18979">
        <ele>2334.918</ele>
        <time>2022-07-17T12:53:24Z</time>
      </trkpt>
      <trkpt lat="45.20466" lon="6.18979">
        <ele>2334.911</ele>
        <time>2022-07-17T12:53:29Z</time>
      </trkpt>
      <trkpt lat="45.20466" lon="6.18979">
        <ele>2334.907</ele>
        <time>2022-07-17T12:53:34Z</time>
      </trkpt>
      <trkpt lat="45.20466" lon="6.18979">
        <ele>2334.902</ele>
        <time>2022-07-17T12:53:39Z</time>
      </trkpt>
      <trkpt lat="45.20466" lon="6.18979">
        <ele>2334.897</ele>
        <time>2022-07-17T12:53:44Z</time>
      </trkpt>
      <trkpt lat="45.20466" lon="6.18979">
        <ele>2334.894</ele>
        <time>2022-07-17T12:53:49Z</time>
      </trkpt>
      <trkpt lat="45.20466" lon="6.18979">
        <ele>2334.89</ele>
        <time>2022-07-17T12:53:54Z</time>
      </trkpt>
      <trkpt lat="45.20466" lon="6.18979">
        <ele>2334.889</ele>
        <time>2022-07-17T12:53:59Z</time>
      </trkpt>
      <trkpt lat="45.20466" lon="6.18979">
        <ele>2334.894</ele>
        <time>2022-07-17T12:54:04Z</time>
      </trkpt>
      <trkpt lat="45.20466" lon="6.18979">
        <ele>2334.893</ele>
        <time>2022-07-17T12:54:09Z</time>
      </trkpt>
      <trkpt lat="45.20466" lon="6.18979">
        <ele>2334.889</ele>
        <time>2022-07-17T12:54:14Z</time>
      </trkpt>
      <trkpt lat="45.20466" lon="6.18979">
        <ele>2334.885</ele>
        <time>2022-07-17T12:54:19Z</time>
      </trkpt>
      <trkpt lat="45.20466" lon="6.18979">
        <ele>2334.88</ele>
        <time>2022-07-17T12:54:24Z</time>
      </trkpt>
      <trkpt lat="45.20466" lon="6.18979">
        <ele>2334.88</ele>
        <time>2022-07-17T12:54:29Z</time>
      </trkpt>
      <trkpt lat="45.20466" lon="6.18979">
        <ele>2334.882</ele>
        <time>2022-07-17T12:54:34Z</time>
      </trkpt>
      <trkpt lat="45.20466" lon="6.18979">
        <ele>2334.879</ele>
        <time>2022-07-17T12:54:39Z</time>
      </trkpt>
      <trkpt lat="45.20466" lon="6.18979">
        <ele>2334.873</ele>
        <time>2022-07-17T12:54:44Z</time>
      </trkpt>
      <trkpt lat="45.20465" lon="6.1898">
        <ele>2336.306</ele>
        <time>2022-07-17T12:54:49Z</time>
      </trkpt>
      <trkpt lat="45.20466" lon="6.1898">
        <ele>2335.253</ele>
        <time>2022-07-17T12:54:54Z</time>
      </trkpt>
      <trkpt lat="45.20466" lon="6.1898">
        <ele>2335.516</ele>
        <time>2022-07-17T12:54:59Z</time>
      </trkpt>
      <trkpt lat="45.20466" lon="6.1898">
        <ele>2335.579</ele>
        <time>2022-07-17T12:55:04Z</time>
      </trkpt>
      <trkpt lat="45.20466" lon="6.1898">
        <ele>2335.591</ele>
        <time>2022-07-17T12:55:09Z</time>
      </trkpt>
      <trkpt lat="45.20466" lon="6.1898">
        <ele>2334.9</ele>
        <time>2022-07-17T12:55:14Z</time>
      </trkpt>
      <trkpt lat="45.20466" lon="6.1898">
        <ele>2334.977</ele>
        <time>2022-07-17T12:55:19Z</time>
      </trkpt>
      <trkpt lat="45.20466" lon="6.1898">
        <ele>2334.45</ele>
        <time>2022-07-17T12:55:24Z</time>
      </trkpt>
      <trkpt lat="45.20466" lon="6.1898">
        <ele>2334.707</ele>
        <time>2022-07-17T12:55:29Z</time>
      </trkpt>
      <trkpt lat="45.20466" lon="6.1898">
        <ele>2334.706</ele>
        <time>2022-07-17T12:55:34Z</time>
      </trkpt>
      <trkpt lat="45.20466" lon="6.1898">
        <ele>2334.687</ele>
        <time>2022-07-17T12:55:39Z</time>
      </trkpt>
      <trkpt lat="45.20466" lon="6.1898">
        <ele>2334.77</ele>
        <time>2022-07-17T12:55:44Z</time>
      </trkpt>
      <trkpt lat="45.20466" lon="6.18999">
        <ele>2332.633</ele>
        <time>2022-07-17T12:55:49Z</time>
      </trkpt>
      <trkpt lat="45.20465" lon="6.19007">
        <ele>2332.41</ele>
        <time>2022-07-17T12:55:54Z</time>
      </trkpt>
      <trkpt lat="45.2046" lon="6.19012">
        <ele>2331.694</ele>
        <time>2022-07-17T12:55:59Z</time>
      </trkpt>
      <trkpt lat="45.20448" lon="6.19021">
        <ele>2329.62</ele>
        <time>2022-07-17T12:56:04Z</time>
      </trkpt>
      <trkpt lat="45.20442" lon="6.19038">
        <ele>2326.682</ele>
        <time>2022-07-17T12:56:09Z</time>
      </trkpt>
      <trkpt lat="45.20437" lon="6.19062">
        <ele>2321.203</ele>
        <time>2022-07-17T12:56:14Z</time>
      </trkpt>
      <trkpt lat="45.20449" lon="6.19085">
        <ele>2317.06</ele>
        <time>2022-07-17T12:56:19Z</time>
      </trkpt>
      <trkpt lat="45.20465" lon="6.19102">
        <ele>2315.674</ele>
        <time>2022-07-17T12:56:24Z</time>
      </trkpt>
      <trkpt lat="45.20475" lon="6.19108">
        <ele>2313.566</ele>
        <time>2022-07-17T12:56:29Z</time>
      </trkpt>
      <trkpt lat="45.20484" lon="6.19112">
        <ele>2310.696</ele>
        <time>2022-07-17T12:56:34Z</time>
      </trkpt>
      <trkpt lat="45.20489" lon="6.19116">
        <ele>2309.261</ele>
        <time>2022-07-17T12:56:39Z</time>
      </trkpt>
      <trkpt lat="45.20489" lon="6.19115">
        <ele>2309.688</ele>
        <time>2022-07-17T12:56:44Z</time>
      </trkpt>
      <trkpt lat="45.20488" lon="6.19115">
        <ele>2309.936</ele>
        <time>2022-07-17T12:56:49Z</time>
      </trkpt>
      <trkpt lat="45.20488" lon="6.19115">
        <ele>2309.898</ele>
        <time>2022-07-17T12:56:54Z</time>
      </trkpt>
      <trkpt lat="45.20488" lon="6.19115">
        <ele>2309.897</ele>
        <time>2022-07-17T12:56:59Z</time>
      </trkpt>
      <trkpt lat="45.20488" lon="6.19115">
        <ele>2309.902</ele>
        <time>2022-07-17T12:57:04Z</time>
      </trkpt>
      <trkpt lat="45.20488" lon="6.19115">
        <ele>2309.359</ele>
        <time>2022-07-17T12:57:09Z</time>
      </trkpt>
      <trkpt lat="45.20486" lon="6.19115">
        <ele>2309.876</ele>
        <time>2022-07-17T12:57:14Z</time>
      </trkpt>
      <trkpt lat="45.20483" lon="6.19116">
        <ele>2309.691</ele>
        <time>2022-07-17T12:57:19Z</time>
      </trkpt>
      <trkpt lat="45.20479" lon="6.19117">
        <ele>2310.318</ele>
        <time>2022-07-17T12:57:24Z</time>
      </trkpt>
      <trkpt lat="45.20477" lon="6.19115">
        <ele>2311.41</ele>
        <time>2022-07-17T12:57:29Z</time>
      </trkpt>
      <trkpt lat="45.20474" lon="6.19115">
        <ele>2313.014</ele>
        <time>2022-07-17T12:57:34Z</time>
      </trkpt>
      <trkpt lat="45.20473" lon="6.19116">
        <ele>2314.144</ele>
        <time>2022-07-17T12:57:39Z</time>
      </trkpt>
      <trkpt lat="45.20474" lon="6.19116">
        <ele>2314.29</ele>
        <time>2022-07-17T12:57:44Z</time>
      </trkpt>
      <trkpt lat="45.20474" lon="6.19116">
        <ele>2314.469</ele>
        <time>2022-07-17T12:57:49Z</time>
      </trkpt>
      <trkpt lat="45.20471" lon="6.19117">
        <ele>2314.52</ele>
        <time>2022-07-17T12:57:54Z</time>
      </trkpt>
      <trkpt lat="45.2047" lon="6.19117">
        <ele>2314.742</ele>
        <time>2022-07-17T12:57:59Z</time>
      </trkpt>
      <trkpt lat="45.20465" lon="6.19117">
        <ele>2314.092</ele>
        <time>2022-07-17T12:58:04Z</time>
      </trkpt>
      <trkpt lat="45.20456" lon="6.19108">
        <ele>2314.918</ele>
        <time>2022-07-17T12:58:09Z</time>
      </trkpt>
      <trkpt lat="45.20444" lon="6.19107">
        <ele>2315.173</ele>
        <time>2022-07-17T12:58:14Z</time>
      </trkpt>
      <trkpt lat="45.20435" lon="6.19108">
        <ele>2315.069</ele>
        <time>2022-07-17T12:58:19Z</time>
      </trkpt>
      <trkpt lat="45.20422" lon="6.19114">
        <ele>2313.116</ele>
        <time>2022-07-17T12:58:24Z</time>
      </trkpt>
      <trkpt lat="45.20408" lon="6.19126">
        <ele>2309.382</ele>
        <time>2022-07-17T12:58:29Z</time>
      </trkpt>
      <trkpt lat="45.20395" lon="6.19146">
        <ele>2304.745</ele>
        <time>2022-07-17T12:58:34Z</time>
      </trkpt>
      <trkpt lat="45.20375" lon="6.19156">
        <ele>2300.916</ele>
        <time>2022-07-17T12:58:39Z</time>
      </trkpt>
      <trkpt lat="45.20372" lon="6.19169">
        <ele>2297.368</ele>
        <time>2022-07-17T12:58:44Z</time>
      </trkpt>
      <trkpt lat="45.20364" lon="6.19176">
        <ele>2297.842</ele>
        <time>2022-07-17T12:58:49Z</time>
      </trkpt>
      <trkpt lat="45.20359" lon="6.19181">
        <ele>2294.235</ele>
        <time>2022-07-17T12:58:54Z</time>
      </trkpt>
      <trkpt lat="45.20368" lon="6.19192">
        <ele>2290.428</ele>
        <time>2022-07-17T12:58:59Z</time>
      </trkpt>
      <trkpt lat="45.2038" lon="6.19207">
        <ele>2283.644</ele>
        <time>2022-07-17T12:59:04Z</time>
      </trkpt>
      <trkpt lat="45.20385" lon="6.19229">
        <ele>2277.807</ele>
        <time>2022-07-17T12:59:09Z</time>
      </trkpt>
      <trkpt lat="45.20389" lon="6.19242">
        <ele>2276.485</ele>
        <time>2022-07-17T12:59:14Z</time>
      </trkpt>
      <trkpt lat="45.20389" lon="6.19243">
        <ele>2276.172</ele>
        <time>2022-07-17T12:59:19Z</time>
      </trkpt>
      <trkpt lat="45.20389" lon="6.19243">
        <ele>2276.171</ele>
        <time>2022-07-17T12:59:24Z</time>
      </trkpt>
      <trkpt lat="45.20389" lon="6.19244">
        <ele>2276.18</ele>
        <time>2022-07-17T12:59:29Z</time>
      </trkpt>
      <trkpt lat="45.20389" lon="6.19244">
        <ele>2276.168</ele>
        <time>2022-07-17T12:59:34Z</time>
      </trkpt>
      <trkpt lat="45.2039" lon="6.19243">
        <ele>2276.351</ele>
        <time>2022-07-17T12:59:39Z</time>
      </trkpt>
      <trkpt lat="45.2039" lon="6.19243">
        <ele>2276.417</ele>
        <time>2022-07-17T12:59:44Z</time>
      </trkpt>
      <trkpt lat="45.2039" lon="6.19243">
        <ele>2276.466</ele>
        <time>2022-07-17T12:59:49Z</time>
      </trkpt>
      <trkpt lat="45.20391" lon="6.19243">
        <ele>2276.519</ele>
        <time>2022-07-17T12:59:54Z</time>
      </trkpt>
      <trkpt lat="45.20391" lon="6.19243">
        <ele>2276.562</ele>
        <time>2022-07-17T12:59:59Z</time>
      </trkpt>
      <trkpt lat="45.20392" lon="6.19243">
        <ele>2277.642</ele>
        <time>2022-07-17T13:00:04Z</time>
      </trkpt>
      <trkpt lat="45.20392" lon="6.19243">
        <ele>2278.311</ele>
        <time>2022-07-17T13:00:09Z</time>
      </trkpt>
      <trkpt lat="45.20392" lon="6.19243">
        <ele>2278.307</ele>
        <time>2022-07-17T13:00:14Z</time>
      </trkpt>
      <trkpt lat="45.20394" lon="6.19254">
        <ele>2277.075</ele>
        <time>2022-07-17T13:00:19Z</time>
      </trkpt>
      <trkpt lat="45.20394" lon="6.19269">
        <ele>2275.698</ele>
        <time>2022-07-17T13:00:24Z</time>
      </trkpt>
      <trkpt lat="45.20395" lon="6.19283">
        <ele>2277.47</ele>
        <time>2022-07-17T13:00:29Z</time>
      </trkpt>
      <trkpt lat="45.20392" lon="6.19293">
        <ele>2275.615</ele>
        <time>2022-07-17T13:00:34Z</time>
      </trkpt>
      <trkpt lat="45.2039" lon="6.19304">
        <ele>2273.49</ele>
        <time>2022-07-17T13:00:39Z</time>
      </trkpt>
      <trkpt lat="45.20391" lon="6.19313">
        <ele>2271.328</ele>
        <time>2022-07-17T13:00:44Z</time>
      </trkpt>
      <trkpt lat="45.20391" lon="6.19319">
        <ele>2270.153</ele>
        <time>2022-07-17T13:00:49Z</time>
      </trkpt>
      <trkpt lat="45.20391" lon="6.19327">
        <ele>2268.517</ele>
        <time>2022-07-17T13:00:54Z</time>
      </trkpt>
      <trkpt lat="45.20392" lon="6.19333">
        <ele>2267.823</ele>
        <time>2022-07-17T13:00:59Z</time>
      </trkpt>
      <trkpt lat="45.20394" lon="6.1933">
        <ele>2266.715</ele>
        <time>2022-07-17T13:01:04Z</time>
      </trkpt>
      <trkpt lat="45.20393" lon="6.1933">
        <ele>2266.651</ele>
        <time>2022-07-17T13:01:09Z</time>
      </trkpt>
      <trkpt lat="45.20393" lon="6.1933">
        <ele>2266.649</ele>
        <time>2022-07-17T13:01:14Z</time>
      </trkpt>
      <trkpt lat="45.20393" lon="6.1933">
        <ele>2266.653</ele>
        <time>2022-07-17T13:01:19Z</time>
      </trkpt>
      <trkpt lat="45.20393" lon="6.1933">
        <ele>2266.647</ele>
        <time>2022-07-17T13:01:24Z</time>
      </trkpt>
      <trkpt lat="45.20393" lon="6.1933">
        <ele>2266.649</ele>
        <time>2022-07-17T13:01:29Z</time>
      </trkpt>
      <trkpt lat="45.20393" lon="6.1933">
        <ele>2266.455</ele>
        <time>2022-07-17T13:01:34Z</time>
      </trkpt>
      <trkpt lat="45.20398" lon="6.1932">
        <ele>2265.024</ele>
        <time>2022-07-17T13:01:39Z</time>
      </trkpt>
      <trkpt lat="45.20403" lon="6.19314">
        <ele>2263.307</ele>
        <time>2022-07-17T13:01:44Z</time>
      </trkpt>
      <trkpt lat="45.20406" lon="6.19317">
        <ele>2262.562</ele>
        <time>2022-07-17T13:01:49Z</time>
      </trkpt>
      <trkpt lat="45.20406" lon="6.19319">
        <ele>2261.866</ele>
        <time>2022-07-17T13:01:54Z</time>
      </trkpt>
      <trkpt lat="45.20406" lon="6.19319">
        <ele>2261.505</ele>
        <time>2022-07-17T13:01:59Z</time>
      </trkpt>
      <trkpt lat="45.20406" lon="6.19319">
        <ele>2261.503</ele>
        <time>2022-07-17T13:02:04Z</time>
      </trkpt>
      <trkpt lat="45.20406" lon="6.19319">
        <ele>2261.497</ele>
        <time>2022-07-17T13:02:09Z</time>
      </trkpt>
      <trkpt lat="45.20406" lon="6.19319">
        <ele>2261.501</ele>
        <time>2022-07-17T13:02:14Z</time>
      </trkpt>
      <trkpt lat="45.20406" lon="6.19319">
        <ele>2261.587</ele>
        <time>2022-07-17T13:02:19Z</time>
      </trkpt>
      <trkpt lat="45.20408" lon="6.19319">
        <ele>2260.951</ele>
        <time>2022-07-17T13:02:24Z</time>
      </trkpt>
      <trkpt lat="45.20408" lon="6.1933">
        <ele>2258.501</ele>
        <time>2022-07-17T13:02:29Z</time>
      </trkpt>
      <trkpt lat="45.2041" lon="6.19341">
        <ele>2254.528</ele>
        <time>2022-07-17T13:02:34Z</time>
      </trkpt>
      <trkpt lat="45.20411" lon="6.19358">
        <ele>2250.584</ele>
        <time>2022-07-17T13:02:39Z</time>
      </trkpt>
      <trkpt lat="45.20407" lon="6.19377">
        <ele>2245.342</ele>
        <time>2022-07-17T13:02:44Z</time>
      </trkpt>
      <trkpt lat="45.20406" lon="6.19387">
        <ele>2243.267</ele>
        <time>2022-07-17T13:02:49Z</time>
      </trkpt>
      <trkpt lat="45.20406" lon="6.19403">
        <ele>2239.85</ele>
        <time>2022-07-17T13:02:54Z</time>
      </trkpt>
      <trkpt lat="45.20408" lon="6.1941">
        <ele>2237.698</ele>
        <time>2022-07-17T13:02:59Z</time>
      </trkpt>
      <trkpt lat="45.20407" lon="6.19419">
        <ele>2235.438</ele>
        <time>2022-07-17T13:03:04Z</time>
      </trkpt>
      <trkpt lat="45.20406" lon="6.1943">
        <ele>2232.875</ele>
        <time>2022-07-17T13:03:09Z</time>
      </trkpt>
      <trkpt lat="45.20409" lon="6.19443">
        <ele>2229.296</ele>
        <time>2022-07-17T13:03:14Z</time>
      </trkpt>
      <trkpt lat="45.20404" lon="6.19472">
        <ele>2226.813</ele>
        <time>2022-07-17T13:03:19Z</time>
      </trkpt>
      <trkpt lat="45.20399" lon="6.19487">
        <ele>2224.995</ele>
        <time>2022-07-17T13:03:24Z</time>
      </trkpt>
      <trkpt lat="45.20391" lon="6.19513">
        <ele>2221.878</ele>
        <time>2022-07-17T13:03:29Z</time>
      </trkpt>
      <trkpt lat="45.20387" lon="6.19528">
        <ele>2220.385</ele>
        <time>2022-07-17T13:03:34Z</time>
      </trkpt>
      <trkpt lat="45.20378" lon="6.19539">
        <ele>2220.113</ele>
        <time>2022-07-17T13:03:39Z</time>
      </trkpt>
      <trkpt lat="45.20359" lon="6.19544">
        <ele>2219.08</ele>
        <time>2022-07-17T13:03:44Z</time>
      </trkpt>
      <trkpt lat="45.20338" lon="6.19543">
        <ele>2217.55</ele>
        <time>2022-07-17T13:03:49Z</time>
      </trkpt>
      <trkpt lat="45.20318" lon="6.19545">
        <ele>2216.19</ele>
        <time>2022-07-17T13:03:54Z</time>
      </trkpt>
      <trkpt lat="45.20312" lon="6.19561">
        <ele>2211.208</ele>
        <time>2022-07-17T13:03:59Z</time>
      </trkpt>
      <trkpt lat="45.2031" lon="6.19578">
        <ele>2206.352</ele>
        <time>2022-07-17T13:04:04Z</time>
      </trkpt>
      <trkpt lat="45.20309" lon="6.19593">
        <ele>2202.44</ele>
        <time>2022-07-17T13:04:09Z</time>
      </trkpt>
      <trkpt lat="45.20307" lon="6.19611">
        <ele>2196.718</ele>
        <time>2022-07-17T13:04:14Z</time>
      </trkpt>
      <trkpt lat="45.20292" lon="6.19613">
        <ele>2193.022</ele>
        <time>2022-07-17T13:04:19Z</time>
      </trkpt>
      <trkpt lat="45.20274" lon="6.19604">
        <ele>2190.033</ele>
        <time>2022-07-17T13:04:24Z</time>
      </trkpt>
      <trkpt lat="45.20258" lon="6.19593">
        <ele>2186.863</ele>
        <time>2022-07-17T13:04:29Z</time>
      </trkpt>
      <trkpt lat="45.20251" lon="6.19603">
        <ele>2183.229</ele>
        <time>2022-07-17T13:04:34Z</time>
      </trkpt>
      <trkpt lat="45.20247" lon="6.19621">
        <ele>2179.492</ele>
        <time>2022-07-17T13:04:39Z</time>
      </trkpt>
      <trkpt lat="45.20234" lon="6.19629">
        <ele>2177.127</ele>
        <time>2022-07-17T13:04:44Z</time>
      </trkpt>
      <trkpt lat="45.20237" lon="6.19642">
        <ele>2174.138</ele>
        <time>2022-07-17T13:04:49Z</time>
      </trkpt>
      <trkpt lat="45.20242" lon="6.19658">
        <ele>2170.095</ele>
        <time>2022-07-17T13:04:54Z</time>
      </trkpt>
      <trkpt lat="45.20242" lon="6.19658">
        <ele>2169.885</ele>
        <time>2022-07-17T13:04:59Z</time>
      </trkpt>
      <trkpt lat="45.20242" lon="6.19658">
        <ele>2169.351</ele>
        <time>2022-07-17T13:05:04Z</time>
      </trkpt>
      <trkpt lat="45.20242" lon="6.19658">
        <ele>2169.542</ele>
        <time>2022-07-17T13:05:09Z</time>
      </trkpt>
      <trkpt lat="45.20242" lon="6.19658">
        <ele>2169.555</ele>
        <time>2022-07-17T13:05:14Z</time>
      </trkpt>
      <trkpt lat="45.20242" lon="6.19658">
        <ele>2169.56</ele>
        <time>2022-07-17T13:05:19Z</time>
      </trkpt>
      <trkpt lat="45.20242" lon="6.19658">
        <ele>2169.562</ele>
        <time>2022-07-17T13:05:24Z</time>
      </trkpt>
      <trkpt lat="45.20242" lon="6.19658">
        <ele>2169.572</ele>
        <time>2022-07-17T13:05:29Z</time>
      </trkpt>
      <trkpt lat="45.20242" lon="6.19658">
        <ele>2169.582</ele>
        <time>2022-07-17T13:05:34Z</time>
      </trkpt>
      <trkpt lat="45.20242" lon="6.19658">
        <ele>2169.584</ele>
        <time>2022-07-17T13:05:39Z</time>
      </trkpt>
      <trkpt lat="45.20242" lon="6.19658">
        <ele>2169.584</ele>
        <time>2022-07-17T13:05:44Z</time>
      </trkpt>
      <trkpt lat="45.20242" lon="6.19658">
        <ele>2169.586</ele>
        <time>2022-07-17T13:05:49Z</time>
      </trkpt>
      <trkpt lat="45.20242" lon="6.19658">
        <ele>2169.588</ele>
        <time>2022-07-17T13:05:54Z</time>
      </trkpt>
      <trkpt lat="45.20242" lon="6.19658">
        <ele>2169.59</ele>
        <time>2022-07-17T13:05:59Z</time>
      </trkpt>
      <trkpt lat="45.20242" lon="6.19658">
        <ele>2169.59</ele>
        <time>2022-07-17T13:06:04Z</time>
      </trkpt>
      <trkpt lat="45.20242" lon="6.19658">
        <ele>2169.587</ele>
        <time>2022-07-17T13:06:09Z</time>
      </trkpt>
      <trkpt lat="45.20242" lon="6.19658">
        <ele>2169.587</ele>
        <time>2022-07-17T13:06:14Z</time>
      </trkpt>
      <trkpt lat="45.20242" lon="6.19658">
        <ele>2169.581</ele>
        <time>2022-07-17T13:06:19Z</time>
      </trkpt>
      <trkpt lat="45.20242" lon="6.19658">
        <ele>2169.577</ele>
        <time>2022-07-17T13:06:24Z</time>
      </trkpt>
      <trkpt lat="45.20242" lon="6.19658">
        <ele>2169.576</ele>
        <time>2022-07-17T13:06:29Z</time>
      </trkpt>
      <trkpt lat="45.20242" lon="6.19658">
        <ele>2169.577</ele>
        <time>2022-07-17T13:06:34Z</time>
      </trkpt>
      <trkpt lat="45.20242" lon="6.19658">
        <ele>2169.578</ele>
        <time>2022-07-17T13:06:39Z</time>
      </trkpt>
      <trkpt lat="45.20242" lon="6.19658">
        <ele>2169.578</ele>
        <time>2022-07-17T13:06:44Z</time>
      </trkpt>
      <trkpt lat="45.20242" lon="6.19658">
        <ele>2169.574</ele>
        <time>2022-07-17T13:06:49Z</time>
      </trkpt>
      <trkpt lat="45.20242" lon="6.19658">
        <ele>2169.576</ele>
        <time>2022-07-17T13:06:54Z</time>
      </trkpt>
      <trkpt lat="45.20242" lon="6.19658">
        <ele>2169.577</ele>
        <time>2022-07-17T13:06:59Z</time>
      </trkpt>
      <trkpt lat="45.20242" lon="6.19658">
        <ele>2169.578</ele>
        <time>2022-07-17T13:07:04Z</time>
      </trkpt>
      <trkpt lat="45.20242" lon="6.19658">
        <ele>2169.578</ele>
        <time>2022-07-17T13:07:09Z</time>
      </trkpt>
      <trkpt lat="45.20242" lon="6.19658">
        <ele>2169.581</ele>
        <time>2022-07-17T13:07:14Z</time>
      </trkpt>
      <trkpt lat="45.20242" lon="6.19658">
        <ele>2169.579</ele>
        <time>2022-07-17T13:07:19Z</time>
      </trkpt>
      <trkpt lat="45.20242" lon="6.19658">
        <ele>2169.58</ele>
        <time>2022-07-17T13:07:24Z</time>
      </trkpt>
      <trkpt lat="45.20241" lon="6.1966">
        <ele>2169.532</ele>
        <time>2022-07-17T13:07:29Z</time>
      </trkpt>
      <trkpt lat="45.20239" lon="6.19669">
        <ele>2168.512</ele>
        <time>2022-07-17T13:07:34Z</time>
      </trkpt>
      <trkpt lat="45.20239" lon="6.19692">
        <ele>2163.883</ele>
        <time>2022-07-17T13:07:39Z</time>
      </trkpt>
      <trkpt lat="45.20247" lon="6.19718">
        <ele>2160.417</ele>
        <time>2022-07-17T13:07:44Z</time>
      </trkpt>
      <trkpt lat="45.20249" lon="6.19749">
        <ele>2154.449</ele>
        <time>2022-07-17T13:07:49Z</time>
      </trkpt>
      <trkpt lat="45.20247" lon="6.19787">
        <ele>2148.196</ele>
        <time>2022-07-17T13:07:54Z</time>
      </trkpt>
      <trkpt lat="45.20242" lon="6.19826">
        <ele>2143.047</ele>
        <time>2022-07-17T13:07:59Z</time>
      </trkpt>
      <trkpt lat="45.20235" lon="6.19867">
        <ele>2136.15</ele>
        <time>2022-07-17T13:08:04Z</time>
      </trkpt>
      <trkpt lat="45.2023" lon="6.19903">
        <ele>2131.135</ele>
        <time>2022-07-17T13:08:09Z</time>
      </trkpt>
      <trkpt lat="45.2023" lon="6.1993">
        <ele>2126.011</ele>
        <time>2022-07-17T13:08:14Z</time>
      </trkpt>
      <trkpt lat="45.20221" lon="6.1996">
        <ele>2120.854</ele>
        <time>2022-07-17T13:08:19Z</time>
      </trkpt>
      <trkpt lat="45.20205" lon="6.19989">
        <ele>2116.08</ele>
        <time>2022-07-17T13:08:24Z</time>
      </trkpt>
      <trkpt lat="45.2018" lon="6.20016">
        <ele>2111.742</ele>
        <time>2022-07-17T13:08:29Z</time>
      </trkpt>
      <trkpt lat="45.20154" lon="6.20037">
        <ele>2107.092</ele>
        <time>2022-07-17T13:08:34Z</time>
      </trkpt>
      <trkpt lat="45.20123" lon="6.20056">
        <ele>2102.943</ele>
        <time>2022-07-17T13:08:39Z</time>
      </trkpt>
      <trkpt lat="45.20094" lon="6.20071">
        <ele>2098.206</ele>
        <time>2022-07-17T13:08:44Z</time>
      </trkpt>
      <trkpt lat="45.20063" lon="6.20095">
        <ele>2093.5</ele>
        <time>2022-07-17T13:08:49Z</time>
      </trkpt>
      <trkpt lat="45.20044" lon="6.20113">
        <ele>2089.318</ele>
        <time>2022-07-17T13:08:54Z</time>
      </trkpt>
      <trkpt lat="45.2004" lon="6.20129">
        <ele>2088.712</ele>
        <time>2022-07-17T13:08:59Z</time>
      </trkpt>
      <trkpt lat="45.20045" lon="6.20156">
        <ele>2087.328</ele>
        <time>2022-07-17T13:09:04Z</time>
      </trkpt>
      <trkpt lat="45.20059" lon="6.20192">
        <ele>2084.288</ele>
        <time>2022-07-17T13:09:09Z</time>
      </trkpt>
      <trkpt lat="45.20079" lon="6.20225">
        <ele>2084.906</ele>
        <time>2022-07-17T13:09:14Z</time>
      </trkpt>
      <trkpt lat="45.20097" lon="6.20249">
        <ele>2086.43</ele>
        <time>2022-07-17T13:09:19Z</time>
      </trkpt>
      <trkpt lat="45.20104" lon="6.20259">
        <ele>2087.264</ele>
        <time>2022-07-17T13:09:24Z</time>
      </trkpt>
      <trkpt lat="45.2011" lon="6.20265">
        <ele>2088.98</ele>
        <time>2022-07-17T13:09:29Z</time>
      </trkpt>
      <trkpt lat="45.20116" lon="6.20273">
        <ele>2089.969</ele>
        <time>2022-07-17T13:09:34Z</time>
      </trkpt>
      <trkpt lat="45.20123" lon="6.20279">
        <ele>2090.632</ele>
        <time>2022-07-17T13:09:39Z</time>
      </trkpt>
      <trkpt lat="45.20129" lon="6.20285">
        <ele>2090.75</ele>
        <time>2022-07-17T13:09:44Z</time>
      </trkpt>
      <trkpt lat="45.20137" lon="6.20291">
        <ele>2091.404</ele>
        <time>2022-07-17T13:09:49Z</time>
      </trkpt>
      <trkpt lat="45.20144" lon="6.20295">
        <ele>2091.996</ele>
        <time>2022-07-17T13:09:54Z</time>
      </trkpt>
      <trkpt lat="45.20151" lon="6.203">
        <ele>2093.27</ele>
        <time>2022-07-17T13:09:59Z</time>
      </trkpt>
      <trkpt lat="45.20157" lon="6.20305">
        <ele>2094.228</ele>
        <time>2022-07-17T13:10:04Z</time>
      </trkpt>
      <trkpt lat="45.20162" lon="6.20309">
        <ele>2094.944</ele>
        <time>2022-07-17T13:10:09Z</time>
      </trkpt>
      <trkpt lat="45.20167" lon="6.20316">
        <ele>2095.557</ele>
        <time>2022-07-17T13:10:14Z</time>
      </trkpt>
      <trkpt lat="45.20171" lon="6.20321">
        <ele>2096.512</ele>
        <time>2022-07-17T13:10:19Z</time>
      </trkpt>
      <trkpt lat="45.20174" lon="6.20326">
        <ele>2097.598</ele>
        <time>2022-07-17T13:10:24Z</time>
      </trkpt>
      <trkpt lat="45.20177" lon="6.20332">
        <ele>2098.606</ele>
        <time>2022-07-17T13:10:29Z</time>
      </trkpt>
      <trkpt lat="45.20181" lon="6.20339">
        <ele>2099.45</ele>
        <time>2022-07-17T13:10:34Z</time>
      </trkpt>
      <trkpt lat="45.20185" lon="6.20346">
        <ele>2100.715</ele>
        <time>2022-07-17T13:10:39Z</time>
      </trkpt>
      <trkpt lat="45.20189" lon="6.20353">
        <ele>2102.356</ele>
        <time>2022-07-17T13:10:44Z</time>
      </trkpt>
      <trkpt lat="45.20192" lon="6.20359">
        <ele>2102.44</ele>
        <time>2022-07-17T13:10:49Z</time>
      </trkpt>
      <trkpt lat="45.20196" lon="6.20363">
        <ele>2104.146</ele>
        <time>2022-07-17T13:10:54Z</time>
      </trkpt>
      <trkpt lat="45.20199" lon="6.20367">
        <ele>2105.777</ele>
        <time>2022-07-17T13:10:59Z</time>
      </trkpt>
      <trkpt lat="45.20204" lon="6.2037">
        <ele>2107.607</ele>
        <time>2022-07-17T13:11:04Z</time>
      </trkpt>
      <trkpt lat="45.20208" lon="6.20373">
        <ele>2108.821</ele>
        <time>2022-07-17T13:11:09Z</time>
      </trkpt>
      <trkpt lat="45.20212" lon="6.20376">
        <ele>2109.468</ele>
        <time>2022-07-17T13:11:14Z</time>
      </trkpt>
      <trkpt lat="45.20215" lon="6.20379">
        <ele>2110.059</ele>
        <time>2022-07-17T13:11:19Z</time>
      </trkpt>
      <trkpt lat="45.2022" lon="6.20383">
        <ele>2111.652</ele>
        <time>2022-07-17T13:11:24Z</time>
      </trkpt>
      <trkpt lat="45.20224" lon="6.20387">
        <ele>2112.288</ele>
        <time>2022-07-17T13:11:29Z</time>
      </trkpt>
      <trkpt lat="45.20227" lon="6.2039">
        <ele>2113.167</ele>
        <time>2022-07-17T13:11:34Z</time>
      </trkpt>
      <trkpt lat="45.20231" lon="6.20393">
        <ele>2113.836</ele>
        <time>2022-07-17T13:11:39Z</time>
      </trkpt>
      <trkpt lat="45.20234" lon="6.20395">
        <ele>2114.826</ele>
        <time>2022-07-17T13:11:44Z</time>
      </trkpt>
      <trkpt lat="45.20238" lon="6.20397">
        <ele>2115.856</ele>
        <time>2022-07-17T13:11:49Z</time>
      </trkpt>
      <trkpt lat="45.20242" lon="6.20399">
        <ele>2117.034</ele>
        <time>2022-07-17T13:11:54Z</time>
      </trkpt>
      <trkpt lat="45.20246" lon="6.20403">
        <ele>2117.86</ele>
        <time>2022-07-17T13:11:59Z</time>
      </trkpt>
      <trkpt lat="45.20251" lon="6.20405">
        <ele>2118.594</ele>
        <time>2022-07-17T13:12:04Z</time>
      </trkpt>
      <trkpt lat="45.20255" lon="6.20409">
        <ele>2119.11</ele>
        <time>2022-07-17T13:12:09Z</time>
      </trkpt>
      <trkpt lat="45.2026" lon="6.20411">
        <ele>2120.137</ele>
        <time>2022-07-17T13:12:14Z</time>
      </trkpt>
      <trkpt lat="45.20264" lon="6.20413">
        <ele>2121.21</ele>
        <time>2022-07-17T13:12:19Z</time>
      </trkpt>
      <trkpt lat="45.20269" lon="6.20415">
        <ele>2122.301</ele>
        <time>2022-07-17T13:12:24Z</time>
      </trkpt>
      <trkpt lat="45.20273" lon="6.20418">
        <ele>2123.093</ele>
        <time>2022-07-17T13:12:29Z</time>
      </trkpt>
      <trkpt lat="45.20277" lon="6.2042">
        <ele>2124.48</ele>
        <time>2022-07-17T13:12:34Z</time>
      </trkpt>
      <trkpt lat="45.20282" lon="6.20424">
        <ele>2125.339</ele>
        <time>2022-07-17T13:12:39Z</time>
      </trkpt>
      <trkpt lat="45.20286" lon="6.20429">
        <ele>2126.121</ele>
        <time>2022-07-17T13:12:44Z</time>
      </trkpt>
      <trkpt lat="45.2029" lon="6.20433">
        <ele>2126.943</ele>
        <time>2022-07-17T13:12:49Z</time>
      </trkpt>
      <trkpt lat="45.20295" lon="6.20436">
        <ele>2128.33</ele>
        <time>2022-07-17T13:12:54Z</time>
      </trkpt>
      <trkpt lat="45.20298" lon="6.20441">
        <ele>2129.133</ele>
        <time>2022-07-17T13:12:59Z</time>
      </trkpt>
      <trkpt lat="45.20302" lon="6.20445">
        <ele>2130.093</ele>
        <time>2022-07-17T13:13:04Z</time>
      </trkpt>
      <trkpt lat="45.20306" lon="6.20448">
        <ele>2130.544</ele>
        <time>2022-07-17T13:13:09Z</time>
      </trkpt>
      <trkpt lat="45.2031" lon="6.20453">
        <ele>2131.486</ele>
        <time>2022-07-17T13:13:14Z</time>
      </trkpt>
      <trkpt lat="45.20315" lon="6.20459">
        <ele>2131.544</ele>
        <time>2022-07-17T13:13:19Z</time>
      </trkpt>
      <trkpt lat="45.20319" lon="6.20464">
        <ele>2132.173</ele>
        <time>2022-07-17T13:13:24Z</time>
      </trkpt>
      <trkpt lat="45.20323" lon="6.20469">
        <ele>2133.269</ele>
        <time>2022-07-17T13:13:29Z</time>
      </trkpt>
      <trkpt lat="45.20328" lon="6.20473">
        <ele>2134.839</ele>
        <time>2022-07-17T13:13:34Z</time>
      </trkpt>
      <trkpt lat="45.20333" lon="6.20476">
        <ele>2136.584</ele>
        <time>2022-07-17T13:13:39Z</time>
      </trkpt>
      <trkpt lat="45.20338" lon="6.20479">
        <ele>2137.652</ele>
        <time>2022-07-17T13:13:44Z</time>
      </trkpt>
      <trkpt lat="45.20343" lon="6.20483">
        <ele>2138.881</ele>
        <time>2022-07-17T13:13:49Z</time>
      </trkpt>
      <trkpt lat="45.20347" lon="6.20486">
        <ele>2140.174</ele>
        <time>2022-07-17T13:13:54Z</time>
      </trkpt>
      <trkpt lat="45.20352" lon="6.20489">
        <ele>2140.549</ele>
        <time>2022-07-17T13:13:59Z</time>
      </trkpt>
      <trkpt lat="45.20356" lon="6.20491">
        <ele>2141.672</ele>
        <time>2022-07-17T13:14:04Z</time>
      </trkpt>
      <trkpt lat="45.20361" lon="6.20494">
        <ele>2142.395</ele>
        <time>2022-07-17T13:14:09Z</time>
      </trkpt>
      <trkpt lat="45.20365" lon="6.20496">
        <ele>2143.486</ele>
        <time>2022-07-17T13:14:14Z</time>
      </trkpt>
      <trkpt lat="45.20369" lon="6.20499">
        <ele>2143.888</ele>
        <time>2022-07-17T13:14:19Z</time>
      </trkpt>
      <trkpt lat="45.20374" lon="6.205">
        <ele>2144.718</ele>
        <time>2022-07-17T13:14:24Z</time>
      </trkpt>
      <trkpt lat="45.2038" lon="6.20501">
        <ele>2145.117</ele>
        <time>2022-07-17T13:14:29Z</time>
      </trkpt>
      <trkpt lat="45.20386" lon="6.20502">
        <ele>2145.356</ele>
        <time>2022-07-17T13:14:34Z</time>
      </trkpt>
      <trkpt lat="45.20391" lon="6.20504">
        <ele>2145.835</ele>
        <time>2022-07-17T13:14:39Z</time>
      </trkpt>
      <trkpt lat="45.20398" lon="6.20505">
        <ele>2146.611</ele>
        <time>2022-07-17T13:14:44Z</time>
      </trkpt>
      <trkpt lat="45.20404" lon="6.20506">
        <ele>2147.872</ele>
        <time>2022-07-17T13:14:49Z</time>
      </trkpt>
      <trkpt lat="45.2041" lon="6.20507">
        <ele>2148.769</ele>
        <time>2022-07-17T13:14:54Z</time>
      </trkpt>
      <trkpt lat="45.20415" lon="6.20508">
        <ele>2149.743</ele>
        <time>2022-07-17T13:14:59Z</time>
      </trkpt>
      <trkpt lat="45.20421" lon="6.2051">
        <ele>2150.491</ele>
        <time>2022-07-17T13:15:04Z</time>
      </trkpt>
      <trkpt lat="45.20428" lon="6.20512">
        <ele>2150.781</ele>
        <time>2022-07-17T13:15:09Z</time>
      </trkpt>
      <trkpt lat="45.20435" lon="6.20515">
        <ele>2150.683</ele>
        <time>2022-07-17T13:15:14Z</time>
      </trkpt>
      <trkpt lat="45.20442" lon="6.20518">
        <ele>2151.475</ele>
        <time>2022-07-17T13:15:19Z</time>
      </trkpt>
      <trkpt lat="45.20447" lon="6.20521">
        <ele>2151.897</ele>
        <time>2022-07-17T13:15:24Z</time>
      </trkpt>
      <trkpt lat="45.20453" lon="6.20527">
        <ele>2151.889</ele>
        <time>2022-07-17T13:15:29Z</time>
      </trkpt>
      <trkpt lat="45.20458" lon="6.20531">
        <ele>2152.461</ele>
        <time>2022-07-17T13:15:34Z</time>
      </trkpt>
      <trkpt lat="45.20462" lon="6.20535">
        <ele>2153.739</ele>
        <time>2022-07-17T13:15:39Z</time>
      </trkpt>
      <trkpt lat="45.20468" lon="6.2054">
        <ele>2155.027</ele>
        <time>2022-07-17T13:15:44Z</time>
      </trkpt>
      <trkpt lat="45.20473" lon="6.20545">
        <ele>2156.273</ele>
        <time>2022-07-17T13:15:49Z</time>
      </trkpt>
      <trkpt lat="45.2048" lon="6.20551">
        <ele>2157.522</ele>
        <time>2022-07-17T13:15:54Z</time>
      </trkpt>
      <trkpt lat="45.20486" lon="6.20557">
        <ele>2158.143</ele>
        <time>2022-07-17T13:15:59Z</time>
      </trkpt>
      <trkpt lat="45.2049" lon="6.20561">
        <ele>2159.928</ele>
        <time>2022-07-17T13:16:04Z</time>
      </trkpt>
      <trkpt lat="45.20495" lon="6.20566">
        <ele>2159.264</ele>
        <time>2022-07-17T13:16:09Z</time>
      </trkpt>
      <trkpt lat="45.20503" lon="6.20574">
        <ele>2159.744</ele>
        <time>2022-07-17T13:16:14Z</time>
      </trkpt>
      <trkpt lat="45.20512" lon="6.20583">
        <ele>2161.009</ele>
        <time>2022-07-17T13:16:19Z</time>
      </trkpt>
      <trkpt lat="45.20521" lon="6.20589">
        <ele>2161.894</ele>
        <time>2022-07-17T13:16:24Z</time>
      </trkpt>
      <trkpt lat="45.20528" lon="6.20596">
        <ele>2162.504</ele>
        <time>2022-07-17T13:16:29Z</time>
      </trkpt>
      <trkpt lat="45.20537" lon="6.20601">
        <ele>2164.191</ele>
        <time>2022-07-17T13:16:34Z</time>
      </trkpt>
      <trkpt lat="45.20544" lon="6.20607">
        <ele>2164.88</ele>
        <time>2022-07-17T13:16:39Z</time>
      </trkpt>
      <trkpt lat="45.20553" lon="6.20612">
        <ele>2165.849</ele>
        <time>2022-07-17T13:16:44Z</time>
      </trkpt>
      <trkpt lat="45.20561" lon="6.20618">
        <ele>2167.303</ele>
        <time>2022-07-17T13:16:49Z</time>
      </trkpt>
      <trkpt lat="45.20568" lon="6.20624">
        <ele>2168.203</ele>
        <time>2022-07-17T13:16:54Z</time>
      </trkpt>
      <trkpt lat="45.20574" lon="6.20631">
        <ele>2168.409</ele>
        <time>2022-07-17T13:16:59Z</time>
      </trkpt>
      <trkpt lat="45.20581" lon="6.20638">
        <ele>2169.845</ele>
        <time>2022-07-17T13:17:04Z</time>
      </trkpt>
      <trkpt lat="45.20588" lon="6.20647">
        <ele>2170.989</ele>
        <time>2022-07-17T13:17:09Z</time>
      </trkpt>
      <trkpt lat="45.20595" lon="6.20658">
        <ele>2171.648</ele>
        <time>2022-07-17T13:17:14Z</time>
      </trkpt>
      <trkpt lat="45.20601" lon="6.20667">
        <ele>2172.786</ele>
        <time>2022-07-17T13:17:19Z</time>
      </trkpt>
      <trkpt lat="45.20607" lon="6.20677">
        <ele>2173.536</ele>
        <time>2022-07-17T13:17:24Z</time>
      </trkpt>
      <trkpt lat="45.20613" lon="6.20686">
        <ele>2174.765</ele>
        <time>2022-07-17T13:17:29Z</time>
      </trkpt>
      <trkpt lat="45.20618" lon="6.20695">
        <ele>2175.53</ele>
        <time>2022-07-17T13:17:34Z</time>
      </trkpt>
      <trkpt lat="45.20622" lon="6.20703">
        <ele>2176.552</ele>
        <time>2022-07-17T13:17:39Z</time>
      </trkpt>
      <trkpt lat="45.20626" lon="6.2071">
        <ele>2177.486</ele>
        <time>2022-07-17T13:17:44Z</time>
      </trkpt>
      <trkpt lat="45.20632" lon="6.20717">
        <ele>2179.111</ele>
        <time>2022-07-17T13:17:49Z</time>
      </trkpt>
      <trkpt lat="45.20637" lon="6.20724">
        <ele>2180.107</ele>
        <time>2022-07-17T13:17:54Z</time>
      </trkpt>
      <trkpt lat="45.20642" lon="6.20732">
        <ele>2181.187</ele>
        <time>2022-07-17T13:17:59Z</time>
      </trkpt>
      <trkpt lat="45.20647" lon="6.20739">
        <ele>2181.389</ele>
        <time>2022-07-17T13:18:04Z</time>
      </trkpt>
      <trkpt lat="45.20653" lon="6.20746">
        <ele>2181.08</ele>
        <time>2022-07-17T13:18:09Z</time>
      </trkpt>
      <trkpt lat="45.20658" lon="6.20752">
        <ele>2181.648</ele>
        <time>2022-07-17T13:18:14Z</time>
      </trkpt>
      <trkpt lat="45.20664" lon="6.20758">
        <ele>2181.929</ele>
        <time>2022-07-17T13:18:19Z</time>
      </trkpt>
      <trkpt lat="45.20672" lon="6.20764">
        <ele>2182.851</ele>
        <time>2022-07-17T13:18:24Z</time>
      </trkpt>
      <trkpt lat="45.20678" lon="6.2077">
        <ele>2185.4</ele>
        <time>2022-07-17T13:18:29Z</time>
      </trkpt>
      <trkpt lat="45.20684" lon="6.20775">
        <ele>2186.401</ele>
        <time>2022-07-17T13:18:34Z</time>
      </trkpt>
      <trkpt lat="45.20689" lon="6.2078">
        <ele>2187.747</ele>
        <time>2022-07-17T13:18:39Z</time>
      </trkpt>
      <trkpt lat="45.20693" lon="6.20788">
        <ele>2190.208</ele>
        <time>2022-07-17T13:18:44Z</time>
      </trkpt>
      <trkpt lat="45.20696" lon="6.20795">
        <ele>2190.902</ele>
        <time>2022-07-17T13:18:49Z</time>
      </trkpt>
      <trkpt lat="45.20698" lon="6.20803">
        <ele>2192.091</ele>
        <time>2022-07-17T13:18:54Z</time>
      </trkpt>
      <trkpt lat="45.20695" lon="6.2081">
        <ele>2191.549</ele>
        <time>2022-07-17T13:18:59Z</time>
      </trkpt>
      <trkpt lat="45.2069" lon="6.20818">
        <ele>2190.599</ele>
        <time>2022-07-17T13:19:04Z</time>
      </trkpt>
      <trkpt lat="45.20685" lon="6.20825">
        <ele>2190.611</ele>
        <time>2022-07-17T13:19:09Z</time>
      </trkpt>
      <trkpt lat="45.20681" lon="6.20832">
        <ele>2188.886</ele>
        <time>2022-07-17T13:19:14Z</time>
      </trkpt>
      <trkpt lat="45.20677" lon="6.20838">
        <ele>2187.185</ele>
        <time>2022-07-17T13:19:19Z</time>
      </trkpt>
      <trkpt lat="45.20676" lon="6.20832">
        <ele>2188.904</ele>
        <time>2022-07-17T13:19:24Z</time>
      </trkpt>
      <trkpt lat="45.20677" lon="6.20833">
        <ele>2188.842</ele>
        <time>2022-07-17T13:19:29Z</time>
      </trkpt>
      <trkpt lat="45.20677" lon="6.20833">
        <ele>2188.795</ele>
        <time>2022-07-17T13:19:34Z</time>
      </trkpt>
      <trkpt lat="45.20676" lon="6.20834">
        <ele>2188.61</ele>
        <time>2022-07-17T13:19:39Z</time>
      </trkpt>
      <trkpt lat="45.20681" lon="6.20838">
        <ele>2187.643</ele>
        <time>2022-07-17T13:19:44Z</time>
      </trkpt>
      <trkpt lat="45.2068" lon="6.2084">
        <ele>2186.81</ele>
        <time>2022-07-17T13:19:49Z</time>
      </trkpt>
      <trkpt lat="45.20681" lon="6.20841">
        <ele>2187.19</ele>
        <time>2022-07-17T13:19:54Z</time>
      </trkpt>
      <trkpt lat="45.20681" lon="6.2084">
        <ele>2186.996</ele>
        <time>2022-07-17T13:19:59Z</time>
      </trkpt>
      <trkpt lat="45.20681" lon="6.2084">
        <ele>2186.939</ele>
        <time>2022-07-17T13:20:04Z</time>
      </trkpt>
      <trkpt lat="45.20681" lon="6.2084">
        <ele>2186.922</ele>
        <time>2022-07-17T13:20:09Z</time>
      </trkpt>
      <trkpt lat="45.20681" lon="6.20839">
        <ele>2188.678</ele>
        <time>2022-07-17T13:20:14Z</time>
      </trkpt>
      <trkpt lat="45.2068" lon="6.20836">
        <ele>2189.592</ele>
        <time>2022-07-17T13:20:19Z</time>
      </trkpt>
      <trkpt lat="45.2068" lon="6.20837">
        <ele>2189.677</ele>
        <time>2022-07-17T13:20:24Z</time>
      </trkpt>
      <trkpt lat="45.2068" lon="6.20837">
        <ele>2190.423</ele>
        <time>2022-07-17T13:20:29Z</time>
      </trkpt>
      <trkpt lat="45.2068" lon="6.20837">
        <ele>2190.447</ele>
        <time>2022-07-17T13:20:34Z</time>
      </trkpt>
      <trkpt lat="45.20681" lon="6.20837">
        <ele>2189.792</ele>
        <time>2022-07-17T13:20:39Z</time>
      </trkpt>
      <trkpt lat="45.20681" lon="6.20838">
        <ele>2189.187</ele>
        <time>2022-07-17T13:20:44Z</time>
      </trkpt>
      <trkpt lat="45.20681" lon="6.20838">
        <ele>2189.087</ele>
        <time>2022-07-17T13:20:49Z</time>
      </trkpt>
      <trkpt lat="45.20681" lon="6.20837">
        <ele>2189.62</ele>
        <time>2022-07-17T13:20:54Z</time>
      </trkpt>
      <trkpt lat="45.20681" lon="6.20838">
        <ele>2190.269</ele>
        <time>2022-07-17T13:20:59Z</time>
      </trkpt>
      <trkpt lat="45.2068" lon="6.20836">
        <ele>2190.143</ele>
        <time>2022-07-17T13:21:04Z</time>
      </trkpt>
      <trkpt lat="45.2068" lon="6.20837">
        <ele>2189.83</ele>
        <time>2022-07-17T13:21:09Z</time>
      </trkpt>
      <trkpt lat="45.2068" lon="6.20836">
        <ele>2190.119</ele>
        <time>2022-07-17T13:21:14Z</time>
      </trkpt>
      <trkpt lat="45.20681" lon="6.20836">
        <ele>2191.23</ele>
        <time>2022-07-17T13:21:19Z</time>
      </trkpt>
      <trkpt lat="45.20681" lon="6.20836">
        <ele>2191.619</ele>
        <time>2022-07-17T13:21:24Z</time>
      </trkpt>
      <trkpt lat="45.20681" lon="6.20836">
        <ele>2190.614</ele>
        <time>2022-07-17T13:21:29Z</time>
      </trkpt>
      <trkpt lat="45.2068" lon="6.20837">
        <ele>2190.969</ele>
        <time>2022-07-17T13:21:34Z</time>
      </trkpt>
      <trkpt lat="45.2068" lon="6.20837">
        <ele>2191.3</ele>
        <time>2022-07-17T13:21:39Z</time>
      </trkpt>
      <trkpt lat="45.20681" lon="6.20838">
        <ele>2190.944</ele>
        <time>2022-07-17T13:21:44Z</time>
      </trkpt>
      <trkpt lat="45.20681" lon="6.20838">
        <ele>2190.475</ele>
        <time>2022-07-17T13:21:49Z</time>
      </trkpt>
      <trkpt lat="45.20681" lon="6.20838">
        <ele>2190.173</ele>
        <time>2022-07-17T13:21:54Z</time>
      </trkpt>
      <trkpt lat="45.20681" lon="6.20838">
        <ele>2190.161</ele>
        <time>2022-07-17T13:21:59Z</time>
      </trkpt>
      <trkpt lat="45.2068" lon="6.20837">
        <ele>2189.826</ele>
        <time>2022-07-17T13:22:04Z</time>
      </trkpt>
      <trkpt lat="45.2068" lon="6.20837">
        <ele>2189.532</ele>
        <time>2022-07-17T13:22:09Z</time>
      </trkpt>
      <trkpt lat="45.2068" lon="6.20837">
        <ele>2189.51</ele>
        <time>2022-07-17T13:22:14Z</time>
      </trkpt>
      <trkpt lat="45.2068" lon="6.20837">
        <ele>2189.523</ele>
        <time>2022-07-17T13:22:19Z</time>
      </trkpt>
      <trkpt lat="45.2068" lon="6.20837">
        <ele>2189.525</ele>
        <time>2022-07-17T13:22:24Z</time>
      </trkpt>
      <trkpt lat="45.2068" lon="6.20837">
        <ele>2189.527</ele>
        <time>2022-07-17T13:22:29Z</time>
      </trkpt>
      <trkpt lat="45.2068" lon="6.20837">
        <ele>2189.529</ele>
        <time>2022-07-17T13:22:34Z</time>
      </trkpt>
      <trkpt lat="45.2068" lon="6.20837">
        <ele>2189.533</ele>
        <time>2022-07-17T13:22:39Z</time>
      </trkpt>
      <trkpt lat="45.20681" lon="6.20837">
        <ele>2189.221</ele>
        <time>2022-07-17T13:22:44Z</time>
      </trkpt>
      <trkpt lat="45.20681" lon="6.20837">
        <ele>2189.161</ele>
        <time>2022-07-17T13:22:49Z</time>
      </trkpt>
      <trkpt lat="45.20681" lon="6.20837">
        <ele>2189.121</ele>
        <time>2022-07-17T13:22:54Z</time>
      </trkpt>
      <trkpt lat="45.20681" lon="6.20837">
        <ele>2188.611</ele>
        <time>2022-07-17T13:22:59Z</time>
      </trkpt>
      <trkpt lat="45.20681" lon="6.20837">
        <ele>2188.61</ele>
        <time>2022-07-17T13:23:04Z</time>
      </trkpt>
      <trkpt lat="45.20681" lon="6.20837">
        <ele>2188.021</ele>
        <time>2022-07-17T13:23:09Z</time>
      </trkpt>
      <trkpt lat="45.2068" lon="6.20839">
        <ele>2188.21</ele>
        <time>2022-07-17T13:23:14Z</time>
      </trkpt>
      <trkpt lat="45.2068" lon="6.20839">
        <ele>2188.161</ele>
        <time>2022-07-17T13:23:19Z</time>
      </trkpt>
      <trkpt lat="45.20681" lon="6.20839">
        <ele>2188.456</ele>
        <time>2022-07-17T13:23:24Z</time>
      </trkpt>
      <trkpt lat="45.20681" lon="6.20839">
        <ele>2188.976</ele>
        <time>2022-07-17T13:23:29Z</time>
      </trkpt>
      <trkpt lat="45.20681" lon="6.20839">
        <ele>2189.247</ele>
        <time>2022-07-17T13:23:34Z</time>
      </trkpt>
      <trkpt lat="45.20681" lon="6.20839">
        <ele>2189.248</ele>
        <time>2022-07-17T13:23:39Z</time>
      </trkpt>
      <trkpt lat="45.20681" lon="6.20839">
        <ele>2189.249</ele>
        <time>2022-07-17T13:23:44Z</time>
      </trkpt>
      <trkpt lat="45.20681" lon="6.20839">
        <ele>2189.807</ele>
        <time>2022-07-17T13:23:49Z</time>
      </trkpt>
      <trkpt lat="45.20681" lon="6.20839">
        <ele>2190.084</ele>
        <time>2022-07-17T13:23:54Z</time>
      </trkpt>
      <trkpt lat="45.20681" lon="6.20839">
        <ele>2190.447</ele>
        <time>2022-07-17T13:23:59Z</time>
      </trkpt>
      <trkpt lat="45.2068" lon="6.20839">
        <ele>2190.306</ele>
        <time>2022-07-17T13:24:04Z</time>
      </trkpt>
      <trkpt lat="45.2068" lon="6.20839">
        <ele>2190.474</ele>
        <time>2022-07-17T13:24:09Z</time>
      </trkpt>
      <trkpt lat="45.2068" lon="6.20839">
        <ele>2190.471</ele>
        <time>2022-07-17T13:24:14Z</time>
      </trkpt>
      <trkpt lat="45.2068" lon="6.20839">
        <ele>2190.471</ele>
        <time>2022-07-17T13:24:19Z</time>
      </trkpt>
      <trkpt lat="45.2068" lon="6.20839">
        <ele>2190.471</ele>
        <time>2022-07-17T13:24:24Z</time>
      </trkpt>
      <trkpt lat="45.2068" lon="6.20839">
        <ele>2190.471</ele>
        <time>2022-07-17T13:24:29Z</time>
      </trkpt>
      <trkpt lat="45.2068" lon="6.20839">
        <ele>2190.471</ele>
        <time>2022-07-17T13:24:34Z</time>
      </trkpt>
      <trkpt lat="45.2068" lon="6.20839">
        <ele>2190.469</ele>
        <time>2022-07-17T13:24:39Z</time>
      </trkpt>
      <trkpt lat="45.2068" lon="6.20839">
        <ele>2190.471</ele>
        <time>2022-07-17T13:24:44Z</time>
      </trkpt>
      <trkpt lat="45.2068" lon="6.20839">
        <ele>2190.469</ele>
        <time>2022-07-17T13:24:49Z</time>
      </trkpt>
      <trkpt lat="45.2068" lon="6.20839">
        <ele>2190.47</ele>
        <time>2022-07-17T13:24:54Z</time>
      </trkpt>
      <trkpt lat="45.20681" lon="6.20838">
        <ele>2190.888</ele>
        <time>2022-07-17T13:24:59Z</time>
      </trkpt>
      <trkpt lat="45.20681" lon="6.20837">
        <ele>2190.982</ele>
        <time>2022-07-17T13:25:04Z</time>
      </trkpt>
      <trkpt lat="45.2068" lon="6.20837">
        <ele>2191.033</ele>
        <time>2022-07-17T13:25:09Z</time>
      </trkpt>
      <trkpt lat="45.2068" lon="6.20837">
        <ele>2191.021</ele>
        <time>2022-07-17T13:25:14Z</time>
      </trkpt>
      <trkpt lat="45.2068" lon="6.20837">
        <ele>2191.022</ele>
        <time>2022-07-17T13:25:19Z</time>
      </trkpt>
      <trkpt lat="45.2068" lon="6.20837">
        <ele>2191.018</ele>
        <time>2022-07-17T13:25:24Z</time>
      </trkpt>
      <trkpt lat="45.2068" lon="6.20837">
        <ele>2191.015</ele>
        <time>2022-07-17T13:25:29Z</time>
      </trkpt>
      <trkpt lat="45.2068" lon="6.20837">
        <ele>2189.968</ele>
        <time>2022-07-17T13:25:34Z</time>
      </trkpt>
      <trkpt lat="45.2068" lon="6.20837">
        <ele>2190.047</ele>
        <time>2022-07-17T13:25:39Z</time>
      </trkpt>
      <trkpt lat="45.20681" lon="6.20837">
        <ele>2189.913</ele>
        <time>2022-07-17T13:25:44Z</time>
      </trkpt>
      <trkpt lat="45.20681" lon="6.20837">
        <ele>2189.907</ele>
        <time>2022-07-17T13:25:49Z</time>
      </trkpt>
      <trkpt lat="45.20681" lon="6.20837">
        <ele>2189.91</ele>
        <time>2022-07-17T13:25:54Z</time>
      </trkpt>
      <trkpt lat="45.2068" lon="6.20837">
        <ele>2189.61</ele>
        <time>2022-07-17T13:25:59Z</time>
      </trkpt>
      <trkpt lat="45.2068" lon="6.20837">
        <ele>2189.601</ele>
        <time>2022-07-17T13:26:04Z</time>
      </trkpt>
      <trkpt lat="45.2068" lon="6.20836">
        <ele>2189.522</ele>
        <time>2022-07-17T13:26:09Z</time>
      </trkpt>
      <trkpt lat="45.2068" lon="6.20836">
        <ele>2189.508</ele>
        <time>2022-07-17T13:26:14Z</time>
      </trkpt>
      <trkpt lat="45.2068" lon="6.20836">
        <ele>2189.509</ele>
        <time>2022-07-17T13:26:19Z</time>
      </trkpt>
      <trkpt lat="45.2068" lon="6.20836">
        <ele>2189.508</ele>
        <time>2022-07-17T13:26:24Z</time>
      </trkpt>
      <trkpt lat="45.2068" lon="6.20836">
        <ele>2189.509</ele>
        <time>2022-07-17T13:26:29Z</time>
      </trkpt>
      <trkpt lat="45.20679" lon="6.20836">
        <ele>2189.841</ele>
        <time>2022-07-17T13:26:34Z</time>
      </trkpt>
      <trkpt lat="45.20681" lon="6.20836">
        <ele>2191.522</ele>
        <time>2022-07-17T13:26:39Z</time>
      </trkpt>
      <trkpt lat="45.20681" lon="6.20836">
        <ele>2191.954</ele>
        <time>2022-07-17T13:26:44Z</time>
      </trkpt>
      <trkpt lat="45.20681" lon="6.20834">
        <ele>2191.259</ele>
        <time>2022-07-17T13:26:49Z</time>
      </trkpt>
      <trkpt lat="45.2068" lon="6.20831">
        <ele>2190.247</ele>
        <time>2022-07-17T13:26:54Z</time>
      </trkpt>
      <trkpt lat="45.2068" lon="6.2083">
        <ele>2190.395</ele>
        <time>2022-07-17T13:26:59Z</time>
      </trkpt>
      <trkpt lat="45.2068" lon="6.2083">
        <ele>2190.554</ele>
        <time>2022-07-17T13:27:04Z</time>
      </trkpt>
      <trkpt lat="45.2068" lon="6.2083">
        <ele>2190.611</ele>
        <time>2022-07-17T13:27:09Z</time>
      </trkpt>
      <trkpt lat="45.2068" lon="6.2083">
        <ele>2190.614</ele>
        <time>2022-07-17T13:27:14Z</time>
      </trkpt>
      <trkpt lat="45.2068" lon="6.2083">
        <ele>2190.616</ele>
        <time>2022-07-17T13:27:19Z</time>
      </trkpt>
      <trkpt lat="45.2068" lon="6.2083">
        <ele>2190.619</ele>
        <time>2022-07-17T13:27:24Z</time>
      </trkpt>
      <trkpt lat="45.2068" lon="6.2083">
        <ele>2190.623</ele>
        <time>2022-07-17T13:27:29Z</time>
      </trkpt>
      <trkpt lat="45.2068" lon="6.2083">
        <ele>2190.625</ele>
        <time>2022-07-17T13:27:34Z</time>
      </trkpt>
      <trkpt lat="45.2068" lon="6.2083">
        <ele>2190.63</ele>
        <time>2022-07-17T13:27:39Z</time>
      </trkpt>
      <trkpt lat="45.2068" lon="6.2083">
        <ele>2190.63</ele>
        <time>2022-07-17T13:27:44Z</time>
      </trkpt>
      <trkpt lat="45.2068" lon="6.2083">
        <ele>2190.633</ele>
        <time>2022-07-17T13:27:49Z</time>
      </trkpt>
      <trkpt lat="45.2068" lon="6.2083">
        <ele>2190.636</ele>
        <time>2022-07-17T13:27:54Z</time>
      </trkpt>
      <trkpt lat="45.2068" lon="6.2083">
        <ele>2190.638</ele>
        <time>2022-07-17T13:27:59Z</time>
      </trkpt>
      <trkpt lat="45.2068" lon="6.2083">
        <ele>2190.638</ele>
        <time>2022-07-17T13:28:04Z</time>
      </trkpt>
      <trkpt lat="45.2068" lon="6.2083">
        <ele>2190.639</ele>
        <time>2022-07-17T13:28:09Z</time>
      </trkpt>
      <trkpt lat="45.2068" lon="6.2083">
        <ele>2190.636</ele>
        <time>2022-07-17T13:28:14Z</time>
      </trkpt>
      <trkpt lat="45.2068" lon="6.2083">
        <ele>2189.489</ele>
        <time>2022-07-17T13:28:19Z</time>
      </trkpt>
      <trkpt lat="45.20681" lon="6.2083">
        <ele>2189.97</ele>
        <time>2022-07-17T13:28:24Z</time>
      </trkpt>
      <trkpt lat="45.20682" lon="6.20831">
        <ele>2189.311</ele>
        <time>2022-07-17T13:28:29Z</time>
      </trkpt>
      <trkpt lat="45.20682" lon="6.20833">
        <ele>2188.67</ele>
        <time>2022-07-17T13:28:34Z</time>
      </trkpt>
      <trkpt lat="45.20682" lon="6.20833">
        <ele>2189.164</ele>
        <time>2022-07-17T13:28:39Z</time>
      </trkpt>
      <trkpt lat="45.20682" lon="6.20832">
        <ele>2189.524</ele>
        <time>2022-07-17T13:28:44Z</time>
      </trkpt>
      <trkpt lat="45.20684" lon="6.20827">
        <ele>2189.398</ele>
        <time>2022-07-17T13:28:49Z</time>
      </trkpt>
      <trkpt lat="45.20691" lon="6.20809">
        <ele>2189.88</ele>
        <time>2022-07-17T13:28:54Z</time>
      </trkpt>
      <trkpt lat="45.20702" lon="6.20796">
        <ele>2190.752</ele>
        <time>2022-07-17T13:28:59Z</time>
      </trkpt>
      <trkpt lat="45.20716" lon="6.20796">
        <ele>2190.105</ele>
        <time>2022-07-17T13:29:04Z</time>
      </trkpt>
      <trkpt lat="45.20726" lon="6.20804">
        <ele>2189.613</ele>
        <time>2022-07-17T13:29:09Z</time>
      </trkpt>
      <trkpt lat="45.20739" lon="6.20814">
        <ele>2188.883</ele>
        <time>2022-07-17T13:29:14Z</time>
      </trkpt>
      <trkpt lat="45.20754" lon="6.2083">
        <ele>2188.829</ele>
        <time>2022-07-17T13:29:19Z</time>
      </trkpt>
      <trkpt lat="45.2077" lon="6.20841">
        <ele>2186.456</ele>
        <time>2022-07-17T13:29:24Z</time>
      </trkpt>
      <trkpt lat="45.20795" lon="6.20853">
        <ele>2185.868</ele>
        <time>2022-07-17T13:29:29Z</time>
      </trkpt>
      <trkpt lat="45.20808" lon="6.2086">
        <ele>2186.915</ele>
        <time>2022-07-17T13:29:34Z</time>
      </trkpt>
      <trkpt lat="45.20817" lon="6.20866">
        <ele>2186.758</ele>
        <time>2022-07-17T13:29:39Z</time>
      </trkpt>
      <trkpt lat="45.20835" lon="6.20879">
        <ele>2184.213</ele>
        <time>2022-07-17T13:29:44Z</time>
      </trkpt>
      <trkpt lat="45.20869" lon="6.20897">
        <ele>2177.008</ele>
        <time>2022-07-17T13:29:49Z</time>
      </trkpt>
      <trkpt lat="45.20903" lon="6.2091">
        <ele>2172.757</ele>
        <time>2022-07-17T13:29:54Z</time>
      </trkpt>
      <trkpt lat="45.20904" lon="6.20926">
        <ele>2168.303</ele>
        <time>2022-07-17T13:29:59Z</time>
      </trkpt>
      <trkpt lat="45.20893" lon="6.20933">
        <ele>2165.21</ele>
        <time>2022-07-17T13:30:04Z</time>
      </trkpt>
      <trkpt lat="45.20884" lon="6.20942">
        <ele>2163.442</ele>
        <time>2022-07-17T13:30:09Z</time>
      </trkpt>
      <trkpt lat="45.20885" lon="6.20944">
        <ele>2163.127</ele>
        <time>2022-07-17T13:30:14Z</time>
      </trkpt>
      <trkpt lat="45.20885" lon="6.20945">
        <ele>2162.648</ele>
        <time>2022-07-17T13:30:19Z</time>
      </trkpt>
      <trkpt lat="45.20885" lon="6.20945">
        <ele>2162.403</ele>
        <time>2022-07-17T13:30:24Z</time>
      </trkpt>
      <trkpt lat="45.20885" lon="6.20945">
        <ele>2162.838</ele>
        <time>2022-07-17T13:30:29Z</time>
      </trkpt>
      <trkpt lat="45.20885" lon="6.20945">
        <ele>2162.865</ele>
        <time>2022-07-17T13:30:34Z</time>
      </trkpt>
      <trkpt lat="45.20885" lon="6.20945">
        <ele>2162.865</ele>
        <time>2022-07-17T13:30:39Z</time>
      </trkpt>
      <trkpt lat="45.20885" lon="6.20945">
        <ele>2162.868</ele>
        <time>2022-07-17T13:30:44Z</time>
      </trkpt>
      <trkpt lat="45.20885" lon="6.20945">
        <ele>2163.052</ele>
        <time>2022-07-17T13:30:49Z</time>
      </trkpt>
      <trkpt lat="45.20885" lon="6.20945">
        <ele>2163.068</ele>
        <time>2022-07-17T13:30:54Z</time>
      </trkpt>
      <trkpt lat="45.20885" lon="6.20945">
        <ele>2163.071</ele>
        <time>2022-07-17T13:30:59Z</time>
      </trkpt>
      <trkpt lat="45.20885" lon="6.20945">
        <ele>2163.074</ele>
        <time>2022-07-17T13:31:04Z</time>
      </trkpt>
      <trkpt lat="45.20885" lon="6.20945">
        <ele>2163.707</ele>
        <time>2022-07-17T13:31:09Z</time>
      </trkpt>
      <trkpt lat="45.20885" lon="6.20945">
        <ele>2163.926</ele>
        <time>2022-07-17T13:31:14Z</time>
      </trkpt>
      <trkpt lat="45.20886" lon="6.20945">
        <ele>2163.484</ele>
        <time>2022-07-17T13:31:19Z</time>
      </trkpt>
      <trkpt lat="45.20886" lon="6.20945">
        <ele>2163.313</ele>
        <time>2022-07-17T13:31:24Z</time>
      </trkpt>
      <trkpt lat="45.20886" lon="6.20945">
        <ele>2163.28</ele>
        <time>2022-07-17T13:31:29Z</time>
      </trkpt>
      <trkpt lat="45.20886" lon="6.20945">
        <ele>2163.255</ele>
        <time>2022-07-17T13:31:34Z</time>
      </trkpt>
      <trkpt lat="45.20886" lon="6.20945">
        <ele>2163.253</ele>
        <time>2022-07-17T13:31:39Z</time>
      </trkpt>
      <trkpt lat="45.20886" lon="6.20945">
        <ele>2163.255</ele>
        <time>2022-07-17T13:31:44Z</time>
      </trkpt>
      <trkpt lat="45.20886" lon="6.20945">
        <ele>2163.257</ele>
        <time>2022-07-17T13:31:49Z</time>
      </trkpt>
      <trkpt lat="45.20886" lon="6.20945">
        <ele>2163.26</ele>
        <time>2022-07-17T13:31:54Z</time>
      </trkpt>
      <trkpt lat="45.20883" lon="6.20945">
        <ele>2162.424</ele>
        <time>2022-07-17T13:31:59Z</time>
      </trkpt>
      <trkpt lat="45.20886" lon="6.20953">
        <ele>2161.132</ele>
        <time>2022-07-17T13:32:04Z</time>
      </trkpt>
      <trkpt lat="45.20905" lon="6.20964">
        <ele>2154.486</ele>
        <time>2022-07-17T13:32:09Z</time>
      </trkpt>
      <trkpt lat="45.20913" lon="6.2099">
        <ele>2143.076</ele>
        <time>2022-07-17T13:32:14Z</time>
      </trkpt>
      <trkpt lat="45.20938" lon="6.20991">
        <ele>2138.034</ele>
        <time>2022-07-17T13:32:19Z</time>
      </trkpt>
      <trkpt lat="45.20961" lon="6.21005">
        <ele>2129.785</ele>
        <time>2022-07-17T13:32:24Z</time>
      </trkpt>
      <trkpt lat="45.20982" lon="6.21024">
        <ele>2123.291</ele>
        <time>2022-07-17T13:32:29Z</time>
      </trkpt>
      <trkpt lat="45.21005" lon="6.21022">
        <ele>2118.245</ele>
        <time>2022-07-17T13:32:34Z</time>
      </trkpt>
      <trkpt lat="45.21015" lon="6.21052">
        <ele>2110.758</ele>
        <time>2022-07-17T13:32:39Z</time>
      </trkpt>
      <trkpt lat="45.21019" lon="6.21087">
        <ele>2107.208</ele>
        <time>2022-07-17T13:32:44Z</time>
      </trkpt>
      <trkpt lat="45.21021" lon="6.21093">
        <ele>2106.835</ele>
        <time>2022-07-17T13:32:49Z</time>
      </trkpt>
      <trkpt lat="45.21022" lon="6.21093">
        <ele>2107.135</ele>
        <time>2022-07-17T13:32:54Z</time>
      </trkpt>
      <trkpt lat="45.21022" lon="6.21093">
        <ele>2107.269</ele>
        <time>2022-07-17T13:32:59Z</time>
      </trkpt>
      <trkpt lat="45.21022" lon="6.21093">
        <ele>2107.278</ele>
        <time>2022-07-17T13:33:04Z</time>
      </trkpt>
      <trkpt lat="45.21022" lon="6.21093">
        <ele>2107.279</ele>
        <time>2022-07-17T13:33:09Z</time>
      </trkpt>
      <trkpt lat="45.21022" lon="6.21093">
        <ele>2107.281</ele>
        <time>2022-07-17T13:33:14Z</time>
      </trkpt>
      <trkpt lat="45.21022" lon="6.21093">
        <ele>2107.066</ele>
        <time>2022-07-17T13:33:19Z</time>
      </trkpt>
      <trkpt lat="45.21021" lon="6.21093">
        <ele>2107.151</ele>
        <time>2022-07-17T13:33:24Z</time>
      </trkpt>
      <trkpt lat="45.21021" lon="6.21094">
        <ele>2106.659</ele>
        <time>2022-07-17T13:33:29Z</time>
      </trkpt>
      <trkpt lat="45.21021" lon="6.21094">
        <ele>2106.508</ele>
        <time>2022-07-17T13:33:34Z</time>
      </trkpt>
      <trkpt lat="45.21021" lon="6.21093">
        <ele>2106.906</ele>
        <time>2022-07-17T13:33:39Z</time>
      </trkpt>
      <trkpt lat="45.21021" lon="6.21093">
        <ele>2106.962</ele>
        <time>2022-07-17T13:33:44Z</time>
      </trkpt>
      <trkpt lat="45.21021" lon="6.21093">
        <ele>2106.956</ele>
        <time>2022-07-17T13:33:49Z</time>
      </trkpt>
      <trkpt lat="45.21021" lon="6.21094">
        <ele>2106.551</ele>
        <time>2022-07-17T13:33:54Z</time>
      </trkpt>
      <trkpt lat="45.2102" lon="6.21094">
        <ele>2106.087</ele>
        <time>2022-07-17T13:33:59Z</time>
      </trkpt>
      <trkpt lat="45.21018" lon="6.21123">
        <ele>2099.987</ele>
        <time>2022-07-17T13:34:04Z</time>
      </trkpt>
      <trkpt lat="45.21011" lon="6.21162">
        <ele>2096.056</ele>
        <time>2022-07-17T13:34:09Z</time>
      </trkpt>
      <trkpt lat="45.21022" lon="6.21187">
        <ele>2089.022</ele>
        <time>2022-07-17T13:34:14Z</time>
      </trkpt>
      <trkpt lat="45.2101" lon="6.21219">
        <ele>2077.95</ele>
        <time>2022-07-17T13:34:19Z</time>
      </trkpt>
      <trkpt lat="45.20988" lon="6.21257">
        <ele>2071.446</ele>
        <time>2022-07-17T13:34:24Z</time>
      </trkpt>
      <trkpt lat="45.20966" lon="6.21285">
        <ele>2068.014</ele>
        <time>2022-07-17T13:34:29Z</time>
      </trkpt>
      <trkpt lat="45.20962" lon="6.21292">
        <ele>2067.44</ele>
        <time>2022-07-17T13:34:34Z</time>
      </trkpt>
      <trkpt lat="45.20962" lon="6.21292">
        <ele>2067.456</ele>
        <time>2022-07-17T13:34:39Z</time>
      </trkpt>
      <trkpt lat="45.20961" lon="6.21294">
        <ele>2067.33</ele>
        <time>2022-07-17T13:34:44Z</time>
      </trkpt>
      <trkpt lat="45.20955" lon="6.21317">
        <ele>2055.877</ele>
        <time>2022-07-17T13:34:49Z</time>
      </trkpt>
      <trkpt lat="45.20928" lon="6.21338">
        <ele>2047.239</ele>
        <time>2022-07-17T13:34:54Z</time>
      </trkpt>
      <trkpt lat="45.209" lon="6.21359">
        <ele>2038.125</ele>
        <time>2022-07-17T13:34:59Z</time>
      </trkpt>
      <trkpt lat="45.20878" lon="6.21381">
        <ele>2031.09</ele>
        <time>2022-07-17T13:35:04Z</time>
      </trkpt>
      <trkpt lat="45.20875" lon="6.21406">
        <ele>2022.432</ele>
        <time>2022-07-17T13:35:09Z</time>
      </trkpt>
      <trkpt lat="45.20843" lon="6.21411">
        <ele>2012.265</ele>
        <time>2022-07-17T13:35:14Z</time>
      </trkpt>
      <trkpt lat="45.20836" lon="6.21411">
        <ele>2011.19</ele>
        <time>2022-07-17T13:35:19Z</time>
      </trkpt>
      <trkpt lat="45.20835" lon="6.21411">
        <ele>2011.248</ele>
        <time>2022-07-17T13:35:24Z</time>
      </trkpt>
      <trkpt lat="45.20835" lon="6.21411">
        <ele>2011.852</ele>
        <time>2022-07-17T13:35:29Z</time>
      </trkpt>
      <trkpt lat="45.20827" lon="6.21411">
        <ele>2010.856</ele>
        <time>2022-07-17T13:35:34Z</time>
      </trkpt>
      <trkpt lat="45.20799" lon="6.21419">
        <ele>2006.466</ele>
        <time>2022-07-17T13:35:39Z</time>
      </trkpt>
      <trkpt lat="45.20787" lon="6.21436">
        <ele>2004.97</ele>
        <time>2022-07-17T13:35:44Z</time>
      </trkpt>
      <trkpt lat="45.2081" lon="6.21449">
        <ele>1997.531</ele>
        <time>2022-07-17T13:35:49Z</time>
      </trkpt>
      <trkpt lat="45.20814" lon="6.21482">
        <ele>1988.513</ele>
        <time>2022-07-17T13:35:54Z</time>
      </trkpt>
      <trkpt lat="45.20825" lon="6.21527">
        <ele>1979.153</ele>
        <time>2022-07-17T13:35:59Z</time>
      </trkpt>
      <trkpt lat="45.20852" lon="6.21557">
        <ele>1971.2</ele>
        <time>2022-07-17T13:36:04Z</time>
      </trkpt>
      <trkpt lat="45.20869" lon="6.21561">
        <ele>1974.68</ele>
        <time>2022-07-17T13:36:09Z</time>
      </trkpt>
      <trkpt lat="45.2087" lon="6.21561">
        <ele>1974.192</ele>
        <time>2022-07-17T13:36:14Z</time>
      </trkpt>
      <trkpt lat="45.2087" lon="6.2156">
        <ele>1974.123</ele>
        <time>2022-07-17T13:36:19Z</time>
      </trkpt>
      <trkpt lat="45.2087" lon="6.2156">
        <ele>1974.019</ele>
        <time>2022-07-17T13:36:24Z</time>
      </trkpt>
      <trkpt lat="45.2087" lon="6.2156">
        <ele>1974.049</ele>
        <time>2022-07-17T13:36:29Z</time>
      </trkpt>
      <trkpt lat="45.2087" lon="6.2156">
        <ele>1974.049</ele>
        <time>2022-07-17T13:36:34Z</time>
      </trkpt>
      <trkpt lat="45.2087" lon="6.2156">
        <ele>1974.041</ele>
        <time>2022-07-17T13:36:39Z</time>
      </trkpt>
      <trkpt lat="45.2087" lon="6.2156">
        <ele>1974.034</ele>
        <time>2022-07-17T13:36:44Z</time>
      </trkpt>
      <trkpt lat="45.2087" lon="6.2156">
        <ele>1974.021</ele>
        <time>2022-07-17T13:36:49Z</time>
      </trkpt>
      <trkpt lat="45.2087" lon="6.2156">
        <ele>1974.017</ele>
        <time>2022-07-17T13:36:54Z</time>
      </trkpt>
      <trkpt lat="45.2087" lon="6.2156">
        <ele>1974.016</ele>
        <time>2022-07-17T13:36:59Z</time>
      </trkpt>
      <trkpt lat="45.2087" lon="6.2156">
        <ele>1974.019</ele>
        <time>2022-07-17T13:37:04Z</time>
      </trkpt>
      <trkpt lat="45.2087" lon="6.2156">
        <ele>1974.018</ele>
        <time>2022-07-17T13:37:09Z</time>
      </trkpt>
      <trkpt lat="45.2087" lon="6.2156">
        <ele>1974.023</ele>
        <time>2022-07-17T13:37:14Z</time>
      </trkpt>
      <trkpt lat="45.2087" lon="6.2156">
        <ele>1974.018</ele>
        <time>2022-07-17T13:37:19Z</time>
      </trkpt>
      <trkpt lat="45.2087" lon="6.2156">
        <ele>1974.025</ele>
        <time>2022-07-17T13:37:24Z</time>
      </trkpt>
      <trkpt lat="45.2087" lon="6.2156">
        <ele>1974.032</ele>
        <time>2022-07-17T13:37:29Z</time>
      </trkpt>
      <trkpt lat="45.2087" lon="6.2156">
        <ele>1974.031</ele>
        <time>2022-07-17T13:37:34Z</time>
      </trkpt>
      <trkpt lat="45.2087" lon="6.2156">
        <ele>1974.03</ele>
        <time>2022-07-17T13:37:39Z</time>
      </trkpt>
      <trkpt lat="45.2087" lon="6.21561">
        <ele>1973.738</ele>
        <time>2022-07-17T13:37:44Z</time>
      </trkpt>
      <trkpt lat="45.20876" lon="6.21584">
        <ele>1965.591</ele>
        <time>2022-07-17T13:37:49Z</time>
      </trkpt>
      <trkpt lat="45.20854" lon="6.21618">
        <ele>1955.597</ele>
        <time>2022-07-17T13:37:54Z</time>
      </trkpt>
      <trkpt lat="45.20886" lon="6.21636">
        <ele>1949.861</ele>
        <time>2022-07-17T13:37:59Z</time>
      </trkpt>
      <trkpt lat="45.20898" lon="6.21669">
        <ele>1941.015</ele>
        <time>2022-07-17T13:38:04Z</time>
      </trkpt>
      <trkpt lat="45.20892" lon="6.21712">
        <ele>1931.102</ele>
        <time>2022-07-17T13:38:09Z</time>
      </trkpt>
      <trkpt lat="45.20889" lon="6.21755">
        <ele>1929.492</ele>
        <time>2022-07-17T13:38:14Z</time>
      </trkpt>
      <trkpt lat="45.20892" lon="6.21758">
        <ele>1929.261</ele>
        <time>2022-07-17T13:38:19Z</time>
      </trkpt>
      <trkpt lat="45.20892" lon="6.21759">
        <ele>1929.463</ele>
        <time>2022-07-17T13:38:24Z</time>
      </trkpt>
      <trkpt lat="45.20892" lon="6.21759">
        <ele>1929.411</ele>
        <time>2022-07-17T13:38:29Z</time>
      </trkpt>
      <trkpt lat="45.20892" lon="6.21759">
        <ele>1929.381</ele>
        <time>2022-07-17T13:38:34Z</time>
      </trkpt>
      <trkpt lat="45.20892" lon="6.21759">
        <ele>1929.383</ele>
        <time>2022-07-17T13:38:39Z</time>
      </trkpt>
      <trkpt lat="45.20892" lon="6.21759">
        <ele>1929.38</ele>
        <time>2022-07-17T13:38:44Z</time>
      </trkpt>
      <trkpt lat="45.20892" lon="6.21759">
        <ele>1929.371</ele>
        <time>2022-07-17T13:38:49Z</time>
      </trkpt>
      <trkpt lat="45.20892" lon="6.21759">
        <ele>1929.371</ele>
        <time>2022-07-17T13:38:54Z</time>
      </trkpt>
      <trkpt lat="45.20892" lon="6.21759">
        <ele>1929.369</ele>
        <time>2022-07-17T13:38:59Z</time>
      </trkpt>
      <trkpt lat="45.20892" lon="6.21759">
        <ele>1929.37</ele>
        <time>2022-07-17T13:39:04Z</time>
      </trkpt>
      <trkpt lat="45.20892" lon="6.21759">
        <ele>1929.367</ele>
        <time>2022-07-17T13:39:09Z</time>
      </trkpt>
      <trkpt lat="45.20892" lon="6.21759">
        <ele>1929.361</ele>
        <time>2022-07-17T13:39:14Z</time>
      </trkpt>
      <trkpt lat="45.20892" lon="6.21759">
        <ele>1929.362</ele>
        <time>2022-07-17T13:39:19Z</time>
      </trkpt>
      <trkpt lat="45.20892" lon="6.21759">
        <ele>1929.356</ele>
        <time>2022-07-17T13:39:24Z</time>
      </trkpt>
      <trkpt lat="45.20892" lon="6.21759">
        <ele>1929.355</ele>
        <time>2022-07-17T13:39:29Z</time>
      </trkpt>
      <trkpt lat="45.20892" lon="6.21759">
        <ele>1929.344</ele>
        <time>2022-07-17T13:39:34Z</time>
      </trkpt>
      <trkpt lat="45.20892" lon="6.21759">
        <ele>1929.338</ele>
        <time>2022-07-17T13:39:39Z</time>
      </trkpt>
      <trkpt lat="45.20892" lon="6.21759">
        <ele>1929.333</ele>
        <time>2022-07-17T13:39:44Z</time>
      </trkpt>
      <trkpt lat="45.20892" lon="6.21759">
        <ele>1929.329</ele>
        <time>2022-07-17T13:39:49Z</time>
      </trkpt>
      <trkpt lat="45.20892" lon="6.21759">
        <ele>1929.325</ele>
        <time>2022-07-17T13:39:54Z</time>
      </trkpt>
      <trkpt lat="45.20892" lon="6.21759">
        <ele>1929.321</ele>
        <time>2022-07-17T13:39:59Z</time>
      </trkpt>
      <trkpt lat="45.20892" lon="6.21759">
        <ele>1929.316</ele>
        <time>2022-07-17T13:40:04Z</time>
      </trkpt>
      <trkpt lat="45.20896" lon="6.21765">
        <ele>1928.207</ele>
        <time>2022-07-17T13:40:09Z</time>
      </trkpt>
      <trkpt lat="45.20917" lon="6.21796">
        <ele>1922.652</ele>
        <time>2022-07-17T13:40:14Z</time>
      </trkpt>
      <trkpt lat="45.20916" lon="6.21832">
        <ele>1918.758</ele>
        <time>2022-07-17T13:40:19Z</time>
      </trkpt>
      <trkpt lat="45.20932" lon="6.2186">
        <ele>1907.674</ele>
        <time>2022-07-17T13:40:24Z</time>
      </trkpt>
      <trkpt lat="45.2093" lon="6.21891">
        <ele>1900.166</ele>
        <time>2022-07-17T13:40:29Z</time>
      </trkpt>
      <trkpt lat="45.20915" lon="6.21918">
        <ele>1890.978</ele>
        <time>2022-07-17T13:40:34Z</time>
      </trkpt>
      <trkpt lat="45.20921" lon="6.21949">
        <ele>1881.957</ele>
        <time>2022-07-17T13:40:39Z</time>
      </trkpt>
      <trkpt lat="45.20929" lon="6.21967">
        <ele>1877.241</ele>
        <time>2022-07-17T13:40:44Z</time>
      </trkpt>
      <trkpt lat="45.20931" lon="6.21991">
        <ele>1870.058</ele>
        <time>2022-07-17T13:40:49Z</time>
      </trkpt>
      <trkpt lat="45.20943" lon="6.22024">
        <ele>1863.15</ele>
        <time>2022-07-17T13:40:54Z</time>
      </trkpt>
      <trkpt lat="45.20942" lon="6.22053">
        <ele>1855.966</ele>
        <time>2022-07-17T13:40:59Z</time>
      </trkpt>
      <trkpt lat="45.20931" lon="6.22071">
        <ele>1847.373</ele>
        <time>2022-07-17T13:41:04Z</time>
      </trkpt>
      <trkpt lat="45.20926" lon="6.22098">
        <ele>1839.497</ele>
        <time>2022-07-17T13:41:09Z</time>
      </trkpt>
      <trkpt lat="45.2092" lon="6.22121">
        <ele>1836.613</ele>
        <time>2022-07-17T13:41:14Z</time>
      </trkpt>
      <trkpt lat="45.20938" lon="6.22143">
        <ele>1830.984</ele>
        <time>2022-07-17T13:41:19Z</time>
      </trkpt>
      <trkpt lat="45.20959" lon="6.22165">
        <ele>1825.773</ele>
        <time>2022-07-17T13:41:24Z</time>
      </trkpt>
      <trkpt lat="45.20979" lon="6.22176">
        <ele>1820.784</ele>
        <time>2022-07-17T13:41:29Z</time>
      </trkpt>
      <trkpt lat="45.21003" lon="6.22187">
        <ele>1812.595</ele>
        <time>2022-07-17T13:41:34Z</time>
      </trkpt>
      <trkpt lat="45.21004" lon="6.22205">
        <ele>1805.055</ele>
        <time>2022-07-17T13:41:39Z</time>
      </trkpt>
      <trkpt lat="45.21009" lon="6.22221">
        <ele>1799.478</ele>
        <time>2022-07-17T13:41:44Z</time>
      </trkpt>
      <trkpt lat="45.20986" lon="6.22242">
        <ele>1793.283</ele>
        <time>2022-07-17T13:41:49Z</time>
      </trkpt>
      <trkpt lat="45.20964" lon="6.2225">
        <ele>1786.747</ele>
        <time>2022-07-17T13:41:54Z</time>
      </trkpt>
      <trkpt lat="45.2096" lon="6.22263">
        <ele>1784.775</ele>
        <time>2022-07-17T13:41:59Z</time>
      </trkpt>
      <trkpt lat="45.20968" lon="6.22265">
        <ele>1785.384</ele>
        <time>2022-07-17T13:42:04Z</time>
      </trkpt>
      <trkpt lat="45.20974" lon="6.2227">
        <ele>1785.172</ele>
        <time>2022-07-17T13:42:09Z</time>
      </trkpt>
      <trkpt lat="45.20985" lon="6.22271">
        <ele>1785.348</ele>
        <time>2022-07-17T13:42:14Z</time>
      </trkpt>
      <trkpt lat="45.20994" lon="6.22275">
        <ele>1784.614</ele>
        <time>2022-07-17T13:42:19Z</time>
      </trkpt>
      <trkpt lat="45.20996" lon="6.22278">
        <ele>1784.458</ele>
        <time>2022-07-17T13:42:24Z</time>
      </trkpt>
      <trkpt lat="45.20996" lon="6.22278">
        <ele>1784.35</ele>
        <time>2022-07-17T13:42:29Z</time>
      </trkpt>
      <trkpt lat="45.20996" lon="6.22277">
        <ele>1784.296</ele>
        <time>2022-07-17T13:42:34Z</time>
      </trkpt>
      <trkpt lat="45.21" lon="6.22278">
        <ele>1783.604</ele>
        <time>2022-07-17T13:42:39Z</time>
      </trkpt>
      <trkpt lat="45.21002" lon="6.22277">
        <ele>1783.459</ele>
        <time>2022-07-17T13:42:44Z</time>
      </trkpt>
      <trkpt lat="45.21011" lon="6.22274">
        <ele>1781.797</ele>
        <time>2022-07-17T13:42:49Z</time>
      </trkpt>
      <trkpt lat="45.21017" lon="6.2227">
        <ele>1781.765</ele>
        <time>2022-07-17T13:42:54Z</time>
      </trkpt>
      <trkpt lat="45.21025" lon="6.22261">
        <ele>1780.615</ele>
        <time>2022-07-17T13:42:59Z</time>
      </trkpt>
      <trkpt lat="45.21036" lon="6.2225">
        <ele>1778.684</ele>
        <time>2022-07-17T13:43:04Z</time>
      </trkpt>
      <trkpt lat="45.21053" lon="6.22236">
        <ele>1776.375</ele>
        <time>2022-07-17T13:43:09Z</time>
      </trkpt>
      <trkpt lat="45.21073" lon="6.22219">
        <ele>1774.784</ele>
        <time>2022-07-17T13:43:14Z</time>
      </trkpt>
      <trkpt lat="45.211" lon="6.22194">
        <ele>1772.661</ele>
        <time>2022-07-17T13:43:19Z</time>
      </trkpt>
      <trkpt lat="45.21126" lon="6.22163">
        <ele>1768.924</ele>
        <time>2022-07-17T13:43:24Z</time>
      </trkpt>
      <trkpt lat="45.21158" lon="6.22139">
        <ele>1763.359</ele>
        <time>2022-07-17T13:43:29Z</time>
      </trkpt>
      <trkpt lat="45.21191" lon="6.2211">
        <ele>1754.799</ele>
        <time>2022-07-17T13:43:34Z</time>
      </trkpt>
      <trkpt lat="45.21243" lon="6.22105">
        <ele>1747.711</ele>
        <time>2022-07-17T13:43:39Z</time>
      </trkpt>
      <trkpt lat="45.213" lon="6.22096">
        <ele>1744.145</ele>
        <time>2022-07-17T13:43:44Z</time>
      </trkpt>
      <trkpt lat="45.21327" lon="6.22094">
        <ele>1743.748</ele>
        <time>2022-07-17T13:43:49Z</time>
      </trkpt>
      <trkpt lat="45.21333" lon="6.22099">
        <ele>1742.313</ele>
        <time>2022-07-17T13:43:54Z</time>
      </trkpt>
      <trkpt lat="45.21334" lon="6.221">
        <ele>1741.644</ele>
        <time>2022-07-17T13:43:59Z</time>
      </trkpt>
      <trkpt lat="45.21334" lon="6.22099">
        <ele>1741.303</ele>
        <time>2022-07-17T13:44:04Z</time>
      </trkpt>
      <trkpt lat="45.21353" lon="6.22123">
        <ele>1736.263</ele>
        <time>2022-07-17T13:44:09Z</time>
      </trkpt>
      <trkpt lat="45.21374" lon="6.22133">
        <ele>1731.256</ele>
        <time>2022-07-17T13:44:14Z</time>
      </trkpt>
      <trkpt lat="45.2138" lon="6.22135">
        <ele>1730.051</ele>
        <time>2022-07-17T13:44:19Z</time>
      </trkpt>
      <trkpt lat="45.21381" lon="6.22136">
        <ele>1729.574</ele>
        <time>2022-07-17T13:44:24Z</time>
      </trkpt>
      <trkpt lat="45.21381" lon="6.22135">
        <ele>1729.618</ele>
        <time>2022-07-17T13:44:29Z</time>
      </trkpt>
      <trkpt lat="45.21381" lon="6.22135">
        <ele>1729.467</ele>
        <time>2022-07-17T13:44:34Z</time>
      </trkpt>
      <trkpt lat="45.21381" lon="6.22135">
        <ele>1729.448</ele>
        <time>2022-07-17T13:44:39Z</time>
      </trkpt>
      <trkpt lat="45.21381" lon="6.22135">
        <ele>1729.438</ele>
        <time>2022-07-17T13:44:44Z</time>
      </trkpt>
      <trkpt lat="45.21381" lon="6.22135">
        <ele>1729.43</ele>
        <time>2022-07-17T13:44:49Z</time>
      </trkpt>
      <trkpt lat="45.21381" lon="6.22135">
        <ele>1729.427</ele>
        <time>2022-07-17T13:44:54Z</time>
      </trkpt>
      <trkpt lat="45.21381" lon="6.22135">
        <ele>1729.428</ele>
        <time>2022-07-17T13:44:59Z</time>
      </trkpt>
      <trkpt lat="45.21388" lon="6.22145">
        <ele>1723.254</ele>
        <time>2022-07-17T13:45:04Z</time>
      </trkpt>
      <trkpt lat="45.21406" lon="6.22156">
        <ele>1716.297</ele>
        <time>2022-07-17T13:45:09Z</time>
      </trkpt>
      <trkpt lat="45.21435" lon="6.22154">
        <ele>1709.527</ele>
        <time>2022-07-17T13:45:14Z</time>
      </trkpt>
      <trkpt lat="45.21456" lon="6.22173">
        <ele>1702.368</ele>
        <time>2022-07-17T13:45:19Z</time>
      </trkpt>
      <trkpt lat="45.21459" lon="6.22206">
        <ele>1696.487</ele>
        <time>2022-07-17T13:45:24Z</time>
      </trkpt>
      <trkpt lat="45.21471" lon="6.22226">
        <ele>1690.943</ele>
        <time>2022-07-17T13:45:29Z</time>
      </trkpt>
      <trkpt lat="45.21482" lon="6.22256">
        <ele>1683.847</ele>
        <time>2022-07-17T13:45:34Z</time>
      </trkpt>
      <trkpt lat="45.21508" lon="6.22284">
        <ele>1674.501</ele>
        <time>2022-07-17T13:45:39Z</time>
      </trkpt>
      <trkpt lat="45.21524" lon="6.22336">
        <ele>1664.973</ele>
        <time>2022-07-17T13:45:44Z</time>
      </trkpt>
      <trkpt lat="45.21539" lon="6.22386">
        <ele>1657.931</ele>
        <time>2022-07-17T13:45:49Z</time>
      </trkpt>
      <trkpt lat="45.21533" lon="6.22434">
        <ele>1646.074</ele>
        <time>2022-07-17T13:45:54Z</time>
      </trkpt>
      <trkpt lat="45.21518" lon="6.22479">
        <ele>1637.405</ele>
        <time>2022-07-17T13:45:59Z</time>
      </trkpt>
      <trkpt lat="45.215" lon="6.22523">
        <ele>1629.685</ele>
        <time>2022-07-17T13:46:04Z</time>
      </trkpt>
      <trkpt lat="45.21494" lon="6.22533">
        <ele>1626.988</ele>
        <time>2022-07-17T13:46:09Z</time>
      </trkpt>
      <trkpt lat="45.21495" lon="6.22534">
        <ele>1626.982</ele>
        <time>2022-07-17T13:46:14Z</time>
      </trkpt>
      <trkpt lat="45.21495" lon="6.22534">
        <ele>1626.691</ele>
        <time>2022-07-17T13:46:19Z</time>
      </trkpt>
      <trkpt lat="45.21495" lon="6.22534">
        <ele>1626.652</ele>
        <time>2022-07-17T13:46:24Z</time>
      </trkpt>
      <trkpt lat="45.21495" lon="6.22534">
        <ele>1626.66</ele>
        <time>2022-07-17T13:46:29Z</time>
      </trkpt>
      <trkpt lat="45.21495" lon="6.22534">
        <ele>1626.664</ele>
        <time>2022-07-17T13:46:34Z</time>
      </trkpt>
      <trkpt lat="45.21495" lon="6.22534">
        <ele>1626.675</ele>
        <time>2022-07-17T13:46:39Z</time>
      </trkpt>
      <trkpt lat="45.21495" lon="6.22534">
        <ele>1626.68</ele>
        <time>2022-07-17T13:46:44Z</time>
      </trkpt>
      <trkpt lat="45.21495" lon="6.22534">
        <ele>1626.686</ele>
        <time>2022-07-17T13:46:49Z</time>
      </trkpt>
      <trkpt lat="45.21495" lon="6.22534">
        <ele>1626.683</ele>
        <time>2022-07-17T13:46:54Z</time>
      </trkpt>
      <trkpt lat="45.21495" lon="6.22534">
        <ele>1626.67</ele>
        <time>2022-07-17T13:46:59Z</time>
      </trkpt>
      <trkpt lat="45.21491" lon="6.22546">
        <ele>1625.099</ele>
        <time>2022-07-17T13:47:04Z</time>
      </trkpt>
      <trkpt lat="45.21482" lon="6.22572">
        <ele>1619.988</ele>
        <time>2022-07-17T13:47:09Z</time>
      </trkpt>
      <trkpt lat="45.21487" lon="6.22575">
        <ele>1621.054</ele>
        <time>2022-07-17T13:47:14Z</time>
      </trkpt>
      <trkpt lat="45.21488" lon="6.22574">
        <ele>1621.763</ele>
        <time>2022-07-17T13:47:19Z</time>
      </trkpt>
      <trkpt lat="45.21489" lon="6.22574">
        <ele>1622.587</ele>
        <time>2022-07-17T13:47:24Z</time>
      </trkpt>
      <trkpt lat="45.21489" lon="6.22574">
        <ele>1622.641</ele>
        <time>2022-07-17T13:47:29Z</time>
      </trkpt>
      <trkpt lat="45.21488" lon="6.22574">
        <ele>1622.654</ele>
        <time>2022-07-17T13:47:34Z</time>
      </trkpt>
      <trkpt lat="45.21488" lon="6.22576">
        <ele>1621.215</ele>
        <time>2022-07-17T13:47:39Z</time>
      </trkpt>
      <trkpt lat="45.21488" lon="6.22576">
        <ele>1621.324</ele>
        <time>2022-07-17T13:47:44Z</time>
      </trkpt>
      <trkpt lat="45.21488" lon="6.22576">
        <ele>1621.169</ele>
        <time>2022-07-17T13:47:49Z</time>
      </trkpt>
      <trkpt lat="45.21488" lon="6.22576">
        <ele>1621.16</ele>
        <time>2022-07-17T13:47:54Z</time>
      </trkpt>
      <trkpt lat="45.21488" lon="6.22576">
        <ele>1620.837</ele>
        <time>2022-07-17T13:47:59Z</time>
      </trkpt>
      <trkpt lat="45.21488" lon="6.22576">
        <ele>1620.601</ele>
        <time>2022-07-17T13:48:04Z</time>
      </trkpt>
      <trkpt lat="45.21488" lon="6.22577">
        <ele>1620.024</ele>
        <time>2022-07-17T13:48:09Z</time>
      </trkpt>
      <trkpt lat="45.21491" lon="6.22593">
        <ele>1618.262</ele>
        <time>2022-07-17T13:48:14Z</time>
      </trkpt>
      <trkpt lat="45.21505" lon="6.22624">
        <ele>1617.796</ele>
        <time>2022-07-17T13:48:19Z</time>
      </trkpt>
      <trkpt lat="45.21523" lon="6.2265">
        <ele>1615.387</ele>
        <time>2022-07-17T13:48:24Z</time>
      </trkpt>
      <trkpt lat="45.21543" lon="6.22672">
        <ele>1612.264</ele>
        <time>2022-07-17T13:48:29Z</time>
      </trkpt>
      <trkpt lat="45.21571" lon="6.22696">
        <ele>1606.138</ele>
        <time>2022-07-17T13:48:34Z</time>
      </trkpt>
      <trkpt lat="45.21596" lon="6.22695">
        <ele>1601.646</ele>
        <time>2022-07-17T13:48:39Z</time>
      </trkpt>
      <trkpt lat="45.21626" lon="6.22686">
        <ele>1596</ele>
        <time>2022-07-17T13:48:44Z</time>
      </trkpt>
      <trkpt lat="45.21652" lon="6.22693">
        <ele>1588.206</ele>
        <time>2022-07-17T13:48:49Z</time>
      </trkpt>
      <trkpt lat="45.21685" lon="6.22696">
        <ele>1582.259</ele>
        <time>2022-07-17T13:48:54Z</time>
      </trkpt>
      <trkpt lat="45.2172" lon="6.22697">
        <ele>1579.299</ele>
        <time>2022-07-17T13:48:59Z</time>
      </trkpt>
      <trkpt lat="45.21733" lon="6.22694">
        <ele>1577.62</ele>
        <time>2022-07-17T13:49:04Z</time>
      </trkpt>
      <trkpt lat="45.21755" lon="6.22667">
        <ele>1570.277</ele>
        <time>2022-07-17T13:49:09Z</time>
      </trkpt>
      <trkpt lat="45.21771" lon="6.22654">
        <ele>1567.827</ele>
        <time>2022-07-17T13:49:14Z</time>
      </trkpt>
      <trkpt lat="45.21774" lon="6.22655">
        <ele>1566.474</ele>
        <time>2022-07-17T13:49:19Z</time>
      </trkpt>
      <trkpt lat="45.21775" lon="6.22655">
        <ele>1567.219</ele>
        <time>2022-07-17T13:49:24Z</time>
      </trkpt>
      <trkpt lat="45.21775" lon="6.22654">
        <ele>1566.708</ele>
        <time>2022-07-17T13:49:29Z</time>
      </trkpt>
      <trkpt lat="45.21786" lon="6.2266">
        <ele>1560.172</ele>
        <time>2022-07-17T13:49:34Z</time>
      </trkpt>
      <trkpt lat="45.21813" lon="6.22658">
        <ele>1551.765</ele>
        <time>2022-07-17T13:49:39Z</time>
      </trkpt>
      <trkpt lat="45.21847" lon="6.22662">
        <ele>1543.617</ele>
        <time>2022-07-17T13:49:44Z</time>
      </trkpt>
      <trkpt lat="45.21874" lon="6.22672">
        <ele>1544.434</ele>
        <time>2022-07-17T13:49:49Z</time>
      </trkpt>
      <trkpt lat="45.21875" lon="6.22711">
        <ele>1537.366</ele>
        <time>2022-07-17T13:49:54Z</time>
      </trkpt>
      <trkpt lat="45.21867" lon="6.22737">
        <ele>1532.478</ele>
        <time>2022-07-17T13:49:59Z</time>
      </trkpt>
      <trkpt lat="45.21866" lon="6.22752">
        <ele>1533.237</ele>
        <time>2022-07-17T13:50:04Z</time>
      </trkpt>
      <trkpt lat="45.21867" lon="6.22781">
        <ele>1529.285</ele>
        <time>2022-07-17T13:50:09Z</time>
      </trkpt>
      <trkpt lat="45.21872" lon="6.22817">
        <ele>1522.183</ele>
        <time>2022-07-17T13:50:14Z</time>
      </trkpt>
      <trkpt lat="45.21862" lon="6.22854">
        <ele>1516.191</ele>
        <time>2022-07-17T13:50:19Z</time>
      </trkpt>
      <trkpt lat="45.21843" lon="6.22884">
        <ele>1509.29</ele>
        <time>2022-07-17T13:50:24Z</time>
      </trkpt>
      <trkpt lat="45.21835" lon="6.22929">
        <ele>1503.932</ele>
        <time>2022-07-17T13:50:29Z</time>
      </trkpt>
      <trkpt lat="45.21827" lon="6.22956">
        <ele>1502.868</ele>
        <time>2022-07-17T13:50:34Z</time>
      </trkpt>
      <trkpt lat="45.21809" lon="6.22974">
        <ele>1501.001</ele>
        <time>2022-07-17T13:50:39Z</time>
      </trkpt>
      <trkpt lat="45.21795" lon="6.22994">
        <ele>1499.094</ele>
        <time>2022-07-17T13:50:44Z</time>
      </trkpt>
      <trkpt lat="45.21789" lon="6.23001">
        <ele>1499.268</ele>
        <time>2022-07-17T13:50:49Z</time>
      </trkpt>
      <trkpt lat="45.21784" lon="6.23006">
        <ele>1499.632</ele>
        <time>2022-07-17T13:50:54Z</time>
      </trkpt>
      <trkpt lat="45.21774" lon="6.23001">
        <ele>1500.091</ele>
        <time>2022-07-17T13:50:59Z</time>
      </trkpt>
      <trkpt lat="45.2177" lon="6.23006">
        <ele>1501.532</ele>
        <time>2022-07-17T13:51:04Z</time>
      </trkpt>
      <trkpt lat="45.21769" lon="6.23007">
        <ele>1501.444</ele>
        <time>2022-07-17T13:51:09Z</time>
      </trkpt>
      <trkpt lat="45.21768" lon="6.23007">
        <ele>1501.83</ele>
        <time>2022-07-17T13:51:14Z</time>
      </trkpt>
      <trkpt lat="45.21769" lon="6.23009">
        <ele>1502.008</ele>
        <time>2022-07-17T13:51:19Z</time>
      </trkpt>
      <trkpt lat="45.21768" lon="6.23008">
        <ele>1502.351</ele>
        <time>2022-07-17T13:51:24Z</time>
      </trkpt>
      <trkpt lat="45.2177" lon="6.23009">
        <ele>1501.639</ele>
        <time>2022-07-17T13:51:29Z</time>
      </trkpt>
      <trkpt lat="45.2177" lon="6.23011">
        <ele>1501.232</ele>
        <time>2022-07-17T13:51:34Z</time>
      </trkpt>
      <trkpt lat="45.2177" lon="6.23012">
        <ele>1500.632</ele>
        <time>2022-07-17T13:51:39Z</time>
      </trkpt>
      <trkpt lat="45.2177" lon="6.23012">
        <ele>1501.744</ele>
        <time>2022-07-17T13:51:44Z</time>
      </trkpt>
      <trkpt lat="45.21769" lon="6.23012">
        <ele>1501.728</ele>
        <time>2022-07-17T13:51:49Z</time>
      </trkpt>
      <trkpt lat="45.21768" lon="6.23011">
        <ele>1502.442</ele>
        <time>2022-07-17T13:51:54Z</time>
      </trkpt>
      <trkpt lat="45.21768" lon="6.23011">
        <ele>1503.463</ele>
        <time>2022-07-17T13:51:59Z</time>
      </trkpt>
      <trkpt lat="45.21768" lon="6.23009">
        <ele>1505.027</ele>
        <time>2022-07-17T13:52:04Z</time>
      </trkpt>
      <trkpt lat="45.21768" lon="6.2301">
        <ele>1502.671</ele>
        <time>2022-07-17T13:52:09Z</time>
      </trkpt>
      <trkpt lat="45.21769" lon="6.23009">
        <ele>1503.041</ele>
        <time>2022-07-17T13:52:14Z</time>
      </trkpt>
      <trkpt lat="45.21769" lon="6.23007">
        <ele>1503.448</ele>
        <time>2022-07-17T13:52:19Z</time>
      </trkpt>
      <trkpt lat="45.21769" lon="6.23008">
        <ele>1502.245</ele>
        <time>2022-07-17T13:52:24Z</time>
      </trkpt>
      <trkpt lat="45.21769" lon="6.23008">
        <ele>1502.625</ele>
        <time>2022-07-17T13:52:29Z</time>
      </trkpt>
      <trkpt lat="45.21768" lon="6.23008">
        <ele>1503.164</ele>
        <time>2022-07-17T13:52:34Z</time>
      </trkpt>
      <trkpt lat="45.21768" lon="6.23007">
        <ele>1503.451</ele>
        <time>2022-07-17T13:52:39Z</time>
      </trkpt>
      <trkpt lat="45.21767" lon="6.23005">
        <ele>1505.441</ele>
        <time>2022-07-17T13:52:44Z</time>
      </trkpt>
      <trkpt lat="45.21767" lon="6.23005">
        <ele>1503.292</ele>
        <time>2022-07-17T13:52:49Z</time>
      </trkpt>
      <trkpt lat="45.21767" lon="6.23005">
        <ele>1503.531</ele>
        <time>2022-07-17T13:52:54Z</time>
      </trkpt>
      <trkpt lat="45.21767" lon="6.23005">
        <ele>1503.309</ele>
        <time>2022-07-17T13:52:59Z</time>
      </trkpt>
      <trkpt lat="45.21767" lon="6.23005">
        <ele>1503.31</ele>
        <time>2022-07-17T13:53:04Z</time>
      </trkpt>
      <trkpt lat="45.21767" lon="6.23005">
        <ele>1503.615</ele>
        <time>2022-07-17T13:53:09Z</time>
      </trkpt>
      <trkpt lat="45.21768" lon="6.23005">
        <ele>1504.322</ele>
        <time>2022-07-17T13:53:14Z</time>
      </trkpt>
      <trkpt lat="45.21768" lon="6.23005">
        <ele>1503.929</ele>
        <time>2022-07-17T13:53:19Z</time>
      </trkpt>
      <trkpt lat="45.21768" lon="6.23005">
        <ele>1503.111</ele>
        <time>2022-07-17T13:53:24Z</time>
      </trkpt>
      <trkpt lat="45.21769" lon="6.23005">
        <ele>1503.35</ele>
        <time>2022-07-17T13:53:29Z</time>
      </trkpt>
      <trkpt lat="45.21769" lon="6.23004">
        <ele>1502.116</ele>
        <time>2022-07-17T13:53:34Z</time>
      </trkpt>
      <trkpt lat="45.21768" lon="6.23005">
        <ele>1501.598</ele>
        <time>2022-07-17T13:53:39Z</time>
      </trkpt>
      <trkpt lat="45.21769" lon="6.23005">
        <ele>1501.176</ele>
        <time>2022-07-17T13:53:44Z</time>
      </trkpt>
      <trkpt lat="45.21769" lon="6.23005">
        <ele>1501.225</ele>
        <time>2022-07-17T13:53:49Z</time>
      </trkpt>
      <trkpt lat="45.21769" lon="6.23005">
        <ele>1501.234</ele>
        <time>2022-07-17T13:53:54Z</time>
      </trkpt>
      <trkpt lat="45.21769" lon="6.23005">
        <ele>1501.445</ele>
        <time>2022-07-17T13:53:59Z</time>
      </trkpt>
      <trkpt lat="45.21768" lon="6.23006">
        <ele>1500.987</ele>
        <time>2022-07-17T13:54:04Z</time>
      </trkpt>
      <trkpt lat="45.21768" lon="6.23007">
        <ele>1501.972</ele>
        <time>2022-07-17T13:54:09Z</time>
      </trkpt>
      <trkpt lat="45.21768" lon="6.23007">
        <ele>1502.66</ele>
        <time>2022-07-17T13:54:14Z</time>
      </trkpt>
      <trkpt lat="45.21768" lon="6.23007">
        <ele>1502.621</ele>
        <time>2022-07-17T13:54:19Z</time>
      </trkpt>
      <trkpt lat="45.21768" lon="6.23005">
        <ele>1502.004</ele>
        <time>2022-07-17T13:54:24Z</time>
      </trkpt>
      <trkpt lat="45.21765" lon="6.23">
        <ele>1500.82</ele>
        <time>2022-07-17T13:54:29Z</time>
      </trkpt>
      <trkpt lat="45.21771" lon="6.22999">
        <ele>1500.848</ele>
        <time>2022-07-17T13:54:34Z</time>
      </trkpt>
      <trkpt lat="45.21776" lon="6.22999">
        <ele>1500.104</ele>
        <time>2022-07-17T13:54:39Z</time>
      </trkpt>
      <trkpt lat="45.21777" lon="6.23002">
        <ele>1500.732</ele>
        <time>2022-07-17T13:54:44Z</time>
      </trkpt>
      <trkpt lat="45.21777" lon="6.23003">
        <ele>1500.891</ele>
        <time>2022-07-17T13:54:49Z</time>
      </trkpt>
      <trkpt lat="45.21777" lon="6.23003">
        <ele>1501.467</ele>
        <time>2022-07-17T13:54:54Z</time>
      </trkpt>
      <trkpt lat="45.21777" lon="6.23003">
        <ele>1501.494</ele>
        <time>2022-07-17T13:54:59Z</time>
      </trkpt>
      <trkpt lat="45.21779" lon="6.23003">
        <ele>1504.176</ele>
        <time>2022-07-17T13:55:04Z</time>
      </trkpt>
      <trkpt lat="45.21778" lon="6.23002">
        <ele>1502.803</ele>
        <time>2022-07-17T13:55:09Z</time>
      </trkpt>
      <trkpt lat="45.21776" lon="6.23003">
        <ele>1502.449</ele>
        <time>2022-07-17T13:55:14Z</time>
      </trkpt>
      <trkpt lat="45.21776" lon="6.23003">
        <ele>1502.236</ele>
        <time>2022-07-17T13:55:19Z</time>
      </trkpt>
      <trkpt lat="45.21777" lon="6.23003">
        <ele>1502.041</ele>
        <time>2022-07-17T13:55:24Z</time>
      </trkpt>
      <trkpt lat="45.21777" lon="6.23003">
        <ele>1501.739</ele>
        <time>2022-07-17T13:55:29Z</time>
      </trkpt>
      <trkpt lat="45.21777" lon="6.23004">
        <ele>1502.143</ele>
        <time>2022-07-17T13:55:34Z</time>
      </trkpt>
      <trkpt lat="45.21777" lon="6.23003">
        <ele>1502.038</ele>
        <time>2022-07-17T13:55:39Z</time>
      </trkpt>
      <trkpt lat="45.21777" lon="6.23003">
        <ele>1501.751</ele>
        <time>2022-07-17T13:55:44Z</time>
      </trkpt>
      <trkpt lat="45.21777" lon="6.23003">
        <ele>1501.751</ele>
        <time>2022-07-17T13:55:49Z</time>
      </trkpt>
      <trkpt lat="45.21777" lon="6.23003">
        <ele>1501.75</ele>
        <time>2022-07-17T13:55:54Z</time>
      </trkpt>
      <trkpt lat="45.21777" lon="6.23004">
        <ele>1501.752</ele>
        <time>2022-07-17T13:55:59Z</time>
      </trkpt>
      <trkpt lat="45.21772" lon="6.23005">
        <ele>1500.39</ele>
        <time>2022-07-17T13:56:04Z</time>
      </trkpt>
      <trkpt lat="45.21774" lon="6.2301">
        <ele>1500.437</ele>
        <time>2022-07-17T13:56:09Z</time>
      </trkpt>
      <trkpt lat="45.21776" lon="6.23009">
        <ele>1500.528</ele>
        <time>2022-07-17T13:56:14Z</time>
      </trkpt>
      <trkpt lat="45.21776" lon="6.23008">
        <ele>1500.671</ele>
        <time>2022-07-17T13:56:19Z</time>
      </trkpt>
      <trkpt lat="45.21776" lon="6.23008">
        <ele>1500.679</ele>
        <time>2022-07-17T13:56:24Z</time>
      </trkpt>
      <trkpt lat="45.21776" lon="6.23008">
        <ele>1500.9</ele>
        <time>2022-07-17T13:56:29Z</time>
      </trkpt>
      <trkpt lat="45.21776" lon="6.23008">
        <ele>1502.136</ele>
        <time>2022-07-17T13:56:34Z</time>
      </trkpt>
      <trkpt lat="45.21776" lon="6.23008">
        <ele>1501.903</ele>
        <time>2022-07-17T13:56:39Z</time>
      </trkpt>
      <trkpt lat="45.21776" lon="6.23008">
        <ele>1501.895</ele>
        <time>2022-07-17T13:56:44Z</time>
      </trkpt>
      <trkpt lat="45.21776" lon="6.23008">
        <ele>1501.87</ele>
        <time>2022-07-17T13:56:49Z</time>
      </trkpt>
      <trkpt lat="45.21776" lon="6.23008">
        <ele>1501.855</ele>
        <time>2022-07-17T13:56:54Z</time>
      </trkpt>
      <trkpt lat="45.21776" lon="6.23008">
        <ele>1501.853</ele>
        <time>2022-07-17T13:56:59Z</time>
      </trkpt>
      <trkpt lat="45.21776" lon="6.23008">
        <ele>1501.848</ele>
        <time>2022-07-17T13:57:04Z</time>
      </trkpt>
      <trkpt lat="45.21776" lon="6.23008">
        <ele>1501.846</ele>
        <time>2022-07-17T13:57:09Z</time>
      </trkpt>
      <trkpt lat="45.21776" lon="6.23008">
        <ele>1501.52</ele>
        <time>2022-07-17T13:57:14Z</time>
      </trkpt>
      <trkpt lat="45.21776" lon="6.23008">
        <ele>1501.502</ele>
        <time>2022-07-17T13:57:19Z</time>
      </trkpt>
      <trkpt lat="45.21776" lon="6.23008">
        <ele>1501.488</ele>
        <time>2022-07-17T13:57:24Z</time>
      </trkpt>
      <trkpt lat="45.21776" lon="6.23008">
        <ele>1501.48</ele>
        <time>2022-07-17T13:57:29Z</time>
      </trkpt>
      <trkpt lat="45.21776" lon="6.23008">
        <ele>1501.479</ele>
        <time>2022-07-17T13:57:34Z</time>
      </trkpt>
      <trkpt lat="45.21776" lon="6.23009">
        <ele>1502.409</ele>
        <time>2022-07-17T13:57:39Z</time>
      </trkpt>
      <trkpt lat="45.21776" lon="6.23009">
        <ele>1502.438</ele>
        <time>2022-07-17T13:57:44Z</time>
      </trkpt>
      <trkpt lat="45.21776" lon="6.23009">
        <ele>1502.457</ele>
        <time>2022-07-17T13:57:49Z</time>
      </trkpt>
      <trkpt lat="45.21776" lon="6.23009">
        <ele>1502.515</ele>
        <time>2022-07-17T13:57:54Z</time>
      </trkpt>
      <trkpt lat="45.21776" lon="6.23009">
        <ele>1502.515</ele>
        <time>2022-07-17T13:57:59Z</time>
      </trkpt>
      <trkpt lat="45.21775" lon="6.23009">
        <ele>1502.567</ele>
        <time>2022-07-17T13:58:04Z</time>
      </trkpt>
      <trkpt lat="45.21773" lon="6.23009">
        <ele>1503.14</ele>
        <time>2022-07-17T13:58:09Z</time>
      </trkpt>
      <trkpt lat="45.21773" lon="6.23007">
        <ele>1502.084</ele>
        <time>2022-07-17T13:58:14Z</time>
      </trkpt>
      <trkpt lat="45.21775" lon="6.23002">
        <ele>1502.312</ele>
        <time>2022-07-17T13:58:19Z</time>
      </trkpt>
      <trkpt lat="45.21777" lon="6.22997">
        <ele>1502.1</ele>
        <time>2022-07-17T13:58:24Z</time>
      </trkpt>
      <trkpt lat="45.21777" lon="6.22998">
        <ele>1502.093</ele>
        <time>2022-07-17T13:58:29Z</time>
      </trkpt>
      <trkpt lat="45.21777" lon="6.22997">
        <ele>1502.08</ele>
        <time>2022-07-17T13:58:34Z</time>
      </trkpt>
      <trkpt lat="45.21777" lon="6.22997">
        <ele>1502.074</ele>
        <time>2022-07-17T13:58:39Z</time>
      </trkpt>
      <trkpt lat="45.21777" lon="6.22997">
        <ele>1502.056</ele>
        <time>2022-07-17T13:58:44Z</time>
      </trkpt>
      <trkpt lat="45.21777" lon="6.22998">
        <ele>1502.043</ele>
        <time>2022-07-17T13:58:49Z</time>
      </trkpt>
      <trkpt lat="45.21777" lon="6.22998">
        <ele>1502.022</ele>
        <time>2022-07-17T13:58:54Z</time>
      </trkpt>
      <trkpt lat="45.21778" lon="6.22999">
        <ele>1501.94</ele>
        <time>2022-07-17T13:58:59Z</time>
      </trkpt>
      <trkpt lat="45.21778" lon="6.23001">
        <ele>1502.306</ele>
        <time>2022-07-17T13:59:04Z</time>
      </trkpt>
      <trkpt lat="45.21778" lon="6.23001">
        <ele>1502.313</ele>
        <time>2022-07-17T13:59:09Z</time>
      </trkpt>
      <trkpt lat="45.21778" lon="6.23001">
        <ele>1502.308</ele>
        <time>2022-07-17T13:59:14Z</time>
      </trkpt>
      <trkpt lat="45.21778" lon="6.23001">
        <ele>1502.304</ele>
        <time>2022-07-17T13:59:19Z</time>
      </trkpt>
      <trkpt lat="45.21778" lon="6.23001">
        <ele>1502.307</ele>
        <time>2022-07-17T13:59:24Z</time>
      </trkpt>
      <trkpt lat="45.21778" lon="6.23001">
        <ele>1502.312</ele>
        <time>2022-07-17T13:59:29Z</time>
      </trkpt>
      <trkpt lat="45.21779" lon="6.23">
        <ele>1501.965</ele>
        <time>2022-07-17T13:59:34Z</time>
      </trkpt>
      <trkpt lat="45.21782" lon="6.23003">
        <ele>1502.243</ele>
        <time>2022-07-17T13:59:39Z</time>
      </trkpt>
      <trkpt lat="45.21785" lon="6.23007">
        <ele>1502.414</ele>
        <time>2022-07-17T13:59:44Z</time>
      </trkpt>
      <trkpt lat="45.21788" lon="6.23012">
        <ele>1502.001</ele>
        <time>2022-07-17T13:59:49Z</time>
      </trkpt>
      <trkpt lat="45.21793" lon="6.23016">
        <ele>1502.457</ele>
        <time>2022-07-17T13:59:54Z</time>
      </trkpt>
      <trkpt lat="45.21808" lon="6.23012">
        <ele>1503.53</ele>
        <time>2022-07-17T13:59:59Z</time>
      </trkpt>
      <trkpt lat="45.2182" lon="6.23019">
        <ele>1500.263</ele>
        <time>2022-07-17T14:00:04Z</time>
      </trkpt>
      <trkpt lat="45.2183" lon="6.23022">
        <ele>1500.013</ele>
        <time>2022-07-17T14:00:09Z</time>
      </trkpt>
      <trkpt lat="45.2184" lon="6.23025">
        <ele>1499.475</ele>
        <time>2022-07-17T14:00:14Z</time>
      </trkpt>
      <trkpt lat="45.21849" lon="6.23033">
        <ele>1499.31</ele>
        <time>2022-07-17T14:00:19Z</time>
      </trkpt>
      <trkpt lat="45.21856" lon="6.23043">
        <ele>1499.462</ele>
        <time>2022-07-17T14:00:24Z</time>
      </trkpt>
      <trkpt lat="45.21863" lon="6.23052">
        <ele>1500.249</ele>
        <time>2022-07-17T14:00:29Z</time>
      </trkpt>
      <trkpt lat="45.2187" lon="6.23062">
        <ele>1497.555</ele>
        <time>2022-07-17T14:00:34Z</time>
      </trkpt>
      <trkpt lat="45.2187" lon="6.23081">
        <ele>1496.36</ele>
        <time>2022-07-17T14:00:39Z</time>
      </trkpt>
      <trkpt lat="45.21857" lon="6.23087">
        <ele>1495.521</ele>
        <time>2022-07-17T14:00:44Z</time>
      </trkpt>
      <trkpt lat="45.21854" lon="6.23101">
        <ele>1495.896</ele>
        <time>2022-07-17T14:00:49Z</time>
      </trkpt>
      <trkpt lat="45.21858" lon="6.23117">
        <ele>1496.055</ele>
        <time>2022-07-17T14:00:54Z</time>
      </trkpt>
      <trkpt lat="45.21864" lon="6.23119">
        <ele>1495.731</ele>
        <time>2022-07-17T14:00:59Z</time>
      </trkpt>
      <trkpt lat="45.21856" lon="6.23107">
        <ele>1495.654</ele>
        <time>2022-07-17T14:01:04Z</time>
      </trkpt>
      <trkpt lat="45.21862" lon="6.23126">
        <ele>1496.146</ele>
        <time>2022-07-17T14:01:09Z</time>
      </trkpt>
      <trkpt lat="45.21859" lon="6.23108">
        <ele>1496.543</ele>
        <time>2022-07-17T14:01:14Z</time>
      </trkpt>
      <trkpt lat="45.21856" lon="6.23122">
        <ele>1495.876</ele>
        <time>2022-07-17T14:01:19Z</time>
      </trkpt>
      <trkpt lat="45.21867" lon="6.23131">
        <ele>1496.445</ele>
        <time>2022-07-17T14:01:24Z</time>
      </trkpt>
      <trkpt lat="45.21878" lon="6.23146">
        <ele>1496.374</ele>
        <time>2022-07-17T14:01:29Z</time>
      </trkpt>
      <trkpt lat="45.21886" lon="6.23166">
        <ele>1496.188</ele>
        <time>2022-07-17T14:01:34Z</time>
      </trkpt>
      <trkpt lat="45.21899" lon="6.23184">
        <ele>1496.134</ele>
        <time>2022-07-17T14:01:39Z</time>
      </trkpt>
      <trkpt lat="45.21909" lon="6.23197">
        <ele>1495.726</ele>
        <time>2022-07-17T14:01:44Z</time>
      </trkpt>
      <trkpt lat="45.2192" lon="6.23199">
        <ele>1496.151</ele>
        <time>2022-07-17T14:01:49Z</time>
      </trkpt>
      <trkpt lat="45.2193" lon="6.23208">
        <ele>1496.589</ele>
        <time>2022-07-17T14:01:54Z</time>
      </trkpt>
      <trkpt lat="45.2194" lon="6.23217">
        <ele>1498.006</ele>
        <time>2022-07-17T14:01:59Z</time>
      </trkpt>
      <trkpt lat="45.2195" lon="6.23225">
        <ele>1498.679</ele>
        <time>2022-07-17T14:02:04Z</time>
      </trkpt>
      <trkpt lat="45.21961" lon="6.23233">
        <ele>1498.885</ele>
        <time>2022-07-17T14:02:09Z</time>
      </trkpt>
      <trkpt lat="45.21971" lon="6.23242">
        <ele>1500.323</ele>
        <time>2022-07-17T14:02:14Z</time>
      </trkpt>
      <trkpt lat="45.21982" lon="6.2325">
        <ele>1500.937</ele>
        <time>2022-07-17T14:02:19Z</time>
      </trkpt>
      <trkpt lat="45.21993" lon="6.23257">
        <ele>1501.515</ele>
        <time>2022-07-17T14:02:24Z</time>
      </trkpt>
      <trkpt lat="45.22004" lon="6.23266">
        <ele>1501.604</ele>
        <time>2022-07-17T14:02:29Z</time>
      </trkpt>
      <trkpt lat="45.22014" lon="6.23276">
        <ele>1502.058</ele>
        <time>2022-07-17T14:02:34Z</time>
      </trkpt>
      <trkpt lat="45.22023" lon="6.2328">
        <ele>1502.131</ele>
        <time>2022-07-17T14:02:39Z</time>
      </trkpt>
      <trkpt lat="45.22033" lon="6.23276">
        <ele>1502.393</ele>
        <time>2022-07-17T14:02:44Z</time>
      </trkpt>
      <trkpt lat="45.22041" lon="6.23275">
        <ele>1503.726</ele>
        <time>2022-07-17T14:02:49Z</time>
      </trkpt>
      <trkpt lat="45.2205" lon="6.23274">
        <ele>1504.606</ele>
        <time>2022-07-17T14:02:54Z</time>
      </trkpt>
      <trkpt lat="45.22059" lon="6.23275">
        <ele>1505.633</ele>
        <time>2022-07-17T14:02:59Z</time>
      </trkpt>
      <trkpt lat="45.22068" lon="6.23273">
        <ele>1505.074</ele>
        <time>2022-07-17T14:03:04Z</time>
      </trkpt>
      <trkpt lat="45.22074" lon="6.23266">
        <ele>1505.129</ele>
        <time>2022-07-17T14:03:09Z</time>
      </trkpt>
      <trkpt lat="45.2208" lon="6.2326">
        <ele>1507.39</ele>
        <time>2022-07-17T14:03:14Z</time>
      </trkpt>
      <trkpt lat="45.22085" lon="6.2325">
        <ele>1508.566</ele>
        <time>2022-07-17T14:03:19Z</time>
      </trkpt>
      <trkpt lat="45.22089" lon="6.23239">
        <ele>1509.192</ele>
        <time>2022-07-17T14:03:24Z</time>
      </trkpt>
      <trkpt lat="45.22094" lon="6.2323">
        <ele>1509.743</ele>
        <time>2022-07-17T14:03:29Z</time>
      </trkpt>
      <trkpt lat="45.22101" lon="6.23221">
        <ele>1510.224</ele>
        <time>2022-07-17T14:03:34Z</time>
      </trkpt>
      <trkpt lat="45.22108" lon="6.23212">
        <ele>1510.367</ele>
        <time>2022-07-17T14:03:39Z</time>
      </trkpt>
      <trkpt lat="45.22114" lon="6.23203">
        <ele>1511.413</ele>
        <time>2022-07-17T14:03:44Z</time>
      </trkpt>
      <trkpt lat="45.22119" lon="6.23193">
        <ele>1511.849</ele>
        <time>2022-07-17T14:03:49Z</time>
      </trkpt>
      <trkpt lat="45.22123" lon="6.2318">
        <ele>1512.481</ele>
        <time>2022-07-17T14:03:54Z</time>
      </trkpt>
      <trkpt lat="45.22131" lon="6.23168">
        <ele>1516.316</ele>
        <time>2022-07-17T14:03:59Z</time>
      </trkpt>
      <trkpt lat="45.22137" lon="6.23164">
        <ele>1514.779</ele>
        <time>2022-07-17T14:04:04Z</time>
      </trkpt>
      <trkpt lat="45.22139" lon="6.23155">
        <ele>1515.495</ele>
        <time>2022-07-17T14:04:09Z</time>
      </trkpt>
      <trkpt lat="45.22142" lon="6.23144">
        <ele>1516.588</ele>
        <time>2022-07-17T14:04:14Z</time>
      </trkpt>
      <trkpt lat="45.22143" lon="6.2313">
        <ele>1517.622</ele>
        <time>2022-07-17T14:04:19Z</time>
      </trkpt>
      <trkpt lat="45.22144" lon="6.23116">
        <ele>1518.511</ele>
        <time>2022-07-17T14:04:24Z</time>
      </trkpt>
      <trkpt lat="45.22144" lon="6.23102">
        <ele>1519.868</ele>
        <time>2022-07-17T14:04:29Z</time>
      </trkpt>
      <trkpt lat="45.22144" lon="6.23088">
        <ele>1521.433</ele>
        <time>2022-07-17T14:04:34Z</time>
      </trkpt>
      <trkpt lat="45.22144" lon="6.23074">
        <ele>1522.594</ele>
        <time>2022-07-17T14:04:39Z</time>
      </trkpt>
      <trkpt lat="45.22144" lon="6.23061">
        <ele>1523.947</ele>
        <time>2022-07-17T14:04:44Z</time>
      </trkpt>
      <trkpt lat="45.22143" lon="6.23048">
        <ele>1525.927</ele>
        <time>2022-07-17T14:04:49Z</time>
      </trkpt>
      <trkpt lat="45.22144" lon="6.23033">
        <ele>1525.996</ele>
        <time>2022-07-17T14:04:54Z</time>
      </trkpt>
      <trkpt lat="45.22145" lon="6.23019">
        <ele>1526.039</ele>
        <time>2022-07-17T14:04:59Z</time>
      </trkpt>
      <trkpt lat="45.22146" lon="6.23005">
        <ele>1526.554</ele>
        <time>2022-07-17T14:05:04Z</time>
      </trkpt>
      <trkpt lat="45.22145" lon="6.2299">
        <ele>1527.011</ele>
        <time>2022-07-17T14:05:09Z</time>
      </trkpt>
      <trkpt lat="45.22144" lon="6.22977">
        <ele>1527.282</ele>
        <time>2022-07-17T14:05:14Z</time>
      </trkpt>
      <trkpt lat="45.22144" lon="6.22966">
        <ele>1529.144</ele>
        <time>2022-07-17T14:05:19Z</time>
      </trkpt>
      <trkpt lat="45.22145" lon="6.22951">
        <ele>1529.551</ele>
        <time>2022-07-17T14:05:24Z</time>
      </trkpt>
      <trkpt lat="45.22145" lon="6.22936">
        <ele>1529.154</ele>
        <time>2022-07-17T14:05:29Z</time>
      </trkpt>
      <trkpt lat="45.22146" lon="6.22922">
        <ele>1528.39</ele>
        <time>2022-07-17T14:05:34Z</time>
      </trkpt>
      <trkpt lat="45.22146" lon="6.2291">
        <ele>1529.223</ele>
        <time>2022-07-17T14:05:39Z</time>
      </trkpt>
      <trkpt lat="45.22147" lon="6.22897">
        <ele>1530.562</ele>
        <time>2022-07-17T14:05:44Z</time>
      </trkpt>
      <trkpt lat="45.22146" lon="6.22884">
        <ele>1531.689</ele>
        <time>2022-07-17T14:05:49Z</time>
      </trkpt>
      <trkpt lat="45.22146" lon="6.22872">
        <ele>1533.447</ele>
        <time>2022-07-17T14:05:54Z</time>
      </trkpt>
      <trkpt lat="45.22146" lon="6.2286">
        <ele>1534.309</ele>
        <time>2022-07-17T14:05:59Z</time>
      </trkpt>
      <trkpt lat="45.22146" lon="6.22847">
        <ele>1535.508</ele>
        <time>2022-07-17T14:06:04Z</time>
      </trkpt>
      <trkpt lat="45.22146" lon="6.22833">
        <ele>1536.163</ele>
        <time>2022-07-17T14:06:09Z</time>
      </trkpt>
      <trkpt lat="45.22146" lon="6.2282">
        <ele>1536.13</ele>
        <time>2022-07-17T14:06:14Z</time>
      </trkpt>
      <trkpt lat="45.22145" lon="6.22807">
        <ele>1537.492</ele>
        <time>2022-07-17T14:06:19Z</time>
      </trkpt>
      <trkpt lat="45.22145" lon="6.22794">
        <ele>1538.729</ele>
        <time>2022-07-17T14:06:24Z</time>
      </trkpt>
      <trkpt lat="45.22145" lon="6.22781">
        <ele>1537.834</ele>
        <time>2022-07-17T14:06:29Z</time>
      </trkpt>
      <trkpt lat="45.22144" lon="6.2277">
        <ele>1538.417</ele>
        <time>2022-07-17T14:06:34Z</time>
      </trkpt>
      <trkpt lat="45.22143" lon="6.22758">
        <ele>1538.007</ele>
        <time>2022-07-17T14:06:39Z</time>
      </trkpt>
      <trkpt lat="45.22142" lon="6.22745">
        <ele>1539.004</ele>
        <time>2022-07-17T14:06:44Z</time>
      </trkpt>
      <trkpt lat="45.22142" lon="6.22733">
        <ele>1540.475</ele>
        <time>2022-07-17T14:06:49Z</time>
      </trkpt>
      <trkpt lat="45.22142" lon="6.22721">
        <ele>1543.01</ele>
        <time>2022-07-17T14:06:54Z</time>
      </trkpt>
      <trkpt lat="45.2214" lon="6.2271">
        <ele>1544.528</ele>
        <time>2022-07-17T14:06:59Z</time>
      </trkpt>
      <trkpt lat="45.2214" lon="6.22699">
        <ele>1544.316</ele>
        <time>2022-07-17T14:07:04Z</time>
      </trkpt>
      <trkpt lat="45.22144" lon="6.22689">
        <ele>1544.514</ele>
        <time>2022-07-17T14:07:09Z</time>
      </trkpt>
      <trkpt lat="45.22151" lon="6.22682">
        <ele>1545.242</ele>
        <time>2022-07-17T14:07:14Z</time>
      </trkpt>
      <trkpt lat="45.22155" lon="6.22672">
        <ele>1547.181</ele>
        <time>2022-07-17T14:07:19Z</time>
      </trkpt>
      <trkpt lat="45.2216" lon="6.22663">
        <ele>1548.431</ele>
        <time>2022-07-17T14:07:24Z</time>
      </trkpt>
      <trkpt lat="45.22166" lon="6.22656">
        <ele>1547.918</ele>
        <time>2022-07-17T14:07:29Z</time>
      </trkpt>
      <trkpt lat="45.22169" lon="6.22646">
        <ele>1547.671</ele>
        <time>2022-07-17T14:07:34Z</time>
      </trkpt>
      <trkpt lat="45.22172" lon="6.22635">
        <ele>1553.122</ele>
        <time>2022-07-17T14:07:39Z</time>
      </trkpt>
      <trkpt lat="45.22172" lon="6.22624">
        <ele>1555.873</ele>
        <time>2022-07-17T14:07:44Z</time>
      </trkpt>
      <trkpt lat="45.22176" lon="6.22615">
        <ele>1551.76</ele>
        <time>2022-07-17T14:07:49Z</time>
      </trkpt>
      <trkpt lat="45.22177" lon="6.22606">
        <ele>1549.992</ele>
        <time>2022-07-17T14:07:54Z</time>
      </trkpt>
      <trkpt lat="45.22181" lon="6.22597">
        <ele>1546.925</ele>
        <time>2022-07-17T14:07:59Z</time>
      </trkpt>
      <trkpt lat="45.22187" lon="6.22589">
        <ele>1544.541</ele>
        <time>2022-07-17T14:08:04Z</time>
      </trkpt>
      <trkpt lat="45.22192" lon="6.22582">
        <ele>1546.791</ele>
        <time>2022-07-17T14:08:09Z</time>
      </trkpt>
      <trkpt lat="45.22196" lon="6.22579">
        <ele>1550.497</ele>
        <time>2022-07-17T14:08:14Z</time>
      </trkpt>
      <trkpt lat="45.22199" lon="6.22573">
        <ele>1554.553</ele>
        <time>2022-07-17T14:08:19Z</time>
      </trkpt>
      <trkpt lat="45.22204" lon="6.22566">
        <ele>1554.895</ele>
        <time>2022-07-17T14:08:24Z</time>
      </trkpt>
      <trkpt lat="45.22208" lon="6.22563">
        <ele>1554.312</ele>
        <time>2022-07-17T14:08:29Z</time>
      </trkpt>
      <trkpt lat="45.22211" lon="6.2256">
        <ele>1556.301</ele>
        <time>2022-07-17T14:08:34Z</time>
      </trkpt>
      <trkpt lat="45.22214" lon="6.22555">
        <ele>1557.593</ele>
        <time>2022-07-17T14:08:39Z</time>
      </trkpt>
      <trkpt lat="45.22203" lon="6.22556">
        <ele>1557.75</ele>
        <time>2022-07-17T14:08:44Z</time>
      </trkpt>
      <trkpt lat="45.22192" lon="6.22556">
        <ele>1555.203</ele>
        <time>2022-07-17T14:08:49Z</time>
      </trkpt>
      <trkpt lat="45.22182" lon="6.22557">
        <ele>1557.12</ele>
        <time>2022-07-17T14:08:54Z</time>
      </trkpt>
      <trkpt lat="45.22174" lon="6.22559">
        <ele>1559.484</ele>
        <time>2022-07-17T14:08:59Z</time>
      </trkpt>
      <trkpt lat="45.22168" lon="6.22554">
        <ele>1561.506</ele>
        <time>2022-07-17T14:09:04Z</time>
      </trkpt>
      <trkpt lat="45.22168" lon="6.22552">
        <ele>1561.699</ele>
        <time>2022-07-17T14:09:09Z</time>
      </trkpt>
      <trkpt lat="45.22171" lon="6.22554">
        <ele>1563.163</ele>
        <time>2022-07-17T14:09:14Z</time>
      </trkpt>
      <trkpt lat="45.2217" lon="6.2254">
        <ele>1559.626</ele>
        <time>2022-07-17T14:09:19Z</time>
      </trkpt>
      <trkpt lat="45.22165" lon="6.22535">
        <ele>1558.793</ele>
        <time>2022-07-17T14:09:24Z</time>
      </trkpt>
      <trkpt lat="45.22159" lon="6.22529">
        <ele>1561.187</ele>
        <time>2022-07-17T14:09:29Z</time>
      </trkpt>
      <trkpt lat="45.22148" lon="6.2253">
        <ele>1562.654</ele>
        <time>2022-07-17T14:09:34Z</time>
      </trkpt>
      <trkpt lat="45.22137" lon="6.22538">
        <ele>1564.221</ele>
        <time>2022-07-17T14:09:39Z</time>
      </trkpt>
      <trkpt lat="45.22135" lon="6.22541">
        <ele>1565.001</ele>
        <time>2022-07-17T14:09:44Z</time>
      </trkpt>
      <trkpt lat="45.22135" lon="6.22541">
        <ele>1565.028</ele>
        <time>2022-07-17T14:09:49Z</time>
      </trkpt>
      <trkpt lat="45.22136" lon="6.22541">
        <ele>1565.234</ele>
        <time>2022-07-17T14:09:54Z</time>
      </trkpt>
      <trkpt lat="45.22143" lon="6.22542">
        <ele>1566.836</ele>
        <time>2022-07-17T14:09:59Z</time>
      </trkpt>
      <trkpt lat="45.22152" lon="6.22546">
        <ele>1567.671</ele>
        <time>2022-07-17T14:10:04Z</time>
      </trkpt>
      <trkpt lat="45.22157" lon="6.22558">
        <ele>1567.78</ele>
        <time>2022-07-17T14:10:09Z</time>
      </trkpt>
      <trkpt lat="45.2216" lon="6.22574">
        <ele>1565.962</ele>
        <time>2022-07-17T14:10:14Z</time>
      </trkpt>
      <trkpt lat="45.22141" lon="6.22581">
        <ele>1563.788</ele>
        <time>2022-07-17T14:10:19Z</time>
      </trkpt>
      <trkpt lat="45.22126" lon="6.2255">
        <ele>1564.387</ele>
        <time>2022-07-17T14:10:24Z</time>
      </trkpt>
      <trkpt lat="45.22117" lon="6.22505">
        <ele>1562.652</ele>
        <time>2022-07-17T14:10:29Z</time>
      </trkpt>
      <trkpt lat="45.2212" lon="6.22456">
        <ele>1563.752</ele>
        <time>2022-07-17T14:10:34Z</time>
      </trkpt>
      <trkpt lat="45.22122" lon="6.22435">
        <ele>1565.904</ele>
        <time>2022-07-17T14:10:39Z</time>
      </trkpt>
      <trkpt lat="45.22119" lon="6.22419">
        <ele>1566.165</ele>
        <time>2022-07-17T14:10:44Z</time>
      </trkpt>
      <trkpt lat="45.22108" lon="6.22408">
        <ele>1566.549</ele>
        <time>2022-07-17T14:10:49Z</time>
      </trkpt>
      <trkpt lat="45.22096" lon="6.224">
        <ele>1566.89</ele>
        <time>2022-07-17T14:10:54Z</time>
      </trkpt>
      <trkpt lat="45.22085" lon="6.22392">
        <ele>1567.518</ele>
        <time>2022-07-17T14:10:59Z</time>
      </trkpt>
      <trkpt lat="45.22075" lon="6.22385">
        <ele>1568.824</ele>
        <time>2022-07-17T14:11:04Z</time>
      </trkpt>
      <trkpt lat="45.22064" lon="6.22379">
        <ele>1569.284</ele>
        <time>2022-07-17T14:11:09Z</time>
      </trkpt>
      <trkpt lat="45.22054" lon="6.22372">
        <ele>1570.706</ele>
        <time>2022-07-17T14:11:14Z</time>
      </trkpt>
      <trkpt lat="45.22044" lon="6.22366">
        <ele>1572.396</ele>
        <time>2022-07-17T14:11:19Z</time>
      </trkpt>
      <trkpt lat="45.22035" lon="6.22358">
        <ele>1573.414</ele>
        <time>2022-07-17T14:11:24Z</time>
      </trkpt>
      <trkpt lat="45.22035" lon="6.22344">
        <ele>1575.463</ele>
        <time>2022-07-17T14:11:29Z</time>
      </trkpt>
      <trkpt lat="45.22044" lon="6.22338">
        <ele>1576.347</ele>
        <time>2022-07-17T14:11:34Z</time>
      </trkpt>
      <trkpt lat="45.22054" lon="6.22337">
        <ele>1576.638</ele>
        <time>2022-07-17T14:11:39Z</time>
      </trkpt>
      <trkpt lat="45.22063" lon="6.22336">
        <ele>1577.505</ele>
        <time>2022-07-17T14:11:44Z</time>
      </trkpt>
      <trkpt lat="45.22072" lon="6.22333">
        <ele>1579.919</ele>
        <time>2022-07-17T14:11:49Z</time>
      </trkpt>
      <trkpt lat="45.2208" lon="6.22328">
        <ele>1580.956</ele>
        <time>2022-07-17T14:11:54Z</time>
      </trkpt>
      <trkpt lat="45.22089" lon="6.22324">
        <ele>1581.675</ele>
        <time>2022-07-17T14:11:59Z</time>
      </trkpt>
      <trkpt lat="45.22095" lon="6.22319">
        <ele>1582.394</ele>
        <time>2022-07-17T14:12:04Z</time>
      </trkpt>
      <trkpt lat="45.22101" lon="6.22317">
        <ele>1582.3</ele>
        <time>2022-07-17T14:12:09Z</time>
      </trkpt>
      <trkpt lat="45.22108" lon="6.22317">
        <ele>1582.568</ele>
        <time>2022-07-17T14:12:14Z</time>
      </trkpt>
      <trkpt lat="45.2211" lon="6.22322">
        <ele>1583.322</ele>
        <time>2022-07-17T14:12:19Z</time>
      </trkpt>
      <trkpt lat="45.22106" lon="6.22324">
        <ele>1580.736</ele>
        <time>2022-07-17T14:12:24Z</time>
      </trkpt>
      <trkpt lat="45.22105" lon="6.22329">
        <ele>1578.829</ele>
        <time>2022-07-17T14:12:29Z</time>
      </trkpt>
      <trkpt lat="45.22105" lon="6.2233">
        <ele>1578.863</ele>
        <time>2022-07-17T14:12:34Z</time>
      </trkpt>
      <trkpt lat="45.221" lon="6.2233">
        <ele>1579.612</ele>
        <time>2022-07-17T14:12:39Z</time>
      </trkpt>
      <trkpt lat="45.22099" lon="6.22327">
        <ele>1579.379</ele>
        <time>2022-07-17T14:12:44Z</time>
      </trkpt>
      <trkpt lat="45.22099" lon="6.22326">
        <ele>1579.351</ele>
        <time>2022-07-17T14:12:49Z</time>
      </trkpt>
      <trkpt lat="45.221" lon="6.22326">
        <ele>1578.77</ele>
        <time>2022-07-17T14:12:54Z</time>
      </trkpt>
      <trkpt lat="45.22101" lon="6.22325">
        <ele>1578.441</ele>
        <time>2022-07-17T14:12:59Z</time>
      </trkpt>
      <trkpt lat="45.22101" lon="6.22325">
        <ele>1578.501</ele>
        <time>2022-07-17T14:13:04Z</time>
      </trkpt>
      <trkpt lat="45.22101" lon="6.22325">
        <ele>1578.553</ele>
        <time>2022-07-17T14:13:09Z</time>
      </trkpt>
      <trkpt lat="45.22102" lon="6.22324">
        <ele>1578.772</ele>
        <time>2022-07-17T14:13:14Z</time>
      </trkpt>
      <trkpt lat="45.22102" lon="6.22324">
        <ele>1578.822</ele>
        <time>2022-07-17T14:13:19Z</time>
      </trkpt>
      <trkpt lat="45.22102" lon="6.22324">
        <ele>1578.855</ele>
        <time>2022-07-17T14:13:24Z</time>
      </trkpt>
      <trkpt lat="45.22102" lon="6.22324">
        <ele>1578.931</ele>
        <time>2022-07-17T14:13:29Z</time>
      </trkpt>
      <trkpt lat="45.22102" lon="6.22324">
        <ele>1578.947</ele>
        <time>2022-07-17T14:13:34Z</time>
      </trkpt>
      <trkpt lat="45.22103" lon="6.22324">
        <ele>1579.195</ele>
        <time>2022-07-17T14:13:39Z</time>
      </trkpt>
      <trkpt lat="45.22103" lon="6.22324">
        <ele>1579.219</ele>
        <time>2022-07-17T14:13:44Z</time>
      </trkpt>
      <trkpt lat="45.22103" lon="6.22324">
        <ele>1579.832</ele>
        <time>2022-07-17T14:13:49Z</time>
      </trkpt>
      <trkpt lat="45.22104" lon="6.22324">
        <ele>1579.445</ele>
        <time>2022-07-17T14:13:54Z</time>
      </trkpt>
      <trkpt lat="45.22104" lon="6.22322">
        <ele>1579.529</ele>
        <time>2022-07-17T14:13:59Z</time>
      </trkpt>
      <trkpt lat="45.22104" lon="6.22323">
        <ele>1579.63</ele>
        <time>2022-07-17T14:14:04Z</time>
      </trkpt>
      <trkpt lat="45.22104" lon="6.22322">
        <ele>1579.639</ele>
        <time>2022-07-17T14:14:09Z</time>
      </trkpt>
      <trkpt lat="45.22104" lon="6.22322">
        <ele>1579.644</ele>
        <time>2022-07-17T14:14:14Z</time>
      </trkpt>
      <trkpt lat="45.22104" lon="6.22322">
        <ele>1579.649</ele>
        <time>2022-07-17T14:14:19Z</time>
      </trkpt>
      <trkpt lat="45.22104" lon="6.22322">
        <ele>1579.658</ele>
        <time>2022-07-17T14:14:24Z</time>
      </trkpt>
      <trkpt lat="45.22104" lon="6.22323">
        <ele>1580.362</ele>
        <time>2022-07-17T14:14:29Z</time>
      </trkpt>
      <trkpt lat="45.22104" lon="6.22322">
        <ele>1581.286</ele>
        <time>2022-07-17T14:14:34Z</time>
      </trkpt>
      <trkpt lat="45.22104" lon="6.22324">
        <ele>1579.719</ele>
        <time>2022-07-17T14:14:39Z</time>
      </trkpt>
      <trkpt lat="45.22104" lon="6.22324">
        <ele>1579.726</ele>
        <time>2022-07-17T14:14:44Z</time>
      </trkpt>
      <trkpt lat="45.22104" lon="6.22324">
        <ele>1579.732</ele>
        <time>2022-07-17T14:14:49Z</time>
      </trkpt>
      <trkpt lat="45.22104" lon="6.22324">
        <ele>1579.77</ele>
        <time>2022-07-17T14:14:54Z</time>
      </trkpt>
      <trkpt lat="45.22104" lon="6.22324">
        <ele>1579.793</ele>
        <time>2022-07-17T14:14:59Z</time>
      </trkpt>
      <trkpt lat="45.22105" lon="6.22324">
        <ele>1579.754</ele>
        <time>2022-07-17T14:15:04Z</time>
      </trkpt>
      <trkpt lat="45.22105" lon="6.22324">
        <ele>1579.91</ele>
        <time>2022-07-17T14:15:09Z</time>
      </trkpt>
      <trkpt lat="45.22105" lon="6.22324">
        <ele>1579.932</ele>
        <time>2022-07-17T14:15:14Z</time>
      </trkpt>
      <trkpt lat="45.22105" lon="6.22324">
        <ele>1579.938</ele>
        <time>2022-07-17T14:15:19Z</time>
      </trkpt>
      <trkpt lat="45.22105" lon="6.22324">
        <ele>1579.939</ele>
        <time>2022-07-17T14:15:24Z</time>
      </trkpt>
      <trkpt lat="45.22105" lon="6.22324">
        <ele>1579.945</ele>
        <time>2022-07-17T14:15:29Z</time>
      </trkpt>
      <trkpt lat="45.22105" lon="6.22324">
        <ele>1579.948</ele>
        <time>2022-07-17T14:15:34Z</time>
      </trkpt>
      <trkpt lat="45.22105" lon="6.22324">
        <ele>1579.949</ele>
        <time>2022-07-17T14:15:39Z</time>
      </trkpt>
      <trkpt lat="45.22105" lon="6.22324">
        <ele>1579.952</ele>
        <time>2022-07-17T14:15:44Z</time>
      </trkpt>
      <trkpt lat="45.22105" lon="6.22324">
        <ele>1579.954</ele>
        <time>2022-07-17T14:15:49Z</time>
      </trkpt>
      <trkpt lat="45.22105" lon="6.22324">
        <ele>1579.963</ele>
        <time>2022-07-17T14:15:54Z</time>
      </trkpt>
      <trkpt lat="45.22105" lon="6.22324">
        <ele>1579.964</ele>
        <time>2022-07-17T14:15:59Z</time>
      </trkpt>
      <trkpt lat="45.22105" lon="6.22324">
        <ele>1579.962</ele>
        <time>2022-07-17T14:16:04Z</time>
      </trkpt>
      <trkpt lat="45.22105" lon="6.22324">
        <ele>1579.963</ele>
        <time>2022-07-17T14:16:09Z</time>
      </trkpt>
      <trkpt lat="45.22105" lon="6.22324">
        <ele>1579.974</ele>
        <time>2022-07-17T14:16:14Z</time>
      </trkpt>
      <trkpt lat="45.22105" lon="6.22324">
        <ele>1579.988</ele>
        <time>2022-07-17T14:16:19Z</time>
      </trkpt>
      <trkpt lat="45.22105" lon="6.22324">
        <ele>1579.995</ele>
        <time>2022-07-17T14:16:24Z</time>
      </trkpt>
      <trkpt lat="45.22105" lon="6.22324">
        <ele>1580.009</ele>
        <time>2022-07-17T14:16:29Z</time>
      </trkpt>
      <trkpt lat="45.22106" lon="6.22324">
        <ele>1580.653</ele>
        <time>2022-07-17T14:16:34Z</time>
      </trkpt>
      <trkpt lat="45.22106" lon="6.22324">
        <ele>1580.662</ele>
        <time>2022-07-17T14:16:39Z</time>
      </trkpt>
      <trkpt lat="45.22106" lon="6.22324">
        <ele>1580.672</ele>
        <time>2022-07-17T14:16:44Z</time>
      </trkpt>
      <trkpt lat="45.22106" lon="6.22324">
        <ele>1580.676</ele>
        <time>2022-07-17T14:16:49Z</time>
      </trkpt>
      <trkpt lat="45.22106" lon="6.22324">
        <ele>1580.679</ele>
        <time>2022-07-17T14:16:54Z</time>
      </trkpt>
      <trkpt lat="45.22105" lon="6.22325">
        <ele>1580.773</ele>
        <time>2022-07-17T14:16:59Z</time>
      </trkpt>
      <trkpt lat="45.22105" lon="6.22325">
        <ele>1580.786</ele>
        <time>2022-07-17T14:17:04Z</time>
      </trkpt>
      <trkpt lat="45.22105" lon="6.22325">
        <ele>1580.784</ele>
        <time>2022-07-17T14:17:09Z</time>
      </trkpt>
      <trkpt lat="45.22105" lon="6.22325">
        <ele>1580.789</ele>
        <time>2022-07-17T14:17:14Z</time>
      </trkpt>
      <trkpt lat="45.22105" lon="6.22325">
        <ele>1580.805</ele>
        <time>2022-07-17T14:17:19Z</time>
      </trkpt>
      <trkpt lat="45.22105" lon="6.22325">
        <ele>1580.816</ele>
        <time>2022-07-17T14:17:24Z</time>
      </trkpt>
      <trkpt lat="45.22105" lon="6.22325">
        <ele>1580.835</ele>
        <time>2022-07-17T14:17:29Z</time>
      </trkpt>
      <trkpt lat="45.22106" lon="6.22325">
        <ele>1581.793</ele>
        <time>2022-07-17T14:17:34Z</time>
      </trkpt>
      <trkpt lat="45.22105" lon="6.22325">
        <ele>1581.809</ele>
        <time>2022-07-17T14:17:39Z</time>
      </trkpt>
      <trkpt lat="45.22105" lon="6.22324">
        <ele>1581.893</ele>
        <time>2022-07-17T14:17:44Z</time>
      </trkpt>
      <trkpt lat="45.22105" lon="6.22324">
        <ele>1581.914</ele>
        <time>2022-07-17T14:17:49Z</time>
      </trkpt>
      <trkpt lat="45.22105" lon="6.22324">
        <ele>1581.948</ele>
        <time>2022-07-17T14:17:54Z</time>
      </trkpt>
      <trkpt lat="45.22105" lon="6.22324">
        <ele>1581.942</ele>
        <time>2022-07-17T14:17:59Z</time>
      </trkpt>
      <trkpt lat="45.22105" lon="6.22324">
        <ele>1581.955</ele>
        <time>2022-07-17T14:18:04Z</time>
      </trkpt>
      <trkpt lat="45.22106" lon="6.22325">
        <ele>1582.168</ele>
        <time>2022-07-17T14:18:09Z</time>
      </trkpt>
      <trkpt lat="45.22106" lon="6.22325">
        <ele>1582.183</ele>
        <time>2022-07-17T14:18:14Z</time>
      </trkpt>
      <trkpt lat="45.22106" lon="6.22325">
        <ele>1582.199</ele>
        <time>2022-07-17T14:18:19Z</time>
      </trkpt>
      <trkpt lat="45.22106" lon="6.22325">
        <ele>1582.21</ele>
        <time>2022-07-17T14:18:24Z</time>
      </trkpt>
      <trkpt lat="45.22106" lon="6.22325">
        <ele>1582.227</ele>
        <time>2022-07-17T14:18:29Z</time>
      </trkpt>
      <trkpt lat="45.22106" lon="6.22325">
        <ele>1582.245</ele>
        <time>2022-07-17T14:18:34Z</time>
      </trkpt>
      <trkpt lat="45.22106" lon="6.22325">
        <ele>1582.29</ele>
        <time>2022-07-17T14:18:39Z</time>
      </trkpt>
      <trkpt lat="45.22106" lon="6.22325">
        <ele>1582.313</ele>
        <time>2022-07-17T14:18:44Z</time>
      </trkpt>
      <trkpt lat="45.22106" lon="6.22324">
        <ele>1582.766</ele>
        <time>2022-07-17T14:18:49Z</time>
      </trkpt>
      <trkpt lat="45.22106" lon="6.22324">
        <ele>1582.782</ele>
        <time>2022-07-17T14:18:54Z</time>
      </trkpt>
      <trkpt lat="45.22106" lon="6.22324">
        <ele>1582.999</ele>
        <time>2022-07-17T14:18:59Z</time>
      </trkpt>
      <trkpt lat="45.22105" lon="6.22323">
        <ele>1583.781</ele>
        <time>2022-07-17T14:19:04Z</time>
      </trkpt>
      <trkpt lat="45.22105" lon="6.22323">
        <ele>1583.789</ele>
        <time>2022-07-17T14:19:09Z</time>
      </trkpt>
      <trkpt lat="45.22105" lon="6.22323">
        <ele>1583.802</ele>
        <time>2022-07-17T14:19:14Z</time>
      </trkpt>
      <trkpt lat="45.22105" lon="6.22323">
        <ele>1583.805</ele>
        <time>2022-07-17T14:19:19Z</time>
      </trkpt>
      <trkpt lat="45.22105" lon="6.22323">
        <ele>1583.815</ele>
        <time>2022-07-17T14:19:24Z</time>
      </trkpt>
      <trkpt lat="45.22105" lon="6.22323">
        <ele>1584.087</ele>
        <time>2022-07-17T14:19:29Z</time>
      </trkpt>
      <trkpt lat="45.22105" lon="6.22323">
        <ele>1584.102</ele>
        <time>2022-07-17T14:19:34Z</time>
      </trkpt>
      <trkpt lat="45.22105" lon="6.22323">
        <ele>1584.378</ele>
        <time>2022-07-17T14:19:39Z</time>
      </trkpt>
      <trkpt lat="45.22105" lon="6.22323">
        <ele>1584.321</ele>
        <time>2022-07-17T14:19:44Z</time>
      </trkpt>
      <trkpt lat="45.22105" lon="6.22323">
        <ele>1584.333</ele>
        <time>2022-07-17T14:19:49Z</time>
      </trkpt>
      <trkpt lat="45.22105" lon="6.22323">
        <ele>1584.335</ele>
        <time>2022-07-17T14:19:54Z</time>
      </trkpt>
      <trkpt lat="45.22105" lon="6.22323">
        <ele>1584.328</ele>
        <time>2022-07-17T14:19:59Z</time>
      </trkpt>
      <trkpt lat="45.22105" lon="6.22323">
        <ele>1584.324</ele>
        <time>2022-07-17T14:20:04Z</time>
      </trkpt>
      <trkpt lat="45.22105" lon="6.22323">
        <ele>1584.327</ele>
        <time>2022-07-17T14:20:09Z</time>
      </trkpt>
      <trkpt lat="45.22105" lon="6.22323">
        <ele>1584.325</ele>
        <time>2022-07-17T14:20:14Z</time>
      </trkpt>
      <trkpt lat="45.22105" lon="6.22323">
        <ele>1584.319</ele>
        <time>2022-07-17T14:20:19Z</time>
      </trkpt>
      <trkpt lat="45.22105" lon="6.22323">
        <ele>1584.316</ele>
        <time>2022-07-17T14:20:24Z</time>
      </trkpt>
      <trkpt lat="45.22105" lon="6.22323">
        <ele>1584.316</ele>
        <time>2022-07-17T14:20:29Z</time>
      </trkpt>
      <trkpt lat="45.22105" lon="6.22323">
        <ele>1584.319</ele>
        <time>2022-07-17T14:20:34Z</time>
      </trkpt>
      <trkpt lat="45.22105" lon="6.22323">
        <ele>1584.314</ele>
        <time>2022-07-17T14:20:39Z</time>
      </trkpt>
      <trkpt lat="45.22105" lon="6.22323">
        <ele>1584.313</ele>
        <time>2022-07-17T14:20:44Z</time>
      </trkpt>
      <trkpt lat="45.22105" lon="6.22323">
        <ele>1584.304</ele>
        <time>2022-07-17T14:20:49Z</time>
      </trkpt>
      <trkpt lat="45.22105" lon="6.22323">
        <ele>1584.293</ele>
        <time>2022-07-17T14:20:54Z</time>
      </trkpt>
      <trkpt lat="45.22105" lon="6.22323">
        <ele>1584.282</ele>
        <time>2022-07-17T14:20:59Z</time>
      </trkpt>
      <trkpt lat="45.22105" lon="6.22323">
        <ele>1584.272</ele>
        <time>2022-07-17T14:21:04Z</time>
      </trkpt>
      <trkpt lat="45.22105" lon="6.22322">
        <ele>1584.279</ele>
        <time>2022-07-17T14:21:09Z</time>
      </trkpt>
      <trkpt lat="45.22105" lon="6.22322">
        <ele>1584.287</ele>
        <time>2022-07-17T14:21:14Z</time>
      </trkpt>
      <trkpt lat="45.22105" lon="6.22322">
        <ele>1584.303</ele>
        <time>2022-07-17T14:21:19Z</time>
      </trkpt>
      <trkpt lat="45.22105" lon="6.22322">
        <ele>1584.32</ele>
        <time>2022-07-17T14:21:24Z</time>
      </trkpt>
      <trkpt lat="45.22105" lon="6.22322">
        <ele>1584.334</ele>
        <time>2022-07-17T14:21:29Z</time>
      </trkpt>
      <trkpt lat="45.22105" lon="6.22322">
        <ele>1584.342</ele>
        <time>2022-07-17T14:21:34Z</time>
      </trkpt>
      <trkpt lat="45.22105" lon="6.22322">
        <ele>1584.354</ele>
        <time>2022-07-17T14:21:39Z</time>
      </trkpt>
      <trkpt lat="45.22105" lon="6.22322">
        <ele>1584.667</ele>
        <time>2022-07-17T14:21:44Z</time>
      </trkpt>
      <trkpt lat="45.22105" lon="6.22322">
        <ele>1584.685</ele>
        <time>2022-07-17T14:21:49Z</time>
      </trkpt>
      <trkpt lat="45.22105" lon="6.22322">
        <ele>1584.704</ele>
        <time>2022-07-17T14:21:54Z</time>
      </trkpt>
      <trkpt lat="45.22105" lon="6.22322">
        <ele>1584.723</ele>
        <time>2022-07-17T14:21:59Z</time>
      </trkpt>
      <trkpt lat="45.22105" lon="6.22322">
        <ele>1584.748</ele>
        <time>2022-07-17T14:22:04Z</time>
      </trkpt>
      <trkpt lat="45.22105" lon="6.22322">
        <ele>1584.764</ele>
        <time>2022-07-17T14:22:09Z</time>
      </trkpt>
      <trkpt lat="45.22105" lon="6.22322">
        <ele>1584.765</ele>
        <time>2022-07-17T14:22:14Z</time>
      </trkpt>
      <trkpt lat="45.22105" lon="6.22322">
        <ele>1584.622</ele>
        <time>2022-07-17T14:22:19Z</time>
      </trkpt>
      <trkpt lat="45.22105" lon="6.22322">
        <ele>1584.623</ele>
        <time>2022-07-17T14:22:24Z</time>
      </trkpt>
      <trkpt lat="45.22105" lon="6.22322">
        <ele>1584.632</ele>
        <time>2022-07-17T14:22:29Z</time>
      </trkpt>
      <trkpt lat="45.22105" lon="6.22322">
        <ele>1584.644</ele>
        <time>2022-07-17T14:22:34Z</time>
      </trkpt>
      <trkpt lat="45.22105" lon="6.22322">
        <ele>1584.65</ele>
        <time>2022-07-17T14:22:39Z</time>
      </trkpt>
      <trkpt lat="45.22105" lon="6.22322">
        <ele>1584.653</ele>
        <time>2022-07-17T14:22:44Z</time>
      </trkpt>
      <trkpt lat="45.22105" lon="6.22322">
        <ele>1584.644</ele>
        <time>2022-07-17T14:22:49Z</time>
      </trkpt>
      <trkpt lat="45.22105" lon="6.22322">
        <ele>1584.651</ele>
        <time>2022-07-17T14:22:54Z</time>
      </trkpt>
      <trkpt lat="45.22105" lon="6.22322">
        <ele>1584.655</ele>
        <time>2022-07-17T14:22:59Z</time>
      </trkpt>
      <trkpt lat="45.22105" lon="6.22322">
        <ele>1584.664</ele>
        <time>2022-07-17T14:23:04Z</time>
      </trkpt>
      <trkpt lat="45.22105" lon="6.22322">
        <ele>1584.667</ele>
        <time>2022-07-17T14:23:09Z</time>
      </trkpt>
      <trkpt lat="45.22105" lon="6.22322">
        <ele>1584.671</ele>
        <time>2022-07-17T14:23:14Z</time>
      </trkpt>
      <trkpt lat="45.22105" lon="6.22322">
        <ele>1584.666</ele>
        <time>2022-07-17T14:23:19Z</time>
      </trkpt>
      <trkpt lat="45.22105" lon="6.22322">
        <ele>1584.67</ele>
        <time>2022-07-17T14:23:24Z</time>
      </trkpt>
      <trkpt lat="45.22105" lon="6.22322">
        <ele>1584.676</ele>
        <time>2022-07-17T14:23:29Z</time>
      </trkpt>
      <trkpt lat="45.22105" lon="6.22322">
        <ele>1584.688</ele>
        <time>2022-07-17T14:23:34Z</time>
      </trkpt>
      <trkpt lat="45.22105" lon="6.22321">
        <ele>1584.704</ele>
        <time>2022-07-17T14:23:39Z</time>
      </trkpt>
      <trkpt lat="45.22105" lon="6.22321">
        <ele>1584.728</ele>
        <time>2022-07-17T14:23:44Z</time>
      </trkpt>
      <trkpt lat="45.22105" lon="6.22321">
        <ele>1584.737</ele>
        <time>2022-07-17T14:23:49Z</time>
      </trkpt>
      <trkpt lat="45.22105" lon="6.22321">
        <ele>1584.735</ele>
        <time>2022-07-17T14:23:54Z</time>
      </trkpt>
      <trkpt lat="45.22105" lon="6.22321">
        <ele>1584.737</ele>
        <time>2022-07-17T14:23:59Z</time>
      </trkpt>
      <trkpt lat="45.22105" lon="6.22321">
        <ele>1584.734</ele>
        <time>2022-07-17T14:24:04Z</time>
      </trkpt>
      <trkpt lat="45.22105" lon="6.22321">
        <ele>1584.744</ele>
        <time>2022-07-17T14:24:09Z</time>
      </trkpt>
      <trkpt lat="45.22105" lon="6.22321">
        <ele>1584.762</ele>
        <time>2022-07-17T14:24:14Z</time>
      </trkpt>
      <trkpt lat="45.22105" lon="6.22321">
        <ele>1584.774</ele>
        <time>2022-07-17T14:24:19Z</time>
      </trkpt>
      <trkpt lat="45.22105" lon="6.22321">
        <ele>1584.783</ele>
        <time>2022-07-17T14:24:24Z</time>
      </trkpt>
      <trkpt lat="45.22105" lon="6.22321">
        <ele>1584.789</ele>
        <time>2022-07-17T14:24:29Z</time>
      </trkpt>
      <trkpt lat="45.22105" lon="6.22321">
        <ele>1584.79</ele>
        <time>2022-07-17T14:24:34Z</time>
      </trkpt>
      <trkpt lat="45.22105" lon="6.22321">
        <ele>1584.792</ele>
        <time>2022-07-17T14:24:39Z</time>
      </trkpt>
      <trkpt lat="45.22105" lon="6.22321">
        <ele>1584.793</ele>
        <time>2022-07-17T14:24:44Z</time>
      </trkpt>
      <trkpt lat="45.22105" lon="6.22321">
        <ele>1584.795</ele>
        <time>2022-07-17T14:24:49Z</time>
      </trkpt>
      <trkpt lat="45.22105" lon="6.22321">
        <ele>1584.794</ele>
        <time>2022-07-17T14:24:54Z</time>
      </trkpt>
      <trkpt lat="45.22105" lon="6.22321">
        <ele>1584.789</ele>
        <time>2022-07-17T14:24:59Z</time>
      </trkpt>
      <trkpt lat="45.22105" lon="6.22321">
        <ele>1584.788</ele>
        <time>2022-07-17T14:25:04Z</time>
      </trkpt>
      <trkpt lat="45.22105" lon="6.22321">
        <ele>1584.789</ele>
        <time>2022-07-17T14:25:09Z</time>
      </trkpt>
      <trkpt lat="45.22105" lon="6.22321">
        <ele>1584.795</ele>
        <time>2022-07-17T14:25:14Z</time>
      </trkpt>
      <trkpt lat="45.22105" lon="6.22321">
        <ele>1584.795</ele>
        <time>2022-07-17T14:25:19Z</time>
      </trkpt>
      <trkpt lat="45.22105" lon="6.22321">
        <ele>1584.805</ele>
        <time>2022-07-17T14:25:24Z</time>
      </trkpt>
      <trkpt lat="45.22105" lon="6.22321">
        <ele>1584.818</ele>
        <time>2022-07-17T14:25:29Z</time>
      </trkpt>
      <trkpt lat="45.22105" lon="6.22321">
        <ele>1584.825</ele>
        <time>2022-07-17T14:25:34Z</time>
      </trkpt>
      <trkpt lat="45.22105" lon="6.22321">
        <ele>1584.831</ele>
        <time>2022-07-17T14:25:39Z</time>
      </trkpt>
      <trkpt lat="45.22105" lon="6.22321">
        <ele>1584.832</ele>
        <time>2022-07-17T14:25:44Z</time>
      </trkpt>
      <trkpt lat="45.22105" lon="6.22321">
        <ele>1584.837</ele>
        <time>2022-07-17T14:25:49Z</time>
      </trkpt>
      <trkpt lat="45.22105" lon="6.22321">
        <ele>1584.846</ele>
        <time>2022-07-17T14:25:54Z</time>
      </trkpt>
      <trkpt lat="45.22105" lon="6.22321">
        <ele>1584.854</ele>
        <time>2022-07-17T14:25:59Z</time>
      </trkpt>
      <trkpt lat="45.22105" lon="6.22321">
        <ele>1584.886</ele>
        <time>2022-07-17T14:26:04Z</time>
      </trkpt>
      <trkpt lat="45.22105" lon="6.22321">
        <ele>1584.898</ele>
        <time>2022-07-17T14:26:09Z</time>
      </trkpt>
      <trkpt lat="45.22105" lon="6.22321">
        <ele>1584.898</ele>
        <time>2022-07-17T14:26:14Z</time>
      </trkpt>
      <trkpt lat="45.22105" lon="6.22321">
        <ele>1584.901</ele>
        <time>2022-07-17T14:26:19Z</time>
      </trkpt>
      <trkpt lat="45.22105" lon="6.22321">
        <ele>1584.912</ele>
        <time>2022-07-17T14:26:24Z</time>
      </trkpt>
      <trkpt lat="45.22105" lon="6.22321">
        <ele>1584.916</ele>
        <time>2022-07-17T14:26:29Z</time>
      </trkpt>
      <trkpt lat="45.22105" lon="6.22321">
        <ele>1584.916</ele>
        <time>2022-07-17T14:26:34Z</time>
      </trkpt>
      <trkpt lat="45.22105" lon="6.22321">
        <ele>1584.922</ele>
        <time>2022-07-17T14:26:39Z</time>
      </trkpt>
      <trkpt lat="45.22105" lon="6.22321">
        <ele>1584.935</ele>
        <time>2022-07-17T14:26:44Z</time>
      </trkpt>
      <trkpt lat="45.22105" lon="6.22321">
        <ele>1584.942</ele>
        <time>2022-07-17T14:26:49Z</time>
      </trkpt>
      <trkpt lat="45.22105" lon="6.22321">
        <ele>1584.942</ele>
        <time>2022-07-17T14:26:54Z</time>
      </trkpt>
      <trkpt lat="45.22105" lon="6.22321">
        <ele>1584.948</ele>
        <time>2022-07-17T14:26:59Z</time>
      </trkpt>
      <trkpt lat="45.22105" lon="6.22321">
        <ele>1585.219</ele>
        <time>2022-07-17T14:27:04Z</time>
      </trkpt>
      <trkpt lat="45.22105" lon="6.22321">
        <ele>1585.227</ele>
        <time>2022-07-17T14:27:09Z</time>
      </trkpt>
      <trkpt lat="45.22105" lon="6.22321">
        <ele>1585.228</ele>
        <time>2022-07-17T14:27:14Z</time>
      </trkpt>
      <trkpt lat="45.22105" lon="6.22321">
        <ele>1585.25</ele>
        <time>2022-07-17T14:27:19Z</time>
      </trkpt>
      <trkpt lat="45.22105" lon="6.22321">
        <ele>1585.266</ele>
        <time>2022-07-17T14:27:24Z</time>
      </trkpt>
      <trkpt lat="45.22105" lon="6.22321">
        <ele>1585.281</ele>
        <time>2022-07-17T14:27:29Z</time>
      </trkpt>
      <trkpt lat="45.22105" lon="6.2232">
        <ele>1585.066</ele>
        <time>2022-07-17T14:27:34Z</time>
      </trkpt>
      <trkpt lat="45.22105" lon="6.2232">
        <ele>1585.06</ele>
        <time>2022-07-17T14:27:39Z</time>
      </trkpt>
      <trkpt lat="45.22105" lon="6.2232">
        <ele>1585.073</ele>
        <time>2022-07-17T14:27:44Z</time>
      </trkpt>
      <trkpt lat="45.22105" lon="6.2232">
        <ele>1585.077</ele>
        <time>2022-07-17T14:27:49Z</time>
      </trkpt>
      <trkpt lat="45.22105" lon="6.2232">
        <ele>1585.081</ele>
        <time>2022-07-17T14:27:54Z</time>
      </trkpt>
      <trkpt lat="45.22105" lon="6.2232">
        <ele>1585.081</ele>
        <time>2022-07-17T14:27:59Z</time>
      </trkpt>
      <trkpt lat="45.22105" lon="6.2232">
        <ele>1585.092</ele>
        <time>2022-07-17T14:28:04Z</time>
      </trkpt>
      <trkpt lat="45.22105" lon="6.2232">
        <ele>1585.103</ele>
        <time>2022-07-17T14:28:09Z</time>
      </trkpt>
      <trkpt lat="45.22105" lon="6.2232">
        <ele>1585.11</ele>
        <time>2022-07-17T14:28:14Z</time>
      </trkpt>
      <trkpt lat="45.22105" lon="6.2232">
        <ele>1585.189</ele>
        <time>2022-07-17T14:28:19Z</time>
      </trkpt>
      <trkpt lat="45.22105" lon="6.2232">
        <ele>1585.206</ele>
        <time>2022-07-17T14:28:24Z</time>
      </trkpt>
      <trkpt lat="45.22104" lon="6.2232">
        <ele>1585.78</ele>
        <time>2022-07-17T14:28:29Z</time>
      </trkpt>
      <trkpt lat="45.22104" lon="6.2232">
        <ele>1585.553</ele>
        <time>2022-07-17T14:28:34Z</time>
      </trkpt>
      <trkpt lat="45.22104" lon="6.2232">
        <ele>1585.555</ele>
        <time>2022-07-17T14:28:39Z</time>
      </trkpt>
      <trkpt lat="45.22104" lon="6.2232">
        <ele>1585.557</ele>
        <time>2022-07-17T14:28:44Z</time>
      </trkpt>
      <trkpt lat="45.22104" lon="6.2232">
        <ele>1585.564</ele>
        <time>2022-07-17T14:28:49Z</time>
      </trkpt>
      <trkpt lat="45.22104" lon="6.2232">
        <ele>1585.57</ele>
        <time>2022-07-17T14:28:54Z</time>
      </trkpt>
      <trkpt lat="45.22104" lon="6.2232">
        <ele>1585.575</ele>
        <time>2022-07-17T14:28:59Z</time>
      </trkpt>
      <trkpt lat="45.22104" lon="6.2232">
        <ele>1585.583</ele>
        <time>2022-07-17T14:29:04Z</time>
      </trkpt>
      <trkpt lat="45.22104" lon="6.2232">
        <ele>1585.589</ele>
        <time>2022-07-17T14:29:09Z</time>
      </trkpt>
      <trkpt lat="45.22104" lon="6.2232">
        <ele>1585.593</ele>
        <time>2022-07-17T14:29:14Z</time>
      </trkpt>
      <trkpt lat="45.22104" lon="6.2232">
        <ele>1585.594</ele>
        <time>2022-07-17T14:29:19Z</time>
      </trkpt>
      <trkpt lat="45.22104" lon="6.2232">
        <ele>1585.592</ele>
        <time>2022-07-17T14:29:24Z</time>
      </trkpt>
      <trkpt lat="45.22104" lon="6.2232">
        <ele>1585.591</ele>
        <time>2022-07-17T14:29:29Z</time>
      </trkpt>
      <trkpt lat="45.22104" lon="6.2232">
        <ele>1585.594</ele>
        <time>2022-07-17T14:29:34Z</time>
      </trkpt>
      <trkpt lat="45.22104" lon="6.2232">
        <ele>1585.599</ele>
        <time>2022-07-17T14:29:39Z</time>
      </trkpt>
      <trkpt lat="45.22104" lon="6.2232">
        <ele>1585.598</ele>
        <time>2022-07-17T14:29:44Z</time>
      </trkpt>
      <trkpt lat="45.22104" lon="6.2232">
        <ele>1585.192</ele>
        <time>2022-07-17T14:29:49Z</time>
      </trkpt>
      <trkpt lat="45.22104" lon="6.2232">
        <ele>1585.236</ele>
        <time>2022-07-17T14:29:54Z</time>
      </trkpt>
      <trkpt lat="45.22104" lon="6.2232">
        <ele>1585.241</ele>
        <time>2022-07-17T14:29:59Z</time>
      </trkpt>
      <trkpt lat="45.22104" lon="6.2232">
        <ele>1585.247</ele>
        <time>2022-07-17T14:30:04Z</time>
      </trkpt>
      <trkpt lat="45.22104" lon="6.2232">
        <ele>1585.256</ele>
        <time>2022-07-17T14:30:09Z</time>
      </trkpt>
      <trkpt lat="45.22104" lon="6.2232">
        <ele>1585.26</ele>
        <time>2022-07-17T14:30:14Z</time>
      </trkpt>
      <trkpt lat="45.22104" lon="6.2232">
        <ele>1585.275</ele>
        <time>2022-07-17T14:30:19Z</time>
      </trkpt>
      <trkpt lat="45.22104" lon="6.2232">
        <ele>1585.284</ele>
        <time>2022-07-17T14:30:24Z</time>
      </trkpt>
      <trkpt lat="45.22104" lon="6.2232">
        <ele>1585.304</ele>
        <time>2022-07-17T14:30:29Z</time>
      </trkpt>
      <trkpt lat="45.22104" lon="6.2232">
        <ele>1585.319</ele>
        <time>2022-07-17T14:30:34Z</time>
      </trkpt>
      <trkpt lat="45.22104" lon="6.2232">
        <ele>1585.325</ele>
        <time>2022-07-17T14:30:39Z</time>
      </trkpt>
      <trkpt lat="45.22104" lon="6.2232">
        <ele>1585.345</ele>
        <time>2022-07-17T14:30:44Z</time>
      </trkpt>
      <trkpt lat="45.22104" lon="6.2232">
        <ele>1585.354</ele>
        <time>2022-07-17T14:30:49Z</time>
      </trkpt>
      <trkpt lat="45.22104" lon="6.2232">
        <ele>1585.397</ele>
        <time>2022-07-17T14:30:54Z</time>
      </trkpt>
      <trkpt lat="45.22104" lon="6.2232">
        <ele>1585.422</ele>
        <time>2022-07-17T14:30:59Z</time>
      </trkpt>
      <trkpt lat="45.22104" lon="6.2232">
        <ele>1585.428</ele>
        <time>2022-07-17T14:31:04Z</time>
      </trkpt>
      <trkpt lat="45.22104" lon="6.2232">
        <ele>1585.439</ele>
        <time>2022-07-17T14:31:09Z</time>
      </trkpt>
      <trkpt lat="45.22104" lon="6.2232">
        <ele>1585.449</ele>
        <time>2022-07-17T14:31:14Z</time>
      </trkpt>
      <trkpt lat="45.22104" lon="6.2232">
        <ele>1585.464</ele>
        <time>2022-07-17T14:31:19Z</time>
      </trkpt>
      <trkpt lat="45.22104" lon="6.2232">
        <ele>1585.482</ele>
        <time>2022-07-17T14:31:24Z</time>
      </trkpt>
      <trkpt lat="45.22104" lon="6.2232">
        <ele>1585.479</ele>
        <time>2022-07-17T14:31:29Z</time>
      </trkpt>
      <trkpt lat="45.22104" lon="6.2232">
        <ele>1585.475</ele>
        <time>2022-07-17T14:31:34Z</time>
      </trkpt>
      <trkpt lat="45.22104" lon="6.2232">
        <ele>1585.482</ele>
        <time>2022-07-17T14:31:39Z</time>
      </trkpt>
      <trkpt lat="45.22104" lon="6.2232">
        <ele>1585.492</ele>
        <time>2022-07-17T14:31:44Z</time>
      </trkpt>
      <trkpt lat="45.22104" lon="6.2232">
        <ele>1585.513</ele>
        <time>2022-07-17T14:31:49Z</time>
      </trkpt>
      <trkpt lat="45.22104" lon="6.2232">
        <ele>1585.542</ele>
        <time>2022-07-17T14:31:54Z</time>
      </trkpt>
      <trkpt lat="45.22104" lon="6.2232">
        <ele>1585.577</ele>
        <time>2022-07-17T14:31:59Z</time>
      </trkpt>
      <trkpt lat="45.22105" lon="6.2232">
        <ele>1585.504</ele>
        <time>2022-07-17T14:32:04Z</time>
      </trkpt>
      <trkpt lat="45.22105" lon="6.2232">
        <ele>1585.503</ele>
        <time>2022-07-17T14:32:09Z</time>
      </trkpt>
      <trkpt lat="45.22105" lon="6.2232">
        <ele>1585.505</ele>
        <time>2022-07-17T14:32:14Z</time>
      </trkpt>
      <trkpt lat="45.22105" lon="6.2232">
        <ele>1585.511</ele>
        <time>2022-07-17T14:32:19Z</time>
      </trkpt>
      <trkpt lat="45.22105" lon="6.2232">
        <ele>1585.514</ele>
        <time>2022-07-17T14:32:24Z</time>
      </trkpt>
      <trkpt lat="45.22105" lon="6.2232">
        <ele>1585.516</ele>
        <time>2022-07-17T14:32:29Z</time>
      </trkpt>
      <trkpt lat="45.22105" lon="6.2232">
        <ele>1585.519</ele>
        <time>2022-07-17T14:32:34Z</time>
      </trkpt>
      <trkpt lat="45.22105" lon="6.2232">
        <ele>1585.519</ele>
        <time>2022-07-17T14:32:39Z</time>
      </trkpt>
      <trkpt lat="45.22105" lon="6.2232">
        <ele>1585.529</ele>
        <time>2022-07-17T14:32:44Z</time>
      </trkpt>
      <trkpt lat="45.22105" lon="6.2232">
        <ele>1585.534</ele>
        <time>2022-07-17T14:32:49Z</time>
      </trkpt>
      <trkpt lat="45.22105" lon="6.2232">
        <ele>1585.536</ele>
        <time>2022-07-17T14:32:54Z</time>
      </trkpt>
      <trkpt lat="45.22105" lon="6.2232">
        <ele>1585.536</ele>
        <time>2022-07-17T14:32:59Z</time>
      </trkpt>
      <trkpt lat="45.22105" lon="6.2232">
        <ele>1585.537</ele>
        <time>2022-07-17T14:33:04Z</time>
      </trkpt>
      <trkpt lat="45.22105" lon="6.2232">
        <ele>1585.547</ele>
        <time>2022-07-17T14:33:09Z</time>
      </trkpt>
      <trkpt lat="45.22105" lon="6.2232">
        <ele>1585.544</ele>
        <time>2022-07-17T14:33:14Z</time>
      </trkpt>
      <trkpt lat="45.22105" lon="6.2232">
        <ele>1585.545</ele>
        <time>2022-07-17T14:33:19Z</time>
      </trkpt>
      <trkpt lat="45.22105" lon="6.2232">
        <ele>1585.548</ele>
        <time>2022-07-17T14:33:24Z</time>
      </trkpt>
      <trkpt lat="45.22105" lon="6.2232">
        <ele>1585.551</ele>
        <time>2022-07-17T14:33:29Z</time>
      </trkpt>
      <trkpt lat="45.22105" lon="6.2232">
        <ele>1585.569</ele>
        <time>2022-07-17T14:33:34Z</time>
      </trkpt>
      <trkpt lat="45.22105" lon="6.22319">
        <ele>1586.04</ele>
        <time>2022-07-17T14:33:39Z</time>
      </trkpt>
      <trkpt lat="45.22105" lon="6.22319">
        <ele>1586.056</ele>
        <time>2022-07-17T14:33:44Z</time>
      </trkpt>
      <trkpt lat="45.22105" lon="6.22319">
        <ele>1586.065</ele>
        <time>2022-07-17T14:33:49Z</time>
      </trkpt>
      <trkpt lat="45.22105" lon="6.22319">
        <ele>1586.073</ele>
        <time>2022-07-17T14:33:54Z</time>
      </trkpt>
      <trkpt lat="45.22105" lon="6.22319">
        <ele>1586.074</ele>
        <time>2022-07-17T14:33:59Z</time>
      </trkpt>
      <trkpt lat="45.22105" lon="6.22319">
        <ele>1586.088</ele>
        <time>2022-07-17T14:34:04Z</time>
      </trkpt>
      <trkpt lat="45.22105" lon="6.22319">
        <ele>1586.43</ele>
        <time>2022-07-17T14:34:09Z</time>
      </trkpt>
      <trkpt lat="45.22105" lon="6.22319">
        <ele>1586.431</ele>
        <time>2022-07-17T14:34:14Z</time>
      </trkpt>
      <trkpt lat="45.22105" lon="6.22319">
        <ele>1586.448</ele>
        <time>2022-07-17T14:34:19Z</time>
      </trkpt>
      <trkpt lat="45.22105" lon="6.22319">
        <ele>1586.46</ele>
        <time>2022-07-17T14:34:24Z</time>
      </trkpt>
      <trkpt lat="45.22105" lon="6.22319">
        <ele>1586.466</ele>
        <time>2022-07-17T14:34:29Z</time>
      </trkpt>
      <trkpt lat="45.22105" lon="6.22319">
        <ele>1586.474</ele>
        <time>2022-07-17T14:34:34Z</time>
      </trkpt>
      <trkpt lat="45.22105" lon="6.22319">
        <ele>1586.472</ele>
        <time>2022-07-17T14:34:39Z</time>
      </trkpt>
      <trkpt lat="45.22105" lon="6.22319">
        <ele>1586.465</ele>
        <time>2022-07-17T14:34:44Z</time>
      </trkpt>
      <trkpt lat="45.22105" lon="6.22319">
        <ele>1586.468</ele>
        <time>2022-07-17T14:34:49Z</time>
      </trkpt>
      <trkpt lat="45.22105" lon="6.22319">
        <ele>1586.484</ele>
        <time>2022-07-17T14:34:54Z</time>
      </trkpt>
      <trkpt lat="45.22105" lon="6.22319">
        <ele>1586.497</ele>
        <time>2022-07-17T14:34:59Z</time>
      </trkpt>
      <trkpt lat="45.22105" lon="6.22319">
        <ele>1586.507</ele>
        <time>2022-07-17T14:35:04Z</time>
      </trkpt>
      <trkpt lat="45.22105" lon="6.22319">
        <ele>1586.529</ele>
        <time>2022-07-17T14:35:09Z</time>
      </trkpt>
      <trkpt lat="45.22105" lon="6.22319">
        <ele>1586.543</ele>
        <time>2022-07-17T14:35:14Z</time>
      </trkpt>
      <trkpt lat="45.22105" lon="6.22319">
        <ele>1586.542</ele>
        <time>2022-07-17T14:35:19Z</time>
      </trkpt>
      <trkpt lat="45.22105" lon="6.22319">
        <ele>1586.545</ele>
        <time>2022-07-17T14:35:24Z</time>
      </trkpt>
      <trkpt lat="45.22105" lon="6.22319">
        <ele>1586.558</ele>
        <time>2022-07-17T14:35:29Z</time>
      </trkpt>
      <trkpt lat="45.22105" lon="6.22319">
        <ele>1586.559</ele>
        <time>2022-07-17T14:35:34Z</time>
      </trkpt>
      <trkpt lat="45.22105" lon="6.22319">
        <ele>1586.562</ele>
        <time>2022-07-17T14:35:39Z</time>
      </trkpt>
      <trkpt lat="45.22105" lon="6.22319">
        <ele>1586.564</ele>
        <time>2022-07-17T14:35:44Z</time>
      </trkpt>
      <trkpt lat="45.22105" lon="6.22319">
        <ele>1586.567</ele>
        <time>2022-07-17T14:35:49Z</time>
      </trkpt>
      <trkpt lat="45.22105" lon="6.22319">
        <ele>1586.571</ele>
        <time>2022-07-17T14:35:54Z</time>
      </trkpt>
      <trkpt lat="45.22105" lon="6.22319">
        <ele>1586.578</ele>
        <time>2022-07-17T14:35:59Z</time>
      </trkpt>
      <trkpt lat="45.22105" lon="6.22319">
        <ele>1586.585</ele>
        <time>2022-07-17T14:36:04Z</time>
      </trkpt>
      <trkpt lat="45.22105" lon="6.22319">
        <ele>1586.59</ele>
        <time>2022-07-17T14:36:09Z</time>
      </trkpt>
      <trkpt lat="45.22105" lon="6.22319">
        <ele>1586.603</ele>
        <time>2022-07-17T14:36:14Z</time>
      </trkpt>
      <trkpt lat="45.22105" lon="6.22319">
        <ele>1586.616</ele>
        <time>2022-07-17T14:36:19Z</time>
      </trkpt>
      <trkpt lat="45.22105" lon="6.22319">
        <ele>1586.627</ele>
        <time>2022-07-17T14:36:24Z</time>
      </trkpt>
      <trkpt lat="45.22105" lon="6.22319">
        <ele>1586.644</ele>
        <time>2022-07-17T14:36:29Z</time>
      </trkpt>
      <trkpt lat="45.22105" lon="6.22319">
        <ele>1586.66</ele>
        <time>2022-07-17T14:36:34Z</time>
      </trkpt>
      <trkpt lat="45.22105" lon="6.22319">
        <ele>1586.669</ele>
        <time>2022-07-17T14:36:39Z</time>
      </trkpt>
      <trkpt lat="45.22105" lon="6.22319">
        <ele>1586.676</ele>
        <time>2022-07-17T14:36:44Z</time>
      </trkpt>
      <trkpt lat="45.22105" lon="6.22319">
        <ele>1586.687</ele>
        <time>2022-07-17T14:36:49Z</time>
      </trkpt>
      <trkpt lat="45.22105" lon="6.22319">
        <ele>1586.695</ele>
        <time>2022-07-17T14:36:54Z</time>
      </trkpt>
      <trkpt lat="45.22105" lon="6.22319">
        <ele>1586.705</ele>
        <time>2022-07-17T14:36:59Z</time>
      </trkpt>
      <trkpt lat="45.22105" lon="6.22319">
        <ele>1586.702</ele>
        <time>2022-07-17T14:37:04Z</time>
      </trkpt>
      <trkpt lat="45.22105" lon="6.22319">
        <ele>1586.703</ele>
        <time>2022-07-17T14:37:09Z</time>
      </trkpt>
      <trkpt lat="45.22105" lon="6.22319">
        <ele>1586.701</ele>
        <time>2022-07-17T14:37:14Z</time>
      </trkpt>
      <trkpt lat="45.22105" lon="6.22319">
        <ele>1586.707</ele>
        <time>2022-07-17T14:37:19Z</time>
      </trkpt>
      <trkpt lat="45.22104" lon="6.22318">
        <ele>1587.164</ele>
        <time>2022-07-17T14:37:24Z</time>
      </trkpt>
      <trkpt lat="45.22104" lon="6.22318">
        <ele>1587.171</ele>
        <time>2022-07-17T14:37:29Z</time>
      </trkpt>
      <trkpt lat="45.22104" lon="6.22318">
        <ele>1587.178</ele>
        <time>2022-07-17T14:37:34Z</time>
      </trkpt>
      <trkpt lat="45.22104" lon="6.22318">
        <ele>1587.185</ele>
        <time>2022-07-17T14:37:39Z</time>
      </trkpt>
      <trkpt lat="45.22104" lon="6.22318">
        <ele>1587.192</ele>
        <time>2022-07-17T14:37:44Z</time>
      </trkpt>
      <trkpt lat="45.22104" lon="6.22318">
        <ele>1587.101</ele>
        <time>2022-07-17T14:37:49Z</time>
      </trkpt>
      <trkpt lat="45.22103" lon="6.22318">
        <ele>1586.871</ele>
        <time>2022-07-17T14:37:54Z</time>
      </trkpt>
      <trkpt lat="45.22104" lon="6.22318">
        <ele>1586.979</ele>
        <time>2022-07-17T14:37:59Z</time>
      </trkpt>
      <trkpt lat="45.22104" lon="6.22318">
        <ele>1586.985</ele>
        <time>2022-07-17T14:38:04Z</time>
      </trkpt>
      <trkpt lat="45.22104" lon="6.22318">
        <ele>1586.993</ele>
        <time>2022-07-17T14:38:09Z</time>
      </trkpt>
      <trkpt lat="45.22103" lon="6.22318">
        <ele>1587.953</ele>
        <time>2022-07-17T14:38:14Z</time>
      </trkpt>
      <trkpt lat="45.22103" lon="6.22317">
        <ele>1588.445</ele>
        <time>2022-07-17T14:38:19Z</time>
      </trkpt>
      <trkpt lat="45.22103" lon="6.22317">
        <ele>1588.454</ele>
        <time>2022-07-17T14:38:24Z</time>
      </trkpt>
      <trkpt lat="45.22103" lon="6.22317">
        <ele>1588.463</ele>
        <time>2022-07-17T14:38:29Z</time>
      </trkpt>
      <trkpt lat="45.22103" lon="6.22317">
        <ele>1588.474</ele>
        <time>2022-07-17T14:38:34Z</time>
      </trkpt>
      <trkpt lat="45.22103" lon="6.22317">
        <ele>1588.489</ele>
        <time>2022-07-17T14:38:39Z</time>
      </trkpt>
      <trkpt lat="45.22103" lon="6.22317">
        <ele>1588.503</ele>
        <time>2022-07-17T14:38:44Z</time>
      </trkpt>
      <trkpt lat="45.22103" lon="6.22317">
        <ele>1588.509</ele>
        <time>2022-07-17T14:38:49Z</time>
      </trkpt>
      <trkpt lat="45.22103" lon="6.22318">
        <ele>1588.686</ele>
        <time>2022-07-17T14:38:54Z</time>
      </trkpt>
      <trkpt lat="45.22103" lon="6.22318">
        <ele>1588.689</ele>
        <time>2022-07-17T14:38:59Z</time>
      </trkpt>
      <trkpt lat="45.22103" lon="6.22318">
        <ele>1588.685</ele>
        <time>2022-07-17T14:39:04Z</time>
      </trkpt>
      <trkpt lat="45.22103" lon="6.22318">
        <ele>1588.678</ele>
        <time>2022-07-17T14:39:09Z</time>
      </trkpt>
      <trkpt lat="45.22103" lon="6.22318">
        <ele>1588.674</ele>
        <time>2022-07-17T14:39:14Z</time>
      </trkpt>
      <trkpt lat="45.22103" lon="6.22318">
        <ele>1588.696</ele>
        <time>2022-07-17T14:39:19Z</time>
      </trkpt>
      <trkpt lat="45.22103" lon="6.22318">
        <ele>1588.701</ele>
        <time>2022-07-17T14:39:24Z</time>
      </trkpt>
      <trkpt lat="45.22103" lon="6.22318">
        <ele>1588.699</ele>
        <time>2022-07-17T14:39:29Z</time>
      </trkpt>
      <trkpt lat="45.22103" lon="6.22318">
        <ele>1588.704</ele>
        <time>2022-07-17T14:39:34Z</time>
      </trkpt>
      <trkpt lat="45.22103" lon="6.22318">
        <ele>1588.712</ele>
        <time>2022-07-17T14:39:39Z</time>
      </trkpt>
      <trkpt lat="45.22103" lon="6.22318">
        <ele>1588.709</ele>
        <time>2022-07-17T14:39:44Z</time>
      </trkpt>
      <trkpt lat="45.22103" lon="6.22318">
        <ele>1588.718</ele>
        <time>2022-07-17T14:39:49Z</time>
      </trkpt>
      <trkpt lat="45.22103" lon="6.22318">
        <ele>1588.725</ele>
        <time>2022-07-17T14:39:54Z</time>
      </trkpt>
      <trkpt lat="45.22103" lon="6.22318">
        <ele>1588.727</ele>
        <time>2022-07-17T14:39:59Z</time>
      </trkpt>
      <trkpt lat="45.22103" lon="6.22318">
        <ele>1588.734</ele>
        <time>2022-07-17T14:40:04Z</time>
      </trkpt>
      <trkpt lat="45.22103" lon="6.22318">
        <ele>1588.746</ele>
        <time>2022-07-17T14:40:09Z</time>
      </trkpt>
      <trkpt lat="45.22103" lon="6.22318">
        <ele>1588.747</ele>
        <time>2022-07-17T14:40:14Z</time>
      </trkpt>
      <trkpt lat="45.22103" lon="6.22318">
        <ele>1588.764</ele>
        <time>2022-07-17T14:40:19Z</time>
      </trkpt>
      <trkpt lat="45.22103" lon="6.22318">
        <ele>1588.763</ele>
        <time>2022-07-17T14:40:24Z</time>
      </trkpt>
      <trkpt lat="45.22103" lon="6.22318">
        <ele>1588.774</ele>
        <time>2022-07-17T14:40:29Z</time>
      </trkpt>
      <trkpt lat="45.22103" lon="6.22318">
        <ele>1588.792</ele>
        <time>2022-07-17T14:40:34Z</time>
      </trkpt>
      <trkpt lat="45.22103" lon="6.22318">
        <ele>1588.797</ele>
        <time>2022-07-17T14:40:39Z</time>
      </trkpt>
      <trkpt lat="45.22103" lon="6.22318">
        <ele>1588.812</ele>
        <time>2022-07-17T14:40:44Z</time>
      </trkpt>
      <trkpt lat="45.22103" lon="6.22317">
        <ele>1588.825</ele>
        <time>2022-07-17T14:40:49Z</time>
      </trkpt>
      <trkpt lat="45.22103" lon="6.22317">
        <ele>1588.843</ele>
        <time>2022-07-17T14:40:54Z</time>
      </trkpt>
      <trkpt lat="45.22103" lon="6.22317">
        <ele>1588.851</ele>
        <time>2022-07-17T14:40:59Z</time>
      </trkpt>
      <trkpt lat="45.22103" lon="6.22317">
        <ele>1588.851</ele>
        <time>2022-07-17T14:41:04Z</time>
      </trkpt>
      <trkpt lat="45.22103" lon="6.22317">
        <ele>1588.852</ele>
        <time>2022-07-17T14:41:09Z</time>
      </trkpt>
      <trkpt lat="45.22103" lon="6.22317">
        <ele>1588.878</ele>
        <time>2022-07-17T14:41:14Z</time>
      </trkpt>
      <trkpt lat="45.22103" lon="6.22317">
        <ele>1588.902</ele>
        <time>2022-07-17T14:41:19Z</time>
      </trkpt>
      <trkpt lat="45.22103" lon="6.22317">
        <ele>1588.911</ele>
        <time>2022-07-17T14:41:24Z</time>
      </trkpt>
      <trkpt lat="45.22103" lon="6.22317">
        <ele>1588.911</ele>
        <time>2022-07-17T14:41:29Z</time>
      </trkpt>
      <trkpt lat="45.22103" lon="6.22317">
        <ele>1588.918</ele>
        <time>2022-07-17T14:41:34Z</time>
      </trkpt>
      <trkpt lat="45.22103" lon="6.22317">
        <ele>1588.927</ele>
        <time>2022-07-17T14:41:39Z</time>
      </trkpt>
      <trkpt lat="45.22103" lon="6.22317">
        <ele>1588.949</ele>
        <time>2022-07-17T14:41:44Z</time>
      </trkpt>
      <trkpt lat="45.22103" lon="6.22317">
        <ele>1588.958</ele>
        <time>2022-07-17T14:41:49Z</time>
      </trkpt>
      <trkpt lat="45.22103" lon="6.22317">
        <ele>1588.967</ele>
        <time>2022-07-17T14:41:54Z</time>
      </trkpt>
      <trkpt lat="45.22103" lon="6.22317">
        <ele>1588.985</ele>
        <time>2022-07-17T14:41:59Z</time>
      </trkpt>
      <trkpt lat="45.22103" lon="6.22317">
        <ele>1588.999</ele>
        <time>2022-07-17T14:42:04Z</time>
      </trkpt>
      <trkpt lat="45.22103" lon="6.22317">
        <ele>1589.001</ele>
        <time>2022-07-17T14:42:09Z</time>
      </trkpt>
      <trkpt lat="45.22103" lon="6.22317">
        <ele>1589.007</ele>
        <time>2022-07-17T14:42:14Z</time>
      </trkpt>
      <trkpt lat="45.22103" lon="6.22317">
        <ele>1589.01</ele>
        <time>2022-07-17T14:42:19Z</time>
      </trkpt>
      <trkpt lat="45.22103" lon="6.22317">
        <ele>1589.004</ele>
        <time>2022-07-17T14:42:24Z</time>
      </trkpt>
      <trkpt lat="45.22103" lon="6.22317">
        <ele>1588.996</ele>
        <time>2022-07-17T14:42:29Z</time>
      </trkpt>
      <trkpt lat="45.22103" lon="6.22317">
        <ele>1588.989</ele>
        <time>2022-07-17T14:42:34Z</time>
      </trkpt>
      <trkpt lat="45.22103" lon="6.22317">
        <ele>1588.985</ele>
        <time>2022-07-17T14:42:39Z</time>
      </trkpt>
      <trkpt lat="45.22103" lon="6.22317">
        <ele>1588.781</ele>
        <time>2022-07-17T14:42:44Z</time>
      </trkpt>
      <trkpt lat="45.22103" lon="6.22317">
        <ele>1588.76</ele>
        <time>2022-07-17T14:42:49Z</time>
      </trkpt>
      <trkpt lat="45.22103" lon="6.22317">
        <ele>1588.748</ele>
        <time>2022-07-17T14:42:54Z</time>
      </trkpt>
      <trkpt lat="45.22103" lon="6.22317">
        <ele>1588.75</ele>
        <time>2022-07-17T14:42:59Z</time>
      </trkpt>
      <trkpt lat="45.22103" lon="6.22318">
        <ele>1588.688</ele>
        <time>2022-07-17T14:43:04Z</time>
      </trkpt>
      <trkpt lat="45.22102" lon="6.22317">
        <ele>1588.703</ele>
        <time>2022-07-17T14:43:09Z</time>
      </trkpt>
      <trkpt lat="45.22102" lon="6.22317">
        <ele>1588.713</ele>
        <time>2022-07-17T14:43:14Z</time>
      </trkpt>
      <trkpt lat="45.22102" lon="6.22317">
        <ele>1588.714</ele>
        <time>2022-07-17T14:43:19Z</time>
      </trkpt>
      <trkpt lat="45.22102" lon="6.22317">
        <ele>1588.708</ele>
        <time>2022-07-17T14:43:24Z</time>
      </trkpt>
      <trkpt lat="45.22102" lon="6.22317">
        <ele>1588.709</ele>
        <time>2022-07-17T14:43:29Z</time>
      </trkpt>
      <trkpt lat="45.22102" lon="6.22317">
        <ele>1588.705</ele>
        <time>2022-07-17T14:43:34Z</time>
      </trkpt>
      <trkpt lat="45.22102" lon="6.22317">
        <ele>1588.71</ele>
        <time>2022-07-17T14:43:39Z</time>
      </trkpt>
      <trkpt lat="45.22102" lon="6.22317">
        <ele>1588.713</ele>
        <time>2022-07-17T14:43:44Z</time>
      </trkpt>
      <trkpt lat="45.22102" lon="6.22317">
        <ele>1588.712</ele>
        <time>2022-07-17T14:43:49Z</time>
      </trkpt>
      <trkpt lat="45.22102" lon="6.22317">
        <ele>1588.712</ele>
        <time>2022-07-17T14:43:54Z</time>
      </trkpt>
      <trkpt lat="45.22102" lon="6.22317">
        <ele>1588.717</ele>
        <time>2022-07-17T14:43:59Z</time>
      </trkpt>
      <trkpt lat="45.22102" lon="6.22317">
        <ele>1588.722</ele>
        <time>2022-07-17T14:44:04Z</time>
      </trkpt>
      <trkpt lat="45.22102" lon="6.22317">
        <ele>1588.722</ele>
        <time>2022-07-17T14:44:09Z</time>
      </trkpt>
      <trkpt lat="45.22102" lon="6.22317">
        <ele>1588.72</ele>
        <time>2022-07-17T14:44:14Z</time>
      </trkpt>
      <trkpt lat="45.22102" lon="6.22317">
        <ele>1588.717</ele>
        <time>2022-07-17T14:44:19Z</time>
      </trkpt>
      <trkpt lat="45.22102" lon="6.22317">
        <ele>1588.716</ele>
        <time>2022-07-17T14:44:24Z</time>
      </trkpt>
      <trkpt lat="45.22102" lon="6.22317">
        <ele>1588.719</ele>
        <time>2022-07-17T14:44:29Z</time>
      </trkpt>
      <trkpt lat="45.22102" lon="6.22317">
        <ele>1588.716</ele>
        <time>2022-07-17T14:44:34Z</time>
      </trkpt>
      <trkpt lat="45.22102" lon="6.22317">
        <ele>1588.702</ele>
        <time>2022-07-17T14:44:39Z</time>
      </trkpt>
      <trkpt lat="45.22102" lon="6.22318">
        <ele>1588.379</ele>
        <time>2022-07-17T14:44:44Z</time>
      </trkpt>
      <trkpt lat="45.22102" lon="6.22318">
        <ele>1588.379</ele>
        <time>2022-07-17T14:44:49Z</time>
      </trkpt>
      <trkpt lat="45.22102" lon="6.22318">
        <ele>1588.392</ele>
        <time>2022-07-17T14:44:54Z</time>
      </trkpt>
      <trkpt lat="45.22102" lon="6.22318">
        <ele>1588.385</ele>
        <time>2022-07-17T14:44:59Z</time>
      </trkpt>
      <trkpt lat="45.22102" lon="6.22318">
        <ele>1588.388</ele>
        <time>2022-07-17T14:45:04Z</time>
      </trkpt>
      <trkpt lat="45.22102" lon="6.22318">
        <ele>1588.388</ele>
        <time>2022-07-17T14:45:09Z</time>
      </trkpt>
      <trkpt lat="45.22102" lon="6.22318">
        <ele>1588.397</ele>
        <time>2022-07-17T14:45:14Z</time>
      </trkpt>
      <trkpt lat="45.22102" lon="6.22318">
        <ele>1588.394</ele>
        <time>2022-07-17T14:45:19Z</time>
      </trkpt>
      <trkpt lat="45.22102" lon="6.22318">
        <ele>1588.39</ele>
        <time>2022-07-17T14:45:24Z</time>
      </trkpt>
      <trkpt lat="45.22102" lon="6.22318">
        <ele>1588.389</ele>
        <time>2022-07-17T14:45:29Z</time>
      </trkpt>
      <trkpt lat="45.22102" lon="6.22318">
        <ele>1588.387</ele>
        <time>2022-07-17T14:45:34Z</time>
      </trkpt>
      <trkpt lat="45.22102" lon="6.22318">
        <ele>1588.39</ele>
        <time>2022-07-17T14:45:39Z</time>
      </trkpt>
      <trkpt lat="45.22102" lon="6.22318">
        <ele>1588.389</ele>
        <time>2022-07-17T14:45:44Z</time>
      </trkpt>
      <trkpt lat="45.22102" lon="6.22318">
        <ele>1588.388</ele>
        <time>2022-07-17T14:45:49Z</time>
      </trkpt>
      <trkpt lat="45.22102" lon="6.22317">
        <ele>1588.426</ele>
        <time>2022-07-17T14:45:54Z</time>
      </trkpt>
      <trkpt lat="45.22102" lon="6.22317">
        <ele>1588.418</ele>
        <time>2022-07-17T14:45:59Z</time>
      </trkpt>
      <trkpt lat="45.22102" lon="6.22317">
        <ele>1588.424</ele>
        <time>2022-07-17T14:46:04Z</time>
      </trkpt>
      <trkpt lat="45.22102" lon="6.22317">
        <ele>1588.425</ele>
        <time>2022-07-17T14:46:09Z</time>
      </trkpt>
      <trkpt lat="45.22102" lon="6.22317">
        <ele>1588.435</ele>
        <time>2022-07-17T14:46:14Z</time>
      </trkpt>
      <trkpt lat="45.22102" lon="6.22317">
        <ele>1588.446</ele>
        <time>2022-07-17T14:46:19Z</time>
      </trkpt>
      <trkpt lat="45.22102" lon="6.22317">
        <ele>1588.455</ele>
        <time>2022-07-17T14:46:24Z</time>
      </trkpt>
      <trkpt lat="45.22102" lon="6.22317">
        <ele>1588.455</ele>
        <time>2022-07-17T14:46:29Z</time>
      </trkpt>
      <trkpt lat="45.22102" lon="6.22317">
        <ele>1588.456</ele>
        <time>2022-07-17T14:46:34Z</time>
      </trkpt>
      <trkpt lat="45.22102" lon="6.22317">
        <ele>1588.463</ele>
        <time>2022-07-17T14:46:39Z</time>
      </trkpt>
      <trkpt lat="45.22102" lon="6.22317">
        <ele>1588.467</ele>
        <time>2022-07-17T14:46:44Z</time>
      </trkpt>
      <trkpt lat="45.22102" lon="6.22317">
        <ele>1588.477</ele>
        <time>2022-07-17T14:46:49Z</time>
      </trkpt>
      <trkpt lat="45.22102" lon="6.22317">
        <ele>1588.481</ele>
        <time>2022-07-17T14:46:54Z</time>
      </trkpt>
      <trkpt lat="45.22102" lon="6.22317">
        <ele>1588.482</ele>
        <time>2022-07-17T14:46:59Z</time>
      </trkpt>
      <trkpt lat="45.22102" lon="6.22317">
        <ele>1588.487</ele>
        <time>2022-07-17T14:47:04Z</time>
      </trkpt>
      <trkpt lat="45.22102" lon="6.22317">
        <ele>1588.491</ele>
        <time>2022-07-17T14:47:09Z</time>
      </trkpt>
      <trkpt lat="45.22102" lon="6.22317">
        <ele>1588.499</ele>
        <time>2022-07-17T14:47:14Z</time>
      </trkpt>
      <trkpt lat="45.22102" lon="6.22317">
        <ele>1588.502</ele>
        <time>2022-07-17T14:47:19Z</time>
      </trkpt>
      <trkpt lat="45.22102" lon="6.22317">
        <ele>1588.508</ele>
        <time>2022-07-17T14:47:24Z</time>
      </trkpt>
      <trkpt lat="45.22102" lon="6.22317">
        <ele>1588.515</ele>
        <time>2022-07-17T14:47:29Z</time>
      </trkpt>
      <trkpt lat="45.22102" lon="6.22317">
        <ele>1588.52</ele>
        <time>2022-07-17T14:47:34Z</time>
      </trkpt>
      <trkpt lat="45.22102" lon="6.22317">
        <ele>1588.518</ele>
        <time>2022-07-17T14:47:39Z</time>
      </trkpt>
      <trkpt lat="45.22102" lon="6.22317">
        <ele>1588.519</ele>
        <time>2022-07-17T14:47:44Z</time>
      </trkpt>
      <trkpt lat="45.22102" lon="6.22317">
        <ele>1588.525</ele>
        <time>2022-07-17T14:47:49Z</time>
      </trkpt>
      <trkpt lat="45.22102" lon="6.22317">
        <ele>1588.533</ele>
        <time>2022-07-17T14:47:54Z</time>
      </trkpt>
      <trkpt lat="45.22102" lon="6.22317">
        <ele>1588.544</ele>
        <time>2022-07-17T14:47:59Z</time>
      </trkpt>
      <trkpt lat="45.22102" lon="6.22317">
        <ele>1588.551</ele>
        <time>2022-07-17T14:48:04Z</time>
      </trkpt>
      <trkpt lat="45.22102" lon="6.22317">
        <ele>1588.557</ele>
        <time>2022-07-17T14:48:09Z</time>
      </trkpt>
      <trkpt lat="45.22102" lon="6.22317">
        <ele>1588.558</ele>
        <time>2022-07-17T14:48:14Z</time>
      </trkpt>
      <trkpt lat="45.22102" lon="6.22317">
        <ele>1588.567</ele>
        <time>2022-07-17T14:48:19Z</time>
      </trkpt>
      <trkpt lat="45.22102" lon="6.22317">
        <ele>1588.58</ele>
        <time>2022-07-17T14:48:24Z</time>
      </trkpt>
      <trkpt lat="45.22102" lon="6.22317">
        <ele>1588.586</ele>
        <time>2022-07-17T14:48:29Z</time>
      </trkpt>
      <trkpt lat="45.22102" lon="6.22317">
        <ele>1588.595</ele>
        <time>2022-07-17T14:48:34Z</time>
      </trkpt>
      <trkpt lat="45.22102" lon="6.22317">
        <ele>1588.597</ele>
        <time>2022-07-17T14:48:39Z</time>
      </trkpt>
      <trkpt lat="45.22102" lon="6.22317">
        <ele>1588.605</ele>
        <time>2022-07-17T14:48:44Z</time>
      </trkpt>
      <trkpt lat="45.22102" lon="6.22317">
        <ele>1588.616</ele>
        <time>2022-07-17T14:48:49Z</time>
      </trkpt>
      <trkpt lat="45.22102" lon="6.22317">
        <ele>1588.63</ele>
        <time>2022-07-17T14:48:54Z</time>
      </trkpt>
      <trkpt lat="45.22102" lon="6.22317">
        <ele>1588.644</ele>
        <time>2022-07-17T14:48:59Z</time>
      </trkpt>
      <trkpt lat="45.22102" lon="6.22317">
        <ele>1588.656</ele>
        <time>2022-07-17T14:49:04Z</time>
      </trkpt>
      <trkpt lat="45.22102" lon="6.22317">
        <ele>1588.661</ele>
        <time>2022-07-17T14:49:09Z</time>
      </trkpt>
      <trkpt lat="45.22102" lon="6.22317">
        <ele>1588.665</ele>
        <time>2022-07-17T14:49:14Z</time>
      </trkpt>
      <trkpt lat="45.22102" lon="6.22317">
        <ele>1588.676</ele>
        <time>2022-07-17T14:49:19Z</time>
      </trkpt>
      <trkpt lat="45.22102" lon="6.22317">
        <ele>1588.683</ele>
        <time>2022-07-17T14:49:24Z</time>
      </trkpt>
      <trkpt lat="45.22102" lon="6.22317">
        <ele>1588.693</ele>
        <time>2022-07-17T14:49:29Z</time>
      </trkpt>
      <trkpt lat="45.22102" lon="6.22317">
        <ele>1588.709</ele>
        <time>2022-07-17T14:49:34Z</time>
      </trkpt>
      <trkpt lat="45.22102" lon="6.22317">
        <ele>1588.714</ele>
        <time>2022-07-17T14:49:39Z</time>
      </trkpt>
      <trkpt lat="45.22102" lon="6.22317">
        <ele>1588.725</ele>
        <time>2022-07-17T14:49:44Z</time>
      </trkpt>
      <trkpt lat="45.22102" lon="6.22317">
        <ele>1588.732</ele>
        <time>2022-07-17T14:49:49Z</time>
      </trkpt>
      <trkpt lat="45.22102" lon="6.22317">
        <ele>1588.736</ele>
        <time>2022-07-17T14:49:54Z</time>
      </trkpt>
      <trkpt lat="45.22102" lon="6.22317">
        <ele>1588.731</ele>
        <time>2022-07-17T14:49:59Z</time>
      </trkpt>
      <trkpt lat="45.22102" lon="6.22317">
        <ele>1588.73</ele>
        <time>2022-07-17T14:50:04Z</time>
      </trkpt>
      <trkpt lat="45.22102" lon="6.22317">
        <ele>1588.734</ele>
        <time>2022-07-17T14:50:09Z</time>
      </trkpt>
      <trkpt lat="45.22102" lon="6.22317">
        <ele>1588.735</ele>
        <time>2022-07-17T14:50:14Z</time>
      </trkpt>
      <trkpt lat="45.22102" lon="6.22317">
        <ele>1588.745</ele>
        <time>2022-07-17T14:50:19Z</time>
      </trkpt>
      <trkpt lat="45.22102" lon="6.22317">
        <ele>1588.746</ele>
        <time>2022-07-17T14:50:24Z</time>
      </trkpt>
      <trkpt lat="45.22102" lon="6.22317">
        <ele>1588.746</ele>
        <time>2022-07-17T14:50:29Z</time>
      </trkpt>
      <trkpt lat="45.22102" lon="6.22317">
        <ele>1588.749</ele>
        <time>2022-07-17T14:50:34Z</time>
      </trkpt>
      <trkpt lat="45.22102" lon="6.22317">
        <ele>1588.739</ele>
        <time>2022-07-17T14:50:39Z</time>
      </trkpt>
      <trkpt lat="45.22102" lon="6.22317">
        <ele>1588.738</ele>
        <time>2022-07-17T14:50:44Z</time>
      </trkpt>
      <trkpt lat="45.22102" lon="6.22317">
        <ele>1588.736</ele>
        <time>2022-07-17T14:50:49Z</time>
      </trkpt>
      <trkpt lat="45.22102" lon="6.22317">
        <ele>1588.734</ele>
        <time>2022-07-17T14:50:54Z</time>
      </trkpt>
      <trkpt lat="45.22102" lon="6.22317">
        <ele>1588.741</ele>
        <time>2022-07-17T14:50:59Z</time>
      </trkpt>
      <trkpt lat="45.22102" lon="6.22317">
        <ele>1588.744</ele>
        <time>2022-07-17T14:51:04Z</time>
      </trkpt>
      <trkpt lat="45.22102" lon="6.22317">
        <ele>1588.741</ele>
        <time>2022-07-17T14:51:09Z</time>
      </trkpt>
      <trkpt lat="45.22102" lon="6.22317">
        <ele>1588.739</ele>
        <time>2022-07-17T14:51:14Z</time>
      </trkpt>
      <trkpt lat="45.22102" lon="6.22317">
        <ele>1588.744</ele>
        <time>2022-07-17T14:51:19Z</time>
      </trkpt>
      <trkpt lat="45.22102" lon="6.22317">
        <ele>1588.745</ele>
        <time>2022-07-17T14:51:24Z</time>
      </trkpt>
      <trkpt lat="45.22102" lon="6.22317">
        <ele>1588.754</ele>
        <time>2022-07-17T14:51:29Z</time>
      </trkpt>
      <trkpt lat="45.22102" lon="6.22317">
        <ele>1588.762</ele>
        <time>2022-07-17T14:51:34Z</time>
      </trkpt>
      <trkpt lat="45.22102" lon="6.22317">
        <ele>1588.765</ele>
        <time>2022-07-17T14:51:39Z</time>
      </trkpt>
      <trkpt lat="45.22102" lon="6.22317">
        <ele>1588.772</ele>
        <time>2022-07-17T14:51:44Z</time>
      </trkpt>
      <trkpt lat="45.22102" lon="6.22317">
        <ele>1588.779</ele>
        <time>2022-07-17T14:51:49Z</time>
      </trkpt>
      <trkpt lat="45.22102" lon="6.22317">
        <ele>1588.781</ele>
        <time>2022-07-17T14:51:54Z</time>
      </trkpt>
      <trkpt lat="45.22102" lon="6.22317">
        <ele>1588.774</ele>
        <time>2022-07-17T14:51:59Z</time>
      </trkpt>
      <trkpt lat="45.22102" lon="6.22317">
        <ele>1588.771</ele>
        <time>2022-07-17T14:52:04Z</time>
      </trkpt>
      <trkpt lat="45.22102" lon="6.22317">
        <ele>1588.767</ele>
        <time>2022-07-17T14:52:09Z</time>
      </trkpt>
      <trkpt lat="45.22102" lon="6.22317">
        <ele>1588.781</ele>
        <time>2022-07-17T14:52:14Z</time>
      </trkpt>
      <trkpt lat="45.22102" lon="6.22317">
        <ele>1588.774</ele>
        <time>2022-07-17T14:52:19Z</time>
      </trkpt>
      <trkpt lat="45.22102" lon="6.22317">
        <ele>1588.778</ele>
        <time>2022-07-17T14:52:24Z</time>
      </trkpt>
      <trkpt lat="45.22102" lon="6.22317">
        <ele>1588.78</ele>
        <time>2022-07-17T14:52:29Z</time>
      </trkpt>
      <trkpt lat="45.22102" lon="6.22317">
        <ele>1588.779</ele>
        <time>2022-07-17T14:52:34Z</time>
      </trkpt>
      <trkpt lat="45.22102" lon="6.22317">
        <ele>1588.777</ele>
        <time>2022-07-17T14:52:39Z</time>
      </trkpt>
      <trkpt lat="45.22102" lon="6.22317">
        <ele>1588.759</ele>
        <time>2022-07-17T14:52:44Z</time>
      </trkpt>
      <trkpt lat="45.22102" lon="6.22317">
        <ele>1588.758</ele>
        <time>2022-07-17T14:52:49Z</time>
      </trkpt>
      <trkpt lat="45.22102" lon="6.22317">
        <ele>1588.749</ele>
        <time>2022-07-17T14:52:54Z</time>
      </trkpt>
      <trkpt lat="45.22102" lon="6.22317">
        <ele>1588.753</ele>
        <time>2022-07-17T14:52:59Z</time>
      </trkpt>
      <trkpt lat="45.22102" lon="6.22317">
        <ele>1588.756</ele>
        <time>2022-07-17T14:53:04Z</time>
      </trkpt>
      <trkpt lat="45.22102" lon="6.22317">
        <ele>1588.748</ele>
        <time>2022-07-17T14:53:09Z</time>
      </trkpt>
      <trkpt lat="45.22102" lon="6.22317">
        <ele>1588.743</ele>
        <time>2022-07-17T14:53:14Z</time>
      </trkpt>
      <trkpt lat="45.22102" lon="6.22317">
        <ele>1588.734</ele>
        <time>2022-07-17T14:53:19Z</time>
      </trkpt>
      <trkpt lat="45.22102" lon="6.22317">
        <ele>1588.73</ele>
        <time>2022-07-17T14:53:24Z</time>
      </trkpt>
      <trkpt lat="45.22102" lon="6.22317">
        <ele>1588.713</ele>
        <time>2022-07-17T14:53:29Z</time>
      </trkpt>
      <trkpt lat="45.22102" lon="6.22317">
        <ele>1588.697</ele>
        <time>2022-07-17T14:53:34Z</time>
      </trkpt>
      <trkpt lat="45.22102" lon="6.22317">
        <ele>1588.682</ele>
        <time>2022-07-17T14:53:39Z</time>
      </trkpt>
      <trkpt lat="45.22102" lon="6.22317">
        <ele>1588.672</ele>
        <time>2022-07-17T14:53:44Z</time>
      </trkpt>
      <trkpt lat="45.22102" lon="6.22317">
        <ele>1588.665</ele>
        <time>2022-07-17T14:53:49Z</time>
      </trkpt>
      <trkpt lat="45.22102" lon="6.22317">
        <ele>1588.661</ele>
        <time>2022-07-17T14:53:54Z</time>
      </trkpt>
      <trkpt lat="45.22102" lon="6.22317">
        <ele>1588.659</ele>
        <time>2022-07-17T14:53:59Z</time>
      </trkpt>
      <trkpt lat="45.22102" lon="6.22317">
        <ele>1588.654</ele>
        <time>2022-07-17T14:54:04Z</time>
      </trkpt>
      <trkpt lat="45.22102" lon="6.22317">
        <ele>1588.652</ele>
        <time>2022-07-17T14:54:09Z</time>
      </trkpt>
      <trkpt lat="45.22102" lon="6.22317">
        <ele>1588.643</ele>
        <time>2022-07-17T14:54:14Z</time>
      </trkpt>
      <trkpt lat="45.22102" lon="6.22317">
        <ele>1588.634</ele>
        <time>2022-07-17T14:54:19Z</time>
      </trkpt>
      <trkpt lat="45.22102" lon="6.22317">
        <ele>1588.635</ele>
        <time>2022-07-17T14:54:24Z</time>
      </trkpt>
      <trkpt lat="45.22102" lon="6.22317">
        <ele>1588.624</ele>
        <time>2022-07-17T14:54:29Z</time>
      </trkpt>
      <trkpt lat="45.22102" lon="6.22317">
        <ele>1588.616</ele>
        <time>2022-07-17T14:54:34Z</time>
      </trkpt>
      <trkpt lat="45.22102" lon="6.22317">
        <ele>1588.61</ele>
        <time>2022-07-17T14:54:39Z</time>
      </trkpt>
      <trkpt lat="45.22102" lon="6.22317">
        <ele>1588.599</ele>
        <time>2022-07-17T14:54:44Z</time>
      </trkpt>
      <trkpt lat="45.22102" lon="6.22317">
        <ele>1588.601</ele>
        <time>2022-07-17T14:54:49Z</time>
      </trkpt>
      <trkpt lat="45.22102" lon="6.22317">
        <ele>1588.604</ele>
        <time>2022-07-17T14:54:54Z</time>
      </trkpt>
      <trkpt lat="45.22102" lon="6.22317">
        <ele>1588.608</ele>
        <time>2022-07-17T14:54:59Z</time>
      </trkpt>
      <trkpt lat="45.22102" lon="6.22317">
        <ele>1588.604</ele>
        <time>2022-07-17T14:55:04Z</time>
      </trkpt>
      <trkpt lat="45.22102" lon="6.22317">
        <ele>1588.596</ele>
        <time>2022-07-17T14:55:09Z</time>
      </trkpt>
      <trkpt lat="45.22102" lon="6.22317">
        <ele>1588.596</ele>
        <time>2022-07-17T14:55:14Z</time>
      </trkpt>
      <trkpt lat="45.22102" lon="6.22317">
        <ele>1588.592</ele>
        <time>2022-07-17T14:55:19Z</time>
      </trkpt>
      <trkpt lat="45.22102" lon="6.22317">
        <ele>1588.584</ele>
        <time>2022-07-17T14:55:24Z</time>
      </trkpt>
      <trkpt lat="45.22102" lon="6.22317">
        <ele>1588.576</ele>
        <time>2022-07-17T14:55:29Z</time>
      </trkpt>
      <trkpt lat="45.22102" lon="6.22317">
        <ele>1588.572</ele>
        <time>2022-07-17T14:55:34Z</time>
      </trkpt>
      <trkpt lat="45.22102" lon="6.22317">
        <ele>1588.568</ele>
        <time>2022-07-17T14:55:39Z</time>
      </trkpt>
      <trkpt lat="45.22102" lon="6.22317">
        <ele>1588.568</ele>
        <time>2022-07-17T14:55:44Z</time>
      </trkpt>
      <trkpt lat="45.22102" lon="6.22317">
        <ele>1588.58</ele>
        <time>2022-07-17T14:55:49Z</time>
      </trkpt>
      <trkpt lat="45.22102" lon="6.22317">
        <ele>1588.582</ele>
        <time>2022-07-17T14:55:54Z</time>
      </trkpt>
      <trkpt lat="45.22102" lon="6.22317">
        <ele>1588.587</ele>
        <time>2022-07-17T14:55:59Z</time>
      </trkpt>
      <trkpt lat="45.22102" lon="6.22317">
        <ele>1588.593</ele>
        <time>2022-07-17T14:56:04Z</time>
      </trkpt>
      <trkpt lat="45.22102" lon="6.22317">
        <ele>1588.59</ele>
        <time>2022-07-17T14:56:09Z</time>
      </trkpt>
      <trkpt lat="45.22102" lon="6.22317">
        <ele>1588.589</ele>
        <time>2022-07-17T14:56:14Z</time>
      </trkpt>
      <trkpt lat="45.22102" lon="6.22317">
        <ele>1588.588</ele>
        <time>2022-07-17T14:56:19Z</time>
      </trkpt>
      <trkpt lat="45.22102" lon="6.22317">
        <ele>1588.581</ele>
        <time>2022-07-17T14:56:24Z</time>
      </trkpt>
      <trkpt lat="45.22102" lon="6.22317">
        <ele>1588.579</ele>
        <time>2022-07-17T14:56:29Z</time>
      </trkpt>
      <trkpt lat="45.22102" lon="6.22317">
        <ele>1588.568</ele>
        <time>2022-07-17T14:56:34Z</time>
      </trkpt>
      <trkpt lat="45.22102" lon="6.22317">
        <ele>1588.56</ele>
        <time>2022-07-17T14:56:39Z</time>
      </trkpt>
      <trkpt lat="45.22102" lon="6.22317">
        <ele>1588.551</ele>
        <time>2022-07-17T14:56:44Z</time>
      </trkpt>
      <trkpt lat="45.22102" lon="6.22317">
        <ele>1588.542</ele>
        <time>2022-07-17T14:56:49Z</time>
      </trkpt>
      <trkpt lat="45.22102" lon="6.22317">
        <ele>1588.535</ele>
        <time>2022-07-17T14:56:54Z</time>
      </trkpt>
      <trkpt lat="45.22102" lon="6.22317">
        <ele>1588.528</ele>
        <time>2022-07-17T14:56:59Z</time>
      </trkpt>
      <trkpt lat="45.22102" lon="6.22317">
        <ele>1588.523</ele>
        <time>2022-07-17T14:57:04Z</time>
      </trkpt>
      <trkpt lat="45.22102" lon="6.22317">
        <ele>1588.51</ele>
        <time>2022-07-17T14:57:09Z</time>
      </trkpt>
      <trkpt lat="45.22102" lon="6.22317">
        <ele>1588.494</ele>
        <time>2022-07-17T14:57:14Z</time>
      </trkpt>
      <trkpt lat="45.22102" lon="6.22317">
        <ele>1588.486</ele>
        <time>2022-07-17T14:57:19Z</time>
      </trkpt>
      <trkpt lat="45.22102" lon="6.22317">
        <ele>1588.473</ele>
        <time>2022-07-17T14:57:24Z</time>
      </trkpt>
      <trkpt lat="45.22102" lon="6.22317">
        <ele>1588.463</ele>
        <time>2022-07-17T14:57:29Z</time>
      </trkpt>
      <trkpt lat="45.22102" lon="6.22317">
        <ele>1588.45</ele>
        <time>2022-07-17T14:57:34Z</time>
      </trkpt>
      <trkpt lat="45.22102" lon="6.22317">
        <ele>1588.447</ele>
        <time>2022-07-17T14:57:39Z</time>
      </trkpt>
      <trkpt lat="45.22102" lon="6.22317">
        <ele>1588.44</ele>
        <time>2022-07-17T14:57:44Z</time>
      </trkpt>
      <trkpt lat="45.22102" lon="6.22317">
        <ele>1588.435</ele>
        <time>2022-07-17T14:57:49Z</time>
      </trkpt>
      <trkpt lat="45.22102" lon="6.22317">
        <ele>1588.428</ele>
        <time>2022-07-17T14:57:54Z</time>
      </trkpt>
      <trkpt lat="45.22102" lon="6.22317">
        <ele>1588.425</ele>
        <time>2022-07-17T14:57:59Z</time>
      </trkpt>
      <trkpt lat="45.22102" lon="6.22317">
        <ele>1588.424</ele>
        <time>2022-07-17T14:58:04Z</time>
      </trkpt>
      <trkpt lat="45.22102" lon="6.22317">
        <ele>1588.423</ele>
        <time>2022-07-17T14:58:09Z</time>
      </trkpt>
      <trkpt lat="45.22102" lon="6.22317">
        <ele>1588.421</ele>
        <time>2022-07-17T14:58:14Z</time>
      </trkpt>
      <trkpt lat="45.22102" lon="6.22317">
        <ele>1588.417</ele>
        <time>2022-07-17T14:58:19Z</time>
      </trkpt>
      <trkpt lat="45.22102" lon="6.22317">
        <ele>1588.41</ele>
        <time>2022-07-17T14:58:24Z</time>
      </trkpt>
      <trkpt lat="45.22102" lon="6.22317">
        <ele>1588.402</ele>
        <time>2022-07-17T14:58:29Z</time>
      </trkpt>
      <trkpt lat="45.22102" lon="6.22317">
        <ele>1588.397</ele>
        <time>2022-07-17T14:58:34Z</time>
      </trkpt>
      <trkpt lat="45.22102" lon="6.22317">
        <ele>1588.391</ele>
        <time>2022-07-17T14:58:39Z</time>
      </trkpt>
      <trkpt lat="45.22102" lon="6.22317">
        <ele>1588.387</ele>
        <time>2022-07-17T14:58:44Z</time>
      </trkpt>
      <trkpt lat="45.22102" lon="6.22317">
        <ele>1588.383</ele>
        <time>2022-07-17T14:58:49Z</time>
      </trkpt>
      <trkpt lat="45.22102" lon="6.22317">
        <ele>1588.383</ele>
        <time>2022-07-17T14:58:54Z</time>
      </trkpt>
      <trkpt lat="45.22102" lon="6.22317">
        <ele>1588.38</ele>
        <time>2022-07-17T14:58:59Z</time>
      </trkpt>
      <trkpt lat="45.22102" lon="6.22317">
        <ele>1588.376</ele>
        <time>2022-07-17T14:59:04Z</time>
      </trkpt>
      <trkpt lat="45.22102" lon="6.22317">
        <ele>1588.374</ele>
        <time>2022-07-17T14:59:09Z</time>
      </trkpt>
      <trkpt lat="45.22102" lon="6.22317">
        <ele>1588.366</ele>
        <time>2022-07-17T14:59:14Z</time>
      </trkpt>
      <trkpt lat="45.22102" lon="6.22317">
        <ele>1588.475</ele>
        <time>2022-07-17T14:59:19Z</time>
      </trkpt>
      <trkpt lat="45.22102" lon="6.22317">
        <ele>1588.475</ele>
        <time>2022-07-17T14:59:24Z</time>
      </trkpt>
      <trkpt lat="45.22102" lon="6.22317">
        <ele>1588.165</ele>
        <time>2022-07-17T14:59:29Z</time>
      </trkpt>
      <trkpt lat="45.22103" lon="6.22318">
        <ele>1587.964</ele>
        <time>2022-07-17T14:59:34Z</time>
      </trkpt>
      <trkpt lat="45.22103" lon="6.22318">
        <ele>1587.965</ele>
        <time>2022-07-17T14:59:39Z</time>
      </trkpt>
      <trkpt lat="45.22103" lon="6.22318">
        <ele>1587.967</ele>
        <time>2022-07-17T14:59:44Z</time>
      </trkpt>
      <trkpt lat="45.22103" lon="6.22318">
        <ele>1587.975</ele>
        <time>2022-07-17T14:59:49Z</time>
      </trkpt>
      <trkpt lat="45.22103" lon="6.22318">
        <ele>1587.815</ele>
        <time>2022-07-17T14:59:54Z</time>
      </trkpt>
      <trkpt lat="45.22103" lon="6.22318">
        <ele>1587.822</ele>
        <time>2022-07-17T14:59:59Z</time>
      </trkpt>
      <trkpt lat="45.22103" lon="6.22318">
        <ele>1587.821</ele>
        <time>2022-07-17T15:00:04Z</time>
      </trkpt>
      <trkpt lat="45.22103" lon="6.22318">
        <ele>1587.962</ele>
        <time>2022-07-17T15:00:09Z</time>
      </trkpt>
      <trkpt lat="45.22104" lon="6.22318">
        <ele>1588.15</ele>
        <time>2022-07-17T15:00:14Z</time>
      </trkpt>
      <trkpt lat="45.22104" lon="6.22317">
        <ele>1588.049</ele>
        <time>2022-07-17T15:00:19Z</time>
      </trkpt>
      <trkpt lat="45.22108" lon="6.22318">
        <ele>1586.261</ele>
        <time>2022-07-17T15:00:24Z</time>
      </trkpt>
      <trkpt lat="45.22107" lon="6.22316">
        <ele>1586.182</ele>
        <time>2022-07-17T15:00:29Z</time>
      </trkpt>
      <trkpt lat="45.22106" lon="6.22316">
        <ele>1586.743</ele>
        <time>2022-07-17T15:00:34Z</time>
      </trkpt>
      <trkpt lat="45.22106" lon="6.22315">
        <ele>1584.021</ele>
        <time>2022-07-17T15:00:39Z</time>
      </trkpt>
      <trkpt lat="45.22104" lon="6.22315">
        <ele>1581.837</ele>
        <time>2022-07-17T15:00:44Z</time>
      </trkpt>
      <trkpt lat="45.22104" lon="6.22316">
        <ele>1581.396</ele>
        <time>2022-07-17T15:00:49Z</time>
      </trkpt>
      <trkpt lat="45.22104" lon="6.22316">
        <ele>1581.394</ele>
        <time>2022-07-17T15:00:54Z</time>
      </trkpt>
      <trkpt lat="45.22104" lon="6.22315">
        <ele>1581.53</ele>
        <time>2022-07-17T15:00:59Z</time>
      </trkpt>
      <trkpt lat="45.22101" lon="6.22308">
        <ele>1581.541</ele>
        <time>2022-07-17T15:01:04Z</time>
      </trkpt>
      <trkpt lat="45.2211" lon="6.22303">
        <ele>1582.68</ele>
        <time>2022-07-17T15:01:09Z</time>
      </trkpt>
      <trkpt lat="45.22116" lon="6.22298">
        <ele>1582.944</ele>
        <time>2022-07-17T15:01:14Z</time>
      </trkpt>
      <trkpt lat="45.22122" lon="6.22294">
        <ele>1584.142</ele>
        <time>2022-07-17T15:01:19Z</time>
      </trkpt>
      <trkpt lat="45.22128" lon="6.22291">
        <ele>1584.978</ele>
        <time>2022-07-17T15:01:24Z</time>
      </trkpt>
      <trkpt lat="45.22134" lon="6.22288">
        <ele>1585.216</ele>
        <time>2022-07-17T15:01:29Z</time>
      </trkpt>
      <trkpt lat="45.2214" lon="6.22285">
        <ele>1585.974</ele>
        <time>2022-07-17T15:01:34Z</time>
      </trkpt>
      <trkpt lat="45.22146" lon="6.22281">
        <ele>1586.97</ele>
        <time>2022-07-17T15:01:39Z</time>
      </trkpt>
      <trkpt lat="45.22152" lon="6.22279">
        <ele>1587.628</ele>
        <time>2022-07-17T15:01:44Z</time>
      </trkpt>
      <trkpt lat="45.22159" lon="6.22277">
        <ele>1588.374</ele>
        <time>2022-07-17T15:01:49Z</time>
      </trkpt>
      <trkpt lat="45.22166" lon="6.22278">
        <ele>1589.361</ele>
        <time>2022-07-17T15:01:54Z</time>
      </trkpt>
      <trkpt lat="45.22173" lon="6.2228">
        <ele>1590.355</ele>
        <time>2022-07-17T15:01:59Z</time>
      </trkpt>
      <trkpt lat="45.22179" lon="6.22286">
        <ele>1591.182</ele>
        <time>2022-07-17T15:02:04Z</time>
      </trkpt>
      <trkpt lat="45.22185" lon="6.22295">
        <ele>1592.954</ele>
        <time>2022-07-17T15:02:09Z</time>
      </trkpt>
      <trkpt lat="45.22189" lon="6.22306">
        <ele>1593.514</ele>
        <time>2022-07-17T15:02:14Z</time>
      </trkpt>
      <trkpt lat="45.22191" lon="6.22321">
        <ele>1592.958</ele>
        <time>2022-07-17T15:02:19Z</time>
      </trkpt>
      <trkpt lat="45.22193" lon="6.22334">
        <ele>1593.295</ele>
        <time>2022-07-17T15:02:24Z</time>
      </trkpt>
      <trkpt lat="45.22194" lon="6.22349">
        <ele>1593.635</ele>
        <time>2022-07-17T15:02:29Z</time>
      </trkpt>
      <trkpt lat="45.22195" lon="6.22363">
        <ele>1593.611</ele>
        <time>2022-07-17T15:02:34Z</time>
      </trkpt>
      <trkpt lat="45.22197" lon="6.22378">
        <ele>1593.238</ele>
        <time>2022-07-17T15:02:39Z</time>
      </trkpt>
      <trkpt lat="45.22203" lon="6.22386">
        <ele>1593.344</ele>
        <time>2022-07-17T15:02:44Z</time>
      </trkpt>
      <trkpt lat="45.22212" lon="6.22383">
        <ele>1593.271</ele>
        <time>2022-07-17T15:02:49Z</time>
      </trkpt>
      <trkpt lat="45.22214" lon="6.2237">
        <ele>1592.658</ele>
        <time>2022-07-17T15:02:54Z</time>
      </trkpt>
      <trkpt lat="45.22215" lon="6.22355">
        <ele>1592.006</ele>
        <time>2022-07-17T15:02:59Z</time>
      </trkpt>
      <trkpt lat="45.22215" lon="6.22339">
        <ele>1591.78</ele>
        <time>2022-07-17T15:03:04Z</time>
      </trkpt>
      <trkpt lat="45.22214" lon="6.22325">
        <ele>1590.972</ele>
        <time>2022-07-17T15:03:09Z</time>
      </trkpt>
      <trkpt lat="45.22215" lon="6.2231">
        <ele>1590.802</ele>
        <time>2022-07-17T15:03:14Z</time>
      </trkpt>
      <trkpt lat="45.22213" lon="6.22294">
        <ele>1591.107</ele>
        <time>2022-07-17T15:03:19Z</time>
      </trkpt>
      <trkpt lat="45.22212" lon="6.22282">
        <ele>1591.878</ele>
        <time>2022-07-17T15:03:24Z</time>
      </trkpt>
      <trkpt lat="45.2221" lon="6.22269">
        <ele>1592.622</ele>
        <time>2022-07-17T15:03:29Z</time>
      </trkpt>
      <trkpt lat="45.22209" lon="6.22257">
        <ele>1593.101</ele>
        <time>2022-07-17T15:03:34Z</time>
      </trkpt>
      <trkpt lat="45.22207" lon="6.22244">
        <ele>1593.704</ele>
        <time>2022-07-17T15:03:39Z</time>
      </trkpt>
      <trkpt lat="45.22205" lon="6.22229">
        <ele>1594.918</ele>
        <time>2022-07-17T15:03:44Z</time>
      </trkpt>
      <trkpt lat="45.22202" lon="6.22216">
        <ele>1596.24</ele>
        <time>2022-07-17T15:03:49Z</time>
      </trkpt>
      <trkpt lat="45.22197" lon="6.22208">
        <ele>1597.9</ele>
        <time>2022-07-17T15:03:54Z</time>
      </trkpt>
      <trkpt lat="45.2219" lon="6.22198">
        <ele>1599.007</ele>
        <time>2022-07-17T15:03:59Z</time>
      </trkpt>
      <trkpt lat="45.22185" lon="6.22189">
        <ele>1599.733</ele>
        <time>2022-07-17T15:04:04Z</time>
      </trkpt>
      <trkpt lat="45.22181" lon="6.22179">
        <ele>1600.157</ele>
        <time>2022-07-17T15:04:09Z</time>
      </trkpt>
      <trkpt lat="45.22176" lon="6.2217">
        <ele>1601.692</ele>
        <time>2022-07-17T15:04:14Z</time>
      </trkpt>
      <trkpt lat="45.22171" lon="6.22161">
        <ele>1602.867</ele>
        <time>2022-07-17T15:04:19Z</time>
      </trkpt>
      <trkpt lat="45.22165" lon="6.2215">
        <ele>1604.747</ele>
        <time>2022-07-17T15:04:24Z</time>
      </trkpt>
      <trkpt lat="45.22159" lon="6.22138">
        <ele>1606.469</ele>
        <time>2022-07-17T15:04:29Z</time>
      </trkpt>
      <trkpt lat="45.22154" lon="6.22128">
        <ele>1607.263</ele>
        <time>2022-07-17T15:04:34Z</time>
      </trkpt>
      <trkpt lat="45.22151" lon="6.22117">
        <ele>1607.434</ele>
        <time>2022-07-17T15:04:39Z</time>
      </trkpt>
      <trkpt lat="45.22149" lon="6.22107">
        <ele>1608.017</ele>
        <time>2022-07-17T15:04:44Z</time>
      </trkpt>
      <trkpt lat="45.22147" lon="6.22096">
        <ele>1608.359</ele>
        <time>2022-07-17T15:04:49Z</time>
      </trkpt>
      <trkpt lat="45.22146" lon="6.22084">
        <ele>1609.767</ele>
        <time>2022-07-17T15:04:54Z</time>
      </trkpt>
      <trkpt lat="45.22146" lon="6.22073">
        <ele>1611.106</ele>
        <time>2022-07-17T15:04:59Z</time>
      </trkpt>
      <trkpt lat="45.22147" lon="6.22063">
        <ele>1611.747</ele>
        <time>2022-07-17T15:05:04Z</time>
      </trkpt>
      <trkpt lat="45.22147" lon="6.22052">
        <ele>1612.879</ele>
        <time>2022-07-17T15:05:09Z</time>
      </trkpt>
      <trkpt lat="45.22145" lon="6.22042">
        <ele>1612.711</ele>
        <time>2022-07-17T15:05:14Z</time>
      </trkpt>
      <trkpt lat="45.2214" lon="6.22034">
        <ele>1613.251</ele>
        <time>2022-07-17T15:05:19Z</time>
      </trkpt>
      <trkpt lat="45.22133" lon="6.22027">
        <ele>1613.892</ele>
        <time>2022-07-17T15:05:24Z</time>
      </trkpt>
      <trkpt lat="45.22126" lon="6.22022">
        <ele>1613.669</ele>
        <time>2022-07-17T15:05:29Z</time>
      </trkpt>
      <trkpt lat="45.22119" lon="6.22019">
        <ele>1614.494</ele>
        <time>2022-07-17T15:05:34Z</time>
      </trkpt>
      <trkpt lat="45.22113" lon="6.22013">
        <ele>1614.676</ele>
        <time>2022-07-17T15:05:39Z</time>
      </trkpt>
      <trkpt lat="45.22107" lon="6.22009">
        <ele>1616.475</ele>
        <time>2022-07-17T15:05:44Z</time>
      </trkpt>
      <trkpt lat="45.22101" lon="6.22004">
        <ele>1618.57</ele>
        <time>2022-07-17T15:05:49Z</time>
      </trkpt>
      <trkpt lat="45.22095" lon="6.21997">
        <ele>1620.226</ele>
        <time>2022-07-17T15:05:54Z</time>
      </trkpt>
      <trkpt lat="45.2209" lon="6.21988">
        <ele>1621.17</ele>
        <time>2022-07-17T15:05:59Z</time>
      </trkpt>
      <trkpt lat="45.22087" lon="6.21979">
        <ele>1621.728</ele>
        <time>2022-07-17T15:06:04Z</time>
      </trkpt>
      <trkpt lat="45.22084" lon="6.21968">
        <ele>1622.392</ele>
        <time>2022-07-17T15:06:09Z</time>
      </trkpt>
      <trkpt lat="45.22081" lon="6.21956">
        <ele>1622.709</ele>
        <time>2022-07-17T15:06:14Z</time>
      </trkpt>
      <trkpt lat="45.22078" lon="6.21945">
        <ele>1622.455</ele>
        <time>2022-07-17T15:06:19Z</time>
      </trkpt>
      <trkpt lat="45.22075" lon="6.21933">
        <ele>1624.637</ele>
        <time>2022-07-17T15:06:24Z</time>
      </trkpt>
      <trkpt lat="45.22072" lon="6.21921">
        <ele>1627.832</ele>
        <time>2022-07-17T15:06:29Z</time>
      </trkpt>
      <trkpt lat="45.2207" lon="6.21913">
        <ele>1628.644</ele>
        <time>2022-07-17T15:06:34Z</time>
      </trkpt>
      <trkpt lat="45.22068" lon="6.21904">
        <ele>1629.008</ele>
        <time>2022-07-17T15:06:39Z</time>
      </trkpt>
      <trkpt lat="45.22065" lon="6.21895">
        <ele>1629.126</ele>
        <time>2022-07-17T15:06:44Z</time>
      </trkpt>
      <trkpt lat="45.22062" lon="6.21883">
        <ele>1628.781</ele>
        <time>2022-07-17T15:06:49Z</time>
      </trkpt>
      <trkpt lat="45.22059" lon="6.21872">
        <ele>1629.865</ele>
        <time>2022-07-17T15:06:54Z</time>
      </trkpt>
      <trkpt lat="45.22056" lon="6.21859">
        <ele>1628.986</ele>
        <time>2022-07-17T15:06:59Z</time>
      </trkpt>
      <trkpt lat="45.22054" lon="6.21849">
        <ele>1629.639</ele>
        <time>2022-07-17T15:07:04Z</time>
      </trkpt>
      <trkpt lat="45.22052" lon="6.21837">
        <ele>1630.008</ele>
        <time>2022-07-17T15:07:09Z</time>
      </trkpt>
      <trkpt lat="45.2205" lon="6.21827">
        <ele>1630.442</ele>
        <time>2022-07-17T15:07:14Z</time>
      </trkpt>
      <trkpt lat="45.22048" lon="6.21817">
        <ele>1630.731</ele>
        <time>2022-07-17T15:07:19Z</time>
      </trkpt>
      <trkpt lat="45.22046" lon="6.21807">
        <ele>1631.69</ele>
        <time>2022-07-17T15:07:24Z</time>
      </trkpt>
      <trkpt lat="45.22044" lon="6.21796">
        <ele>1632.685</ele>
        <time>2022-07-17T15:07:29Z</time>
      </trkpt>
      <trkpt lat="45.22042" lon="6.21784">
        <ele>1633.972</ele>
        <time>2022-07-17T15:07:34Z</time>
      </trkpt>
      <trkpt lat="45.2204" lon="6.21772">
        <ele>1634.965</ele>
        <time>2022-07-17T15:07:39Z</time>
      </trkpt>
      <trkpt lat="45.22047" lon="6.21764">
        <ele>1636.058</ele>
        <time>2022-07-17T15:07:44Z</time>
      </trkpt>
      <trkpt lat="45.22058" lon="6.21764">
        <ele>1637.337</ele>
        <time>2022-07-17T15:07:49Z</time>
      </trkpt>
      <trkpt lat="45.22065" lon="6.21772">
        <ele>1638.724</ele>
        <time>2022-07-17T15:07:54Z</time>
      </trkpt>
      <trkpt lat="45.22071" lon="6.21783">
        <ele>1638.617</ele>
        <time>2022-07-17T15:07:59Z</time>
      </trkpt>
      <trkpt lat="45.22077" lon="6.2179">
        <ele>1639.066</ele>
        <time>2022-07-17T15:08:04Z</time>
      </trkpt>
      <trkpt lat="45.2208" lon="6.218">
        <ele>1639.302</ele>
        <time>2022-07-17T15:08:09Z</time>
      </trkpt>
      <trkpt lat="45.22085" lon="6.21805">
        <ele>1640.764</ele>
        <time>2022-07-17T15:08:14Z</time>
      </trkpt>
      <trkpt lat="45.22087" lon="6.21808">
        <ele>1641.583</ele>
        <time>2022-07-17T15:08:19Z</time>
      </trkpt>
      <trkpt lat="45.22087" lon="6.21808">
        <ele>1641.529</ele>
        <time>2022-07-17T15:08:24Z</time>
      </trkpt>
      <trkpt lat="45.22087" lon="6.21808">
        <ele>1641.475</ele>
        <time>2022-07-17T15:08:29Z</time>
      </trkpt>
      <trkpt lat="45.22089" lon="6.2181">
        <ele>1640.335</ele>
        <time>2022-07-17T15:08:34Z</time>
      </trkpt>
      <trkpt lat="45.22085" lon="6.21815">
        <ele>1639.839</ele>
        <time>2022-07-17T15:08:39Z</time>
      </trkpt>
      <trkpt lat="45.22082" lon="6.2181">
        <ele>1638.684</ele>
        <time>2022-07-17T15:08:44Z</time>
      </trkpt>
      <trkpt lat="45.2208" lon="6.21813">
        <ele>1638.313</ele>
        <time>2022-07-17T15:08:49Z</time>
      </trkpt>
      <trkpt lat="45.2208" lon="6.21813">
        <ele>1638.489</ele>
        <time>2022-07-17T15:08:54Z</time>
      </trkpt>
      <trkpt lat="45.22083" lon="6.21809">
        <ele>1638.939</ele>
        <time>2022-07-17T15:08:59Z</time>
      </trkpt>
      <trkpt lat="45.2208" lon="6.21809">
        <ele>1639.576</ele>
        <time>2022-07-17T15:09:04Z</time>
      </trkpt>
      <trkpt lat="45.2208" lon="6.21808">
        <ele>1639.057</ele>
        <time>2022-07-17T15:09:09Z</time>
      </trkpt>
    </trkseg>
  </trk>
</gpx>